<?xml version="1.0" encoding="UTF-8" standalone="no" ?>
<gpx xmlns="http://www.topografix.com/GPX/1/1" xmlns:xsi="http://www.w3.org/2001/XMLSchema-instance" xsi:schemaLocation="http://www.topografix.com/GPX/1/1 http://www.topografix.com/GPX/1/1/gpx.xsd" version="1.1" creator="VisuGPX - https://www.visugpx.com">
  <metadata>
    <name>SE-NE-St Aignan Pont St Martin Vertou D115 Loroux Bottereau Chapelle Basse Mer Mauves Thouaré St Luce Nantes</name>
    <desc><![CDATA[SE-NE-St Aignan Pont St Martin Vertou D115 Loroux Bottereau Chapelle Basse Mer Mauves Thouaré St Luce Nantes]]></desc>
  </metadata>
  <trk>
    <name><![CDATA[2022-08-07 08:56 GMT+2]]></name>
    <trkseg>
      <trkpt lat="47.16768" lon="-1.62654">
        <ele>61</ele>
        <time>2022-08-07T06:56:59Z</time>
      </trkpt>
      <trkpt lat="47.16773" lon="-1.6265">
        <ele>71</ele>
        <time>2022-08-07T06:59:00Z</time>
      </trkpt>
      <trkpt lat="47.16782" lon="-1.6266">
        <ele>77</ele>
        <time>2022-08-07T07:01:00Z</time>
      </trkpt>
      <trkpt lat="47.16777" lon="-1.62672">
        <ele>78</ele>
        <time>2022-08-07T07:01:03Z</time>
      </trkpt>
      <trkpt lat="47.16769" lon="-1.62678">
        <ele>78</ele>
        <time>2022-08-07T07:01:05Z</time>
      </trkpt>
      <trkpt lat="47.16759" lon="-1.62674">
        <ele>78</ele>
        <time>2022-08-07T07:01:07Z</time>
      </trkpt>
      <trkpt lat="47.1675" lon="-1.62672">
        <ele>77</ele>
        <time>2022-08-07T07:01:09Z</time>
      </trkpt>
      <trkpt lat="47.1674" lon="-1.62679">
        <ele>77</ele>
        <time>2022-08-07T07:01:11Z</time>
      </trkpt>
      <trkpt lat="47.1673" lon="-1.62686">
        <ele>77</ele>
        <time>2022-08-07T07:01:13Z</time>
      </trkpt>
      <trkpt lat="47.16721" lon="-1.62693">
        <ele>76</ele>
        <time>2022-08-07T07:01:15Z</time>
      </trkpt>
      <trkpt lat="47.16709" lon="-1.62691">
        <ele>76</ele>
        <time>2022-08-07T07:01:18Z</time>
      </trkpt>
      <trkpt lat="47.16703" lon="-1.62676">
        <ele>75</ele>
        <time>2022-08-07T07:01:20Z</time>
      </trkpt>
      <trkpt lat="47.16699" lon="-1.62659">
        <ele>75</ele>
        <time>2022-08-07T07:01:22Z</time>
      </trkpt>
      <trkpt lat="47.16697" lon="-1.62641">
        <ele>76</ele>
        <time>2022-08-07T07:01:24Z</time>
      </trkpt>
      <trkpt lat="47.16695" lon="-1.62622">
        <ele>75</ele>
        <time>2022-08-07T07:01:26Z</time>
      </trkpt>
      <trkpt lat="47.16695" lon="-1.62603">
        <ele>75</ele>
        <time>2022-08-07T07:01:28Z</time>
      </trkpt>
      <trkpt lat="47.16696" lon="-1.62584">
        <ele>74</ele>
        <time>2022-08-07T07:01:30Z</time>
      </trkpt>
      <trkpt lat="47.16698" lon="-1.62564">
        <ele>74</ele>
        <time>2022-08-07T07:01:32Z</time>
      </trkpt>
      <trkpt lat="47.167" lon="-1.62545">
        <ele>73</ele>
        <time>2022-08-07T07:01:34Z</time>
      </trkpt>
      <trkpt lat="47.16702" lon="-1.62526">
        <ele>73</ele>
        <time>2022-08-07T07:01:36Z</time>
      </trkpt>
      <trkpt lat="47.16705" lon="-1.62507">
        <ele>72</ele>
        <time>2022-08-07T07:01:38Z</time>
      </trkpt>
      <trkpt lat="47.16708" lon="-1.6249">
        <ele>72</ele>
        <time>2022-08-07T07:01:40Z</time>
      </trkpt>
      <trkpt lat="47.16711" lon="-1.62471">
        <ele>72</ele>
        <time>2022-08-07T07:01:42Z</time>
      </trkpt>
      <trkpt lat="47.16714" lon="-1.62453">
        <ele>73</ele>
        <time>2022-08-07T07:01:44Z</time>
      </trkpt>
      <trkpt lat="47.16717" lon="-1.62435">
        <ele>73</ele>
        <time>2022-08-07T07:01:46Z</time>
      </trkpt>
      <trkpt lat="47.16721" lon="-1.62422">
        <ele>73</ele>
        <time>2022-08-07T07:01:48Z</time>
      </trkpt>
      <trkpt lat="47.16725" lon="-1.62409">
        <ele>74</ele>
        <time>2022-08-07T07:01:50Z</time>
      </trkpt>
      <trkpt lat="47.16718" lon="-1.62399">
        <ele>74</ele>
        <time>2022-08-07T07:01:52Z</time>
      </trkpt>
      <trkpt lat="47.16711" lon="-1.62386">
        <ele>74</ele>
        <time>2022-08-07T07:01:54Z</time>
      </trkpt>
      <trkpt lat="47.16702" lon="-1.62372">
        <ele>73</ele>
        <time>2022-08-07T07:01:56Z</time>
      </trkpt>
      <trkpt lat="47.16691" lon="-1.62362">
        <ele>73</ele>
        <time>2022-08-07T07:01:58Z</time>
      </trkpt>
      <trkpt lat="47.16679" lon="-1.62359">
        <ele>74</ele>
        <time>2022-08-07T07:02:00Z</time>
      </trkpt>
      <trkpt lat="47.16667" lon="-1.62358">
        <ele>74</ele>
        <time>2022-08-07T07:02:02Z</time>
      </trkpt>
      <trkpt lat="47.16655" lon="-1.62364">
        <ele>74</ele>
        <time>2022-08-07T07:02:04Z</time>
      </trkpt>
      <trkpt lat="47.16644" lon="-1.62375">
        <ele>76</ele>
        <time>2022-08-07T07:02:06Z</time>
      </trkpt>
      <trkpt lat="47.16634" lon="-1.62385">
        <ele>76</ele>
        <time>2022-08-07T07:02:08Z</time>
      </trkpt>
      <trkpt lat="47.16625" lon="-1.62399">
        <ele>77</ele>
        <time>2022-08-07T07:02:10Z</time>
      </trkpt>
      <trkpt lat="47.16616" lon="-1.62413">
        <ele>78</ele>
        <time>2022-08-07T07:02:12Z</time>
      </trkpt>
      <trkpt lat="47.16608" lon="-1.62428">
        <ele>78</ele>
        <time>2022-08-07T07:02:14Z</time>
      </trkpt>
      <trkpt lat="47.16602" lon="-1.62443">
        <ele>78</ele>
        <time>2022-08-07T07:02:16Z</time>
      </trkpt>
      <trkpt lat="47.16595" lon="-1.62458">
        <ele>78</ele>
        <time>2022-08-07T07:02:18Z</time>
      </trkpt>
      <trkpt lat="47.16588" lon="-1.62473">
        <ele>78</ele>
        <time>2022-08-07T07:02:20Z</time>
      </trkpt>
      <trkpt lat="47.16582" lon="-1.62488">
        <ele>78</ele>
        <time>2022-08-07T07:02:22Z</time>
      </trkpt>
      <trkpt lat="47.16576" lon="-1.62504">
        <ele>78</ele>
        <time>2022-08-07T07:02:24Z</time>
      </trkpt>
      <trkpt lat="47.1657" lon="-1.62518">
        <ele>79</ele>
        <time>2022-08-07T07:02:26Z</time>
      </trkpt>
      <trkpt lat="47.16563" lon="-1.62533">
        <ele>79</ele>
        <time>2022-08-07T07:02:28Z</time>
      </trkpt>
      <trkpt lat="47.16556" lon="-1.62545">
        <ele>79</ele>
        <time>2022-08-07T07:02:30Z</time>
      </trkpt>
      <trkpt lat="47.16546" lon="-1.62555">
        <ele>80</ele>
        <time>2022-08-07T07:02:32Z</time>
      </trkpt>
      <trkpt lat="47.16537" lon="-1.62564">
        <ele>80</ele>
        <time>2022-08-07T07:02:34Z</time>
      </trkpt>
      <trkpt lat="47.16525" lon="-1.62566">
        <ele>81</ele>
        <time>2022-08-07T07:02:36Z</time>
      </trkpt>
      <trkpt lat="47.16513" lon="-1.62562">
        <ele>81</ele>
        <time>2022-08-07T07:02:38Z</time>
      </trkpt>
      <trkpt lat="47.16502" lon="-1.62558">
        <ele>81</ele>
        <time>2022-08-07T07:02:40Z</time>
      </trkpt>
      <trkpt lat="47.16491" lon="-1.62555">
        <ele>81</ele>
        <time>2022-08-07T07:02:42Z</time>
      </trkpt>
      <trkpt lat="47.16481" lon="-1.62551">
        <ele>81</ele>
        <time>2022-08-07T07:02:44Z</time>
      </trkpt>
      <trkpt lat="47.16469" lon="-1.62547">
        <ele>81</ele>
        <time>2022-08-07T07:02:46Z</time>
      </trkpt>
      <trkpt lat="47.16458" lon="-1.62544">
        <ele>81</ele>
        <time>2022-08-07T07:02:48Z</time>
      </trkpt>
      <trkpt lat="47.16447" lon="-1.6254">
        <ele>81</ele>
        <time>2022-08-07T07:02:50Z</time>
      </trkpt>
      <trkpt lat="47.16436" lon="-1.6254">
        <ele>81</ele>
        <time>2022-08-07T07:02:52Z</time>
      </trkpt>
      <trkpt lat="47.16425" lon="-1.62548">
        <ele>81</ele>
        <time>2022-08-07T07:02:54Z</time>
      </trkpt>
      <trkpt lat="47.16415" lon="-1.62558">
        <ele>81</ele>
        <time>2022-08-07T07:02:56Z</time>
      </trkpt>
      <trkpt lat="47.16405" lon="-1.62569">
        <ele>81</ele>
        <time>2022-08-07T07:02:58Z</time>
      </trkpt>
      <trkpt lat="47.16393" lon="-1.62577">
        <ele>80</ele>
        <time>2022-08-07T07:03:00Z</time>
      </trkpt>
      <trkpt lat="47.16381" lon="-1.62583">
        <ele>80</ele>
        <time>2022-08-07T07:03:02Z</time>
      </trkpt>
      <trkpt lat="47.16368" lon="-1.62583">
        <ele>80</ele>
        <time>2022-08-07T07:03:04Z</time>
      </trkpt>
      <trkpt lat="47.16355" lon="-1.62581">
        <ele>80</ele>
        <time>2022-08-07T07:03:06Z</time>
      </trkpt>
      <trkpt lat="47.16342" lon="-1.62577">
        <ele>79</ele>
        <time>2022-08-07T07:03:08Z</time>
      </trkpt>
      <trkpt lat="47.1633" lon="-1.62571">
        <ele>80</ele>
        <time>2022-08-07T07:03:10Z</time>
      </trkpt>
      <trkpt lat="47.16318" lon="-1.62569">
        <ele>79</ele>
        <time>2022-08-07T07:03:12Z</time>
      </trkpt>
      <trkpt lat="47.16306" lon="-1.62572">
        <ele>79</ele>
        <time>2022-08-07T07:03:14Z</time>
      </trkpt>
      <trkpt lat="47.16296" lon="-1.62584">
        <ele>79</ele>
        <time>2022-08-07T07:03:16Z</time>
      </trkpt>
      <trkpt lat="47.16289" lon="-1.626">
        <ele>79</ele>
        <time>2022-08-07T07:03:18Z</time>
      </trkpt>
      <trkpt lat="47.16285" lon="-1.62618">
        <ele>79</ele>
        <time>2022-08-07T07:03:20Z</time>
      </trkpt>
      <trkpt lat="47.16281" lon="-1.62637">
        <ele>79</ele>
        <time>2022-08-07T07:03:22Z</time>
      </trkpt>
      <trkpt lat="47.16279" lon="-1.62655">
        <ele>78</ele>
        <time>2022-08-07T07:03:24Z</time>
      </trkpt>
      <trkpt lat="47.16278" lon="-1.62673">
        <ele>78</ele>
        <time>2022-08-07T07:03:26Z</time>
      </trkpt>
      <trkpt lat="47.16278" lon="-1.6269">
        <ele>79</ele>
        <time>2022-08-07T07:03:28Z</time>
      </trkpt>
      <trkpt lat="47.1628" lon="-1.62706">
        <ele>79</ele>
        <time>2022-08-07T07:03:30Z</time>
      </trkpt>
      <trkpt lat="47.16281" lon="-1.6272">
        <ele>79</ele>
        <time>2022-08-07T07:03:32Z</time>
      </trkpt>
      <trkpt lat="47.16276" lon="-1.62736">
        <ele>78</ele>
        <time>2022-08-07T07:03:35Z</time>
      </trkpt>
      <trkpt lat="47.16264" lon="-1.62738">
        <ele>78</ele>
        <time>2022-08-07T07:03:37Z</time>
      </trkpt>
      <trkpt lat="47.16252" lon="-1.62744">
        <ele>77</ele>
        <time>2022-08-07T07:03:39Z</time>
      </trkpt>
      <trkpt lat="47.16238" lon="-1.62752">
        <ele>76</ele>
        <time>2022-08-07T07:03:41Z</time>
      </trkpt>
      <trkpt lat="47.16224" lon="-1.62758">
        <ele>75</ele>
        <time>2022-08-07T07:03:43Z</time>
      </trkpt>
      <trkpt lat="47.16209" lon="-1.62766">
        <ele>74</ele>
        <time>2022-08-07T07:03:45Z</time>
      </trkpt>
      <trkpt lat="47.16195" lon="-1.62777">
        <ele>74</ele>
        <time>2022-08-07T07:03:47Z</time>
      </trkpt>
      <trkpt lat="47.1618" lon="-1.62789">
        <ele>74</ele>
        <time>2022-08-07T07:03:49Z</time>
      </trkpt>
      <trkpt lat="47.16166" lon="-1.62802">
        <ele>73</ele>
        <time>2022-08-07T07:03:51Z</time>
      </trkpt>
      <trkpt lat="47.16152" lon="-1.62814">
        <ele>72</ele>
        <time>2022-08-07T07:03:53Z</time>
      </trkpt>
      <trkpt lat="47.16137" lon="-1.62827">
        <ele>72</ele>
        <time>2022-08-07T07:03:55Z</time>
      </trkpt>
      <trkpt lat="47.16123" lon="-1.6284">
        <ele>72</ele>
        <time>2022-08-07T07:03:57Z</time>
      </trkpt>
      <trkpt lat="47.16109" lon="-1.62853">
        <ele>72</ele>
        <time>2022-08-07T07:03:59Z</time>
      </trkpt>
      <trkpt lat="47.16094" lon="-1.62865">
        <ele>72</ele>
        <time>2022-08-07T07:04:01Z</time>
      </trkpt>
      <trkpt lat="47.16079" lon="-1.62878">
        <ele>72</ele>
        <time>2022-08-07T07:04:03Z</time>
      </trkpt>
      <trkpt lat="47.16065" lon="-1.62891">
        <ele>71</ele>
        <time>2022-08-07T07:04:05Z</time>
      </trkpt>
      <trkpt lat="47.16051" lon="-1.62904">
        <ele>71</ele>
        <time>2022-08-07T07:04:07Z</time>
      </trkpt>
      <trkpt lat="47.16036" lon="-1.62917">
        <ele>70</ele>
        <time>2022-08-07T07:04:09Z</time>
      </trkpt>
      <trkpt lat="47.16022" lon="-1.62929">
        <ele>69</ele>
        <time>2022-08-07T07:04:11Z</time>
      </trkpt>
      <trkpt lat="47.16007" lon="-1.62941">
        <ele>68</ele>
        <time>2022-08-07T07:04:13Z</time>
      </trkpt>
      <trkpt lat="47.15992" lon="-1.62955">
        <ele>67</ele>
        <time>2022-08-07T07:04:15Z</time>
      </trkpt>
      <trkpt lat="47.15977" lon="-1.62968">
        <ele>67</ele>
        <time>2022-08-07T07:04:17Z</time>
      </trkpt>
      <trkpt lat="47.15962" lon="-1.62982">
        <ele>66</ele>
        <time>2022-08-07T07:04:19Z</time>
      </trkpt>
      <trkpt lat="47.15948" lon="-1.62996">
        <ele>65</ele>
        <time>2022-08-07T07:04:21Z</time>
      </trkpt>
      <trkpt lat="47.15932" lon="-1.63009">
        <ele>65</ele>
        <time>2022-08-07T07:04:23Z</time>
      </trkpt>
      <trkpt lat="47.15917" lon="-1.63022">
        <ele>65</ele>
        <time>2022-08-07T07:04:25Z</time>
      </trkpt>
      <trkpt lat="47.15902" lon="-1.63036">
        <ele>64</ele>
        <time>2022-08-07T07:04:27Z</time>
      </trkpt>
      <trkpt lat="47.15887" lon="-1.63049">
        <ele>65</ele>
        <time>2022-08-07T07:04:29Z</time>
      </trkpt>
      <trkpt lat="47.15873" lon="-1.63061">
        <ele>66</ele>
        <time>2022-08-07T07:04:31Z</time>
      </trkpt>
      <trkpt lat="47.15859" lon="-1.63073">
        <ele>65</ele>
        <time>2022-08-07T07:04:33Z</time>
      </trkpt>
      <trkpt lat="47.15846" lon="-1.63085">
        <ele>66</ele>
        <time>2022-08-07T07:04:35Z</time>
      </trkpt>
      <trkpt lat="47.15834" lon="-1.63097">
        <ele>67</ele>
        <time>2022-08-07T07:04:37Z</time>
      </trkpt>
      <trkpt lat="47.15821" lon="-1.63107">
        <ele>67</ele>
        <time>2022-08-07T07:04:39Z</time>
      </trkpt>
      <trkpt lat="47.15809" lon="-1.63118">
        <ele>68</ele>
        <time>2022-08-07T07:04:41Z</time>
      </trkpt>
      <trkpt lat="47.15797" lon="-1.63128">
        <ele>68</ele>
        <time>2022-08-07T07:04:43Z</time>
      </trkpt>
      <trkpt lat="47.15785" lon="-1.63139">
        <ele>68</ele>
        <time>2022-08-07T07:04:45Z</time>
      </trkpt>
      <trkpt lat="47.15773" lon="-1.6315">
        <ele>69</ele>
        <time>2022-08-07T07:04:47Z</time>
      </trkpt>
      <trkpt lat="47.15761" lon="-1.63161">
        <ele>69</ele>
        <time>2022-08-07T07:04:49Z</time>
      </trkpt>
      <trkpt lat="47.15749" lon="-1.63171">
        <ele>69</ele>
        <time>2022-08-07T07:04:51Z</time>
      </trkpt>
      <trkpt lat="47.15737" lon="-1.63182">
        <ele>69</ele>
        <time>2022-08-07T07:04:53Z</time>
      </trkpt>
      <trkpt lat="47.15725" lon="-1.63192">
        <ele>69</ele>
        <time>2022-08-07T07:04:55Z</time>
      </trkpt>
      <trkpt lat="47.15712" lon="-1.63203">
        <ele>69</ele>
        <time>2022-08-07T07:04:57Z</time>
      </trkpt>
      <trkpt lat="47.15701" lon="-1.63213">
        <ele>70</ele>
        <time>2022-08-07T07:04:59Z</time>
      </trkpt>
      <trkpt lat="47.15689" lon="-1.63224">
        <ele>70</ele>
        <time>2022-08-07T07:05:01Z</time>
      </trkpt>
      <trkpt lat="47.15676" lon="-1.63234">
        <ele>70</ele>
        <time>2022-08-07T07:05:03Z</time>
      </trkpt>
      <trkpt lat="47.15664" lon="-1.63245">
        <ele>70</ele>
        <time>2022-08-07T07:05:05Z</time>
      </trkpt>
      <trkpt lat="47.15652" lon="-1.63256">
        <ele>70</ele>
        <time>2022-08-07T07:05:07Z</time>
      </trkpt>
      <trkpt lat="47.15639" lon="-1.63267">
        <ele>70</ele>
        <time>2022-08-07T07:05:09Z</time>
      </trkpt>
      <trkpt lat="47.15627" lon="-1.63278">
        <ele>70</ele>
        <time>2022-08-07T07:05:11Z</time>
      </trkpt>
      <trkpt lat="47.15614" lon="-1.63289">
        <ele>70</ele>
        <time>2022-08-07T07:05:13Z</time>
      </trkpt>
      <trkpt lat="47.15602" lon="-1.633">
        <ele>70</ele>
        <time>2022-08-07T07:05:15Z</time>
      </trkpt>
      <trkpt lat="47.1559" lon="-1.63311">
        <ele>70</ele>
        <time>2022-08-07T07:05:17Z</time>
      </trkpt>
      <trkpt lat="47.15579" lon="-1.63322">
        <ele>70</ele>
        <time>2022-08-07T07:05:19Z</time>
      </trkpt>
      <trkpt lat="47.15568" lon="-1.63332">
        <ele>71</ele>
        <time>2022-08-07T07:05:21Z</time>
      </trkpt>
      <trkpt lat="47.15556" lon="-1.63342">
        <ele>71</ele>
        <time>2022-08-07T07:05:23Z</time>
      </trkpt>
      <trkpt lat="47.15545" lon="-1.63352">
        <ele>71</ele>
        <time>2022-08-07T07:05:25Z</time>
      </trkpt>
      <trkpt lat="47.15534" lon="-1.63361">
        <ele>71</ele>
        <time>2022-08-07T07:05:27Z</time>
      </trkpt>
      <trkpt lat="47.15523" lon="-1.63371">
        <ele>72</ele>
        <time>2022-08-07T07:05:29Z</time>
      </trkpt>
      <trkpt lat="47.15513" lon="-1.6338">
        <ele>72</ele>
        <time>2022-08-07T07:05:31Z</time>
      </trkpt>
      <trkpt lat="47.15502" lon="-1.6339">
        <ele>73</ele>
        <time>2022-08-07T07:05:33Z</time>
      </trkpt>
      <trkpt lat="47.15491" lon="-1.63399">
        <ele>73</ele>
        <time>2022-08-07T07:05:35Z</time>
      </trkpt>
      <trkpt lat="47.15481" lon="-1.6341">
        <ele>73</ele>
        <time>2022-08-07T07:05:37Z</time>
      </trkpt>
      <trkpt lat="47.1547" lon="-1.6342">
        <ele>73</ele>
        <time>2022-08-07T07:05:39Z</time>
      </trkpt>
      <trkpt lat="47.15458" lon="-1.6343">
        <ele>73</ele>
        <time>2022-08-07T07:05:41Z</time>
      </trkpt>
      <trkpt lat="47.15447" lon="-1.6344">
        <ele>74</ele>
        <time>2022-08-07T07:05:43Z</time>
      </trkpt>
      <trkpt lat="47.15436" lon="-1.6345">
        <ele>74</ele>
        <time>2022-08-07T07:05:45Z</time>
      </trkpt>
      <trkpt lat="47.15425" lon="-1.6346">
        <ele>74</ele>
        <time>2022-08-07T07:05:47Z</time>
      </trkpt>
      <trkpt lat="47.15415" lon="-1.6347">
        <ele>75</ele>
        <time>2022-08-07T07:05:49Z</time>
      </trkpt>
      <trkpt lat="47.15405" lon="-1.63482">
        <ele>75</ele>
        <time>2022-08-07T07:05:51Z</time>
      </trkpt>
      <trkpt lat="47.15397" lon="-1.63495">
        <ele>75</ele>
        <time>2022-08-07T07:05:53Z</time>
      </trkpt>
      <trkpt lat="47.15388" lon="-1.63506">
        <ele>76</ele>
        <time>2022-08-07T07:05:55Z</time>
      </trkpt>
      <trkpt lat="47.15378" lon="-1.63511">
        <ele>76</ele>
        <time>2022-08-07T07:05:57Z</time>
      </trkpt>
      <trkpt lat="47.15367" lon="-1.63513">
        <ele>76</ele>
        <time>2022-08-07T07:05:59Z</time>
      </trkpt>
      <trkpt lat="47.15356" lon="-1.63525">
        <ele>76</ele>
        <time>2022-08-07T07:06:01Z</time>
      </trkpt>
      <trkpt lat="47.15346" lon="-1.63537">
        <ele>76</ele>
        <time>2022-08-07T07:06:03Z</time>
      </trkpt>
      <trkpt lat="47.15334" lon="-1.63547">
        <ele>77</ele>
        <time>2022-08-07T07:06:05Z</time>
      </trkpt>
      <trkpt lat="47.15323" lon="-1.63557">
        <ele>77</ele>
        <time>2022-08-07T07:06:07Z</time>
      </trkpt>
      <trkpt lat="47.1531" lon="-1.63564">
        <ele>77</ele>
        <time>2022-08-07T07:06:09Z</time>
      </trkpt>
      <trkpt lat="47.15298" lon="-1.63574">
        <ele>77</ele>
        <time>2022-08-07T07:06:11Z</time>
      </trkpt>
      <trkpt lat="47.15286" lon="-1.63584">
        <ele>77</ele>
        <time>2022-08-07T07:06:13Z</time>
      </trkpt>
      <trkpt lat="47.15274" lon="-1.63594">
        <ele>77</ele>
        <time>2022-08-07T07:06:15Z</time>
      </trkpt>
      <trkpt lat="47.15262" lon="-1.63604">
        <ele>76</ele>
        <time>2022-08-07T07:06:17Z</time>
      </trkpt>
      <trkpt lat="47.1525" lon="-1.63615">
        <ele>76</ele>
        <time>2022-08-07T07:06:19Z</time>
      </trkpt>
      <trkpt lat="47.15238" lon="-1.63625">
        <ele>76</ele>
        <time>2022-08-07T07:06:21Z</time>
      </trkpt>
      <trkpt lat="47.15226" lon="-1.63636">
        <ele>76</ele>
        <time>2022-08-07T07:06:23Z</time>
      </trkpt>
      <trkpt lat="47.15213" lon="-1.63646">
        <ele>76</ele>
        <time>2022-08-07T07:06:25Z</time>
      </trkpt>
      <trkpt lat="47.152" lon="-1.63657">
        <ele>76</ele>
        <time>2022-08-07T07:06:27Z</time>
      </trkpt>
      <trkpt lat="47.15187" lon="-1.63668">
        <ele>76</ele>
        <time>2022-08-07T07:06:29Z</time>
      </trkpt>
      <trkpt lat="47.15174" lon="-1.63678">
        <ele>76</ele>
        <time>2022-08-07T07:06:31Z</time>
      </trkpt>
      <trkpt lat="47.15162" lon="-1.63691">
        <ele>76</ele>
        <time>2022-08-07T07:06:33Z</time>
      </trkpt>
      <trkpt lat="47.15149" lon="-1.63703">
        <ele>77</ele>
        <time>2022-08-07T07:06:35Z</time>
      </trkpt>
      <trkpt lat="47.15137" lon="-1.63716">
        <ele>77</ele>
        <time>2022-08-07T07:06:37Z</time>
      </trkpt>
      <trkpt lat="47.15125" lon="-1.63728">
        <ele>77</ele>
        <time>2022-08-07T07:06:39Z</time>
      </trkpt>
      <trkpt lat="47.15113" lon="-1.63741">
        <ele>77</ele>
        <time>2022-08-07T07:06:41Z</time>
      </trkpt>
      <trkpt lat="47.15101" lon="-1.63754">
        <ele>77</ele>
        <time>2022-08-07T07:06:43Z</time>
      </trkpt>
      <trkpt lat="47.15089" lon="-1.63768">
        <ele>77</ele>
        <time>2022-08-07T07:06:45Z</time>
      </trkpt>
      <trkpt lat="47.15077" lon="-1.63782">
        <ele>77</ele>
        <time>2022-08-07T07:06:47Z</time>
      </trkpt>
      <trkpt lat="47.15065" lon="-1.63796">
        <ele>77</ele>
        <time>2022-08-07T07:06:49Z</time>
      </trkpt>
      <trkpt lat="47.15054" lon="-1.6381">
        <ele>77</ele>
        <time>2022-08-07T07:06:51Z</time>
      </trkpt>
      <trkpt lat="47.15043" lon="-1.63824">
        <ele>77</ele>
        <time>2022-08-07T07:06:53Z</time>
      </trkpt>
      <trkpt lat="47.15031" lon="-1.6384">
        <ele>77</ele>
        <time>2022-08-07T07:06:55Z</time>
      </trkpt>
      <trkpt lat="47.15021" lon="-1.63855">
        <ele>76</ele>
        <time>2022-08-07T07:06:57Z</time>
      </trkpt>
      <trkpt lat="47.15011" lon="-1.6387">
        <ele>76</ele>
        <time>2022-08-07T07:06:59Z</time>
      </trkpt>
      <trkpt lat="47.15001" lon="-1.63885">
        <ele>76</ele>
        <time>2022-08-07T07:07:01Z</time>
      </trkpt>
      <trkpt lat="47.14991" lon="-1.63901">
        <ele>77</ele>
        <time>2022-08-07T07:07:03Z</time>
      </trkpt>
      <trkpt lat="47.14981" lon="-1.63916">
        <ele>78</ele>
        <time>2022-08-07T07:07:05Z</time>
      </trkpt>
      <trkpt lat="47.14972" lon="-1.63931">
        <ele>78</ele>
        <time>2022-08-07T07:07:07Z</time>
      </trkpt>
      <trkpt lat="47.14963" lon="-1.63946">
        <ele>78</ele>
        <time>2022-08-07T07:07:09Z</time>
      </trkpt>
      <trkpt lat="47.14954" lon="-1.63961">
        <ele>79</ele>
        <time>2022-08-07T07:07:11Z</time>
      </trkpt>
      <trkpt lat="47.14945" lon="-1.63977">
        <ele>79</ele>
        <time>2022-08-07T07:07:13Z</time>
      </trkpt>
      <trkpt lat="47.14937" lon="-1.63992">
        <ele>78</ele>
        <time>2022-08-07T07:07:15Z</time>
      </trkpt>
      <trkpt lat="47.14927" lon="-1.64004">
        <ele>78</ele>
        <time>2022-08-07T07:07:17Z</time>
      </trkpt>
      <trkpt lat="47.14918" lon="-1.64017">
        <ele>78</ele>
        <time>2022-08-07T07:07:19Z</time>
      </trkpt>
      <trkpt lat="47.14909" lon="-1.64031">
        <ele>77</ele>
        <time>2022-08-07T07:07:21Z</time>
      </trkpt>
      <trkpt lat="47.14897" lon="-1.6404">
        <ele>77</ele>
        <time>2022-08-07T07:07:23Z</time>
      </trkpt>
      <trkpt lat="47.14885" lon="-1.64034">
        <ele>77</ele>
        <time>2022-08-07T07:07:25Z</time>
      </trkpt>
      <trkpt lat="47.14875" lon="-1.64019">
        <ele>77</ele>
        <time>2022-08-07T07:07:27Z</time>
      </trkpt>
      <trkpt lat="47.14867" lon="-1.64003">
        <ele>77</ele>
        <time>2022-08-07T07:07:29Z</time>
      </trkpt>
      <trkpt lat="47.14856" lon="-1.63989">
        <ele>77</ele>
        <time>2022-08-07T07:07:31Z</time>
      </trkpt>
      <trkpt lat="47.14843" lon="-1.63983">
        <ele>76</ele>
        <time>2022-08-07T07:07:33Z</time>
      </trkpt>
      <trkpt lat="47.14829" lon="-1.63984">
        <ele>76</ele>
        <time>2022-08-07T07:07:35Z</time>
      </trkpt>
      <trkpt lat="47.14816" lon="-1.63995">
        <ele>76</ele>
        <time>2022-08-07T07:07:37Z</time>
      </trkpt>
      <trkpt lat="47.14805" lon="-1.64008">
        <ele>77</ele>
        <time>2022-08-07T07:07:39Z</time>
      </trkpt>
      <trkpt lat="47.14793" lon="-1.6402">
        <ele>77</ele>
        <time>2022-08-07T07:07:41Z</time>
      </trkpt>
      <trkpt lat="47.14781" lon="-1.64032">
        <ele>77</ele>
        <time>2022-08-07T07:07:43Z</time>
      </trkpt>
      <trkpt lat="47.14768" lon="-1.64042">
        <ele>78</ele>
        <time>2022-08-07T07:07:45Z</time>
      </trkpt>
      <trkpt lat="47.14755" lon="-1.6405">
        <ele>78</ele>
        <time>2022-08-07T07:07:47Z</time>
      </trkpt>
      <trkpt lat="47.14741" lon="-1.64057">
        <ele>78</ele>
        <time>2022-08-07T07:07:49Z</time>
      </trkpt>
      <trkpt lat="47.14727" lon="-1.64062">
        <ele>78</ele>
        <time>2022-08-07T07:07:51Z</time>
      </trkpt>
      <trkpt lat="47.14713" lon="-1.64068">
        <ele>78</ele>
        <time>2022-08-07T07:07:53Z</time>
      </trkpt>
      <trkpt lat="47.147" lon="-1.64074">
        <ele>79</ele>
        <time>2022-08-07T07:07:55Z</time>
      </trkpt>
      <trkpt lat="47.14687" lon="-1.64079">
        <ele>78</ele>
        <time>2022-08-07T07:07:57Z</time>
      </trkpt>
      <trkpt lat="47.14675" lon="-1.64084">
        <ele>78</ele>
        <time>2022-08-07T07:07:59Z</time>
      </trkpt>
      <trkpt lat="47.14662" lon="-1.64091">
        <ele>78</ele>
        <time>2022-08-07T07:08:01Z</time>
      </trkpt>
      <trkpt lat="47.14648" lon="-1.64098">
        <ele>77</ele>
        <time>2022-08-07T07:08:03Z</time>
      </trkpt>
      <trkpt lat="47.14633" lon="-1.64105">
        <ele>77</ele>
        <time>2022-08-07T07:08:05Z</time>
      </trkpt>
      <trkpt lat="47.14619" lon="-1.64113">
        <ele>76</ele>
        <time>2022-08-07T07:08:07Z</time>
      </trkpt>
      <trkpt lat="47.14605" lon="-1.64121">
        <ele>76</ele>
        <time>2022-08-07T07:08:09Z</time>
      </trkpt>
      <trkpt lat="47.14592" lon="-1.64129">
        <ele>76</ele>
        <time>2022-08-07T07:08:11Z</time>
      </trkpt>
      <trkpt lat="47.14578" lon="-1.64136">
        <ele>76</ele>
        <time>2022-08-07T07:08:13Z</time>
      </trkpt>
      <trkpt lat="47.14564" lon="-1.64145">
        <ele>76</ele>
        <time>2022-08-07T07:08:15Z</time>
      </trkpt>
      <trkpt lat="47.14552" lon="-1.64153">
        <ele>76</ele>
        <time>2022-08-07T07:08:17Z</time>
      </trkpt>
      <trkpt lat="47.14539" lon="-1.64162">
        <ele>76</ele>
        <time>2022-08-07T07:08:19Z</time>
      </trkpt>
      <trkpt lat="47.14526" lon="-1.6417">
        <ele>76</ele>
        <time>2022-08-07T07:08:21Z</time>
      </trkpt>
      <trkpt lat="47.14512" lon="-1.64179">
        <ele>76</ele>
        <time>2022-08-07T07:08:23Z</time>
      </trkpt>
      <trkpt lat="47.14498" lon="-1.64188">
        <ele>76</ele>
        <time>2022-08-07T07:08:25Z</time>
      </trkpt>
      <trkpt lat="47.14484" lon="-1.64197">
        <ele>76</ele>
        <time>2022-08-07T07:08:27Z</time>
      </trkpt>
      <trkpt lat="47.1447" lon="-1.64205">
        <ele>75</ele>
        <time>2022-08-07T07:08:29Z</time>
      </trkpt>
      <trkpt lat="47.14455" lon="-1.64213">
        <ele>74</ele>
        <time>2022-08-07T07:08:31Z</time>
      </trkpt>
      <trkpt lat="47.14441" lon="-1.64217">
        <ele>74</ele>
        <time>2022-08-07T07:08:33Z</time>
      </trkpt>
      <trkpt lat="47.14428" lon="-1.6422">
        <ele>76</ele>
        <time>2022-08-07T07:08:35Z</time>
      </trkpt>
      <trkpt lat="47.14412" lon="-1.64221">
        <ele>77</ele>
        <time>2022-08-07T07:08:37Z</time>
      </trkpt>
      <trkpt lat="47.14399" lon="-1.64223">
        <ele>77</ele>
        <time>2022-08-07T07:08:39Z</time>
      </trkpt>
      <trkpt lat="47.14386" lon="-1.64224">
        <ele>77</ele>
        <time>2022-08-07T07:08:41Z</time>
      </trkpt>
      <trkpt lat="47.14371" lon="-1.64227">
        <ele>77</ele>
        <time>2022-08-07T07:08:43Z</time>
      </trkpt>
      <trkpt lat="47.14357" lon="-1.6423">
        <ele>76</ele>
        <time>2022-08-07T07:08:45Z</time>
      </trkpt>
      <trkpt lat="47.14343" lon="-1.64232">
        <ele>77</ele>
        <time>2022-08-07T07:08:47Z</time>
      </trkpt>
      <trkpt lat="47.14327" lon="-1.64234">
        <ele>78</ele>
        <time>2022-08-07T07:08:49Z</time>
      </trkpt>
      <trkpt lat="47.14312" lon="-1.64237">
        <ele>78</ele>
        <time>2022-08-07T07:08:51Z</time>
      </trkpt>
      <trkpt lat="47.14298" lon="-1.64241">
        <ele>79</ele>
        <time>2022-08-07T07:08:53Z</time>
      </trkpt>
      <trkpt lat="47.14284" lon="-1.64247">
        <ele>80</ele>
        <time>2022-08-07T07:08:55Z</time>
      </trkpt>
      <trkpt lat="47.14271" lon="-1.64257">
        <ele>79</ele>
        <time>2022-08-07T07:08:57Z</time>
      </trkpt>
      <trkpt lat="47.14258" lon="-1.64267">
        <ele>80</ele>
        <time>2022-08-07T07:08:59Z</time>
      </trkpt>
      <trkpt lat="47.14244" lon="-1.64279">
        <ele>79</ele>
        <time>2022-08-07T07:09:01Z</time>
      </trkpt>
      <trkpt lat="47.1423" lon="-1.64291">
        <ele>80</ele>
        <time>2022-08-07T07:09:03Z</time>
      </trkpt>
      <trkpt lat="47.14217" lon="-1.64304">
        <ele>80</ele>
        <time>2022-08-07T07:09:05Z</time>
      </trkpt>
      <trkpt lat="47.14205" lon="-1.64318">
        <ele>81</ele>
        <time>2022-08-07T07:09:07Z</time>
      </trkpt>
      <trkpt lat="47.14192" lon="-1.64333">
        <ele>80</ele>
        <time>2022-08-07T07:09:09Z</time>
      </trkpt>
      <trkpt lat="47.1418" lon="-1.64347">
        <ele>79</ele>
        <time>2022-08-07T07:09:11Z</time>
      </trkpt>
      <trkpt lat="47.14166" lon="-1.64361">
        <ele>78</ele>
        <time>2022-08-07T07:09:13Z</time>
      </trkpt>
      <trkpt lat="47.14153" lon="-1.64372">
        <ele>79</ele>
        <time>2022-08-07T07:09:15Z</time>
      </trkpt>
      <trkpt lat="47.14138" lon="-1.64381">
        <ele>79</ele>
        <time>2022-08-07T07:09:17Z</time>
      </trkpt>
      <trkpt lat="47.14123" lon="-1.64391">
        <ele>77</ele>
        <time>2022-08-07T07:09:19Z</time>
      </trkpt>
      <trkpt lat="47.14109" lon="-1.64402">
        <ele>76</ele>
        <time>2022-08-07T07:09:21Z</time>
      </trkpt>
      <trkpt lat="47.14096" lon="-1.64413">
        <ele>75</ele>
        <time>2022-08-07T07:09:23Z</time>
      </trkpt>
      <trkpt lat="47.14082" lon="-1.64425">
        <ele>75</ele>
        <time>2022-08-07T07:09:25Z</time>
      </trkpt>
      <trkpt lat="47.14068" lon="-1.64435">
        <ele>74</ele>
        <time>2022-08-07T07:09:27Z</time>
      </trkpt>
      <trkpt lat="47.14054" lon="-1.64446">
        <ele>74</ele>
        <time>2022-08-07T07:09:29Z</time>
      </trkpt>
      <trkpt lat="47.14041" lon="-1.64457">
        <ele>74</ele>
        <time>2022-08-07T07:09:31Z</time>
      </trkpt>
      <trkpt lat="47.14028" lon="-1.64468">
        <ele>75</ele>
        <time>2022-08-07T07:09:33Z</time>
      </trkpt>
      <trkpt lat="47.14015" lon="-1.64479">
        <ele>74</ele>
        <time>2022-08-07T07:09:35Z</time>
      </trkpt>
      <trkpt lat="47.14002" lon="-1.64489">
        <ele>75</ele>
        <time>2022-08-07T07:09:37Z</time>
      </trkpt>
      <trkpt lat="47.13988" lon="-1.645">
        <ele>75</ele>
        <time>2022-08-07T07:09:39Z</time>
      </trkpt>
      <trkpt lat="47.13975" lon="-1.64512">
        <ele>74</ele>
        <time>2022-08-07T07:09:41Z</time>
      </trkpt>
      <trkpt lat="47.13962" lon="-1.64526">
        <ele>74</ele>
        <time>2022-08-07T07:09:43Z</time>
      </trkpt>
      <trkpt lat="47.13949" lon="-1.64539">
        <ele>73</ele>
        <time>2022-08-07T07:09:45Z</time>
      </trkpt>
      <trkpt lat="47.13937" lon="-1.64551">
        <ele>73</ele>
        <time>2022-08-07T07:09:47Z</time>
      </trkpt>
      <trkpt lat="47.13926" lon="-1.64563">
        <ele>72</ele>
        <time>2022-08-07T07:09:49Z</time>
      </trkpt>
      <trkpt lat="47.13913" lon="-1.64575">
        <ele>73</ele>
        <time>2022-08-07T07:09:51Z</time>
      </trkpt>
      <trkpt lat="47.139" lon="-1.64585">
        <ele>74</ele>
        <time>2022-08-07T07:09:53Z</time>
      </trkpt>
      <trkpt lat="47.13885" lon="-1.64593">
        <ele>73</ele>
        <time>2022-08-07T07:09:55Z</time>
      </trkpt>
      <trkpt lat="47.1387" lon="-1.64598">
        <ele>73</ele>
        <time>2022-08-07T07:09:57Z</time>
      </trkpt>
      <trkpt lat="47.13854" lon="-1.64601">
        <ele>72</ele>
        <time>2022-08-07T07:09:59Z</time>
      </trkpt>
      <trkpt lat="47.1384" lon="-1.64602">
        <ele>72</ele>
        <time>2022-08-07T07:10:01Z</time>
      </trkpt>
      <trkpt lat="47.13826" lon="-1.64602">
        <ele>72</ele>
        <time>2022-08-07T07:10:03Z</time>
      </trkpt>
      <trkpt lat="47.13813" lon="-1.64601">
        <ele>72</ele>
        <time>2022-08-07T07:10:05Z</time>
      </trkpt>
      <trkpt lat="47.138" lon="-1.64599">
        <ele>72</ele>
        <time>2022-08-07T07:10:07Z</time>
      </trkpt>
      <trkpt lat="47.13787" lon="-1.64597">
        <ele>73</ele>
        <time>2022-08-07T07:10:09Z</time>
      </trkpt>
      <trkpt lat="47.13774" lon="-1.64594">
        <ele>73</ele>
        <time>2022-08-07T07:10:11Z</time>
      </trkpt>
      <trkpt lat="47.1376" lon="-1.64591">
        <ele>73</ele>
        <time>2022-08-07T07:10:13Z</time>
      </trkpt>
      <trkpt lat="47.13747" lon="-1.64588">
        <ele>73</ele>
        <time>2022-08-07T07:10:15Z</time>
      </trkpt>
      <trkpt lat="47.13734" lon="-1.64584">
        <ele>73</ele>
        <time>2022-08-07T07:10:17Z</time>
      </trkpt>
      <trkpt lat="47.13721" lon="-1.64582">
        <ele>72</ele>
        <time>2022-08-07T07:10:19Z</time>
      </trkpt>
      <trkpt lat="47.13709" lon="-1.6458">
        <ele>73</ele>
        <time>2022-08-07T07:10:21Z</time>
      </trkpt>
      <trkpt lat="47.13697" lon="-1.64578">
        <ele>74</ele>
        <time>2022-08-07T07:10:23Z</time>
      </trkpt>
      <trkpt lat="47.13685" lon="-1.64576">
        <ele>75</ele>
        <time>2022-08-07T07:10:25Z</time>
      </trkpt>
      <trkpt lat="47.13674" lon="-1.64573">
        <ele>76</ele>
        <time>2022-08-07T07:10:27Z</time>
      </trkpt>
      <trkpt lat="47.13662" lon="-1.6457">
        <ele>76</ele>
        <time>2022-08-07T07:10:29Z</time>
      </trkpt>
      <trkpt lat="47.13651" lon="-1.64566">
        <ele>75</ele>
        <time>2022-08-07T07:10:31Z</time>
      </trkpt>
      <trkpt lat="47.13639" lon="-1.64563">
        <ele>76</ele>
        <time>2022-08-07T07:10:33Z</time>
      </trkpt>
      <trkpt lat="47.13628" lon="-1.6456">
        <ele>76</ele>
        <time>2022-08-07T07:10:35Z</time>
      </trkpt>
      <trkpt lat="47.13616" lon="-1.64558">
        <ele>76</ele>
        <time>2022-08-07T07:10:37Z</time>
      </trkpt>
      <trkpt lat="47.13604" lon="-1.64557">
        <ele>76</ele>
        <time>2022-08-07T07:10:39Z</time>
      </trkpt>
      <trkpt lat="47.13591" lon="-1.64558">
        <ele>75</ele>
        <time>2022-08-07T07:10:41Z</time>
      </trkpt>
      <trkpt lat="47.13579" lon="-1.64562">
        <ele>75</ele>
        <time>2022-08-07T07:10:43Z</time>
      </trkpt>
      <trkpt lat="47.13568" lon="-1.6457">
        <ele>75</ele>
        <time>2022-08-07T07:10:45Z</time>
      </trkpt>
      <trkpt lat="47.13557" lon="-1.64579">
        <ele>74</ele>
        <time>2022-08-07T07:10:47Z</time>
      </trkpt>
      <trkpt lat="47.13547" lon="-1.64589">
        <ele>75</ele>
        <time>2022-08-07T07:10:49Z</time>
      </trkpt>
      <trkpt lat="47.13536" lon="-1.646">
        <ele>75</ele>
        <time>2022-08-07T07:10:51Z</time>
      </trkpt>
      <trkpt lat="47.13526" lon="-1.64611">
        <ele>75</ele>
        <time>2022-08-07T07:10:53Z</time>
      </trkpt>
      <trkpt lat="47.13516" lon="-1.64621">
        <ele>75</ele>
        <time>2022-08-07T07:10:55Z</time>
      </trkpt>
      <trkpt lat="47.13506" lon="-1.64631">
        <ele>76</ele>
        <time>2022-08-07T07:10:57Z</time>
      </trkpt>
      <trkpt lat="47.13495" lon="-1.64639">
        <ele>77</ele>
        <time>2022-08-07T07:10:59Z</time>
      </trkpt>
      <trkpt lat="47.13482" lon="-1.64644">
        <ele>77</ele>
        <time>2022-08-07T07:11:01Z</time>
      </trkpt>
      <trkpt lat="47.1347" lon="-1.64646">
        <ele>77</ele>
        <time>2022-08-07T07:11:03Z</time>
      </trkpt>
      <trkpt lat="47.13457" lon="-1.64646">
        <ele>76</ele>
        <time>2022-08-07T07:11:05Z</time>
      </trkpt>
      <trkpt lat="47.13444" lon="-1.64645">
        <ele>76</ele>
        <time>2022-08-07T07:11:07Z</time>
      </trkpt>
      <trkpt lat="47.13432" lon="-1.64643">
        <ele>75</ele>
        <time>2022-08-07T07:11:09Z</time>
      </trkpt>
      <trkpt lat="47.13421" lon="-1.64642">
        <ele>75</ele>
        <time>2022-08-07T07:11:11Z</time>
      </trkpt>
      <trkpt lat="47.13411" lon="-1.64642">
        <ele>75</ele>
        <time>2022-08-07T07:11:13Z</time>
      </trkpt>
      <trkpt lat="47.13401" lon="-1.64633">
        <ele>75</ele>
        <time>2022-08-07T07:11:16Z</time>
      </trkpt>
      <trkpt lat="47.13397" lon="-1.64617">
        <ele>76</ele>
        <time>2022-08-07T07:11:18Z</time>
      </trkpt>
      <trkpt lat="47.13394" lon="-1.64601">
        <ele>76</ele>
        <time>2022-08-07T07:11:20Z</time>
      </trkpt>
      <trkpt lat="47.13391" lon="-1.64581">
        <ele>76</ele>
        <time>2022-08-07T07:11:22Z</time>
      </trkpt>
      <trkpt lat="47.13387" lon="-1.64564">
        <ele>75</ele>
        <time>2022-08-07T07:11:24Z</time>
      </trkpt>
      <trkpt lat="47.13383" lon="-1.64546">
        <ele>75</ele>
        <time>2022-08-07T07:11:26Z</time>
      </trkpt>
      <trkpt lat="47.13378" lon="-1.6453">
        <ele>75</ele>
        <time>2022-08-07T07:11:28Z</time>
      </trkpt>
      <trkpt lat="47.13372" lon="-1.64513">
        <ele>74</ele>
        <time>2022-08-07T07:11:30Z</time>
      </trkpt>
      <trkpt lat="47.13366" lon="-1.64496">
        <ele>73</ele>
        <time>2022-08-07T07:11:32Z</time>
      </trkpt>
      <trkpt lat="47.13359" lon="-1.64479">
        <ele>73</ele>
        <time>2022-08-07T07:11:34Z</time>
      </trkpt>
      <trkpt lat="47.13352" lon="-1.64462">
        <ele>73</ele>
        <time>2022-08-07T07:11:36Z</time>
      </trkpt>
      <trkpt lat="47.13344" lon="-1.64444">
        <ele>72</ele>
        <time>2022-08-07T07:11:38Z</time>
      </trkpt>
      <trkpt lat="47.13335" lon="-1.64425">
        <ele>72</ele>
        <time>2022-08-07T07:11:40Z</time>
      </trkpt>
      <trkpt lat="47.13326" lon="-1.64407">
        <ele>71</ele>
        <time>2022-08-07T07:11:42Z</time>
      </trkpt>
      <trkpt lat="47.13317" lon="-1.64387">
        <ele>71</ele>
        <time>2022-08-07T07:11:44Z</time>
      </trkpt>
      <trkpt lat="47.13308" lon="-1.64367">
        <ele>70</ele>
        <time>2022-08-07T07:11:46Z</time>
      </trkpt>
      <trkpt lat="47.13298" lon="-1.64347">
        <ele>70</ele>
        <time>2022-08-07T07:11:48Z</time>
      </trkpt>
      <trkpt lat="47.13289" lon="-1.64327">
        <ele>69</ele>
        <time>2022-08-07T07:11:50Z</time>
      </trkpt>
      <trkpt lat="47.13279" lon="-1.64308">
        <ele>69</ele>
        <time>2022-08-07T07:11:52Z</time>
      </trkpt>
      <trkpt lat="47.1327" lon="-1.64288">
        <ele>68</ele>
        <time>2022-08-07T07:11:54Z</time>
      </trkpt>
      <trkpt lat="47.1326" lon="-1.64269">
        <ele>68</ele>
        <time>2022-08-07T07:11:56Z</time>
      </trkpt>
      <trkpt lat="47.13251" lon="-1.64249">
        <ele>67</ele>
        <time>2022-08-07T07:11:58Z</time>
      </trkpt>
      <trkpt lat="47.13243" lon="-1.6423">
        <ele>67</ele>
        <time>2022-08-07T07:12:00Z</time>
      </trkpt>
      <trkpt lat="47.13235" lon="-1.64211">
        <ele>66</ele>
        <time>2022-08-07T07:12:02Z</time>
      </trkpt>
      <trkpt lat="47.13226" lon="-1.64193">
        <ele>66</ele>
        <time>2022-08-07T07:12:04Z</time>
      </trkpt>
      <trkpt lat="47.13217" lon="-1.64175">
        <ele>66</ele>
        <time>2022-08-07T07:12:06Z</time>
      </trkpt>
      <trkpt lat="47.13209" lon="-1.64157">
        <ele>66</ele>
        <time>2022-08-07T07:12:08Z</time>
      </trkpt>
      <trkpt lat="47.13201" lon="-1.64138">
        <ele>66</ele>
        <time>2022-08-07T07:12:10Z</time>
      </trkpt>
      <trkpt lat="47.13192" lon="-1.64119">
        <ele>65</ele>
        <time>2022-08-07T07:12:12Z</time>
      </trkpt>
      <trkpt lat="47.13183" lon="-1.64101">
        <ele>65</ele>
        <time>2022-08-07T07:12:14Z</time>
      </trkpt>
      <trkpt lat="47.13175" lon="-1.64081">
        <ele>65</ele>
        <time>2022-08-07T07:12:16Z</time>
      </trkpt>
      <trkpt lat="47.13167" lon="-1.64062">
        <ele>64</ele>
        <time>2022-08-07T07:12:18Z</time>
      </trkpt>
      <trkpt lat="47.13159" lon="-1.64043">
        <ele>64</ele>
        <time>2022-08-07T07:12:20Z</time>
      </trkpt>
      <trkpt lat="47.13152" lon="-1.64025">
        <ele>64</ele>
        <time>2022-08-07T07:12:22Z</time>
      </trkpt>
      <trkpt lat="47.13145" lon="-1.64007">
        <ele>64</ele>
        <time>2022-08-07T07:12:24Z</time>
      </trkpt>
      <trkpt lat="47.13138" lon="-1.63989">
        <ele>64</ele>
        <time>2022-08-07T07:12:26Z</time>
      </trkpt>
      <trkpt lat="47.13132" lon="-1.63971">
        <ele>65</ele>
        <time>2022-08-07T07:12:28Z</time>
      </trkpt>
      <trkpt lat="47.13125" lon="-1.63952">
        <ele>64</ele>
        <time>2022-08-07T07:12:30Z</time>
      </trkpt>
      <trkpt lat="47.13118" lon="-1.63934">
        <ele>64</ele>
        <time>2022-08-07T07:12:32Z</time>
      </trkpt>
      <trkpt lat="47.13111" lon="-1.63917">
        <ele>64</ele>
        <time>2022-08-07T07:12:34Z</time>
      </trkpt>
      <trkpt lat="47.13104" lon="-1.63898">
        <ele>64</ele>
        <time>2022-08-07T07:12:36Z</time>
      </trkpt>
      <trkpt lat="47.13097" lon="-1.63879">
        <ele>63</ele>
        <time>2022-08-07T07:12:38Z</time>
      </trkpt>
      <trkpt lat="47.13089" lon="-1.63861">
        <ele>63</ele>
        <time>2022-08-07T07:12:40Z</time>
      </trkpt>
      <trkpt lat="47.13082" lon="-1.63842">
        <ele>62</ele>
        <time>2022-08-07T07:12:42Z</time>
      </trkpt>
      <trkpt lat="47.13075" lon="-1.63823">
        <ele>62</ele>
        <time>2022-08-07T07:12:44Z</time>
      </trkpt>
      <trkpt lat="47.13067" lon="-1.63804">
        <ele>62</ele>
        <time>2022-08-07T07:12:46Z</time>
      </trkpt>
      <trkpt lat="47.13059" lon="-1.63787">
        <ele>62</ele>
        <time>2022-08-07T07:12:48Z</time>
      </trkpt>
      <trkpt lat="47.13051" lon="-1.63769">
        <ele>62</ele>
        <time>2022-08-07T07:12:50Z</time>
      </trkpt>
      <trkpt lat="47.13043" lon="-1.63752">
        <ele>62</ele>
        <time>2022-08-07T07:12:52Z</time>
      </trkpt>
      <trkpt lat="47.13035" lon="-1.63735">
        <ele>62</ele>
        <time>2022-08-07T07:12:54Z</time>
      </trkpt>
      <trkpt lat="47.13028" lon="-1.63719">
        <ele>63</ele>
        <time>2022-08-07T07:12:56Z</time>
      </trkpt>
      <trkpt lat="47.1302" lon="-1.63702">
        <ele>63</ele>
        <time>2022-08-07T07:12:58Z</time>
      </trkpt>
      <trkpt lat="47.13012" lon="-1.63685">
        <ele>63</ele>
        <time>2022-08-07T07:13:00Z</time>
      </trkpt>
      <trkpt lat="47.13003" lon="-1.63669">
        <ele>63</ele>
        <time>2022-08-07T07:13:02Z</time>
      </trkpt>
      <trkpt lat="47.12994" lon="-1.63651">
        <ele>62</ele>
        <time>2022-08-07T07:13:04Z</time>
      </trkpt>
      <trkpt lat="47.12988" lon="-1.63632">
        <ele>62</ele>
        <time>2022-08-07T07:13:06Z</time>
      </trkpt>
      <trkpt lat="47.12982" lon="-1.63612">
        <ele>61</ele>
        <time>2022-08-07T07:13:08Z</time>
      </trkpt>
      <trkpt lat="47.12974" lon="-1.63594">
        <ele>61</ele>
        <time>2022-08-07T07:13:10Z</time>
      </trkpt>
      <trkpt lat="47.12967" lon="-1.63576">
        <ele>60</ele>
        <time>2022-08-07T07:13:12Z</time>
      </trkpt>
      <trkpt lat="47.1296" lon="-1.63558">
        <ele>61</ele>
        <time>2022-08-07T07:13:14Z</time>
      </trkpt>
      <trkpt lat="47.12952" lon="-1.63541">
        <ele>60</ele>
        <time>2022-08-07T07:13:16Z</time>
      </trkpt>
      <trkpt lat="47.12946" lon="-1.63523">
        <ele>61</ele>
        <time>2022-08-07T07:13:18Z</time>
      </trkpt>
      <trkpt lat="47.12939" lon="-1.63505">
        <ele>60</ele>
        <time>2022-08-07T07:13:20Z</time>
      </trkpt>
      <trkpt lat="47.12933" lon="-1.63487">
        <ele>60</ele>
        <time>2022-08-07T07:13:22Z</time>
      </trkpt>
      <trkpt lat="47.12925" lon="-1.6347">
        <ele>60</ele>
        <time>2022-08-07T07:13:24Z</time>
      </trkpt>
      <trkpt lat="47.12919" lon="-1.63452">
        <ele>60</ele>
        <time>2022-08-07T07:13:26Z</time>
      </trkpt>
      <trkpt lat="47.12912" lon="-1.63434">
        <ele>61</ele>
        <time>2022-08-07T07:13:28Z</time>
      </trkpt>
      <trkpt lat="47.12904" lon="-1.63417">
        <ele>61</ele>
        <time>2022-08-07T07:13:30Z</time>
      </trkpt>
      <trkpt lat="47.12897" lon="-1.63397">
        <ele>60</ele>
        <time>2022-08-07T07:13:32Z</time>
      </trkpt>
      <trkpt lat="47.1289" lon="-1.6338">
        <ele>60</ele>
        <time>2022-08-07T07:13:34Z</time>
      </trkpt>
      <trkpt lat="47.12883" lon="-1.63362">
        <ele>59</ele>
        <time>2022-08-07T07:13:36Z</time>
      </trkpt>
      <trkpt lat="47.12876" lon="-1.63344">
        <ele>59</ele>
        <time>2022-08-07T07:13:38Z</time>
      </trkpt>
      <trkpt lat="47.12869" lon="-1.63326">
        <ele>59</ele>
        <time>2022-08-07T07:13:40Z</time>
      </trkpt>
      <trkpt lat="47.12862" lon="-1.63308">
        <ele>58</ele>
        <time>2022-08-07T07:13:42Z</time>
      </trkpt>
      <trkpt lat="47.12855" lon="-1.63289">
        <ele>58</ele>
        <time>2022-08-07T07:13:44Z</time>
      </trkpt>
      <trkpt lat="47.12849" lon="-1.63271">
        <ele>59</ele>
        <time>2022-08-07T07:13:46Z</time>
      </trkpt>
      <trkpt lat="47.12842" lon="-1.63256">
        <ele>59</ele>
        <time>2022-08-07T07:13:48Z</time>
      </trkpt>
      <trkpt lat="47.12834" lon="-1.63241">
        <ele>60</ele>
        <time>2022-08-07T07:13:50Z</time>
      </trkpt>
      <trkpt lat="47.12828" lon="-1.63225">
        <ele>62</ele>
        <time>2022-08-07T07:13:52Z</time>
      </trkpt>
      <trkpt lat="47.12822" lon="-1.63209">
        <ele>63</ele>
        <time>2022-08-07T07:13:54Z</time>
      </trkpt>
      <trkpt lat="47.12815" lon="-1.63191">
        <ele>63</ele>
        <time>2022-08-07T07:13:56Z</time>
      </trkpt>
      <trkpt lat="47.12809" lon="-1.63173">
        <ele>63</ele>
        <time>2022-08-07T07:13:58Z</time>
      </trkpt>
      <trkpt lat="47.12802" lon="-1.63155">
        <ele>64</ele>
        <time>2022-08-07T07:14:00Z</time>
      </trkpt>
      <trkpt lat="47.12796" lon="-1.63137">
        <ele>66</ele>
        <time>2022-08-07T07:14:02Z</time>
      </trkpt>
      <trkpt lat="47.12789" lon="-1.63121">
        <ele>67</ele>
        <time>2022-08-07T07:14:04Z</time>
      </trkpt>
      <trkpt lat="47.12783" lon="-1.63106">
        <ele>67</ele>
        <time>2022-08-07T07:14:06Z</time>
      </trkpt>
      <trkpt lat="47.12775" lon="-1.63094">
        <ele>67</ele>
        <time>2022-08-07T07:14:08Z</time>
      </trkpt>
      <trkpt lat="47.12767" lon="-1.6308">
        <ele>69</ele>
        <time>2022-08-07T07:14:10Z</time>
      </trkpt>
      <trkpt lat="47.12759" lon="-1.63065">
        <ele>70</ele>
        <time>2022-08-07T07:14:12Z</time>
      </trkpt>
      <trkpt lat="47.12753" lon="-1.63049">
        <ele>71</ele>
        <time>2022-08-07T07:14:14Z</time>
      </trkpt>
      <trkpt lat="47.12746" lon="-1.63032">
        <ele>71</ele>
        <time>2022-08-07T07:14:16Z</time>
      </trkpt>
      <trkpt lat="47.12739" lon="-1.63014">
        <ele>70</ele>
        <time>2022-08-07T07:14:18Z</time>
      </trkpt>
      <trkpt lat="47.12732" lon="-1.62996">
        <ele>69</ele>
        <time>2022-08-07T07:14:20Z</time>
      </trkpt>
      <trkpt lat="47.12725" lon="-1.62979">
        <ele>69</ele>
        <time>2022-08-07T07:14:22Z</time>
      </trkpt>
      <trkpt lat="47.12718" lon="-1.62961">
        <ele>68</ele>
        <time>2022-08-07T07:14:24Z</time>
      </trkpt>
      <trkpt lat="47.12712" lon="-1.62945">
        <ele>68</ele>
        <time>2022-08-07T07:14:26Z</time>
      </trkpt>
      <trkpt lat="47.12706" lon="-1.62929">
        <ele>66</ele>
        <time>2022-08-07T07:14:28Z</time>
      </trkpt>
      <trkpt lat="47.12704" lon="-1.62912">
        <ele>65</ele>
        <time>2022-08-07T07:14:30Z</time>
      </trkpt>
      <trkpt lat="47.12703" lon="-1.62896">
        <ele>64</ele>
        <time>2022-08-07T07:14:32Z</time>
      </trkpt>
      <trkpt lat="47.12697" lon="-1.62881">
        <ele>63</ele>
        <time>2022-08-07T07:14:34Z</time>
      </trkpt>
      <trkpt lat="47.12691" lon="-1.62866">
        <ele>63</ele>
        <time>2022-08-07T07:14:36Z</time>
      </trkpt>
      <trkpt lat="47.12685" lon="-1.62851">
        <ele>63</ele>
        <time>2022-08-07T07:14:38Z</time>
      </trkpt>
      <trkpt lat="47.12678" lon="-1.62836">
        <ele>63</ele>
        <time>2022-08-07T07:14:40Z</time>
      </trkpt>
      <trkpt lat="47.1267" lon="-1.62822">
        <ele>63</ele>
        <time>2022-08-07T07:14:42Z</time>
      </trkpt>
      <trkpt lat="47.12663" lon="-1.62806">
        <ele>63</ele>
        <time>2022-08-07T07:14:44Z</time>
      </trkpt>
      <trkpt lat="47.12658" lon="-1.62788">
        <ele>62</ele>
        <time>2022-08-07T07:14:46Z</time>
      </trkpt>
      <trkpt lat="47.12652" lon="-1.6277">
        <ele>62</ele>
        <time>2022-08-07T07:14:48Z</time>
      </trkpt>
      <trkpt lat="47.12644" lon="-1.62753">
        <ele>62</ele>
        <time>2022-08-07T07:14:50Z</time>
      </trkpt>
      <trkpt lat="47.12635" lon="-1.62738">
        <ele>62</ele>
        <time>2022-08-07T07:14:52Z</time>
      </trkpt>
      <trkpt lat="47.12627" lon="-1.62722">
        <ele>61</ele>
        <time>2022-08-07T07:14:54Z</time>
      </trkpt>
      <trkpt lat="47.12619" lon="-1.62705">
        <ele>61</ele>
        <time>2022-08-07T07:14:56Z</time>
      </trkpt>
      <trkpt lat="47.12611" lon="-1.62688">
        <ele>60</ele>
        <time>2022-08-07T07:14:58Z</time>
      </trkpt>
      <trkpt lat="47.12603" lon="-1.62671">
        <ele>60</ele>
        <time>2022-08-07T07:15:00Z</time>
      </trkpt>
      <trkpt lat="47.12595" lon="-1.62655">
        <ele>60</ele>
        <time>2022-08-07T07:15:02Z</time>
      </trkpt>
      <trkpt lat="47.12588" lon="-1.62639">
        <ele>60</ele>
        <time>2022-08-07T07:15:04Z</time>
      </trkpt>
      <trkpt lat="47.12582" lon="-1.62621">
        <ele>60</ele>
        <time>2022-08-07T07:15:06Z</time>
      </trkpt>
      <trkpt lat="47.12576" lon="-1.62603">
        <ele>60</ele>
        <time>2022-08-07T07:15:08Z</time>
      </trkpt>
      <trkpt lat="47.12571" lon="-1.62584">
        <ele>59</ele>
        <time>2022-08-07T07:15:10Z</time>
      </trkpt>
      <trkpt lat="47.12567" lon="-1.62565">
        <ele>59</ele>
        <time>2022-08-07T07:15:12Z</time>
      </trkpt>
      <trkpt lat="47.12564" lon="-1.62547">
        <ele>59</ele>
        <time>2022-08-07T07:15:14Z</time>
      </trkpt>
      <trkpt lat="47.1256" lon="-1.62527">
        <ele>59</ele>
        <time>2022-08-07T07:15:16Z</time>
      </trkpt>
      <trkpt lat="47.12556" lon="-1.62508">
        <ele>59</ele>
        <time>2022-08-07T07:15:18Z</time>
      </trkpt>
      <trkpt lat="47.12552" lon="-1.62489">
        <ele>59</ele>
        <time>2022-08-07T07:15:20Z</time>
      </trkpt>
      <trkpt lat="47.12548" lon="-1.62471">
        <ele>59</ele>
        <time>2022-08-07T07:15:22Z</time>
      </trkpt>
      <trkpt lat="47.12544" lon="-1.62453">
        <ele>60</ele>
        <time>2022-08-07T07:15:24Z</time>
      </trkpt>
      <trkpt lat="47.12539" lon="-1.62434">
        <ele>60</ele>
        <time>2022-08-07T07:15:26Z</time>
      </trkpt>
      <trkpt lat="47.12533" lon="-1.62417">
        <ele>60</ele>
        <time>2022-08-07T07:15:28Z</time>
      </trkpt>
      <trkpt lat="47.12527" lon="-1.62398">
        <ele>60</ele>
        <time>2022-08-07T07:15:30Z</time>
      </trkpt>
      <trkpt lat="47.1252" lon="-1.62381">
        <ele>60</ele>
        <time>2022-08-07T07:15:32Z</time>
      </trkpt>
      <trkpt lat="47.12514" lon="-1.62365">
        <ele>60</ele>
        <time>2022-08-07T07:15:34Z</time>
      </trkpt>
      <trkpt lat="47.12507" lon="-1.62349">
        <ele>60</ele>
        <time>2022-08-07T07:15:36Z</time>
      </trkpt>
      <trkpt lat="47.125" lon="-1.62332">
        <ele>60</ele>
        <time>2022-08-07T07:15:38Z</time>
      </trkpt>
      <trkpt lat="47.12491" lon="-1.62317">
        <ele>59</ele>
        <time>2022-08-07T07:15:40Z</time>
      </trkpt>
      <trkpt lat="47.12483" lon="-1.62303">
        <ele>60</ele>
        <time>2022-08-07T07:15:42Z</time>
      </trkpt>
      <trkpt lat="47.12473" lon="-1.62289">
        <ele>60</ele>
        <time>2022-08-07T07:15:44Z</time>
      </trkpt>
      <trkpt lat="47.12465" lon="-1.62275">
        <ele>60</ele>
        <time>2022-08-07T07:15:46Z</time>
      </trkpt>
      <trkpt lat="47.12455" lon="-1.62261">
        <ele>60</ele>
        <time>2022-08-07T07:15:48Z</time>
      </trkpt>
      <trkpt lat="47.12446" lon="-1.62248">
        <ele>60</ele>
        <time>2022-08-07T07:15:50Z</time>
      </trkpt>
      <trkpt lat="47.12437" lon="-1.62234">
        <ele>60</ele>
        <time>2022-08-07T07:15:52Z</time>
      </trkpt>
      <trkpt lat="47.12428" lon="-1.6222">
        <ele>61</ele>
        <time>2022-08-07T07:15:54Z</time>
      </trkpt>
      <trkpt lat="47.12419" lon="-1.62205">
        <ele>60</ele>
        <time>2022-08-07T07:15:56Z</time>
      </trkpt>
      <trkpt lat="47.12411" lon="-1.6219">
        <ele>60</ele>
        <time>2022-08-07T07:15:58Z</time>
      </trkpt>
      <trkpt lat="47.12404" lon="-1.62173">
        <ele>60</ele>
        <time>2022-08-07T07:16:00Z</time>
      </trkpt>
      <trkpt lat="47.12397" lon="-1.62156">
        <ele>60</ele>
        <time>2022-08-07T07:16:02Z</time>
      </trkpt>
      <trkpt lat="47.12391" lon="-1.62138">
        <ele>60</ele>
        <time>2022-08-07T07:16:04Z</time>
      </trkpt>
      <trkpt lat="47.12387" lon="-1.62119">
        <ele>60</ele>
        <time>2022-08-07T07:16:06Z</time>
      </trkpt>
      <trkpt lat="47.12383" lon="-1.62099">
        <ele>59</ele>
        <time>2022-08-07T07:16:08Z</time>
      </trkpt>
      <trkpt lat="47.12382" lon="-1.62081">
        <ele>59</ele>
        <time>2022-08-07T07:16:10Z</time>
      </trkpt>
      <trkpt lat="47.12382" lon="-1.62062">
        <ele>59</ele>
        <time>2022-08-07T07:16:12Z</time>
      </trkpt>
      <trkpt lat="47.12382" lon="-1.62043">
        <ele>59</ele>
        <time>2022-08-07T07:16:14Z</time>
      </trkpt>
      <trkpt lat="47.12385" lon="-1.62024">
        <ele>60</ele>
        <time>2022-08-07T07:16:16Z</time>
      </trkpt>
      <trkpt lat="47.12388" lon="-1.62006">
        <ele>60</ele>
        <time>2022-08-07T07:16:18Z</time>
      </trkpt>
      <trkpt lat="47.12392" lon="-1.61988">
        <ele>60</ele>
        <time>2022-08-07T07:16:20Z</time>
      </trkpt>
      <trkpt lat="47.12397" lon="-1.61971">
        <ele>60</ele>
        <time>2022-08-07T07:16:22Z</time>
      </trkpt>
      <trkpt lat="47.12401" lon="-1.61953">
        <ele>60</ele>
        <time>2022-08-07T07:16:24Z</time>
      </trkpt>
      <trkpt lat="47.12405" lon="-1.61936">
        <ele>60</ele>
        <time>2022-08-07T07:16:26Z</time>
      </trkpt>
      <trkpt lat="47.1241" lon="-1.61919">
        <ele>60</ele>
        <time>2022-08-07T07:16:28Z</time>
      </trkpt>
      <trkpt lat="47.12416" lon="-1.61894">
        <ele>60</ele>
        <time>2022-08-07T07:16:31Z</time>
      </trkpt>
      <trkpt lat="47.1242" lon="-1.61878">
        <ele>60</ele>
        <time>2022-08-07T07:16:33Z</time>
      </trkpt>
      <trkpt lat="47.12429" lon="-1.61856">
        <ele>60</ele>
        <time>2022-08-07T07:16:36Z</time>
      </trkpt>
      <trkpt lat="47.12434" lon="-1.61831">
        <ele>60</ele>
        <time>2022-08-07T07:16:39Z</time>
      </trkpt>
      <trkpt lat="47.12438" lon="-1.61813">
        <ele>61</ele>
        <time>2022-08-07T07:16:41Z</time>
      </trkpt>
      <trkpt lat="47.12441" lon="-1.61797">
        <ele>61</ele>
        <time>2022-08-07T07:16:43Z</time>
      </trkpt>
      <trkpt lat="47.12445" lon="-1.61782">
        <ele>61</ele>
        <time>2022-08-07T07:16:45Z</time>
      </trkpt>
      <trkpt lat="47.12449" lon="-1.61766">
        <ele>61</ele>
        <time>2022-08-07T07:16:47Z</time>
      </trkpt>
      <trkpt lat="47.12453" lon="-1.61751">
        <ele>61</ele>
        <time>2022-08-07T07:16:49Z</time>
      </trkpt>
      <trkpt lat="47.12457" lon="-1.61735">
        <ele>61</ele>
        <time>2022-08-07T07:16:51Z</time>
      </trkpt>
      <trkpt lat="47.12461" lon="-1.6172">
        <ele>62</ele>
        <time>2022-08-07T07:16:53Z</time>
      </trkpt>
      <trkpt lat="47.12465" lon="-1.61705">
        <ele>62</ele>
        <time>2022-08-07T07:16:55Z</time>
      </trkpt>
      <trkpt lat="47.12469" lon="-1.61689">
        <ele>62</ele>
        <time>2022-08-07T07:16:57Z</time>
      </trkpt>
      <trkpt lat="47.12471" lon="-1.61673">
        <ele>62</ele>
        <time>2022-08-07T07:16:59Z</time>
      </trkpt>
      <trkpt lat="47.12475" lon="-1.61656">
        <ele>62</ele>
        <time>2022-08-07T07:17:01Z</time>
      </trkpt>
      <trkpt lat="47.12477" lon="-1.6164">
        <ele>62</ele>
        <time>2022-08-07T07:17:03Z</time>
      </trkpt>
      <trkpt lat="47.12478" lon="-1.61624">
        <ele>63</ele>
        <time>2022-08-07T07:17:05Z</time>
      </trkpt>
      <trkpt lat="47.12477" lon="-1.61606">
        <ele>62</ele>
        <time>2022-08-07T07:17:07Z</time>
      </trkpt>
      <trkpt lat="47.12476" lon="-1.61589">
        <ele>62</ele>
        <time>2022-08-07T07:17:09Z</time>
      </trkpt>
      <trkpt lat="47.12474" lon="-1.61572">
        <ele>62</ele>
        <time>2022-08-07T07:17:11Z</time>
      </trkpt>
      <trkpt lat="47.12472" lon="-1.61554">
        <ele>62</ele>
        <time>2022-08-07T07:17:13Z</time>
      </trkpt>
      <trkpt lat="47.1247" lon="-1.61536">
        <ele>62</ele>
        <time>2022-08-07T07:17:15Z</time>
      </trkpt>
      <trkpt lat="47.12468" lon="-1.61519">
        <ele>62</ele>
        <time>2022-08-07T07:17:17Z</time>
      </trkpt>
      <trkpt lat="47.12467" lon="-1.61502">
        <ele>62</ele>
        <time>2022-08-07T07:17:19Z</time>
      </trkpt>
      <trkpt lat="47.12464" lon="-1.61484">
        <ele>62</ele>
        <time>2022-08-07T07:17:21Z</time>
      </trkpt>
      <trkpt lat="47.12462" lon="-1.61466">
        <ele>62</ele>
        <time>2022-08-07T07:17:23Z</time>
      </trkpt>
      <trkpt lat="47.1246" lon="-1.61448">
        <ele>62</ele>
        <time>2022-08-07T07:17:25Z</time>
      </trkpt>
      <trkpt lat="47.12459" lon="-1.61432">
        <ele>62</ele>
        <time>2022-08-07T07:17:27Z</time>
      </trkpt>
      <trkpt lat="47.12457" lon="-1.61414">
        <ele>62</ele>
        <time>2022-08-07T07:17:29Z</time>
      </trkpt>
      <trkpt lat="47.12455" lon="-1.61398">
        <ele>62</ele>
        <time>2022-08-07T07:17:31Z</time>
      </trkpt>
      <trkpt lat="47.12454" lon="-1.61381">
        <ele>62</ele>
        <time>2022-08-07T07:17:33Z</time>
      </trkpt>
      <trkpt lat="47.12455" lon="-1.61364">
        <ele>62</ele>
        <time>2022-08-07T07:17:35Z</time>
      </trkpt>
      <trkpt lat="47.12457" lon="-1.61347">
        <ele>62</ele>
        <time>2022-08-07T07:17:37Z</time>
      </trkpt>
      <trkpt lat="47.12461" lon="-1.61331">
        <ele>62</ele>
        <time>2022-08-07T07:17:39Z</time>
      </trkpt>
      <trkpt lat="47.12465" lon="-1.61316">
        <ele>63</ele>
        <time>2022-08-07T07:17:41Z</time>
      </trkpt>
      <trkpt lat="47.1247" lon="-1.61301">
        <ele>63</ele>
        <time>2022-08-07T07:17:43Z</time>
      </trkpt>
      <trkpt lat="47.12474" lon="-1.61285">
        <ele>63</ele>
        <time>2022-08-07T07:17:45Z</time>
      </trkpt>
      <trkpt lat="47.12479" lon="-1.6127">
        <ele>63</ele>
        <time>2022-08-07T07:17:47Z</time>
      </trkpt>
      <trkpt lat="47.12484" lon="-1.61255">
        <ele>63</ele>
        <time>2022-08-07T07:17:49Z</time>
      </trkpt>
      <trkpt lat="47.12488" lon="-1.6124">
        <ele>64</ele>
        <time>2022-08-07T07:17:51Z</time>
      </trkpt>
      <trkpt lat="47.12492" lon="-1.61224">
        <ele>64</ele>
        <time>2022-08-07T07:17:53Z</time>
      </trkpt>
      <trkpt lat="47.12496" lon="-1.61207">
        <ele>64</ele>
        <time>2022-08-07T07:17:55Z</time>
      </trkpt>
      <trkpt lat="47.12499" lon="-1.61191">
        <ele>63</ele>
        <time>2022-08-07T07:17:57Z</time>
      </trkpt>
      <trkpt lat="47.12501" lon="-1.61174">
        <ele>63</ele>
        <time>2022-08-07T07:17:59Z</time>
      </trkpt>
      <trkpt lat="47.12503" lon="-1.61157">
        <ele>63</ele>
        <time>2022-08-07T07:18:01Z</time>
      </trkpt>
      <trkpt lat="47.12505" lon="-1.6114">
        <ele>63</ele>
        <time>2022-08-07T07:18:03Z</time>
      </trkpt>
      <trkpt lat="47.12506" lon="-1.61123">
        <ele>63</ele>
        <time>2022-08-07T07:18:05Z</time>
      </trkpt>
      <trkpt lat="47.12508" lon="-1.61106">
        <ele>63</ele>
        <time>2022-08-07T07:18:07Z</time>
      </trkpt>
      <trkpt lat="47.12509" lon="-1.61089">
        <ele>63</ele>
        <time>2022-08-07T07:18:09Z</time>
      </trkpt>
      <trkpt lat="47.1251" lon="-1.61072">
        <ele>63</ele>
        <time>2022-08-07T07:18:11Z</time>
      </trkpt>
      <trkpt lat="47.12512" lon="-1.61054">
        <ele>63</ele>
        <time>2022-08-07T07:18:13Z</time>
      </trkpt>
      <trkpt lat="47.12514" lon="-1.61037">
        <ele>63</ele>
        <time>2022-08-07T07:18:15Z</time>
      </trkpt>
      <trkpt lat="47.12515" lon="-1.6102">
        <ele>63</ele>
        <time>2022-08-07T07:18:17Z</time>
      </trkpt>
      <trkpt lat="47.12517" lon="-1.61001">
        <ele>62</ele>
        <time>2022-08-07T07:18:19Z</time>
      </trkpt>
      <trkpt lat="47.12519" lon="-1.60983">
        <ele>62</ele>
        <time>2022-08-07T07:18:21Z</time>
      </trkpt>
      <trkpt lat="47.1252" lon="-1.60965">
        <ele>63</ele>
        <time>2022-08-07T07:18:23Z</time>
      </trkpt>
      <trkpt lat="47.12522" lon="-1.60947">
        <ele>63</ele>
        <time>2022-08-07T07:18:25Z</time>
      </trkpt>
      <trkpt lat="47.12524" lon="-1.60929">
        <ele>63</ele>
        <time>2022-08-07T07:18:27Z</time>
      </trkpt>
      <trkpt lat="47.12525" lon="-1.6091">
        <ele>63</ele>
        <time>2022-08-07T07:18:29Z</time>
      </trkpt>
      <trkpt lat="47.12527" lon="-1.60892">
        <ele>63</ele>
        <time>2022-08-07T07:18:31Z</time>
      </trkpt>
      <trkpt lat="47.12529" lon="-1.60874">
        <ele>63</ele>
        <time>2022-08-07T07:18:33Z</time>
      </trkpt>
      <trkpt lat="47.1253" lon="-1.60857">
        <ele>63</ele>
        <time>2022-08-07T07:18:35Z</time>
      </trkpt>
      <trkpt lat="47.12531" lon="-1.60838">
        <ele>63</ele>
        <time>2022-08-07T07:18:37Z</time>
      </trkpt>
      <trkpt lat="47.12534" lon="-1.6082">
        <ele>63</ele>
        <time>2022-08-07T07:18:39Z</time>
      </trkpt>
      <trkpt lat="47.12535" lon="-1.60801">
        <ele>63</ele>
        <time>2022-08-07T07:18:41Z</time>
      </trkpt>
      <trkpt lat="47.12537" lon="-1.60783">
        <ele>62</ele>
        <time>2022-08-07T07:18:43Z</time>
      </trkpt>
      <trkpt lat="47.12539" lon="-1.60764">
        <ele>62</ele>
        <time>2022-08-07T07:18:45Z</time>
      </trkpt>
      <trkpt lat="47.1254" lon="-1.60745">
        <ele>62</ele>
        <time>2022-08-07T07:18:47Z</time>
      </trkpt>
      <trkpt lat="47.12541" lon="-1.60726">
        <ele>62</ele>
        <time>2022-08-07T07:18:49Z</time>
      </trkpt>
      <trkpt lat="47.12542" lon="-1.60707">
        <ele>62</ele>
        <time>2022-08-07T07:18:51Z</time>
      </trkpt>
      <trkpt lat="47.12542" lon="-1.60688">
        <ele>62</ele>
        <time>2022-08-07T07:18:53Z</time>
      </trkpt>
      <trkpt lat="47.12542" lon="-1.6067">
        <ele>62</ele>
        <time>2022-08-07T07:18:55Z</time>
      </trkpt>
      <trkpt lat="47.12541" lon="-1.60652">
        <ele>62</ele>
        <time>2022-08-07T07:18:57Z</time>
      </trkpt>
      <trkpt lat="47.12541" lon="-1.60633">
        <ele>62</ele>
        <time>2022-08-07T07:18:59Z</time>
      </trkpt>
      <trkpt lat="47.1254" lon="-1.60615">
        <ele>62</ele>
        <time>2022-08-07T07:19:01Z</time>
      </trkpt>
      <trkpt lat="47.1254" lon="-1.60596">
        <ele>62</ele>
        <time>2022-08-07T07:19:03Z</time>
      </trkpt>
      <trkpt lat="47.12539" lon="-1.60577">
        <ele>62</ele>
        <time>2022-08-07T07:19:05Z</time>
      </trkpt>
      <trkpt lat="47.12539" lon="-1.60558">
        <ele>62</ele>
        <time>2022-08-07T07:19:07Z</time>
      </trkpt>
      <trkpt lat="47.12539" lon="-1.60539">
        <ele>62</ele>
        <time>2022-08-07T07:19:09Z</time>
      </trkpt>
      <trkpt lat="47.12537" lon="-1.6052">
        <ele>62</ele>
        <time>2022-08-07T07:19:11Z</time>
      </trkpt>
      <trkpt lat="47.12535" lon="-1.605">
        <ele>62</ele>
        <time>2022-08-07T07:19:13Z</time>
      </trkpt>
      <trkpt lat="47.12534" lon="-1.60481">
        <ele>62</ele>
        <time>2022-08-07T07:19:15Z</time>
      </trkpt>
      <trkpt lat="47.12531" lon="-1.60463">
        <ele>61</ele>
        <time>2022-08-07T07:19:17Z</time>
      </trkpt>
      <trkpt lat="47.12528" lon="-1.60444">
        <ele>61</ele>
        <time>2022-08-07T07:19:19Z</time>
      </trkpt>
      <trkpt lat="47.12524" lon="-1.60424">
        <ele>61</ele>
        <time>2022-08-07T07:19:21Z</time>
      </trkpt>
      <trkpt lat="47.12521" lon="-1.60405">
        <ele>61</ele>
        <time>2022-08-07T07:19:23Z</time>
      </trkpt>
      <trkpt lat="47.12517" lon="-1.60385">
        <ele>61</ele>
        <time>2022-08-07T07:19:25Z</time>
      </trkpt>
      <trkpt lat="47.12513" lon="-1.60366">
        <ele>60</ele>
        <time>2022-08-07T07:19:27Z</time>
      </trkpt>
      <trkpt lat="47.12509" lon="-1.60345">
        <ele>60</ele>
        <time>2022-08-07T07:19:29Z</time>
      </trkpt>
      <trkpt lat="47.12505" lon="-1.60325">
        <ele>59</ele>
        <time>2022-08-07T07:19:31Z</time>
      </trkpt>
      <trkpt lat="47.12501" lon="-1.60305">
        <ele>59</ele>
        <time>2022-08-07T07:19:33Z</time>
      </trkpt>
      <trkpt lat="47.12498" lon="-1.60284">
        <ele>59</ele>
        <time>2022-08-07T07:19:35Z</time>
      </trkpt>
      <trkpt lat="47.12494" lon="-1.60265">
        <ele>59</ele>
        <time>2022-08-07T07:19:37Z</time>
      </trkpt>
      <trkpt lat="47.1249" lon="-1.60245">
        <ele>59</ele>
        <time>2022-08-07T07:19:39Z</time>
      </trkpt>
      <trkpt lat="47.12486" lon="-1.60227">
        <ele>59</ele>
        <time>2022-08-07T07:19:41Z</time>
      </trkpt>
      <trkpt lat="47.12484" lon="-1.60208">
        <ele>59</ele>
        <time>2022-08-07T07:19:43Z</time>
      </trkpt>
      <trkpt lat="47.12481" lon="-1.6019">
        <ele>59</ele>
        <time>2022-08-07T07:19:45Z</time>
      </trkpt>
      <trkpt lat="47.12479" lon="-1.60172">
        <ele>59</ele>
        <time>2022-08-07T07:19:47Z</time>
      </trkpt>
      <trkpt lat="47.12478" lon="-1.60154">
        <ele>59</ele>
        <time>2022-08-07T07:19:49Z</time>
      </trkpt>
      <trkpt lat="47.12477" lon="-1.60135">
        <ele>59</ele>
        <time>2022-08-07T07:19:51Z</time>
      </trkpt>
      <trkpt lat="47.12476" lon="-1.60116">
        <ele>59</ele>
        <time>2022-08-07T07:19:53Z</time>
      </trkpt>
      <trkpt lat="47.12475" lon="-1.60098">
        <ele>60</ele>
        <time>2022-08-07T07:19:55Z</time>
      </trkpt>
      <trkpt lat="47.12474" lon="-1.6008">
        <ele>60</ele>
        <time>2022-08-07T07:19:57Z</time>
      </trkpt>
      <trkpt lat="47.12473" lon="-1.60062">
        <ele>60</ele>
        <time>2022-08-07T07:19:59Z</time>
      </trkpt>
      <trkpt lat="47.12472" lon="-1.60044">
        <ele>60</ele>
        <time>2022-08-07T07:20:01Z</time>
      </trkpt>
      <trkpt lat="47.12472" lon="-1.60026">
        <ele>60</ele>
        <time>2022-08-07T07:20:03Z</time>
      </trkpt>
      <trkpt lat="47.1247" lon="-1.60007">
        <ele>60</ele>
        <time>2022-08-07T07:20:05Z</time>
      </trkpt>
      <trkpt lat="47.1247" lon="-1.59989">
        <ele>60</ele>
        <time>2022-08-07T07:20:07Z</time>
      </trkpt>
      <trkpt lat="47.12469" lon="-1.59971">
        <ele>60</ele>
        <time>2022-08-07T07:20:09Z</time>
      </trkpt>
      <trkpt lat="47.12468" lon="-1.59953">
        <ele>61</ele>
        <time>2022-08-07T07:20:11Z</time>
      </trkpt>
      <trkpt lat="47.12467" lon="-1.59935">
        <ele>61</ele>
        <time>2022-08-07T07:20:13Z</time>
      </trkpt>
      <trkpt lat="47.12466" lon="-1.59917">
        <ele>62</ele>
        <time>2022-08-07T07:20:15Z</time>
      </trkpt>
      <trkpt lat="47.12466" lon="-1.59898">
        <ele>62</ele>
        <time>2022-08-07T07:20:17Z</time>
      </trkpt>
      <trkpt lat="47.12465" lon="-1.5988">
        <ele>63</ele>
        <time>2022-08-07T07:20:19Z</time>
      </trkpt>
      <trkpt lat="47.12465" lon="-1.59862">
        <ele>63</ele>
        <time>2022-08-07T07:20:21Z</time>
      </trkpt>
      <trkpt lat="47.12464" lon="-1.59845">
        <ele>64</ele>
        <time>2022-08-07T07:20:23Z</time>
      </trkpt>
      <trkpt lat="47.12462" lon="-1.59827">
        <ele>64</ele>
        <time>2022-08-07T07:20:25Z</time>
      </trkpt>
      <trkpt lat="47.12462" lon="-1.59808">
        <ele>64</ele>
        <time>2022-08-07T07:20:27Z</time>
      </trkpt>
      <trkpt lat="47.12461" lon="-1.5979">
        <ele>64</ele>
        <time>2022-08-07T07:20:29Z</time>
      </trkpt>
      <trkpt lat="47.12459" lon="-1.59773">
        <ele>63</ele>
        <time>2022-08-07T07:20:31Z</time>
      </trkpt>
      <trkpt lat="47.12459" lon="-1.59755">
        <ele>64</ele>
        <time>2022-08-07T07:20:33Z</time>
      </trkpt>
      <trkpt lat="47.12458" lon="-1.59737">
        <ele>64</ele>
        <time>2022-08-07T07:20:35Z</time>
      </trkpt>
      <trkpt lat="47.12457" lon="-1.5972">
        <ele>63</ele>
        <time>2022-08-07T07:20:37Z</time>
      </trkpt>
      <trkpt lat="47.12456" lon="-1.59702">
        <ele>63</ele>
        <time>2022-08-07T07:20:39Z</time>
      </trkpt>
      <trkpt lat="47.12456" lon="-1.59685">
        <ele>63</ele>
        <time>2022-08-07T07:20:41Z</time>
      </trkpt>
      <trkpt lat="47.12454" lon="-1.59667">
        <ele>63</ele>
        <time>2022-08-07T07:20:43Z</time>
      </trkpt>
      <trkpt lat="47.12454" lon="-1.59649">
        <ele>62</ele>
        <time>2022-08-07T07:20:45Z</time>
      </trkpt>
      <trkpt lat="47.12452" lon="-1.59631">
        <ele>61</ele>
        <time>2022-08-07T07:20:47Z</time>
      </trkpt>
      <trkpt lat="47.12452" lon="-1.59614">
        <ele>62</ele>
        <time>2022-08-07T07:20:49Z</time>
      </trkpt>
      <trkpt lat="47.12451" lon="-1.59598">
        <ele>61</ele>
        <time>2022-08-07T07:20:51Z</time>
      </trkpt>
      <trkpt lat="47.1245" lon="-1.5958">
        <ele>61</ele>
        <time>2022-08-07T07:20:53Z</time>
      </trkpt>
      <trkpt lat="47.12449" lon="-1.59562">
        <ele>61</ele>
        <time>2022-08-07T07:20:55Z</time>
      </trkpt>
      <trkpt lat="47.12448" lon="-1.59544">
        <ele>61</ele>
        <time>2022-08-07T07:20:57Z</time>
      </trkpt>
      <trkpt lat="47.12447" lon="-1.59526">
        <ele>61</ele>
        <time>2022-08-07T07:20:59Z</time>
      </trkpt>
      <trkpt lat="47.12447" lon="-1.59507">
        <ele>60</ele>
        <time>2022-08-07T07:21:01Z</time>
      </trkpt>
      <trkpt lat="47.12446" lon="-1.59489">
        <ele>60</ele>
        <time>2022-08-07T07:21:03Z</time>
      </trkpt>
      <trkpt lat="47.12444" lon="-1.5947">
        <ele>61</ele>
        <time>2022-08-07T07:21:05Z</time>
      </trkpt>
      <trkpt lat="47.12443" lon="-1.59451">
        <ele>60</ele>
        <time>2022-08-07T07:21:07Z</time>
      </trkpt>
      <trkpt lat="47.12442" lon="-1.59431">
        <ele>60</ele>
        <time>2022-08-07T07:21:09Z</time>
      </trkpt>
      <trkpt lat="47.12442" lon="-1.59412">
        <ele>60</ele>
        <time>2022-08-07T07:21:11Z</time>
      </trkpt>
      <trkpt lat="47.12441" lon="-1.59393">
        <ele>60</ele>
        <time>2022-08-07T07:21:13Z</time>
      </trkpt>
      <trkpt lat="47.12439" lon="-1.59374">
        <ele>59</ele>
        <time>2022-08-07T07:21:15Z</time>
      </trkpt>
      <trkpt lat="47.12439" lon="-1.59354">
        <ele>59</ele>
        <time>2022-08-07T07:21:17Z</time>
      </trkpt>
      <trkpt lat="47.12438" lon="-1.59336">
        <ele>59</ele>
        <time>2022-08-07T07:21:19Z</time>
      </trkpt>
      <trkpt lat="47.12437" lon="-1.59317">
        <ele>59</ele>
        <time>2022-08-07T07:21:21Z</time>
      </trkpt>
      <trkpt lat="47.12436" lon="-1.59297">
        <ele>59</ele>
        <time>2022-08-07T07:21:23Z</time>
      </trkpt>
      <trkpt lat="47.12435" lon="-1.59278">
        <ele>59</ele>
        <time>2022-08-07T07:21:25Z</time>
      </trkpt>
      <trkpt lat="47.12434" lon="-1.59259">
        <ele>58</ele>
        <time>2022-08-07T07:21:27Z</time>
      </trkpt>
      <trkpt lat="47.12432" lon="-1.5924">
        <ele>58</ele>
        <time>2022-08-07T07:21:29Z</time>
      </trkpt>
      <trkpt lat="47.1243" lon="-1.59222">
        <ele>58</ele>
        <time>2022-08-07T07:21:31Z</time>
      </trkpt>
      <trkpt lat="47.12427" lon="-1.59203">
        <ele>58</ele>
        <time>2022-08-07T07:21:33Z</time>
      </trkpt>
      <trkpt lat="47.12425" lon="-1.59184">
        <ele>58</ele>
        <time>2022-08-07T07:21:35Z</time>
      </trkpt>
      <trkpt lat="47.12427" lon="-1.59165">
        <ele>58</ele>
        <time>2022-08-07T07:21:37Z</time>
      </trkpt>
      <trkpt lat="47.12428" lon="-1.59145">
        <ele>57</ele>
        <time>2022-08-07T07:21:39Z</time>
      </trkpt>
      <trkpt lat="47.12429" lon="-1.59126">
        <ele>57</ele>
        <time>2022-08-07T07:21:41Z</time>
      </trkpt>
      <trkpt lat="47.12428" lon="-1.59107">
        <ele>58</ele>
        <time>2022-08-07T07:21:43Z</time>
      </trkpt>
      <trkpt lat="47.12427" lon="-1.59087">
        <ele>58</ele>
        <time>2022-08-07T07:21:45Z</time>
      </trkpt>
      <trkpt lat="47.12426" lon="-1.59069">
        <ele>58</ele>
        <time>2022-08-07T07:21:47Z</time>
      </trkpt>
      <trkpt lat="47.12425" lon="-1.5905">
        <ele>58</ele>
        <time>2022-08-07T07:21:49Z</time>
      </trkpt>
      <trkpt lat="47.12425" lon="-1.59033">
        <ele>59</ele>
        <time>2022-08-07T07:21:51Z</time>
      </trkpt>
      <trkpt lat="47.12424" lon="-1.59016">
        <ele>59</ele>
        <time>2022-08-07T07:21:53Z</time>
      </trkpt>
      <trkpt lat="47.12423" lon="-1.59">
        <ele>59</ele>
        <time>2022-08-07T07:21:55Z</time>
      </trkpt>
      <trkpt lat="47.12422" lon="-1.58984">
        <ele>60</ele>
        <time>2022-08-07T07:21:57Z</time>
      </trkpt>
      <trkpt lat="47.12421" lon="-1.58969">
        <ele>61</ele>
        <time>2022-08-07T07:21:59Z</time>
      </trkpt>
      <trkpt lat="47.1242" lon="-1.58954">
        <ele>61</ele>
        <time>2022-08-07T07:22:01Z</time>
      </trkpt>
      <trkpt lat="47.12419" lon="-1.58938">
        <ele>61</ele>
        <time>2022-08-07T07:22:03Z</time>
      </trkpt>
      <trkpt lat="47.12418" lon="-1.58924">
        <ele>61</ele>
        <time>2022-08-07T07:22:05Z</time>
      </trkpt>
      <trkpt lat="47.12417" lon="-1.58909">
        <ele>62</ele>
        <time>2022-08-07T07:22:07Z</time>
      </trkpt>
      <trkpt lat="47.12416" lon="-1.58894">
        <ele>61</ele>
        <time>2022-08-07T07:22:09Z</time>
      </trkpt>
      <trkpt lat="47.12415" lon="-1.58879">
        <ele>62</ele>
        <time>2022-08-07T07:22:11Z</time>
      </trkpt>
      <trkpt lat="47.12413" lon="-1.58864">
        <ele>62</ele>
        <time>2022-08-07T07:22:13Z</time>
      </trkpt>
      <trkpt lat="47.12412" lon="-1.5885">
        <ele>62</ele>
        <time>2022-08-07T07:22:15Z</time>
      </trkpt>
      <trkpt lat="47.1241" lon="-1.58835">
        <ele>62</ele>
        <time>2022-08-07T07:22:17Z</time>
      </trkpt>
      <trkpt lat="47.12408" lon="-1.5882">
        <ele>62</ele>
        <time>2022-08-07T07:22:19Z</time>
      </trkpt>
      <trkpt lat="47.12406" lon="-1.58805">
        <ele>63</ele>
        <time>2022-08-07T07:22:21Z</time>
      </trkpt>
      <trkpt lat="47.12404" lon="-1.5879">
        <ele>63</ele>
        <time>2022-08-07T07:22:23Z</time>
      </trkpt>
      <trkpt lat="47.12401" lon="-1.58774">
        <ele>63</ele>
        <time>2022-08-07T07:22:25Z</time>
      </trkpt>
      <trkpt lat="47.12398" lon="-1.58758">
        <ele>63</ele>
        <time>2022-08-07T07:22:27Z</time>
      </trkpt>
      <trkpt lat="47.12395" lon="-1.58741">
        <ele>63</ele>
        <time>2022-08-07T07:22:29Z</time>
      </trkpt>
      <trkpt lat="47.12391" lon="-1.58725">
        <ele>63</ele>
        <time>2022-08-07T07:22:31Z</time>
      </trkpt>
      <trkpt lat="47.12388" lon="-1.5871">
        <ele>63</ele>
        <time>2022-08-07T07:22:33Z</time>
      </trkpt>
      <trkpt lat="47.12385" lon="-1.58694">
        <ele>63</ele>
        <time>2022-08-07T07:22:35Z</time>
      </trkpt>
      <trkpt lat="47.12382" lon="-1.58678">
        <ele>63</ele>
        <time>2022-08-07T07:22:37Z</time>
      </trkpt>
      <trkpt lat="47.12378" lon="-1.58661">
        <ele>63</ele>
        <time>2022-08-07T07:22:39Z</time>
      </trkpt>
      <trkpt lat="47.12374" lon="-1.58644">
        <ele>63</ele>
        <time>2022-08-07T07:22:41Z</time>
      </trkpt>
      <trkpt lat="47.1237" lon="-1.58627">
        <ele>63</ele>
        <time>2022-08-07T07:22:43Z</time>
      </trkpt>
      <trkpt lat="47.12367" lon="-1.58611">
        <ele>62</ele>
        <time>2022-08-07T07:22:45Z</time>
      </trkpt>
      <trkpt lat="47.12363" lon="-1.58594">
        <ele>62</ele>
        <time>2022-08-07T07:22:47Z</time>
      </trkpt>
      <trkpt lat="47.12359" lon="-1.58576">
        <ele>61</ele>
        <time>2022-08-07T07:22:49Z</time>
      </trkpt>
      <trkpt lat="47.12354" lon="-1.58559">
        <ele>61</ele>
        <time>2022-08-07T07:22:51Z</time>
      </trkpt>
      <trkpt lat="47.12351" lon="-1.58541">
        <ele>61</ele>
        <time>2022-08-07T07:22:53Z</time>
      </trkpt>
      <trkpt lat="47.12347" lon="-1.58523">
        <ele>61</ele>
        <time>2022-08-07T07:22:55Z</time>
      </trkpt>
      <trkpt lat="47.12343" lon="-1.58506">
        <ele>61</ele>
        <time>2022-08-07T07:22:57Z</time>
      </trkpt>
      <trkpt lat="47.12339" lon="-1.58489">
        <ele>61</ele>
        <time>2022-08-07T07:22:59Z</time>
      </trkpt>
      <trkpt lat="47.12335" lon="-1.58472">
        <ele>61</ele>
        <time>2022-08-07T07:23:01Z</time>
      </trkpt>
      <trkpt lat="47.12331" lon="-1.58458">
        <ele>61</ele>
        <time>2022-08-07T07:23:03Z</time>
      </trkpt>
      <trkpt lat="47.12324" lon="-1.58445">
        <ele>62</ele>
        <time>2022-08-07T07:23:06Z</time>
      </trkpt>
      <trkpt lat="47.12319" lon="-1.58434">
        <ele>62</ele>
        <time>2022-08-07T07:23:08Z</time>
      </trkpt>
      <trkpt lat="47.12313" lon="-1.58421">
        <ele>62</ele>
        <time>2022-08-07T07:23:10Z</time>
      </trkpt>
      <trkpt lat="47.12307" lon="-1.58408">
        <ele>62</ele>
        <time>2022-08-07T07:23:12Z</time>
      </trkpt>
      <trkpt lat="47.12301" lon="-1.58392">
        <ele>61</ele>
        <time>2022-08-07T07:23:14Z</time>
      </trkpt>
      <trkpt lat="47.12299" lon="-1.58375">
        <ele>61</ele>
        <time>2022-08-07T07:23:16Z</time>
      </trkpt>
      <trkpt lat="47.12298" lon="-1.58355">
        <ele>61</ele>
        <time>2022-08-07T07:23:18Z</time>
      </trkpt>
      <trkpt lat="47.12294" lon="-1.58337">
        <ele>62</ele>
        <time>2022-08-07T07:23:20Z</time>
      </trkpt>
      <trkpt lat="47.12284" lon="-1.58324">
        <ele>62</ele>
        <time>2022-08-07T07:23:22Z</time>
      </trkpt>
      <trkpt lat="47.12271" lon="-1.58315">
        <ele>61</ele>
        <time>2022-08-07T07:23:24Z</time>
      </trkpt>
      <trkpt lat="47.12259" lon="-1.58305">
        <ele>61</ele>
        <time>2022-08-07T07:23:26Z</time>
      </trkpt>
      <trkpt lat="47.12247" lon="-1.58295">
        <ele>61</ele>
        <time>2022-08-07T07:23:28Z</time>
      </trkpt>
      <trkpt lat="47.12237" lon="-1.58285">
        <ele>61</ele>
        <time>2022-08-07T07:23:30Z</time>
      </trkpt>
      <trkpt lat="47.12226" lon="-1.58275">
        <ele>60</ele>
        <time>2022-08-07T07:23:32Z</time>
      </trkpt>
      <trkpt lat="47.12217" lon="-1.58266">
        <ele>60</ele>
        <time>2022-08-07T07:23:34Z</time>
      </trkpt>
      <trkpt lat="47.12209" lon="-1.58256">
        <ele>60</ele>
        <time>2022-08-07T07:23:36Z</time>
      </trkpt>
      <trkpt lat="47.12203" lon="-1.58242">
        <ele>60</ele>
        <time>2022-08-07T07:23:39Z</time>
      </trkpt>
      <trkpt lat="47.12202" lon="-1.58221">
        <ele>60</ele>
        <time>2022-08-07T07:23:42Z</time>
      </trkpt>
      <trkpt lat="47.12203" lon="-1.58205">
        <ele>61</ele>
        <time>2022-08-07T07:23:44Z</time>
      </trkpt>
      <trkpt lat="47.12204" lon="-1.58188">
        <ele>60</ele>
        <time>2022-08-07T07:23:46Z</time>
      </trkpt>
      <trkpt lat="47.12204" lon="-1.58172">
        <ele>60</ele>
        <time>2022-08-07T07:23:48Z</time>
      </trkpt>
      <trkpt lat="47.12207" lon="-1.58156">
        <ele>60</ele>
        <time>2022-08-07T07:23:50Z</time>
      </trkpt>
      <trkpt lat="47.12213" lon="-1.58142">
        <ele>60</ele>
        <time>2022-08-07T07:23:52Z</time>
      </trkpt>
      <trkpt lat="47.12218" lon="-1.58128">
        <ele>59</ele>
        <time>2022-08-07T07:23:54Z</time>
      </trkpt>
      <trkpt lat="47.12224" lon="-1.58115">
        <ele>59</ele>
        <time>2022-08-07T07:23:56Z</time>
      </trkpt>
      <trkpt lat="47.1223" lon="-1.581">
        <ele>59</ele>
        <time>2022-08-07T07:23:58Z</time>
      </trkpt>
      <trkpt lat="47.12236" lon="-1.58084">
        <ele>60</ele>
        <time>2022-08-07T07:24:00Z</time>
      </trkpt>
      <trkpt lat="47.12241" lon="-1.58069">
        <ele>60</ele>
        <time>2022-08-07T07:24:02Z</time>
      </trkpt>
      <trkpt lat="47.12244" lon="-1.58054">
        <ele>59</ele>
        <time>2022-08-07T07:24:04Z</time>
      </trkpt>
      <trkpt lat="47.12245" lon="-1.5804">
        <ele>59</ele>
        <time>2022-08-07T07:24:06Z</time>
      </trkpt>
      <trkpt lat="47.12242" lon="-1.58025">
        <ele>59</ele>
        <time>2022-08-07T07:24:08Z</time>
      </trkpt>
      <trkpt lat="47.12236" lon="-1.58012">
        <ele>60</ele>
        <time>2022-08-07T07:24:10Z</time>
      </trkpt>
      <trkpt lat="47.12227" lon="-1.57999">
        <ele>60</ele>
        <time>2022-08-07T07:24:12Z</time>
      </trkpt>
      <trkpt lat="47.12219" lon="-1.57984">
        <ele>60</ele>
        <time>2022-08-07T07:24:14Z</time>
      </trkpt>
      <trkpt lat="47.12212" lon="-1.57971">
        <ele>60</ele>
        <time>2022-08-07T07:24:16Z</time>
      </trkpt>
      <trkpt lat="47.12205" lon="-1.57959">
        <ele>61</ele>
        <time>2022-08-07T07:24:18Z</time>
      </trkpt>
      <trkpt lat="47.12198" lon="-1.57945">
        <ele>61</ele>
        <time>2022-08-07T07:24:20Z</time>
      </trkpt>
      <trkpt lat="47.12192" lon="-1.57931">
        <ele>61</ele>
        <time>2022-08-07T07:24:22Z</time>
      </trkpt>
      <trkpt lat="47.12188" lon="-1.57915">
        <ele>62</ele>
        <time>2022-08-07T07:24:24Z</time>
      </trkpt>
      <trkpt lat="47.12185" lon="-1.57898">
        <ele>62</ele>
        <time>2022-08-07T07:24:26Z</time>
      </trkpt>
      <trkpt lat="47.12183" lon="-1.57881">
        <ele>63</ele>
        <time>2022-08-07T07:24:28Z</time>
      </trkpt>
      <trkpt lat="47.12182" lon="-1.57863">
        <ele>63</ele>
        <time>2022-08-07T07:24:30Z</time>
      </trkpt>
      <trkpt lat="47.12182" lon="-1.57845">
        <ele>63</ele>
        <time>2022-08-07T07:24:32Z</time>
      </trkpt>
      <trkpt lat="47.12182" lon="-1.57827">
        <ele>63</ele>
        <time>2022-08-07T07:24:34Z</time>
      </trkpt>
      <trkpt lat="47.12182" lon="-1.57809">
        <ele>63</ele>
        <time>2022-08-07T07:24:36Z</time>
      </trkpt>
      <trkpt lat="47.12182" lon="-1.57793">
        <ele>63</ele>
        <time>2022-08-07T07:24:38Z</time>
      </trkpt>
      <trkpt lat="47.12182" lon="-1.57776">
        <ele>63</ele>
        <time>2022-08-07T07:24:40Z</time>
      </trkpt>
      <trkpt lat="47.12183" lon="-1.57759">
        <ele>63</ele>
        <time>2022-08-07T07:24:42Z</time>
      </trkpt>
      <trkpt lat="47.12183" lon="-1.57743">
        <ele>63</ele>
        <time>2022-08-07T07:24:44Z</time>
      </trkpt>
      <trkpt lat="47.12182" lon="-1.57727">
        <ele>63</ele>
        <time>2022-08-07T07:24:46Z</time>
      </trkpt>
      <trkpt lat="47.12181" lon="-1.57711">
        <ele>64</ele>
        <time>2022-08-07T07:24:48Z</time>
      </trkpt>
      <trkpt lat="47.12181" lon="-1.57694">
        <ele>64</ele>
        <time>2022-08-07T07:24:50Z</time>
      </trkpt>
      <trkpt lat="47.12181" lon="-1.57677">
        <ele>64</ele>
        <time>2022-08-07T07:24:52Z</time>
      </trkpt>
      <trkpt lat="47.12182" lon="-1.5766">
        <ele>64</ele>
        <time>2022-08-07T07:24:54Z</time>
      </trkpt>
      <trkpt lat="47.12183" lon="-1.57643">
        <ele>64</ele>
        <time>2022-08-07T07:24:56Z</time>
      </trkpt>
      <trkpt lat="47.12183" lon="-1.57625">
        <ele>64</ele>
        <time>2022-08-07T07:24:58Z</time>
      </trkpt>
      <trkpt lat="47.12181" lon="-1.57607">
        <ele>63</ele>
        <time>2022-08-07T07:25:00Z</time>
      </trkpt>
      <trkpt lat="47.12179" lon="-1.5759">
        <ele>63</ele>
        <time>2022-08-07T07:25:02Z</time>
      </trkpt>
      <trkpt lat="47.12178" lon="-1.57571">
        <ele>63</ele>
        <time>2022-08-07T07:25:04Z</time>
      </trkpt>
      <trkpt lat="47.12177" lon="-1.57553">
        <ele>63</ele>
        <time>2022-08-07T07:25:06Z</time>
      </trkpt>
      <trkpt lat="47.12176" lon="-1.57534">
        <ele>63</ele>
        <time>2022-08-07T07:25:08Z</time>
      </trkpt>
      <trkpt lat="47.12174" lon="-1.57515">
        <ele>63</ele>
        <time>2022-08-07T07:25:10Z</time>
      </trkpt>
      <trkpt lat="47.12171" lon="-1.57497">
        <ele>62</ele>
        <time>2022-08-07T07:25:12Z</time>
      </trkpt>
      <trkpt lat="47.12169" lon="-1.57479">
        <ele>62</ele>
        <time>2022-08-07T07:25:14Z</time>
      </trkpt>
      <trkpt lat="47.12165" lon="-1.57461">
        <ele>62</ele>
        <time>2022-08-07T07:25:16Z</time>
      </trkpt>
      <trkpt lat="47.12162" lon="-1.57442">
        <ele>61</ele>
        <time>2022-08-07T07:25:18Z</time>
      </trkpt>
      <trkpt lat="47.12158" lon="-1.57424">
        <ele>61</ele>
        <time>2022-08-07T07:25:20Z</time>
      </trkpt>
      <trkpt lat="47.12155" lon="-1.57406">
        <ele>61</ele>
        <time>2022-08-07T07:25:22Z</time>
      </trkpt>
      <trkpt lat="47.12151" lon="-1.57388">
        <ele>61</ele>
        <time>2022-08-07T07:25:24Z</time>
      </trkpt>
      <trkpt lat="47.12148" lon="-1.5737">
        <ele>61</ele>
        <time>2022-08-07T07:25:26Z</time>
      </trkpt>
      <trkpt lat="47.12145" lon="-1.57351">
        <ele>61</ele>
        <time>2022-08-07T07:25:28Z</time>
      </trkpt>
      <trkpt lat="47.12142" lon="-1.57331">
        <ele>61</ele>
        <time>2022-08-07T07:25:30Z</time>
      </trkpt>
      <trkpt lat="47.1214" lon="-1.57312">
        <ele>61</ele>
        <time>2022-08-07T07:25:32Z</time>
      </trkpt>
      <trkpt lat="47.12136" lon="-1.57292">
        <ele>61</ele>
        <time>2022-08-07T07:25:34Z</time>
      </trkpt>
      <trkpt lat="47.12131" lon="-1.57273">
        <ele>61</ele>
        <time>2022-08-07T07:25:36Z</time>
      </trkpt>
      <trkpt lat="47.12127" lon="-1.57253">
        <ele>61</ele>
        <time>2022-08-07T07:25:38Z</time>
      </trkpt>
      <trkpt lat="47.12123" lon="-1.57234">
        <ele>61</ele>
        <time>2022-08-07T07:25:40Z</time>
      </trkpt>
      <trkpt lat="47.12119" lon="-1.57214">
        <ele>60</ele>
        <time>2022-08-07T07:25:42Z</time>
      </trkpt>
      <trkpt lat="47.12115" lon="-1.57193">
        <ele>60</ele>
        <time>2022-08-07T07:25:44Z</time>
      </trkpt>
      <trkpt lat="47.12111" lon="-1.57173">
        <ele>60</ele>
        <time>2022-08-07T07:25:46Z</time>
      </trkpt>
      <trkpt lat="47.12107" lon="-1.57152">
        <ele>60</ele>
        <time>2022-08-07T07:25:48Z</time>
      </trkpt>
      <trkpt lat="47.12103" lon="-1.57132">
        <ele>60</ele>
        <time>2022-08-07T07:25:50Z</time>
      </trkpt>
      <trkpt lat="47.12099" lon="-1.57111">
        <ele>60</ele>
        <time>2022-08-07T07:25:52Z</time>
      </trkpt>
      <trkpt lat="47.12095" lon="-1.57091">
        <ele>60</ele>
        <time>2022-08-07T07:25:54Z</time>
      </trkpt>
      <trkpt lat="47.12092" lon="-1.5707">
        <ele>60</ele>
        <time>2022-08-07T07:25:56Z</time>
      </trkpt>
      <trkpt lat="47.12088" lon="-1.5705">
        <ele>59</ele>
        <time>2022-08-07T07:25:58Z</time>
      </trkpt>
      <trkpt lat="47.12084" lon="-1.5703">
        <ele>59</ele>
        <time>2022-08-07T07:26:00Z</time>
      </trkpt>
      <trkpt lat="47.1208" lon="-1.5701">
        <ele>59</ele>
        <time>2022-08-07T07:26:02Z</time>
      </trkpt>
      <trkpt lat="47.12077" lon="-1.5699">
        <ele>59</ele>
        <time>2022-08-07T07:26:04Z</time>
      </trkpt>
      <trkpt lat="47.12073" lon="-1.56971">
        <ele>59</ele>
        <time>2022-08-07T07:26:06Z</time>
      </trkpt>
      <trkpt lat="47.12069" lon="-1.56952">
        <ele>59</ele>
        <time>2022-08-07T07:26:08Z</time>
      </trkpt>
      <trkpt lat="47.12066" lon="-1.56934">
        <ele>59</ele>
        <time>2022-08-07T07:26:10Z</time>
      </trkpt>
      <trkpt lat="47.12063" lon="-1.56917">
        <ele>59</ele>
        <time>2022-08-07T07:26:12Z</time>
      </trkpt>
      <trkpt lat="47.1206" lon="-1.569">
        <ele>60</ele>
        <time>2022-08-07T07:26:14Z</time>
      </trkpt>
      <trkpt lat="47.12056" lon="-1.56884">
        <ele>60</ele>
        <time>2022-08-07T07:26:16Z</time>
      </trkpt>
      <trkpt lat="47.12053" lon="-1.56868">
        <ele>61</ele>
        <time>2022-08-07T07:26:18Z</time>
      </trkpt>
      <trkpt lat="47.1205" lon="-1.56853">
        <ele>61</ele>
        <time>2022-08-07T07:26:20Z</time>
      </trkpt>
      <trkpt lat="47.12046" lon="-1.56837">
        <ele>61</ele>
        <time>2022-08-07T07:26:22Z</time>
      </trkpt>
      <trkpt lat="47.12043" lon="-1.56821">
        <ele>62</ele>
        <time>2022-08-07T07:26:24Z</time>
      </trkpt>
      <trkpt lat="47.1204" lon="-1.56806">
        <ele>62</ele>
        <time>2022-08-07T07:26:26Z</time>
      </trkpt>
      <trkpt lat="47.12037" lon="-1.5679">
        <ele>63</ele>
        <time>2022-08-07T07:26:28Z</time>
      </trkpt>
      <trkpt lat="47.12034" lon="-1.56775">
        <ele>63</ele>
        <time>2022-08-07T07:26:30Z</time>
      </trkpt>
      <trkpt lat="47.12031" lon="-1.5676">
        <ele>63</ele>
        <time>2022-08-07T07:26:32Z</time>
      </trkpt>
      <trkpt lat="47.12028" lon="-1.56744">
        <ele>63</ele>
        <time>2022-08-07T07:26:34Z</time>
      </trkpt>
      <trkpt lat="47.12024" lon="-1.56728">
        <ele>63</ele>
        <time>2022-08-07T07:26:36Z</time>
      </trkpt>
      <trkpt lat="47.12021" lon="-1.56713">
        <ele>64</ele>
        <time>2022-08-07T07:26:38Z</time>
      </trkpt>
      <trkpt lat="47.12018" lon="-1.56697">
        <ele>64</ele>
        <time>2022-08-07T07:26:40Z</time>
      </trkpt>
      <trkpt lat="47.12016" lon="-1.56682">
        <ele>64</ele>
        <time>2022-08-07T07:26:42Z</time>
      </trkpt>
      <trkpt lat="47.12013" lon="-1.56667">
        <ele>64</ele>
        <time>2022-08-07T07:26:44Z</time>
      </trkpt>
      <trkpt lat="47.12011" lon="-1.56652">
        <ele>64</ele>
        <time>2022-08-07T07:26:46Z</time>
      </trkpt>
      <trkpt lat="47.12008" lon="-1.56638">
        <ele>64</ele>
        <time>2022-08-07T07:26:48Z</time>
      </trkpt>
      <trkpt lat="47.12005" lon="-1.56623">
        <ele>64</ele>
        <time>2022-08-07T07:26:50Z</time>
      </trkpt>
      <trkpt lat="47.12002" lon="-1.56608">
        <ele>64</ele>
        <time>2022-08-07T07:26:52Z</time>
      </trkpt>
      <trkpt lat="47.11999" lon="-1.56593">
        <ele>64</ele>
        <time>2022-08-07T07:26:54Z</time>
      </trkpt>
      <trkpt lat="47.11996" lon="-1.56578">
        <ele>64</ele>
        <time>2022-08-07T07:26:56Z</time>
      </trkpt>
      <trkpt lat="47.11992" lon="-1.56563">
        <ele>64</ele>
        <time>2022-08-07T07:26:58Z</time>
      </trkpt>
      <trkpt lat="47.11989" lon="-1.56547">
        <ele>64</ele>
        <time>2022-08-07T07:27:00Z</time>
      </trkpt>
      <trkpt lat="47.11986" lon="-1.56532">
        <ele>65</ele>
        <time>2022-08-07T07:27:02Z</time>
      </trkpt>
      <trkpt lat="47.11983" lon="-1.56517">
        <ele>65</ele>
        <time>2022-08-07T07:27:04Z</time>
      </trkpt>
      <trkpt lat="47.11979" lon="-1.56501">
        <ele>65</ele>
        <time>2022-08-07T07:27:06Z</time>
      </trkpt>
      <trkpt lat="47.11975" lon="-1.56486">
        <ele>64</ele>
        <time>2022-08-07T07:27:08Z</time>
      </trkpt>
      <trkpt lat="47.11971" lon="-1.56471">
        <ele>64</ele>
        <time>2022-08-07T07:27:10Z</time>
      </trkpt>
      <trkpt lat="47.11966" lon="-1.56455">
        <ele>64</ele>
        <time>2022-08-07T07:27:12Z</time>
      </trkpt>
      <trkpt lat="47.11962" lon="-1.56439">
        <ele>64</ele>
        <time>2022-08-07T07:27:14Z</time>
      </trkpt>
      <trkpt lat="47.11958" lon="-1.56423">
        <ele>64</ele>
        <time>2022-08-07T07:27:16Z</time>
      </trkpt>
      <trkpt lat="47.11954" lon="-1.56407">
        <ele>64</ele>
        <time>2022-08-07T07:27:18Z</time>
      </trkpt>
      <trkpt lat="47.1195" lon="-1.5639">
        <ele>64</ele>
        <time>2022-08-07T07:27:20Z</time>
      </trkpt>
      <trkpt lat="47.11946" lon="-1.56373">
        <ele>64</ele>
        <time>2022-08-07T07:27:22Z</time>
      </trkpt>
      <trkpt lat="47.11941" lon="-1.56357">
        <ele>64</ele>
        <time>2022-08-07T07:27:24Z</time>
      </trkpt>
      <trkpt lat="47.11937" lon="-1.5634">
        <ele>64</ele>
        <time>2022-08-07T07:27:26Z</time>
      </trkpt>
      <trkpt lat="47.11933" lon="-1.56323">
        <ele>64</ele>
        <time>2022-08-07T07:27:28Z</time>
      </trkpt>
      <trkpt lat="47.11928" lon="-1.56306">
        <ele>63</ele>
        <time>2022-08-07T07:27:30Z</time>
      </trkpt>
      <trkpt lat="47.11924" lon="-1.56289">
        <ele>63</ele>
        <time>2022-08-07T07:27:32Z</time>
      </trkpt>
      <trkpt lat="47.1192" lon="-1.56272">
        <ele>63</ele>
        <time>2022-08-07T07:27:34Z</time>
      </trkpt>
      <trkpt lat="47.11915" lon="-1.56255">
        <ele>63</ele>
        <time>2022-08-07T07:27:36Z</time>
      </trkpt>
      <trkpt lat="47.11911" lon="-1.56238">
        <ele>63</ele>
        <time>2022-08-07T07:27:38Z</time>
      </trkpt>
      <trkpt lat="47.11907" lon="-1.56222">
        <ele>64</ele>
        <time>2022-08-07T07:27:40Z</time>
      </trkpt>
      <trkpt lat="47.11902" lon="-1.56205">
        <ele>63</ele>
        <time>2022-08-07T07:27:42Z</time>
      </trkpt>
      <trkpt lat="47.11898" lon="-1.56188">
        <ele>63</ele>
        <time>2022-08-07T07:27:44Z</time>
      </trkpt>
      <trkpt lat="47.11894" lon="-1.56172">
        <ele>63</ele>
        <time>2022-08-07T07:27:46Z</time>
      </trkpt>
      <trkpt lat="47.1189" lon="-1.56155">
        <ele>63</ele>
        <time>2022-08-07T07:27:48Z</time>
      </trkpt>
      <trkpt lat="47.11886" lon="-1.56138">
        <ele>63</ele>
        <time>2022-08-07T07:27:50Z</time>
      </trkpt>
      <trkpt lat="47.11882" lon="-1.56122">
        <ele>63</ele>
        <time>2022-08-07T07:27:52Z</time>
      </trkpt>
      <trkpt lat="47.11878" lon="-1.56107">
        <ele>64</ele>
        <time>2022-08-07T07:27:54Z</time>
      </trkpt>
      <trkpt lat="47.11874" lon="-1.56091">
        <ele>64</ele>
        <time>2022-08-07T07:27:56Z</time>
      </trkpt>
      <trkpt lat="47.11871" lon="-1.56075">
        <ele>64</ele>
        <time>2022-08-07T07:27:58Z</time>
      </trkpt>
      <trkpt lat="47.11868" lon="-1.56059">
        <ele>64</ele>
        <time>2022-08-07T07:28:00Z</time>
      </trkpt>
      <trkpt lat="47.11865" lon="-1.56043">
        <ele>64</ele>
        <time>2022-08-07T07:28:02Z</time>
      </trkpt>
      <trkpt lat="47.11863" lon="-1.56026">
        <ele>64</ele>
        <time>2022-08-07T07:28:04Z</time>
      </trkpt>
      <trkpt lat="47.11861" lon="-1.56009">
        <ele>64</ele>
        <time>2022-08-07T07:28:06Z</time>
      </trkpt>
      <trkpt lat="47.1186" lon="-1.55992">
        <ele>64</ele>
        <time>2022-08-07T07:28:08Z</time>
      </trkpt>
      <trkpt lat="47.11858" lon="-1.55974">
        <ele>64</ele>
        <time>2022-08-07T07:28:10Z</time>
      </trkpt>
      <trkpt lat="47.11857" lon="-1.55957">
        <ele>64</ele>
        <time>2022-08-07T07:28:12Z</time>
      </trkpt>
      <trkpt lat="47.11855" lon="-1.5594">
        <ele>64</ele>
        <time>2022-08-07T07:28:14Z</time>
      </trkpt>
      <trkpt lat="47.11854" lon="-1.55923">
        <ele>65</ele>
        <time>2022-08-07T07:28:16Z</time>
      </trkpt>
      <trkpt lat="47.11853" lon="-1.55907">
        <ele>65</ele>
        <time>2022-08-07T07:28:18Z</time>
      </trkpt>
      <trkpt lat="47.11852" lon="-1.5589">
        <ele>66</ele>
        <time>2022-08-07T07:28:20Z</time>
      </trkpt>
      <trkpt lat="47.11851" lon="-1.55872">
        <ele>65</ele>
        <time>2022-08-07T07:28:22Z</time>
      </trkpt>
      <trkpt lat="47.1185" lon="-1.55855">
        <ele>65</ele>
        <time>2022-08-07T07:28:24Z</time>
      </trkpt>
      <trkpt lat="47.11848" lon="-1.55838">
        <ele>66</ele>
        <time>2022-08-07T07:28:26Z</time>
      </trkpt>
      <trkpt lat="47.11847" lon="-1.55821">
        <ele>66</ele>
        <time>2022-08-07T07:28:28Z</time>
      </trkpt>
      <trkpt lat="47.11845" lon="-1.55805">
        <ele>66</ele>
        <time>2022-08-07T07:28:30Z</time>
      </trkpt>
      <trkpt lat="47.11844" lon="-1.55789">
        <ele>65</ele>
        <time>2022-08-07T07:28:32Z</time>
      </trkpt>
      <trkpt lat="47.11843" lon="-1.55772">
        <ele>65</ele>
        <time>2022-08-07T07:28:34Z</time>
      </trkpt>
      <trkpt lat="47.11842" lon="-1.55755">
        <ele>65</ele>
        <time>2022-08-07T07:28:36Z</time>
      </trkpt>
      <trkpt lat="47.11841" lon="-1.55739">
        <ele>65</ele>
        <time>2022-08-07T07:28:38Z</time>
      </trkpt>
      <trkpt lat="47.1184" lon="-1.55722">
        <ele>66</ele>
        <time>2022-08-07T07:28:40Z</time>
      </trkpt>
      <trkpt lat="47.11838" lon="-1.55706">
        <ele>66</ele>
        <time>2022-08-07T07:28:42Z</time>
      </trkpt>
      <trkpt lat="47.11837" lon="-1.55688">
        <ele>66</ele>
        <time>2022-08-07T07:28:44Z</time>
      </trkpt>
      <trkpt lat="47.11835" lon="-1.55671">
        <ele>66</ele>
        <time>2022-08-07T07:28:46Z</time>
      </trkpt>
      <trkpt lat="47.11834" lon="-1.55654">
        <ele>66</ele>
        <time>2022-08-07T07:28:48Z</time>
      </trkpt>
      <trkpt lat="47.11832" lon="-1.55636">
        <ele>66</ele>
        <time>2022-08-07T07:28:50Z</time>
      </trkpt>
      <trkpt lat="47.11831" lon="-1.55619">
        <ele>66</ele>
        <time>2022-08-07T07:28:52Z</time>
      </trkpt>
      <trkpt lat="47.1183" lon="-1.55602">
        <ele>66</ele>
        <time>2022-08-07T07:28:54Z</time>
      </trkpt>
      <trkpt lat="47.11829" lon="-1.55584">
        <ele>66</ele>
        <time>2022-08-07T07:28:56Z</time>
      </trkpt>
      <trkpt lat="47.11827" lon="-1.55567">
        <ele>66</ele>
        <time>2022-08-07T07:28:58Z</time>
      </trkpt>
      <trkpt lat="47.11826" lon="-1.55549">
        <ele>67</ele>
        <time>2022-08-07T07:29:00Z</time>
      </trkpt>
      <trkpt lat="47.11825" lon="-1.55532">
        <ele>67</ele>
        <time>2022-08-07T07:29:02Z</time>
      </trkpt>
      <trkpt lat="47.11824" lon="-1.55515">
        <ele>67</ele>
        <time>2022-08-07T07:29:04Z</time>
      </trkpt>
      <trkpt lat="47.11822" lon="-1.55497">
        <ele>67</ele>
        <time>2022-08-07T07:29:06Z</time>
      </trkpt>
      <trkpt lat="47.11821" lon="-1.5548">
        <ele>67</ele>
        <time>2022-08-07T07:29:08Z</time>
      </trkpt>
      <trkpt lat="47.1182" lon="-1.55462">
        <ele>67</ele>
        <time>2022-08-07T07:29:10Z</time>
      </trkpt>
      <trkpt lat="47.11819" lon="-1.55445">
        <ele>67</ele>
        <time>2022-08-07T07:29:12Z</time>
      </trkpt>
      <trkpt lat="47.11819" lon="-1.55428">
        <ele>67</ele>
        <time>2022-08-07T07:29:14Z</time>
      </trkpt>
      <trkpt lat="47.11818" lon="-1.55411">
        <ele>67</ele>
        <time>2022-08-07T07:29:16Z</time>
      </trkpt>
      <trkpt lat="47.11818" lon="-1.55394">
        <ele>67</ele>
        <time>2022-08-07T07:29:18Z</time>
      </trkpt>
      <trkpt lat="47.11817" lon="-1.55377">
        <ele>67</ele>
        <time>2022-08-07T07:29:20Z</time>
      </trkpt>
      <trkpt lat="47.11817" lon="-1.5536">
        <ele>67</ele>
        <time>2022-08-07T07:29:22Z</time>
      </trkpt>
      <trkpt lat="47.11817" lon="-1.55344">
        <ele>67</ele>
        <time>2022-08-07T07:29:24Z</time>
      </trkpt>
      <trkpt lat="47.11817" lon="-1.55327">
        <ele>67</ele>
        <time>2022-08-07T07:29:26Z</time>
      </trkpt>
      <trkpt lat="47.11816" lon="-1.55311">
        <ele>67</ele>
        <time>2022-08-07T07:29:28Z</time>
      </trkpt>
      <trkpt lat="47.11816" lon="-1.55294">
        <ele>67</ele>
        <time>2022-08-07T07:29:30Z</time>
      </trkpt>
      <trkpt lat="47.11815" lon="-1.55278">
        <ele>67</ele>
        <time>2022-08-07T07:29:32Z</time>
      </trkpt>
      <trkpt lat="47.11815" lon="-1.55261">
        <ele>67</ele>
        <time>2022-08-07T07:29:34Z</time>
      </trkpt>
      <trkpt lat="47.11814" lon="-1.55244">
        <ele>67</ele>
        <time>2022-08-07T07:29:36Z</time>
      </trkpt>
      <trkpt lat="47.11814" lon="-1.55227">
        <ele>67</ele>
        <time>2022-08-07T07:29:38Z</time>
      </trkpt>
      <trkpt lat="47.11814" lon="-1.5521">
        <ele>68</ele>
        <time>2022-08-07T07:29:40Z</time>
      </trkpt>
      <trkpt lat="47.11813" lon="-1.55193">
        <ele>67</ele>
        <time>2022-08-07T07:29:42Z</time>
      </trkpt>
      <trkpt lat="47.11812" lon="-1.55176">
        <ele>67</ele>
        <time>2022-08-07T07:29:44Z</time>
      </trkpt>
      <trkpt lat="47.11811" lon="-1.5516">
        <ele>68</ele>
        <time>2022-08-07T07:29:46Z</time>
      </trkpt>
      <trkpt lat="47.1181" lon="-1.55143">
        <ele>68</ele>
        <time>2022-08-07T07:29:48Z</time>
      </trkpt>
      <trkpt lat="47.11809" lon="-1.55127">
        <ele>68</ele>
        <time>2022-08-07T07:29:50Z</time>
      </trkpt>
      <trkpt lat="47.11808" lon="-1.55111">
        <ele>68</ele>
        <time>2022-08-07T07:29:52Z</time>
      </trkpt>
      <trkpt lat="47.11806" lon="-1.55095">
        <ele>68</ele>
        <time>2022-08-07T07:29:54Z</time>
      </trkpt>
      <trkpt lat="47.11804" lon="-1.55079">
        <ele>68</ele>
        <time>2022-08-07T07:29:56Z</time>
      </trkpt>
      <trkpt lat="47.11802" lon="-1.55064">
        <ele>68</ele>
        <time>2022-08-07T07:29:58Z</time>
      </trkpt>
      <trkpt lat="47.11799" lon="-1.55047">
        <ele>69</ele>
        <time>2022-08-07T07:30:00Z</time>
      </trkpt>
      <trkpt lat="47.11796" lon="-1.55032">
        <ele>69</ele>
        <time>2022-08-07T07:30:02Z</time>
      </trkpt>
      <trkpt lat="47.11794" lon="-1.55016">
        <ele>69</ele>
        <time>2022-08-07T07:30:04Z</time>
      </trkpt>
      <trkpt lat="47.11791" lon="-1.55">
        <ele>69</ele>
        <time>2022-08-07T07:30:06Z</time>
      </trkpt>
      <trkpt lat="47.11788" lon="-1.54984">
        <ele>69</ele>
        <time>2022-08-07T07:30:08Z</time>
      </trkpt>
      <trkpt lat="47.11784" lon="-1.54968">
        <ele>69</ele>
        <time>2022-08-07T07:30:10Z</time>
      </trkpt>
      <trkpt lat="47.1178" lon="-1.54953">
        <ele>68</ele>
        <time>2022-08-07T07:30:12Z</time>
      </trkpt>
      <trkpt lat="47.11776" lon="-1.54937">
        <ele>69</ele>
        <time>2022-08-07T07:30:14Z</time>
      </trkpt>
      <trkpt lat="47.11772" lon="-1.54921">
        <ele>69</ele>
        <time>2022-08-07T07:30:16Z</time>
      </trkpt>
      <trkpt lat="47.11767" lon="-1.54906">
        <ele>69</ele>
        <time>2022-08-07T07:30:18Z</time>
      </trkpt>
      <trkpt lat="47.11763" lon="-1.5489">
        <ele>69</ele>
        <time>2022-08-07T07:30:20Z</time>
      </trkpt>
      <trkpt lat="47.11759" lon="-1.54874">
        <ele>69</ele>
        <time>2022-08-07T07:30:22Z</time>
      </trkpt>
      <trkpt lat="47.11754" lon="-1.54859">
        <ele>70</ele>
        <time>2022-08-07T07:30:24Z</time>
      </trkpt>
      <trkpt lat="47.11749" lon="-1.54844">
        <ele>70</ele>
        <time>2022-08-07T07:30:26Z</time>
      </trkpt>
      <trkpt lat="47.11745" lon="-1.54829">
        <ele>70</ele>
        <time>2022-08-07T07:30:28Z</time>
      </trkpt>
      <trkpt lat="47.1174" lon="-1.54814">
        <ele>70</ele>
        <time>2022-08-07T07:30:30Z</time>
      </trkpt>
      <trkpt lat="47.11735" lon="-1.54798">
        <ele>69</ele>
        <time>2022-08-07T07:30:32Z</time>
      </trkpt>
      <trkpt lat="47.1173" lon="-1.54783">
        <ele>70</ele>
        <time>2022-08-07T07:30:34Z</time>
      </trkpt>
      <trkpt lat="47.11725" lon="-1.54767">
        <ele>70</ele>
        <time>2022-08-07T07:30:36Z</time>
      </trkpt>
      <trkpt lat="47.11721" lon="-1.54751">
        <ele>70</ele>
        <time>2022-08-07T07:30:38Z</time>
      </trkpt>
      <trkpt lat="47.11716" lon="-1.54736">
        <ele>70</ele>
        <time>2022-08-07T07:30:40Z</time>
      </trkpt>
      <trkpt lat="47.11711" lon="-1.54719">
        <ele>71</ele>
        <time>2022-08-07T07:30:42Z</time>
      </trkpt>
      <trkpt lat="47.11706" lon="-1.54704">
        <ele>71</ele>
        <time>2022-08-07T07:30:44Z</time>
      </trkpt>
      <trkpt lat="47.11702" lon="-1.54688">
        <ele>71</ele>
        <time>2022-08-07T07:30:46Z</time>
      </trkpt>
      <trkpt lat="47.11697" lon="-1.54673">
        <ele>71</ele>
        <time>2022-08-07T07:30:48Z</time>
      </trkpt>
      <trkpt lat="47.11692" lon="-1.54657">
        <ele>71</ele>
        <time>2022-08-07T07:30:50Z</time>
      </trkpt>
      <trkpt lat="47.11687" lon="-1.54641">
        <ele>71</ele>
        <time>2022-08-07T07:30:52Z</time>
      </trkpt>
      <trkpt lat="47.11682" lon="-1.54626">
        <ele>71</ele>
        <time>2022-08-07T07:30:54Z</time>
      </trkpt>
      <trkpt lat="47.11678" lon="-1.5461">
        <ele>71</ele>
        <time>2022-08-07T07:30:56Z</time>
      </trkpt>
      <trkpt lat="47.11673" lon="-1.54595">
        <ele>72</ele>
        <time>2022-08-07T07:30:58Z</time>
      </trkpt>
      <trkpt lat="47.11668" lon="-1.5458">
        <ele>72</ele>
        <time>2022-08-07T07:31:00Z</time>
      </trkpt>
      <trkpt lat="47.11663" lon="-1.54564">
        <ele>72</ele>
        <time>2022-08-07T07:31:02Z</time>
      </trkpt>
      <trkpt lat="47.11657" lon="-1.54548">
        <ele>72</ele>
        <time>2022-08-07T07:31:04Z</time>
      </trkpt>
      <trkpt lat="47.11652" lon="-1.54532">
        <ele>72</ele>
        <time>2022-08-07T07:31:06Z</time>
      </trkpt>
      <trkpt lat="47.11647" lon="-1.54517">
        <ele>72</ele>
        <time>2022-08-07T07:31:08Z</time>
      </trkpt>
      <trkpt lat="47.11642" lon="-1.54502">
        <ele>72</ele>
        <time>2022-08-07T07:31:10Z</time>
      </trkpt>
      <trkpt lat="47.11636" lon="-1.54486">
        <ele>72</ele>
        <time>2022-08-07T07:31:12Z</time>
      </trkpt>
      <trkpt lat="47.11632" lon="-1.54471">
        <ele>72</ele>
        <time>2022-08-07T07:31:14Z</time>
      </trkpt>
      <trkpt lat="47.11627" lon="-1.54455">
        <ele>72</ele>
        <time>2022-08-07T07:31:16Z</time>
      </trkpt>
      <trkpt lat="47.11622" lon="-1.54439">
        <ele>72</ele>
        <time>2022-08-07T07:31:18Z</time>
      </trkpt>
      <trkpt lat="47.11617" lon="-1.54423">
        <ele>72</ele>
        <time>2022-08-07T07:31:20Z</time>
      </trkpt>
      <trkpt lat="47.11612" lon="-1.54408">
        <ele>71</ele>
        <time>2022-08-07T07:31:22Z</time>
      </trkpt>
      <trkpt lat="47.11607" lon="-1.54393">
        <ele>71</ele>
        <time>2022-08-07T07:31:24Z</time>
      </trkpt>
      <trkpt lat="47.11601" lon="-1.54378">
        <ele>72</ele>
        <time>2022-08-07T07:31:26Z</time>
      </trkpt>
      <trkpt lat="47.11596" lon="-1.54362">
        <ele>72</ele>
        <time>2022-08-07T07:31:28Z</time>
      </trkpt>
      <trkpt lat="47.11591" lon="-1.54346">
        <ele>72</ele>
        <time>2022-08-07T07:31:30Z</time>
      </trkpt>
      <trkpt lat="47.11586" lon="-1.5433">
        <ele>72</ele>
        <time>2022-08-07T07:31:32Z</time>
      </trkpt>
      <trkpt lat="47.1158" lon="-1.54314">
        <ele>72</ele>
        <time>2022-08-07T07:31:34Z</time>
      </trkpt>
      <trkpt lat="47.11575" lon="-1.54298">
        <ele>72</ele>
        <time>2022-08-07T07:31:36Z</time>
      </trkpt>
      <trkpt lat="47.11569" lon="-1.54283">
        <ele>72</ele>
        <time>2022-08-07T07:31:38Z</time>
      </trkpt>
      <trkpt lat="47.11564" lon="-1.5427">
        <ele>72</ele>
        <time>2022-08-07T07:31:40Z</time>
      </trkpt>
      <trkpt lat="47.11565" lon="-1.54256">
        <ele>72</ele>
        <time>2022-08-07T07:31:42Z</time>
      </trkpt>
      <trkpt lat="47.11574" lon="-1.54247">
        <ele>72</ele>
        <time>2022-08-07T07:31:44Z</time>
      </trkpt>
      <trkpt lat="47.11585" lon="-1.5424">
        <ele>72</ele>
        <time>2022-08-07T07:31:46Z</time>
      </trkpt>
      <trkpt lat="47.11596" lon="-1.54233">
        <ele>73</ele>
        <time>2022-08-07T07:31:48Z</time>
      </trkpt>
      <trkpt lat="47.11606" lon="-1.54226">
        <ele>73</ele>
        <time>2022-08-07T07:31:50Z</time>
      </trkpt>
      <trkpt lat="47.11616" lon="-1.54218">
        <ele>73</ele>
        <time>2022-08-07T07:31:52Z</time>
      </trkpt>
      <trkpt lat="47.11626" lon="-1.5421">
        <ele>73</ele>
        <time>2022-08-07T07:31:54Z</time>
      </trkpt>
      <trkpt lat="47.11634" lon="-1.54201">
        <ele>73</ele>
        <time>2022-08-07T07:31:56Z</time>
      </trkpt>
      <trkpt lat="47.11641" lon="-1.54189">
        <ele>73</ele>
        <time>2022-08-07T07:31:58Z</time>
      </trkpt>
      <trkpt lat="47.11644" lon="-1.54173">
        <ele>72</ele>
        <time>2022-08-07T07:32:00Z</time>
      </trkpt>
      <trkpt lat="47.11648" lon="-1.54157">
        <ele>73</ele>
        <time>2022-08-07T07:32:02Z</time>
      </trkpt>
      <trkpt lat="47.11657" lon="-1.54146">
        <ele>73</ele>
        <time>2022-08-07T07:32:04Z</time>
      </trkpt>
      <trkpt lat="47.11669" lon="-1.54143">
        <ele>73</ele>
        <time>2022-08-07T07:32:06Z</time>
      </trkpt>
      <trkpt lat="47.11679" lon="-1.54136">
        <ele>73</ele>
        <time>2022-08-07T07:32:08Z</time>
      </trkpt>
      <trkpt lat="47.11688" lon="-1.54126">
        <ele>73</ele>
        <time>2022-08-07T07:32:10Z</time>
      </trkpt>
      <trkpt lat="47.11696" lon="-1.54115">
        <ele>73</ele>
        <time>2022-08-07T07:32:12Z</time>
      </trkpt>
      <trkpt lat="47.11702" lon="-1.54102">
        <ele>73</ele>
        <time>2022-08-07T07:32:14Z</time>
      </trkpt>
      <trkpt lat="47.11712" lon="-1.54082">
        <ele>74</ele>
        <time>2022-08-07T07:32:17Z</time>
      </trkpt>
      <trkpt lat="47.11717" lon="-1.54068">
        <ele>74</ele>
        <time>2022-08-07T07:32:19Z</time>
      </trkpt>
      <trkpt lat="47.11723" lon="-1.54054">
        <ele>74</ele>
        <time>2022-08-07T07:32:21Z</time>
      </trkpt>
      <trkpt lat="47.11728" lon="-1.5404">
        <ele>75</ele>
        <time>2022-08-07T07:32:23Z</time>
      </trkpt>
      <trkpt lat="47.11734" lon="-1.54026">
        <ele>74</ele>
        <time>2022-08-07T07:32:25Z</time>
      </trkpt>
      <trkpt lat="47.11739" lon="-1.54013">
        <ele>74</ele>
        <time>2022-08-07T07:32:27Z</time>
      </trkpt>
      <trkpt lat="47.11745" lon="-1.53999">
        <ele>74</ele>
        <time>2022-08-07T07:32:29Z</time>
      </trkpt>
      <trkpt lat="47.1175" lon="-1.53985">
        <ele>74</ele>
        <time>2022-08-07T07:32:31Z</time>
      </trkpt>
      <trkpt lat="47.11756" lon="-1.53972">
        <ele>74</ele>
        <time>2022-08-07T07:32:33Z</time>
      </trkpt>
      <trkpt lat="47.11761" lon="-1.53958">
        <ele>74</ele>
        <time>2022-08-07T07:32:35Z</time>
      </trkpt>
      <trkpt lat="47.11767" lon="-1.53943">
        <ele>73</ele>
        <time>2022-08-07T07:32:37Z</time>
      </trkpt>
      <trkpt lat="47.11773" lon="-1.53928">
        <ele>73</ele>
        <time>2022-08-07T07:32:39Z</time>
      </trkpt>
      <trkpt lat="47.11783" lon="-1.53906">
        <ele>73</ele>
        <time>2022-08-07T07:32:42Z</time>
      </trkpt>
      <trkpt lat="47.1179" lon="-1.53891">
        <ele>73</ele>
        <time>2022-08-07T07:32:44Z</time>
      </trkpt>
      <trkpt lat="47.11802" lon="-1.53869">
        <ele>72</ele>
        <time>2022-08-07T07:32:47Z</time>
      </trkpt>
      <trkpt lat="47.11815" lon="-1.53847">
        <ele>72</ele>
        <time>2022-08-07T07:32:50Z</time>
      </trkpt>
      <trkpt lat="47.11823" lon="-1.53833">
        <ele>72</ele>
        <time>2022-08-07T07:32:52Z</time>
      </trkpt>
      <trkpt lat="47.11832" lon="-1.53819">
        <ele>72</ele>
        <time>2022-08-07T07:32:54Z</time>
      </trkpt>
      <trkpt lat="47.11839" lon="-1.53804">
        <ele>72</ele>
        <time>2022-08-07T07:32:56Z</time>
      </trkpt>
      <trkpt lat="47.11846" lon="-1.53788">
        <ele>72</ele>
        <time>2022-08-07T07:32:58Z</time>
      </trkpt>
      <trkpt lat="47.11853" lon="-1.53772">
        <ele>72</ele>
        <time>2022-08-07T07:33:00Z</time>
      </trkpt>
      <trkpt lat="47.11862" lon="-1.53747">
        <ele>70</ele>
        <time>2022-08-07T07:33:03Z</time>
      </trkpt>
      <trkpt lat="47.11868" lon="-1.5373">
        <ele>69</ele>
        <time>2022-08-07T07:33:05Z</time>
      </trkpt>
      <trkpt lat="47.11875" lon="-1.53712">
        <ele>68</ele>
        <time>2022-08-07T07:33:07Z</time>
      </trkpt>
      <trkpt lat="47.11882" lon="-1.53695">
        <ele>68</ele>
        <time>2022-08-07T07:33:09Z</time>
      </trkpt>
      <trkpt lat="47.1189" lon="-1.5368">
        <ele>68</ele>
        <time>2022-08-07T07:33:11Z</time>
      </trkpt>
      <trkpt lat="47.11898" lon="-1.53666">
        <ele>68</ele>
        <time>2022-08-07T07:33:13Z</time>
      </trkpt>
      <trkpt lat="47.11906" lon="-1.53652">
        <ele>67</ele>
        <time>2022-08-07T07:33:15Z</time>
      </trkpt>
      <trkpt lat="47.11913" lon="-1.53638">
        <ele>67</ele>
        <time>2022-08-07T07:33:17Z</time>
      </trkpt>
      <trkpt lat="47.1192" lon="-1.53624">
        <ele>66</ele>
        <time>2022-08-07T07:33:19Z</time>
      </trkpt>
      <trkpt lat="47.11928" lon="-1.53609">
        <ele>66</ele>
        <time>2022-08-07T07:33:21Z</time>
      </trkpt>
      <trkpt lat="47.11936" lon="-1.53595">
        <ele>65</ele>
        <time>2022-08-07T07:33:23Z</time>
      </trkpt>
      <trkpt lat="47.11944" lon="-1.5358">
        <ele>65</ele>
        <time>2022-08-07T07:33:25Z</time>
      </trkpt>
      <trkpt lat="47.11951" lon="-1.53566">
        <ele>65</ele>
        <time>2022-08-07T07:33:27Z</time>
      </trkpt>
      <trkpt lat="47.11958" lon="-1.53551">
        <ele>65</ele>
        <time>2022-08-07T07:33:29Z</time>
      </trkpt>
      <trkpt lat="47.11966" lon="-1.53537">
        <ele>64</ele>
        <time>2022-08-07T07:33:31Z</time>
      </trkpt>
      <trkpt lat="47.11974" lon="-1.53523">
        <ele>64</ele>
        <time>2022-08-07T07:33:33Z</time>
      </trkpt>
      <trkpt lat="47.11981" lon="-1.53508">
        <ele>63</ele>
        <time>2022-08-07T07:33:35Z</time>
      </trkpt>
      <trkpt lat="47.11989" lon="-1.53494">
        <ele>63</ele>
        <time>2022-08-07T07:33:37Z</time>
      </trkpt>
      <trkpt lat="47.11997" lon="-1.5348">
        <ele>63</ele>
        <time>2022-08-07T07:33:39Z</time>
      </trkpt>
      <trkpt lat="47.12005" lon="-1.53465">
        <ele>63</ele>
        <time>2022-08-07T07:33:41Z</time>
      </trkpt>
      <trkpt lat="47.12013" lon="-1.53451">
        <ele>62</ele>
        <time>2022-08-07T07:33:43Z</time>
      </trkpt>
      <trkpt lat="47.1202" lon="-1.53437">
        <ele>62</ele>
        <time>2022-08-07T07:33:45Z</time>
      </trkpt>
      <trkpt lat="47.12027" lon="-1.53423">
        <ele>62</ele>
        <time>2022-08-07T07:33:47Z</time>
      </trkpt>
      <trkpt lat="47.12035" lon="-1.53409">
        <ele>62</ele>
        <time>2022-08-07T07:33:49Z</time>
      </trkpt>
      <trkpt lat="47.12042" lon="-1.53395">
        <ele>61</ele>
        <time>2022-08-07T07:33:51Z</time>
      </trkpt>
      <trkpt lat="47.1205" lon="-1.53381">
        <ele>62</ele>
        <time>2022-08-07T07:33:53Z</time>
      </trkpt>
      <trkpt lat="47.12058" lon="-1.53367">
        <ele>62</ele>
        <time>2022-08-07T07:33:55Z</time>
      </trkpt>
      <trkpt lat="47.12066" lon="-1.53352">
        <ele>61</ele>
        <time>2022-08-07T07:33:57Z</time>
      </trkpt>
      <trkpt lat="47.12074" lon="-1.53337">
        <ele>61</ele>
        <time>2022-08-07T07:33:59Z</time>
      </trkpt>
      <trkpt lat="47.12082" lon="-1.53322">
        <ele>61</ele>
        <time>2022-08-07T07:34:01Z</time>
      </trkpt>
      <trkpt lat="47.1209" lon="-1.53306">
        <ele>61</ele>
        <time>2022-08-07T07:34:03Z</time>
      </trkpt>
      <trkpt lat="47.12097" lon="-1.53291">
        <ele>61</ele>
        <time>2022-08-07T07:34:05Z</time>
      </trkpt>
      <trkpt lat="47.12105" lon="-1.53276">
        <ele>61</ele>
        <time>2022-08-07T07:34:07Z</time>
      </trkpt>
      <trkpt lat="47.12113" lon="-1.5326">
        <ele>61</ele>
        <time>2022-08-07T07:34:09Z</time>
      </trkpt>
      <trkpt lat="47.12122" lon="-1.53245">
        <ele>60</ele>
        <time>2022-08-07T07:34:11Z</time>
      </trkpt>
      <trkpt lat="47.1213" lon="-1.5323">
        <ele>59</ele>
        <time>2022-08-07T07:34:13Z</time>
      </trkpt>
      <trkpt lat="47.12138" lon="-1.53215">
        <ele>59</ele>
        <time>2022-08-07T07:34:15Z</time>
      </trkpt>
      <trkpt lat="47.12145" lon="-1.53201">
        <ele>59</ele>
        <time>2022-08-07T07:34:17Z</time>
      </trkpt>
      <trkpt lat="47.12152" lon="-1.53188">
        <ele>59</ele>
        <time>2022-08-07T07:34:19Z</time>
      </trkpt>
      <trkpt lat="47.1216" lon="-1.53174">
        <ele>59</ele>
        <time>2022-08-07T07:34:21Z</time>
      </trkpt>
      <trkpt lat="47.12167" lon="-1.5316">
        <ele>59</ele>
        <time>2022-08-07T07:34:23Z</time>
      </trkpt>
      <trkpt lat="47.12175" lon="-1.53146">
        <ele>59</ele>
        <time>2022-08-07T07:34:25Z</time>
      </trkpt>
      <trkpt lat="47.12182" lon="-1.53132">
        <ele>59</ele>
        <time>2022-08-07T07:34:27Z</time>
      </trkpt>
      <trkpt lat="47.12189" lon="-1.53118">
        <ele>59</ele>
        <time>2022-08-07T07:34:29Z</time>
      </trkpt>
      <trkpt lat="47.12196" lon="-1.53104">
        <ele>59</ele>
        <time>2022-08-07T07:34:31Z</time>
      </trkpt>
      <trkpt lat="47.12203" lon="-1.5309">
        <ele>60</ele>
        <time>2022-08-07T07:34:33Z</time>
      </trkpt>
      <trkpt lat="47.1221" lon="-1.53077">
        <ele>60</ele>
        <time>2022-08-07T07:34:35Z</time>
      </trkpt>
      <trkpt lat="47.12217" lon="-1.53064">
        <ele>60</ele>
        <time>2022-08-07T07:34:37Z</time>
      </trkpt>
      <trkpt lat="47.12224" lon="-1.53051">
        <ele>60</ele>
        <time>2022-08-07T07:34:39Z</time>
      </trkpt>
      <trkpt lat="47.1223" lon="-1.53039">
        <ele>60</ele>
        <time>2022-08-07T07:34:41Z</time>
      </trkpt>
      <trkpt lat="47.12237" lon="-1.53027">
        <ele>60</ele>
        <time>2022-08-07T07:34:43Z</time>
      </trkpt>
      <trkpt lat="47.12243" lon="-1.53014">
        <ele>60</ele>
        <time>2022-08-07T07:34:45Z</time>
      </trkpt>
      <trkpt lat="47.12249" lon="-1.53002">
        <ele>60</ele>
        <time>2022-08-07T07:34:47Z</time>
      </trkpt>
      <trkpt lat="47.12256" lon="-1.52989">
        <ele>61</ele>
        <time>2022-08-07T07:34:49Z</time>
      </trkpt>
      <trkpt lat="47.12263" lon="-1.52977">
        <ele>61</ele>
        <time>2022-08-07T07:34:51Z</time>
      </trkpt>
      <trkpt lat="47.12269" lon="-1.52966">
        <ele>61</ele>
        <time>2022-08-07T07:34:53Z</time>
      </trkpt>
      <trkpt lat="47.12275" lon="-1.52954">
        <ele>61</ele>
        <time>2022-08-07T07:34:55Z</time>
      </trkpt>
      <trkpt lat="47.12281" lon="-1.52943">
        <ele>62</ele>
        <time>2022-08-07T07:34:57Z</time>
      </trkpt>
      <trkpt lat="47.12289" lon="-1.52928">
        <ele>63</ele>
        <time>2022-08-07T07:35:00Z</time>
      </trkpt>
      <trkpt lat="47.12297" lon="-1.52913">
        <ele>64</ele>
        <time>2022-08-07T07:35:03Z</time>
      </trkpt>
      <trkpt lat="47.12306" lon="-1.52899">
        <ele>64</ele>
        <time>2022-08-07T07:35:06Z</time>
      </trkpt>
      <trkpt lat="47.12314" lon="-1.52884">
        <ele>64</ele>
        <time>2022-08-07T07:35:09Z</time>
      </trkpt>
      <trkpt lat="47.12321" lon="-1.52874">
        <ele>64</ele>
        <time>2022-08-07T07:35:11Z</time>
      </trkpt>
      <trkpt lat="47.12328" lon="-1.52864">
        <ele>64</ele>
        <time>2022-08-07T07:35:13Z</time>
      </trkpt>
      <trkpt lat="47.12335" lon="-1.52855">
        <ele>65</ele>
        <time>2022-08-07T07:35:15Z</time>
      </trkpt>
      <trkpt lat="47.12342" lon="-1.52846">
        <ele>65</ele>
        <time>2022-08-07T07:35:17Z</time>
      </trkpt>
      <trkpt lat="47.12349" lon="-1.52838">
        <ele>65</ele>
        <time>2022-08-07T07:35:19Z</time>
      </trkpt>
      <trkpt lat="47.12357" lon="-1.52829">
        <ele>66</ele>
        <time>2022-08-07T07:35:21Z</time>
      </trkpt>
      <trkpt lat="47.12364" lon="-1.52822">
        <ele>66</ele>
        <time>2022-08-07T07:35:23Z</time>
      </trkpt>
      <trkpt lat="47.12372" lon="-1.52814">
        <ele>66</ele>
        <time>2022-08-07T07:35:25Z</time>
      </trkpt>
      <trkpt lat="47.1238" lon="-1.52807">
        <ele>67</ele>
        <time>2022-08-07T07:35:27Z</time>
      </trkpt>
      <trkpt lat="47.12391" lon="-1.52796">
        <ele>68</ele>
        <time>2022-08-07T07:35:30Z</time>
      </trkpt>
      <trkpt lat="47.12399" lon="-1.52789">
        <ele>68</ele>
        <time>2022-08-07T07:35:32Z</time>
      </trkpt>
      <trkpt lat="47.12406" lon="-1.52781">
        <ele>69</ele>
        <time>2022-08-07T07:35:34Z</time>
      </trkpt>
      <trkpt lat="47.12414" lon="-1.52773">
        <ele>70</ele>
        <time>2022-08-07T07:35:36Z</time>
      </trkpt>
      <trkpt lat="47.12422" lon="-1.52764">
        <ele>70</ele>
        <time>2022-08-07T07:35:38Z</time>
      </trkpt>
      <trkpt lat="47.12429" lon="-1.52757">
        <ele>70</ele>
        <time>2022-08-07T07:35:40Z</time>
      </trkpt>
      <trkpt lat="47.12438" lon="-1.52751">
        <ele>70</ele>
        <time>2022-08-07T07:35:42Z</time>
      </trkpt>
      <trkpt lat="47.12446" lon="-1.52744">
        <ele>71</ele>
        <time>2022-08-07T07:35:44Z</time>
      </trkpt>
      <trkpt lat="47.12455" lon="-1.52739">
        <ele>72</ele>
        <time>2022-08-07T07:35:46Z</time>
      </trkpt>
      <trkpt lat="47.12464" lon="-1.52735">
        <ele>73</ele>
        <time>2022-08-07T07:35:48Z</time>
      </trkpt>
      <trkpt lat="47.12473" lon="-1.52732">
        <ele>73</ele>
        <time>2022-08-07T07:35:50Z</time>
      </trkpt>
      <trkpt lat="47.12485" lon="-1.52728">
        <ele>75</ele>
        <time>2022-08-07T07:35:53Z</time>
      </trkpt>
      <trkpt lat="47.12499" lon="-1.52725">
        <ele>75</ele>
        <time>2022-08-07T07:35:56Z</time>
      </trkpt>
      <trkpt lat="47.12507" lon="-1.52721">
        <ele>74</ele>
        <time>2022-08-07T07:35:58Z</time>
      </trkpt>
      <trkpt lat="47.12512" lon="-1.52709">
        <ele>75</ele>
        <time>2022-08-07T07:36:01Z</time>
      </trkpt>
      <trkpt lat="47.1252" lon="-1.52701">
        <ele>76</ele>
        <time>2022-08-07T07:36:04Z</time>
      </trkpt>
      <trkpt lat="47.1253" lon="-1.52704">
        <ele>75</ele>
        <time>2022-08-07T07:36:06Z</time>
      </trkpt>
      <trkpt lat="47.12539" lon="-1.5271">
        <ele>75</ele>
        <time>2022-08-07T07:36:08Z</time>
      </trkpt>
      <trkpt lat="47.12549" lon="-1.52717">
        <ele>74</ele>
        <time>2022-08-07T07:36:10Z</time>
      </trkpt>
      <trkpt lat="47.1256" lon="-1.52726">
        <ele>73</ele>
        <time>2022-08-07T07:36:12Z</time>
      </trkpt>
      <trkpt lat="47.12571" lon="-1.52735">
        <ele>73</ele>
        <time>2022-08-07T07:36:14Z</time>
      </trkpt>
      <trkpt lat="47.12581" lon="-1.52747">
        <ele>72</ele>
        <time>2022-08-07T07:36:16Z</time>
      </trkpt>
      <trkpt lat="47.1259" lon="-1.52758">
        <ele>72</ele>
        <time>2022-08-07T07:36:18Z</time>
      </trkpt>
      <trkpt lat="47.12599" lon="-1.52769">
        <ele>73</ele>
        <time>2022-08-07T07:36:20Z</time>
      </trkpt>
      <trkpt lat="47.12608" lon="-1.52779">
        <ele>72</ele>
        <time>2022-08-07T07:36:22Z</time>
      </trkpt>
      <trkpt lat="47.12617" lon="-1.52791">
        <ele>72</ele>
        <time>2022-08-07T07:36:24Z</time>
      </trkpt>
      <trkpt lat="47.12626" lon="-1.52802">
        <ele>73</ele>
        <time>2022-08-07T07:36:26Z</time>
      </trkpt>
      <trkpt lat="47.12635" lon="-1.52813">
        <ele>73</ele>
        <time>2022-08-07T07:36:28Z</time>
      </trkpt>
      <trkpt lat="47.12644" lon="-1.52824">
        <ele>72</ele>
        <time>2022-08-07T07:36:30Z</time>
      </trkpt>
      <trkpt lat="47.12652" lon="-1.52834">
        <ele>73</ele>
        <time>2022-08-07T07:36:32Z</time>
      </trkpt>
      <trkpt lat="47.12661" lon="-1.52845">
        <ele>73</ele>
        <time>2022-08-07T07:36:34Z</time>
      </trkpt>
      <trkpt lat="47.12669" lon="-1.52856">
        <ele>73</ele>
        <time>2022-08-07T07:36:36Z</time>
      </trkpt>
      <trkpt lat="47.12678" lon="-1.52867">
        <ele>73</ele>
        <time>2022-08-07T07:36:38Z</time>
      </trkpt>
      <trkpt lat="47.12687" lon="-1.52879">
        <ele>73</ele>
        <time>2022-08-07T07:36:40Z</time>
      </trkpt>
      <trkpt lat="47.12697" lon="-1.5289">
        <ele>73</ele>
        <time>2022-08-07T07:36:42Z</time>
      </trkpt>
      <trkpt lat="47.12706" lon="-1.52901">
        <ele>73</ele>
        <time>2022-08-07T07:36:44Z</time>
      </trkpt>
      <trkpt lat="47.12715" lon="-1.52912">
        <ele>72</ele>
        <time>2022-08-07T07:36:46Z</time>
      </trkpt>
      <trkpt lat="47.12724" lon="-1.52923">
        <ele>72</ele>
        <time>2022-08-07T07:36:48Z</time>
      </trkpt>
      <trkpt lat="47.12732" lon="-1.52935">
        <ele>72</ele>
        <time>2022-08-07T07:36:50Z</time>
      </trkpt>
      <trkpt lat="47.12741" lon="-1.52947">
        <ele>71</ele>
        <time>2022-08-07T07:36:52Z</time>
      </trkpt>
      <trkpt lat="47.1275" lon="-1.52959">
        <ele>71</ele>
        <time>2022-08-07T07:36:54Z</time>
      </trkpt>
      <trkpt lat="47.1276" lon="-1.52971">
        <ele>71</ele>
        <time>2022-08-07T07:36:56Z</time>
      </trkpt>
      <trkpt lat="47.12769" lon="-1.52982">
        <ele>71</ele>
        <time>2022-08-07T07:36:58Z</time>
      </trkpt>
      <trkpt lat="47.12779" lon="-1.52994">
        <ele>71</ele>
        <time>2022-08-07T07:37:00Z</time>
      </trkpt>
      <trkpt lat="47.12788" lon="-1.53005">
        <ele>71</ele>
        <time>2022-08-07T07:37:02Z</time>
      </trkpt>
      <trkpt lat="47.12797" lon="-1.53016">
        <ele>72</ele>
        <time>2022-08-07T07:37:04Z</time>
      </trkpt>
      <trkpt lat="47.12806" lon="-1.53027">
        <ele>72</ele>
        <time>2022-08-07T07:37:06Z</time>
      </trkpt>
      <trkpt lat="47.12815" lon="-1.53038">
        <ele>72</ele>
        <time>2022-08-07T07:37:08Z</time>
      </trkpt>
      <trkpt lat="47.12823" lon="-1.53049">
        <ele>72</ele>
        <time>2022-08-07T07:37:10Z</time>
      </trkpt>
      <trkpt lat="47.12832" lon="-1.5306">
        <ele>72</ele>
        <time>2022-08-07T07:37:12Z</time>
      </trkpt>
      <trkpt lat="47.12841" lon="-1.53072">
        <ele>72</ele>
        <time>2022-08-07T07:37:14Z</time>
      </trkpt>
      <trkpt lat="47.1285" lon="-1.53083">
        <ele>72</ele>
        <time>2022-08-07T07:37:16Z</time>
      </trkpt>
      <trkpt lat="47.12859" lon="-1.53095">
        <ele>72</ele>
        <time>2022-08-07T07:37:18Z</time>
      </trkpt>
      <trkpt lat="47.12868" lon="-1.53106">
        <ele>72</ele>
        <time>2022-08-07T07:37:20Z</time>
      </trkpt>
      <trkpt lat="47.12877" lon="-1.53117">
        <ele>73</ele>
        <time>2022-08-07T07:37:22Z</time>
      </trkpt>
      <trkpt lat="47.12886" lon="-1.53129">
        <ele>73</ele>
        <time>2022-08-07T07:37:24Z</time>
      </trkpt>
      <trkpt lat="47.12895" lon="-1.5314">
        <ele>73</ele>
        <time>2022-08-07T07:37:26Z</time>
      </trkpt>
      <trkpt lat="47.12904" lon="-1.53152">
        <ele>73</ele>
        <time>2022-08-07T07:37:28Z</time>
      </trkpt>
      <trkpt lat="47.12913" lon="-1.53162">
        <ele>73</ele>
        <time>2022-08-07T07:37:30Z</time>
      </trkpt>
      <trkpt lat="47.12921" lon="-1.53173">
        <ele>73</ele>
        <time>2022-08-07T07:37:32Z</time>
      </trkpt>
      <trkpt lat="47.1293" lon="-1.53184">
        <ele>73</ele>
        <time>2022-08-07T07:37:34Z</time>
      </trkpt>
      <trkpt lat="47.12939" lon="-1.53193">
        <ele>73</ele>
        <time>2022-08-07T07:37:36Z</time>
      </trkpt>
      <trkpt lat="47.12948" lon="-1.53203">
        <ele>74</ele>
        <time>2022-08-07T07:37:38Z</time>
      </trkpt>
      <trkpt lat="47.12957" lon="-1.53213">
        <ele>74</ele>
        <time>2022-08-07T07:37:40Z</time>
      </trkpt>
      <trkpt lat="47.12966" lon="-1.53222">
        <ele>74</ele>
        <time>2022-08-07T07:37:42Z</time>
      </trkpt>
      <trkpt lat="47.12975" lon="-1.53231">
        <ele>74</ele>
        <time>2022-08-07T07:37:44Z</time>
      </trkpt>
      <trkpt lat="47.12985" lon="-1.53238">
        <ele>74</ele>
        <time>2022-08-07T07:37:46Z</time>
      </trkpt>
      <trkpt lat="47.12994" lon="-1.53246">
        <ele>74</ele>
        <time>2022-08-07T07:37:48Z</time>
      </trkpt>
      <trkpt lat="47.13005" lon="-1.53252">
        <ele>74</ele>
        <time>2022-08-07T07:37:50Z</time>
      </trkpt>
      <trkpt lat="47.13015" lon="-1.53256">
        <ele>74</ele>
        <time>2022-08-07T07:37:52Z</time>
      </trkpt>
      <trkpt lat="47.13026" lon="-1.53259">
        <ele>74</ele>
        <time>2022-08-07T07:37:54Z</time>
      </trkpt>
      <trkpt lat="47.13037" lon="-1.53259">
        <ele>74</ele>
        <time>2022-08-07T07:37:56Z</time>
      </trkpt>
      <trkpt lat="47.13048" lon="-1.53258">
        <ele>74</ele>
        <time>2022-08-07T07:37:58Z</time>
      </trkpt>
      <trkpt lat="47.13059" lon="-1.53255">
        <ele>74</ele>
        <time>2022-08-07T07:38:00Z</time>
      </trkpt>
      <trkpt lat="47.13069" lon="-1.53252">
        <ele>74</ele>
        <time>2022-08-07T07:38:02Z</time>
      </trkpt>
      <trkpt lat="47.13079" lon="-1.53248">
        <ele>74</ele>
        <time>2022-08-07T07:38:04Z</time>
      </trkpt>
      <trkpt lat="47.13089" lon="-1.53244">
        <ele>75</ele>
        <time>2022-08-07T07:38:06Z</time>
      </trkpt>
      <trkpt lat="47.13099" lon="-1.53239">
        <ele>75</ele>
        <time>2022-08-07T07:38:08Z</time>
      </trkpt>
      <trkpt lat="47.13109" lon="-1.53235">
        <ele>75</ele>
        <time>2022-08-07T07:38:10Z</time>
      </trkpt>
      <trkpt lat="47.1312" lon="-1.5323">
        <ele>76</ele>
        <time>2022-08-07T07:38:12Z</time>
      </trkpt>
      <trkpt lat="47.1313" lon="-1.53226">
        <ele>76</ele>
        <time>2022-08-07T07:38:14Z</time>
      </trkpt>
      <trkpt lat="47.1314" lon="-1.53222">
        <ele>77</ele>
        <time>2022-08-07T07:38:16Z</time>
      </trkpt>
      <trkpt lat="47.1315" lon="-1.53218">
        <ele>77</ele>
        <time>2022-08-07T07:38:18Z</time>
      </trkpt>
      <trkpt lat="47.1316" lon="-1.53214">
        <ele>77</ele>
        <time>2022-08-07T07:38:20Z</time>
      </trkpt>
      <trkpt lat="47.13169" lon="-1.5321">
        <ele>77</ele>
        <time>2022-08-07T07:38:22Z</time>
      </trkpt>
      <trkpt lat="47.13179" lon="-1.53206">
        <ele>77</ele>
        <time>2022-08-07T07:38:24Z</time>
      </trkpt>
      <trkpt lat="47.13189" lon="-1.53202">
        <ele>77</ele>
        <time>2022-08-07T07:38:26Z</time>
      </trkpt>
      <trkpt lat="47.13199" lon="-1.53198">
        <ele>77</ele>
        <time>2022-08-07T07:38:28Z</time>
      </trkpt>
      <trkpt lat="47.13209" lon="-1.53194">
        <ele>77</ele>
        <time>2022-08-07T07:38:30Z</time>
      </trkpt>
      <trkpt lat="47.1322" lon="-1.53191">
        <ele>77</ele>
        <time>2022-08-07T07:38:32Z</time>
      </trkpt>
      <trkpt lat="47.1323" lon="-1.53187">
        <ele>77</ele>
        <time>2022-08-07T07:38:34Z</time>
      </trkpt>
      <trkpt lat="47.1324" lon="-1.53183">
        <ele>77</ele>
        <time>2022-08-07T07:38:36Z</time>
      </trkpt>
      <trkpt lat="47.1325" lon="-1.53179">
        <ele>77</ele>
        <time>2022-08-07T07:38:38Z</time>
      </trkpt>
      <trkpt lat="47.13261" lon="-1.53175">
        <ele>77</ele>
        <time>2022-08-07T07:38:40Z</time>
      </trkpt>
      <trkpt lat="47.1327" lon="-1.53171">
        <ele>77</ele>
        <time>2022-08-07T07:38:42Z</time>
      </trkpt>
      <trkpt lat="47.1328" lon="-1.53167">
        <ele>77</ele>
        <time>2022-08-07T07:38:44Z</time>
      </trkpt>
      <trkpt lat="47.1329" lon="-1.53162">
        <ele>77</ele>
        <time>2022-08-07T07:38:46Z</time>
      </trkpt>
      <trkpt lat="47.133" lon="-1.53157">
        <ele>77</ele>
        <time>2022-08-07T07:38:48Z</time>
      </trkpt>
      <trkpt lat="47.1331" lon="-1.53154">
        <ele>78</ele>
        <time>2022-08-07T07:38:50Z</time>
      </trkpt>
      <trkpt lat="47.1332" lon="-1.53152">
        <ele>79</ele>
        <time>2022-08-07T07:38:52Z</time>
      </trkpt>
      <trkpt lat="47.1333" lon="-1.53148">
        <ele>79</ele>
        <time>2022-08-07T07:38:54Z</time>
      </trkpt>
      <trkpt lat="47.1334" lon="-1.53145">
        <ele>79</ele>
        <time>2022-08-07T07:38:56Z</time>
      </trkpt>
      <trkpt lat="47.1335" lon="-1.53143">
        <ele>79</ele>
        <time>2022-08-07T07:38:58Z</time>
      </trkpt>
      <trkpt lat="47.13361" lon="-1.53141">
        <ele>79</ele>
        <time>2022-08-07T07:39:00Z</time>
      </trkpt>
      <trkpt lat="47.13372" lon="-1.53139">
        <ele>79</ele>
        <time>2022-08-07T07:39:02Z</time>
      </trkpt>
      <trkpt lat="47.13381" lon="-1.53138">
        <ele>80</ele>
        <time>2022-08-07T07:39:04Z</time>
      </trkpt>
      <trkpt lat="47.13394" lon="-1.53139">
        <ele>80</ele>
        <time>2022-08-07T07:39:07Z</time>
      </trkpt>
      <trkpt lat="47.13405" lon="-1.53138">
        <ele>80</ele>
        <time>2022-08-07T07:39:10Z</time>
      </trkpt>
      <trkpt lat="47.13417" lon="-1.53139">
        <ele>80</ele>
        <time>2022-08-07T07:39:13Z</time>
      </trkpt>
      <trkpt lat="47.13426" lon="-1.53138">
        <ele>80</ele>
        <time>2022-08-07T07:39:15Z</time>
      </trkpt>
      <trkpt lat="47.13433" lon="-1.53126">
        <ele>80</ele>
        <time>2022-08-07T07:39:17Z</time>
      </trkpt>
      <trkpt lat="47.13438" lon="-1.53111">
        <ele>81</ele>
        <time>2022-08-07T07:39:19Z</time>
      </trkpt>
      <trkpt lat="47.13444" lon="-1.53097">
        <ele>81</ele>
        <time>2022-08-07T07:39:21Z</time>
      </trkpt>
      <trkpt lat="47.1345" lon="-1.53083">
        <ele>81</ele>
        <time>2022-08-07T07:39:23Z</time>
      </trkpt>
      <trkpt lat="47.13456" lon="-1.53068">
        <ele>81</ele>
        <time>2022-08-07T07:39:25Z</time>
      </trkpt>
      <trkpt lat="47.13462" lon="-1.53056">
        <ele>82</ele>
        <time>2022-08-07T07:39:27Z</time>
      </trkpt>
      <trkpt lat="47.13468" lon="-1.53042">
        <ele>83</ele>
        <time>2022-08-07T07:39:29Z</time>
      </trkpt>
      <trkpt lat="47.13474" lon="-1.53028">
        <ele>83</ele>
        <time>2022-08-07T07:39:31Z</time>
      </trkpt>
      <trkpt lat="47.1348" lon="-1.53015">
        <ele>84</ele>
        <time>2022-08-07T07:39:33Z</time>
      </trkpt>
      <trkpt lat="47.13486" lon="-1.53001">
        <ele>84</ele>
        <time>2022-08-07T07:39:35Z</time>
      </trkpt>
      <trkpt lat="47.13492" lon="-1.52988">
        <ele>84</ele>
        <time>2022-08-07T07:39:37Z</time>
      </trkpt>
      <trkpt lat="47.13498" lon="-1.52976">
        <ele>84</ele>
        <time>2022-08-07T07:39:39Z</time>
      </trkpt>
      <trkpt lat="47.13504" lon="-1.52963">
        <ele>84</ele>
        <time>2022-08-07T07:39:41Z</time>
      </trkpt>
      <trkpt lat="47.1351" lon="-1.5295">
        <ele>84</ele>
        <time>2022-08-07T07:39:43Z</time>
      </trkpt>
      <trkpt lat="47.13515" lon="-1.52937">
        <ele>83</ele>
        <time>2022-08-07T07:39:45Z</time>
      </trkpt>
      <trkpt lat="47.13521" lon="-1.52924">
        <ele>83</ele>
        <time>2022-08-07T07:39:47Z</time>
      </trkpt>
      <trkpt lat="47.13527" lon="-1.52911">
        <ele>83</ele>
        <time>2022-08-07T07:39:49Z</time>
      </trkpt>
      <trkpt lat="47.13534" lon="-1.52897">
        <ele>83</ele>
        <time>2022-08-07T07:39:51Z</time>
      </trkpt>
      <trkpt lat="47.1354" lon="-1.52885">
        <ele>83</ele>
        <time>2022-08-07T07:39:53Z</time>
      </trkpt>
      <trkpt lat="47.13545" lon="-1.52872">
        <ele>83</ele>
        <time>2022-08-07T07:39:55Z</time>
      </trkpt>
      <trkpt lat="47.13552" lon="-1.52858">
        <ele>83</ele>
        <time>2022-08-07T07:39:57Z</time>
      </trkpt>
      <trkpt lat="47.13557" lon="-1.52845">
        <ele>82</ele>
        <time>2022-08-07T07:39:59Z</time>
      </trkpt>
      <trkpt lat="47.13563" lon="-1.52832">
        <ele>82</ele>
        <time>2022-08-07T07:40:01Z</time>
      </trkpt>
      <trkpt lat="47.1357" lon="-1.52819">
        <ele>82</ele>
        <time>2022-08-07T07:40:03Z</time>
      </trkpt>
      <trkpt lat="47.13576" lon="-1.52806">
        <ele>82</ele>
        <time>2022-08-07T07:40:05Z</time>
      </trkpt>
      <trkpt lat="47.13582" lon="-1.52792">
        <ele>83</ele>
        <time>2022-08-07T07:40:07Z</time>
      </trkpt>
      <trkpt lat="47.13588" lon="-1.52779">
        <ele>83</ele>
        <time>2022-08-07T07:40:09Z</time>
      </trkpt>
      <trkpt lat="47.13594" lon="-1.52767">
        <ele>83</ele>
        <time>2022-08-07T07:40:11Z</time>
      </trkpt>
      <trkpt lat="47.13601" lon="-1.52754">
        <ele>83</ele>
        <time>2022-08-07T07:40:13Z</time>
      </trkpt>
      <trkpt lat="47.13608" lon="-1.52742">
        <ele>83</ele>
        <time>2022-08-07T07:40:15Z</time>
      </trkpt>
      <trkpt lat="47.13615" lon="-1.5273">
        <ele>83</ele>
        <time>2022-08-07T07:40:17Z</time>
      </trkpt>
      <trkpt lat="47.13622" lon="-1.52717">
        <ele>84</ele>
        <time>2022-08-07T07:40:19Z</time>
      </trkpt>
      <trkpt lat="47.13629" lon="-1.52705">
        <ele>84</ele>
        <time>2022-08-07T07:40:21Z</time>
      </trkpt>
      <trkpt lat="47.13636" lon="-1.52694">
        <ele>84</ele>
        <time>2022-08-07T07:40:23Z</time>
      </trkpt>
      <trkpt lat="47.13644" lon="-1.52682">
        <ele>84</ele>
        <time>2022-08-07T07:40:25Z</time>
      </trkpt>
      <trkpt lat="47.13651" lon="-1.5267">
        <ele>85</ele>
        <time>2022-08-07T07:40:27Z</time>
      </trkpt>
      <trkpt lat="47.13659" lon="-1.52658">
        <ele>85</ele>
        <time>2022-08-07T07:40:29Z</time>
      </trkpt>
      <trkpt lat="47.13666" lon="-1.52645">
        <ele>86</ele>
        <time>2022-08-07T07:40:31Z</time>
      </trkpt>
      <trkpt lat="47.13674" lon="-1.52634">
        <ele>86</ele>
        <time>2022-08-07T07:40:33Z</time>
      </trkpt>
      <trkpt lat="47.13681" lon="-1.52622">
        <ele>86</ele>
        <time>2022-08-07T07:40:35Z</time>
      </trkpt>
      <trkpt lat="47.13688" lon="-1.52611">
        <ele>86</ele>
        <time>2022-08-07T07:40:37Z</time>
      </trkpt>
      <trkpt lat="47.13696" lon="-1.52599">
        <ele>86</ele>
        <time>2022-08-07T07:40:39Z</time>
      </trkpt>
      <trkpt lat="47.13702" lon="-1.52588">
        <ele>87</ele>
        <time>2022-08-07T07:40:41Z</time>
      </trkpt>
      <trkpt lat="47.1371" lon="-1.52574">
        <ele>87</ele>
        <time>2022-08-07T07:40:43Z</time>
      </trkpt>
      <trkpt lat="47.13718" lon="-1.52561">
        <ele>87</ele>
        <time>2022-08-07T07:40:45Z</time>
      </trkpt>
      <trkpt lat="47.13726" lon="-1.52549">
        <ele>88</ele>
        <time>2022-08-07T07:40:47Z</time>
      </trkpt>
      <trkpt lat="47.13734" lon="-1.52536">
        <ele>87</ele>
        <time>2022-08-07T07:40:49Z</time>
      </trkpt>
      <trkpt lat="47.13742" lon="-1.52524">
        <ele>87</ele>
        <time>2022-08-07T07:40:51Z</time>
      </trkpt>
      <trkpt lat="47.1375" lon="-1.52511">
        <ele>87</ele>
        <time>2022-08-07T07:40:53Z</time>
      </trkpt>
      <trkpt lat="47.13758" lon="-1.52498">
        <ele>87</ele>
        <time>2022-08-07T07:40:55Z</time>
      </trkpt>
      <trkpt lat="47.13766" lon="-1.52486">
        <ele>87</ele>
        <time>2022-08-07T07:40:57Z</time>
      </trkpt>
      <trkpt lat="47.13774" lon="-1.52474">
        <ele>87</ele>
        <time>2022-08-07T07:40:59Z</time>
      </trkpt>
      <trkpt lat="47.13782" lon="-1.52463">
        <ele>86</ele>
        <time>2022-08-07T07:41:01Z</time>
      </trkpt>
      <trkpt lat="47.1379" lon="-1.5245">
        <ele>86</ele>
        <time>2022-08-07T07:41:03Z</time>
      </trkpt>
      <trkpt lat="47.13798" lon="-1.52438">
        <ele>86</ele>
        <time>2022-08-07T07:41:05Z</time>
      </trkpt>
      <trkpt lat="47.13806" lon="-1.52426">
        <ele>86</ele>
        <time>2022-08-07T07:41:07Z</time>
      </trkpt>
      <trkpt lat="47.13814" lon="-1.52413">
        <ele>86</ele>
        <time>2022-08-07T07:41:09Z</time>
      </trkpt>
      <trkpt lat="47.13822" lon="-1.52401">
        <ele>86</ele>
        <time>2022-08-07T07:41:11Z</time>
      </trkpt>
      <trkpt lat="47.1383" lon="-1.52388">
        <ele>86</ele>
        <time>2022-08-07T07:41:13Z</time>
      </trkpt>
      <trkpt lat="47.13838" lon="-1.52377">
        <ele>86</ele>
        <time>2022-08-07T07:41:15Z</time>
      </trkpt>
      <trkpt lat="47.13846" lon="-1.52365">
        <ele>87</ele>
        <time>2022-08-07T07:41:17Z</time>
      </trkpt>
      <trkpt lat="47.13854" lon="-1.52353">
        <ele>86</ele>
        <time>2022-08-07T07:41:19Z</time>
      </trkpt>
      <trkpt lat="47.13859" lon="-1.52338">
        <ele>86</ele>
        <time>2022-08-07T07:41:21Z</time>
      </trkpt>
      <trkpt lat="47.13863" lon="-1.52323">
        <ele>86</ele>
        <time>2022-08-07T07:41:23Z</time>
      </trkpt>
      <trkpt lat="47.13871" lon="-1.52311">
        <ele>87</ele>
        <time>2022-08-07T07:41:25Z</time>
      </trkpt>
      <trkpt lat="47.13881" lon="-1.52305">
        <ele>86</ele>
        <time>2022-08-07T07:41:27Z</time>
      </trkpt>
      <trkpt lat="47.13891" lon="-1.52297">
        <ele>86</ele>
        <time>2022-08-07T07:41:29Z</time>
      </trkpt>
      <trkpt lat="47.13899" lon="-1.52287">
        <ele>87</ele>
        <time>2022-08-07T07:41:31Z</time>
      </trkpt>
      <trkpt lat="47.13907" lon="-1.52275">
        <ele>87</ele>
        <time>2022-08-07T07:41:33Z</time>
      </trkpt>
      <trkpt lat="47.13915" lon="-1.52264">
        <ele>87</ele>
        <time>2022-08-07T07:41:35Z</time>
      </trkpt>
      <trkpt lat="47.13923" lon="-1.52253">
        <ele>88</ele>
        <time>2022-08-07T07:41:37Z</time>
      </trkpt>
      <trkpt lat="47.13929" lon="-1.52241">
        <ele>89</ele>
        <time>2022-08-07T07:41:39Z</time>
      </trkpt>
      <trkpt lat="47.13936" lon="-1.5223">
        <ele>90</ele>
        <time>2022-08-07T07:41:41Z</time>
      </trkpt>
      <trkpt lat="47.13944" lon="-1.52221">
        <ele>90</ele>
        <time>2022-08-07T07:41:43Z</time>
      </trkpt>
      <trkpt lat="47.13952" lon="-1.5221">
        <ele>90</ele>
        <time>2022-08-07T07:41:45Z</time>
      </trkpt>
      <trkpt lat="47.13959" lon="-1.522">
        <ele>90</ele>
        <time>2022-08-07T07:41:47Z</time>
      </trkpt>
      <trkpt lat="47.13966" lon="-1.5219">
        <ele>89</ele>
        <time>2022-08-07T07:41:49Z</time>
      </trkpt>
      <trkpt lat="47.13974" lon="-1.5218">
        <ele>88</ele>
        <time>2022-08-07T07:41:51Z</time>
      </trkpt>
      <trkpt lat="47.13981" lon="-1.5217">
        <ele>88</ele>
        <time>2022-08-07T07:41:53Z</time>
      </trkpt>
      <trkpt lat="47.13989" lon="-1.52161">
        <ele>88</ele>
        <time>2022-08-07T07:41:55Z</time>
      </trkpt>
      <trkpt lat="47.13997" lon="-1.52153">
        <ele>88</ele>
        <time>2022-08-07T07:41:57Z</time>
      </trkpt>
      <trkpt lat="47.14006" lon="-1.52146">
        <ele>87</ele>
        <time>2022-08-07T07:41:59Z</time>
      </trkpt>
      <trkpt lat="47.14013" lon="-1.52138">
        <ele>87</ele>
        <time>2022-08-07T07:42:01Z</time>
      </trkpt>
      <trkpt lat="47.14021" lon="-1.52124">
        <ele>88</ele>
        <time>2022-08-07T07:42:04Z</time>
      </trkpt>
      <trkpt lat="47.14027" lon="-1.52112">
        <ele>88</ele>
        <time>2022-08-07T07:42:07Z</time>
      </trkpt>
      <trkpt lat="47.14035" lon="-1.52102">
        <ele>89</ele>
        <time>2022-08-07T07:42:10Z</time>
      </trkpt>
      <trkpt lat="47.14047" lon="-1.52093">
        <ele>89</ele>
        <time>2022-08-07T07:42:13Z</time>
      </trkpt>
      <trkpt lat="47.14055" lon="-1.52087">
        <ele>89</ele>
        <time>2022-08-07T07:42:15Z</time>
      </trkpt>
      <trkpt lat="47.14064" lon="-1.52078">
        <ele>90</ele>
        <time>2022-08-07T07:42:17Z</time>
      </trkpt>
      <trkpt lat="47.14072" lon="-1.52069">
        <ele>89</ele>
        <time>2022-08-07T07:42:19Z</time>
      </trkpt>
      <trkpt lat="47.1408" lon="-1.52059">
        <ele>89</ele>
        <time>2022-08-07T07:42:21Z</time>
      </trkpt>
      <trkpt lat="47.14089" lon="-1.5205">
        <ele>89</ele>
        <time>2022-08-07T07:42:23Z</time>
      </trkpt>
      <trkpt lat="47.14097" lon="-1.52042">
        <ele>88</ele>
        <time>2022-08-07T07:42:25Z</time>
      </trkpt>
      <trkpt lat="47.14106" lon="-1.52033">
        <ele>88</ele>
        <time>2022-08-07T07:42:27Z</time>
      </trkpt>
      <trkpt lat="47.14114" lon="-1.52025">
        <ele>88</ele>
        <time>2022-08-07T07:42:29Z</time>
      </trkpt>
      <trkpt lat="47.14123" lon="-1.52017">
        <ele>88</ele>
        <time>2022-08-07T07:42:31Z</time>
      </trkpt>
      <trkpt lat="47.14132" lon="-1.52009">
        <ele>88</ele>
        <time>2022-08-07T07:42:33Z</time>
      </trkpt>
      <trkpt lat="47.14141" lon="-1.52">
        <ele>89</ele>
        <time>2022-08-07T07:42:35Z</time>
      </trkpt>
      <trkpt lat="47.1415" lon="-1.51992">
        <ele>89</ele>
        <time>2022-08-07T07:42:37Z</time>
      </trkpt>
      <trkpt lat="47.14158" lon="-1.51984">
        <ele>89</ele>
        <time>2022-08-07T07:42:39Z</time>
      </trkpt>
      <trkpt lat="47.14167" lon="-1.51976">
        <ele>89</ele>
        <time>2022-08-07T07:42:41Z</time>
      </trkpt>
      <trkpt lat="47.14175" lon="-1.51968">
        <ele>89</ele>
        <time>2022-08-07T07:42:43Z</time>
      </trkpt>
      <trkpt lat="47.14183" lon="-1.5196">
        <ele>89</ele>
        <time>2022-08-07T07:42:45Z</time>
      </trkpt>
      <trkpt lat="47.14193" lon="-1.51952">
        <ele>89</ele>
        <time>2022-08-07T07:42:47Z</time>
      </trkpt>
      <trkpt lat="47.14202" lon="-1.51943">
        <ele>89</ele>
        <time>2022-08-07T07:42:49Z</time>
      </trkpt>
      <trkpt lat="47.14211" lon="-1.51934">
        <ele>89</ele>
        <time>2022-08-07T07:42:51Z</time>
      </trkpt>
      <trkpt lat="47.14219" lon="-1.51925">
        <ele>90</ele>
        <time>2022-08-07T07:42:53Z</time>
      </trkpt>
      <trkpt lat="47.14228" lon="-1.51917">
        <ele>90</ele>
        <time>2022-08-07T07:42:55Z</time>
      </trkpt>
      <trkpt lat="47.14236" lon="-1.51909">
        <ele>90</ele>
        <time>2022-08-07T07:42:57Z</time>
      </trkpt>
      <trkpt lat="47.14245" lon="-1.519">
        <ele>90</ele>
        <time>2022-08-07T07:42:59Z</time>
      </trkpt>
      <trkpt lat="47.14253" lon="-1.51891">
        <ele>90</ele>
        <time>2022-08-07T07:43:01Z</time>
      </trkpt>
      <trkpt lat="47.14263" lon="-1.51882">
        <ele>90</ele>
        <time>2022-08-07T07:43:03Z</time>
      </trkpt>
      <trkpt lat="47.14272" lon="-1.51872">
        <ele>90</ele>
        <time>2022-08-07T07:43:05Z</time>
      </trkpt>
      <trkpt lat="47.14281" lon="-1.51863">
        <ele>90</ele>
        <time>2022-08-07T07:43:07Z</time>
      </trkpt>
      <trkpt lat="47.1429" lon="-1.51853">
        <ele>91</ele>
        <time>2022-08-07T07:43:09Z</time>
      </trkpt>
      <trkpt lat="47.14298" lon="-1.51845">
        <ele>91</ele>
        <time>2022-08-07T07:43:11Z</time>
      </trkpt>
      <trkpt lat="47.14307" lon="-1.51836">
        <ele>91</ele>
        <time>2022-08-07T07:43:13Z</time>
      </trkpt>
      <trkpt lat="47.14315" lon="-1.51826">
        <ele>90</ele>
        <time>2022-08-07T07:43:15Z</time>
      </trkpt>
      <trkpt lat="47.14324" lon="-1.51817">
        <ele>90</ele>
        <time>2022-08-07T07:43:17Z</time>
      </trkpt>
      <trkpt lat="47.14333" lon="-1.51809">
        <ele>90</ele>
        <time>2022-08-07T07:43:19Z</time>
      </trkpt>
      <trkpt lat="47.14342" lon="-1.518">
        <ele>90</ele>
        <time>2022-08-07T07:43:21Z</time>
      </trkpt>
      <trkpt lat="47.14351" lon="-1.5179">
        <ele>89</ele>
        <time>2022-08-07T07:43:23Z</time>
      </trkpt>
      <trkpt lat="47.1436" lon="-1.51781">
        <ele>89</ele>
        <time>2022-08-07T07:43:25Z</time>
      </trkpt>
      <trkpt lat="47.14369" lon="-1.51772">
        <ele>89</ele>
        <time>2022-08-07T07:43:27Z</time>
      </trkpt>
      <trkpt lat="47.14379" lon="-1.51763">
        <ele>89</ele>
        <time>2022-08-07T07:43:29Z</time>
      </trkpt>
      <trkpt lat="47.14388" lon="-1.51753">
        <ele>89</ele>
        <time>2022-08-07T07:43:31Z</time>
      </trkpt>
      <trkpt lat="47.14398" lon="-1.51744">
        <ele>89</ele>
        <time>2022-08-07T07:43:33Z</time>
      </trkpt>
      <trkpt lat="47.14407" lon="-1.51733">
        <ele>89</ele>
        <time>2022-08-07T07:43:35Z</time>
      </trkpt>
      <trkpt lat="47.14416" lon="-1.51724">
        <ele>88</ele>
        <time>2022-08-07T07:43:37Z</time>
      </trkpt>
      <trkpt lat="47.14426" lon="-1.51715">
        <ele>87</ele>
        <time>2022-08-07T07:43:39Z</time>
      </trkpt>
      <trkpt lat="47.14435" lon="-1.51705">
        <ele>88</ele>
        <time>2022-08-07T07:43:41Z</time>
      </trkpt>
      <trkpt lat="47.14445" lon="-1.51696">
        <ele>88</ele>
        <time>2022-08-07T07:43:43Z</time>
      </trkpt>
      <trkpt lat="47.14454" lon="-1.51686">
        <ele>88</ele>
        <time>2022-08-07T07:43:45Z</time>
      </trkpt>
      <trkpt lat="47.14463" lon="-1.51676">
        <ele>89</ele>
        <time>2022-08-07T07:43:47Z</time>
      </trkpt>
      <trkpt lat="47.14472" lon="-1.51667">
        <ele>88</ele>
        <time>2022-08-07T07:43:49Z</time>
      </trkpt>
      <trkpt lat="47.14481" lon="-1.51658">
        <ele>87</ele>
        <time>2022-08-07T07:43:51Z</time>
      </trkpt>
      <trkpt lat="47.14491" lon="-1.51648">
        <ele>86</ele>
        <time>2022-08-07T07:43:53Z</time>
      </trkpt>
      <trkpt lat="47.145" lon="-1.51639">
        <ele>86</ele>
        <time>2022-08-07T07:43:55Z</time>
      </trkpt>
      <trkpt lat="47.14509" lon="-1.51629">
        <ele>86</ele>
        <time>2022-08-07T07:43:57Z</time>
      </trkpt>
      <trkpt lat="47.14518" lon="-1.51618">
        <ele>86</ele>
        <time>2022-08-07T07:43:59Z</time>
      </trkpt>
      <trkpt lat="47.14526" lon="-1.51607">
        <ele>86</ele>
        <time>2022-08-07T07:44:01Z</time>
      </trkpt>
      <trkpt lat="47.14535" lon="-1.51597">
        <ele>86</ele>
        <time>2022-08-07T07:44:03Z</time>
      </trkpt>
      <trkpt lat="47.14543" lon="-1.51586">
        <ele>86</ele>
        <time>2022-08-07T07:44:05Z</time>
      </trkpt>
      <trkpt lat="47.14552" lon="-1.51576">
        <ele>86</ele>
        <time>2022-08-07T07:44:07Z</time>
      </trkpt>
      <trkpt lat="47.1456" lon="-1.51566">
        <ele>86</ele>
        <time>2022-08-07T07:44:09Z</time>
      </trkpt>
      <trkpt lat="47.14566" lon="-1.51555">
        <ele>86</ele>
        <time>2022-08-07T07:44:11Z</time>
      </trkpt>
      <trkpt lat="47.14573" lon="-1.51544">
        <ele>86</ele>
        <time>2022-08-07T07:44:13Z</time>
      </trkpt>
      <trkpt lat="47.14579" lon="-1.51533">
        <ele>86</ele>
        <time>2022-08-07T07:44:15Z</time>
      </trkpt>
      <trkpt lat="47.14585" lon="-1.51522">
        <ele>86</ele>
        <time>2022-08-07T07:44:17Z</time>
      </trkpt>
      <trkpt lat="47.1459" lon="-1.51511">
        <ele>86</ele>
        <time>2022-08-07T07:44:19Z</time>
      </trkpt>
      <trkpt lat="47.14597" lon="-1.51499">
        <ele>86</ele>
        <time>2022-08-07T07:44:21Z</time>
      </trkpt>
      <trkpt lat="47.14602" lon="-1.51487">
        <ele>87</ele>
        <time>2022-08-07T07:44:23Z</time>
      </trkpt>
      <trkpt lat="47.14608" lon="-1.51476">
        <ele>87</ele>
        <time>2022-08-07T07:44:25Z</time>
      </trkpt>
      <trkpt lat="47.14614" lon="-1.51465">
        <ele>87</ele>
        <time>2022-08-07T07:44:27Z</time>
      </trkpt>
      <trkpt lat="47.14619" lon="-1.51453">
        <ele>86</ele>
        <time>2022-08-07T07:44:29Z</time>
      </trkpt>
      <trkpt lat="47.14625" lon="-1.51442">
        <ele>86</ele>
        <time>2022-08-07T07:44:31Z</time>
      </trkpt>
      <trkpt lat="47.14631" lon="-1.51431">
        <ele>86</ele>
        <time>2022-08-07T07:44:33Z</time>
      </trkpt>
      <trkpt lat="47.14637" lon="-1.51419">
        <ele>86</ele>
        <time>2022-08-07T07:44:35Z</time>
      </trkpt>
      <trkpt lat="47.14643" lon="-1.51406">
        <ele>85</ele>
        <time>2022-08-07T07:44:37Z</time>
      </trkpt>
      <trkpt lat="47.14649" lon="-1.51393">
        <ele>85</ele>
        <time>2022-08-07T07:44:39Z</time>
      </trkpt>
      <trkpt lat="47.14656" lon="-1.51379">
        <ele>85</ele>
        <time>2022-08-07T07:44:41Z</time>
      </trkpt>
      <trkpt lat="47.14663" lon="-1.51366">
        <ele>84</ele>
        <time>2022-08-07T07:44:43Z</time>
      </trkpt>
      <trkpt lat="47.1467" lon="-1.51352">
        <ele>84</ele>
        <time>2022-08-07T07:44:45Z</time>
      </trkpt>
      <trkpt lat="47.14677" lon="-1.51338">
        <ele>84</ele>
        <time>2022-08-07T07:44:47Z</time>
      </trkpt>
      <trkpt lat="47.14684" lon="-1.51326">
        <ele>84</ele>
        <time>2022-08-07T07:44:49Z</time>
      </trkpt>
      <trkpt lat="47.14687" lon="-1.51312">
        <ele>83</ele>
        <time>2022-08-07T07:44:51Z</time>
      </trkpt>
      <trkpt lat="47.1468" lon="-1.51302">
        <ele>83</ele>
        <time>2022-08-07T07:44:53Z</time>
      </trkpt>
      <trkpt lat="47.1467" lon="-1.51299">
        <ele>82</ele>
        <time>2022-08-07T07:44:55Z</time>
      </trkpt>
      <trkpt lat="47.14659" lon="-1.51299">
        <ele>82</ele>
        <time>2022-08-07T07:44:57Z</time>
      </trkpt>
      <trkpt lat="47.14647" lon="-1.51302">
        <ele>82</ele>
        <time>2022-08-07T07:44:59Z</time>
      </trkpt>
      <trkpt lat="47.14636" lon="-1.51305">
        <ele>82</ele>
        <time>2022-08-07T07:45:01Z</time>
      </trkpt>
      <trkpt lat="47.14624" lon="-1.51308">
        <ele>82</ele>
        <time>2022-08-07T07:45:03Z</time>
      </trkpt>
      <trkpt lat="47.14611" lon="-1.51311">
        <ele>83</ele>
        <time>2022-08-07T07:45:05Z</time>
      </trkpt>
      <trkpt lat="47.14598" lon="-1.51313">
        <ele>83</ele>
        <time>2022-08-07T07:45:07Z</time>
      </trkpt>
      <trkpt lat="47.14585" lon="-1.51315">
        <ele>83</ele>
        <time>2022-08-07T07:45:09Z</time>
      </trkpt>
      <trkpt lat="47.14572" lon="-1.51316">
        <ele>83</ele>
        <time>2022-08-07T07:45:11Z</time>
      </trkpt>
      <trkpt lat="47.14559" lon="-1.51315">
        <ele>83</ele>
        <time>2022-08-07T07:45:13Z</time>
      </trkpt>
      <trkpt lat="47.14546" lon="-1.51314">
        <ele>83</ele>
        <time>2022-08-07T07:45:15Z</time>
      </trkpt>
      <trkpt lat="47.14533" lon="-1.51313">
        <ele>83</ele>
        <time>2022-08-07T07:45:17Z</time>
      </trkpt>
      <trkpt lat="47.1452" lon="-1.51312">
        <ele>83</ele>
        <time>2022-08-07T07:45:19Z</time>
      </trkpt>
      <trkpt lat="47.14507" lon="-1.51311">
        <ele>83</ele>
        <time>2022-08-07T07:45:21Z</time>
      </trkpt>
      <trkpt lat="47.14494" lon="-1.5131">
        <ele>83</ele>
        <time>2022-08-07T07:45:23Z</time>
      </trkpt>
      <trkpt lat="47.14482" lon="-1.51307">
        <ele>83</ele>
        <time>2022-08-07T07:45:25Z</time>
      </trkpt>
      <trkpt lat="47.14469" lon="-1.51303">
        <ele>83</ele>
        <time>2022-08-07T07:45:27Z</time>
      </trkpt>
      <trkpt lat="47.14458" lon="-1.51301">
        <ele>84</ele>
        <time>2022-08-07T07:45:29Z</time>
      </trkpt>
      <trkpt lat="47.14446" lon="-1.51297">
        <ele>84</ele>
        <time>2022-08-07T07:45:31Z</time>
      </trkpt>
      <trkpt lat="47.14436" lon="-1.51289">
        <ele>84</ele>
        <time>2022-08-07T07:45:33Z</time>
      </trkpt>
      <trkpt lat="47.14425" lon="-1.51279">
        <ele>84</ele>
        <time>2022-08-07T07:45:35Z</time>
      </trkpt>
      <trkpt lat="47.14416" lon="-1.51266">
        <ele>84</ele>
        <time>2022-08-07T07:45:37Z</time>
      </trkpt>
      <trkpt lat="47.14409" lon="-1.51251">
        <ele>84</ele>
        <time>2022-08-07T07:45:39Z</time>
      </trkpt>
      <trkpt lat="47.14403" lon="-1.51234">
        <ele>85</ele>
        <time>2022-08-07T07:45:41Z</time>
      </trkpt>
      <trkpt lat="47.14396" lon="-1.51217">
        <ele>85</ele>
        <time>2022-08-07T07:45:43Z</time>
      </trkpt>
      <trkpt lat="47.1439" lon="-1.51199">
        <ele>85</ele>
        <time>2022-08-07T07:45:45Z</time>
      </trkpt>
      <trkpt lat="47.14383" lon="-1.51181">
        <ele>85</ele>
        <time>2022-08-07T07:45:47Z</time>
      </trkpt>
      <trkpt lat="47.14377" lon="-1.51165">
        <ele>85</ele>
        <time>2022-08-07T07:45:49Z</time>
      </trkpt>
      <trkpt lat="47.14372" lon="-1.51148">
        <ele>86</ele>
        <time>2022-08-07T07:45:51Z</time>
      </trkpt>
      <trkpt lat="47.14366" lon="-1.51132">
        <ele>86</ele>
        <time>2022-08-07T07:45:53Z</time>
      </trkpt>
      <trkpt lat="47.14359" lon="-1.51115">
        <ele>86</ele>
        <time>2022-08-07T07:45:55Z</time>
      </trkpt>
      <trkpt lat="47.14352" lon="-1.51098">
        <ele>86</ele>
        <time>2022-08-07T07:45:57Z</time>
      </trkpt>
      <trkpt lat="47.14345" lon="-1.51081">
        <ele>86</ele>
        <time>2022-08-07T07:45:59Z</time>
      </trkpt>
      <trkpt lat="47.14338" lon="-1.51064">
        <ele>85</ele>
        <time>2022-08-07T07:46:01Z</time>
      </trkpt>
      <trkpt lat="47.14332" lon="-1.51047">
        <ele>85</ele>
        <time>2022-08-07T07:46:03Z</time>
      </trkpt>
      <trkpt lat="47.14325" lon="-1.5103">
        <ele>85</ele>
        <time>2022-08-07T07:46:05Z</time>
      </trkpt>
      <trkpt lat="47.1432" lon="-1.51014">
        <ele>85</ele>
        <time>2022-08-07T07:46:07Z</time>
      </trkpt>
      <trkpt lat="47.14314" lon="-1.50997">
        <ele>85</ele>
        <time>2022-08-07T07:46:09Z</time>
      </trkpt>
      <trkpt lat="47.14308" lon="-1.5098">
        <ele>85</ele>
        <time>2022-08-07T07:46:11Z</time>
      </trkpt>
      <trkpt lat="47.14303" lon="-1.50963">
        <ele>85</ele>
        <time>2022-08-07T07:46:13Z</time>
      </trkpt>
      <trkpt lat="47.14298" lon="-1.50945">
        <ele>85</ele>
        <time>2022-08-07T07:46:15Z</time>
      </trkpt>
      <trkpt lat="47.14293" lon="-1.50928">
        <ele>85</ele>
        <time>2022-08-07T07:46:17Z</time>
      </trkpt>
      <trkpt lat="47.14288" lon="-1.5091">
        <ele>84</ele>
        <time>2022-08-07T07:46:19Z</time>
      </trkpt>
      <trkpt lat="47.14283" lon="-1.50894">
        <ele>84</ele>
        <time>2022-08-07T07:46:21Z</time>
      </trkpt>
      <trkpt lat="47.14278" lon="-1.50878">
        <ele>84</ele>
        <time>2022-08-07T07:46:23Z</time>
      </trkpt>
      <trkpt lat="47.14274" lon="-1.50861">
        <ele>83</ele>
        <time>2022-08-07T07:46:25Z</time>
      </trkpt>
      <trkpt lat="47.14269" lon="-1.50844">
        <ele>83</ele>
        <time>2022-08-07T07:46:27Z</time>
      </trkpt>
      <trkpt lat="47.14265" lon="-1.50828">
        <ele>83</ele>
        <time>2022-08-07T07:46:29Z</time>
      </trkpt>
      <trkpt lat="47.14262" lon="-1.50813">
        <ele>83</ele>
        <time>2022-08-07T07:46:31Z</time>
      </trkpt>
      <trkpt lat="47.14257" lon="-1.50798">
        <ele>84</ele>
        <time>2022-08-07T07:46:33Z</time>
      </trkpt>
      <trkpt lat="47.14253" lon="-1.50782">
        <ele>84</ele>
        <time>2022-08-07T07:46:35Z</time>
      </trkpt>
      <trkpt lat="47.14249" lon="-1.50766">
        <ele>84</ele>
        <time>2022-08-07T07:46:37Z</time>
      </trkpt>
      <trkpt lat="47.14244" lon="-1.50749">
        <ele>84</ele>
        <time>2022-08-07T07:46:39Z</time>
      </trkpt>
      <trkpt lat="47.1424" lon="-1.50732">
        <ele>84</ele>
        <time>2022-08-07T07:46:41Z</time>
      </trkpt>
      <trkpt lat="47.14236" lon="-1.50716">
        <ele>85</ele>
        <time>2022-08-07T07:46:43Z</time>
      </trkpt>
      <trkpt lat="47.14233" lon="-1.50699">
        <ele>85</ele>
        <time>2022-08-07T07:46:45Z</time>
      </trkpt>
      <trkpt lat="47.14229" lon="-1.50683">
        <ele>85</ele>
        <time>2022-08-07T07:46:47Z</time>
      </trkpt>
      <trkpt lat="47.14227" lon="-1.50666">
        <ele>85</ele>
        <time>2022-08-07T07:46:49Z</time>
      </trkpt>
      <trkpt lat="47.14223" lon="-1.50649">
        <ele>85</ele>
        <time>2022-08-07T07:46:51Z</time>
      </trkpt>
      <trkpt lat="47.14219" lon="-1.50632">
        <ele>85</ele>
        <time>2022-08-07T07:46:53Z</time>
      </trkpt>
      <trkpt lat="47.14216" lon="-1.50615">
        <ele>85</ele>
        <time>2022-08-07T07:46:55Z</time>
      </trkpt>
      <trkpt lat="47.14213" lon="-1.50598">
        <ele>85</ele>
        <time>2022-08-07T07:46:57Z</time>
      </trkpt>
      <trkpt lat="47.14209" lon="-1.50582">
        <ele>85</ele>
        <time>2022-08-07T07:46:59Z</time>
      </trkpt>
      <trkpt lat="47.14206" lon="-1.50566">
        <ele>85</ele>
        <time>2022-08-07T07:47:01Z</time>
      </trkpt>
      <trkpt lat="47.14203" lon="-1.50549">
        <ele>85</ele>
        <time>2022-08-07T07:47:03Z</time>
      </trkpt>
      <trkpt lat="47.142" lon="-1.50533">
        <ele>85</ele>
        <time>2022-08-07T07:47:05Z</time>
      </trkpt>
      <trkpt lat="47.14196" lon="-1.50517">
        <ele>85</ele>
        <time>2022-08-07T07:47:07Z</time>
      </trkpt>
      <trkpt lat="47.14193" lon="-1.505">
        <ele>86</ele>
        <time>2022-08-07T07:47:09Z</time>
      </trkpt>
      <trkpt lat="47.1419" lon="-1.50484">
        <ele>86</ele>
        <time>2022-08-07T07:47:11Z</time>
      </trkpt>
      <trkpt lat="47.14187" lon="-1.50468">
        <ele>86</ele>
        <time>2022-08-07T07:47:13Z</time>
      </trkpt>
      <trkpt lat="47.14184" lon="-1.50451">
        <ele>86</ele>
        <time>2022-08-07T07:47:15Z</time>
      </trkpt>
      <trkpt lat="47.1418" lon="-1.50434">
        <ele>86</ele>
        <time>2022-08-07T07:47:17Z</time>
      </trkpt>
      <trkpt lat="47.14177" lon="-1.50418">
        <ele>86</ele>
        <time>2022-08-07T07:47:19Z</time>
      </trkpt>
      <trkpt lat="47.14173" lon="-1.50402">
        <ele>86</ele>
        <time>2022-08-07T07:47:21Z</time>
      </trkpt>
      <trkpt lat="47.1417" lon="-1.50386">
        <ele>87</ele>
        <time>2022-08-07T07:47:23Z</time>
      </trkpt>
      <trkpt lat="47.14167" lon="-1.50369">
        <ele>87</ele>
        <time>2022-08-07T07:47:25Z</time>
      </trkpt>
      <trkpt lat="47.14165" lon="-1.50353">
        <ele>87</ele>
        <time>2022-08-07T07:47:27Z</time>
      </trkpt>
      <trkpt lat="47.14163" lon="-1.50335">
        <ele>88</ele>
        <time>2022-08-07T07:47:29Z</time>
      </trkpt>
      <trkpt lat="47.14162" lon="-1.50318">
        <ele>88</ele>
        <time>2022-08-07T07:47:31Z</time>
      </trkpt>
      <trkpt lat="47.14161" lon="-1.50301">
        <ele>88</ele>
        <time>2022-08-07T07:47:33Z</time>
      </trkpt>
      <trkpt lat="47.1416" lon="-1.50284">
        <ele>88</ele>
        <time>2022-08-07T07:47:35Z</time>
      </trkpt>
      <trkpt lat="47.14159" lon="-1.50267">
        <ele>88</ele>
        <time>2022-08-07T07:47:37Z</time>
      </trkpt>
      <trkpt lat="47.14158" lon="-1.5025">
        <ele>88</ele>
        <time>2022-08-07T07:47:39Z</time>
      </trkpt>
      <trkpt lat="47.14157" lon="-1.50233">
        <ele>88</ele>
        <time>2022-08-07T07:47:41Z</time>
      </trkpt>
      <trkpt lat="47.14156" lon="-1.50215">
        <ele>87</ele>
        <time>2022-08-07T07:47:43Z</time>
      </trkpt>
      <trkpt lat="47.14154" lon="-1.50197">
        <ele>87</ele>
        <time>2022-08-07T07:47:45Z</time>
      </trkpt>
      <trkpt lat="47.14152" lon="-1.50179">
        <ele>87</ele>
        <time>2022-08-07T07:47:47Z</time>
      </trkpt>
      <trkpt lat="47.14149" lon="-1.50162">
        <ele>87</ele>
        <time>2022-08-07T07:47:49Z</time>
      </trkpt>
      <trkpt lat="47.14146" lon="-1.50145">
        <ele>87</ele>
        <time>2022-08-07T07:47:51Z</time>
      </trkpt>
      <trkpt lat="47.14143" lon="-1.50128">
        <ele>87</ele>
        <time>2022-08-07T07:47:53Z</time>
      </trkpt>
      <trkpt lat="47.1414" lon="-1.50111">
        <ele>87</ele>
        <time>2022-08-07T07:47:55Z</time>
      </trkpt>
      <trkpt lat="47.14137" lon="-1.50093">
        <ele>87</ele>
        <time>2022-08-07T07:47:57Z</time>
      </trkpt>
      <trkpt lat="47.14134" lon="-1.50076">
        <ele>87</ele>
        <time>2022-08-07T07:47:59Z</time>
      </trkpt>
      <trkpt lat="47.14131" lon="-1.50059">
        <ele>87</ele>
        <time>2022-08-07T07:48:01Z</time>
      </trkpt>
      <trkpt lat="47.14128" lon="-1.50042">
        <ele>87</ele>
        <time>2022-08-07T07:48:03Z</time>
      </trkpt>
      <trkpt lat="47.14126" lon="-1.50025">
        <ele>87</ele>
        <time>2022-08-07T07:48:05Z</time>
      </trkpt>
      <trkpt lat="47.14123" lon="-1.50009">
        <ele>87</ele>
        <time>2022-08-07T07:48:07Z</time>
      </trkpt>
      <trkpt lat="47.1412" lon="-1.49992">
        <ele>87</ele>
        <time>2022-08-07T07:48:09Z</time>
      </trkpt>
      <trkpt lat="47.14117" lon="-1.49975">
        <ele>87</ele>
        <time>2022-08-07T07:48:11Z</time>
      </trkpt>
      <trkpt lat="47.14113" lon="-1.49951">
        <ele>87</ele>
        <time>2022-08-07T07:48:14Z</time>
      </trkpt>
      <trkpt lat="47.1411" lon="-1.49935">
        <ele>88</ele>
        <time>2022-08-07T07:48:16Z</time>
      </trkpt>
      <trkpt lat="47.14107" lon="-1.49918">
        <ele>88</ele>
        <time>2022-08-07T07:48:18Z</time>
      </trkpt>
      <trkpt lat="47.14104" lon="-1.49901">
        <ele>88</ele>
        <time>2022-08-07T07:48:20Z</time>
      </trkpt>
      <trkpt lat="47.141" lon="-1.49877">
        <ele>88</ele>
        <time>2022-08-07T07:48:23Z</time>
      </trkpt>
      <trkpt lat="47.14098" lon="-1.4986">
        <ele>88</ele>
        <time>2022-08-07T07:48:25Z</time>
      </trkpt>
      <trkpt lat="47.14096" lon="-1.49844">
        <ele>88</ele>
        <time>2022-08-07T07:48:27Z</time>
      </trkpt>
      <trkpt lat="47.14095" lon="-1.49827">
        <ele>88</ele>
        <time>2022-08-07T07:48:29Z</time>
      </trkpt>
      <trkpt lat="47.14094" lon="-1.49802">
        <ele>88</ele>
        <time>2022-08-07T07:48:32Z</time>
      </trkpt>
      <trkpt lat="47.14094" lon="-1.49786">
        <ele>88</ele>
        <time>2022-08-07T07:48:34Z</time>
      </trkpt>
      <trkpt lat="47.14094" lon="-1.4977">
        <ele>88</ele>
        <time>2022-08-07T07:48:36Z</time>
      </trkpt>
      <trkpt lat="47.14095" lon="-1.49746">
        <ele>89</ele>
        <time>2022-08-07T07:48:39Z</time>
      </trkpt>
      <trkpt lat="47.14095" lon="-1.4973">
        <ele>89</ele>
        <time>2022-08-07T07:48:41Z</time>
      </trkpt>
      <trkpt lat="47.14095" lon="-1.49707">
        <ele>89</ele>
        <time>2022-08-07T07:48:44Z</time>
      </trkpt>
      <trkpt lat="47.14095" lon="-1.49692">
        <ele>90</ele>
        <time>2022-08-07T07:48:46Z</time>
      </trkpt>
      <trkpt lat="47.14095" lon="-1.49676">
        <ele>90</ele>
        <time>2022-08-07T07:48:48Z</time>
      </trkpt>
      <trkpt lat="47.14095" lon="-1.49661">
        <ele>91</ele>
        <time>2022-08-07T07:48:50Z</time>
      </trkpt>
      <trkpt lat="47.14096" lon="-1.49644">
        <ele>91</ele>
        <time>2022-08-07T07:48:52Z</time>
      </trkpt>
      <trkpt lat="47.14095" lon="-1.49629">
        <ele>92</ele>
        <time>2022-08-07T07:48:54Z</time>
      </trkpt>
      <trkpt lat="47.14095" lon="-1.49613">
        <ele>92</ele>
        <time>2022-08-07T07:48:56Z</time>
      </trkpt>
      <trkpt lat="47.14095" lon="-1.49597">
        <ele>92</ele>
        <time>2022-08-07T07:48:58Z</time>
      </trkpt>
      <trkpt lat="47.14095" lon="-1.49581">
        <ele>93</ele>
        <time>2022-08-07T07:49:00Z</time>
      </trkpt>
      <trkpt lat="47.14096" lon="-1.49566">
        <ele>93</ele>
        <time>2022-08-07T07:49:02Z</time>
      </trkpt>
      <trkpt lat="47.14096" lon="-1.4955">
        <ele>93</ele>
        <time>2022-08-07T07:49:04Z</time>
      </trkpt>
      <trkpt lat="47.14096" lon="-1.49534">
        <ele>94</ele>
        <time>2022-08-07T07:49:06Z</time>
      </trkpt>
      <trkpt lat="47.14095" lon="-1.49519">
        <ele>94</ele>
        <time>2022-08-07T07:49:08Z</time>
      </trkpt>
      <trkpt lat="47.14096" lon="-1.49504">
        <ele>94</ele>
        <time>2022-08-07T07:49:10Z</time>
      </trkpt>
      <trkpt lat="47.14096" lon="-1.49489">
        <ele>94</ele>
        <time>2022-08-07T07:49:12Z</time>
      </trkpt>
      <trkpt lat="47.14096" lon="-1.49474">
        <ele>94</ele>
        <time>2022-08-07T07:49:14Z</time>
      </trkpt>
      <trkpt lat="47.14096" lon="-1.49459">
        <ele>94</ele>
        <time>2022-08-07T07:49:16Z</time>
      </trkpt>
      <trkpt lat="47.14096" lon="-1.49443">
        <ele>94</ele>
        <time>2022-08-07T07:49:18Z</time>
      </trkpt>
      <trkpt lat="47.14096" lon="-1.49427">
        <ele>95</ele>
        <time>2022-08-07T07:49:20Z</time>
      </trkpt>
      <trkpt lat="47.14096" lon="-1.49411">
        <ele>95</ele>
        <time>2022-08-07T07:49:22Z</time>
      </trkpt>
      <trkpt lat="47.14096" lon="-1.49395">
        <ele>95</ele>
        <time>2022-08-07T07:49:24Z</time>
      </trkpt>
      <trkpt lat="47.14096" lon="-1.49379">
        <ele>95</ele>
        <time>2022-08-07T07:49:26Z</time>
      </trkpt>
      <trkpt lat="47.14096" lon="-1.49363">
        <ele>95</ele>
        <time>2022-08-07T07:49:28Z</time>
      </trkpt>
      <trkpt lat="47.14096" lon="-1.49346">
        <ele>95</ele>
        <time>2022-08-07T07:49:30Z</time>
      </trkpt>
      <trkpt lat="47.14096" lon="-1.49329">
        <ele>94</ele>
        <time>2022-08-07T07:49:32Z</time>
      </trkpt>
      <trkpt lat="47.14096" lon="-1.49312">
        <ele>94</ele>
        <time>2022-08-07T07:49:34Z</time>
      </trkpt>
      <trkpt lat="47.14096" lon="-1.49294">
        <ele>94</ele>
        <time>2022-08-07T07:49:36Z</time>
      </trkpt>
      <trkpt lat="47.14097" lon="-1.49277">
        <ele>94</ele>
        <time>2022-08-07T07:49:38Z</time>
      </trkpt>
      <trkpt lat="47.14097" lon="-1.49261">
        <ele>94</ele>
        <time>2022-08-07T07:49:40Z</time>
      </trkpt>
      <trkpt lat="47.14097" lon="-1.49244">
        <ele>94</ele>
        <time>2022-08-07T07:49:42Z</time>
      </trkpt>
      <trkpt lat="47.14097" lon="-1.49228">
        <ele>94</ele>
        <time>2022-08-07T07:49:44Z</time>
      </trkpt>
      <trkpt lat="47.14097" lon="-1.4921">
        <ele>94</ele>
        <time>2022-08-07T07:49:46Z</time>
      </trkpt>
      <trkpt lat="47.14097" lon="-1.49194">
        <ele>94</ele>
        <time>2022-08-07T07:49:48Z</time>
      </trkpt>
      <trkpt lat="47.14098" lon="-1.49176">
        <ele>94</ele>
        <time>2022-08-07T07:49:50Z</time>
      </trkpt>
      <trkpt lat="47.14097" lon="-1.49159">
        <ele>95</ele>
        <time>2022-08-07T07:49:52Z</time>
      </trkpt>
      <trkpt lat="47.14097" lon="-1.49142">
        <ele>95</ele>
        <time>2022-08-07T07:49:54Z</time>
      </trkpt>
      <trkpt lat="47.14097" lon="-1.49126">
        <ele>95</ele>
        <time>2022-08-07T07:49:56Z</time>
      </trkpt>
      <trkpt lat="47.14097" lon="-1.49109">
        <ele>94</ele>
        <time>2022-08-07T07:49:58Z</time>
      </trkpt>
      <trkpt lat="47.14097" lon="-1.49093">
        <ele>94</ele>
        <time>2022-08-07T07:50:00Z</time>
      </trkpt>
      <trkpt lat="47.14097" lon="-1.49077">
        <ele>94</ele>
        <time>2022-08-07T07:50:02Z</time>
      </trkpt>
      <trkpt lat="47.14097" lon="-1.49061">
        <ele>94</ele>
        <time>2022-08-07T07:50:04Z</time>
      </trkpt>
      <trkpt lat="47.14096" lon="-1.49045">
        <ele>94</ele>
        <time>2022-08-07T07:50:06Z</time>
      </trkpt>
      <trkpt lat="47.14094" lon="-1.49029">
        <ele>94</ele>
        <time>2022-08-07T07:50:08Z</time>
      </trkpt>
      <trkpt lat="47.14091" lon="-1.49013">
        <ele>94</ele>
        <time>2022-08-07T07:50:10Z</time>
      </trkpt>
      <trkpt lat="47.14088" lon="-1.48998">
        <ele>94</ele>
        <time>2022-08-07T07:50:12Z</time>
      </trkpt>
      <trkpt lat="47.14085" lon="-1.48983">
        <ele>95</ele>
        <time>2022-08-07T07:50:14Z</time>
      </trkpt>
      <trkpt lat="47.14082" lon="-1.48968">
        <ele>95</ele>
        <time>2022-08-07T07:50:16Z</time>
      </trkpt>
      <trkpt lat="47.14079" lon="-1.48953">
        <ele>95</ele>
        <time>2022-08-07T07:50:18Z</time>
      </trkpt>
      <trkpt lat="47.14075" lon="-1.48938">
        <ele>95</ele>
        <time>2022-08-07T07:50:20Z</time>
      </trkpt>
      <trkpt lat="47.14072" lon="-1.48922">
        <ele>95</ele>
        <time>2022-08-07T07:50:22Z</time>
      </trkpt>
      <trkpt lat="47.14069" lon="-1.48907">
        <ele>95</ele>
        <time>2022-08-07T07:50:24Z</time>
      </trkpt>
      <trkpt lat="47.14066" lon="-1.48893">
        <ele>95</ele>
        <time>2022-08-07T07:50:26Z</time>
      </trkpt>
      <trkpt lat="47.14063" lon="-1.48879">
        <ele>96</ele>
        <time>2022-08-07T07:50:28Z</time>
      </trkpt>
      <trkpt lat="47.1406" lon="-1.48865">
        <ele>96</ele>
        <time>2022-08-07T07:50:30Z</time>
      </trkpt>
      <trkpt lat="47.14057" lon="-1.48851">
        <ele>96</ele>
        <time>2022-08-07T07:50:32Z</time>
      </trkpt>
      <trkpt lat="47.14053" lon="-1.48836">
        <ele>96</ele>
        <time>2022-08-07T07:50:34Z</time>
      </trkpt>
      <trkpt lat="47.14051" lon="-1.48821">
        <ele>96</ele>
        <time>2022-08-07T07:50:36Z</time>
      </trkpt>
      <trkpt lat="47.14048" lon="-1.48806">
        <ele>96</ele>
        <time>2022-08-07T07:50:38Z</time>
      </trkpt>
      <trkpt lat="47.14045" lon="-1.48791">
        <ele>97</ele>
        <time>2022-08-07T07:50:40Z</time>
      </trkpt>
      <trkpt lat="47.14043" lon="-1.48775">
        <ele>97</ele>
        <time>2022-08-07T07:50:42Z</time>
      </trkpt>
      <trkpt lat="47.1404" lon="-1.4876">
        <ele>97</ele>
        <time>2022-08-07T07:50:44Z</time>
      </trkpt>
      <trkpt lat="47.14039" lon="-1.48744">
        <ele>97</ele>
        <time>2022-08-07T07:50:46Z</time>
      </trkpt>
      <trkpt lat="47.14036" lon="-1.48728">
        <ele>98</ele>
        <time>2022-08-07T07:50:48Z</time>
      </trkpt>
      <trkpt lat="47.14033" lon="-1.48713">
        <ele>98</ele>
        <time>2022-08-07T07:50:50Z</time>
      </trkpt>
      <trkpt lat="47.14031" lon="-1.48698">
        <ele>98</ele>
        <time>2022-08-07T07:50:52Z</time>
      </trkpt>
      <trkpt lat="47.1403" lon="-1.48682">
        <ele>99</ele>
        <time>2022-08-07T07:50:54Z</time>
      </trkpt>
      <trkpt lat="47.14028" lon="-1.48667">
        <ele>99</ele>
        <time>2022-08-07T07:50:56Z</time>
      </trkpt>
      <trkpt lat="47.14026" lon="-1.48651">
        <ele>99</ele>
        <time>2022-08-07T07:50:58Z</time>
      </trkpt>
      <trkpt lat="47.14023" lon="-1.48636">
        <ele>100</ele>
        <time>2022-08-07T07:51:00Z</time>
      </trkpt>
      <trkpt lat="47.1402" lon="-1.4862">
        <ele>99</ele>
        <time>2022-08-07T07:51:02Z</time>
      </trkpt>
      <trkpt lat="47.14018" lon="-1.48604">
        <ele>99</ele>
        <time>2022-08-07T07:51:04Z</time>
      </trkpt>
      <trkpt lat="47.14015" lon="-1.48588">
        <ele>99</ele>
        <time>2022-08-07T07:51:06Z</time>
      </trkpt>
      <trkpt lat="47.14012" lon="-1.48572">
        <ele>99</ele>
        <time>2022-08-07T07:51:08Z</time>
      </trkpt>
      <trkpt lat="47.14009" lon="-1.48557">
        <ele>98</ele>
        <time>2022-08-07T07:51:10Z</time>
      </trkpt>
      <trkpt lat="47.14006" lon="-1.4854">
        <ele>98</ele>
        <time>2022-08-07T07:51:12Z</time>
      </trkpt>
      <trkpt lat="47.14004" lon="-1.48524">
        <ele>98</ele>
        <time>2022-08-07T07:51:14Z</time>
      </trkpt>
      <trkpt lat="47.14002" lon="-1.48508">
        <ele>98</ele>
        <time>2022-08-07T07:51:16Z</time>
      </trkpt>
      <trkpt lat="47.13999" lon="-1.48493">
        <ele>98</ele>
        <time>2022-08-07T07:51:18Z</time>
      </trkpt>
      <trkpt lat="47.13997" lon="-1.48478">
        <ele>98</ele>
        <time>2022-08-07T07:51:20Z</time>
      </trkpt>
      <trkpt lat="47.13995" lon="-1.48463">
        <ele>98</ele>
        <time>2022-08-07T07:51:22Z</time>
      </trkpt>
      <trkpt lat="47.13993" lon="-1.48446">
        <ele>98</ele>
        <time>2022-08-07T07:51:24Z</time>
      </trkpt>
      <trkpt lat="47.13992" lon="-1.48431">
        <ele>98</ele>
        <time>2022-08-07T07:51:26Z</time>
      </trkpt>
      <trkpt lat="47.13991" lon="-1.48415">
        <ele>98</ele>
        <time>2022-08-07T07:51:28Z</time>
      </trkpt>
      <trkpt lat="47.1399" lon="-1.48398">
        <ele>98</ele>
        <time>2022-08-07T07:51:30Z</time>
      </trkpt>
      <trkpt lat="47.1399" lon="-1.48382">
        <ele>98</ele>
        <time>2022-08-07T07:51:32Z</time>
      </trkpt>
      <trkpt lat="47.13989" lon="-1.48365">
        <ele>98</ele>
        <time>2022-08-07T07:51:34Z</time>
      </trkpt>
      <trkpt lat="47.13989" lon="-1.48349">
        <ele>98</ele>
        <time>2022-08-07T07:51:36Z</time>
      </trkpt>
      <trkpt lat="47.13988" lon="-1.48333">
        <ele>98</ele>
        <time>2022-08-07T07:51:38Z</time>
      </trkpt>
      <trkpt lat="47.13988" lon="-1.48316">
        <ele>98</ele>
        <time>2022-08-07T07:51:40Z</time>
      </trkpt>
      <trkpt lat="47.13987" lon="-1.483">
        <ele>98</ele>
        <time>2022-08-07T07:51:42Z</time>
      </trkpt>
      <trkpt lat="47.13987" lon="-1.48283">
        <ele>97</ele>
        <time>2022-08-07T07:51:44Z</time>
      </trkpt>
      <trkpt lat="47.13986" lon="-1.48266">
        <ele>98</ele>
        <time>2022-08-07T07:51:46Z</time>
      </trkpt>
      <trkpt lat="47.13986" lon="-1.48249">
        <ele>98</ele>
        <time>2022-08-07T07:51:48Z</time>
      </trkpt>
      <trkpt lat="47.13985" lon="-1.48233">
        <ele>98</ele>
        <time>2022-08-07T07:51:50Z</time>
      </trkpt>
      <trkpt lat="47.13984" lon="-1.48216">
        <ele>98</ele>
        <time>2022-08-07T07:51:52Z</time>
      </trkpt>
      <trkpt lat="47.13984" lon="-1.48199">
        <ele>99</ele>
        <time>2022-08-07T07:51:54Z</time>
      </trkpt>
      <trkpt lat="47.13983" lon="-1.48182">
        <ele>99</ele>
        <time>2022-08-07T07:51:56Z</time>
      </trkpt>
      <trkpt lat="47.13983" lon="-1.48165">
        <ele>99</ele>
        <time>2022-08-07T07:51:58Z</time>
      </trkpt>
      <trkpt lat="47.13982" lon="-1.48148">
        <ele>99</ele>
        <time>2022-08-07T07:52:00Z</time>
      </trkpt>
      <trkpt lat="47.13982" lon="-1.48132">
        <ele>99</ele>
        <time>2022-08-07T07:52:02Z</time>
      </trkpt>
      <trkpt lat="47.13981" lon="-1.48116">
        <ele>99</ele>
        <time>2022-08-07T07:52:04Z</time>
      </trkpt>
      <trkpt lat="47.13981" lon="-1.481">
        <ele>99</ele>
        <time>2022-08-07T07:52:06Z</time>
      </trkpt>
      <trkpt lat="47.1398" lon="-1.48083">
        <ele>99</ele>
        <time>2022-08-07T07:52:08Z</time>
      </trkpt>
      <trkpt lat="47.13979" lon="-1.48067">
        <ele>99</ele>
        <time>2022-08-07T07:52:10Z</time>
      </trkpt>
      <trkpt lat="47.13979" lon="-1.4805">
        <ele>99</ele>
        <time>2022-08-07T07:52:12Z</time>
      </trkpt>
      <trkpt lat="47.13979" lon="-1.48033">
        <ele>99</ele>
        <time>2022-08-07T07:52:14Z</time>
      </trkpt>
      <trkpt lat="47.13978" lon="-1.48017">
        <ele>99</ele>
        <time>2022-08-07T07:52:16Z</time>
      </trkpt>
      <trkpt lat="47.13977" lon="-1.48001">
        <ele>99</ele>
        <time>2022-08-07T07:52:18Z</time>
      </trkpt>
      <trkpt lat="47.13976" lon="-1.47985">
        <ele>99</ele>
        <time>2022-08-07T07:52:20Z</time>
      </trkpt>
      <trkpt lat="47.13974" lon="-1.47969">
        <ele>99</ele>
        <time>2022-08-07T07:52:22Z</time>
      </trkpt>
      <trkpt lat="47.13972" lon="-1.47953">
        <ele>99</ele>
        <time>2022-08-07T07:52:24Z</time>
      </trkpt>
      <trkpt lat="47.13969" lon="-1.47937">
        <ele>99</ele>
        <time>2022-08-07T07:52:26Z</time>
      </trkpt>
      <trkpt lat="47.13966" lon="-1.47921">
        <ele>99</ele>
        <time>2022-08-07T07:52:28Z</time>
      </trkpt>
      <trkpt lat="47.13963" lon="-1.47906">
        <ele>99</ele>
        <time>2022-08-07T07:52:30Z</time>
      </trkpt>
      <trkpt lat="47.13959" lon="-1.4789">
        <ele>99</ele>
        <time>2022-08-07T07:52:32Z</time>
      </trkpt>
      <trkpt lat="47.13955" lon="-1.47875">
        <ele>99</ele>
        <time>2022-08-07T07:52:34Z</time>
      </trkpt>
      <trkpt lat="47.13951" lon="-1.4786">
        <ele>99</ele>
        <time>2022-08-07T07:52:36Z</time>
      </trkpt>
      <trkpt lat="47.13947" lon="-1.47845">
        <ele>99</ele>
        <time>2022-08-07T07:52:38Z</time>
      </trkpt>
      <trkpt lat="47.13943" lon="-1.47831">
        <ele>100</ele>
        <time>2022-08-07T07:52:40Z</time>
      </trkpt>
      <trkpt lat="47.13939" lon="-1.47817">
        <ele>100</ele>
        <time>2022-08-07T07:52:42Z</time>
      </trkpt>
      <trkpt lat="47.13935" lon="-1.47801">
        <ele>100</ele>
        <time>2022-08-07T07:52:44Z</time>
      </trkpt>
      <trkpt lat="47.13931" lon="-1.47786">
        <ele>100</ele>
        <time>2022-08-07T07:52:46Z</time>
      </trkpt>
      <trkpt lat="47.13927" lon="-1.47771">
        <ele>100</ele>
        <time>2022-08-07T07:52:48Z</time>
      </trkpt>
      <trkpt lat="47.13922" lon="-1.47757">
        <ele>100</ele>
        <time>2022-08-07T07:52:50Z</time>
      </trkpt>
      <trkpt lat="47.13919" lon="-1.47743">
        <ele>100</ele>
        <time>2022-08-07T07:52:52Z</time>
      </trkpt>
      <trkpt lat="47.13914" lon="-1.47729">
        <ele>100</ele>
        <time>2022-08-07T07:52:54Z</time>
      </trkpt>
      <trkpt lat="47.13911" lon="-1.47714">
        <ele>100</ele>
        <time>2022-08-07T07:52:56Z</time>
      </trkpt>
      <trkpt lat="47.13907" lon="-1.477">
        <ele>100</ele>
        <time>2022-08-07T07:52:58Z</time>
      </trkpt>
      <trkpt lat="47.13903" lon="-1.47685">
        <ele>100</ele>
        <time>2022-08-07T07:53:00Z</time>
      </trkpt>
      <trkpt lat="47.13899" lon="-1.47671">
        <ele>100</ele>
        <time>2022-08-07T07:53:02Z</time>
      </trkpt>
      <trkpt lat="47.13895" lon="-1.47656">
        <ele>100</ele>
        <time>2022-08-07T07:53:04Z</time>
      </trkpt>
      <trkpt lat="47.13891" lon="-1.47641">
        <ele>100</ele>
        <time>2022-08-07T07:53:06Z</time>
      </trkpt>
      <trkpt lat="47.13887" lon="-1.47626">
        <ele>100</ele>
        <time>2022-08-07T07:53:08Z</time>
      </trkpt>
      <trkpt lat="47.13883" lon="-1.47611">
        <ele>100</ele>
        <time>2022-08-07T07:53:10Z</time>
      </trkpt>
      <trkpt lat="47.13879" lon="-1.47596">
        <ele>101</ele>
        <time>2022-08-07T07:53:12Z</time>
      </trkpt>
      <trkpt lat="47.13874" lon="-1.4758">
        <ele>101</ele>
        <time>2022-08-07T07:53:14Z</time>
      </trkpt>
      <trkpt lat="47.1387" lon="-1.47565">
        <ele>101</ele>
        <time>2022-08-07T07:53:16Z</time>
      </trkpt>
      <trkpt lat="47.13867" lon="-1.47551">
        <ele>101</ele>
        <time>2022-08-07T07:53:18Z</time>
      </trkpt>
      <trkpt lat="47.13863" lon="-1.47536">
        <ele>101</ele>
        <time>2022-08-07T07:53:20Z</time>
      </trkpt>
      <trkpt lat="47.13859" lon="-1.47522">
        <ele>101</ele>
        <time>2022-08-07T07:53:22Z</time>
      </trkpt>
      <trkpt lat="47.13855" lon="-1.47507">
        <ele>101</ele>
        <time>2022-08-07T07:53:24Z</time>
      </trkpt>
      <trkpt lat="47.13851" lon="-1.47492">
        <ele>101</ele>
        <time>2022-08-07T07:53:26Z</time>
      </trkpt>
      <trkpt lat="47.13847" lon="-1.47477">
        <ele>101</ele>
        <time>2022-08-07T07:53:28Z</time>
      </trkpt>
      <trkpt lat="47.13843" lon="-1.47462">
        <ele>100</ele>
        <time>2022-08-07T07:53:30Z</time>
      </trkpt>
      <trkpt lat="47.13838" lon="-1.47446">
        <ele>100</ele>
        <time>2022-08-07T07:53:32Z</time>
      </trkpt>
      <trkpt lat="47.13834" lon="-1.47432">
        <ele>100</ele>
        <time>2022-08-07T07:53:34Z</time>
      </trkpt>
      <trkpt lat="47.1383" lon="-1.47417">
        <ele>99</ele>
        <time>2022-08-07T07:53:36Z</time>
      </trkpt>
      <trkpt lat="47.13826" lon="-1.47401">
        <ele>99</ele>
        <time>2022-08-07T07:53:38Z</time>
      </trkpt>
      <trkpt lat="47.13822" lon="-1.47386">
        <ele>99</ele>
        <time>2022-08-07T07:53:40Z</time>
      </trkpt>
      <trkpt lat="47.13817" lon="-1.47371">
        <ele>99</ele>
        <time>2022-08-07T07:53:42Z</time>
      </trkpt>
      <trkpt lat="47.13813" lon="-1.47356">
        <ele>100</ele>
        <time>2022-08-07T07:53:44Z</time>
      </trkpt>
      <trkpt lat="47.13809" lon="-1.47342">
        <ele>100</ele>
        <time>2022-08-07T07:53:46Z</time>
      </trkpt>
      <trkpt lat="47.13805" lon="-1.47327">
        <ele>100</ele>
        <time>2022-08-07T07:53:48Z</time>
      </trkpt>
      <trkpt lat="47.13801" lon="-1.47311">
        <ele>100</ele>
        <time>2022-08-07T07:53:50Z</time>
      </trkpt>
      <trkpt lat="47.13797" lon="-1.47295">
        <ele>100</ele>
        <time>2022-08-07T07:53:52Z</time>
      </trkpt>
      <trkpt lat="47.13792" lon="-1.4728">
        <ele>100</ele>
        <time>2022-08-07T07:53:54Z</time>
      </trkpt>
      <trkpt lat="47.13788" lon="-1.47265">
        <ele>100</ele>
        <time>2022-08-07T07:53:56Z</time>
      </trkpt>
      <trkpt lat="47.13785" lon="-1.47249">
        <ele>100</ele>
        <time>2022-08-07T07:53:58Z</time>
      </trkpt>
      <trkpt lat="47.13781" lon="-1.47234">
        <ele>100</ele>
        <time>2022-08-07T07:54:00Z</time>
      </trkpt>
      <trkpt lat="47.13778" lon="-1.47218">
        <ele>100</ele>
        <time>2022-08-07T07:54:02Z</time>
      </trkpt>
      <trkpt lat="47.13776" lon="-1.47201">
        <ele>100</ele>
        <time>2022-08-07T07:54:04Z</time>
      </trkpt>
      <trkpt lat="47.13775" lon="-1.47185">
        <ele>100</ele>
        <time>2022-08-07T07:54:06Z</time>
      </trkpt>
      <trkpt lat="47.13775" lon="-1.47168">
        <ele>100</ele>
        <time>2022-08-07T07:54:08Z</time>
      </trkpt>
      <trkpt lat="47.13776" lon="-1.47152">
        <ele>99</ele>
        <time>2022-08-07T07:54:10Z</time>
      </trkpt>
      <trkpt lat="47.13776" lon="-1.47136">
        <ele>100</ele>
        <time>2022-08-07T07:54:12Z</time>
      </trkpt>
      <trkpt lat="47.13777" lon="-1.47119">
        <ele>100</ele>
        <time>2022-08-07T07:54:14Z</time>
      </trkpt>
      <trkpt lat="47.13778" lon="-1.47103">
        <ele>100</ele>
        <time>2022-08-07T07:54:16Z</time>
      </trkpt>
      <trkpt lat="47.13779" lon="-1.47087">
        <ele>100</ele>
        <time>2022-08-07T07:54:18Z</time>
      </trkpt>
      <trkpt lat="47.1378" lon="-1.47071">
        <ele>100</ele>
        <time>2022-08-07T07:54:20Z</time>
      </trkpt>
      <trkpt lat="47.1378" lon="-1.47056">
        <ele>100</ele>
        <time>2022-08-07T07:54:22Z</time>
      </trkpt>
      <trkpt lat="47.1378" lon="-1.4704">
        <ele>100</ele>
        <time>2022-08-07T07:54:24Z</time>
      </trkpt>
      <trkpt lat="47.1378" lon="-1.47024">
        <ele>100</ele>
        <time>2022-08-07T07:54:26Z</time>
      </trkpt>
      <trkpt lat="47.13779" lon="-1.47009">
        <ele>100</ele>
        <time>2022-08-07T07:54:28Z</time>
      </trkpt>
      <trkpt lat="47.13778" lon="-1.46995">
        <ele>100</ele>
        <time>2022-08-07T07:54:30Z</time>
      </trkpt>
      <trkpt lat="47.13777" lon="-1.46979">
        <ele>100</ele>
        <time>2022-08-07T07:54:32Z</time>
      </trkpt>
      <trkpt lat="47.13777" lon="-1.46963">
        <ele>100</ele>
        <time>2022-08-07T07:54:34Z</time>
      </trkpt>
      <trkpt lat="47.13776" lon="-1.46947">
        <ele>101</ele>
        <time>2022-08-07T07:54:36Z</time>
      </trkpt>
      <trkpt lat="47.13774" lon="-1.46932">
        <ele>101</ele>
        <time>2022-08-07T07:54:38Z</time>
      </trkpt>
      <trkpt lat="47.13772" lon="-1.46917">
        <ele>101</ele>
        <time>2022-08-07T07:54:40Z</time>
      </trkpt>
      <trkpt lat="47.1377" lon="-1.46901">
        <ele>101</ele>
        <time>2022-08-07T07:54:42Z</time>
      </trkpt>
      <trkpt lat="47.13769" lon="-1.46886">
        <ele>101</ele>
        <time>2022-08-07T07:54:44Z</time>
      </trkpt>
      <trkpt lat="47.13766" lon="-1.46871">
        <ele>101</ele>
        <time>2022-08-07T07:54:46Z</time>
      </trkpt>
      <trkpt lat="47.13764" lon="-1.46856">
        <ele>101</ele>
        <time>2022-08-07T07:54:48Z</time>
      </trkpt>
      <trkpt lat="47.13761" lon="-1.46841">
        <ele>101</ele>
        <time>2022-08-07T07:54:50Z</time>
      </trkpt>
      <trkpt lat="47.13759" lon="-1.46826">
        <ele>101</ele>
        <time>2022-08-07T07:54:52Z</time>
      </trkpt>
      <trkpt lat="47.13756" lon="-1.46811">
        <ele>101</ele>
        <time>2022-08-07T07:54:54Z</time>
      </trkpt>
      <trkpt lat="47.13754" lon="-1.46798">
        <ele>101</ele>
        <time>2022-08-07T07:54:56Z</time>
      </trkpt>
      <trkpt lat="47.13751" lon="-1.46781">
        <ele>102</ele>
        <time>2022-08-07T07:54:59Z</time>
      </trkpt>
      <trkpt lat="47.13749" lon="-1.46766">
        <ele>102</ele>
        <time>2022-08-07T07:55:03Z</time>
      </trkpt>
      <trkpt lat="47.13763" lon="-1.4676">
        <ele>102</ele>
        <time>2022-08-07T07:55:06Z</time>
      </trkpt>
      <trkpt lat="47.13774" lon="-1.46758">
        <ele>102</ele>
        <time>2022-08-07T07:55:08Z</time>
      </trkpt>
      <trkpt lat="47.13786" lon="-1.46755">
        <ele>102</ele>
        <time>2022-08-07T07:55:10Z</time>
      </trkpt>
      <trkpt lat="47.13798" lon="-1.46752">
        <ele>102</ele>
        <time>2022-08-07T07:55:12Z</time>
      </trkpt>
      <trkpt lat="47.13809" lon="-1.46749">
        <ele>103</ele>
        <time>2022-08-07T07:55:14Z</time>
      </trkpt>
      <trkpt lat="47.13821" lon="-1.46746">
        <ele>103</ele>
        <time>2022-08-07T07:55:16Z</time>
      </trkpt>
      <trkpt lat="47.13833" lon="-1.46743">
        <ele>103</ele>
        <time>2022-08-07T07:55:18Z</time>
      </trkpt>
      <trkpt lat="47.13845" lon="-1.46741">
        <ele>103</ele>
        <time>2022-08-07T07:55:20Z</time>
      </trkpt>
      <trkpt lat="47.13857" lon="-1.46738">
        <ele>104</ele>
        <time>2022-08-07T07:55:22Z</time>
      </trkpt>
      <trkpt lat="47.13869" lon="-1.46735">
        <ele>104</ele>
        <time>2022-08-07T07:55:24Z</time>
      </trkpt>
      <trkpt lat="47.13882" lon="-1.46733">
        <ele>104</ele>
        <time>2022-08-07T07:55:26Z</time>
      </trkpt>
      <trkpt lat="47.13895" lon="-1.4673">
        <ele>104</ele>
        <time>2022-08-07T07:55:28Z</time>
      </trkpt>
      <trkpt lat="47.13908" lon="-1.46727">
        <ele>104</ele>
        <time>2022-08-07T07:55:30Z</time>
      </trkpt>
      <trkpt lat="47.13922" lon="-1.46724">
        <ele>104</ele>
        <time>2022-08-07T07:55:32Z</time>
      </trkpt>
      <trkpt lat="47.13935" lon="-1.46721">
        <ele>104</ele>
        <time>2022-08-07T07:55:34Z</time>
      </trkpt>
      <trkpt lat="47.13949" lon="-1.46719">
        <ele>104</ele>
        <time>2022-08-07T07:55:36Z</time>
      </trkpt>
      <trkpt lat="47.13962" lon="-1.46718">
        <ele>103</ele>
        <time>2022-08-07T07:55:38Z</time>
      </trkpt>
      <trkpt lat="47.13976" lon="-1.46719">
        <ele>103</ele>
        <time>2022-08-07T07:55:40Z</time>
      </trkpt>
      <trkpt lat="47.1399" lon="-1.46721">
        <ele>102</ele>
        <time>2022-08-07T07:55:42Z</time>
      </trkpt>
      <trkpt lat="47.14004" lon="-1.46723">
        <ele>102</ele>
        <time>2022-08-07T07:55:44Z</time>
      </trkpt>
      <trkpt lat="47.14019" lon="-1.46726">
        <ele>101</ele>
        <time>2022-08-07T07:55:46Z</time>
      </trkpt>
      <trkpt lat="47.14034" lon="-1.46729">
        <ele>101</ele>
        <time>2022-08-07T07:55:48Z</time>
      </trkpt>
      <trkpt lat="47.14049" lon="-1.46732">
        <ele>100</ele>
        <time>2022-08-07T07:55:50Z</time>
      </trkpt>
      <trkpt lat="47.14064" lon="-1.46735">
        <ele>99</ele>
        <time>2022-08-07T07:55:52Z</time>
      </trkpt>
      <trkpt lat="47.14079" lon="-1.46738">
        <ele>99</ele>
        <time>2022-08-07T07:55:54Z</time>
      </trkpt>
      <trkpt lat="47.14094" lon="-1.46741">
        <ele>98</ele>
        <time>2022-08-07T07:55:56Z</time>
      </trkpt>
      <trkpt lat="47.14109" lon="-1.46745">
        <ele>97</ele>
        <time>2022-08-07T07:55:58Z</time>
      </trkpt>
      <trkpt lat="47.14124" lon="-1.46748">
        <ele>96</ele>
        <time>2022-08-07T07:56:00Z</time>
      </trkpt>
      <trkpt lat="47.14139" lon="-1.4675">
        <ele>95</ele>
        <time>2022-08-07T07:56:02Z</time>
      </trkpt>
      <trkpt lat="47.14155" lon="-1.46753">
        <ele>95</ele>
        <time>2022-08-07T07:56:04Z</time>
      </trkpt>
      <trkpt lat="47.14171" lon="-1.46756">
        <ele>94</ele>
        <time>2022-08-07T07:56:06Z</time>
      </trkpt>
      <trkpt lat="47.14186" lon="-1.46759">
        <ele>93</ele>
        <time>2022-08-07T07:56:08Z</time>
      </trkpt>
      <trkpt lat="47.14201" lon="-1.46761">
        <ele>92</ele>
        <time>2022-08-07T07:56:10Z</time>
      </trkpt>
      <trkpt lat="47.14216" lon="-1.46764">
        <ele>92</ele>
        <time>2022-08-07T07:56:12Z</time>
      </trkpt>
      <trkpt lat="47.14231" lon="-1.46767">
        <ele>91</ele>
        <time>2022-08-07T07:56:14Z</time>
      </trkpt>
      <trkpt lat="47.14247" lon="-1.4677">
        <ele>91</ele>
        <time>2022-08-07T07:56:16Z</time>
      </trkpt>
      <trkpt lat="47.14264" lon="-1.46772">
        <ele>91</ele>
        <time>2022-08-07T07:56:18Z</time>
      </trkpt>
      <trkpt lat="47.14281" lon="-1.46775">
        <ele>91</ele>
        <time>2022-08-07T07:56:20Z</time>
      </trkpt>
      <trkpt lat="47.14297" lon="-1.46777">
        <ele>91</ele>
        <time>2022-08-07T07:56:22Z</time>
      </trkpt>
      <trkpt lat="47.14313" lon="-1.4678">
        <ele>91</ele>
        <time>2022-08-07T07:56:24Z</time>
      </trkpt>
      <trkpt lat="47.14329" lon="-1.46783">
        <ele>91</ele>
        <time>2022-08-07T07:56:26Z</time>
      </trkpt>
      <trkpt lat="47.14345" lon="-1.46786">
        <ele>91</ele>
        <time>2022-08-07T07:56:28Z</time>
      </trkpt>
      <trkpt lat="47.14361" lon="-1.46788">
        <ele>91</ele>
        <time>2022-08-07T07:56:30Z</time>
      </trkpt>
      <trkpt lat="47.14377" lon="-1.46791">
        <ele>92</ele>
        <time>2022-08-07T07:56:32Z</time>
      </trkpt>
      <trkpt lat="47.14394" lon="-1.46794">
        <ele>92</ele>
        <time>2022-08-07T07:56:34Z</time>
      </trkpt>
      <trkpt lat="47.14411" lon="-1.46798">
        <ele>92</ele>
        <time>2022-08-07T07:56:36Z</time>
      </trkpt>
      <trkpt lat="47.14427" lon="-1.46803">
        <ele>92</ele>
        <time>2022-08-07T07:56:38Z</time>
      </trkpt>
      <trkpt lat="47.14443" lon="-1.46809">
        <ele>92</ele>
        <time>2022-08-07T07:56:40Z</time>
      </trkpt>
      <trkpt lat="47.1446" lon="-1.46817">
        <ele>91</ele>
        <time>2022-08-07T07:56:42Z</time>
      </trkpt>
      <trkpt lat="47.14469" lon="-1.46822">
        <ele>90</ele>
        <time>2022-08-07T07:56:43Z</time>
      </trkpt>
      <trkpt lat="47.14485" lon="-1.46829">
        <ele>90</ele>
        <time>2022-08-07T07:56:45Z</time>
      </trkpt>
      <trkpt lat="47.14494" lon="-1.46834">
        <ele>90</ele>
        <time>2022-08-07T07:56:46Z</time>
      </trkpt>
      <trkpt lat="47.14511" lon="-1.46842">
        <ele>89</ele>
        <time>2022-08-07T07:56:48Z</time>
      </trkpt>
      <trkpt lat="47.1452" lon="-1.46847">
        <ele>88</ele>
        <time>2022-08-07T07:56:49Z</time>
      </trkpt>
      <trkpt lat="47.14529" lon="-1.46852">
        <ele>88</ele>
        <time>2022-08-07T07:56:50Z</time>
      </trkpt>
      <trkpt lat="47.14539" lon="-1.46856">
        <ele>87</ele>
        <time>2022-08-07T07:56:51Z</time>
      </trkpt>
      <trkpt lat="47.14548" lon="-1.46861">
        <ele>87</ele>
        <time>2022-08-07T07:56:52Z</time>
      </trkpt>
      <trkpt lat="47.14557" lon="-1.46867">
        <ele>86</ele>
        <time>2022-08-07T07:56:53Z</time>
      </trkpt>
      <trkpt lat="47.14565" lon="-1.46872">
        <ele>85</ele>
        <time>2022-08-07T07:56:54Z</time>
      </trkpt>
      <trkpt lat="47.14574" lon="-1.46876">
        <ele>83</ele>
        <time>2022-08-07T07:56:55Z</time>
      </trkpt>
      <trkpt lat="47.14584" lon="-1.46878">
        <ele>82</ele>
        <time>2022-08-07T07:56:56Z</time>
      </trkpt>
      <trkpt lat="47.14593" lon="-1.4688">
        <ele>82</ele>
        <time>2022-08-07T07:56:57Z</time>
      </trkpt>
      <trkpt lat="47.14602" lon="-1.4688">
        <ele>81</ele>
        <time>2022-08-07T07:56:58Z</time>
      </trkpt>
      <trkpt lat="47.14611" lon="-1.46879">
        <ele>81</ele>
        <time>2022-08-07T07:56:59Z</time>
      </trkpt>
      <trkpt lat="47.1462" lon="-1.46877">
        <ele>82</ele>
        <time>2022-08-07T07:57:00Z</time>
      </trkpt>
      <trkpt lat="47.14638" lon="-1.46873">
        <ele>82</ele>
        <time>2022-08-07T07:57:02Z</time>
      </trkpt>
      <trkpt lat="47.14655" lon="-1.4687">
        <ele>81</ele>
        <time>2022-08-07T07:57:04Z</time>
      </trkpt>
      <trkpt lat="47.14673" lon="-1.46866">
        <ele>80</ele>
        <time>2022-08-07T07:57:06Z</time>
      </trkpt>
      <trkpt lat="47.1469" lon="-1.46865">
        <ele>80</ele>
        <time>2022-08-07T07:57:08Z</time>
      </trkpt>
      <trkpt lat="47.14707" lon="-1.46864">
        <ele>79</ele>
        <time>2022-08-07T07:57:10Z</time>
      </trkpt>
      <trkpt lat="47.14724" lon="-1.46863">
        <ele>78</ele>
        <time>2022-08-07T07:57:12Z</time>
      </trkpt>
      <trkpt lat="47.14741" lon="-1.46862">
        <ele>77</ele>
        <time>2022-08-07T07:57:14Z</time>
      </trkpt>
      <trkpt lat="47.14758" lon="-1.46862">
        <ele>76</ele>
        <time>2022-08-07T07:57:16Z</time>
      </trkpt>
      <trkpt lat="47.14775" lon="-1.46862">
        <ele>76</ele>
        <time>2022-08-07T07:57:18Z</time>
      </trkpt>
      <trkpt lat="47.14792" lon="-1.46862">
        <ele>76</ele>
        <time>2022-08-07T07:57:20Z</time>
      </trkpt>
      <trkpt lat="47.1481" lon="-1.46863">
        <ele>75</ele>
        <time>2022-08-07T07:57:22Z</time>
      </trkpt>
      <trkpt lat="47.14827" lon="-1.46864">
        <ele>74</ele>
        <time>2022-08-07T07:57:24Z</time>
      </trkpt>
      <trkpt lat="47.14843" lon="-1.46864">
        <ele>73</ele>
        <time>2022-08-07T07:57:26Z</time>
      </trkpt>
      <trkpt lat="47.14859" lon="-1.46864">
        <ele>72</ele>
        <time>2022-08-07T07:57:28Z</time>
      </trkpt>
      <trkpt lat="47.14875" lon="-1.46864">
        <ele>71</ele>
        <time>2022-08-07T07:57:30Z</time>
      </trkpt>
      <trkpt lat="47.14889" lon="-1.46863">
        <ele>70</ele>
        <time>2022-08-07T07:57:32Z</time>
      </trkpt>
      <trkpt lat="47.14904" lon="-1.46863">
        <ele>69</ele>
        <time>2022-08-07T07:57:34Z</time>
      </trkpt>
      <trkpt lat="47.14916" lon="-1.4686">
        <ele>69</ele>
        <time>2022-08-07T07:57:36Z</time>
      </trkpt>
      <trkpt lat="47.14929" lon="-1.46859">
        <ele>68</ele>
        <time>2022-08-07T07:57:38Z</time>
      </trkpt>
      <trkpt lat="47.14943" lon="-1.46862">
        <ele>67</ele>
        <time>2022-08-07T07:57:40Z</time>
      </trkpt>
      <trkpt lat="47.14956" lon="-1.46859">
        <ele>67</ele>
        <time>2022-08-07T07:57:42Z</time>
      </trkpt>
      <trkpt lat="47.14969" lon="-1.46857">
        <ele>67</ele>
        <time>2022-08-07T07:57:44Z</time>
      </trkpt>
      <trkpt lat="47.14982" lon="-1.46857">
        <ele>68</ele>
        <time>2022-08-07T07:57:46Z</time>
      </trkpt>
      <trkpt lat="47.14994" lon="-1.46855">
        <ele>69</ele>
        <time>2022-08-07T07:57:48Z</time>
      </trkpt>
      <trkpt lat="47.15007" lon="-1.46853">
        <ele>70</ele>
        <time>2022-08-07T07:57:50Z</time>
      </trkpt>
      <trkpt lat="47.15018" lon="-1.4685">
        <ele>73</ele>
        <time>2022-08-07T07:57:52Z</time>
      </trkpt>
      <trkpt lat="47.15029" lon="-1.4685">
        <ele>75</ele>
        <time>2022-08-07T07:57:54Z</time>
      </trkpt>
      <trkpt lat="47.15041" lon="-1.4685">
        <ele>76</ele>
        <time>2022-08-07T07:57:56Z</time>
      </trkpt>
      <trkpt lat="47.15051" lon="-1.46852">
        <ele>75</ele>
        <time>2022-08-07T07:57:58Z</time>
      </trkpt>
      <trkpt lat="47.15063" lon="-1.46852">
        <ele>73</ele>
        <time>2022-08-07T07:58:00Z</time>
      </trkpt>
      <trkpt lat="47.15074" lon="-1.46853">
        <ele>71</ele>
        <time>2022-08-07T07:58:02Z</time>
      </trkpt>
      <trkpt lat="47.15085" lon="-1.46854">
        <ele>69</ele>
        <time>2022-08-07T07:58:04Z</time>
      </trkpt>
      <trkpt lat="47.15096" lon="-1.46853">
        <ele>68</ele>
        <time>2022-08-07T07:58:06Z</time>
      </trkpt>
      <trkpt lat="47.15107" lon="-1.46853">
        <ele>68</ele>
        <time>2022-08-07T07:58:08Z</time>
      </trkpt>
      <trkpt lat="47.15118" lon="-1.46852">
        <ele>67</ele>
        <time>2022-08-07T07:58:10Z</time>
      </trkpt>
      <trkpt lat="47.15129" lon="-1.46851">
        <ele>67</ele>
        <time>2022-08-07T07:58:12Z</time>
      </trkpt>
      <trkpt lat="47.15142" lon="-1.4685">
        <ele>66</ele>
        <time>2022-08-07T07:58:14Z</time>
      </trkpt>
      <trkpt lat="47.15155" lon="-1.46849">
        <ele>66</ele>
        <time>2022-08-07T07:58:16Z</time>
      </trkpt>
      <trkpt lat="47.15168" lon="-1.46848">
        <ele>66</ele>
        <time>2022-08-07T07:58:18Z</time>
      </trkpt>
      <trkpt lat="47.15181" lon="-1.46848">
        <ele>66</ele>
        <time>2022-08-07T07:58:20Z</time>
      </trkpt>
      <trkpt lat="47.15195" lon="-1.46847">
        <ele>66</ele>
        <time>2022-08-07T07:58:22Z</time>
      </trkpt>
      <trkpt lat="47.15209" lon="-1.46844">
        <ele>65</ele>
        <time>2022-08-07T07:58:24Z</time>
      </trkpt>
      <trkpt lat="47.15224" lon="-1.46843">
        <ele>64</ele>
        <time>2022-08-07T07:58:26Z</time>
      </trkpt>
      <trkpt lat="47.15237" lon="-1.4684">
        <ele>64</ele>
        <time>2022-08-07T07:58:28Z</time>
      </trkpt>
      <trkpt lat="47.15251" lon="-1.46837">
        <ele>64</ele>
        <time>2022-08-07T07:58:30Z</time>
      </trkpt>
      <trkpt lat="47.15264" lon="-1.46834">
        <ele>64</ele>
        <time>2022-08-07T07:58:32Z</time>
      </trkpt>
      <trkpt lat="47.15278" lon="-1.4683">
        <ele>65</ele>
        <time>2022-08-07T07:58:34Z</time>
      </trkpt>
      <trkpt lat="47.15291" lon="-1.46826">
        <ele>65</ele>
        <time>2022-08-07T07:58:36Z</time>
      </trkpt>
      <trkpt lat="47.15304" lon="-1.4682">
        <ele>64</ele>
        <time>2022-08-07T07:58:38Z</time>
      </trkpt>
      <trkpt lat="47.15316" lon="-1.46815">
        <ele>64</ele>
        <time>2022-08-07T07:58:40Z</time>
      </trkpt>
      <trkpt lat="47.15328" lon="-1.46808">
        <ele>64</ele>
        <time>2022-08-07T07:58:42Z</time>
      </trkpt>
      <trkpt lat="47.1534" lon="-1.46803">
        <ele>64</ele>
        <time>2022-08-07T07:58:44Z</time>
      </trkpt>
      <trkpt lat="47.15351" lon="-1.46798">
        <ele>64</ele>
        <time>2022-08-07T07:58:46Z</time>
      </trkpt>
      <trkpt lat="47.15361" lon="-1.46792">
        <ele>64</ele>
        <time>2022-08-07T07:58:48Z</time>
      </trkpt>
      <trkpt lat="47.15371" lon="-1.46786">
        <ele>64</ele>
        <time>2022-08-07T07:58:50Z</time>
      </trkpt>
      <trkpt lat="47.15381" lon="-1.4678">
        <ele>64</ele>
        <time>2022-08-07T07:58:52Z</time>
      </trkpt>
      <trkpt lat="47.15391" lon="-1.46773">
        <ele>64</ele>
        <time>2022-08-07T07:58:54Z</time>
      </trkpt>
      <trkpt lat="47.154" lon="-1.46767">
        <ele>64</ele>
        <time>2022-08-07T07:58:56Z</time>
      </trkpt>
      <trkpt lat="47.1541" lon="-1.46761">
        <ele>63</ele>
        <time>2022-08-07T07:58:58Z</time>
      </trkpt>
      <trkpt lat="47.15418" lon="-1.46756">
        <ele>63</ele>
        <time>2022-08-07T07:59:00Z</time>
      </trkpt>
      <trkpt lat="47.15426" lon="-1.4675">
        <ele>63</ele>
        <time>2022-08-07T07:59:02Z</time>
      </trkpt>
      <trkpt lat="47.15437" lon="-1.4674">
        <ele>64</ele>
        <time>2022-08-07T07:59:05Z</time>
      </trkpt>
      <trkpt lat="47.15448" lon="-1.46732">
        <ele>64</ele>
        <time>2022-08-07T07:59:08Z</time>
      </trkpt>
      <trkpt lat="47.15459" lon="-1.46723">
        <ele>65</ele>
        <time>2022-08-07T07:59:11Z</time>
      </trkpt>
      <trkpt lat="47.1547" lon="-1.46714">
        <ele>66</ele>
        <time>2022-08-07T07:59:14Z</time>
      </trkpt>
      <trkpt lat="47.1548" lon="-1.46707">
        <ele>67</ele>
        <time>2022-08-07T07:59:17Z</time>
      </trkpt>
      <trkpt lat="47.15491" lon="-1.46699">
        <ele>68</ele>
        <time>2022-08-07T07:59:20Z</time>
      </trkpt>
      <trkpt lat="47.15502" lon="-1.46691">
        <ele>68</ele>
        <time>2022-08-07T07:59:23Z</time>
      </trkpt>
      <trkpt lat="47.15512" lon="-1.46684">
        <ele>68</ele>
        <time>2022-08-07T07:59:26Z</time>
      </trkpt>
      <trkpt lat="47.15523" lon="-1.46678">
        <ele>69</ele>
        <time>2022-08-07T07:59:29Z</time>
      </trkpt>
      <trkpt lat="47.15533" lon="-1.46672">
        <ele>69</ele>
        <time>2022-08-07T07:59:32Z</time>
      </trkpt>
      <trkpt lat="47.15544" lon="-1.46665">
        <ele>70</ele>
        <time>2022-08-07T07:59:35Z</time>
      </trkpt>
      <trkpt lat="47.15555" lon="-1.46659">
        <ele>71</ele>
        <time>2022-08-07T07:59:38Z</time>
      </trkpt>
      <trkpt lat="47.15565" lon="-1.46653">
        <ele>72</ele>
        <time>2022-08-07T07:59:41Z</time>
      </trkpt>
      <trkpt lat="47.15576" lon="-1.46649">
        <ele>72</ele>
        <time>2022-08-07T07:59:44Z</time>
      </trkpt>
      <trkpt lat="47.15587" lon="-1.46644">
        <ele>72</ele>
        <time>2022-08-07T07:59:47Z</time>
      </trkpt>
      <trkpt lat="47.15598" lon="-1.4664">
        <ele>73</ele>
        <time>2022-08-07T07:59:50Z</time>
      </trkpt>
      <trkpt lat="47.1561" lon="-1.46636">
        <ele>73</ele>
        <time>2022-08-07T07:59:53Z</time>
      </trkpt>
      <trkpt lat="47.15621" lon="-1.46633">
        <ele>74</ele>
        <time>2022-08-07T07:59:56Z</time>
      </trkpt>
      <trkpt lat="47.15632" lon="-1.46631">
        <ele>74</ele>
        <time>2022-08-07T07:59:59Z</time>
      </trkpt>
      <trkpt lat="47.15643" lon="-1.46629">
        <ele>75</ele>
        <time>2022-08-07T08:00:02Z</time>
      </trkpt>
      <trkpt lat="47.15656" lon="-1.46628">
        <ele>75</ele>
        <time>2022-08-07T08:00:05Z</time>
      </trkpt>
      <trkpt lat="47.15668" lon="-1.46627">
        <ele>75</ele>
        <time>2022-08-07T08:00:08Z</time>
      </trkpt>
      <trkpt lat="47.1568" lon="-1.46626">
        <ele>76</ele>
        <time>2022-08-07T08:00:11Z</time>
      </trkpt>
      <trkpt lat="47.15693" lon="-1.46625">
        <ele>76</ele>
        <time>2022-08-07T08:00:14Z</time>
      </trkpt>
      <trkpt lat="47.15705" lon="-1.46624">
        <ele>76</ele>
        <time>2022-08-07T08:00:17Z</time>
      </trkpt>
      <trkpt lat="47.15717" lon="-1.46624">
        <ele>76</ele>
        <time>2022-08-07T08:00:20Z</time>
      </trkpt>
      <trkpt lat="47.1573" lon="-1.46623">
        <ele>77</ele>
        <time>2022-08-07T08:00:23Z</time>
      </trkpt>
      <trkpt lat="47.15742" lon="-1.46622">
        <ele>77</ele>
        <time>2022-08-07T08:00:26Z</time>
      </trkpt>
      <trkpt lat="47.15754" lon="-1.46622">
        <ele>78</ele>
        <time>2022-08-07T08:00:29Z</time>
      </trkpt>
      <trkpt lat="47.15766" lon="-1.46622">
        <ele>78</ele>
        <time>2022-08-07T08:00:32Z</time>
      </trkpt>
      <trkpt lat="47.15777" lon="-1.46621">
        <ele>78</ele>
        <time>2022-08-07T08:00:35Z</time>
      </trkpt>
      <trkpt lat="47.15789" lon="-1.4662">
        <ele>78</ele>
        <time>2022-08-07T08:00:38Z</time>
      </trkpt>
      <trkpt lat="47.15801" lon="-1.4662">
        <ele>79</ele>
        <time>2022-08-07T08:00:41Z</time>
      </trkpt>
      <trkpt lat="47.15813" lon="-1.4662">
        <ele>80</ele>
        <time>2022-08-07T08:00:44Z</time>
      </trkpt>
      <trkpt lat="47.15826" lon="-1.46619">
        <ele>80</ele>
        <time>2022-08-07T08:00:47Z</time>
      </trkpt>
      <trkpt lat="47.15838" lon="-1.46619">
        <ele>80</ele>
        <time>2022-08-07T08:00:50Z</time>
      </trkpt>
      <trkpt lat="47.15851" lon="-1.46618">
        <ele>80</ele>
        <time>2022-08-07T08:00:53Z</time>
      </trkpt>
      <trkpt lat="47.15863" lon="-1.46617">
        <ele>81</ele>
        <time>2022-08-07T08:00:56Z</time>
      </trkpt>
      <trkpt lat="47.15872" lon="-1.46616">
        <ele>81</ele>
        <time>2022-08-07T08:00:58Z</time>
      </trkpt>
      <trkpt lat="47.15884" lon="-1.46617">
        <ele>81</ele>
        <time>2022-08-07T08:01:01Z</time>
      </trkpt>
      <trkpt lat="47.15897" lon="-1.46617">
        <ele>82</ele>
        <time>2022-08-07T08:01:04Z</time>
      </trkpt>
      <trkpt lat="47.15909" lon="-1.46618">
        <ele>82</ele>
        <time>2022-08-07T08:01:07Z</time>
      </trkpt>
      <trkpt lat="47.15921" lon="-1.46619">
        <ele>82</ele>
        <time>2022-08-07T08:01:10Z</time>
      </trkpt>
      <trkpt lat="47.15933" lon="-1.4662">
        <ele>83</ele>
        <time>2022-08-07T08:01:13Z</time>
      </trkpt>
      <trkpt lat="47.15946" lon="-1.46622">
        <ele>83</ele>
        <time>2022-08-07T08:01:16Z</time>
      </trkpt>
      <trkpt lat="47.15958" lon="-1.46624">
        <ele>83</ele>
        <time>2022-08-07T08:01:19Z</time>
      </trkpt>
      <trkpt lat="47.15971" lon="-1.46627">
        <ele>84</ele>
        <time>2022-08-07T08:01:22Z</time>
      </trkpt>
      <trkpt lat="47.1598" lon="-1.4663">
        <ele>84</ele>
        <time>2022-08-07T08:01:24Z</time>
      </trkpt>
      <trkpt lat="47.15989" lon="-1.46633">
        <ele>84</ele>
        <time>2022-08-07T08:01:26Z</time>
      </trkpt>
      <trkpt lat="47.15998" lon="-1.46636">
        <ele>85</ele>
        <time>2022-08-07T08:01:28Z</time>
      </trkpt>
      <trkpt lat="47.16011" lon="-1.4664">
        <ele>85</ele>
        <time>2022-08-07T08:01:31Z</time>
      </trkpt>
      <trkpt lat="47.1602" lon="-1.46644">
        <ele>85</ele>
        <time>2022-08-07T08:01:33Z</time>
      </trkpt>
      <trkpt lat="47.16029" lon="-1.46648">
        <ele>86</ele>
        <time>2022-08-07T08:01:35Z</time>
      </trkpt>
      <trkpt lat="47.16037" lon="-1.46652">
        <ele>86</ele>
        <time>2022-08-07T08:01:37Z</time>
      </trkpt>
      <trkpt lat="47.16046" lon="-1.46657">
        <ele>85</ele>
        <time>2022-08-07T08:01:39Z</time>
      </trkpt>
      <trkpt lat="47.16055" lon="-1.46663">
        <ele>85</ele>
        <time>2022-08-07T08:01:41Z</time>
      </trkpt>
      <trkpt lat="47.16064" lon="-1.46669">
        <ele>85</ele>
        <time>2022-08-07T08:01:43Z</time>
      </trkpt>
      <trkpt lat="47.16074" lon="-1.46675">
        <ele>85</ele>
        <time>2022-08-07T08:01:45Z</time>
      </trkpt>
      <trkpt lat="47.16084" lon="-1.46682">
        <ele>85</ele>
        <time>2022-08-07T08:01:47Z</time>
      </trkpt>
      <trkpt lat="47.16094" lon="-1.46689">
        <ele>84</ele>
        <time>2022-08-07T08:01:49Z</time>
      </trkpt>
      <trkpt lat="47.16105" lon="-1.46698">
        <ele>84</ele>
        <time>2022-08-07T08:01:51Z</time>
      </trkpt>
      <trkpt lat="47.16117" lon="-1.46706">
        <ele>83</ele>
        <time>2022-08-07T08:01:53Z</time>
      </trkpt>
      <trkpt lat="47.16129" lon="-1.46715">
        <ele>83</ele>
        <time>2022-08-07T08:01:55Z</time>
      </trkpt>
      <trkpt lat="47.1614" lon="-1.46724">
        <ele>82</ele>
        <time>2022-08-07T08:01:57Z</time>
      </trkpt>
      <trkpt lat="47.16153" lon="-1.46733">
        <ele>82</ele>
        <time>2022-08-07T08:01:59Z</time>
      </trkpt>
      <trkpt lat="47.16165" lon="-1.46742">
        <ele>82</ele>
        <time>2022-08-07T08:02:01Z</time>
      </trkpt>
      <trkpt lat="47.16177" lon="-1.46752">
        <ele>81</ele>
        <time>2022-08-07T08:02:03Z</time>
      </trkpt>
      <trkpt lat="47.1619" lon="-1.4676">
        <ele>81</ele>
        <time>2022-08-07T08:02:05Z</time>
      </trkpt>
      <trkpt lat="47.16202" lon="-1.46769">
        <ele>81</ele>
        <time>2022-08-07T08:02:07Z</time>
      </trkpt>
      <trkpt lat="47.16215" lon="-1.46779">
        <ele>80</ele>
        <time>2022-08-07T08:02:09Z</time>
      </trkpt>
      <trkpt lat="47.16228" lon="-1.46788">
        <ele>80</ele>
        <time>2022-08-07T08:02:11Z</time>
      </trkpt>
      <trkpt lat="47.1624" lon="-1.46797">
        <ele>80</ele>
        <time>2022-08-07T08:02:13Z</time>
      </trkpt>
      <trkpt lat="47.16252" lon="-1.46799">
        <ele>80</ele>
        <time>2022-08-07T08:02:15Z</time>
      </trkpt>
      <trkpt lat="47.16264" lon="-1.46798">
        <ele>80</ele>
        <time>2022-08-07T08:02:17Z</time>
      </trkpt>
      <trkpt lat="47.16276" lon="-1.46803">
        <ele>79</ele>
        <time>2022-08-07T08:02:19Z</time>
      </trkpt>
      <trkpt lat="47.16285" lon="-1.46815">
        <ele>79</ele>
        <time>2022-08-07T08:02:21Z</time>
      </trkpt>
      <trkpt lat="47.16295" lon="-1.46828">
        <ele>79</ele>
        <time>2022-08-07T08:02:23Z</time>
      </trkpt>
      <trkpt lat="47.16307" lon="-1.46839">
        <ele>79</ele>
        <time>2022-08-07T08:02:25Z</time>
      </trkpt>
      <trkpt lat="47.16318" lon="-1.4685">
        <ele>78</ele>
        <time>2022-08-07T08:02:27Z</time>
      </trkpt>
      <trkpt lat="47.16331" lon="-1.4686">
        <ele>77</ele>
        <time>2022-08-07T08:02:29Z</time>
      </trkpt>
      <trkpt lat="47.16343" lon="-1.46872">
        <ele>76</ele>
        <time>2022-08-07T08:02:31Z</time>
      </trkpt>
      <trkpt lat="47.16357" lon="-1.46883">
        <ele>75</ele>
        <time>2022-08-07T08:02:33Z</time>
      </trkpt>
      <trkpt lat="47.16371" lon="-1.46894">
        <ele>74</ele>
        <time>2022-08-07T08:02:35Z</time>
      </trkpt>
      <trkpt lat="47.16384" lon="-1.46906">
        <ele>74</ele>
        <time>2022-08-07T08:02:37Z</time>
      </trkpt>
      <trkpt lat="47.16395" lon="-1.4692">
        <ele>74</ele>
        <time>2022-08-07T08:02:39Z</time>
      </trkpt>
      <trkpt lat="47.16403" lon="-1.46936">
        <ele>74</ele>
        <time>2022-08-07T08:02:41Z</time>
      </trkpt>
      <trkpt lat="47.1641" lon="-1.46952">
        <ele>75</ele>
        <time>2022-08-07T08:02:43Z</time>
      </trkpt>
      <trkpt lat="47.16417" lon="-1.46969">
        <ele>74</ele>
        <time>2022-08-07T08:02:45Z</time>
      </trkpt>
      <trkpt lat="47.16423" lon="-1.46985">
        <ele>75</ele>
        <time>2022-08-07T08:02:47Z</time>
      </trkpt>
      <trkpt lat="47.1643" lon="-1.46999">
        <ele>74</ele>
        <time>2022-08-07T08:02:49Z</time>
      </trkpt>
      <trkpt lat="47.16438" lon="-1.47011">
        <ele>74</ele>
        <time>2022-08-07T08:02:51Z</time>
      </trkpt>
      <trkpt lat="47.16448" lon="-1.47022">
        <ele>74</ele>
        <time>2022-08-07T08:02:53Z</time>
      </trkpt>
      <trkpt lat="47.16458" lon="-1.4703">
        <ele>74</ele>
        <time>2022-08-07T08:02:55Z</time>
      </trkpt>
      <trkpt lat="47.16469" lon="-1.47037">
        <ele>75</ele>
        <time>2022-08-07T08:02:57Z</time>
      </trkpt>
      <trkpt lat="47.1648" lon="-1.47041">
        <ele>76</ele>
        <time>2022-08-07T08:02:59Z</time>
      </trkpt>
      <trkpt lat="47.1649" lon="-1.47047">
        <ele>76</ele>
        <time>2022-08-07T08:03:01Z</time>
      </trkpt>
      <trkpt lat="47.16502" lon="-1.47047">
        <ele>76</ele>
        <time>2022-08-07T08:03:04Z</time>
      </trkpt>
      <trkpt lat="47.16507" lon="-1.47034">
        <ele>76</ele>
        <time>2022-08-07T08:03:06Z</time>
      </trkpt>
      <trkpt lat="47.16512" lon="-1.47019">
        <ele>76</ele>
        <time>2022-08-07T08:03:08Z</time>
      </trkpt>
      <trkpt lat="47.16516" lon="-1.47004">
        <ele>76</ele>
        <time>2022-08-07T08:03:10Z</time>
      </trkpt>
      <trkpt lat="47.1652" lon="-1.4699">
        <ele>76</ele>
        <time>2022-08-07T08:03:12Z</time>
      </trkpt>
      <trkpt lat="47.16525" lon="-1.46976">
        <ele>77</ele>
        <time>2022-08-07T08:03:14Z</time>
      </trkpt>
      <trkpt lat="47.1653" lon="-1.46963">
        <ele>77</ele>
        <time>2022-08-07T08:03:16Z</time>
      </trkpt>
      <trkpt lat="47.16534" lon="-1.4695">
        <ele>76</ele>
        <time>2022-08-07T08:03:18Z</time>
      </trkpt>
      <trkpt lat="47.16539" lon="-1.46938">
        <ele>77</ele>
        <time>2022-08-07T08:03:20Z</time>
      </trkpt>
      <trkpt lat="47.16543" lon="-1.46925">
        <ele>77</ele>
        <time>2022-08-07T08:03:22Z</time>
      </trkpt>
      <trkpt lat="47.16547" lon="-1.46912">
        <ele>77</ele>
        <time>2022-08-07T08:03:24Z</time>
      </trkpt>
      <trkpt lat="47.16552" lon="-1.46899">
        <ele>78</ele>
        <time>2022-08-07T08:03:26Z</time>
      </trkpt>
      <trkpt lat="47.16556" lon="-1.46887">
        <ele>78</ele>
        <time>2022-08-07T08:03:28Z</time>
      </trkpt>
      <trkpt lat="47.1656" lon="-1.46874">
        <ele>79</ele>
        <time>2022-08-07T08:03:30Z</time>
      </trkpt>
      <trkpt lat="47.16564" lon="-1.46862">
        <ele>79</ele>
        <time>2022-08-07T08:03:32Z</time>
      </trkpt>
      <trkpt lat="47.1657" lon="-1.46845">
        <ele>80</ele>
        <time>2022-08-07T08:03:35Z</time>
      </trkpt>
      <trkpt lat="47.16576" lon="-1.46827">
        <ele>80</ele>
        <time>2022-08-07T08:03:38Z</time>
      </trkpt>
      <trkpt lat="47.16582" lon="-1.4681">
        <ele>80</ele>
        <time>2022-08-07T08:03:41Z</time>
      </trkpt>
      <trkpt lat="47.16589" lon="-1.46793">
        <ele>81</ele>
        <time>2022-08-07T08:03:44Z</time>
      </trkpt>
      <trkpt lat="47.16595" lon="-1.46783">
        <ele>81</ele>
        <time>2022-08-07T08:03:46Z</time>
      </trkpt>
      <trkpt lat="47.16604" lon="-1.4677">
        <ele>82</ele>
        <time>2022-08-07T08:03:49Z</time>
      </trkpt>
      <trkpt lat="47.16613" lon="-1.46757">
        <ele>82</ele>
        <time>2022-08-07T08:03:52Z</time>
      </trkpt>
      <trkpt lat="47.16623" lon="-1.46745">
        <ele>83</ele>
        <time>2022-08-07T08:03:55Z</time>
      </trkpt>
      <trkpt lat="47.16632" lon="-1.46732">
        <ele>83</ele>
        <time>2022-08-07T08:03:58Z</time>
      </trkpt>
      <trkpt lat="47.16642" lon="-1.4672">
        <ele>84</ele>
        <time>2022-08-07T08:04:01Z</time>
      </trkpt>
      <trkpt lat="47.16651" lon="-1.46714">
        <ele>84</ele>
        <time>2022-08-07T08:04:04Z</time>
      </trkpt>
      <trkpt lat="47.16661" lon="-1.46726">
        <ele>85</ele>
        <time>2022-08-07T08:04:07Z</time>
      </trkpt>
      <trkpt lat="47.16666" lon="-1.4674">
        <ele>85</ele>
        <time>2022-08-07T08:04:09Z</time>
      </trkpt>
      <trkpt lat="47.16669" lon="-1.46754">
        <ele>85</ele>
        <time>2022-08-07T08:04:11Z</time>
      </trkpt>
      <trkpt lat="47.16672" lon="-1.46768">
        <ele>85</ele>
        <time>2022-08-07T08:04:13Z</time>
      </trkpt>
      <trkpt lat="47.16676" lon="-1.46783">
        <ele>85</ele>
        <time>2022-08-07T08:04:15Z</time>
      </trkpt>
      <trkpt lat="47.1668" lon="-1.46797">
        <ele>86</ele>
        <time>2022-08-07T08:04:17Z</time>
      </trkpt>
      <trkpt lat="47.16685" lon="-1.4681">
        <ele>86</ele>
        <time>2022-08-07T08:04:19Z</time>
      </trkpt>
      <trkpt lat="47.1669" lon="-1.46824">
        <ele>87</ele>
        <time>2022-08-07T08:04:21Z</time>
      </trkpt>
      <trkpt lat="47.16697" lon="-1.46838">
        <ele>87</ele>
        <time>2022-08-07T08:04:23Z</time>
      </trkpt>
      <trkpt lat="47.16703" lon="-1.46851">
        <ele>87</ele>
        <time>2022-08-07T08:04:25Z</time>
      </trkpt>
      <trkpt lat="47.1671" lon="-1.46865">
        <ele>88</ele>
        <time>2022-08-07T08:04:27Z</time>
      </trkpt>
      <trkpt lat="47.16716" lon="-1.46879">
        <ele>88</ele>
        <time>2022-08-07T08:04:29Z</time>
      </trkpt>
      <trkpt lat="47.16726" lon="-1.46899">
        <ele>88</ele>
        <time>2022-08-07T08:04:32Z</time>
      </trkpt>
      <trkpt lat="47.16733" lon="-1.46913">
        <ele>87</ele>
        <time>2022-08-07T08:04:34Z</time>
      </trkpt>
      <trkpt lat="47.16739" lon="-1.46926">
        <ele>87</ele>
        <time>2022-08-07T08:04:36Z</time>
      </trkpt>
      <trkpt lat="47.16749" lon="-1.46947">
        <ele>87</ele>
        <time>2022-08-07T08:04:39Z</time>
      </trkpt>
      <trkpt lat="47.16755" lon="-1.46961">
        <ele>87</ele>
        <time>2022-08-07T08:04:41Z</time>
      </trkpt>
      <trkpt lat="47.16762" lon="-1.46975">
        <ele>87</ele>
        <time>2022-08-07T08:04:43Z</time>
      </trkpt>
      <trkpt lat="47.16769" lon="-1.4699">
        <ele>88</ele>
        <time>2022-08-07T08:04:45Z</time>
      </trkpt>
      <trkpt lat="47.1678" lon="-1.47008">
        <ele>88</ele>
        <time>2022-08-07T08:04:48Z</time>
      </trkpt>
      <trkpt lat="47.16789" lon="-1.47017">
        <ele>88</ele>
        <time>2022-08-07T08:04:50Z</time>
      </trkpt>
      <trkpt lat="47.16798" lon="-1.47026">
        <ele>88</ele>
        <time>2022-08-07T08:04:52Z</time>
      </trkpt>
      <trkpt lat="47.16807" lon="-1.47033">
        <ele>87</ele>
        <time>2022-08-07T08:04:54Z</time>
      </trkpt>
      <trkpt lat="47.16822" lon="-1.47045">
        <ele>87</ele>
        <time>2022-08-07T08:04:57Z</time>
      </trkpt>
      <trkpt lat="47.16837" lon="-1.47055">
        <ele>88</ele>
        <time>2022-08-07T08:05:00Z</time>
      </trkpt>
      <trkpt lat="47.16848" lon="-1.47061">
        <ele>87</ele>
        <time>2022-08-07T08:05:02Z</time>
      </trkpt>
      <trkpt lat="47.16857" lon="-1.47068">
        <ele>86</ele>
        <time>2022-08-07T08:05:04Z</time>
      </trkpt>
      <trkpt lat="47.16865" lon="-1.47075">
        <ele>86</ele>
        <time>2022-08-07T08:05:06Z</time>
      </trkpt>
      <trkpt lat="47.16877" lon="-1.47078">
        <ele>86</ele>
        <time>2022-08-07T08:05:09Z</time>
      </trkpt>
      <trkpt lat="47.16882" lon="-1.47064">
        <ele>86</ele>
        <time>2022-08-07T08:05:11Z</time>
      </trkpt>
      <trkpt lat="47.16885" lon="-1.47048">
        <ele>86</ele>
        <time>2022-08-07T08:05:13Z</time>
      </trkpt>
      <trkpt lat="47.16889" lon="-1.47033">
        <ele>86</ele>
        <time>2022-08-07T08:05:15Z</time>
      </trkpt>
      <trkpt lat="47.16892" lon="-1.47018">
        <ele>85</ele>
        <time>2022-08-07T08:05:17Z</time>
      </trkpt>
      <trkpt lat="47.16895" lon="-1.47003">
        <ele>85</ele>
        <time>2022-08-07T08:05:19Z</time>
      </trkpt>
      <trkpt lat="47.16899" lon="-1.46987">
        <ele>84</ele>
        <time>2022-08-07T08:05:21Z</time>
      </trkpt>
      <trkpt lat="47.16902" lon="-1.46971">
        <ele>83</ele>
        <time>2022-08-07T08:05:23Z</time>
      </trkpt>
      <trkpt lat="47.16906" lon="-1.46955">
        <ele>83</ele>
        <time>2022-08-07T08:05:25Z</time>
      </trkpt>
      <trkpt lat="47.16909" lon="-1.46939">
        <ele>83</ele>
        <time>2022-08-07T08:05:27Z</time>
      </trkpt>
      <trkpt lat="47.16913" lon="-1.46922">
        <ele>83</ele>
        <time>2022-08-07T08:05:29Z</time>
      </trkpt>
      <trkpt lat="47.16916" lon="-1.46906">
        <ele>82</ele>
        <time>2022-08-07T08:05:31Z</time>
      </trkpt>
      <trkpt lat="47.1692" lon="-1.4689">
        <ele>82</ele>
        <time>2022-08-07T08:05:33Z</time>
      </trkpt>
      <trkpt lat="47.16922" lon="-1.46875">
        <ele>82</ele>
        <time>2022-08-07T08:05:35Z</time>
      </trkpt>
      <trkpt lat="47.16925" lon="-1.46859">
        <ele>82</ele>
        <time>2022-08-07T08:05:37Z</time>
      </trkpt>
      <trkpt lat="47.16928" lon="-1.46843">
        <ele>81</ele>
        <time>2022-08-07T08:05:39Z</time>
      </trkpt>
      <trkpt lat="47.16931" lon="-1.46828">
        <ele>82</ele>
        <time>2022-08-07T08:05:41Z</time>
      </trkpt>
      <trkpt lat="47.16935" lon="-1.46813">
        <ele>82</ele>
        <time>2022-08-07T08:05:43Z</time>
      </trkpt>
      <trkpt lat="47.16938" lon="-1.46797">
        <ele>82</ele>
        <time>2022-08-07T08:05:45Z</time>
      </trkpt>
      <trkpt lat="47.16941" lon="-1.46781">
        <ele>83</ele>
        <time>2022-08-07T08:05:47Z</time>
      </trkpt>
      <trkpt lat="47.16945" lon="-1.46766">
        <ele>83</ele>
        <time>2022-08-07T08:05:49Z</time>
      </trkpt>
      <trkpt lat="47.16948" lon="-1.4675">
        <ele>83</ele>
        <time>2022-08-07T08:05:51Z</time>
      </trkpt>
      <trkpt lat="47.16951" lon="-1.46735">
        <ele>83</ele>
        <time>2022-08-07T08:05:53Z</time>
      </trkpt>
      <trkpt lat="47.16954" lon="-1.46719">
        <ele>83</ele>
        <time>2022-08-07T08:05:55Z</time>
      </trkpt>
      <trkpt lat="47.16955" lon="-1.46705">
        <ele>83</ele>
        <time>2022-08-07T08:05:57Z</time>
      </trkpt>
      <trkpt lat="47.16954" lon="-1.4669">
        <ele>83</ele>
        <time>2022-08-07T08:05:59Z</time>
      </trkpt>
      <trkpt lat="47.16957" lon="-1.46676">
        <ele>83</ele>
        <time>2022-08-07T08:06:01Z</time>
      </trkpt>
      <trkpt lat="47.16967" lon="-1.46669">
        <ele>83</ele>
        <time>2022-08-07T08:06:03Z</time>
      </trkpt>
      <trkpt lat="47.16977" lon="-1.46676">
        <ele>84</ele>
        <time>2022-08-07T08:06:05Z</time>
      </trkpt>
      <trkpt lat="47.16986" lon="-1.46689">
        <ele>84</ele>
        <time>2022-08-07T08:06:07Z</time>
      </trkpt>
      <trkpt lat="47.16995" lon="-1.46701">
        <ele>83</ele>
        <time>2022-08-07T08:06:09Z</time>
      </trkpt>
      <trkpt lat="47.17006" lon="-1.46709">
        <ele>83</ele>
        <time>2022-08-07T08:06:11Z</time>
      </trkpt>
      <trkpt lat="47.17018" lon="-1.46717">
        <ele>83</ele>
        <time>2022-08-07T08:06:13Z</time>
      </trkpt>
      <trkpt lat="47.17029" lon="-1.46727">
        <ele>82</ele>
        <time>2022-08-07T08:06:15Z</time>
      </trkpt>
      <trkpt lat="47.17042" lon="-1.46736">
        <ele>82</ele>
        <time>2022-08-07T08:06:17Z</time>
      </trkpt>
      <trkpt lat="47.17054" lon="-1.46746">
        <ele>82</ele>
        <time>2022-08-07T08:06:19Z</time>
      </trkpt>
      <trkpt lat="47.17066" lon="-1.46756">
        <ele>81</ele>
        <time>2022-08-07T08:06:21Z</time>
      </trkpt>
      <trkpt lat="47.17078" lon="-1.46768">
        <ele>81</ele>
        <time>2022-08-07T08:06:23Z</time>
      </trkpt>
      <trkpt lat="47.17091" lon="-1.46781">
        <ele>80</ele>
        <time>2022-08-07T08:06:25Z</time>
      </trkpt>
      <trkpt lat="47.17104" lon="-1.46795">
        <ele>80</ele>
        <time>2022-08-07T08:06:27Z</time>
      </trkpt>
      <trkpt lat="47.17117" lon="-1.46805">
        <ele>79</ele>
        <time>2022-08-07T08:06:29Z</time>
      </trkpt>
      <trkpt lat="47.1713" lon="-1.46799">
        <ele>79</ele>
        <time>2022-08-07T08:06:31Z</time>
      </trkpt>
      <trkpt lat="47.1714" lon="-1.46781">
        <ele>78</ele>
        <time>2022-08-07T08:06:33Z</time>
      </trkpt>
      <trkpt lat="47.17148" lon="-1.46765">
        <ele>76</ele>
        <time>2022-08-07T08:06:35Z</time>
      </trkpt>
      <trkpt lat="47.17155" lon="-1.4675">
        <ele>76</ele>
        <time>2022-08-07T08:06:37Z</time>
      </trkpt>
      <trkpt lat="47.17162" lon="-1.46736">
        <ele>75</ele>
        <time>2022-08-07T08:06:39Z</time>
      </trkpt>
      <trkpt lat="47.17168" lon="-1.46722">
        <ele>75</ele>
        <time>2022-08-07T08:06:41Z</time>
      </trkpt>
      <trkpt lat="47.17175" lon="-1.46709">
        <ele>75</ele>
        <time>2022-08-07T08:06:43Z</time>
      </trkpt>
      <trkpt lat="47.17183" lon="-1.46697">
        <ele>75</ele>
        <time>2022-08-07T08:06:45Z</time>
      </trkpt>
      <trkpt lat="47.17192" lon="-1.46687">
        <ele>75</ele>
        <time>2022-08-07T08:06:47Z</time>
      </trkpt>
      <trkpt lat="47.17202" lon="-1.46677">
        <ele>75</ele>
        <time>2022-08-07T08:06:49Z</time>
      </trkpt>
      <trkpt lat="47.17211" lon="-1.46665">
        <ele>75</ele>
        <time>2022-08-07T08:06:51Z</time>
      </trkpt>
      <trkpt lat="47.17221" lon="-1.46654">
        <ele>75</ele>
        <time>2022-08-07T08:06:53Z</time>
      </trkpt>
      <trkpt lat="47.1723" lon="-1.46643">
        <ele>75</ele>
        <time>2022-08-07T08:06:55Z</time>
      </trkpt>
      <trkpt lat="47.17239" lon="-1.46631">
        <ele>75</ele>
        <time>2022-08-07T08:06:57Z</time>
      </trkpt>
      <trkpt lat="47.17248" lon="-1.46619">
        <ele>75</ele>
        <time>2022-08-07T08:06:59Z</time>
      </trkpt>
      <trkpt lat="47.17257" lon="-1.46606">
        <ele>75</ele>
        <time>2022-08-07T08:07:01Z</time>
      </trkpt>
      <trkpt lat="47.17267" lon="-1.46594">
        <ele>74</ele>
        <time>2022-08-07T08:07:03Z</time>
      </trkpt>
      <trkpt lat="47.17278" lon="-1.46581">
        <ele>73</ele>
        <time>2022-08-07T08:07:05Z</time>
      </trkpt>
      <trkpt lat="47.17289" lon="-1.46571">
        <ele>72</ele>
        <time>2022-08-07T08:07:07Z</time>
      </trkpt>
      <trkpt lat="47.17302" lon="-1.46563">
        <ele>71</ele>
        <time>2022-08-07T08:07:09Z</time>
      </trkpt>
      <trkpt lat="47.17313" lon="-1.46553">
        <ele>71</ele>
        <time>2022-08-07T08:07:11Z</time>
      </trkpt>
      <trkpt lat="47.17326" lon="-1.46547">
        <ele>70</ele>
        <time>2022-08-07T08:07:13Z</time>
      </trkpt>
      <trkpt lat="47.17339" lon="-1.46544">
        <ele>70</ele>
        <time>2022-08-07T08:07:15Z</time>
      </trkpt>
      <trkpt lat="47.17352" lon="-1.46541">
        <ele>70</ele>
        <time>2022-08-07T08:07:17Z</time>
      </trkpt>
      <trkpt lat="47.17365" lon="-1.46539">
        <ele>71</ele>
        <time>2022-08-07T08:07:19Z</time>
      </trkpt>
      <trkpt lat="47.17377" lon="-1.46537">
        <ele>70</ele>
        <time>2022-08-07T08:07:21Z</time>
      </trkpt>
      <trkpt lat="47.17389" lon="-1.46534">
        <ele>70</ele>
        <time>2022-08-07T08:07:23Z</time>
      </trkpt>
      <trkpt lat="47.174" lon="-1.46532">
        <ele>70</ele>
        <time>2022-08-07T08:07:25Z</time>
      </trkpt>
      <trkpt lat="47.17412" lon="-1.4653">
        <ele>70</ele>
        <time>2022-08-07T08:07:27Z</time>
      </trkpt>
      <trkpt lat="47.17424" lon="-1.46529">
        <ele>70</ele>
        <time>2022-08-07T08:07:29Z</time>
      </trkpt>
      <trkpt lat="47.17437" lon="-1.46527">
        <ele>70</ele>
        <time>2022-08-07T08:07:31Z</time>
      </trkpt>
      <trkpt lat="47.1745" lon="-1.46526">
        <ele>69</ele>
        <time>2022-08-07T08:07:33Z</time>
      </trkpt>
      <trkpt lat="47.17462" lon="-1.46525">
        <ele>69</ele>
        <time>2022-08-07T08:07:35Z</time>
      </trkpt>
      <trkpt lat="47.17475" lon="-1.46523">
        <ele>68</ele>
        <time>2022-08-07T08:07:37Z</time>
      </trkpt>
      <trkpt lat="47.17487" lon="-1.46525">
        <ele>68</ele>
        <time>2022-08-07T08:07:39Z</time>
      </trkpt>
      <trkpt lat="47.17499" lon="-1.46522">
        <ele>67</ele>
        <time>2022-08-07T08:07:41Z</time>
      </trkpt>
      <trkpt lat="47.17509" lon="-1.46513">
        <ele>67</ele>
        <time>2022-08-07T08:07:43Z</time>
      </trkpt>
      <trkpt lat="47.17519" lon="-1.46506">
        <ele>67</ele>
        <time>2022-08-07T08:07:45Z</time>
      </trkpt>
      <trkpt lat="47.17531" lon="-1.46501">
        <ele>66</ele>
        <time>2022-08-07T08:07:47Z</time>
      </trkpt>
      <trkpt lat="47.17543" lon="-1.46494">
        <ele>66</ele>
        <time>2022-08-07T08:07:49Z</time>
      </trkpt>
      <trkpt lat="47.17556" lon="-1.4649">
        <ele>66</ele>
        <time>2022-08-07T08:07:51Z</time>
      </trkpt>
      <trkpt lat="47.17569" lon="-1.4649">
        <ele>65</ele>
        <time>2022-08-07T08:07:53Z</time>
      </trkpt>
      <trkpt lat="47.17581" lon="-1.46489">
        <ele>66</ele>
        <time>2022-08-07T08:07:55Z</time>
      </trkpt>
      <trkpt lat="47.17594" lon="-1.46483">
        <ele>65</ele>
        <time>2022-08-07T08:07:57Z</time>
      </trkpt>
      <trkpt lat="47.17605" lon="-1.46476">
        <ele>66</ele>
        <time>2022-08-07T08:07:59Z</time>
      </trkpt>
      <trkpt lat="47.17617" lon="-1.4647">
        <ele>66</ele>
        <time>2022-08-07T08:08:01Z</time>
      </trkpt>
      <trkpt lat="47.17628" lon="-1.46463">
        <ele>66</ele>
        <time>2022-08-07T08:08:03Z</time>
      </trkpt>
      <trkpt lat="47.17638" lon="-1.46455">
        <ele>66</ele>
        <time>2022-08-07T08:08:05Z</time>
      </trkpt>
      <trkpt lat="47.17649" lon="-1.46445">
        <ele>65</ele>
        <time>2022-08-07T08:08:07Z</time>
      </trkpt>
      <trkpt lat="47.17659" lon="-1.46436">
        <ele>66</ele>
        <time>2022-08-07T08:08:09Z</time>
      </trkpt>
      <trkpt lat="47.1767" lon="-1.46427">
        <ele>66</ele>
        <time>2022-08-07T08:08:11Z</time>
      </trkpt>
      <trkpt lat="47.1768" lon="-1.46418">
        <ele>66</ele>
        <time>2022-08-07T08:08:13Z</time>
      </trkpt>
      <trkpt lat="47.1769" lon="-1.46408">
        <ele>65</ele>
        <time>2022-08-07T08:08:15Z</time>
      </trkpt>
      <trkpt lat="47.17699" lon="-1.46398">
        <ele>65</ele>
        <time>2022-08-07T08:08:17Z</time>
      </trkpt>
      <trkpt lat="47.17707" lon="-1.46387">
        <ele>65</ele>
        <time>2022-08-07T08:08:19Z</time>
      </trkpt>
      <trkpt lat="47.17715" lon="-1.46376">
        <ele>65</ele>
        <time>2022-08-07T08:08:21Z</time>
      </trkpt>
      <trkpt lat="47.17723" lon="-1.46365">
        <ele>65</ele>
        <time>2022-08-07T08:08:23Z</time>
      </trkpt>
      <trkpt lat="47.17729" lon="-1.46352">
        <ele>66</ele>
        <time>2022-08-07T08:08:25Z</time>
      </trkpt>
      <trkpt lat="47.17735" lon="-1.46338">
        <ele>66</ele>
        <time>2022-08-07T08:08:27Z</time>
      </trkpt>
      <trkpt lat="47.17742" lon="-1.46328">
        <ele>66</ele>
        <time>2022-08-07T08:08:29Z</time>
      </trkpt>
      <trkpt lat="47.17752" lon="-1.46322">
        <ele>66</ele>
        <time>2022-08-07T08:08:31Z</time>
      </trkpt>
      <trkpt lat="47.17763" lon="-1.46317">
        <ele>66</ele>
        <time>2022-08-07T08:08:33Z</time>
      </trkpt>
      <trkpt lat="47.17774" lon="-1.46308">
        <ele>66</ele>
        <time>2022-08-07T08:08:35Z</time>
      </trkpt>
      <trkpt lat="47.17782" lon="-1.46297">
        <ele>66</ele>
        <time>2022-08-07T08:08:37Z</time>
      </trkpt>
      <trkpt lat="47.1779" lon="-1.46284">
        <ele>66</ele>
        <time>2022-08-07T08:08:39Z</time>
      </trkpt>
      <trkpt lat="47.17797" lon="-1.46272">
        <ele>67</ele>
        <time>2022-08-07T08:08:41Z</time>
      </trkpt>
      <trkpt lat="47.17804" lon="-1.46258">
        <ele>67</ele>
        <time>2022-08-07T08:08:43Z</time>
      </trkpt>
      <trkpt lat="47.17811" lon="-1.46245">
        <ele>66</ele>
        <time>2022-08-07T08:08:45Z</time>
      </trkpt>
      <trkpt lat="47.17817" lon="-1.46232">
        <ele>66</ele>
        <time>2022-08-07T08:08:47Z</time>
      </trkpt>
      <trkpt lat="47.17823" lon="-1.46218">
        <ele>66</ele>
        <time>2022-08-07T08:08:49Z</time>
      </trkpt>
      <trkpt lat="47.17829" lon="-1.46205">
        <ele>66</ele>
        <time>2022-08-07T08:08:51Z</time>
      </trkpt>
      <trkpt lat="47.17834" lon="-1.46191">
        <ele>66</ele>
        <time>2022-08-07T08:08:53Z</time>
      </trkpt>
      <trkpt lat="47.17838" lon="-1.46177">
        <ele>66</ele>
        <time>2022-08-07T08:08:55Z</time>
      </trkpt>
      <trkpt lat="47.1784" lon="-1.46162">
        <ele>66</ele>
        <time>2022-08-07T08:08:57Z</time>
      </trkpt>
      <trkpt lat="47.17842" lon="-1.46146">
        <ele>66</ele>
        <time>2022-08-07T08:08:59Z</time>
      </trkpt>
      <trkpt lat="47.17848" lon="-1.46133">
        <ele>66</ele>
        <time>2022-08-07T08:09:01Z</time>
      </trkpt>
      <trkpt lat="47.17855" lon="-1.46121">
        <ele>66</ele>
        <time>2022-08-07T08:09:03Z</time>
      </trkpt>
      <trkpt lat="47.17863" lon="-1.4611">
        <ele>67</ele>
        <time>2022-08-07T08:09:05Z</time>
      </trkpt>
      <trkpt lat="47.1787" lon="-1.46099">
        <ele>67</ele>
        <time>2022-08-07T08:09:07Z</time>
      </trkpt>
      <trkpt lat="47.17877" lon="-1.46086">
        <ele>66</ele>
        <time>2022-08-07T08:09:09Z</time>
      </trkpt>
      <trkpt lat="47.17882" lon="-1.46072">
        <ele>67</ele>
        <time>2022-08-07T08:09:11Z</time>
      </trkpt>
      <trkpt lat="47.17888" lon="-1.46059">
        <ele>67</ele>
        <time>2022-08-07T08:09:13Z</time>
      </trkpt>
      <trkpt lat="47.17893" lon="-1.46046">
        <ele>67</ele>
        <time>2022-08-07T08:09:15Z</time>
      </trkpt>
      <trkpt lat="47.17898" lon="-1.46034">
        <ele>67</ele>
        <time>2022-08-07T08:09:17Z</time>
      </trkpt>
      <trkpt lat="47.17903" lon="-1.46022">
        <ele>67</ele>
        <time>2022-08-07T08:09:19Z</time>
      </trkpt>
      <trkpt lat="47.17908" lon="-1.46011">
        <ele>67</ele>
        <time>2022-08-07T08:09:21Z</time>
      </trkpt>
      <trkpt lat="47.17913" lon="-1.45999">
        <ele>67</ele>
        <time>2022-08-07T08:09:23Z</time>
      </trkpt>
      <trkpt lat="47.17919" lon="-1.45987">
        <ele>68</ele>
        <time>2022-08-07T08:09:25Z</time>
      </trkpt>
      <trkpt lat="47.17925" lon="-1.45975">
        <ele>68</ele>
        <time>2022-08-07T08:09:27Z</time>
      </trkpt>
      <trkpt lat="47.17932" lon="-1.45963">
        <ele>68</ele>
        <time>2022-08-07T08:09:29Z</time>
      </trkpt>
      <trkpt lat="47.17938" lon="-1.45952">
        <ele>67</ele>
        <time>2022-08-07T08:09:31Z</time>
      </trkpt>
      <trkpt lat="47.17945" lon="-1.45941">
        <ele>68</ele>
        <time>2022-08-07T08:09:33Z</time>
      </trkpt>
      <trkpt lat="47.17951" lon="-1.4593">
        <ele>68</ele>
        <time>2022-08-07T08:09:35Z</time>
      </trkpt>
      <trkpt lat="47.17957" lon="-1.4592">
        <ele>68</ele>
        <time>2022-08-07T08:09:37Z</time>
      </trkpt>
      <trkpt lat="47.17964" lon="-1.45911">
        <ele>68</ele>
        <time>2022-08-07T08:09:39Z</time>
      </trkpt>
      <trkpt lat="47.17971" lon="-1.45902">
        <ele>68</ele>
        <time>2022-08-07T08:09:41Z</time>
      </trkpt>
      <trkpt lat="47.17979" lon="-1.45893">
        <ele>68</ele>
        <time>2022-08-07T08:09:43Z</time>
      </trkpt>
      <trkpt lat="47.17986" lon="-1.45883">
        <ele>68</ele>
        <time>2022-08-07T08:09:45Z</time>
      </trkpt>
      <trkpt lat="47.17994" lon="-1.45874">
        <ele>69</ele>
        <time>2022-08-07T08:09:47Z</time>
      </trkpt>
      <trkpt lat="47.18002" lon="-1.45865">
        <ele>69</ele>
        <time>2022-08-07T08:09:49Z</time>
      </trkpt>
      <trkpt lat="47.1801" lon="-1.45855">
        <ele>69</ele>
        <time>2022-08-07T08:09:51Z</time>
      </trkpt>
      <trkpt lat="47.18018" lon="-1.45846">
        <ele>69</ele>
        <time>2022-08-07T08:09:53Z</time>
      </trkpt>
      <trkpt lat="47.18026" lon="-1.45836">
        <ele>69</ele>
        <time>2022-08-07T08:09:55Z</time>
      </trkpt>
      <trkpt lat="47.18034" lon="-1.45827">
        <ele>69</ele>
        <time>2022-08-07T08:09:57Z</time>
      </trkpt>
      <trkpt lat="47.18042" lon="-1.45819">
        <ele>69</ele>
        <time>2022-08-07T08:09:59Z</time>
      </trkpt>
      <trkpt lat="47.1805" lon="-1.4581">
        <ele>69</ele>
        <time>2022-08-07T08:10:01Z</time>
      </trkpt>
      <trkpt lat="47.18058" lon="-1.45802">
        <ele>70</ele>
        <time>2022-08-07T08:10:03Z</time>
      </trkpt>
      <trkpt lat="47.18066" lon="-1.45794">
        <ele>70</ele>
        <time>2022-08-07T08:10:05Z</time>
      </trkpt>
      <trkpt lat="47.18074" lon="-1.45786">
        <ele>71</ele>
        <time>2022-08-07T08:10:07Z</time>
      </trkpt>
      <trkpt lat="47.18082" lon="-1.45778">
        <ele>71</ele>
        <time>2022-08-07T08:10:09Z</time>
      </trkpt>
      <trkpt lat="47.18091" lon="-1.4577">
        <ele>72</ele>
        <time>2022-08-07T08:10:11Z</time>
      </trkpt>
      <trkpt lat="47.181" lon="-1.45763">
        <ele>72</ele>
        <time>2022-08-07T08:10:13Z</time>
      </trkpt>
      <trkpt lat="47.18109" lon="-1.45756">
        <ele>72</ele>
        <time>2022-08-07T08:10:15Z</time>
      </trkpt>
      <trkpt lat="47.18118" lon="-1.45749">
        <ele>73</ele>
        <time>2022-08-07T08:10:17Z</time>
      </trkpt>
      <trkpt lat="47.18127" lon="-1.45742">
        <ele>73</ele>
        <time>2022-08-07T08:10:19Z</time>
      </trkpt>
      <trkpt lat="47.18137" lon="-1.45735">
        <ele>73</ele>
        <time>2022-08-07T08:10:21Z</time>
      </trkpt>
      <trkpt lat="47.18145" lon="-1.45728">
        <ele>73</ele>
        <time>2022-08-07T08:10:23Z</time>
      </trkpt>
      <trkpt lat="47.18154" lon="-1.45722">
        <ele>73</ele>
        <time>2022-08-07T08:10:25Z</time>
      </trkpt>
      <trkpt lat="47.18163" lon="-1.45715">
        <ele>74</ele>
        <time>2022-08-07T08:10:27Z</time>
      </trkpt>
      <trkpt lat="47.18171" lon="-1.45709">
        <ele>74</ele>
        <time>2022-08-07T08:10:29Z</time>
      </trkpt>
      <trkpt lat="47.1818" lon="-1.45702">
        <ele>74</ele>
        <time>2022-08-07T08:10:31Z</time>
      </trkpt>
      <trkpt lat="47.18188" lon="-1.45696">
        <ele>74</ele>
        <time>2022-08-07T08:10:33Z</time>
      </trkpt>
      <trkpt lat="47.18196" lon="-1.4569">
        <ele>74</ele>
        <time>2022-08-07T08:10:35Z</time>
      </trkpt>
      <trkpt lat="47.18208" lon="-1.45681">
        <ele>75</ele>
        <time>2022-08-07T08:10:38Z</time>
      </trkpt>
      <trkpt lat="47.18216" lon="-1.45675">
        <ele>75</ele>
        <time>2022-08-07T08:10:40Z</time>
      </trkpt>
      <trkpt lat="47.18224" lon="-1.45668">
        <ele>75</ele>
        <time>2022-08-07T08:10:42Z</time>
      </trkpt>
      <trkpt lat="47.18236" lon="-1.4566">
        <ele>76</ele>
        <time>2022-08-07T08:10:45Z</time>
      </trkpt>
      <trkpt lat="47.18247" lon="-1.4565">
        <ele>76</ele>
        <time>2022-08-07T08:10:48Z</time>
      </trkpt>
      <trkpt lat="47.18259" lon="-1.45641">
        <ele>77</ele>
        <time>2022-08-07T08:10:51Z</time>
      </trkpt>
      <trkpt lat="47.18268" lon="-1.45635">
        <ele>77</ele>
        <time>2022-08-07T08:10:53Z</time>
      </trkpt>
      <trkpt lat="47.1828" lon="-1.45626">
        <ele>78</ele>
        <time>2022-08-07T08:10:56Z</time>
      </trkpt>
      <trkpt lat="47.18288" lon="-1.4562">
        <ele>78</ele>
        <time>2022-08-07T08:10:58Z</time>
      </trkpt>
      <trkpt lat="47.18299" lon="-1.45611">
        <ele>79</ele>
        <time>2022-08-07T08:11:01Z</time>
      </trkpt>
      <trkpt lat="47.18311" lon="-1.45603">
        <ele>80</ele>
        <time>2022-08-07T08:11:04Z</time>
      </trkpt>
      <trkpt lat="47.18323" lon="-1.45595">
        <ele>81</ele>
        <time>2022-08-07T08:11:07Z</time>
      </trkpt>
      <trkpt lat="47.18334" lon="-1.45587">
        <ele>81</ele>
        <time>2022-08-07T08:11:10Z</time>
      </trkpt>
      <trkpt lat="47.18342" lon="-1.45581">
        <ele>82</ele>
        <time>2022-08-07T08:11:12Z</time>
      </trkpt>
      <trkpt lat="47.18354" lon="-1.45572">
        <ele>82</ele>
        <time>2022-08-07T08:11:15Z</time>
      </trkpt>
      <trkpt lat="47.18366" lon="-1.45563">
        <ele>83</ele>
        <time>2022-08-07T08:11:18Z</time>
      </trkpt>
      <trkpt lat="47.18377" lon="-1.45552">
        <ele>83</ele>
        <time>2022-08-07T08:11:21Z</time>
      </trkpt>
      <trkpt lat="47.18385" lon="-1.45544">
        <ele>82</ele>
        <time>2022-08-07T08:11:23Z</time>
      </trkpt>
      <trkpt lat="47.18392" lon="-1.45535">
        <ele>83</ele>
        <time>2022-08-07T08:11:25Z</time>
      </trkpt>
      <trkpt lat="47.18401" lon="-1.45531">
        <ele>83</ele>
        <time>2022-08-07T08:11:27Z</time>
      </trkpt>
      <trkpt lat="47.18411" lon="-1.45529">
        <ele>83</ele>
        <time>2022-08-07T08:11:29Z</time>
      </trkpt>
      <trkpt lat="47.18423" lon="-1.45524">
        <ele>84</ele>
        <time>2022-08-07T08:11:32Z</time>
      </trkpt>
      <trkpt lat="47.18434" lon="-1.45519">
        <ele>84</ele>
        <time>2022-08-07T08:11:35Z</time>
      </trkpt>
      <trkpt lat="47.18445" lon="-1.45515">
        <ele>85</ele>
        <time>2022-08-07T08:11:38Z</time>
      </trkpt>
      <trkpt lat="47.18456" lon="-1.45512">
        <ele>87</ele>
        <time>2022-08-07T08:11:41Z</time>
      </trkpt>
      <trkpt lat="47.18467" lon="-1.4551">
        <ele>87</ele>
        <time>2022-08-07T08:11:44Z</time>
      </trkpt>
      <trkpt lat="47.18479" lon="-1.45509">
        <ele>88</ele>
        <time>2022-08-07T08:11:47Z</time>
      </trkpt>
      <trkpt lat="47.18491" lon="-1.45507">
        <ele>88</ele>
        <time>2022-08-07T08:11:50Z</time>
      </trkpt>
      <trkpt lat="47.18502" lon="-1.45504">
        <ele>89</ele>
        <time>2022-08-07T08:11:53Z</time>
      </trkpt>
      <trkpt lat="47.18513" lon="-1.45501">
        <ele>90</ele>
        <time>2022-08-07T08:11:56Z</time>
      </trkpt>
      <trkpt lat="47.18524" lon="-1.45495">
        <ele>90</ele>
        <time>2022-08-07T08:11:59Z</time>
      </trkpt>
      <trkpt lat="47.18532" lon="-1.45483">
        <ele>90</ele>
        <time>2022-08-07T08:12:02Z</time>
      </trkpt>
      <trkpt lat="47.18545" lon="-1.45477">
        <ele>90</ele>
        <time>2022-08-07T08:12:05Z</time>
      </trkpt>
      <trkpt lat="47.18555" lon="-1.45482">
        <ele>90</ele>
        <time>2022-08-07T08:12:07Z</time>
      </trkpt>
      <trkpt lat="47.18563" lon="-1.45493">
        <ele>91</ele>
        <time>2022-08-07T08:12:09Z</time>
      </trkpt>
      <trkpt lat="47.18565" lon="-1.45507">
        <ele>91</ele>
        <time>2022-08-07T08:12:11Z</time>
      </trkpt>
      <trkpt lat="47.18562" lon="-1.45523">
        <ele>91</ele>
        <time>2022-08-07T08:12:13Z</time>
      </trkpt>
      <trkpt lat="47.18557" lon="-1.45538">
        <ele>91</ele>
        <time>2022-08-07T08:12:15Z</time>
      </trkpt>
      <trkpt lat="47.18558" lon="-1.45555">
        <ele>91</ele>
        <time>2022-08-07T08:12:17Z</time>
      </trkpt>
      <trkpt lat="47.18558" lon="-1.45573">
        <ele>91</ele>
        <time>2022-08-07T08:12:19Z</time>
      </trkpt>
      <trkpt lat="47.18559" lon="-1.4559">
        <ele>91</ele>
        <time>2022-08-07T08:12:21Z</time>
      </trkpt>
      <trkpt lat="47.18559" lon="-1.45606">
        <ele>91</ele>
        <time>2022-08-07T08:12:23Z</time>
      </trkpt>
      <trkpt lat="47.18561" lon="-1.45622">
        <ele>91</ele>
        <time>2022-08-07T08:12:25Z</time>
      </trkpt>
      <trkpt lat="47.18562" lon="-1.45639">
        <ele>91</ele>
        <time>2022-08-07T08:12:27Z</time>
      </trkpt>
      <trkpt lat="47.18564" lon="-1.45655">
        <ele>91</ele>
        <time>2022-08-07T08:12:29Z</time>
      </trkpt>
      <trkpt lat="47.18565" lon="-1.45672">
        <ele>92</ele>
        <time>2022-08-07T08:12:31Z</time>
      </trkpt>
      <trkpt lat="47.18567" lon="-1.45689">
        <ele>92</ele>
        <time>2022-08-07T08:12:33Z</time>
      </trkpt>
      <trkpt lat="47.18569" lon="-1.45705">
        <ele>92</ele>
        <time>2022-08-07T08:12:35Z</time>
      </trkpt>
      <trkpt lat="47.1857" lon="-1.45723">
        <ele>92</ele>
        <time>2022-08-07T08:12:37Z</time>
      </trkpt>
      <trkpt lat="47.18572" lon="-1.4574">
        <ele>92</ele>
        <time>2022-08-07T08:12:39Z</time>
      </trkpt>
      <trkpt lat="47.18573" lon="-1.45756">
        <ele>93</ele>
        <time>2022-08-07T08:12:41Z</time>
      </trkpt>
      <trkpt lat="47.18575" lon="-1.45773">
        <ele>92</ele>
        <time>2022-08-07T08:12:43Z</time>
      </trkpt>
      <trkpt lat="47.18577" lon="-1.4579">
        <ele>92</ele>
        <time>2022-08-07T08:12:45Z</time>
      </trkpt>
      <trkpt lat="47.18578" lon="-1.45807">
        <ele>92</ele>
        <time>2022-08-07T08:12:47Z</time>
      </trkpt>
      <trkpt lat="47.1858" lon="-1.45824">
        <ele>93</ele>
        <time>2022-08-07T08:12:49Z</time>
      </trkpt>
      <trkpt lat="47.18582" lon="-1.45841">
        <ele>92</ele>
        <time>2022-08-07T08:12:51Z</time>
      </trkpt>
      <trkpt lat="47.18583" lon="-1.45859">
        <ele>92</ele>
        <time>2022-08-07T08:12:53Z</time>
      </trkpt>
      <trkpt lat="47.18584" lon="-1.45877">
        <ele>92</ele>
        <time>2022-08-07T08:12:55Z</time>
      </trkpt>
      <trkpt lat="47.18585" lon="-1.45895">
        <ele>92</ele>
        <time>2022-08-07T08:12:57Z</time>
      </trkpt>
      <trkpt lat="47.18586" lon="-1.45913">
        <ele>92</ele>
        <time>2022-08-07T08:12:59Z</time>
      </trkpt>
      <trkpt lat="47.18587" lon="-1.45932">
        <ele>92</ele>
        <time>2022-08-07T08:13:01Z</time>
      </trkpt>
      <trkpt lat="47.18588" lon="-1.45951">
        <ele>92</ele>
        <time>2022-08-07T08:13:03Z</time>
      </trkpt>
      <trkpt lat="47.1859" lon="-1.45971">
        <ele>91</ele>
        <time>2022-08-07T08:13:05Z</time>
      </trkpt>
      <trkpt lat="47.18591" lon="-1.4599">
        <ele>91</ele>
        <time>2022-08-07T08:13:07Z</time>
      </trkpt>
      <trkpt lat="47.18592" lon="-1.4601">
        <ele>91</ele>
        <time>2022-08-07T08:13:09Z</time>
      </trkpt>
      <trkpt lat="47.18593" lon="-1.46031">
        <ele>90</ele>
        <time>2022-08-07T08:13:11Z</time>
      </trkpt>
      <trkpt lat="47.18594" lon="-1.46051">
        <ele>90</ele>
        <time>2022-08-07T08:13:13Z</time>
      </trkpt>
      <trkpt lat="47.18596" lon="-1.46071">
        <ele>89</ele>
        <time>2022-08-07T08:13:15Z</time>
      </trkpt>
      <trkpt lat="47.18597" lon="-1.46092">
        <ele>89</ele>
        <time>2022-08-07T08:13:17Z</time>
      </trkpt>
      <trkpt lat="47.18598" lon="-1.46113">
        <ele>89</ele>
        <time>2022-08-07T08:13:19Z</time>
      </trkpt>
      <trkpt lat="47.186" lon="-1.46134">
        <ele>89</ele>
        <time>2022-08-07T08:13:21Z</time>
      </trkpt>
      <trkpt lat="47.18601" lon="-1.46155">
        <ele>88</ele>
        <time>2022-08-07T08:13:23Z</time>
      </trkpt>
      <trkpt lat="47.18602" lon="-1.46177">
        <ele>88</ele>
        <time>2022-08-07T08:13:25Z</time>
      </trkpt>
      <trkpt lat="47.18603" lon="-1.46198">
        <ele>88</ele>
        <time>2022-08-07T08:13:27Z</time>
      </trkpt>
      <trkpt lat="47.18605" lon="-1.46219">
        <ele>88</ele>
        <time>2022-08-07T08:13:29Z</time>
      </trkpt>
      <trkpt lat="47.18606" lon="-1.46242">
        <ele>87</ele>
        <time>2022-08-07T08:13:31Z</time>
      </trkpt>
      <trkpt lat="47.18607" lon="-1.46264">
        <ele>87</ele>
        <time>2022-08-07T08:13:33Z</time>
      </trkpt>
      <trkpt lat="47.18608" lon="-1.46285">
        <ele>87</ele>
        <time>2022-08-07T08:13:35Z</time>
      </trkpt>
      <trkpt lat="47.18612" lon="-1.46305">
        <ele>87</ele>
        <time>2022-08-07T08:13:37Z</time>
      </trkpt>
      <trkpt lat="47.18622" lon="-1.46319">
        <ele>86</ele>
        <time>2022-08-07T08:13:39Z</time>
      </trkpt>
      <trkpt lat="47.18634" lon="-1.46326">
        <ele>86</ele>
        <time>2022-08-07T08:13:41Z</time>
      </trkpt>
      <trkpt lat="47.18647" lon="-1.46327">
        <ele>85</ele>
        <time>2022-08-07T08:13:43Z</time>
      </trkpt>
      <trkpt lat="47.18661" lon="-1.46327">
        <ele>86</ele>
        <time>2022-08-07T08:13:45Z</time>
      </trkpt>
      <trkpt lat="47.18673" lon="-1.46326">
        <ele>86</ele>
        <time>2022-08-07T08:13:47Z</time>
      </trkpt>
      <trkpt lat="47.18685" lon="-1.46324">
        <ele>86</ele>
        <time>2022-08-07T08:13:49Z</time>
      </trkpt>
      <trkpt lat="47.18696" lon="-1.4632">
        <ele>85</ele>
        <time>2022-08-07T08:13:51Z</time>
      </trkpt>
      <trkpt lat="47.18706" lon="-1.46315">
        <ele>86</ele>
        <time>2022-08-07T08:13:53Z</time>
      </trkpt>
      <trkpt lat="47.18714" lon="-1.46331">
        <ele>86</ele>
        <time>2022-08-07T08:13:56Z</time>
      </trkpt>
      <trkpt lat="47.18714" lon="-1.46348">
        <ele>86</ele>
        <time>2022-08-07T08:13:58Z</time>
      </trkpt>
      <trkpt lat="47.18717" lon="-1.46364">
        <ele>86</ele>
        <time>2022-08-07T08:14:00Z</time>
      </trkpt>
      <trkpt lat="47.18722" lon="-1.4638">
        <ele>86</ele>
        <time>2022-08-07T08:14:02Z</time>
      </trkpt>
      <trkpt lat="47.18732" lon="-1.46391">
        <ele>86</ele>
        <time>2022-08-07T08:14:04Z</time>
      </trkpt>
      <trkpt lat="47.18744" lon="-1.46394">
        <ele>86</ele>
        <time>2022-08-07T08:14:06Z</time>
      </trkpt>
      <trkpt lat="47.18756" lon="-1.46393">
        <ele>85</ele>
        <time>2022-08-07T08:14:08Z</time>
      </trkpt>
      <trkpt lat="47.18768" lon="-1.46392">
        <ele>85</ele>
        <time>2022-08-07T08:14:10Z</time>
      </trkpt>
      <trkpt lat="47.1878" lon="-1.4639">
        <ele>86</ele>
        <time>2022-08-07T08:14:12Z</time>
      </trkpt>
      <trkpt lat="47.18793" lon="-1.46389">
        <ele>85</ele>
        <time>2022-08-07T08:14:14Z</time>
      </trkpt>
      <trkpt lat="47.18805" lon="-1.4639">
        <ele>85</ele>
        <time>2022-08-07T08:14:16Z</time>
      </trkpt>
      <trkpt lat="47.18815" lon="-1.46393">
        <ele>86</ele>
        <time>2022-08-07T08:14:18Z</time>
      </trkpt>
      <trkpt lat="47.18825" lon="-1.464">
        <ele>86</ele>
        <time>2022-08-07T08:14:20Z</time>
      </trkpt>
      <trkpt lat="47.18836" lon="-1.46407">
        <ele>85</ele>
        <time>2022-08-07T08:14:22Z</time>
      </trkpt>
      <trkpt lat="47.18847" lon="-1.46414">
        <ele>85</ele>
        <time>2022-08-07T08:14:24Z</time>
      </trkpt>
      <trkpt lat="47.18859" lon="-1.46423">
        <ele>85</ele>
        <time>2022-08-07T08:14:26Z</time>
      </trkpt>
      <trkpt lat="47.1887" lon="-1.46431">
        <ele>84</ele>
        <time>2022-08-07T08:14:28Z</time>
      </trkpt>
      <trkpt lat="47.18882" lon="-1.46439">
        <ele>84</ele>
        <time>2022-08-07T08:14:30Z</time>
      </trkpt>
      <trkpt lat="47.18892" lon="-1.46448">
        <ele>85</ele>
        <time>2022-08-07T08:14:32Z</time>
      </trkpt>
      <trkpt lat="47.18904" lon="-1.46457">
        <ele>84</ele>
        <time>2022-08-07T08:14:34Z</time>
      </trkpt>
      <trkpt lat="47.18915" lon="-1.46464">
        <ele>84</ele>
        <time>2022-08-07T08:14:36Z</time>
      </trkpt>
      <trkpt lat="47.18927" lon="-1.46472">
        <ele>84</ele>
        <time>2022-08-07T08:14:38Z</time>
      </trkpt>
      <trkpt lat="47.18938" lon="-1.4648">
        <ele>84</ele>
        <time>2022-08-07T08:14:40Z</time>
      </trkpt>
      <trkpt lat="47.18949" lon="-1.46489">
        <ele>84</ele>
        <time>2022-08-07T08:14:42Z</time>
      </trkpt>
      <trkpt lat="47.1896" lon="-1.46497">
        <ele>83</ele>
        <time>2022-08-07T08:14:44Z</time>
      </trkpt>
      <trkpt lat="47.18971" lon="-1.46505">
        <ele>83</ele>
        <time>2022-08-07T08:14:46Z</time>
      </trkpt>
      <trkpt lat="47.18982" lon="-1.46513">
        <ele>84</ele>
        <time>2022-08-07T08:14:48Z</time>
      </trkpt>
      <trkpt lat="47.18993" lon="-1.46522">
        <ele>84</ele>
        <time>2022-08-07T08:14:50Z</time>
      </trkpt>
      <trkpt lat="47.19004" lon="-1.46529">
        <ele>84</ele>
        <time>2022-08-07T08:14:52Z</time>
      </trkpt>
      <trkpt lat="47.19016" lon="-1.46538">
        <ele>84</ele>
        <time>2022-08-07T08:14:54Z</time>
      </trkpt>
      <trkpt lat="47.19028" lon="-1.46546">
        <ele>84</ele>
        <time>2022-08-07T08:14:56Z</time>
      </trkpt>
      <trkpt lat="47.19039" lon="-1.46554">
        <ele>84</ele>
        <time>2022-08-07T08:14:58Z</time>
      </trkpt>
      <trkpt lat="47.1905" lon="-1.46562">
        <ele>84</ele>
        <time>2022-08-07T08:15:00Z</time>
      </trkpt>
      <trkpt lat="47.19062" lon="-1.4657">
        <ele>85</ele>
        <time>2022-08-07T08:15:02Z</time>
      </trkpt>
      <trkpt lat="47.19074" lon="-1.46579">
        <ele>85</ele>
        <time>2022-08-07T08:15:04Z</time>
      </trkpt>
      <trkpt lat="47.19086" lon="-1.46587">
        <ele>85</ele>
        <time>2022-08-07T08:15:06Z</time>
      </trkpt>
      <trkpt lat="47.19098" lon="-1.46595">
        <ele>85</ele>
        <time>2022-08-07T08:15:08Z</time>
      </trkpt>
      <trkpt lat="47.19109" lon="-1.46604">
        <ele>85</ele>
        <time>2022-08-07T08:15:10Z</time>
      </trkpt>
      <trkpt lat="47.19121" lon="-1.46612">
        <ele>85</ele>
        <time>2022-08-07T08:15:12Z</time>
      </trkpt>
      <trkpt lat="47.19131" lon="-1.46621">
        <ele>85</ele>
        <time>2022-08-07T08:15:14Z</time>
      </trkpt>
      <trkpt lat="47.19142" lon="-1.46629">
        <ele>85</ele>
        <time>2022-08-07T08:15:16Z</time>
      </trkpt>
      <trkpt lat="47.19152" lon="-1.46637">
        <ele>84</ele>
        <time>2022-08-07T08:15:18Z</time>
      </trkpt>
      <trkpt lat="47.19164" lon="-1.46645">
        <ele>84</ele>
        <time>2022-08-07T08:15:20Z</time>
      </trkpt>
      <trkpt lat="47.19173" lon="-1.46652">
        <ele>84</ele>
        <time>2022-08-07T08:15:22Z</time>
      </trkpt>
      <trkpt lat="47.19182" lon="-1.46658">
        <ele>84</ele>
        <time>2022-08-07T08:15:24Z</time>
      </trkpt>
      <trkpt lat="47.19193" lon="-1.46657">
        <ele>84</ele>
        <time>2022-08-07T08:15:29Z</time>
      </trkpt>
      <trkpt lat="47.19199" lon="-1.46644">
        <ele>84</ele>
        <time>2022-08-07T08:15:32Z</time>
      </trkpt>
      <trkpt lat="47.19205" lon="-1.46632">
        <ele>84</ele>
        <time>2022-08-07T08:15:34Z</time>
      </trkpt>
      <trkpt lat="47.19211" lon="-1.4662">
        <ele>84</ele>
        <time>2022-08-07T08:15:36Z</time>
      </trkpt>
      <trkpt lat="47.19218" lon="-1.46606">
        <ele>84</ele>
        <time>2022-08-07T08:15:38Z</time>
      </trkpt>
      <trkpt lat="47.19225" lon="-1.46591">
        <ele>84</ele>
        <time>2022-08-07T08:15:40Z</time>
      </trkpt>
      <trkpt lat="47.19233" lon="-1.46575">
        <ele>84</ele>
        <time>2022-08-07T08:15:42Z</time>
      </trkpt>
      <trkpt lat="47.1924" lon="-1.46559">
        <ele>84</ele>
        <time>2022-08-07T08:15:44Z</time>
      </trkpt>
      <trkpt lat="47.19247" lon="-1.46543">
        <ele>84</ele>
        <time>2022-08-07T08:15:46Z</time>
      </trkpt>
      <trkpt lat="47.19255" lon="-1.46527">
        <ele>83</ele>
        <time>2022-08-07T08:15:48Z</time>
      </trkpt>
      <trkpt lat="47.19262" lon="-1.46512">
        <ele>83</ele>
        <time>2022-08-07T08:15:50Z</time>
      </trkpt>
      <trkpt lat="47.19269" lon="-1.46497">
        <ele>83</ele>
        <time>2022-08-07T08:15:52Z</time>
      </trkpt>
      <trkpt lat="47.19276" lon="-1.46482">
        <ele>83</ele>
        <time>2022-08-07T08:15:54Z</time>
      </trkpt>
      <trkpt lat="47.19283" lon="-1.46468">
        <ele>83</ele>
        <time>2022-08-07T08:15:56Z</time>
      </trkpt>
      <trkpt lat="47.1929" lon="-1.46453">
        <ele>83</ele>
        <time>2022-08-07T08:15:58Z</time>
      </trkpt>
      <trkpt lat="47.19296" lon="-1.46439">
        <ele>83</ele>
        <time>2022-08-07T08:16:00Z</time>
      </trkpt>
      <trkpt lat="47.19303" lon="-1.46425">
        <ele>83</ele>
        <time>2022-08-07T08:16:02Z</time>
      </trkpt>
      <trkpt lat="47.1931" lon="-1.46411">
        <ele>83</ele>
        <time>2022-08-07T08:16:04Z</time>
      </trkpt>
      <trkpt lat="47.19317" lon="-1.46396">
        <ele>83</ele>
        <time>2022-08-07T08:16:06Z</time>
      </trkpt>
      <trkpt lat="47.19324" lon="-1.46381">
        <ele>82</ele>
        <time>2022-08-07T08:16:08Z</time>
      </trkpt>
      <trkpt lat="47.1933" lon="-1.46366">
        <ele>82</ele>
        <time>2022-08-07T08:16:10Z</time>
      </trkpt>
      <trkpt lat="47.19337" lon="-1.46352">
        <ele>82</ele>
        <time>2022-08-07T08:16:12Z</time>
      </trkpt>
      <trkpt lat="47.19343" lon="-1.46337">
        <ele>82</ele>
        <time>2022-08-07T08:16:14Z</time>
      </trkpt>
      <trkpt lat="47.19348" lon="-1.46324">
        <ele>82</ele>
        <time>2022-08-07T08:16:16Z</time>
      </trkpt>
      <trkpt lat="47.19352" lon="-1.4631">
        <ele>83</ele>
        <time>2022-08-07T08:16:18Z</time>
      </trkpt>
      <trkpt lat="47.19356" lon="-1.46296">
        <ele>83</ele>
        <time>2022-08-07T08:16:20Z</time>
      </trkpt>
      <trkpt lat="47.19365" lon="-1.46284">
        <ele>82</ele>
        <time>2022-08-07T08:16:22Z</time>
      </trkpt>
      <trkpt lat="47.19375" lon="-1.46277">
        <ele>83</ele>
        <time>2022-08-07T08:16:24Z</time>
      </trkpt>
      <trkpt lat="47.19383" lon="-1.46265">
        <ele>83</ele>
        <time>2022-08-07T08:16:26Z</time>
      </trkpt>
      <trkpt lat="47.19389" lon="-1.46251">
        <ele>83</ele>
        <time>2022-08-07T08:16:28Z</time>
      </trkpt>
      <trkpt lat="47.19396" lon="-1.46237">
        <ele>83</ele>
        <time>2022-08-07T08:16:30Z</time>
      </trkpt>
      <trkpt lat="47.19402" lon="-1.46224">
        <ele>83</ele>
        <time>2022-08-07T08:16:32Z</time>
      </trkpt>
      <trkpt lat="47.19408" lon="-1.46209">
        <ele>83</ele>
        <time>2022-08-07T08:16:34Z</time>
      </trkpt>
      <trkpt lat="47.19413" lon="-1.46195">
        <ele>82</ele>
        <time>2022-08-07T08:16:36Z</time>
      </trkpt>
      <trkpt lat="47.1942" lon="-1.46182">
        <ele>82</ele>
        <time>2022-08-07T08:16:38Z</time>
      </trkpt>
      <trkpt lat="47.19426" lon="-1.46168">
        <ele>82</ele>
        <time>2022-08-07T08:16:40Z</time>
      </trkpt>
      <trkpt lat="47.19432" lon="-1.46154">
        <ele>82</ele>
        <time>2022-08-07T08:16:42Z</time>
      </trkpt>
      <trkpt lat="47.19439" lon="-1.4614">
        <ele>82</ele>
        <time>2022-08-07T08:16:44Z</time>
      </trkpt>
      <trkpt lat="47.19446" lon="-1.46126">
        <ele>81</ele>
        <time>2022-08-07T08:16:46Z</time>
      </trkpt>
      <trkpt lat="47.19453" lon="-1.46111">
        <ele>81</ele>
        <time>2022-08-07T08:16:48Z</time>
      </trkpt>
      <trkpt lat="47.1946" lon="-1.46096">
        <ele>81</ele>
        <time>2022-08-07T08:16:50Z</time>
      </trkpt>
      <trkpt lat="47.19467" lon="-1.46082">
        <ele>81</ele>
        <time>2022-08-07T08:16:52Z</time>
      </trkpt>
      <trkpt lat="47.19475" lon="-1.46066">
        <ele>80</ele>
        <time>2022-08-07T08:16:54Z</time>
      </trkpt>
      <trkpt lat="47.19482" lon="-1.46051">
        <ele>80</ele>
        <time>2022-08-07T08:16:56Z</time>
      </trkpt>
      <trkpt lat="47.19489" lon="-1.46036">
        <ele>79</ele>
        <time>2022-08-07T08:16:58Z</time>
      </trkpt>
      <trkpt lat="47.19496" lon="-1.4602">
        <ele>79</ele>
        <time>2022-08-07T08:17:00Z</time>
      </trkpt>
      <trkpt lat="47.19504" lon="-1.46005">
        <ele>78</ele>
        <time>2022-08-07T08:17:02Z</time>
      </trkpt>
      <trkpt lat="47.19511" lon="-1.4599">
        <ele>78</ele>
        <time>2022-08-07T08:17:04Z</time>
      </trkpt>
      <trkpt lat="47.19518" lon="-1.45975">
        <ele>77</ele>
        <time>2022-08-07T08:17:06Z</time>
      </trkpt>
      <trkpt lat="47.19524" lon="-1.4596">
        <ele>77</ele>
        <time>2022-08-07T08:17:08Z</time>
      </trkpt>
      <trkpt lat="47.19531" lon="-1.45945">
        <ele>77</ele>
        <time>2022-08-07T08:17:10Z</time>
      </trkpt>
      <trkpt lat="47.19538" lon="-1.4593">
        <ele>76</ele>
        <time>2022-08-07T08:17:12Z</time>
      </trkpt>
      <trkpt lat="47.19545" lon="-1.45916">
        <ele>76</ele>
        <time>2022-08-07T08:17:14Z</time>
      </trkpt>
      <trkpt lat="47.19552" lon="-1.45903">
        <ele>76</ele>
        <time>2022-08-07T08:17:16Z</time>
      </trkpt>
      <trkpt lat="47.19558" lon="-1.45889">
        <ele>76</ele>
        <time>2022-08-07T08:17:18Z</time>
      </trkpt>
      <trkpt lat="47.19565" lon="-1.45874">
        <ele>76</ele>
        <time>2022-08-07T08:17:20Z</time>
      </trkpt>
      <trkpt lat="47.19572" lon="-1.45859">
        <ele>76</ele>
        <time>2022-08-07T08:17:22Z</time>
      </trkpt>
      <trkpt lat="47.19578" lon="-1.45844">
        <ele>76</ele>
        <time>2022-08-07T08:17:24Z</time>
      </trkpt>
      <trkpt lat="47.19586" lon="-1.45829">
        <ele>75</ele>
        <time>2022-08-07T08:17:26Z</time>
      </trkpt>
      <trkpt lat="47.19593" lon="-1.45815">
        <ele>76</ele>
        <time>2022-08-07T08:17:28Z</time>
      </trkpt>
      <trkpt lat="47.19599" lon="-1.458">
        <ele>76</ele>
        <time>2022-08-07T08:17:30Z</time>
      </trkpt>
      <trkpt lat="47.19605" lon="-1.45785">
        <ele>75</ele>
        <time>2022-08-07T08:17:32Z</time>
      </trkpt>
      <trkpt lat="47.19609" lon="-1.45769">
        <ele>75</ele>
        <time>2022-08-07T08:17:34Z</time>
      </trkpt>
      <trkpt lat="47.19614" lon="-1.45754">
        <ele>75</ele>
        <time>2022-08-07T08:17:36Z</time>
      </trkpt>
      <trkpt lat="47.19624" lon="-1.45745">
        <ele>75</ele>
        <time>2022-08-07T08:17:38Z</time>
      </trkpt>
      <trkpt lat="47.19632" lon="-1.45732">
        <ele>75</ele>
        <time>2022-08-07T08:17:40Z</time>
      </trkpt>
      <trkpt lat="47.19639" lon="-1.45719">
        <ele>74</ele>
        <time>2022-08-07T08:17:42Z</time>
      </trkpt>
      <trkpt lat="47.19646" lon="-1.45705">
        <ele>74</ele>
        <time>2022-08-07T08:17:44Z</time>
      </trkpt>
      <trkpt lat="47.19652" lon="-1.45691">
        <ele>75</ele>
        <time>2022-08-07T08:17:46Z</time>
      </trkpt>
      <trkpt lat="47.19659" lon="-1.45678">
        <ele>75</ele>
        <time>2022-08-07T08:17:48Z</time>
      </trkpt>
      <trkpt lat="47.19665" lon="-1.45665">
        <ele>75</ele>
        <time>2022-08-07T08:17:50Z</time>
      </trkpt>
      <trkpt lat="47.19672" lon="-1.45652">
        <ele>75</ele>
        <time>2022-08-07T08:17:52Z</time>
      </trkpt>
      <trkpt lat="47.19678" lon="-1.45638">
        <ele>75</ele>
        <time>2022-08-07T08:17:54Z</time>
      </trkpt>
      <trkpt lat="47.19683" lon="-1.45626">
        <ele>76</ele>
        <time>2022-08-07T08:17:56Z</time>
      </trkpt>
      <trkpt lat="47.19689" lon="-1.45614">
        <ele>77</ele>
        <time>2022-08-07T08:17:58Z</time>
      </trkpt>
      <trkpt lat="47.19695" lon="-1.45602">
        <ele>77</ele>
        <time>2022-08-07T08:18:00Z</time>
      </trkpt>
      <trkpt lat="47.19701" lon="-1.45589">
        <ele>77</ele>
        <time>2022-08-07T08:18:02Z</time>
      </trkpt>
      <trkpt lat="47.19707" lon="-1.45576">
        <ele>77</ele>
        <time>2022-08-07T08:18:04Z</time>
      </trkpt>
      <trkpt lat="47.19714" lon="-1.45563">
        <ele>77</ele>
        <time>2022-08-07T08:18:06Z</time>
      </trkpt>
      <trkpt lat="47.1972" lon="-1.45551">
        <ele>77</ele>
        <time>2022-08-07T08:18:08Z</time>
      </trkpt>
      <trkpt lat="47.19726" lon="-1.45538">
        <ele>77</ele>
        <time>2022-08-07T08:18:10Z</time>
      </trkpt>
      <trkpt lat="47.19731" lon="-1.45526">
        <ele>78</ele>
        <time>2022-08-07T08:18:12Z</time>
      </trkpt>
      <trkpt lat="47.19736" lon="-1.45514">
        <ele>78</ele>
        <time>2022-08-07T08:18:14Z</time>
      </trkpt>
      <trkpt lat="47.19742" lon="-1.45503">
        <ele>78</ele>
        <time>2022-08-07T08:18:16Z</time>
      </trkpt>
      <trkpt lat="47.19747" lon="-1.45491">
        <ele>78</ele>
        <time>2022-08-07T08:18:18Z</time>
      </trkpt>
      <trkpt lat="47.19752" lon="-1.45479">
        <ele>79</ele>
        <time>2022-08-07T08:18:20Z</time>
      </trkpt>
      <trkpt lat="47.19757" lon="-1.45467">
        <ele>79</ele>
        <time>2022-08-07T08:18:22Z</time>
      </trkpt>
      <trkpt lat="47.19762" lon="-1.45455">
        <ele>80</ele>
        <time>2022-08-07T08:18:24Z</time>
      </trkpt>
      <trkpt lat="47.19767" lon="-1.45444">
        <ele>80</ele>
        <time>2022-08-07T08:18:26Z</time>
      </trkpt>
      <trkpt lat="47.19772" lon="-1.45431">
        <ele>80</ele>
        <time>2022-08-07T08:18:28Z</time>
      </trkpt>
      <trkpt lat="47.19777" lon="-1.45419">
        <ele>80</ele>
        <time>2022-08-07T08:18:30Z</time>
      </trkpt>
      <trkpt lat="47.19781" lon="-1.45406">
        <ele>80</ele>
        <time>2022-08-07T08:18:32Z</time>
      </trkpt>
      <trkpt lat="47.19783" lon="-1.45393">
        <ele>80</ele>
        <time>2022-08-07T08:18:34Z</time>
      </trkpt>
      <trkpt lat="47.19782" lon="-1.45379">
        <ele>80</ele>
        <time>2022-08-07T08:18:36Z</time>
      </trkpt>
      <trkpt lat="47.19785" lon="-1.45366">
        <ele>80</ele>
        <time>2022-08-07T08:18:38Z</time>
      </trkpt>
      <trkpt lat="47.1979" lon="-1.45354">
        <ele>80</ele>
        <time>2022-08-07T08:18:40Z</time>
      </trkpt>
      <trkpt lat="47.19797" lon="-1.45345">
        <ele>80</ele>
        <time>2022-08-07T08:18:42Z</time>
      </trkpt>
      <trkpt lat="47.19805" lon="-1.45336">
        <ele>80</ele>
        <time>2022-08-07T08:18:44Z</time>
      </trkpt>
      <trkpt lat="47.19813" lon="-1.4533">
        <ele>80</ele>
        <time>2022-08-07T08:18:46Z</time>
      </trkpt>
      <trkpt lat="47.19822" lon="-1.45323">
        <ele>80</ele>
        <time>2022-08-07T08:18:48Z</time>
      </trkpt>
      <trkpt lat="47.19829" lon="-1.45313">
        <ele>80</ele>
        <time>2022-08-07T08:18:50Z</time>
      </trkpt>
      <trkpt lat="47.19835" lon="-1.45301">
        <ele>80</ele>
        <time>2022-08-07T08:18:52Z</time>
      </trkpt>
      <trkpt lat="47.19841" lon="-1.45289">
        <ele>80</ele>
        <time>2022-08-07T08:18:54Z</time>
      </trkpt>
      <trkpt lat="47.19847" lon="-1.45277">
        <ele>80</ele>
        <time>2022-08-07T08:18:56Z</time>
      </trkpt>
      <trkpt lat="47.19856" lon="-1.45267">
        <ele>80</ele>
        <time>2022-08-07T08:18:58Z</time>
      </trkpt>
      <trkpt lat="47.19863" lon="-1.45258">
        <ele>81</ele>
        <time>2022-08-07T08:19:00Z</time>
      </trkpt>
      <trkpt lat="47.1987" lon="-1.45244">
        <ele>83</ele>
        <time>2022-08-07T08:19:02Z</time>
      </trkpt>
      <trkpt lat="47.19877" lon="-1.45231">
        <ele>84</ele>
        <time>2022-08-07T08:19:04Z</time>
      </trkpt>
      <trkpt lat="47.19883" lon="-1.45217">
        <ele>84</ele>
        <time>2022-08-07T08:19:06Z</time>
      </trkpt>
      <trkpt lat="47.19888" lon="-1.45205">
        <ele>83</ele>
        <time>2022-08-07T08:19:08Z</time>
      </trkpt>
      <trkpt lat="47.19894" lon="-1.45192">
        <ele>83</ele>
        <time>2022-08-07T08:19:10Z</time>
      </trkpt>
      <trkpt lat="47.199" lon="-1.45177">
        <ele>82</ele>
        <time>2022-08-07T08:19:12Z</time>
      </trkpt>
      <trkpt lat="47.19906" lon="-1.45163">
        <ele>81</ele>
        <time>2022-08-07T08:19:14Z</time>
      </trkpt>
      <trkpt lat="47.19912" lon="-1.45149">
        <ele>81</ele>
        <time>2022-08-07T08:19:16Z</time>
      </trkpt>
      <trkpt lat="47.19919" lon="-1.45134">
        <ele>80</ele>
        <time>2022-08-07T08:19:18Z</time>
      </trkpt>
      <trkpt lat="47.19926" lon="-1.45119">
        <ele>81</ele>
        <time>2022-08-07T08:19:20Z</time>
      </trkpt>
      <trkpt lat="47.19932" lon="-1.45105">
        <ele>81</ele>
        <time>2022-08-07T08:19:22Z</time>
      </trkpt>
      <trkpt lat="47.1994" lon="-1.45091">
        <ele>80</ele>
        <time>2022-08-07T08:19:24Z</time>
      </trkpt>
      <trkpt lat="47.19946" lon="-1.45076">
        <ele>79</ele>
        <time>2022-08-07T08:19:26Z</time>
      </trkpt>
      <trkpt lat="47.19953" lon="-1.45062">
        <ele>78</ele>
        <time>2022-08-07T08:19:28Z</time>
      </trkpt>
      <trkpt lat="47.1996" lon="-1.45047">
        <ele>78</ele>
        <time>2022-08-07T08:19:30Z</time>
      </trkpt>
      <trkpt lat="47.19967" lon="-1.45033">
        <ele>78</ele>
        <time>2022-08-07T08:19:32Z</time>
      </trkpt>
      <trkpt lat="47.19971" lon="-1.45018">
        <ele>77</ele>
        <time>2022-08-07T08:19:34Z</time>
      </trkpt>
      <trkpt lat="47.19973" lon="-1.45">
        <ele>76</ele>
        <time>2022-08-07T08:19:36Z</time>
      </trkpt>
      <trkpt lat="47.19978" lon="-1.44983">
        <ele>75</ele>
        <time>2022-08-07T08:19:38Z</time>
      </trkpt>
      <trkpt lat="47.19988" lon="-1.44973">
        <ele>75</ele>
        <time>2022-08-07T08:19:40Z</time>
      </trkpt>
      <trkpt lat="47.2" lon="-1.44968">
        <ele>75</ele>
        <time>2022-08-07T08:19:42Z</time>
      </trkpt>
      <trkpt lat="47.20011" lon="-1.44957">
        <ele>74</ele>
        <time>2022-08-07T08:19:44Z</time>
      </trkpt>
      <trkpt lat="47.2002" lon="-1.44944">
        <ele>73</ele>
        <time>2022-08-07T08:19:46Z</time>
      </trkpt>
      <trkpt lat="47.2003" lon="-1.4493">
        <ele>73</ele>
        <time>2022-08-07T08:19:48Z</time>
      </trkpt>
      <trkpt lat="47.20039" lon="-1.44915">
        <ele>72</ele>
        <time>2022-08-07T08:19:50Z</time>
      </trkpt>
      <trkpt lat="47.20047" lon="-1.44901">
        <ele>71</ele>
        <time>2022-08-07T08:19:52Z</time>
      </trkpt>
      <trkpt lat="47.20057" lon="-1.44887">
        <ele>71</ele>
        <time>2022-08-07T08:19:54Z</time>
      </trkpt>
      <trkpt lat="47.20066" lon="-1.44872">
        <ele>70</ele>
        <time>2022-08-07T08:19:56Z</time>
      </trkpt>
      <trkpt lat="47.20075" lon="-1.44858">
        <ele>69</ele>
        <time>2022-08-07T08:19:58Z</time>
      </trkpt>
      <trkpt lat="47.20083" lon="-1.44843">
        <ele>69</ele>
        <time>2022-08-07T08:20:00Z</time>
      </trkpt>
      <trkpt lat="47.20092" lon="-1.44828">
        <ele>69</ele>
        <time>2022-08-07T08:20:02Z</time>
      </trkpt>
      <trkpt lat="47.20101" lon="-1.44813">
        <ele>68</ele>
        <time>2022-08-07T08:20:04Z</time>
      </trkpt>
      <trkpt lat="47.2011" lon="-1.44798">
        <ele>68</ele>
        <time>2022-08-07T08:20:06Z</time>
      </trkpt>
      <trkpt lat="47.20119" lon="-1.44783">
        <ele>67</ele>
        <time>2022-08-07T08:20:08Z</time>
      </trkpt>
      <trkpt lat="47.20128" lon="-1.44768">
        <ele>67</ele>
        <time>2022-08-07T08:20:10Z</time>
      </trkpt>
      <trkpt lat="47.20136" lon="-1.44753">
        <ele>66</ele>
        <time>2022-08-07T08:20:12Z</time>
      </trkpt>
      <trkpt lat="47.20138" lon="-1.44735">
        <ele>66</ele>
        <time>2022-08-07T08:20:14Z</time>
      </trkpt>
      <trkpt lat="47.20139" lon="-1.44717">
        <ele>66</ele>
        <time>2022-08-07T08:20:16Z</time>
      </trkpt>
      <trkpt lat="47.20146" lon="-1.44701">
        <ele>65</ele>
        <time>2022-08-07T08:20:18Z</time>
      </trkpt>
      <trkpt lat="47.20156" lon="-1.4469">
        <ele>65</ele>
        <time>2022-08-07T08:20:20Z</time>
      </trkpt>
      <trkpt lat="47.2017" lon="-1.44689">
        <ele>64</ele>
        <time>2022-08-07T08:20:22Z</time>
      </trkpt>
      <trkpt lat="47.20183" lon="-1.44693">
        <ele>64</ele>
        <time>2022-08-07T08:20:24Z</time>
      </trkpt>
      <trkpt lat="47.20202" lon="-1.44686">
        <ele>64</ele>
        <time>2022-08-07T08:20:27Z</time>
      </trkpt>
      <trkpt lat="47.20214" lon="-1.44677">
        <ele>64</ele>
        <time>2022-08-07T08:20:29Z</time>
      </trkpt>
      <trkpt lat="47.20226" lon="-1.44669">
        <ele>64</ele>
        <time>2022-08-07T08:20:31Z</time>
      </trkpt>
      <trkpt lat="47.20238" lon="-1.44661">
        <ele>64</ele>
        <time>2022-08-07T08:20:33Z</time>
      </trkpt>
      <trkpt lat="47.2025" lon="-1.44653">
        <ele>64</ele>
        <time>2022-08-07T08:20:35Z</time>
      </trkpt>
      <trkpt lat="47.20262" lon="-1.44645">
        <ele>64</ele>
        <time>2022-08-07T08:20:37Z</time>
      </trkpt>
      <trkpt lat="47.20274" lon="-1.44637">
        <ele>64</ele>
        <time>2022-08-07T08:20:39Z</time>
      </trkpt>
      <trkpt lat="47.20286" lon="-1.44628">
        <ele>64</ele>
        <time>2022-08-07T08:20:41Z</time>
      </trkpt>
      <trkpt lat="47.20297" lon="-1.4462">
        <ele>64</ele>
        <time>2022-08-07T08:20:43Z</time>
      </trkpt>
      <trkpt lat="47.20308" lon="-1.44613">
        <ele>65</ele>
        <time>2022-08-07T08:20:45Z</time>
      </trkpt>
      <trkpt lat="47.20319" lon="-1.44606">
        <ele>65</ele>
        <time>2022-08-07T08:20:47Z</time>
      </trkpt>
      <trkpt lat="47.20334" lon="-1.44593">
        <ele>65</ele>
        <time>2022-08-07T08:20:50Z</time>
      </trkpt>
      <trkpt lat="47.20345" lon="-1.44584">
        <ele>64</ele>
        <time>2022-08-07T08:20:52Z</time>
      </trkpt>
      <trkpt lat="47.20355" lon="-1.44577">
        <ele>65</ele>
        <time>2022-08-07T08:20:54Z</time>
      </trkpt>
      <trkpt lat="47.20366" lon="-1.44571">
        <ele>65</ele>
        <time>2022-08-07T08:20:56Z</time>
      </trkpt>
      <trkpt lat="47.20378" lon="-1.44564">
        <ele>65</ele>
        <time>2022-08-07T08:20:58Z</time>
      </trkpt>
      <trkpt lat="47.20388" lon="-1.44557">
        <ele>65</ele>
        <time>2022-08-07T08:21:00Z</time>
      </trkpt>
      <trkpt lat="47.20398" lon="-1.4455">
        <ele>65</ele>
        <time>2022-08-07T08:21:02Z</time>
      </trkpt>
      <trkpt lat="47.20409" lon="-1.44543">
        <ele>64</ele>
        <time>2022-08-07T08:21:04Z</time>
      </trkpt>
      <trkpt lat="47.20419" lon="-1.44536">
        <ele>65</ele>
        <time>2022-08-07T08:21:06Z</time>
      </trkpt>
      <trkpt lat="47.20429" lon="-1.44529">
        <ele>64</ele>
        <time>2022-08-07T08:21:08Z</time>
      </trkpt>
      <trkpt lat="47.2044" lon="-1.44522">
        <ele>64</ele>
        <time>2022-08-07T08:21:10Z</time>
      </trkpt>
      <trkpt lat="47.2045" lon="-1.44515">
        <ele>64</ele>
        <time>2022-08-07T08:21:12Z</time>
      </trkpt>
      <trkpt lat="47.20461" lon="-1.44508">
        <ele>64</ele>
        <time>2022-08-07T08:21:14Z</time>
      </trkpt>
      <trkpt lat="47.20471" lon="-1.44501">
        <ele>64</ele>
        <time>2022-08-07T08:21:16Z</time>
      </trkpt>
      <trkpt lat="47.20481" lon="-1.44494">
        <ele>64</ele>
        <time>2022-08-07T08:21:18Z</time>
      </trkpt>
      <trkpt lat="47.20491" lon="-1.44488">
        <ele>64</ele>
        <time>2022-08-07T08:21:20Z</time>
      </trkpt>
      <trkpt lat="47.20502" lon="-1.44481">
        <ele>64</ele>
        <time>2022-08-07T08:21:22Z</time>
      </trkpt>
      <trkpt lat="47.20511" lon="-1.44474">
        <ele>64</ele>
        <time>2022-08-07T08:21:24Z</time>
      </trkpt>
      <trkpt lat="47.2052" lon="-1.44467">
        <ele>63</ele>
        <time>2022-08-07T08:21:26Z</time>
      </trkpt>
      <trkpt lat="47.20529" lon="-1.4446">
        <ele>64</ele>
        <time>2022-08-07T08:21:28Z</time>
      </trkpt>
      <trkpt lat="47.20537" lon="-1.44454">
        <ele>63</ele>
        <time>2022-08-07T08:21:30Z</time>
      </trkpt>
      <trkpt lat="47.20546" lon="-1.44448">
        <ele>64</ele>
        <time>2022-08-07T08:21:32Z</time>
      </trkpt>
      <trkpt lat="47.20555" lon="-1.44443">
        <ele>64</ele>
        <time>2022-08-07T08:21:34Z</time>
      </trkpt>
      <trkpt lat="47.20564" lon="-1.44436">
        <ele>64</ele>
        <time>2022-08-07T08:21:36Z</time>
      </trkpt>
      <trkpt lat="47.20573" lon="-1.4443">
        <ele>64</ele>
        <time>2022-08-07T08:21:38Z</time>
      </trkpt>
      <trkpt lat="47.20582" lon="-1.44424">
        <ele>64</ele>
        <time>2022-08-07T08:21:40Z</time>
      </trkpt>
      <trkpt lat="47.20592" lon="-1.44418">
        <ele>65</ele>
        <time>2022-08-07T08:21:42Z</time>
      </trkpt>
      <trkpt lat="47.20601" lon="-1.44412">
        <ele>65</ele>
        <time>2022-08-07T08:21:44Z</time>
      </trkpt>
      <trkpt lat="47.20611" lon="-1.44405">
        <ele>64</ele>
        <time>2022-08-07T08:21:46Z</time>
      </trkpt>
      <trkpt lat="47.2062" lon="-1.44398">
        <ele>64</ele>
        <time>2022-08-07T08:21:48Z</time>
      </trkpt>
      <trkpt lat="47.20629" lon="-1.44391">
        <ele>64</ele>
        <time>2022-08-07T08:21:50Z</time>
      </trkpt>
      <trkpt lat="47.20638" lon="-1.44385">
        <ele>65</ele>
        <time>2022-08-07T08:21:52Z</time>
      </trkpt>
      <trkpt lat="47.20647" lon="-1.44379">
        <ele>65</ele>
        <time>2022-08-07T08:21:54Z</time>
      </trkpt>
      <trkpt lat="47.20656" lon="-1.44373">
        <ele>65</ele>
        <time>2022-08-07T08:21:56Z</time>
      </trkpt>
      <trkpt lat="47.20664" lon="-1.44365">
        <ele>65</ele>
        <time>2022-08-07T08:21:58Z</time>
      </trkpt>
      <trkpt lat="47.20672" lon="-1.44358">
        <ele>65</ele>
        <time>2022-08-07T08:22:00Z</time>
      </trkpt>
      <trkpt lat="47.20682" lon="-1.44353">
        <ele>65</ele>
        <time>2022-08-07T08:22:02Z</time>
      </trkpt>
      <trkpt lat="47.20692" lon="-1.44347">
        <ele>66</ele>
        <time>2022-08-07T08:22:04Z</time>
      </trkpt>
      <trkpt lat="47.20702" lon="-1.44338">
        <ele>66</ele>
        <time>2022-08-07T08:22:06Z</time>
      </trkpt>
      <trkpt lat="47.20712" lon="-1.4433">
        <ele>65</ele>
        <time>2022-08-07T08:22:08Z</time>
      </trkpt>
      <trkpt lat="47.20723" lon="-1.44322">
        <ele>64</ele>
        <time>2022-08-07T08:22:10Z</time>
      </trkpt>
      <trkpt lat="47.20733" lon="-1.44314">
        <ele>64</ele>
        <time>2022-08-07T08:22:12Z</time>
      </trkpt>
      <trkpt lat="47.20744" lon="-1.44306">
        <ele>63</ele>
        <time>2022-08-07T08:22:14Z</time>
      </trkpt>
      <trkpt lat="47.20755" lon="-1.44298">
        <ele>63</ele>
        <time>2022-08-07T08:22:16Z</time>
      </trkpt>
      <trkpt lat="47.20766" lon="-1.4429">
        <ele>63</ele>
        <time>2022-08-07T08:22:18Z</time>
      </trkpt>
      <trkpt lat="47.20776" lon="-1.44282">
        <ele>63</ele>
        <time>2022-08-07T08:22:20Z</time>
      </trkpt>
      <trkpt lat="47.20788" lon="-1.44273">
        <ele>62</ele>
        <time>2022-08-07T08:22:22Z</time>
      </trkpt>
      <trkpt lat="47.20799" lon="-1.44265">
        <ele>62</ele>
        <time>2022-08-07T08:22:24Z</time>
      </trkpt>
      <trkpt lat="47.2081" lon="-1.44256">
        <ele>62</ele>
        <time>2022-08-07T08:22:26Z</time>
      </trkpt>
      <trkpt lat="47.20821" lon="-1.44248">
        <ele>62</ele>
        <time>2022-08-07T08:22:28Z</time>
      </trkpt>
      <trkpt lat="47.20832" lon="-1.44239">
        <ele>61</ele>
        <time>2022-08-07T08:22:30Z</time>
      </trkpt>
      <trkpt lat="47.20844" lon="-1.44232">
        <ele>61</ele>
        <time>2022-08-07T08:22:32Z</time>
      </trkpt>
      <trkpt lat="47.20854" lon="-1.44224">
        <ele>60</ele>
        <time>2022-08-07T08:22:34Z</time>
      </trkpt>
      <trkpt lat="47.20865" lon="-1.44215">
        <ele>60</ele>
        <time>2022-08-07T08:22:36Z</time>
      </trkpt>
      <trkpt lat="47.20876" lon="-1.44207">
        <ele>60</ele>
        <time>2022-08-07T08:22:38Z</time>
      </trkpt>
      <trkpt lat="47.20887" lon="-1.44199">
        <ele>60</ele>
        <time>2022-08-07T08:22:40Z</time>
      </trkpt>
      <trkpt lat="47.20898" lon="-1.44191">
        <ele>60</ele>
        <time>2022-08-07T08:22:42Z</time>
      </trkpt>
      <trkpt lat="47.20908" lon="-1.44183">
        <ele>60</ele>
        <time>2022-08-07T08:22:44Z</time>
      </trkpt>
      <trkpt lat="47.20919" lon="-1.44174">
        <ele>60</ele>
        <time>2022-08-07T08:22:46Z</time>
      </trkpt>
      <trkpt lat="47.20929" lon="-1.44166">
        <ele>60</ele>
        <time>2022-08-07T08:22:48Z</time>
      </trkpt>
      <trkpt lat="47.2094" lon="-1.44159">
        <ele>60</ele>
        <time>2022-08-07T08:22:50Z</time>
      </trkpt>
      <trkpt lat="47.2095" lon="-1.44151">
        <ele>59</ele>
        <time>2022-08-07T08:22:52Z</time>
      </trkpt>
      <trkpt lat="47.20961" lon="-1.44144">
        <ele>59</ele>
        <time>2022-08-07T08:22:54Z</time>
      </trkpt>
      <trkpt lat="47.20972" lon="-1.44135">
        <ele>59</ele>
        <time>2022-08-07T08:22:56Z</time>
      </trkpt>
      <trkpt lat="47.20983" lon="-1.44127">
        <ele>59</ele>
        <time>2022-08-07T08:22:58Z</time>
      </trkpt>
      <trkpt lat="47.20994" lon="-1.44119">
        <ele>59</ele>
        <time>2022-08-07T08:23:00Z</time>
      </trkpt>
      <trkpt lat="47.21004" lon="-1.44111">
        <ele>60</ele>
        <time>2022-08-07T08:23:02Z</time>
      </trkpt>
      <trkpt lat="47.21015" lon="-1.44103">
        <ele>60</ele>
        <time>2022-08-07T08:23:04Z</time>
      </trkpt>
      <trkpt lat="47.21025" lon="-1.44095">
        <ele>60</ele>
        <time>2022-08-07T08:23:06Z</time>
      </trkpt>
      <trkpt lat="47.21036" lon="-1.44087">
        <ele>60</ele>
        <time>2022-08-07T08:23:08Z</time>
      </trkpt>
      <trkpt lat="47.21047" lon="-1.44079">
        <ele>60</ele>
        <time>2022-08-07T08:23:10Z</time>
      </trkpt>
      <trkpt lat="47.21059" lon="-1.4407">
        <ele>60</ele>
        <time>2022-08-07T08:23:12Z</time>
      </trkpt>
      <trkpt lat="47.21069" lon="-1.44061">
        <ele>60</ele>
        <time>2022-08-07T08:23:14Z</time>
      </trkpt>
      <trkpt lat="47.21081" lon="-1.44053">
        <ele>60</ele>
        <time>2022-08-07T08:23:16Z</time>
      </trkpt>
      <trkpt lat="47.21092" lon="-1.44044">
        <ele>60</ele>
        <time>2022-08-07T08:23:18Z</time>
      </trkpt>
      <trkpt lat="47.21103" lon="-1.44036">
        <ele>60</ele>
        <time>2022-08-07T08:23:20Z</time>
      </trkpt>
      <trkpt lat="47.21114" lon="-1.44027">
        <ele>60</ele>
        <time>2022-08-07T08:23:22Z</time>
      </trkpt>
      <trkpt lat="47.21125" lon="-1.44019">
        <ele>60</ele>
        <time>2022-08-07T08:23:24Z</time>
      </trkpt>
      <trkpt lat="47.21137" lon="-1.44011">
        <ele>61</ele>
        <time>2022-08-07T08:23:26Z</time>
      </trkpt>
      <trkpt lat="47.21149" lon="-1.44002">
        <ele>61</ele>
        <time>2022-08-07T08:23:28Z</time>
      </trkpt>
      <trkpt lat="47.2116" lon="-1.43994">
        <ele>61</ele>
        <time>2022-08-07T08:23:30Z</time>
      </trkpt>
      <trkpt lat="47.21171" lon="-1.43985">
        <ele>61</ele>
        <time>2022-08-07T08:23:32Z</time>
      </trkpt>
      <trkpt lat="47.21182" lon="-1.43976">
        <ele>61</ele>
        <time>2022-08-07T08:23:34Z</time>
      </trkpt>
      <trkpt lat="47.21194" lon="-1.43967">
        <ele>60</ele>
        <time>2022-08-07T08:23:36Z</time>
      </trkpt>
      <trkpt lat="47.21205" lon="-1.43959">
        <ele>60</ele>
        <time>2022-08-07T08:23:38Z</time>
      </trkpt>
      <trkpt lat="47.21216" lon="-1.43951">
        <ele>61</ele>
        <time>2022-08-07T08:23:40Z</time>
      </trkpt>
      <trkpt lat="47.21228" lon="-1.43942">
        <ele>61</ele>
        <time>2022-08-07T08:23:42Z</time>
      </trkpt>
      <trkpt lat="47.21239" lon="-1.43934">
        <ele>61</ele>
        <time>2022-08-07T08:23:44Z</time>
      </trkpt>
      <trkpt lat="47.21251" lon="-1.43925">
        <ele>61</ele>
        <time>2022-08-07T08:23:46Z</time>
      </trkpt>
      <trkpt lat="47.21262" lon="-1.43917">
        <ele>61</ele>
        <time>2022-08-07T08:23:48Z</time>
      </trkpt>
      <trkpt lat="47.21274" lon="-1.43907">
        <ele>61</ele>
        <time>2022-08-07T08:23:50Z</time>
      </trkpt>
      <trkpt lat="47.21286" lon="-1.43898">
        <ele>61</ele>
        <time>2022-08-07T08:23:52Z</time>
      </trkpt>
      <trkpt lat="47.21297" lon="-1.4389">
        <ele>61</ele>
        <time>2022-08-07T08:23:54Z</time>
      </trkpt>
      <trkpt lat="47.21308" lon="-1.43883">
        <ele>61</ele>
        <time>2022-08-07T08:23:56Z</time>
      </trkpt>
      <trkpt lat="47.21319" lon="-1.43874">
        <ele>61</ele>
        <time>2022-08-07T08:23:58Z</time>
      </trkpt>
      <trkpt lat="47.2133" lon="-1.43865">
        <ele>61</ele>
        <time>2022-08-07T08:24:00Z</time>
      </trkpt>
      <trkpt lat="47.21341" lon="-1.43857">
        <ele>62</ele>
        <time>2022-08-07T08:24:02Z</time>
      </trkpt>
      <trkpt lat="47.21352" lon="-1.43849">
        <ele>61</ele>
        <time>2022-08-07T08:24:04Z</time>
      </trkpt>
      <trkpt lat="47.21363" lon="-1.4384">
        <ele>61</ele>
        <time>2022-08-07T08:24:06Z</time>
      </trkpt>
      <trkpt lat="47.21375" lon="-1.43832">
        <ele>61</ele>
        <time>2022-08-07T08:24:08Z</time>
      </trkpt>
      <trkpt lat="47.21385" lon="-1.43824">
        <ele>61</ele>
        <time>2022-08-07T08:24:10Z</time>
      </trkpt>
      <trkpt lat="47.21395" lon="-1.43816">
        <ele>61</ele>
        <time>2022-08-07T08:24:12Z</time>
      </trkpt>
      <trkpt lat="47.21405" lon="-1.43808">
        <ele>62</ele>
        <time>2022-08-07T08:24:14Z</time>
      </trkpt>
      <trkpt lat="47.21415" lon="-1.43801">
        <ele>62</ele>
        <time>2022-08-07T08:24:16Z</time>
      </trkpt>
      <trkpt lat="47.21426" lon="-1.43793">
        <ele>63</ele>
        <time>2022-08-07T08:24:18Z</time>
      </trkpt>
      <trkpt lat="47.21436" lon="-1.43786">
        <ele>63</ele>
        <time>2022-08-07T08:24:20Z</time>
      </trkpt>
      <trkpt lat="47.21446" lon="-1.43779">
        <ele>62</ele>
        <time>2022-08-07T08:24:22Z</time>
      </trkpt>
      <trkpt lat="47.21455" lon="-1.43772">
        <ele>62</ele>
        <time>2022-08-07T08:24:24Z</time>
      </trkpt>
      <trkpt lat="47.21466" lon="-1.43764">
        <ele>62</ele>
        <time>2022-08-07T08:24:26Z</time>
      </trkpt>
      <trkpt lat="47.21476" lon="-1.43757">
        <ele>62</ele>
        <time>2022-08-07T08:24:28Z</time>
      </trkpt>
      <trkpt lat="47.21486" lon="-1.4375">
        <ele>62</ele>
        <time>2022-08-07T08:24:30Z</time>
      </trkpt>
      <trkpt lat="47.21495" lon="-1.43743">
        <ele>61</ele>
        <time>2022-08-07T08:24:32Z</time>
      </trkpt>
      <trkpt lat="47.21505" lon="-1.43735">
        <ele>61</ele>
        <time>2022-08-07T08:24:34Z</time>
      </trkpt>
      <trkpt lat="47.21515" lon="-1.43728">
        <ele>61</ele>
        <time>2022-08-07T08:24:36Z</time>
      </trkpt>
      <trkpt lat="47.21524" lon="-1.43721">
        <ele>61</ele>
        <time>2022-08-07T08:24:38Z</time>
      </trkpt>
      <trkpt lat="47.21533" lon="-1.43714">
        <ele>60</ele>
        <time>2022-08-07T08:24:40Z</time>
      </trkpt>
      <trkpt lat="47.21543" lon="-1.43706">
        <ele>60</ele>
        <time>2022-08-07T08:24:42Z</time>
      </trkpt>
      <trkpt lat="47.21553" lon="-1.43699">
        <ele>59</ele>
        <time>2022-08-07T08:24:44Z</time>
      </trkpt>
      <trkpt lat="47.21563" lon="-1.43691">
        <ele>59</ele>
        <time>2022-08-07T08:24:46Z</time>
      </trkpt>
      <trkpt lat="47.21573" lon="-1.43684">
        <ele>59</ele>
        <time>2022-08-07T08:24:48Z</time>
      </trkpt>
      <trkpt lat="47.21582" lon="-1.43676">
        <ele>59</ele>
        <time>2022-08-07T08:24:50Z</time>
      </trkpt>
      <trkpt lat="47.21591" lon="-1.43667">
        <ele>59</ele>
        <time>2022-08-07T08:24:52Z</time>
      </trkpt>
      <trkpt lat="47.21599" lon="-1.43657">
        <ele>59</ele>
        <time>2022-08-07T08:24:54Z</time>
      </trkpt>
      <trkpt lat="47.21606" lon="-1.43647">
        <ele>59</ele>
        <time>2022-08-07T08:24:56Z</time>
      </trkpt>
      <trkpt lat="47.21616" lon="-1.43641">
        <ele>59</ele>
        <time>2022-08-07T08:24:58Z</time>
      </trkpt>
      <trkpt lat="47.21627" lon="-1.43639">
        <ele>59</ele>
        <time>2022-08-07T08:25:00Z</time>
      </trkpt>
      <trkpt lat="47.21639" lon="-1.43636">
        <ele>59</ele>
        <time>2022-08-07T08:25:02Z</time>
      </trkpt>
      <trkpt lat="47.21649" lon="-1.43628">
        <ele>59</ele>
        <time>2022-08-07T08:25:04Z</time>
      </trkpt>
      <trkpt lat="47.21659" lon="-1.4362">
        <ele>60</ele>
        <time>2022-08-07T08:25:06Z</time>
      </trkpt>
      <trkpt lat="47.21669" lon="-1.43611">
        <ele>60</ele>
        <time>2022-08-07T08:25:08Z</time>
      </trkpt>
      <trkpt lat="47.2168" lon="-1.43603">
        <ele>60</ele>
        <time>2022-08-07T08:25:10Z</time>
      </trkpt>
      <trkpt lat="47.21691" lon="-1.43595">
        <ele>60</ele>
        <time>2022-08-07T08:25:12Z</time>
      </trkpt>
      <trkpt lat="47.21701" lon="-1.43588">
        <ele>60</ele>
        <time>2022-08-07T08:25:14Z</time>
      </trkpt>
      <trkpt lat="47.21712" lon="-1.43579">
        <ele>60</ele>
        <time>2022-08-07T08:25:16Z</time>
      </trkpt>
      <trkpt lat="47.21722" lon="-1.43573">
        <ele>60</ele>
        <time>2022-08-07T08:25:18Z</time>
      </trkpt>
      <trkpt lat="47.21733" lon="-1.43565">
        <ele>59</ele>
        <time>2022-08-07T08:25:20Z</time>
      </trkpt>
      <trkpt lat="47.21743" lon="-1.43557">
        <ele>59</ele>
        <time>2022-08-07T08:25:22Z</time>
      </trkpt>
      <trkpt lat="47.21754" lon="-1.43549">
        <ele>59</ele>
        <time>2022-08-07T08:25:24Z</time>
      </trkpt>
      <trkpt lat="47.21764" lon="-1.43541">
        <ele>59</ele>
        <time>2022-08-07T08:25:26Z</time>
      </trkpt>
      <trkpt lat="47.21774" lon="-1.43535">
        <ele>59</ele>
        <time>2022-08-07T08:25:28Z</time>
      </trkpt>
      <trkpt lat="47.21784" lon="-1.43528">
        <ele>59</ele>
        <time>2022-08-07T08:25:30Z</time>
      </trkpt>
      <trkpt lat="47.21793" lon="-1.4352">
        <ele>60</ele>
        <time>2022-08-07T08:25:32Z</time>
      </trkpt>
      <trkpt lat="47.21804" lon="-1.43511">
        <ele>61</ele>
        <time>2022-08-07T08:25:34Z</time>
      </trkpt>
      <trkpt lat="47.21814" lon="-1.43503">
        <ele>61</ele>
        <time>2022-08-07T08:25:36Z</time>
      </trkpt>
      <trkpt lat="47.21825" lon="-1.43495">
        <ele>61</ele>
        <time>2022-08-07T08:25:38Z</time>
      </trkpt>
      <trkpt lat="47.21836" lon="-1.43486">
        <ele>61</ele>
        <time>2022-08-07T08:25:40Z</time>
      </trkpt>
      <trkpt lat="47.21847" lon="-1.43479">
        <ele>61</ele>
        <time>2022-08-07T08:25:42Z</time>
      </trkpt>
      <trkpt lat="47.21857" lon="-1.43471">
        <ele>61</ele>
        <time>2022-08-07T08:25:44Z</time>
      </trkpt>
      <trkpt lat="47.21868" lon="-1.43463">
        <ele>61</ele>
        <time>2022-08-07T08:25:46Z</time>
      </trkpt>
      <trkpt lat="47.21879" lon="-1.43455">
        <ele>61</ele>
        <time>2022-08-07T08:25:48Z</time>
      </trkpt>
      <trkpt lat="47.2189" lon="-1.43446">
        <ele>62</ele>
        <time>2022-08-07T08:25:50Z</time>
      </trkpt>
      <trkpt lat="47.219" lon="-1.43438">
        <ele>61</ele>
        <time>2022-08-07T08:25:52Z</time>
      </trkpt>
      <trkpt lat="47.21909" lon="-1.4343">
        <ele>61</ele>
        <time>2022-08-07T08:25:54Z</time>
      </trkpt>
      <trkpt lat="47.21919" lon="-1.43422">
        <ele>60</ele>
        <time>2022-08-07T08:25:56Z</time>
      </trkpt>
      <trkpt lat="47.21928" lon="-1.43412">
        <ele>60</ele>
        <time>2022-08-07T08:25:58Z</time>
      </trkpt>
      <trkpt lat="47.21937" lon="-1.43402">
        <ele>60</ele>
        <time>2022-08-07T08:26:00Z</time>
      </trkpt>
      <trkpt lat="47.21946" lon="-1.43392">
        <ele>60</ele>
        <time>2022-08-07T08:26:02Z</time>
      </trkpt>
      <trkpt lat="47.21954" lon="-1.43381">
        <ele>59</ele>
        <time>2022-08-07T08:26:04Z</time>
      </trkpt>
      <trkpt lat="47.21962" lon="-1.43369">
        <ele>59</ele>
        <time>2022-08-07T08:26:06Z</time>
      </trkpt>
      <trkpt lat="47.2197" lon="-1.43357">
        <ele>60</ele>
        <time>2022-08-07T08:26:08Z</time>
      </trkpt>
      <trkpt lat="47.21977" lon="-1.43346">
        <ele>60</ele>
        <time>2022-08-07T08:26:10Z</time>
      </trkpt>
      <trkpt lat="47.21985" lon="-1.43335">
        <ele>60</ele>
        <time>2022-08-07T08:26:12Z</time>
      </trkpt>
      <trkpt lat="47.21992" lon="-1.43325">
        <ele>60</ele>
        <time>2022-08-07T08:26:14Z</time>
      </trkpt>
      <trkpt lat="47.21999" lon="-1.43313">
        <ele>60</ele>
        <time>2022-08-07T08:26:16Z</time>
      </trkpt>
      <trkpt lat="47.22007" lon="-1.43301">
        <ele>59</ele>
        <time>2022-08-07T08:26:18Z</time>
      </trkpt>
      <trkpt lat="47.22014" lon="-1.4329">
        <ele>60</ele>
        <time>2022-08-07T08:26:20Z</time>
      </trkpt>
      <trkpt lat="47.22022" lon="-1.43278">
        <ele>60</ele>
        <time>2022-08-07T08:26:22Z</time>
      </trkpt>
      <trkpt lat="47.22029" lon="-1.43266">
        <ele>60</ele>
        <time>2022-08-07T08:26:24Z</time>
      </trkpt>
      <trkpt lat="47.22037" lon="-1.43254">
        <ele>60</ele>
        <time>2022-08-07T08:26:26Z</time>
      </trkpt>
      <trkpt lat="47.22044" lon="-1.43242">
        <ele>60</ele>
        <time>2022-08-07T08:26:28Z</time>
      </trkpt>
      <trkpt lat="47.22051" lon="-1.43231">
        <ele>60</ele>
        <time>2022-08-07T08:26:30Z</time>
      </trkpt>
      <trkpt lat="47.22059" lon="-1.43219">
        <ele>60</ele>
        <time>2022-08-07T08:26:32Z</time>
      </trkpt>
      <trkpt lat="47.22066" lon="-1.43208">
        <ele>60</ele>
        <time>2022-08-07T08:26:34Z</time>
      </trkpt>
      <trkpt lat="47.22073" lon="-1.43196">
        <ele>60</ele>
        <time>2022-08-07T08:26:36Z</time>
      </trkpt>
      <trkpt lat="47.22081" lon="-1.43185">
        <ele>60</ele>
        <time>2022-08-07T08:26:38Z</time>
      </trkpt>
      <trkpt lat="47.22087" lon="-1.43175">
        <ele>61</ele>
        <time>2022-08-07T08:26:40Z</time>
      </trkpt>
      <trkpt lat="47.22094" lon="-1.43164">
        <ele>61</ele>
        <time>2022-08-07T08:26:42Z</time>
      </trkpt>
      <trkpt lat="47.22103" lon="-1.43149">
        <ele>61</ele>
        <time>2022-08-07T08:26:44Z</time>
      </trkpt>
      <trkpt lat="47.22112" lon="-1.43133">
        <ele>61</ele>
        <time>2022-08-07T08:26:46Z</time>
      </trkpt>
      <trkpt lat="47.22121" lon="-1.43118">
        <ele>60</ele>
        <time>2022-08-07T08:26:48Z</time>
      </trkpt>
      <trkpt lat="47.22128" lon="-1.43102">
        <ele>61</ele>
        <time>2022-08-07T08:26:50Z</time>
      </trkpt>
      <trkpt lat="47.22135" lon="-1.43087">
        <ele>61</ele>
        <time>2022-08-07T08:26:52Z</time>
      </trkpt>
      <trkpt lat="47.22142" lon="-1.43071">
        <ele>61</ele>
        <time>2022-08-07T08:26:54Z</time>
      </trkpt>
      <trkpt lat="47.22149" lon="-1.43055">
        <ele>61</ele>
        <time>2022-08-07T08:26:56Z</time>
      </trkpt>
      <trkpt lat="47.22155" lon="-1.43038">
        <ele>60</ele>
        <time>2022-08-07T08:26:58Z</time>
      </trkpt>
      <trkpt lat="47.22161" lon="-1.43021">
        <ele>60</ele>
        <time>2022-08-07T08:27:00Z</time>
      </trkpt>
      <trkpt lat="47.22167" lon="-1.43004">
        <ele>60</ele>
        <time>2022-08-07T08:27:02Z</time>
      </trkpt>
      <trkpt lat="47.22173" lon="-1.42988">
        <ele>60</ele>
        <time>2022-08-07T08:27:04Z</time>
      </trkpt>
      <trkpt lat="47.22178" lon="-1.42972">
        <ele>60</ele>
        <time>2022-08-07T08:27:06Z</time>
      </trkpt>
      <trkpt lat="47.22184" lon="-1.42955">
        <ele>60</ele>
        <time>2022-08-07T08:27:08Z</time>
      </trkpt>
      <trkpt lat="47.22191" lon="-1.42938">
        <ele>60</ele>
        <time>2022-08-07T08:27:10Z</time>
      </trkpt>
      <trkpt lat="47.22197" lon="-1.42922">
        <ele>60</ele>
        <time>2022-08-07T08:27:12Z</time>
      </trkpt>
      <trkpt lat="47.22203" lon="-1.42905">
        <ele>60</ele>
        <time>2022-08-07T08:27:14Z</time>
      </trkpt>
      <trkpt lat="47.22209" lon="-1.42889">
        <ele>60</ele>
        <time>2022-08-07T08:27:16Z</time>
      </trkpt>
      <trkpt lat="47.22215" lon="-1.42872">
        <ele>60</ele>
        <time>2022-08-07T08:27:18Z</time>
      </trkpt>
      <trkpt lat="47.2222" lon="-1.42856">
        <ele>60</ele>
        <time>2022-08-07T08:27:20Z</time>
      </trkpt>
      <trkpt lat="47.22226" lon="-1.4284">
        <ele>61</ele>
        <time>2022-08-07T08:27:22Z</time>
      </trkpt>
      <trkpt lat="47.22232" lon="-1.42824">
        <ele>61</ele>
        <time>2022-08-07T08:27:24Z</time>
      </trkpt>
      <trkpt lat="47.22238" lon="-1.42808">
        <ele>61</ele>
        <time>2022-08-07T08:27:26Z</time>
      </trkpt>
      <trkpt lat="47.22244" lon="-1.42791">
        <ele>61</ele>
        <time>2022-08-07T08:27:28Z</time>
      </trkpt>
      <trkpt lat="47.2225" lon="-1.42775">
        <ele>61</ele>
        <time>2022-08-07T08:27:30Z</time>
      </trkpt>
      <trkpt lat="47.22256" lon="-1.42759">
        <ele>61</ele>
        <time>2022-08-07T08:27:32Z</time>
      </trkpt>
      <trkpt lat="47.22261" lon="-1.42743">
        <ele>61</ele>
        <time>2022-08-07T08:27:34Z</time>
      </trkpt>
      <trkpt lat="47.22267" lon="-1.42727">
        <ele>62</ele>
        <time>2022-08-07T08:27:36Z</time>
      </trkpt>
      <trkpt lat="47.22273" lon="-1.42711">
        <ele>62</ele>
        <time>2022-08-07T08:27:38Z</time>
      </trkpt>
      <trkpt lat="47.22279" lon="-1.42694">
        <ele>61</ele>
        <time>2022-08-07T08:27:40Z</time>
      </trkpt>
      <trkpt lat="47.22285" lon="-1.42678">
        <ele>61</ele>
        <time>2022-08-07T08:27:42Z</time>
      </trkpt>
      <trkpt lat="47.22291" lon="-1.42663">
        <ele>61</ele>
        <time>2022-08-07T08:27:44Z</time>
      </trkpt>
      <trkpt lat="47.22296" lon="-1.42647">
        <ele>61</ele>
        <time>2022-08-07T08:27:46Z</time>
      </trkpt>
      <trkpt lat="47.22302" lon="-1.42631">
        <ele>61</ele>
        <time>2022-08-07T08:27:48Z</time>
      </trkpt>
      <trkpt lat="47.22307" lon="-1.42615">
        <ele>61</ele>
        <time>2022-08-07T08:27:50Z</time>
      </trkpt>
      <trkpt lat="47.22313" lon="-1.42599">
        <ele>61</ele>
        <time>2022-08-07T08:27:52Z</time>
      </trkpt>
      <trkpt lat="47.22319" lon="-1.42583">
        <ele>60</ele>
        <time>2022-08-07T08:27:54Z</time>
      </trkpt>
      <trkpt lat="47.22325" lon="-1.42566">
        <ele>60</ele>
        <time>2022-08-07T08:27:56Z</time>
      </trkpt>
      <trkpt lat="47.22331" lon="-1.42549">
        <ele>59</ele>
        <time>2022-08-07T08:27:58Z</time>
      </trkpt>
      <trkpt lat="47.22337" lon="-1.42532">
        <ele>59</ele>
        <time>2022-08-07T08:28:00Z</time>
      </trkpt>
      <trkpt lat="47.22343" lon="-1.42515">
        <ele>59</ele>
        <time>2022-08-07T08:28:02Z</time>
      </trkpt>
      <trkpt lat="47.22349" lon="-1.42498">
        <ele>59</ele>
        <time>2022-08-07T08:28:04Z</time>
      </trkpt>
      <trkpt lat="47.22356" lon="-1.42481">
        <ele>59</ele>
        <time>2022-08-07T08:28:06Z</time>
      </trkpt>
      <trkpt lat="47.22362" lon="-1.42464">
        <ele>59</ele>
        <time>2022-08-07T08:28:08Z</time>
      </trkpt>
      <trkpt lat="47.22368" lon="-1.42447">
        <ele>59</ele>
        <time>2022-08-07T08:28:10Z</time>
      </trkpt>
      <trkpt lat="47.22373" lon="-1.42431">
        <ele>59</ele>
        <time>2022-08-07T08:28:12Z</time>
      </trkpt>
      <trkpt lat="47.22379" lon="-1.42414">
        <ele>59</ele>
        <time>2022-08-07T08:28:14Z</time>
      </trkpt>
      <trkpt lat="47.22386" lon="-1.42397">
        <ele>59</ele>
        <time>2022-08-07T08:28:16Z</time>
      </trkpt>
      <trkpt lat="47.22392" lon="-1.4238">
        <ele>59</ele>
        <time>2022-08-07T08:28:18Z</time>
      </trkpt>
      <trkpt lat="47.22398" lon="-1.42363">
        <ele>59</ele>
        <time>2022-08-07T08:28:20Z</time>
      </trkpt>
      <trkpt lat="47.22404" lon="-1.42347">
        <ele>58</ele>
        <time>2022-08-07T08:28:22Z</time>
      </trkpt>
      <trkpt lat="47.2241" lon="-1.42331">
        <ele>59</ele>
        <time>2022-08-07T08:28:24Z</time>
      </trkpt>
      <trkpt lat="47.22416" lon="-1.42316">
        <ele>59</ele>
        <time>2022-08-07T08:28:26Z</time>
      </trkpt>
      <trkpt lat="47.22421" lon="-1.42301">
        <ele>59</ele>
        <time>2022-08-07T08:28:28Z</time>
      </trkpt>
      <trkpt lat="47.22426" lon="-1.42286">
        <ele>59</ele>
        <time>2022-08-07T08:28:30Z</time>
      </trkpt>
      <trkpt lat="47.22432" lon="-1.42272">
        <ele>59</ele>
        <time>2022-08-07T08:28:32Z</time>
      </trkpt>
      <trkpt lat="47.22437" lon="-1.42257">
        <ele>60</ele>
        <time>2022-08-07T08:28:34Z</time>
      </trkpt>
      <trkpt lat="47.22442" lon="-1.42244">
        <ele>60</ele>
        <time>2022-08-07T08:28:36Z</time>
      </trkpt>
      <trkpt lat="47.22448" lon="-1.42229">
        <ele>61</ele>
        <time>2022-08-07T08:28:38Z</time>
      </trkpt>
      <trkpt lat="47.22454" lon="-1.42214">
        <ele>61</ele>
        <time>2022-08-07T08:28:40Z</time>
      </trkpt>
      <trkpt lat="47.22459" lon="-1.42199">
        <ele>61</ele>
        <time>2022-08-07T08:28:42Z</time>
      </trkpt>
      <trkpt lat="47.22464" lon="-1.42185">
        <ele>61</ele>
        <time>2022-08-07T08:28:44Z</time>
      </trkpt>
      <trkpt lat="47.22469" lon="-1.42172">
        <ele>62</ele>
        <time>2022-08-07T08:28:46Z</time>
      </trkpt>
      <trkpt lat="47.22474" lon="-1.42158">
        <ele>63</ele>
        <time>2022-08-07T08:28:48Z</time>
      </trkpt>
      <trkpt lat="47.22479" lon="-1.42143">
        <ele>63</ele>
        <time>2022-08-07T08:28:50Z</time>
      </trkpt>
      <trkpt lat="47.22484" lon="-1.42129">
        <ele>63</ele>
        <time>2022-08-07T08:28:52Z</time>
      </trkpt>
      <trkpt lat="47.22489" lon="-1.42116">
        <ele>63</ele>
        <time>2022-08-07T08:28:54Z</time>
      </trkpt>
      <trkpt lat="47.22494" lon="-1.42102">
        <ele>63</ele>
        <time>2022-08-07T08:28:56Z</time>
      </trkpt>
      <trkpt lat="47.22499" lon="-1.42088">
        <ele>63</ele>
        <time>2022-08-07T08:28:58Z</time>
      </trkpt>
      <trkpt lat="47.22504" lon="-1.42074">
        <ele>64</ele>
        <time>2022-08-07T08:29:00Z</time>
      </trkpt>
      <trkpt lat="47.2251" lon="-1.4206">
        <ele>64</ele>
        <time>2022-08-07T08:29:02Z</time>
      </trkpt>
      <trkpt lat="47.22515" lon="-1.42046">
        <ele>64</ele>
        <time>2022-08-07T08:29:04Z</time>
      </trkpt>
      <trkpt lat="47.22521" lon="-1.42031">
        <ele>64</ele>
        <time>2022-08-07T08:29:06Z</time>
      </trkpt>
      <trkpt lat="47.22527" lon="-1.42016">
        <ele>64</ele>
        <time>2022-08-07T08:29:08Z</time>
      </trkpt>
      <trkpt lat="47.22533" lon="-1.42002">
        <ele>64</ele>
        <time>2022-08-07T08:29:10Z</time>
      </trkpt>
      <trkpt lat="47.22539" lon="-1.41986">
        <ele>64</ele>
        <time>2022-08-07T08:29:12Z</time>
      </trkpt>
      <trkpt lat="47.22544" lon="-1.41972">
        <ele>64</ele>
        <time>2022-08-07T08:29:14Z</time>
      </trkpt>
      <trkpt lat="47.2255" lon="-1.41957">
        <ele>64</ele>
        <time>2022-08-07T08:29:16Z</time>
      </trkpt>
      <trkpt lat="47.22556" lon="-1.41942">
        <ele>64</ele>
        <time>2022-08-07T08:29:18Z</time>
      </trkpt>
      <trkpt lat="47.22562" lon="-1.41927">
        <ele>65</ele>
        <time>2022-08-07T08:29:20Z</time>
      </trkpt>
      <trkpt lat="47.22567" lon="-1.41912">
        <ele>65</ele>
        <time>2022-08-07T08:29:22Z</time>
      </trkpt>
      <trkpt lat="47.22573" lon="-1.41897">
        <ele>65</ele>
        <time>2022-08-07T08:29:24Z</time>
      </trkpt>
      <trkpt lat="47.22579" lon="-1.41882">
        <ele>65</ele>
        <time>2022-08-07T08:29:26Z</time>
      </trkpt>
      <trkpt lat="47.22585" lon="-1.41868">
        <ele>66</ele>
        <time>2022-08-07T08:29:28Z</time>
      </trkpt>
      <trkpt lat="47.22591" lon="-1.41853">
        <ele>66</ele>
        <time>2022-08-07T08:29:30Z</time>
      </trkpt>
      <trkpt lat="47.22596" lon="-1.41838">
        <ele>66</ele>
        <time>2022-08-07T08:29:32Z</time>
      </trkpt>
      <trkpt lat="47.22602" lon="-1.41823">
        <ele>67</ele>
        <time>2022-08-07T08:29:34Z</time>
      </trkpt>
      <trkpt lat="47.22608" lon="-1.41808">
        <ele>67</ele>
        <time>2022-08-07T08:29:36Z</time>
      </trkpt>
      <trkpt lat="47.22615" lon="-1.41792">
        <ele>67</ele>
        <time>2022-08-07T08:29:38Z</time>
      </trkpt>
      <trkpt lat="47.2262" lon="-1.41777">
        <ele>67</ele>
        <time>2022-08-07T08:29:40Z</time>
      </trkpt>
      <trkpt lat="47.22626" lon="-1.41763">
        <ele>68</ele>
        <time>2022-08-07T08:29:42Z</time>
      </trkpt>
      <trkpt lat="47.22632" lon="-1.41748">
        <ele>68</ele>
        <time>2022-08-07T08:29:44Z</time>
      </trkpt>
      <trkpt lat="47.22637" lon="-1.41733">
        <ele>68</ele>
        <time>2022-08-07T08:29:46Z</time>
      </trkpt>
      <trkpt lat="47.22644" lon="-1.41717">
        <ele>68</ele>
        <time>2022-08-07T08:29:48Z</time>
      </trkpt>
      <trkpt lat="47.2265" lon="-1.41702">
        <ele>69</ele>
        <time>2022-08-07T08:29:50Z</time>
      </trkpt>
      <trkpt lat="47.22656" lon="-1.41687">
        <ele>69</ele>
        <time>2022-08-07T08:29:52Z</time>
      </trkpt>
      <trkpt lat="47.22662" lon="-1.41672">
        <ele>69</ele>
        <time>2022-08-07T08:29:54Z</time>
      </trkpt>
      <trkpt lat="47.22668" lon="-1.41657">
        <ele>69</ele>
        <time>2022-08-07T08:29:56Z</time>
      </trkpt>
      <trkpt lat="47.22673" lon="-1.41643">
        <ele>69</ele>
        <time>2022-08-07T08:29:58Z</time>
      </trkpt>
      <trkpt lat="47.22679" lon="-1.41628">
        <ele>69</ele>
        <time>2022-08-07T08:30:00Z</time>
      </trkpt>
      <trkpt lat="47.22685" lon="-1.41614">
        <ele>69</ele>
        <time>2022-08-07T08:30:02Z</time>
      </trkpt>
      <trkpt lat="47.22691" lon="-1.416">
        <ele>69</ele>
        <time>2022-08-07T08:30:04Z</time>
      </trkpt>
      <trkpt lat="47.22696" lon="-1.41586">
        <ele>69</ele>
        <time>2022-08-07T08:30:06Z</time>
      </trkpt>
      <trkpt lat="47.22701" lon="-1.41572">
        <ele>69</ele>
        <time>2022-08-07T08:30:08Z</time>
      </trkpt>
      <trkpt lat="47.22706" lon="-1.41558">
        <ele>68</ele>
        <time>2022-08-07T08:30:10Z</time>
      </trkpt>
      <trkpt lat="47.22711" lon="-1.41544">
        <ele>68</ele>
        <time>2022-08-07T08:30:12Z</time>
      </trkpt>
      <trkpt lat="47.22717" lon="-1.41529">
        <ele>68</ele>
        <time>2022-08-07T08:30:14Z</time>
      </trkpt>
      <trkpt lat="47.22722" lon="-1.41515">
        <ele>68</ele>
        <time>2022-08-07T08:30:16Z</time>
      </trkpt>
      <trkpt lat="47.22727" lon="-1.415">
        <ele>68</ele>
        <time>2022-08-07T08:30:18Z</time>
      </trkpt>
      <trkpt lat="47.22733" lon="-1.41486">
        <ele>68</ele>
        <time>2022-08-07T08:30:20Z</time>
      </trkpt>
      <trkpt lat="47.22739" lon="-1.41472">
        <ele>68</ele>
        <time>2022-08-07T08:30:22Z</time>
      </trkpt>
      <trkpt lat="47.22745" lon="-1.41457">
        <ele>67</ele>
        <time>2022-08-07T08:30:24Z</time>
      </trkpt>
      <trkpt lat="47.2275" lon="-1.41442">
        <ele>67</ele>
        <time>2022-08-07T08:30:26Z</time>
      </trkpt>
      <trkpt lat="47.22756" lon="-1.41428">
        <ele>66</ele>
        <time>2022-08-07T08:30:28Z</time>
      </trkpt>
      <trkpt lat="47.22762" lon="-1.41413">
        <ele>66</ele>
        <time>2022-08-07T08:30:30Z</time>
      </trkpt>
      <trkpt lat="47.22768" lon="-1.41398">
        <ele>66</ele>
        <time>2022-08-07T08:30:32Z</time>
      </trkpt>
      <trkpt lat="47.22774" lon="-1.41384">
        <ele>66</ele>
        <time>2022-08-07T08:30:34Z</time>
      </trkpt>
      <trkpt lat="47.22779" lon="-1.41369">
        <ele>66</ele>
        <time>2022-08-07T08:30:36Z</time>
      </trkpt>
      <trkpt lat="47.22785" lon="-1.41353">
        <ele>67</ele>
        <time>2022-08-07T08:30:38Z</time>
      </trkpt>
      <trkpt lat="47.22791" lon="-1.41338">
        <ele>67</ele>
        <time>2022-08-07T08:30:40Z</time>
      </trkpt>
      <trkpt lat="47.22797" lon="-1.41322">
        <ele>68</ele>
        <time>2022-08-07T08:30:42Z</time>
      </trkpt>
      <trkpt lat="47.22804" lon="-1.41304">
        <ele>68</ele>
        <time>2022-08-07T08:30:44Z</time>
      </trkpt>
      <trkpt lat="47.22811" lon="-1.41288">
        <ele>67</ele>
        <time>2022-08-07T08:30:46Z</time>
      </trkpt>
      <trkpt lat="47.22817" lon="-1.41272">
        <ele>67</ele>
        <time>2022-08-07T08:30:48Z</time>
      </trkpt>
      <trkpt lat="47.22823" lon="-1.41255">
        <ele>67</ele>
        <time>2022-08-07T08:30:50Z</time>
      </trkpt>
      <trkpt lat="47.22829" lon="-1.41238">
        <ele>67</ele>
        <time>2022-08-07T08:30:52Z</time>
      </trkpt>
      <trkpt lat="47.22836" lon="-1.41222">
        <ele>66</ele>
        <time>2022-08-07T08:30:54Z</time>
      </trkpt>
      <trkpt lat="47.22843" lon="-1.41205">
        <ele>66</ele>
        <time>2022-08-07T08:30:56Z</time>
      </trkpt>
      <trkpt lat="47.22849" lon="-1.41189">
        <ele>67</ele>
        <time>2022-08-07T08:30:58Z</time>
      </trkpt>
      <trkpt lat="47.22856" lon="-1.41173">
        <ele>66</ele>
        <time>2022-08-07T08:31:00Z</time>
      </trkpt>
      <trkpt lat="47.22863" lon="-1.41156">
        <ele>66</ele>
        <time>2022-08-07T08:31:02Z</time>
      </trkpt>
      <trkpt lat="47.22868" lon="-1.4114">
        <ele>65</ele>
        <time>2022-08-07T08:31:04Z</time>
      </trkpt>
      <trkpt lat="47.22875" lon="-1.41123">
        <ele>65</ele>
        <time>2022-08-07T08:31:06Z</time>
      </trkpt>
      <trkpt lat="47.22882" lon="-1.41106">
        <ele>64</ele>
        <time>2022-08-07T08:31:08Z</time>
      </trkpt>
      <trkpt lat="47.22889" lon="-1.4109">
        <ele>64</ele>
        <time>2022-08-07T08:31:10Z</time>
      </trkpt>
      <trkpt lat="47.22895" lon="-1.41073">
        <ele>64</ele>
        <time>2022-08-07T08:31:12Z</time>
      </trkpt>
      <trkpt lat="47.22902" lon="-1.41057">
        <ele>64</ele>
        <time>2022-08-07T08:31:14Z</time>
      </trkpt>
      <trkpt lat="47.22908" lon="-1.4104">
        <ele>64</ele>
        <time>2022-08-07T08:31:16Z</time>
      </trkpt>
      <trkpt lat="47.22915" lon="-1.41023">
        <ele>64</ele>
        <time>2022-08-07T08:31:18Z</time>
      </trkpt>
      <trkpt lat="47.22921" lon="-1.41008">
        <ele>64</ele>
        <time>2022-08-07T08:31:20Z</time>
      </trkpt>
      <trkpt lat="47.22927" lon="-1.40992">
        <ele>64</ele>
        <time>2022-08-07T08:31:22Z</time>
      </trkpt>
      <trkpt lat="47.22933" lon="-1.40977">
        <ele>64</ele>
        <time>2022-08-07T08:31:24Z</time>
      </trkpt>
      <trkpt lat="47.22939" lon="-1.40962">
        <ele>64</ele>
        <time>2022-08-07T08:31:26Z</time>
      </trkpt>
      <trkpt lat="47.22945" lon="-1.40946">
        <ele>65</ele>
        <time>2022-08-07T08:31:28Z</time>
      </trkpt>
      <trkpt lat="47.2295" lon="-1.40931">
        <ele>65</ele>
        <time>2022-08-07T08:31:30Z</time>
      </trkpt>
      <trkpt lat="47.22956" lon="-1.40917">
        <ele>65</ele>
        <time>2022-08-07T08:31:32Z</time>
      </trkpt>
      <trkpt lat="47.22962" lon="-1.40903">
        <ele>65</ele>
        <time>2022-08-07T08:31:34Z</time>
      </trkpt>
      <trkpt lat="47.22967" lon="-1.4089">
        <ele>65</ele>
        <time>2022-08-07T08:31:36Z</time>
      </trkpt>
      <trkpt lat="47.22972" lon="-1.40876">
        <ele>65</ele>
        <time>2022-08-07T08:31:38Z</time>
      </trkpt>
      <trkpt lat="47.22977" lon="-1.40863">
        <ele>65</ele>
        <time>2022-08-07T08:31:40Z</time>
      </trkpt>
      <trkpt lat="47.22982" lon="-1.40851">
        <ele>65</ele>
        <time>2022-08-07T08:31:42Z</time>
      </trkpt>
      <trkpt lat="47.22987" lon="-1.40839">
        <ele>65</ele>
        <time>2022-08-07T08:31:44Z</time>
      </trkpt>
      <trkpt lat="47.22992" lon="-1.40825">
        <ele>65</ele>
        <time>2022-08-07T08:31:46Z</time>
      </trkpt>
      <trkpt lat="47.22997" lon="-1.40813">
        <ele>65</ele>
        <time>2022-08-07T08:31:48Z</time>
      </trkpt>
      <trkpt lat="47.23002" lon="-1.408">
        <ele>66</ele>
        <time>2022-08-07T08:31:50Z</time>
      </trkpt>
      <trkpt lat="47.23007" lon="-1.40786">
        <ele>66</ele>
        <time>2022-08-07T08:31:52Z</time>
      </trkpt>
      <trkpt lat="47.23012" lon="-1.40773">
        <ele>65</ele>
        <time>2022-08-07T08:31:54Z</time>
      </trkpt>
      <trkpt lat="47.23017" lon="-1.40761">
        <ele>65</ele>
        <time>2022-08-07T08:31:56Z</time>
      </trkpt>
      <trkpt lat="47.23022" lon="-1.40748">
        <ele>66</ele>
        <time>2022-08-07T08:31:58Z</time>
      </trkpt>
      <trkpt lat="47.23027" lon="-1.40735">
        <ele>66</ele>
        <time>2022-08-07T08:32:00Z</time>
      </trkpt>
      <trkpt lat="47.23033" lon="-1.40722">
        <ele>66</ele>
        <time>2022-08-07T08:32:02Z</time>
      </trkpt>
      <trkpt lat="47.23038" lon="-1.40709">
        <ele>66</ele>
        <time>2022-08-07T08:32:04Z</time>
      </trkpt>
      <trkpt lat="47.23042" lon="-1.40697">
        <ele>66</ele>
        <time>2022-08-07T08:32:06Z</time>
      </trkpt>
      <trkpt lat="47.23047" lon="-1.40685">
        <ele>66</ele>
        <time>2022-08-07T08:32:08Z</time>
      </trkpt>
      <trkpt lat="47.23052" lon="-1.40673">
        <ele>66</ele>
        <time>2022-08-07T08:32:10Z</time>
      </trkpt>
      <trkpt lat="47.23057" lon="-1.4066">
        <ele>66</ele>
        <time>2022-08-07T08:32:12Z</time>
      </trkpt>
      <trkpt lat="47.23062" lon="-1.40647">
        <ele>67</ele>
        <time>2022-08-07T08:32:14Z</time>
      </trkpt>
      <trkpt lat="47.23067" lon="-1.40634">
        <ele>67</ele>
        <time>2022-08-07T08:32:16Z</time>
      </trkpt>
      <trkpt lat="47.23072" lon="-1.40621">
        <ele>67</ele>
        <time>2022-08-07T08:32:18Z</time>
      </trkpt>
      <trkpt lat="47.23077" lon="-1.40609">
        <ele>67</ele>
        <time>2022-08-07T08:32:20Z</time>
      </trkpt>
      <trkpt lat="47.23082" lon="-1.40596">
        <ele>67</ele>
        <time>2022-08-07T08:32:22Z</time>
      </trkpt>
      <trkpt lat="47.23087" lon="-1.40584">
        <ele>67</ele>
        <time>2022-08-07T08:32:24Z</time>
      </trkpt>
      <trkpt lat="47.23091" lon="-1.40571">
        <ele>67</ele>
        <time>2022-08-07T08:32:26Z</time>
      </trkpt>
      <trkpt lat="47.23096" lon="-1.40559">
        <ele>67</ele>
        <time>2022-08-07T08:32:28Z</time>
      </trkpt>
      <trkpt lat="47.23101" lon="-1.40546">
        <ele>67</ele>
        <time>2022-08-07T08:32:30Z</time>
      </trkpt>
      <trkpt lat="47.23107" lon="-1.40533">
        <ele>66</ele>
        <time>2022-08-07T08:32:32Z</time>
      </trkpt>
      <trkpt lat="47.23111" lon="-1.4052">
        <ele>67</ele>
        <time>2022-08-07T08:32:34Z</time>
      </trkpt>
      <trkpt lat="47.23117" lon="-1.40507">
        <ele>66</ele>
        <time>2022-08-07T08:32:36Z</time>
      </trkpt>
      <trkpt lat="47.23122" lon="-1.40494">
        <ele>66</ele>
        <time>2022-08-07T08:32:38Z</time>
      </trkpt>
      <trkpt lat="47.23127" lon="-1.4048">
        <ele>66</ele>
        <time>2022-08-07T08:32:40Z</time>
      </trkpt>
      <trkpt lat="47.23133" lon="-1.40466">
        <ele>66</ele>
        <time>2022-08-07T08:32:42Z</time>
      </trkpt>
      <trkpt lat="47.23138" lon="-1.40452">
        <ele>65</ele>
        <time>2022-08-07T08:32:44Z</time>
      </trkpt>
      <trkpt lat="47.23144" lon="-1.40438">
        <ele>65</ele>
        <time>2022-08-07T08:32:46Z</time>
      </trkpt>
      <trkpt lat="47.23149" lon="-1.40423">
        <ele>65</ele>
        <time>2022-08-07T08:32:48Z</time>
      </trkpt>
      <trkpt lat="47.23155" lon="-1.40409">
        <ele>65</ele>
        <time>2022-08-07T08:32:50Z</time>
      </trkpt>
      <trkpt lat="47.23161" lon="-1.40394">
        <ele>64</ele>
        <time>2022-08-07T08:32:52Z</time>
      </trkpt>
      <trkpt lat="47.23166" lon="-1.40379">
        <ele>64</ele>
        <time>2022-08-07T08:32:54Z</time>
      </trkpt>
      <trkpt lat="47.23172" lon="-1.40364">
        <ele>64</ele>
        <time>2022-08-07T08:32:56Z</time>
      </trkpt>
      <trkpt lat="47.23178" lon="-1.40349">
        <ele>64</ele>
        <time>2022-08-07T08:32:58Z</time>
      </trkpt>
      <trkpt lat="47.23184" lon="-1.40334">
        <ele>64</ele>
        <time>2022-08-07T08:33:00Z</time>
      </trkpt>
      <trkpt lat="47.23189" lon="-1.40319">
        <ele>63</ele>
        <time>2022-08-07T08:33:02Z</time>
      </trkpt>
      <trkpt lat="47.23195" lon="-1.40305">
        <ele>63</ele>
        <time>2022-08-07T08:33:04Z</time>
      </trkpt>
      <trkpt lat="47.232" lon="-1.4029">
        <ele>63</ele>
        <time>2022-08-07T08:33:06Z</time>
      </trkpt>
      <trkpt lat="47.23207" lon="-1.40274">
        <ele>62</ele>
        <time>2022-08-07T08:33:08Z</time>
      </trkpt>
      <trkpt lat="47.23213" lon="-1.40257">
        <ele>62</ele>
        <time>2022-08-07T08:33:10Z</time>
      </trkpt>
      <trkpt lat="47.2322" lon="-1.40241">
        <ele>62</ele>
        <time>2022-08-07T08:33:12Z</time>
      </trkpt>
      <trkpt lat="47.23226" lon="-1.40225">
        <ele>61</ele>
        <time>2022-08-07T08:33:14Z</time>
      </trkpt>
      <trkpt lat="47.23232" lon="-1.40209">
        <ele>61</ele>
        <time>2022-08-07T08:33:16Z</time>
      </trkpt>
      <trkpt lat="47.23239" lon="-1.40192">
        <ele>60</ele>
        <time>2022-08-07T08:33:18Z</time>
      </trkpt>
      <trkpt lat="47.23246" lon="-1.40176">
        <ele>60</ele>
        <time>2022-08-07T08:33:20Z</time>
      </trkpt>
      <trkpt lat="47.23252" lon="-1.4016">
        <ele>60</ele>
        <time>2022-08-07T08:33:22Z</time>
      </trkpt>
      <trkpt lat="47.23258" lon="-1.40144">
        <ele>59</ele>
        <time>2022-08-07T08:33:24Z</time>
      </trkpt>
      <trkpt lat="47.23265" lon="-1.40127">
        <ele>59</ele>
        <time>2022-08-07T08:33:26Z</time>
      </trkpt>
      <trkpt lat="47.23271" lon="-1.40111">
        <ele>59</ele>
        <time>2022-08-07T08:33:28Z</time>
      </trkpt>
      <trkpt lat="47.23277" lon="-1.40095">
        <ele>59</ele>
        <time>2022-08-07T08:33:30Z</time>
      </trkpt>
      <trkpt lat="47.23284" lon="-1.4008">
        <ele>59</ele>
        <time>2022-08-07T08:33:32Z</time>
      </trkpt>
      <trkpt lat="47.23289" lon="-1.40065">
        <ele>59</ele>
        <time>2022-08-07T08:33:34Z</time>
      </trkpt>
      <trkpt lat="47.23295" lon="-1.40051">
        <ele>59</ele>
        <time>2022-08-07T08:33:36Z</time>
      </trkpt>
      <trkpt lat="47.233" lon="-1.40037">
        <ele>58</ele>
        <time>2022-08-07T08:33:38Z</time>
      </trkpt>
      <trkpt lat="47.23305" lon="-1.40024">
        <ele>58</ele>
        <time>2022-08-07T08:33:40Z</time>
      </trkpt>
      <trkpt lat="47.2331" lon="-1.40011">
        <ele>58</ele>
        <time>2022-08-07T08:33:42Z</time>
      </trkpt>
      <trkpt lat="47.23315" lon="-1.39997">
        <ele>58</ele>
        <time>2022-08-07T08:33:44Z</time>
      </trkpt>
      <trkpt lat="47.2332" lon="-1.39985">
        <ele>58</ele>
        <time>2022-08-07T08:33:46Z</time>
      </trkpt>
      <trkpt lat="47.23325" lon="-1.39972">
        <ele>58</ele>
        <time>2022-08-07T08:33:48Z</time>
      </trkpt>
      <trkpt lat="47.2333" lon="-1.3996">
        <ele>58</ele>
        <time>2022-08-07T08:33:50Z</time>
      </trkpt>
      <trkpt lat="47.23334" lon="-1.39947">
        <ele>58</ele>
        <time>2022-08-07T08:33:52Z</time>
      </trkpt>
      <trkpt lat="47.23339" lon="-1.39934">
        <ele>58</ele>
        <time>2022-08-07T08:33:54Z</time>
      </trkpt>
      <trkpt lat="47.23343" lon="-1.39921">
        <ele>58</ele>
        <time>2022-08-07T08:33:56Z</time>
      </trkpt>
      <trkpt lat="47.23346" lon="-1.39908">
        <ele>58</ele>
        <time>2022-08-07T08:33:58Z</time>
      </trkpt>
      <trkpt lat="47.2335" lon="-1.39894">
        <ele>58</ele>
        <time>2022-08-07T08:34:00Z</time>
      </trkpt>
      <trkpt lat="47.23354" lon="-1.39881">
        <ele>59</ele>
        <time>2022-08-07T08:34:02Z</time>
      </trkpt>
      <trkpt lat="47.23357" lon="-1.39867">
        <ele>59</ele>
        <time>2022-08-07T08:34:04Z</time>
      </trkpt>
      <trkpt lat="47.2336" lon="-1.39853">
        <ele>59</ele>
        <time>2022-08-07T08:34:06Z</time>
      </trkpt>
      <trkpt lat="47.23362" lon="-1.3984">
        <ele>59</ele>
        <time>2022-08-07T08:34:08Z</time>
      </trkpt>
      <trkpt lat="47.23365" lon="-1.39826">
        <ele>59</ele>
        <time>2022-08-07T08:34:10Z</time>
      </trkpt>
      <trkpt lat="47.23367" lon="-1.39813">
        <ele>59</ele>
        <time>2022-08-07T08:34:12Z</time>
      </trkpt>
      <trkpt lat="47.23369" lon="-1.39799">
        <ele>58</ele>
        <time>2022-08-07T08:34:14Z</time>
      </trkpt>
      <trkpt lat="47.23372" lon="-1.39785">
        <ele>58</ele>
        <time>2022-08-07T08:34:16Z</time>
      </trkpt>
      <trkpt lat="47.23373" lon="-1.39771">
        <ele>58</ele>
        <time>2022-08-07T08:34:18Z</time>
      </trkpt>
      <trkpt lat="47.23375" lon="-1.39758">
        <ele>58</ele>
        <time>2022-08-07T08:34:20Z</time>
      </trkpt>
      <trkpt lat="47.23376" lon="-1.39743">
        <ele>58</ele>
        <time>2022-08-07T08:34:22Z</time>
      </trkpt>
      <trkpt lat="47.23378" lon="-1.39729">
        <ele>59</ele>
        <time>2022-08-07T08:34:24Z</time>
      </trkpt>
      <trkpt lat="47.23379" lon="-1.39714">
        <ele>59</ele>
        <time>2022-08-07T08:34:26Z</time>
      </trkpt>
      <trkpt lat="47.2338" lon="-1.397">
        <ele>59</ele>
        <time>2022-08-07T08:34:28Z</time>
      </trkpt>
      <trkpt lat="47.23382" lon="-1.39685">
        <ele>59</ele>
        <time>2022-08-07T08:34:30Z</time>
      </trkpt>
      <trkpt lat="47.23383" lon="-1.39671">
        <ele>59</ele>
        <time>2022-08-07T08:34:32Z</time>
      </trkpt>
      <trkpt lat="47.23384" lon="-1.39656">
        <ele>60</ele>
        <time>2022-08-07T08:34:34Z</time>
      </trkpt>
      <trkpt lat="47.23386" lon="-1.39641">
        <ele>60</ele>
        <time>2022-08-07T08:34:36Z</time>
      </trkpt>
      <trkpt lat="47.23387" lon="-1.39627">
        <ele>60</ele>
        <time>2022-08-07T08:34:38Z</time>
      </trkpt>
      <trkpt lat="47.23388" lon="-1.39612">
        <ele>60</ele>
        <time>2022-08-07T08:34:40Z</time>
      </trkpt>
      <trkpt lat="47.23389" lon="-1.39598">
        <ele>59</ele>
        <time>2022-08-07T08:34:42Z</time>
      </trkpt>
      <trkpt lat="47.2339" lon="-1.39584">
        <ele>60</ele>
        <time>2022-08-07T08:34:44Z</time>
      </trkpt>
      <trkpt lat="47.23392" lon="-1.39569">
        <ele>60</ele>
        <time>2022-08-07T08:34:46Z</time>
      </trkpt>
      <trkpt lat="47.23393" lon="-1.39555">
        <ele>60</ele>
        <time>2022-08-07T08:34:48Z</time>
      </trkpt>
      <trkpt lat="47.23394" lon="-1.39541">
        <ele>60</ele>
        <time>2022-08-07T08:34:50Z</time>
      </trkpt>
      <trkpt lat="47.23395" lon="-1.39527">
        <ele>60</ele>
        <time>2022-08-07T08:34:52Z</time>
      </trkpt>
      <trkpt lat="47.23397" lon="-1.39513">
        <ele>60</ele>
        <time>2022-08-07T08:34:54Z</time>
      </trkpt>
      <trkpt lat="47.23398" lon="-1.39498">
        <ele>60</ele>
        <time>2022-08-07T08:34:56Z</time>
      </trkpt>
      <trkpt lat="47.23399" lon="-1.39483">
        <ele>60</ele>
        <time>2022-08-07T08:34:58Z</time>
      </trkpt>
      <trkpt lat="47.23401" lon="-1.39469">
        <ele>60</ele>
        <time>2022-08-07T08:35:00Z</time>
      </trkpt>
      <trkpt lat="47.23402" lon="-1.39454">
        <ele>60</ele>
        <time>2022-08-07T08:35:02Z</time>
      </trkpt>
      <trkpt lat="47.23404" lon="-1.3944">
        <ele>60</ele>
        <time>2022-08-07T08:35:04Z</time>
      </trkpt>
      <trkpt lat="47.23405" lon="-1.39427">
        <ele>61</ele>
        <time>2022-08-07T08:35:06Z</time>
      </trkpt>
      <trkpt lat="47.23407" lon="-1.39413">
        <ele>61</ele>
        <time>2022-08-07T08:35:08Z</time>
      </trkpt>
      <trkpt lat="47.23408" lon="-1.39398">
        <ele>62</ele>
        <time>2022-08-07T08:35:10Z</time>
      </trkpt>
      <trkpt lat="47.2341" lon="-1.39384">
        <ele>61</ele>
        <time>2022-08-07T08:35:12Z</time>
      </trkpt>
      <trkpt lat="47.23411" lon="-1.39369">
        <ele>62</ele>
        <time>2022-08-07T08:35:14Z</time>
      </trkpt>
      <trkpt lat="47.23412" lon="-1.39355">
        <ele>62</ele>
        <time>2022-08-07T08:35:16Z</time>
      </trkpt>
      <trkpt lat="47.23413" lon="-1.3934">
        <ele>62</ele>
        <time>2022-08-07T08:35:18Z</time>
      </trkpt>
      <trkpt lat="47.23415" lon="-1.39324">
        <ele>62</ele>
        <time>2022-08-07T08:35:20Z</time>
      </trkpt>
      <trkpt lat="47.23416" lon="-1.39308">
        <ele>62</ele>
        <time>2022-08-07T08:35:22Z</time>
      </trkpt>
      <trkpt lat="47.23418" lon="-1.39293">
        <ele>62</ele>
        <time>2022-08-07T08:35:24Z</time>
      </trkpt>
      <trkpt lat="47.23419" lon="-1.39277">
        <ele>62</ele>
        <time>2022-08-07T08:35:26Z</time>
      </trkpt>
      <trkpt lat="47.2342" lon="-1.39261">
        <ele>63</ele>
        <time>2022-08-07T08:35:28Z</time>
      </trkpt>
      <trkpt lat="47.23422" lon="-1.39246">
        <ele>63</ele>
        <time>2022-08-07T08:35:30Z</time>
      </trkpt>
      <trkpt lat="47.23424" lon="-1.39229">
        <ele>63</ele>
        <time>2022-08-07T08:35:32Z</time>
      </trkpt>
      <trkpt lat="47.23425" lon="-1.39214">
        <ele>63</ele>
        <time>2022-08-07T08:35:34Z</time>
      </trkpt>
      <trkpt lat="47.23426" lon="-1.39198">
        <ele>64</ele>
        <time>2022-08-07T08:35:36Z</time>
      </trkpt>
      <trkpt lat="47.23427" lon="-1.39183">
        <ele>64</ele>
        <time>2022-08-07T08:35:38Z</time>
      </trkpt>
      <trkpt lat="47.23429" lon="-1.39168">
        <ele>64</ele>
        <time>2022-08-07T08:35:40Z</time>
      </trkpt>
      <trkpt lat="47.2343" lon="-1.39153">
        <ele>64</ele>
        <time>2022-08-07T08:35:42Z</time>
      </trkpt>
      <trkpt lat="47.23432" lon="-1.39138">
        <ele>64</ele>
        <time>2022-08-07T08:35:44Z</time>
      </trkpt>
      <trkpt lat="47.23433" lon="-1.39124">
        <ele>65</ele>
        <time>2022-08-07T08:35:46Z</time>
      </trkpt>
      <trkpt lat="47.23435" lon="-1.39108">
        <ele>65</ele>
        <time>2022-08-07T08:35:48Z</time>
      </trkpt>
      <trkpt lat="47.23437" lon="-1.39092">
        <ele>64</ele>
        <time>2022-08-07T08:35:50Z</time>
      </trkpt>
      <trkpt lat="47.23438" lon="-1.39078">
        <ele>65</ele>
        <time>2022-08-07T08:35:52Z</time>
      </trkpt>
      <trkpt lat="47.2344" lon="-1.39062">
        <ele>65</ele>
        <time>2022-08-07T08:35:54Z</time>
      </trkpt>
      <trkpt lat="47.23441" lon="-1.39047">
        <ele>65</ele>
        <time>2022-08-07T08:35:56Z</time>
      </trkpt>
      <trkpt lat="47.23442" lon="-1.39033">
        <ele>65</ele>
        <time>2022-08-07T08:35:58Z</time>
      </trkpt>
      <trkpt lat="47.23444" lon="-1.39018">
        <ele>65</ele>
        <time>2022-08-07T08:36:00Z</time>
      </trkpt>
      <trkpt lat="47.23445" lon="-1.39004">
        <ele>66</ele>
        <time>2022-08-07T08:36:02Z</time>
      </trkpt>
      <trkpt lat="47.23446" lon="-1.3899">
        <ele>66</ele>
        <time>2022-08-07T08:36:04Z</time>
      </trkpt>
      <trkpt lat="47.23448" lon="-1.38976">
        <ele>66</ele>
        <time>2022-08-07T08:36:06Z</time>
      </trkpt>
      <trkpt lat="47.23449" lon="-1.38962">
        <ele>66</ele>
        <time>2022-08-07T08:36:08Z</time>
      </trkpt>
      <trkpt lat="47.2345" lon="-1.38942">
        <ele>67</ele>
        <time>2022-08-07T08:36:11Z</time>
      </trkpt>
      <trkpt lat="47.23451" lon="-1.38929">
        <ele>68</ele>
        <time>2022-08-07T08:36:13Z</time>
      </trkpt>
      <trkpt lat="47.23452" lon="-1.38915">
        <ele>68</ele>
        <time>2022-08-07T08:36:15Z</time>
      </trkpt>
      <trkpt lat="47.23453" lon="-1.38902">
        <ele>68</ele>
        <time>2022-08-07T08:36:17Z</time>
      </trkpt>
      <trkpt lat="47.23455" lon="-1.38888">
        <ele>69</ele>
        <time>2022-08-07T08:36:19Z</time>
      </trkpt>
      <trkpt lat="47.23456" lon="-1.38874">
        <ele>69</ele>
        <time>2022-08-07T08:36:21Z</time>
      </trkpt>
      <trkpt lat="47.23457" lon="-1.3886">
        <ele>69</ele>
        <time>2022-08-07T08:36:23Z</time>
      </trkpt>
      <trkpt lat="47.23459" lon="-1.38846">
        <ele>69</ele>
        <time>2022-08-07T08:36:25Z</time>
      </trkpt>
      <trkpt lat="47.2346" lon="-1.38833">
        <ele>69</ele>
        <time>2022-08-07T08:36:27Z</time>
      </trkpt>
      <trkpt lat="47.23461" lon="-1.38818">
        <ele>69</ele>
        <time>2022-08-07T08:36:29Z</time>
      </trkpt>
      <trkpt lat="47.23463" lon="-1.38804">
        <ele>69</ele>
        <time>2022-08-07T08:36:31Z</time>
      </trkpt>
      <trkpt lat="47.23464" lon="-1.3879">
        <ele>69</ele>
        <time>2022-08-07T08:36:33Z</time>
      </trkpt>
      <trkpt lat="47.23465" lon="-1.38775">
        <ele>69</ele>
        <time>2022-08-07T08:36:35Z</time>
      </trkpt>
      <trkpt lat="47.23466" lon="-1.3876">
        <ele>69</ele>
        <time>2022-08-07T08:36:37Z</time>
      </trkpt>
      <trkpt lat="47.23467" lon="-1.38746">
        <ele>69</ele>
        <time>2022-08-07T08:36:39Z</time>
      </trkpt>
      <trkpt lat="47.23469" lon="-1.38724">
        <ele>69</ele>
        <time>2022-08-07T08:36:42Z</time>
      </trkpt>
      <trkpt lat="47.23471" lon="-1.38709">
        <ele>69</ele>
        <time>2022-08-07T08:36:44Z</time>
      </trkpt>
      <trkpt lat="47.23473" lon="-1.38694">
        <ele>69</ele>
        <time>2022-08-07T08:36:46Z</time>
      </trkpt>
      <trkpt lat="47.23474" lon="-1.3868">
        <ele>69</ele>
        <time>2022-08-07T08:36:48Z</time>
      </trkpt>
      <trkpt lat="47.23475" lon="-1.38666">
        <ele>69</ele>
        <time>2022-08-07T08:36:50Z</time>
      </trkpt>
      <trkpt lat="47.23477" lon="-1.38651">
        <ele>69</ele>
        <time>2022-08-07T08:36:52Z</time>
      </trkpt>
      <trkpt lat="47.23478" lon="-1.38637">
        <ele>69</ele>
        <time>2022-08-07T08:36:54Z</time>
      </trkpt>
      <trkpt lat="47.23479" lon="-1.38621">
        <ele>69</ele>
        <time>2022-08-07T08:36:56Z</time>
      </trkpt>
      <trkpt lat="47.2348" lon="-1.38607">
        <ele>69</ele>
        <time>2022-08-07T08:36:58Z</time>
      </trkpt>
      <trkpt lat="47.23482" lon="-1.38592">
        <ele>69</ele>
        <time>2022-08-07T08:37:00Z</time>
      </trkpt>
      <trkpt lat="47.23483" lon="-1.38578">
        <ele>69</ele>
        <time>2022-08-07T08:37:02Z</time>
      </trkpt>
      <trkpt lat="47.23484" lon="-1.38563">
        <ele>70</ele>
        <time>2022-08-07T08:37:04Z</time>
      </trkpt>
      <trkpt lat="47.23486" lon="-1.38541">
        <ele>70</ele>
        <time>2022-08-07T08:37:07Z</time>
      </trkpt>
      <trkpt lat="47.23487" lon="-1.38526">
        <ele>70</ele>
        <time>2022-08-07T08:37:09Z</time>
      </trkpt>
      <trkpt lat="47.23487" lon="-1.38503">
        <ele>69</ele>
        <time>2022-08-07T08:37:12Z</time>
      </trkpt>
      <trkpt lat="47.23486" lon="-1.38488">
        <ele>69</ele>
        <time>2022-08-07T08:37:14Z</time>
      </trkpt>
      <trkpt lat="47.23483" lon="-1.38472">
        <ele>69</ele>
        <time>2022-08-07T08:37:16Z</time>
      </trkpt>
      <trkpt lat="47.23486" lon="-1.38457">
        <ele>68</ele>
        <time>2022-08-07T08:37:18Z</time>
      </trkpt>
      <trkpt lat="47.23492" lon="-1.38443">
        <ele>68</ele>
        <time>2022-08-07T08:37:20Z</time>
      </trkpt>
      <trkpt lat="47.23495" lon="-1.38428">
        <ele>68</ele>
        <time>2022-08-07T08:37:22Z</time>
      </trkpt>
      <trkpt lat="47.23497" lon="-1.38412">
        <ele>67</ele>
        <time>2022-08-07T08:37:24Z</time>
      </trkpt>
      <trkpt lat="47.23499" lon="-1.38395">
        <ele>67</ele>
        <time>2022-08-07T08:37:26Z</time>
      </trkpt>
      <trkpt lat="47.23501" lon="-1.38378">
        <ele>67</ele>
        <time>2022-08-07T08:37:28Z</time>
      </trkpt>
      <trkpt lat="47.23502" lon="-1.38361">
        <ele>66</ele>
        <time>2022-08-07T08:37:30Z</time>
      </trkpt>
      <trkpt lat="47.23504" lon="-1.38345">
        <ele>66</ele>
        <time>2022-08-07T08:37:32Z</time>
      </trkpt>
      <trkpt lat="47.23506" lon="-1.38328">
        <ele>66</ele>
        <time>2022-08-07T08:37:34Z</time>
      </trkpt>
      <trkpt lat="47.23507" lon="-1.38312">
        <ele>66</ele>
        <time>2022-08-07T08:37:36Z</time>
      </trkpt>
      <trkpt lat="47.23508" lon="-1.38295">
        <ele>66</ele>
        <time>2022-08-07T08:37:38Z</time>
      </trkpt>
      <trkpt lat="47.2351" lon="-1.38278">
        <ele>66</ele>
        <time>2022-08-07T08:37:40Z</time>
      </trkpt>
      <trkpt lat="47.23512" lon="-1.38261">
        <ele>66</ele>
        <time>2022-08-07T08:37:42Z</time>
      </trkpt>
      <trkpt lat="47.23513" lon="-1.38247">
        <ele>66</ele>
        <time>2022-08-07T08:37:44Z</time>
      </trkpt>
      <trkpt lat="47.23514" lon="-1.38231">
        <ele>66</ele>
        <time>2022-08-07T08:37:46Z</time>
      </trkpt>
      <trkpt lat="47.23516" lon="-1.38216">
        <ele>66</ele>
        <time>2022-08-07T08:37:48Z</time>
      </trkpt>
      <trkpt lat="47.23517" lon="-1.382">
        <ele>66</ele>
        <time>2022-08-07T08:37:50Z</time>
      </trkpt>
      <trkpt lat="47.23519" lon="-1.38184">
        <ele>66</ele>
        <time>2022-08-07T08:37:52Z</time>
      </trkpt>
      <trkpt lat="47.2352" lon="-1.38167">
        <ele>66</ele>
        <time>2022-08-07T08:37:54Z</time>
      </trkpt>
      <trkpt lat="47.23522" lon="-1.38151">
        <ele>66</ele>
        <time>2022-08-07T08:37:56Z</time>
      </trkpt>
      <trkpt lat="47.23524" lon="-1.38133">
        <ele>66</ele>
        <time>2022-08-07T08:37:58Z</time>
      </trkpt>
      <trkpt lat="47.23525" lon="-1.38115">
        <ele>66</ele>
        <time>2022-08-07T08:38:00Z</time>
      </trkpt>
      <trkpt lat="47.23527" lon="-1.38097">
        <ele>66</ele>
        <time>2022-08-07T08:38:02Z</time>
      </trkpt>
      <trkpt lat="47.23528" lon="-1.3808">
        <ele>66</ele>
        <time>2022-08-07T08:38:04Z</time>
      </trkpt>
      <trkpt lat="47.2353" lon="-1.38063">
        <ele>66</ele>
        <time>2022-08-07T08:38:06Z</time>
      </trkpt>
      <trkpt lat="47.23531" lon="-1.38046">
        <ele>66</ele>
        <time>2022-08-07T08:38:08Z</time>
      </trkpt>
      <trkpt lat="47.23532" lon="-1.3803">
        <ele>66</ele>
        <time>2022-08-07T08:38:10Z</time>
      </trkpt>
      <trkpt lat="47.23534" lon="-1.38013">
        <ele>66</ele>
        <time>2022-08-07T08:38:12Z</time>
      </trkpt>
      <trkpt lat="47.23536" lon="-1.37997">
        <ele>66</ele>
        <time>2022-08-07T08:38:14Z</time>
      </trkpt>
      <trkpt lat="47.23537" lon="-1.3798">
        <ele>66</ele>
        <time>2022-08-07T08:38:16Z</time>
      </trkpt>
      <trkpt lat="47.23539" lon="-1.37963">
        <ele>66</ele>
        <time>2022-08-07T08:38:18Z</time>
      </trkpt>
      <trkpt lat="47.23541" lon="-1.37946">
        <ele>65</ele>
        <time>2022-08-07T08:38:20Z</time>
      </trkpt>
      <trkpt lat="47.23543" lon="-1.37929">
        <ele>65</ele>
        <time>2022-08-07T08:38:22Z</time>
      </trkpt>
      <trkpt lat="47.23544" lon="-1.37913">
        <ele>65</ele>
        <time>2022-08-07T08:38:24Z</time>
      </trkpt>
      <trkpt lat="47.23546" lon="-1.37895">
        <ele>64</ele>
        <time>2022-08-07T08:38:26Z</time>
      </trkpt>
      <trkpt lat="47.23547" lon="-1.37878">
        <ele>64</ele>
        <time>2022-08-07T08:38:28Z</time>
      </trkpt>
      <trkpt lat="47.23549" lon="-1.3786">
        <ele>64</ele>
        <time>2022-08-07T08:38:30Z</time>
      </trkpt>
      <trkpt lat="47.2355" lon="-1.37842">
        <ele>64</ele>
        <time>2022-08-07T08:38:32Z</time>
      </trkpt>
      <trkpt lat="47.23552" lon="-1.37824">
        <ele>64</ele>
        <time>2022-08-07T08:38:34Z</time>
      </trkpt>
      <trkpt lat="47.23553" lon="-1.37807">
        <ele>63</ele>
        <time>2022-08-07T08:38:36Z</time>
      </trkpt>
      <trkpt lat="47.23555" lon="-1.37789">
        <ele>63</ele>
        <time>2022-08-07T08:38:38Z</time>
      </trkpt>
      <trkpt lat="47.23557" lon="-1.37772">
        <ele>63</ele>
        <time>2022-08-07T08:38:40Z</time>
      </trkpt>
      <trkpt lat="47.23558" lon="-1.37756">
        <ele>63</ele>
        <time>2022-08-07T08:38:42Z</time>
      </trkpt>
      <trkpt lat="47.2356" lon="-1.3774">
        <ele>63</ele>
        <time>2022-08-07T08:38:44Z</time>
      </trkpt>
      <trkpt lat="47.23561" lon="-1.37724">
        <ele>63</ele>
        <time>2022-08-07T08:38:46Z</time>
      </trkpt>
      <trkpt lat="47.23563" lon="-1.37708">
        <ele>63</ele>
        <time>2022-08-07T08:38:48Z</time>
      </trkpt>
      <trkpt lat="47.23564" lon="-1.37692">
        <ele>63</ele>
        <time>2022-08-07T08:38:50Z</time>
      </trkpt>
      <trkpt lat="47.23565" lon="-1.37677">
        <ele>63</ele>
        <time>2022-08-07T08:38:52Z</time>
      </trkpt>
      <trkpt lat="47.23567" lon="-1.37661">
        <ele>63</ele>
        <time>2022-08-07T08:38:54Z</time>
      </trkpt>
      <trkpt lat="47.23568" lon="-1.37644">
        <ele>63</ele>
        <time>2022-08-07T08:38:56Z</time>
      </trkpt>
      <trkpt lat="47.23569" lon="-1.37627">
        <ele>62</ele>
        <time>2022-08-07T08:38:58Z</time>
      </trkpt>
      <trkpt lat="47.23571" lon="-1.37611">
        <ele>62</ele>
        <time>2022-08-07T08:39:00Z</time>
      </trkpt>
      <trkpt lat="47.23573" lon="-1.37594">
        <ele>62</ele>
        <time>2022-08-07T08:39:02Z</time>
      </trkpt>
      <trkpt lat="47.23574" lon="-1.37578">
        <ele>62</ele>
        <time>2022-08-07T08:39:04Z</time>
      </trkpt>
      <trkpt lat="47.23575" lon="-1.37562">
        <ele>62</ele>
        <time>2022-08-07T08:39:06Z</time>
      </trkpt>
      <trkpt lat="47.23577" lon="-1.37547">
        <ele>62</ele>
        <time>2022-08-07T08:39:08Z</time>
      </trkpt>
      <trkpt lat="47.23578" lon="-1.37531">
        <ele>62</ele>
        <time>2022-08-07T08:39:10Z</time>
      </trkpt>
      <trkpt lat="47.23579" lon="-1.37515">
        <ele>63</ele>
        <time>2022-08-07T08:39:12Z</time>
      </trkpt>
      <trkpt lat="47.23581" lon="-1.37498">
        <ele>63</ele>
        <time>2022-08-07T08:39:14Z</time>
      </trkpt>
      <trkpt lat="47.23583" lon="-1.37481">
        <ele>62</ele>
        <time>2022-08-07T08:39:16Z</time>
      </trkpt>
      <trkpt lat="47.23584" lon="-1.37465">
        <ele>62</ele>
        <time>2022-08-07T08:39:18Z</time>
      </trkpt>
      <trkpt lat="47.23586" lon="-1.37449">
        <ele>62</ele>
        <time>2022-08-07T08:39:20Z</time>
      </trkpt>
      <trkpt lat="47.23587" lon="-1.37432">
        <ele>63</ele>
        <time>2022-08-07T08:39:22Z</time>
      </trkpt>
      <trkpt lat="47.23589" lon="-1.37416">
        <ele>62</ele>
        <time>2022-08-07T08:39:24Z</time>
      </trkpt>
      <trkpt lat="47.23591" lon="-1.374">
        <ele>62</ele>
        <time>2022-08-07T08:39:26Z</time>
      </trkpt>
      <trkpt lat="47.23593" lon="-1.37384">
        <ele>62</ele>
        <time>2022-08-07T08:39:28Z</time>
      </trkpt>
      <trkpt lat="47.23594" lon="-1.37369">
        <ele>62</ele>
        <time>2022-08-07T08:39:30Z</time>
      </trkpt>
      <trkpt lat="47.23596" lon="-1.37354">
        <ele>62</ele>
        <time>2022-08-07T08:39:32Z</time>
      </trkpt>
      <trkpt lat="47.23598" lon="-1.37338">
        <ele>62</ele>
        <time>2022-08-07T08:39:34Z</time>
      </trkpt>
      <trkpt lat="47.23599" lon="-1.37322">
        <ele>62</ele>
        <time>2022-08-07T08:39:36Z</time>
      </trkpt>
      <trkpt lat="47.23601" lon="-1.37307">
        <ele>62</ele>
        <time>2022-08-07T08:39:38Z</time>
      </trkpt>
      <trkpt lat="47.23603" lon="-1.37292">
        <ele>62</ele>
        <time>2022-08-07T08:39:40Z</time>
      </trkpt>
      <trkpt lat="47.23605" lon="-1.37277">
        <ele>62</ele>
        <time>2022-08-07T08:39:42Z</time>
      </trkpt>
      <trkpt lat="47.23606" lon="-1.37262">
        <ele>62</ele>
        <time>2022-08-07T08:39:44Z</time>
      </trkpt>
      <trkpt lat="47.23608" lon="-1.37248">
        <ele>62</ele>
        <time>2022-08-07T08:39:46Z</time>
      </trkpt>
      <trkpt lat="47.23611" lon="-1.37232">
        <ele>62</ele>
        <time>2022-08-07T08:39:48Z</time>
      </trkpt>
      <trkpt lat="47.23613" lon="-1.37218">
        <ele>61</ele>
        <time>2022-08-07T08:39:50Z</time>
      </trkpt>
      <trkpt lat="47.23615" lon="-1.37203">
        <ele>62</ele>
        <time>2022-08-07T08:39:52Z</time>
      </trkpt>
      <trkpt lat="47.23617" lon="-1.37189">
        <ele>62</ele>
        <time>2022-08-07T08:39:54Z</time>
      </trkpt>
      <trkpt lat="47.23619" lon="-1.37174">
        <ele>62</ele>
        <time>2022-08-07T08:39:56Z</time>
      </trkpt>
      <trkpt lat="47.23621" lon="-1.3716">
        <ele>62</ele>
        <time>2022-08-07T08:39:58Z</time>
      </trkpt>
      <trkpt lat="47.23623" lon="-1.37146">
        <ele>62</ele>
        <time>2022-08-07T08:40:00Z</time>
      </trkpt>
      <trkpt lat="47.23626" lon="-1.37132">
        <ele>62</ele>
        <time>2022-08-07T08:40:02Z</time>
      </trkpt>
      <trkpt lat="47.23629" lon="-1.37118">
        <ele>62</ele>
        <time>2022-08-07T08:40:04Z</time>
      </trkpt>
      <trkpt lat="47.23633" lon="-1.37104">
        <ele>62</ele>
        <time>2022-08-07T08:40:06Z</time>
      </trkpt>
      <trkpt lat="47.23636" lon="-1.3709">
        <ele>62</ele>
        <time>2022-08-07T08:40:08Z</time>
      </trkpt>
      <trkpt lat="47.2364" lon="-1.37076">
        <ele>62</ele>
        <time>2022-08-07T08:40:10Z</time>
      </trkpt>
      <trkpt lat="47.23644" lon="-1.37062">
        <ele>62</ele>
        <time>2022-08-07T08:40:12Z</time>
      </trkpt>
      <trkpt lat="47.23649" lon="-1.37048">
        <ele>62</ele>
        <time>2022-08-07T08:40:14Z</time>
      </trkpt>
      <trkpt lat="47.23653" lon="-1.37034">
        <ele>62</ele>
        <time>2022-08-07T08:40:16Z</time>
      </trkpt>
      <trkpt lat="47.23656" lon="-1.37021">
        <ele>62</ele>
        <time>2022-08-07T08:40:18Z</time>
      </trkpt>
      <trkpt lat="47.23656" lon="-1.37003">
        <ele>62</ele>
        <time>2022-08-07T08:40:21Z</time>
      </trkpt>
      <trkpt lat="47.23658" lon="-1.36983">
        <ele>62</ele>
        <time>2022-08-07T08:40:24Z</time>
      </trkpt>
      <trkpt lat="47.23665" lon="-1.36972">
        <ele>62</ele>
        <time>2022-08-07T08:40:26Z</time>
      </trkpt>
      <trkpt lat="47.23674" lon="-1.36966">
        <ele>62</ele>
        <time>2022-08-07T08:40:28Z</time>
      </trkpt>
      <trkpt lat="47.23683" lon="-1.36958">
        <ele>62</ele>
        <time>2022-08-07T08:40:30Z</time>
      </trkpt>
      <trkpt lat="47.2369" lon="-1.36948">
        <ele>62</ele>
        <time>2022-08-07T08:40:32Z</time>
      </trkpt>
      <trkpt lat="47.23696" lon="-1.36937">
        <ele>62</ele>
        <time>2022-08-07T08:40:34Z</time>
      </trkpt>
      <trkpt lat="47.23703" lon="-1.36926">
        <ele>62</ele>
        <time>2022-08-07T08:40:36Z</time>
      </trkpt>
      <trkpt lat="47.23709" lon="-1.36914">
        <ele>62</ele>
        <time>2022-08-07T08:40:38Z</time>
      </trkpt>
      <trkpt lat="47.23715" lon="-1.36903">
        <ele>62</ele>
        <time>2022-08-07T08:40:40Z</time>
      </trkpt>
      <trkpt lat="47.23722" lon="-1.36893">
        <ele>62</ele>
        <time>2022-08-07T08:40:42Z</time>
      </trkpt>
      <trkpt lat="47.23729" lon="-1.36882">
        <ele>62</ele>
        <time>2022-08-07T08:40:44Z</time>
      </trkpt>
      <trkpt lat="47.23736" lon="-1.36873">
        <ele>62</ele>
        <time>2022-08-07T08:40:46Z</time>
      </trkpt>
      <trkpt lat="47.23743" lon="-1.36864">
        <ele>62</ele>
        <time>2022-08-07T08:40:48Z</time>
      </trkpt>
      <trkpt lat="47.2375" lon="-1.36855">
        <ele>62</ele>
        <time>2022-08-07T08:40:50Z</time>
      </trkpt>
      <trkpt lat="47.23761" lon="-1.36843">
        <ele>62</ele>
        <time>2022-08-07T08:40:53Z</time>
      </trkpt>
      <trkpt lat="47.23768" lon="-1.36835">
        <ele>63</ele>
        <time>2022-08-07T08:40:55Z</time>
      </trkpt>
      <trkpt lat="47.23779" lon="-1.36824">
        <ele>63</ele>
        <time>2022-08-07T08:40:58Z</time>
      </trkpt>
      <trkpt lat="47.2379" lon="-1.36812">
        <ele>63</ele>
        <time>2022-08-07T08:41:01Z</time>
      </trkpt>
      <trkpt lat="47.23801" lon="-1.36801">
        <ele>64</ele>
        <time>2022-08-07T08:41:04Z</time>
      </trkpt>
      <trkpt lat="47.23809" lon="-1.36794">
        <ele>64</ele>
        <time>2022-08-07T08:41:06Z</time>
      </trkpt>
      <trkpt lat="47.23817" lon="-1.36787">
        <ele>64</ele>
        <time>2022-08-07T08:41:08Z</time>
      </trkpt>
      <trkpt lat="47.23825" lon="-1.3678">
        <ele>64</ele>
        <time>2022-08-07T08:41:10Z</time>
      </trkpt>
      <trkpt lat="47.23834" lon="-1.36773">
        <ele>63</ele>
        <time>2022-08-07T08:41:12Z</time>
      </trkpt>
      <trkpt lat="47.23842" lon="-1.36766">
        <ele>64</ele>
        <time>2022-08-07T08:41:14Z</time>
      </trkpt>
      <trkpt lat="47.23851" lon="-1.36759">
        <ele>64</ele>
        <time>2022-08-07T08:41:16Z</time>
      </trkpt>
      <trkpt lat="47.2386" lon="-1.36752">
        <ele>64</ele>
        <time>2022-08-07T08:41:18Z</time>
      </trkpt>
      <trkpt lat="47.23868" lon="-1.36745">
        <ele>64</ele>
        <time>2022-08-07T08:41:20Z</time>
      </trkpt>
      <trkpt lat="47.23877" lon="-1.36738">
        <ele>64</ele>
        <time>2022-08-07T08:41:22Z</time>
      </trkpt>
      <trkpt lat="47.23886" lon="-1.3673">
        <ele>64</ele>
        <time>2022-08-07T08:41:24Z</time>
      </trkpt>
      <trkpt lat="47.23894" lon="-1.36723">
        <ele>65</ele>
        <time>2022-08-07T08:41:26Z</time>
      </trkpt>
      <trkpt lat="47.23903" lon="-1.36716">
        <ele>65</ele>
        <time>2022-08-07T08:41:28Z</time>
      </trkpt>
      <trkpt lat="47.23912" lon="-1.36709">
        <ele>65</ele>
        <time>2022-08-07T08:41:30Z</time>
      </trkpt>
      <trkpt lat="47.2392" lon="-1.36702">
        <ele>66</ele>
        <time>2022-08-07T08:41:32Z</time>
      </trkpt>
      <trkpt lat="47.23929" lon="-1.36696">
        <ele>66</ele>
        <time>2022-08-07T08:41:34Z</time>
      </trkpt>
      <trkpt lat="47.23937" lon="-1.36689">
        <ele>66</ele>
        <time>2022-08-07T08:41:36Z</time>
      </trkpt>
      <trkpt lat="47.23945" lon="-1.36682">
        <ele>66</ele>
        <time>2022-08-07T08:41:38Z</time>
      </trkpt>
      <trkpt lat="47.23953" lon="-1.36675">
        <ele>66</ele>
        <time>2022-08-07T08:41:40Z</time>
      </trkpt>
      <trkpt lat="47.23965" lon="-1.36667">
        <ele>66</ele>
        <time>2022-08-07T08:41:43Z</time>
      </trkpt>
      <trkpt lat="47.23973" lon="-1.3666">
        <ele>66</ele>
        <time>2022-08-07T08:41:45Z</time>
      </trkpt>
      <trkpt lat="47.23981" lon="-1.36654">
        <ele>66</ele>
        <time>2022-08-07T08:41:47Z</time>
      </trkpt>
      <trkpt lat="47.23989" lon="-1.36647">
        <ele>66</ele>
        <time>2022-08-07T08:41:49Z</time>
      </trkpt>
      <trkpt lat="47.24001" lon="-1.36638">
        <ele>66</ele>
        <time>2022-08-07T08:41:52Z</time>
      </trkpt>
      <trkpt lat="47.24009" lon="-1.36631">
        <ele>66</ele>
        <time>2022-08-07T08:41:54Z</time>
      </trkpt>
      <trkpt lat="47.2402" lon="-1.3662">
        <ele>67</ele>
        <time>2022-08-07T08:41:57Z</time>
      </trkpt>
      <trkpt lat="47.24032" lon="-1.3661">
        <ele>67</ele>
        <time>2022-08-07T08:42:00Z</time>
      </trkpt>
      <trkpt lat="47.24043" lon="-1.366">
        <ele>67</ele>
        <time>2022-08-07T08:42:03Z</time>
      </trkpt>
      <trkpt lat="47.24051" lon="-1.36593">
        <ele>68</ele>
        <time>2022-08-07T08:42:05Z</time>
      </trkpt>
      <trkpt lat="47.24059" lon="-1.36586">
        <ele>68</ele>
        <time>2022-08-07T08:42:07Z</time>
      </trkpt>
      <trkpt lat="47.24067" lon="-1.36579">
        <ele>68</ele>
        <time>2022-08-07T08:42:09Z</time>
      </trkpt>
      <trkpt lat="47.24078" lon="-1.36568">
        <ele>69</ele>
        <time>2022-08-07T08:42:12Z</time>
      </trkpt>
      <trkpt lat="47.24089" lon="-1.36558">
        <ele>69</ele>
        <time>2022-08-07T08:42:15Z</time>
      </trkpt>
      <trkpt lat="47.24101" lon="-1.36547">
        <ele>70</ele>
        <time>2022-08-07T08:42:18Z</time>
      </trkpt>
      <trkpt lat="47.24112" lon="-1.36536">
        <ele>70</ele>
        <time>2022-08-07T08:42:21Z</time>
      </trkpt>
      <trkpt lat="47.24122" lon="-1.36525">
        <ele>70</ele>
        <time>2022-08-07T08:42:24Z</time>
      </trkpt>
      <trkpt lat="47.2413" lon="-1.36517">
        <ele>70</ele>
        <time>2022-08-07T08:42:26Z</time>
      </trkpt>
      <trkpt lat="47.2414" lon="-1.36505">
        <ele>70</ele>
        <time>2022-08-07T08:42:29Z</time>
      </trkpt>
      <trkpt lat="47.2415" lon="-1.36494">
        <ele>71</ele>
        <time>2022-08-07T08:42:32Z</time>
      </trkpt>
      <trkpt lat="47.24161" lon="-1.36482">
        <ele>71</ele>
        <time>2022-08-07T08:42:35Z</time>
      </trkpt>
      <trkpt lat="47.24168" lon="-1.36473">
        <ele>71</ele>
        <time>2022-08-07T08:42:37Z</time>
      </trkpt>
      <trkpt lat="47.24179" lon="-1.36461">
        <ele>71</ele>
        <time>2022-08-07T08:42:40Z</time>
      </trkpt>
      <trkpt lat="47.24186" lon="-1.36453">
        <ele>71</ele>
        <time>2022-08-07T08:42:42Z</time>
      </trkpt>
      <trkpt lat="47.24192" lon="-1.36444">
        <ele>72</ele>
        <time>2022-08-07T08:42:44Z</time>
      </trkpt>
      <trkpt lat="47.24203" lon="-1.36432">
        <ele>72</ele>
        <time>2022-08-07T08:42:47Z</time>
      </trkpt>
      <trkpt lat="47.2421" lon="-1.36423">
        <ele>72</ele>
        <time>2022-08-07T08:42:49Z</time>
      </trkpt>
      <trkpt lat="47.24217" lon="-1.36414">
        <ele>72</ele>
        <time>2022-08-07T08:42:51Z</time>
      </trkpt>
      <trkpt lat="47.24224" lon="-1.36405">
        <ele>72</ele>
        <time>2022-08-07T08:42:53Z</time>
      </trkpt>
      <trkpt lat="47.24231" lon="-1.36396">
        <ele>72</ele>
        <time>2022-08-07T08:42:55Z</time>
      </trkpt>
      <trkpt lat="47.24237" lon="-1.36387">
        <ele>72</ele>
        <time>2022-08-07T08:42:57Z</time>
      </trkpt>
      <trkpt lat="47.24247" lon="-1.36374">
        <ele>73</ele>
        <time>2022-08-07T08:43:00Z</time>
      </trkpt>
      <trkpt lat="47.24256" lon="-1.3636">
        <ele>73</ele>
        <time>2022-08-07T08:43:03Z</time>
      </trkpt>
      <trkpt lat="47.24266" lon="-1.36347">
        <ele>73</ele>
        <time>2022-08-07T08:43:06Z</time>
      </trkpt>
      <trkpt lat="47.24275" lon="-1.36334">
        <ele>73</ele>
        <time>2022-08-07T08:43:09Z</time>
      </trkpt>
      <trkpt lat="47.24281" lon="-1.36324">
        <ele>73</ele>
        <time>2022-08-07T08:43:11Z</time>
      </trkpt>
      <trkpt lat="47.2429" lon="-1.3631">
        <ele>74</ele>
        <time>2022-08-07T08:43:14Z</time>
      </trkpt>
      <trkpt lat="47.24299" lon="-1.36295">
        <ele>74</ele>
        <time>2022-08-07T08:43:17Z</time>
      </trkpt>
      <trkpt lat="47.24308" lon="-1.3628">
        <ele>74</ele>
        <time>2022-08-07T08:43:20Z</time>
      </trkpt>
      <trkpt lat="47.24315" lon="-1.3627">
        <ele>74</ele>
        <time>2022-08-07T08:43:22Z</time>
      </trkpt>
      <trkpt lat="47.24324" lon="-1.36256">
        <ele>75</ele>
        <time>2022-08-07T08:43:25Z</time>
      </trkpt>
      <trkpt lat="47.2433" lon="-1.36245">
        <ele>75</ele>
        <time>2022-08-07T08:43:27Z</time>
      </trkpt>
      <trkpt lat="47.24338" lon="-1.3623">
        <ele>75</ele>
        <time>2022-08-07T08:43:30Z</time>
      </trkpt>
      <trkpt lat="47.24344" lon="-1.3622">
        <ele>76</ele>
        <time>2022-08-07T08:43:32Z</time>
      </trkpt>
      <trkpt lat="47.2435" lon="-1.36209">
        <ele>76</ele>
        <time>2022-08-07T08:43:34Z</time>
      </trkpt>
      <trkpt lat="47.24356" lon="-1.36198">
        <ele>76</ele>
        <time>2022-08-07T08:43:36Z</time>
      </trkpt>
      <trkpt lat="47.24361" lon="-1.36187">
        <ele>76</ele>
        <time>2022-08-07T08:43:38Z</time>
      </trkpt>
      <trkpt lat="47.24367" lon="-1.36176">
        <ele>76</ele>
        <time>2022-08-07T08:43:40Z</time>
      </trkpt>
      <trkpt lat="47.24373" lon="-1.36165">
        <ele>76</ele>
        <time>2022-08-07T08:43:42Z</time>
      </trkpt>
      <trkpt lat="47.24378" lon="-1.36154">
        <ele>76</ele>
        <time>2022-08-07T08:43:44Z</time>
      </trkpt>
      <trkpt lat="47.24384" lon="-1.36143">
        <ele>77</ele>
        <time>2022-08-07T08:43:46Z</time>
      </trkpt>
      <trkpt lat="47.24389" lon="-1.36132">
        <ele>77</ele>
        <time>2022-08-07T08:43:48Z</time>
      </trkpt>
      <trkpt lat="47.24397" lon="-1.36117">
        <ele>77</ele>
        <time>2022-08-07T08:43:51Z</time>
      </trkpt>
      <trkpt lat="47.24405" lon="-1.36101">
        <ele>77</ele>
        <time>2022-08-07T08:43:54Z</time>
      </trkpt>
      <trkpt lat="47.24412" lon="-1.36085">
        <ele>78</ele>
        <time>2022-08-07T08:43:57Z</time>
      </trkpt>
      <trkpt lat="47.24417" lon="-1.36068">
        <ele>77</ele>
        <time>2022-08-07T08:44:00Z</time>
      </trkpt>
      <trkpt lat="47.2442" lon="-1.36049">
        <ele>78</ele>
        <time>2022-08-07T08:44:03Z</time>
      </trkpt>
      <trkpt lat="47.24421" lon="-1.36035">
        <ele>78</ele>
        <time>2022-08-07T08:44:05Z</time>
      </trkpt>
      <trkpt lat="47.24425" lon="-1.36023">
        <ele>79</ele>
        <time>2022-08-07T08:44:07Z</time>
      </trkpt>
      <trkpt lat="47.24432" lon="-1.36013">
        <ele>79</ele>
        <time>2022-08-07T08:44:09Z</time>
      </trkpt>
      <trkpt lat="47.24441" lon="-1.36005">
        <ele>79</ele>
        <time>2022-08-07T08:44:11Z</time>
      </trkpt>
      <trkpt lat="47.24447" lon="-1.35994">
        <ele>79</ele>
        <time>2022-08-07T08:44:13Z</time>
      </trkpt>
      <trkpt lat="47.24452" lon="-1.35981">
        <ele>80</ele>
        <time>2022-08-07T08:44:15Z</time>
      </trkpt>
      <trkpt lat="47.24457" lon="-1.35968">
        <ele>80</ele>
        <time>2022-08-07T08:44:17Z</time>
      </trkpt>
      <trkpt lat="47.24462" lon="-1.35956">
        <ele>80</ele>
        <time>2022-08-07T08:44:19Z</time>
      </trkpt>
      <trkpt lat="47.24466" lon="-1.35944">
        <ele>81</ele>
        <time>2022-08-07T08:44:21Z</time>
      </trkpt>
      <trkpt lat="47.24471" lon="-1.35932">
        <ele>81</ele>
        <time>2022-08-07T08:44:23Z</time>
      </trkpt>
      <trkpt lat="47.24477" lon="-1.35914">
        <ele>81</ele>
        <time>2022-08-07T08:44:26Z</time>
      </trkpt>
      <trkpt lat="47.24483" lon="-1.35897">
        <ele>81</ele>
        <time>2022-08-07T08:44:29Z</time>
      </trkpt>
      <trkpt lat="47.24488" lon="-1.35881">
        <ele>82</ele>
        <time>2022-08-07T08:44:32Z</time>
      </trkpt>
      <trkpt lat="47.24494" lon="-1.35865">
        <ele>82</ele>
        <time>2022-08-07T08:44:35Z</time>
      </trkpt>
      <trkpt lat="47.245" lon="-1.35848">
        <ele>82</ele>
        <time>2022-08-07T08:44:38Z</time>
      </trkpt>
      <trkpt lat="47.24505" lon="-1.35831">
        <ele>82</ele>
        <time>2022-08-07T08:44:41Z</time>
      </trkpt>
      <trkpt lat="47.2451" lon="-1.35815">
        <ele>83</ele>
        <time>2022-08-07T08:44:44Z</time>
      </trkpt>
      <trkpt lat="47.24515" lon="-1.35799">
        <ele>83</ele>
        <time>2022-08-07T08:44:47Z</time>
      </trkpt>
      <trkpt lat="47.2452" lon="-1.35783">
        <ele>84</ele>
        <time>2022-08-07T08:44:50Z</time>
      </trkpt>
      <trkpt lat="47.24525" lon="-1.35767">
        <ele>84</ele>
        <time>2022-08-07T08:44:53Z</time>
      </trkpt>
      <trkpt lat="47.2453" lon="-1.3575">
        <ele>84</ele>
        <time>2022-08-07T08:44:56Z</time>
      </trkpt>
      <trkpt lat="47.24535" lon="-1.35733">
        <ele>85</ele>
        <time>2022-08-07T08:44:59Z</time>
      </trkpt>
      <trkpt lat="47.2454" lon="-1.35716">
        <ele>85</ele>
        <time>2022-08-07T08:45:02Z</time>
      </trkpt>
      <trkpt lat="47.24544" lon="-1.35698">
        <ele>86</ele>
        <time>2022-08-07T08:45:05Z</time>
      </trkpt>
      <trkpt lat="47.24549" lon="-1.35682">
        <ele>86</ele>
        <time>2022-08-07T08:45:08Z</time>
      </trkpt>
      <trkpt lat="47.24553" lon="-1.35664">
        <ele>86</ele>
        <time>2022-08-07T08:45:11Z</time>
      </trkpt>
      <trkpt lat="47.24557" lon="-1.35646">
        <ele>87</ele>
        <time>2022-08-07T08:45:14Z</time>
      </trkpt>
      <trkpt lat="47.24561" lon="-1.35628">
        <ele>87</ele>
        <time>2022-08-07T08:45:17Z</time>
      </trkpt>
      <trkpt lat="47.24565" lon="-1.3561">
        <ele>88</ele>
        <time>2022-08-07T08:45:20Z</time>
      </trkpt>
      <trkpt lat="47.24568" lon="-1.35592">
        <ele>88</ele>
        <time>2022-08-07T08:45:23Z</time>
      </trkpt>
      <trkpt lat="47.24571" lon="-1.35574">
        <ele>88</ele>
        <time>2022-08-07T08:45:26Z</time>
      </trkpt>
      <trkpt lat="47.24574" lon="-1.35557">
        <ele>89</ele>
        <time>2022-08-07T08:45:29Z</time>
      </trkpt>
      <trkpt lat="47.24577" lon="-1.35539">
        <ele>89</ele>
        <time>2022-08-07T08:45:32Z</time>
      </trkpt>
      <trkpt lat="47.24581" lon="-1.3552">
        <ele>90</ele>
        <time>2022-08-07T08:45:35Z</time>
      </trkpt>
      <trkpt lat="47.24584" lon="-1.35502">
        <ele>90</ele>
        <time>2022-08-07T08:45:38Z</time>
      </trkpt>
      <trkpt lat="47.24587" lon="-1.35484">
        <ele>91</ele>
        <time>2022-08-07T08:45:41Z</time>
      </trkpt>
      <trkpt lat="47.24589" lon="-1.35466">
        <ele>91</ele>
        <time>2022-08-07T08:45:44Z</time>
      </trkpt>
      <trkpt lat="47.24592" lon="-1.35449">
        <ele>91</ele>
        <time>2022-08-07T08:45:47Z</time>
      </trkpt>
      <trkpt lat="47.24595" lon="-1.35433">
        <ele>91</ele>
        <time>2022-08-07T08:45:50Z</time>
      </trkpt>
      <trkpt lat="47.24597" lon="-1.35418">
        <ele>91</ele>
        <time>2022-08-07T08:45:53Z</time>
      </trkpt>
      <trkpt lat="47.246" lon="-1.35401">
        <ele>92</ele>
        <time>2022-08-07T08:45:56Z</time>
      </trkpt>
      <trkpt lat="47.24602" lon="-1.35386">
        <ele>92</ele>
        <time>2022-08-07T08:45:59Z</time>
      </trkpt>
      <trkpt lat="47.24604" lon="-1.3537">
        <ele>92</ele>
        <time>2022-08-07T08:46:02Z</time>
      </trkpt>
      <trkpt lat="47.24607" lon="-1.35354">
        <ele>93</ele>
        <time>2022-08-07T08:46:05Z</time>
      </trkpt>
      <trkpt lat="47.24609" lon="-1.35337">
        <ele>93</ele>
        <time>2022-08-07T08:46:08Z</time>
      </trkpt>
      <trkpt lat="47.24611" lon="-1.3532">
        <ele>94</ele>
        <time>2022-08-07T08:46:11Z</time>
      </trkpt>
      <trkpt lat="47.24613" lon="-1.35304">
        <ele>95</ele>
        <time>2022-08-07T08:46:14Z</time>
      </trkpt>
      <trkpt lat="47.24616" lon="-1.35288">
        <ele>95</ele>
        <time>2022-08-07T08:46:17Z</time>
      </trkpt>
      <trkpt lat="47.24619" lon="-1.35272">
        <ele>96</ele>
        <time>2022-08-07T08:46:20Z</time>
      </trkpt>
      <trkpt lat="47.24621" lon="-1.35255">
        <ele>97</ele>
        <time>2022-08-07T08:46:23Z</time>
      </trkpt>
      <trkpt lat="47.24623" lon="-1.3524">
        <ele>97</ele>
        <time>2022-08-07T08:46:26Z</time>
      </trkpt>
      <trkpt lat="47.24625" lon="-1.35224">
        <ele>98</ele>
        <time>2022-08-07T08:46:29Z</time>
      </trkpt>
      <trkpt lat="47.24628" lon="-1.35207">
        <ele>98</ele>
        <time>2022-08-07T08:46:32Z</time>
      </trkpt>
      <trkpt lat="47.2463" lon="-1.35191">
        <ele>98</ele>
        <time>2022-08-07T08:46:35Z</time>
      </trkpt>
      <trkpt lat="47.24633" lon="-1.35174">
        <ele>98</ele>
        <time>2022-08-07T08:46:38Z</time>
      </trkpt>
      <trkpt lat="47.24636" lon="-1.35158">
        <ele>98</ele>
        <time>2022-08-07T08:46:41Z</time>
      </trkpt>
      <trkpt lat="47.24639" lon="-1.35142">
        <ele>98</ele>
        <time>2022-08-07T08:46:44Z</time>
      </trkpt>
      <trkpt lat="47.2464" lon="-1.35126">
        <ele>99</ele>
        <time>2022-08-07T08:46:47Z</time>
      </trkpt>
      <trkpt lat="47.24643" lon="-1.3511">
        <ele>99</ele>
        <time>2022-08-07T08:46:50Z</time>
      </trkpt>
      <trkpt lat="47.24645" lon="-1.35094">
        <ele>99</ele>
        <time>2022-08-07T08:46:53Z</time>
      </trkpt>
      <trkpt lat="47.24648" lon="-1.35078">
        <ele>99</ele>
        <time>2022-08-07T08:46:56Z</time>
      </trkpt>
      <trkpt lat="47.24651" lon="-1.35062">
        <ele>100</ele>
        <time>2022-08-07T08:46:59Z</time>
      </trkpt>
      <trkpt lat="47.24654" lon="-1.35046">
        <ele>100</ele>
        <time>2022-08-07T08:47:02Z</time>
      </trkpt>
      <trkpt lat="47.24656" lon="-1.35028">
        <ele>101</ele>
        <time>2022-08-07T08:47:05Z</time>
      </trkpt>
      <trkpt lat="47.24658" lon="-1.35011">
        <ele>101</ele>
        <time>2022-08-07T08:47:08Z</time>
      </trkpt>
      <trkpt lat="47.24661" lon="-1.34994">
        <ele>101</ele>
        <time>2022-08-07T08:47:11Z</time>
      </trkpt>
      <trkpt lat="47.24664" lon="-1.34976">
        <ele>101</ele>
        <time>2022-08-07T08:47:14Z</time>
      </trkpt>
      <trkpt lat="47.24667" lon="-1.34959">
        <ele>102</ele>
        <time>2022-08-07T08:47:17Z</time>
      </trkpt>
      <trkpt lat="47.24669" lon="-1.34941">
        <ele>102</ele>
        <time>2022-08-07T08:47:20Z</time>
      </trkpt>
      <trkpt lat="47.24672" lon="-1.34924">
        <ele>103</ele>
        <time>2022-08-07T08:47:23Z</time>
      </trkpt>
      <trkpt lat="47.24675" lon="-1.34906">
        <ele>103</ele>
        <time>2022-08-07T08:47:26Z</time>
      </trkpt>
      <trkpt lat="47.24677" lon="-1.34888">
        <ele>104</ele>
        <time>2022-08-07T08:47:29Z</time>
      </trkpt>
      <trkpt lat="47.2468" lon="-1.3487">
        <ele>104</ele>
        <time>2022-08-07T08:47:32Z</time>
      </trkpt>
      <trkpt lat="47.24683" lon="-1.34852">
        <ele>104</ele>
        <time>2022-08-07T08:47:35Z</time>
      </trkpt>
      <trkpt lat="47.24685" lon="-1.34833">
        <ele>105</ele>
        <time>2022-08-07T08:47:38Z</time>
      </trkpt>
      <trkpt lat="47.24687" lon="-1.34814">
        <ele>105</ele>
        <time>2022-08-07T08:47:41Z</time>
      </trkpt>
      <trkpt lat="47.24689" lon="-1.34796">
        <ele>105</ele>
        <time>2022-08-07T08:47:44Z</time>
      </trkpt>
      <trkpt lat="47.2469" lon="-1.34777">
        <ele>105</ele>
        <time>2022-08-07T08:47:47Z</time>
      </trkpt>
      <trkpt lat="47.24692" lon="-1.34759">
        <ele>105</ele>
        <time>2022-08-07T08:47:50Z</time>
      </trkpt>
      <trkpt lat="47.24693" lon="-1.34741">
        <ele>105</ele>
        <time>2022-08-07T08:47:53Z</time>
      </trkpt>
      <trkpt lat="47.24695" lon="-1.34723">
        <ele>106</ele>
        <time>2022-08-07T08:47:56Z</time>
      </trkpt>
      <trkpt lat="47.24697" lon="-1.34705">
        <ele>106</ele>
        <time>2022-08-07T08:47:59Z</time>
      </trkpt>
      <trkpt lat="47.24699" lon="-1.34686">
        <ele>106</ele>
        <time>2022-08-07T08:48:02Z</time>
      </trkpt>
      <trkpt lat="47.247" lon="-1.34668">
        <ele>107</ele>
        <time>2022-08-07T08:48:05Z</time>
      </trkpt>
      <trkpt lat="47.24701" lon="-1.34649">
        <ele>107</ele>
        <time>2022-08-07T08:48:08Z</time>
      </trkpt>
      <trkpt lat="47.24702" lon="-1.34631">
        <ele>107</ele>
        <time>2022-08-07T08:48:11Z</time>
      </trkpt>
      <trkpt lat="47.24702" lon="-1.34613">
        <ele>107</ele>
        <time>2022-08-07T08:48:14Z</time>
      </trkpt>
      <trkpt lat="47.24701" lon="-1.34594">
        <ele>108</ele>
        <time>2022-08-07T08:48:17Z</time>
      </trkpt>
      <trkpt lat="47.24697" lon="-1.34577">
        <ele>108</ele>
        <time>2022-08-07T08:48:20Z</time>
      </trkpt>
      <trkpt lat="47.24693" lon="-1.3456">
        <ele>108</ele>
        <time>2022-08-07T08:48:23Z</time>
      </trkpt>
      <trkpt lat="47.24695" lon="-1.34542">
        <ele>109</ele>
        <time>2022-08-07T08:48:26Z</time>
      </trkpt>
      <trkpt lat="47.24708" lon="-1.34535">
        <ele>109</ele>
        <time>2022-08-07T08:48:29Z</time>
      </trkpt>
      <trkpt lat="47.24717" lon="-1.34534">
        <ele>109</ele>
        <time>2022-08-07T08:48:31Z</time>
      </trkpt>
      <trkpt lat="47.24726" lon="-1.34534">
        <ele>109</ele>
        <time>2022-08-07T08:48:33Z</time>
      </trkpt>
      <trkpt lat="47.24735" lon="-1.34532">
        <ele>109</ele>
        <time>2022-08-07T08:48:35Z</time>
      </trkpt>
      <trkpt lat="47.24744" lon="-1.34529">
        <ele>109</ele>
        <time>2022-08-07T08:48:37Z</time>
      </trkpt>
      <trkpt lat="47.24756" lon="-1.34524">
        <ele>110</ele>
        <time>2022-08-07T08:48:40Z</time>
      </trkpt>
      <trkpt lat="47.24768" lon="-1.34519">
        <ele>110</ele>
        <time>2022-08-07T08:48:43Z</time>
      </trkpt>
      <trkpt lat="47.24779" lon="-1.34514">
        <ele>110</ele>
        <time>2022-08-07T08:48:46Z</time>
      </trkpt>
      <trkpt lat="47.24791" lon="-1.34508">
        <ele>110</ele>
        <time>2022-08-07T08:48:49Z</time>
      </trkpt>
      <trkpt lat="47.24802" lon="-1.34503">
        <ele>111</ele>
        <time>2022-08-07T08:48:52Z</time>
      </trkpt>
      <trkpt lat="47.24814" lon="-1.34497">
        <ele>113</ele>
        <time>2022-08-07T08:48:55Z</time>
      </trkpt>
      <trkpt lat="47.24824" lon="-1.34492">
        <ele>113</ele>
        <time>2022-08-07T08:48:57Z</time>
      </trkpt>
      <trkpt lat="47.24832" lon="-1.34488">
        <ele>113</ele>
        <time>2022-08-07T08:48:59Z</time>
      </trkpt>
      <trkpt lat="47.24841" lon="-1.34484">
        <ele>113</ele>
        <time>2022-08-07T08:49:01Z</time>
      </trkpt>
      <trkpt lat="47.2485" lon="-1.3448">
        <ele>113</ele>
        <time>2022-08-07T08:49:03Z</time>
      </trkpt>
      <trkpt lat="47.24859" lon="-1.34475">
        <ele>113</ele>
        <time>2022-08-07T08:49:05Z</time>
      </trkpt>
      <trkpt lat="47.24868" lon="-1.34471">
        <ele>113</ele>
        <time>2022-08-07T08:49:07Z</time>
      </trkpt>
      <trkpt lat="47.24878" lon="-1.34466">
        <ele>113</ele>
        <time>2022-08-07T08:49:09Z</time>
      </trkpt>
      <trkpt lat="47.24887" lon="-1.34462">
        <ele>113</ele>
        <time>2022-08-07T08:49:11Z</time>
      </trkpt>
      <trkpt lat="47.24897" lon="-1.34457">
        <ele>113</ele>
        <time>2022-08-07T08:49:13Z</time>
      </trkpt>
      <trkpt lat="47.24906" lon="-1.34453">
        <ele>113</ele>
        <time>2022-08-07T08:49:15Z</time>
      </trkpt>
      <trkpt lat="47.24915" lon="-1.34448">
        <ele>113</ele>
        <time>2022-08-07T08:49:17Z</time>
      </trkpt>
      <trkpt lat="47.24925" lon="-1.34444">
        <ele>113</ele>
        <time>2022-08-07T08:49:19Z</time>
      </trkpt>
      <trkpt lat="47.24934" lon="-1.34439">
        <ele>113</ele>
        <time>2022-08-07T08:49:21Z</time>
      </trkpt>
      <trkpt lat="47.24943" lon="-1.34435">
        <ele>113</ele>
        <time>2022-08-07T08:49:23Z</time>
      </trkpt>
      <trkpt lat="47.24953" lon="-1.3443">
        <ele>113</ele>
        <time>2022-08-07T08:49:25Z</time>
      </trkpt>
      <trkpt lat="47.24963" lon="-1.34425">
        <ele>113</ele>
        <time>2022-08-07T08:49:27Z</time>
      </trkpt>
      <trkpt lat="47.24972" lon="-1.3442">
        <ele>113</ele>
        <time>2022-08-07T08:49:29Z</time>
      </trkpt>
      <trkpt lat="47.24982" lon="-1.34416">
        <ele>113</ele>
        <time>2022-08-07T08:49:31Z</time>
      </trkpt>
      <trkpt lat="47.24993" lon="-1.34411">
        <ele>113</ele>
        <time>2022-08-07T08:49:33Z</time>
      </trkpt>
      <trkpt lat="47.25003" lon="-1.34406">
        <ele>113</ele>
        <time>2022-08-07T08:49:35Z</time>
      </trkpt>
      <trkpt lat="47.25012" lon="-1.34402">
        <ele>113</ele>
        <time>2022-08-07T08:49:37Z</time>
      </trkpt>
      <trkpt lat="47.25022" lon="-1.34397">
        <ele>114</ele>
        <time>2022-08-07T08:49:39Z</time>
      </trkpt>
      <trkpt lat="47.25032" lon="-1.34392">
        <ele>114</ele>
        <time>2022-08-07T08:49:41Z</time>
      </trkpt>
      <trkpt lat="47.25043" lon="-1.34386">
        <ele>113</ele>
        <time>2022-08-07T08:49:43Z</time>
      </trkpt>
      <trkpt lat="47.25054" lon="-1.3438">
        <ele>114</ele>
        <time>2022-08-07T08:49:45Z</time>
      </trkpt>
      <trkpt lat="47.25064" lon="-1.34373">
        <ele>114</ele>
        <time>2022-08-07T08:49:47Z</time>
      </trkpt>
      <trkpt lat="47.25074" lon="-1.34366">
        <ele>114</ele>
        <time>2022-08-07T08:49:49Z</time>
      </trkpt>
      <trkpt lat="47.25084" lon="-1.34359">
        <ele>114</ele>
        <time>2022-08-07T08:49:51Z</time>
      </trkpt>
      <trkpt lat="47.25093" lon="-1.34352">
        <ele>114</ele>
        <time>2022-08-07T08:49:53Z</time>
      </trkpt>
      <trkpt lat="47.25103" lon="-1.34346">
        <ele>114</ele>
        <time>2022-08-07T08:49:55Z</time>
      </trkpt>
      <trkpt lat="47.25114" lon="-1.34341">
        <ele>114</ele>
        <time>2022-08-07T08:49:57Z</time>
      </trkpt>
      <trkpt lat="47.25124" lon="-1.34337">
        <ele>113</ele>
        <time>2022-08-07T08:49:59Z</time>
      </trkpt>
      <trkpt lat="47.25136" lon="-1.34333">
        <ele>113</ele>
        <time>2022-08-07T08:50:01Z</time>
      </trkpt>
      <trkpt lat="47.25148" lon="-1.34329">
        <ele>113</ele>
        <time>2022-08-07T08:50:03Z</time>
      </trkpt>
      <trkpt lat="47.2516" lon="-1.34326">
        <ele>112</ele>
        <time>2022-08-07T08:50:05Z</time>
      </trkpt>
      <trkpt lat="47.25172" lon="-1.34323">
        <ele>112</ele>
        <time>2022-08-07T08:50:07Z</time>
      </trkpt>
      <trkpt lat="47.25182" lon="-1.3432">
        <ele>112</ele>
        <time>2022-08-07T08:50:09Z</time>
      </trkpt>
      <trkpt lat="47.25192" lon="-1.34319">
        <ele>112</ele>
        <time>2022-08-07T08:50:11Z</time>
      </trkpt>
      <trkpt lat="47.25202" lon="-1.34317">
        <ele>112</ele>
        <time>2022-08-07T08:50:13Z</time>
      </trkpt>
      <trkpt lat="47.25211" lon="-1.34314">
        <ele>112</ele>
        <time>2022-08-07T08:50:15Z</time>
      </trkpt>
      <trkpt lat="47.25221" lon="-1.34312">
        <ele>111</ele>
        <time>2022-08-07T08:50:17Z</time>
      </trkpt>
      <trkpt lat="47.25233" lon="-1.3431">
        <ele>111</ele>
        <time>2022-08-07T08:50:19Z</time>
      </trkpt>
      <trkpt lat="47.25244" lon="-1.34308">
        <ele>111</ele>
        <time>2022-08-07T08:50:21Z</time>
      </trkpt>
      <trkpt lat="47.25258" lon="-1.34305">
        <ele>111</ele>
        <time>2022-08-07T08:50:23Z</time>
      </trkpt>
      <trkpt lat="47.2527" lon="-1.34303">
        <ele>110</ele>
        <time>2022-08-07T08:50:25Z</time>
      </trkpt>
      <trkpt lat="47.25283" lon="-1.343">
        <ele>110</ele>
        <time>2022-08-07T08:50:27Z</time>
      </trkpt>
      <trkpt lat="47.25296" lon="-1.34297">
        <ele>110</ele>
        <time>2022-08-07T08:50:29Z</time>
      </trkpt>
      <trkpt lat="47.25309" lon="-1.34295">
        <ele>110</ele>
        <time>2022-08-07T08:50:31Z</time>
      </trkpt>
      <trkpt lat="47.25322" lon="-1.34293">
        <ele>109</ele>
        <time>2022-08-07T08:50:33Z</time>
      </trkpt>
      <trkpt lat="47.25334" lon="-1.3429">
        <ele>109</ele>
        <time>2022-08-07T08:50:35Z</time>
      </trkpt>
      <trkpt lat="47.25347" lon="-1.34287">
        <ele>109</ele>
        <time>2022-08-07T08:50:37Z</time>
      </trkpt>
      <trkpt lat="47.25359" lon="-1.34284">
        <ele>109</ele>
        <time>2022-08-07T08:50:39Z</time>
      </trkpt>
      <trkpt lat="47.25371" lon="-1.34281">
        <ele>108</ele>
        <time>2022-08-07T08:50:41Z</time>
      </trkpt>
      <trkpt lat="47.25383" lon="-1.34279">
        <ele>108</ele>
        <time>2022-08-07T08:50:43Z</time>
      </trkpt>
      <trkpt lat="47.25395" lon="-1.34277">
        <ele>108</ele>
        <time>2022-08-07T08:50:45Z</time>
      </trkpt>
      <trkpt lat="47.25408" lon="-1.34274">
        <ele>107</ele>
        <time>2022-08-07T08:50:47Z</time>
      </trkpt>
      <trkpt lat="47.25421" lon="-1.34271">
        <ele>107</ele>
        <time>2022-08-07T08:50:49Z</time>
      </trkpt>
      <trkpt lat="47.25434" lon="-1.34269">
        <ele>107</ele>
        <time>2022-08-07T08:50:51Z</time>
      </trkpt>
      <trkpt lat="47.25447" lon="-1.34266">
        <ele>107</ele>
        <time>2022-08-07T08:50:53Z</time>
      </trkpt>
      <trkpt lat="47.25461" lon="-1.34264">
        <ele>106</ele>
        <time>2022-08-07T08:50:55Z</time>
      </trkpt>
      <trkpt lat="47.25474" lon="-1.34262">
        <ele>106</ele>
        <time>2022-08-07T08:50:57Z</time>
      </trkpt>
      <trkpt lat="47.25487" lon="-1.34263">
        <ele>106</ele>
        <time>2022-08-07T08:50:59Z</time>
      </trkpt>
      <trkpt lat="47.255" lon="-1.34265">
        <ele>105</ele>
        <time>2022-08-07T08:51:01Z</time>
      </trkpt>
      <trkpt lat="47.25514" lon="-1.34269">
        <ele>105</ele>
        <time>2022-08-07T08:51:03Z</time>
      </trkpt>
      <trkpt lat="47.25527" lon="-1.34274">
        <ele>105</ele>
        <time>2022-08-07T08:51:05Z</time>
      </trkpt>
      <trkpt lat="47.25541" lon="-1.34281">
        <ele>104</ele>
        <time>2022-08-07T08:51:07Z</time>
      </trkpt>
      <trkpt lat="47.25554" lon="-1.34286">
        <ele>104</ele>
        <time>2022-08-07T08:51:09Z</time>
      </trkpt>
      <trkpt lat="47.25567" lon="-1.34291">
        <ele>104</ele>
        <time>2022-08-07T08:51:11Z</time>
      </trkpt>
      <trkpt lat="47.2558" lon="-1.34296">
        <ele>104</ele>
        <time>2022-08-07T08:51:13Z</time>
      </trkpt>
      <trkpt lat="47.25593" lon="-1.34301">
        <ele>103</ele>
        <time>2022-08-07T08:51:15Z</time>
      </trkpt>
      <trkpt lat="47.25606" lon="-1.34307">
        <ele>103</ele>
        <time>2022-08-07T08:51:17Z</time>
      </trkpt>
      <trkpt lat="47.25619" lon="-1.34312">
        <ele>104</ele>
        <time>2022-08-07T08:51:19Z</time>
      </trkpt>
      <trkpt lat="47.25632" lon="-1.34316">
        <ele>104</ele>
        <time>2022-08-07T08:51:21Z</time>
      </trkpt>
      <trkpt lat="47.25645" lon="-1.34318">
        <ele>104</ele>
        <time>2022-08-07T08:51:23Z</time>
      </trkpt>
      <trkpt lat="47.25658" lon="-1.34319">
        <ele>104</ele>
        <time>2022-08-07T08:51:25Z</time>
      </trkpt>
      <trkpt lat="47.25671" lon="-1.3432">
        <ele>104</ele>
        <time>2022-08-07T08:51:27Z</time>
      </trkpt>
      <trkpt lat="47.25684" lon="-1.3432">
        <ele>104</ele>
        <time>2022-08-07T08:51:29Z</time>
      </trkpt>
      <trkpt lat="47.25696" lon="-1.34321">
        <ele>105</ele>
        <time>2022-08-07T08:51:31Z</time>
      </trkpt>
      <trkpt lat="47.25708" lon="-1.34319">
        <ele>104</ele>
        <time>2022-08-07T08:51:33Z</time>
      </trkpt>
      <trkpt lat="47.2572" lon="-1.34318">
        <ele>104</ele>
        <time>2022-08-07T08:51:35Z</time>
      </trkpt>
      <trkpt lat="47.25731" lon="-1.34317">
        <ele>104</ele>
        <time>2022-08-07T08:51:37Z</time>
      </trkpt>
      <trkpt lat="47.25742" lon="-1.34316">
        <ele>105</ele>
        <time>2022-08-07T08:51:39Z</time>
      </trkpt>
      <trkpt lat="47.25752" lon="-1.34315">
        <ele>105</ele>
        <time>2022-08-07T08:51:41Z</time>
      </trkpt>
      <trkpt lat="47.25762" lon="-1.34313">
        <ele>105</ele>
        <time>2022-08-07T08:51:43Z</time>
      </trkpt>
      <trkpt lat="47.25772" lon="-1.34311">
        <ele>105</ele>
        <time>2022-08-07T08:51:45Z</time>
      </trkpt>
      <trkpt lat="47.25782" lon="-1.34309">
        <ele>105</ele>
        <time>2022-08-07T08:51:47Z</time>
      </trkpt>
      <trkpt lat="47.25792" lon="-1.34307">
        <ele>105</ele>
        <time>2022-08-07T08:51:49Z</time>
      </trkpt>
      <trkpt lat="47.25803" lon="-1.34305">
        <ele>105</ele>
        <time>2022-08-07T08:51:51Z</time>
      </trkpt>
      <trkpt lat="47.25812" lon="-1.34303">
        <ele>106</ele>
        <time>2022-08-07T08:51:53Z</time>
      </trkpt>
      <trkpt lat="47.25822" lon="-1.34302">
        <ele>106</ele>
        <time>2022-08-07T08:51:55Z</time>
      </trkpt>
      <trkpt lat="47.25832" lon="-1.34301">
        <ele>106</ele>
        <time>2022-08-07T08:51:57Z</time>
      </trkpt>
      <trkpt lat="47.25842" lon="-1.34301">
        <ele>106</ele>
        <time>2022-08-07T08:51:59Z</time>
      </trkpt>
      <trkpt lat="47.25852" lon="-1.34302">
        <ele>106</ele>
        <time>2022-08-07T08:52:01Z</time>
      </trkpt>
      <trkpt lat="47.25863" lon="-1.34304">
        <ele>105</ele>
        <time>2022-08-07T08:52:03Z</time>
      </trkpt>
      <trkpt lat="47.25873" lon="-1.34306">
        <ele>105</ele>
        <time>2022-08-07T08:52:05Z</time>
      </trkpt>
      <trkpt lat="47.25884" lon="-1.34309">
        <ele>104</ele>
        <time>2022-08-07T08:52:07Z</time>
      </trkpt>
      <trkpt lat="47.25895" lon="-1.34312">
        <ele>104</ele>
        <time>2022-08-07T08:52:09Z</time>
      </trkpt>
      <trkpt lat="47.25906" lon="-1.34314">
        <ele>104</ele>
        <time>2022-08-07T08:52:11Z</time>
      </trkpt>
      <trkpt lat="47.25917" lon="-1.34315">
        <ele>103</ele>
        <time>2022-08-07T08:52:13Z</time>
      </trkpt>
      <trkpt lat="47.25929" lon="-1.34317">
        <ele>103</ele>
        <time>2022-08-07T08:52:15Z</time>
      </trkpt>
      <trkpt lat="47.25941" lon="-1.34318">
        <ele>103</ele>
        <time>2022-08-07T08:52:17Z</time>
      </trkpt>
      <trkpt lat="47.25953" lon="-1.34319">
        <ele>103</ele>
        <time>2022-08-07T08:52:19Z</time>
      </trkpt>
      <trkpt lat="47.25965" lon="-1.34319">
        <ele>103</ele>
        <time>2022-08-07T08:52:21Z</time>
      </trkpt>
      <trkpt lat="47.25977" lon="-1.34318">
        <ele>102</ele>
        <time>2022-08-07T08:52:23Z</time>
      </trkpt>
      <trkpt lat="47.2599" lon="-1.34317">
        <ele>102</ele>
        <time>2022-08-07T08:52:25Z</time>
      </trkpt>
      <trkpt lat="47.26003" lon="-1.34316">
        <ele>102</ele>
        <time>2022-08-07T08:52:27Z</time>
      </trkpt>
      <trkpt lat="47.26016" lon="-1.34315">
        <ele>101</ele>
        <time>2022-08-07T08:52:29Z</time>
      </trkpt>
      <trkpt lat="47.26029" lon="-1.34315">
        <ele>100</ele>
        <time>2022-08-07T08:52:31Z</time>
      </trkpt>
      <trkpt lat="47.26042" lon="-1.34315">
        <ele>100</ele>
        <time>2022-08-07T08:52:33Z</time>
      </trkpt>
      <trkpt lat="47.26056" lon="-1.34314">
        <ele>99</ele>
        <time>2022-08-07T08:52:35Z</time>
      </trkpt>
      <trkpt lat="47.2607" lon="-1.34313">
        <ele>99</ele>
        <time>2022-08-07T08:52:37Z</time>
      </trkpt>
      <trkpt lat="47.26083" lon="-1.34312">
        <ele>98</ele>
        <time>2022-08-07T08:52:39Z</time>
      </trkpt>
      <trkpt lat="47.26097" lon="-1.3431">
        <ele>98</ele>
        <time>2022-08-07T08:52:41Z</time>
      </trkpt>
      <trkpt lat="47.2611" lon="-1.34307">
        <ele>98</ele>
        <time>2022-08-07T08:52:43Z</time>
      </trkpt>
      <trkpt lat="47.26124" lon="-1.34303">
        <ele>98</ele>
        <time>2022-08-07T08:52:45Z</time>
      </trkpt>
      <trkpt lat="47.26137" lon="-1.34299">
        <ele>97</ele>
        <time>2022-08-07T08:52:47Z</time>
      </trkpt>
      <trkpt lat="47.2615" lon="-1.34296">
        <ele>97</ele>
        <time>2022-08-07T08:52:49Z</time>
      </trkpt>
      <trkpt lat="47.26163" lon="-1.34292">
        <ele>96</ele>
        <time>2022-08-07T08:52:51Z</time>
      </trkpt>
      <trkpt lat="47.26176" lon="-1.34289">
        <ele>96</ele>
        <time>2022-08-07T08:52:53Z</time>
      </trkpt>
      <trkpt lat="47.2619" lon="-1.34284">
        <ele>96</ele>
        <time>2022-08-07T08:52:55Z</time>
      </trkpt>
      <trkpt lat="47.26203" lon="-1.34281">
        <ele>95</ele>
        <time>2022-08-07T08:52:57Z</time>
      </trkpt>
      <trkpt lat="47.26216" lon="-1.34277">
        <ele>95</ele>
        <time>2022-08-07T08:52:59Z</time>
      </trkpt>
      <trkpt lat="47.26229" lon="-1.34274">
        <ele>95</ele>
        <time>2022-08-07T08:53:01Z</time>
      </trkpt>
      <trkpt lat="47.26242" lon="-1.34271">
        <ele>95</ele>
        <time>2022-08-07T08:53:03Z</time>
      </trkpt>
      <trkpt lat="47.26256" lon="-1.34268">
        <ele>94</ele>
        <time>2022-08-07T08:53:05Z</time>
      </trkpt>
      <trkpt lat="47.26269" lon="-1.34264">
        <ele>94</ele>
        <time>2022-08-07T08:53:07Z</time>
      </trkpt>
      <trkpt lat="47.26283" lon="-1.34259">
        <ele>93</ele>
        <time>2022-08-07T08:53:09Z</time>
      </trkpt>
      <trkpt lat="47.26294" lon="-1.34254">
        <ele>93</ele>
        <time>2022-08-07T08:53:11Z</time>
      </trkpt>
      <trkpt lat="47.26307" lon="-1.34258">
        <ele>92</ele>
        <time>2022-08-07T08:53:13Z</time>
      </trkpt>
      <trkpt lat="47.2632" lon="-1.34258">
        <ele>92</ele>
        <time>2022-08-07T08:53:15Z</time>
      </trkpt>
      <trkpt lat="47.26332" lon="-1.34256">
        <ele>91</ele>
        <time>2022-08-07T08:53:17Z</time>
      </trkpt>
      <trkpt lat="47.26345" lon="-1.34255">
        <ele>91</ele>
        <time>2022-08-07T08:53:19Z</time>
      </trkpt>
      <trkpt lat="47.26359" lon="-1.34255">
        <ele>90</ele>
        <time>2022-08-07T08:53:21Z</time>
      </trkpt>
      <trkpt lat="47.26371" lon="-1.34254">
        <ele>89</ele>
        <time>2022-08-07T08:53:23Z</time>
      </trkpt>
      <trkpt lat="47.26384" lon="-1.34253">
        <ele>89</ele>
        <time>2022-08-07T08:53:25Z</time>
      </trkpt>
      <trkpt lat="47.26404" lon="-1.34251">
        <ele>88</ele>
        <time>2022-08-07T08:53:28Z</time>
      </trkpt>
      <trkpt lat="47.26424" lon="-1.3425">
        <ele>87</ele>
        <time>2022-08-07T08:53:31Z</time>
      </trkpt>
      <trkpt lat="47.26436" lon="-1.3425">
        <ele>88</ele>
        <time>2022-08-07T08:53:33Z</time>
      </trkpt>
      <trkpt lat="47.26449" lon="-1.34251">
        <ele>87</ele>
        <time>2022-08-07T08:53:35Z</time>
      </trkpt>
      <trkpt lat="47.26464" lon="-1.34253">
        <ele>88</ele>
        <time>2022-08-07T08:53:38Z</time>
      </trkpt>
      <trkpt lat="47.26472" lon="-1.34244">
        <ele>88</ele>
        <time>2022-08-07T08:53:41Z</time>
      </trkpt>
      <trkpt lat="47.26483" lon="-1.34231">
        <ele>89</ele>
        <time>2022-08-07T08:53:44Z</time>
      </trkpt>
      <trkpt lat="47.2649" lon="-1.34222">
        <ele>89</ele>
        <time>2022-08-07T08:53:46Z</time>
      </trkpt>
      <trkpt lat="47.26499" lon="-1.3421">
        <ele>91</ele>
        <time>2022-08-07T08:53:49Z</time>
      </trkpt>
      <trkpt lat="47.26498" lon="-1.34196">
        <ele>91</ele>
        <time>2022-08-07T08:53:52Z</time>
      </trkpt>
      <trkpt lat="47.26502" lon="-1.34182">
        <ele>91</ele>
        <time>2022-08-07T08:53:56Z</time>
      </trkpt>
      <trkpt lat="47.26508" lon="-1.3417">
        <ele>91</ele>
        <time>2022-08-07T08:53:59Z</time>
      </trkpt>
      <trkpt lat="47.26513" lon="-1.34153">
        <ele>92</ele>
        <time>2022-08-07T08:54:02Z</time>
      </trkpt>
      <trkpt lat="47.26519" lon="-1.34134">
        <ele>93</ele>
        <time>2022-08-07T08:54:05Z</time>
      </trkpt>
      <trkpt lat="47.26523" lon="-1.34122">
        <ele>93</ele>
        <time>2022-08-07T08:54:07Z</time>
      </trkpt>
      <trkpt lat="47.26528" lon="-1.34105">
        <ele>93</ele>
        <time>2022-08-07T08:54:10Z</time>
      </trkpt>
      <trkpt lat="47.26533" lon="-1.34087">
        <ele>93</ele>
        <time>2022-08-07T08:54:13Z</time>
      </trkpt>
      <trkpt lat="47.26536" lon="-1.3407">
        <ele>94</ele>
        <time>2022-08-07T08:54:16Z</time>
      </trkpt>
      <trkpt lat="47.26538" lon="-1.34055">
        <ele>94</ele>
        <time>2022-08-07T08:54:19Z</time>
      </trkpt>
      <trkpt lat="47.26538" lon="-1.34037">
        <ele>95</ele>
        <time>2022-08-07T08:54:22Z</time>
      </trkpt>
      <trkpt lat="47.26535" lon="-1.34023">
        <ele>94</ele>
        <time>2022-08-07T08:54:24Z</time>
      </trkpt>
      <trkpt lat="47.26533" lon="-1.3401">
        <ele>93</ele>
        <time>2022-08-07T08:54:26Z</time>
      </trkpt>
      <trkpt lat="47.26531" lon="-1.33994">
        <ele>93</ele>
        <time>2022-08-07T08:54:29Z</time>
      </trkpt>
      <trkpt lat="47.26531" lon="-1.33975">
        <ele>93</ele>
        <time>2022-08-07T08:54:32Z</time>
      </trkpt>
      <trkpt lat="47.26534" lon="-1.33959">
        <ele>93</ele>
        <time>2022-08-07T08:54:35Z</time>
      </trkpt>
      <trkpt lat="47.26534" lon="-1.33942">
        <ele>93</ele>
        <time>2022-08-07T08:54:38Z</time>
      </trkpt>
      <trkpt lat="47.26539" lon="-1.33928">
        <ele>94</ele>
        <time>2022-08-07T08:54:41Z</time>
      </trkpt>
      <trkpt lat="47.2655" lon="-1.33923">
        <ele>94</ele>
        <time>2022-08-07T08:54:44Z</time>
      </trkpt>
      <trkpt lat="47.26562" lon="-1.33922">
        <ele>95</ele>
        <time>2022-08-07T08:54:47Z</time>
      </trkpt>
      <trkpt lat="47.26574" lon="-1.33927">
        <ele>94</ele>
        <time>2022-08-07T08:54:50Z</time>
      </trkpt>
      <trkpt lat="47.26584" lon="-1.33939">
        <ele>94</ele>
        <time>2022-08-07T08:54:53Z</time>
      </trkpt>
      <trkpt lat="47.26594" lon="-1.33943">
        <ele>94</ele>
        <time>2022-08-07T08:54:56Z</time>
      </trkpt>
      <trkpt lat="47.26604" lon="-1.33942">
        <ele>95</ele>
        <time>2022-08-07T08:54:59Z</time>
      </trkpt>
      <trkpt lat="47.26614" lon="-1.3394">
        <ele>96</ele>
        <time>2022-08-07T08:55:02Z</time>
      </trkpt>
      <trkpt lat="47.26624" lon="-1.33939">
        <ele>96</ele>
        <time>2022-08-07T08:55:05Z</time>
      </trkpt>
      <trkpt lat="47.26635" lon="-1.33938">
        <ele>98</ele>
        <time>2022-08-07T08:55:08Z</time>
      </trkpt>
      <trkpt lat="47.26646" lon="-1.33937">
        <ele>98</ele>
        <time>2022-08-07T08:55:11Z</time>
      </trkpt>
      <trkpt lat="47.26656" lon="-1.33935">
        <ele>98</ele>
        <time>2022-08-07T08:55:14Z</time>
      </trkpt>
      <trkpt lat="47.26666" lon="-1.33932">
        <ele>99</ele>
        <time>2022-08-07T08:55:17Z</time>
      </trkpt>
      <trkpt lat="47.26672" lon="-1.33918">
        <ele>99</ele>
        <time>2022-08-07T08:55:21Z</time>
      </trkpt>
      <trkpt lat="47.26677" lon="-1.33903">
        <ele>98</ele>
        <time>2022-08-07T08:55:24Z</time>
      </trkpt>
      <trkpt lat="47.26686" lon="-1.33894">
        <ele>98</ele>
        <time>2022-08-07T08:55:27Z</time>
      </trkpt>
      <trkpt lat="47.26697" lon="-1.33892">
        <ele>98</ele>
        <time>2022-08-07T08:55:30Z</time>
      </trkpt>
      <trkpt lat="47.26707" lon="-1.3389">
        <ele>101</ele>
        <time>2022-08-07T08:55:33Z</time>
      </trkpt>
      <trkpt lat="47.26719" lon="-1.33888">
        <ele>103</ele>
        <time>2022-08-07T08:55:36Z</time>
      </trkpt>
      <trkpt lat="47.2673" lon="-1.33889">
        <ele>104</ele>
        <time>2022-08-07T08:55:39Z</time>
      </trkpt>
      <trkpt lat="47.26742" lon="-1.33889">
        <ele>104</ele>
        <time>2022-08-07T08:55:42Z</time>
      </trkpt>
      <trkpt lat="47.26752" lon="-1.33885">
        <ele>105</ele>
        <time>2022-08-07T08:55:45Z</time>
      </trkpt>
      <trkpt lat="47.26763" lon="-1.3388">
        <ele>105</ele>
        <time>2022-08-07T08:55:48Z</time>
      </trkpt>
      <trkpt lat="47.2677" lon="-1.33869">
        <ele>105</ele>
        <time>2022-08-07T08:55:51Z</time>
      </trkpt>
      <trkpt lat="47.26773" lon="-1.33852">
        <ele>104</ele>
        <time>2022-08-07T08:55:54Z</time>
      </trkpt>
      <trkpt lat="47.26775" lon="-1.33834">
        <ele>105</ele>
        <time>2022-08-07T08:55:57Z</time>
      </trkpt>
      <trkpt lat="47.26777" lon="-1.33817">
        <ele>106</ele>
        <time>2022-08-07T08:56:00Z</time>
      </trkpt>
      <trkpt lat="47.26779" lon="-1.338">
        <ele>107</ele>
        <time>2022-08-07T08:56:03Z</time>
      </trkpt>
      <trkpt lat="47.26783" lon="-1.33784">
        <ele>108</ele>
        <time>2022-08-07T08:56:06Z</time>
      </trkpt>
      <trkpt lat="47.26787" lon="-1.33767">
        <ele>108</ele>
        <time>2022-08-07T08:56:09Z</time>
      </trkpt>
      <trkpt lat="47.26791" lon="-1.33751">
        <ele>108</ele>
        <time>2022-08-07T08:56:12Z</time>
      </trkpt>
      <trkpt lat="47.26795" lon="-1.33735">
        <ele>108</ele>
        <time>2022-08-07T08:56:15Z</time>
      </trkpt>
      <trkpt lat="47.26799" lon="-1.33717">
        <ele>108</ele>
        <time>2022-08-07T08:56:18Z</time>
      </trkpt>
      <trkpt lat="47.26803" lon="-1.337">
        <ele>109</ele>
        <time>2022-08-07T08:56:21Z</time>
      </trkpt>
      <trkpt lat="47.26807" lon="-1.33682">
        <ele>109</ele>
        <time>2022-08-07T08:56:24Z</time>
      </trkpt>
      <trkpt lat="47.26811" lon="-1.33665">
        <ele>109</ele>
        <time>2022-08-07T08:56:27Z</time>
      </trkpt>
      <trkpt lat="47.26815" lon="-1.33648">
        <ele>108</ele>
        <time>2022-08-07T08:56:30Z</time>
      </trkpt>
      <trkpt lat="47.26819" lon="-1.3363">
        <ele>108</ele>
        <time>2022-08-07T08:56:33Z</time>
      </trkpt>
      <trkpt lat="47.26823" lon="-1.33612">
        <ele>108</ele>
        <time>2022-08-07T08:56:36Z</time>
      </trkpt>
      <trkpt lat="47.26827" lon="-1.33594">
        <ele>108</ele>
        <time>2022-08-07T08:56:39Z</time>
      </trkpt>
      <trkpt lat="47.26832" lon="-1.33577">
        <ele>108</ele>
        <time>2022-08-07T08:56:42Z</time>
      </trkpt>
      <trkpt lat="47.26834" lon="-1.33564">
        <ele>108</ele>
        <time>2022-08-07T08:56:44Z</time>
      </trkpt>
      <trkpt lat="47.26839" lon="-1.33546">
        <ele>108</ele>
        <time>2022-08-07T08:56:47Z</time>
      </trkpt>
      <trkpt lat="47.26843" lon="-1.33529">
        <ele>108</ele>
        <time>2022-08-07T08:56:50Z</time>
      </trkpt>
      <trkpt lat="47.26847" lon="-1.33512">
        <ele>108</ele>
        <time>2022-08-07T08:56:53Z</time>
      </trkpt>
      <trkpt lat="47.26851" lon="-1.33494">
        <ele>108</ele>
        <time>2022-08-07T08:56:56Z</time>
      </trkpt>
      <trkpt lat="47.26856" lon="-1.33477">
        <ele>108</ele>
        <time>2022-08-07T08:56:59Z</time>
      </trkpt>
      <trkpt lat="47.26861" lon="-1.33459">
        <ele>109</ele>
        <time>2022-08-07T08:57:02Z</time>
      </trkpt>
      <trkpt lat="47.26864" lon="-1.33447">
        <ele>109</ele>
        <time>2022-08-07T08:57:04Z</time>
      </trkpt>
      <trkpt lat="47.2687" lon="-1.33431">
        <ele>109</ele>
        <time>2022-08-07T08:57:07Z</time>
      </trkpt>
      <trkpt lat="47.26877" lon="-1.33416">
        <ele>109</ele>
        <time>2022-08-07T08:57:10Z</time>
      </trkpt>
      <trkpt lat="47.26883" lon="-1.33406">
        <ele>109</ele>
        <time>2022-08-07T08:57:12Z</time>
      </trkpt>
      <trkpt lat="47.2689" lon="-1.3339">
        <ele>108</ele>
        <time>2022-08-07T08:57:15Z</time>
      </trkpt>
      <trkpt lat="47.26893" lon="-1.33372">
        <ele>108</ele>
        <time>2022-08-07T08:57:18Z</time>
      </trkpt>
      <trkpt lat="47.26899" lon="-1.33356">
        <ele>108</ele>
        <time>2022-08-07T08:57:21Z</time>
      </trkpt>
      <trkpt lat="47.26907" lon="-1.33349">
        <ele>108</ele>
        <time>2022-08-07T08:57:23Z</time>
      </trkpt>
      <trkpt lat="47.2692" lon="-1.33342">
        <ele>108</ele>
        <time>2022-08-07T08:57:26Z</time>
      </trkpt>
      <trkpt lat="47.26929" lon="-1.33336">
        <ele>108</ele>
        <time>2022-08-07T08:57:28Z</time>
      </trkpt>
      <trkpt lat="47.26937" lon="-1.33328">
        <ele>108</ele>
        <time>2022-08-07T08:57:30Z</time>
      </trkpt>
      <trkpt lat="47.26946" lon="-1.33322">
        <ele>108</ele>
        <time>2022-08-07T08:57:32Z</time>
      </trkpt>
      <trkpt lat="47.26953" lon="-1.33315">
        <ele>108</ele>
        <time>2022-08-07T08:57:34Z</time>
      </trkpt>
      <trkpt lat="47.26965" lon="-1.33306">
        <ele>108</ele>
        <time>2022-08-07T08:57:37Z</time>
      </trkpt>
      <trkpt lat="47.26978" lon="-1.33298">
        <ele>108</ele>
        <time>2022-08-07T08:57:40Z</time>
      </trkpt>
      <trkpt lat="47.26986" lon="-1.33293">
        <ele>108</ele>
        <time>2022-08-07T08:57:42Z</time>
      </trkpt>
      <trkpt lat="47.26995" lon="-1.33289">
        <ele>108</ele>
        <time>2022-08-07T08:57:44Z</time>
      </trkpt>
      <trkpt lat="47.27004" lon="-1.33284">
        <ele>108</ele>
        <time>2022-08-07T08:57:46Z</time>
      </trkpt>
      <trkpt lat="47.27014" lon="-1.3328">
        <ele>108</ele>
        <time>2022-08-07T08:57:48Z</time>
      </trkpt>
      <trkpt lat="47.27023" lon="-1.33276">
        <ele>108</ele>
        <time>2022-08-07T08:57:50Z</time>
      </trkpt>
      <trkpt lat="47.27032" lon="-1.33272">
        <ele>108</ele>
        <time>2022-08-07T08:57:52Z</time>
      </trkpt>
      <trkpt lat="47.27042" lon="-1.33268">
        <ele>108</ele>
        <time>2022-08-07T08:57:54Z</time>
      </trkpt>
      <trkpt lat="47.27052" lon="-1.33264">
        <ele>108</ele>
        <time>2022-08-07T08:57:56Z</time>
      </trkpt>
      <trkpt lat="47.27062" lon="-1.3326">
        <ele>108</ele>
        <time>2022-08-07T08:57:58Z</time>
      </trkpt>
      <trkpt lat="47.27072" lon="-1.33255">
        <ele>108</ele>
        <time>2022-08-07T08:58:00Z</time>
      </trkpt>
      <trkpt lat="47.27082" lon="-1.3325">
        <ele>108</ele>
        <time>2022-08-07T08:58:02Z</time>
      </trkpt>
      <trkpt lat="47.27093" lon="-1.33246">
        <ele>108</ele>
        <time>2022-08-07T08:58:04Z</time>
      </trkpt>
      <trkpt lat="47.27103" lon="-1.33241">
        <ele>108</ele>
        <time>2022-08-07T08:58:06Z</time>
      </trkpt>
      <trkpt lat="47.27113" lon="-1.33237">
        <ele>108</ele>
        <time>2022-08-07T08:58:08Z</time>
      </trkpt>
      <trkpt lat="47.27124" lon="-1.33232">
        <ele>108</ele>
        <time>2022-08-07T08:58:10Z</time>
      </trkpt>
      <trkpt lat="47.27134" lon="-1.33228">
        <ele>107</ele>
        <time>2022-08-07T08:58:12Z</time>
      </trkpt>
      <trkpt lat="47.27144" lon="-1.33223">
        <ele>107</ele>
        <time>2022-08-07T08:58:14Z</time>
      </trkpt>
      <trkpt lat="47.27155" lon="-1.33219">
        <ele>107</ele>
        <time>2022-08-07T08:58:16Z</time>
      </trkpt>
      <trkpt lat="47.27166" lon="-1.33214">
        <ele>107</ele>
        <time>2022-08-07T08:58:18Z</time>
      </trkpt>
      <trkpt lat="47.27176" lon="-1.3321">
        <ele>107</ele>
        <time>2022-08-07T08:58:20Z</time>
      </trkpt>
      <trkpt lat="47.27187" lon="-1.33206">
        <ele>107</ele>
        <time>2022-08-07T08:58:22Z</time>
      </trkpt>
      <trkpt lat="47.27198" lon="-1.33201">
        <ele>107</ele>
        <time>2022-08-07T08:58:24Z</time>
      </trkpt>
      <trkpt lat="47.27209" lon="-1.33197">
        <ele>106</ele>
        <time>2022-08-07T08:58:26Z</time>
      </trkpt>
      <trkpt lat="47.2722" lon="-1.33193">
        <ele>106</ele>
        <time>2022-08-07T08:58:28Z</time>
      </trkpt>
      <trkpt lat="47.27231" lon="-1.3319">
        <ele>106</ele>
        <time>2022-08-07T08:58:30Z</time>
      </trkpt>
      <trkpt lat="47.27242" lon="-1.33187">
        <ele>106</ele>
        <time>2022-08-07T08:58:32Z</time>
      </trkpt>
      <trkpt lat="47.27253" lon="-1.33185">
        <ele>106</ele>
        <time>2022-08-07T08:58:34Z</time>
      </trkpt>
      <trkpt lat="47.27264" lon="-1.33183">
        <ele>105</ele>
        <time>2022-08-07T08:58:36Z</time>
      </trkpt>
      <trkpt lat="47.27275" lon="-1.3318">
        <ele>105</ele>
        <time>2022-08-07T08:58:38Z</time>
      </trkpt>
      <trkpt lat="47.27286" lon="-1.33176">
        <ele>104</ele>
        <time>2022-08-07T08:58:40Z</time>
      </trkpt>
      <trkpt lat="47.27296" lon="-1.33172">
        <ele>104</ele>
        <time>2022-08-07T08:58:42Z</time>
      </trkpt>
      <trkpt lat="47.27306" lon="-1.33168">
        <ele>104</ele>
        <time>2022-08-07T08:58:44Z</time>
      </trkpt>
      <trkpt lat="47.27317" lon="-1.33169">
        <ele>104</ele>
        <time>2022-08-07T08:58:46Z</time>
      </trkpt>
      <trkpt lat="47.27327" lon="-1.33175">
        <ele>103</ele>
        <time>2022-08-07T08:58:48Z</time>
      </trkpt>
      <trkpt lat="47.27338" lon="-1.33179">
        <ele>102</ele>
        <time>2022-08-07T08:58:50Z</time>
      </trkpt>
      <trkpt lat="47.27349" lon="-1.33182">
        <ele>102</ele>
        <time>2022-08-07T08:58:52Z</time>
      </trkpt>
      <trkpt lat="47.27359" lon="-1.33184">
        <ele>102</ele>
        <time>2022-08-07T08:58:54Z</time>
      </trkpt>
      <trkpt lat="47.27369" lon="-1.33185">
        <ele>101</ele>
        <time>2022-08-07T08:58:56Z</time>
      </trkpt>
      <trkpt lat="47.2738" lon="-1.33187">
        <ele>101</ele>
        <time>2022-08-07T08:58:58Z</time>
      </trkpt>
      <trkpt lat="47.27392" lon="-1.3319">
        <ele>100</ele>
        <time>2022-08-07T08:59:00Z</time>
      </trkpt>
      <trkpt lat="47.27404" lon="-1.33193">
        <ele>99</ele>
        <time>2022-08-07T08:59:02Z</time>
      </trkpt>
      <trkpt lat="47.27416" lon="-1.33195">
        <ele>99</ele>
        <time>2022-08-07T08:59:04Z</time>
      </trkpt>
      <trkpt lat="47.27428" lon="-1.33199">
        <ele>98</ele>
        <time>2022-08-07T08:59:06Z</time>
      </trkpt>
      <trkpt lat="47.27441" lon="-1.33202">
        <ele>98</ele>
        <time>2022-08-07T08:59:08Z</time>
      </trkpt>
      <trkpt lat="47.27453" lon="-1.33204">
        <ele>97</ele>
        <time>2022-08-07T08:59:10Z</time>
      </trkpt>
      <trkpt lat="47.27465" lon="-1.33207">
        <ele>97</ele>
        <time>2022-08-07T08:59:12Z</time>
      </trkpt>
      <trkpt lat="47.27477" lon="-1.3321">
        <ele>96</ele>
        <time>2022-08-07T08:59:14Z</time>
      </trkpt>
      <trkpt lat="47.27489" lon="-1.33213">
        <ele>96</ele>
        <time>2022-08-07T08:59:16Z</time>
      </trkpt>
      <trkpt lat="47.27501" lon="-1.33217">
        <ele>95</ele>
        <time>2022-08-07T08:59:18Z</time>
      </trkpt>
      <trkpt lat="47.27513" lon="-1.33222">
        <ele>95</ele>
        <time>2022-08-07T08:59:20Z</time>
      </trkpt>
      <trkpt lat="47.27525" lon="-1.33228">
        <ele>95</ele>
        <time>2022-08-07T08:59:22Z</time>
      </trkpt>
      <trkpt lat="47.27537" lon="-1.33235">
        <ele>94</ele>
        <time>2022-08-07T08:59:24Z</time>
      </trkpt>
      <trkpt lat="47.27548" lon="-1.33242">
        <ele>94</ele>
        <time>2022-08-07T08:59:26Z</time>
      </trkpt>
      <trkpt lat="47.27559" lon="-1.33251">
        <ele>93</ele>
        <time>2022-08-07T08:59:28Z</time>
      </trkpt>
      <trkpt lat="47.2757" lon="-1.33261">
        <ele>93</ele>
        <time>2022-08-07T08:59:30Z</time>
      </trkpt>
      <trkpt lat="47.2758" lon="-1.33271">
        <ele>92</ele>
        <time>2022-08-07T08:59:32Z</time>
      </trkpt>
      <trkpt lat="47.27591" lon="-1.33283">
        <ele>91</ele>
        <time>2022-08-07T08:59:34Z</time>
      </trkpt>
      <trkpt lat="47.27602" lon="-1.33296">
        <ele>90</ele>
        <time>2022-08-07T08:59:36Z</time>
      </trkpt>
      <trkpt lat="47.27613" lon="-1.3331">
        <ele>89</ele>
        <time>2022-08-07T08:59:38Z</time>
      </trkpt>
      <trkpt lat="47.27623" lon="-1.3332">
        <ele>88</ele>
        <time>2022-08-07T08:59:40Z</time>
      </trkpt>
      <trkpt lat="47.2763" lon="-1.33332">
        <ele>88</ele>
        <time>2022-08-07T08:59:42Z</time>
      </trkpt>
      <trkpt lat="47.27629" lon="-1.33347">
        <ele>88</ele>
        <time>2022-08-07T08:59:44Z</time>
      </trkpt>
      <trkpt lat="47.27621" lon="-1.33359">
        <ele>88</ele>
        <time>2022-08-07T08:59:46Z</time>
      </trkpt>
      <trkpt lat="47.27611" lon="-1.33369">
        <ele>88</ele>
        <time>2022-08-07T08:59:48Z</time>
      </trkpt>
      <trkpt lat="47.27601" lon="-1.33379">
        <ele>88</ele>
        <time>2022-08-07T08:59:50Z</time>
      </trkpt>
      <trkpt lat="47.2759" lon="-1.33387">
        <ele>88</ele>
        <time>2022-08-07T08:59:52Z</time>
      </trkpt>
      <trkpt lat="47.27577" lon="-1.33394">
        <ele>87</ele>
        <time>2022-08-07T08:59:54Z</time>
      </trkpt>
      <trkpt lat="47.27565" lon="-1.334">
        <ele>87</ele>
        <time>2022-08-07T08:59:56Z</time>
      </trkpt>
      <trkpt lat="47.27552" lon="-1.33405">
        <ele>87</ele>
        <time>2022-08-07T08:59:58Z</time>
      </trkpt>
      <trkpt lat="47.27541" lon="-1.33411">
        <ele>87</ele>
        <time>2022-08-07T09:00:00Z</time>
      </trkpt>
      <trkpt lat="47.27529" lon="-1.33416">
        <ele>87</ele>
        <time>2022-08-07T09:00:02Z</time>
      </trkpt>
      <trkpt lat="47.2752" lon="-1.33423">
        <ele>87</ele>
        <time>2022-08-07T09:00:04Z</time>
      </trkpt>
      <trkpt lat="47.27512" lon="-1.33436">
        <ele>88</ele>
        <time>2022-08-07T09:00:06Z</time>
      </trkpt>
      <trkpt lat="47.27502" lon="-1.33447">
        <ele>89</ele>
        <time>2022-08-07T09:00:08Z</time>
      </trkpt>
      <trkpt lat="47.2749" lon="-1.33456">
        <ele>89</ele>
        <time>2022-08-07T09:00:10Z</time>
      </trkpt>
      <trkpt lat="47.2748" lon="-1.33466">
        <ele>89</ele>
        <time>2022-08-07T09:00:12Z</time>
      </trkpt>
      <trkpt lat="47.27471" lon="-1.33476">
        <ele>89</ele>
        <time>2022-08-07T09:00:14Z</time>
      </trkpt>
      <trkpt lat="47.27463" lon="-1.33486">
        <ele>89</ele>
        <time>2022-08-07T09:00:16Z</time>
      </trkpt>
      <trkpt lat="47.27455" lon="-1.33497">
        <ele>89</ele>
        <time>2022-08-07T09:00:18Z</time>
      </trkpt>
      <trkpt lat="47.27446" lon="-1.33508">
        <ele>89</ele>
        <time>2022-08-07T09:00:20Z</time>
      </trkpt>
      <trkpt lat="47.27438" lon="-1.33519">
        <ele>89</ele>
        <time>2022-08-07T09:00:22Z</time>
      </trkpt>
      <trkpt lat="47.2743" lon="-1.3353">
        <ele>90</ele>
        <time>2022-08-07T09:00:24Z</time>
      </trkpt>
      <trkpt lat="47.27421" lon="-1.3354">
        <ele>90</ele>
        <time>2022-08-07T09:00:26Z</time>
      </trkpt>
      <trkpt lat="47.27414" lon="-1.33552">
        <ele>90</ele>
        <time>2022-08-07T09:00:28Z</time>
      </trkpt>
      <trkpt lat="47.27409" lon="-1.33568">
        <ele>90</ele>
        <time>2022-08-07T09:00:30Z</time>
      </trkpt>
      <trkpt lat="47.27404" lon="-1.33585">
        <ele>91</ele>
        <time>2022-08-07T09:00:32Z</time>
      </trkpt>
      <trkpt lat="47.274" lon="-1.33601">
        <ele>91</ele>
        <time>2022-08-07T09:00:34Z</time>
      </trkpt>
      <trkpt lat="47.27397" lon="-1.33618">
        <ele>91</ele>
        <time>2022-08-07T09:00:36Z</time>
      </trkpt>
      <trkpt lat="47.27395" lon="-1.33634">
        <ele>91</ele>
        <time>2022-08-07T09:00:38Z</time>
      </trkpt>
      <trkpt lat="47.27392" lon="-1.3365">
        <ele>92</ele>
        <time>2022-08-07T09:00:40Z</time>
      </trkpt>
      <trkpt lat="47.27389" lon="-1.33666">
        <ele>92</ele>
        <time>2022-08-07T09:00:42Z</time>
      </trkpt>
      <trkpt lat="47.27386" lon="-1.33683">
        <ele>93</ele>
        <time>2022-08-07T09:00:44Z</time>
      </trkpt>
      <trkpt lat="47.27383" lon="-1.33701">
        <ele>92</ele>
        <time>2022-08-07T09:00:46Z</time>
      </trkpt>
      <trkpt lat="47.27378" lon="-1.33719">
        <ele>92</ele>
        <time>2022-08-07T09:00:48Z</time>
      </trkpt>
      <trkpt lat="47.27373" lon="-1.33736">
        <ele>92</ele>
        <time>2022-08-07T09:00:50Z</time>
      </trkpt>
      <trkpt lat="47.27365" lon="-1.3375">
        <ele>92</ele>
        <time>2022-08-07T09:00:52Z</time>
      </trkpt>
      <trkpt lat="47.27357" lon="-1.33761">
        <ele>92</ele>
        <time>2022-08-07T09:00:54Z</time>
      </trkpt>
      <trkpt lat="47.27349" lon="-1.33773">
        <ele>91</ele>
        <time>2022-08-07T09:00:56Z</time>
      </trkpt>
      <trkpt lat="47.27342" lon="-1.33785">
        <ele>91</ele>
        <time>2022-08-07T09:00:58Z</time>
      </trkpt>
      <trkpt lat="47.27335" lon="-1.33797">
        <ele>91</ele>
        <time>2022-08-07T09:01:00Z</time>
      </trkpt>
      <trkpt lat="47.27326" lon="-1.33808">
        <ele>91</ele>
        <time>2022-08-07T09:01:02Z</time>
      </trkpt>
      <trkpt lat="47.27319" lon="-1.33817">
        <ele>92</ele>
        <time>2022-08-07T09:01:04Z</time>
      </trkpt>
      <trkpt lat="47.27311" lon="-1.33829">
        <ele>92</ele>
        <time>2022-08-07T09:01:07Z</time>
      </trkpt>
      <trkpt lat="47.27316" lon="-1.33846">
        <ele>92</ele>
        <time>2022-08-07T09:01:11Z</time>
      </trkpt>
      <trkpt lat="47.27326" lon="-1.33858">
        <ele>92</ele>
        <time>2022-08-07T09:01:13Z</time>
      </trkpt>
      <trkpt lat="47.27337" lon="-1.33872">
        <ele>91</ele>
        <time>2022-08-07T09:01:15Z</time>
      </trkpt>
      <trkpt lat="47.27349" lon="-1.33886">
        <ele>91</ele>
        <time>2022-08-07T09:01:17Z</time>
      </trkpt>
      <trkpt lat="47.2736" lon="-1.33901">
        <ele>91</ele>
        <time>2022-08-07T09:01:19Z</time>
      </trkpt>
      <trkpt lat="47.27372" lon="-1.33917">
        <ele>90</ele>
        <time>2022-08-07T09:01:21Z</time>
      </trkpt>
      <trkpt lat="47.27384" lon="-1.33933">
        <ele>89</ele>
        <time>2022-08-07T09:01:23Z</time>
      </trkpt>
      <trkpt lat="47.27397" lon="-1.33948">
        <ele>88</ele>
        <time>2022-08-07T09:01:25Z</time>
      </trkpt>
      <trkpt lat="47.2741" lon="-1.33963">
        <ele>87</ele>
        <time>2022-08-07T09:01:27Z</time>
      </trkpt>
      <trkpt lat="47.27423" lon="-1.33978">
        <ele>87</ele>
        <time>2022-08-07T09:01:29Z</time>
      </trkpt>
      <trkpt lat="47.27436" lon="-1.33992">
        <ele>86</ele>
        <time>2022-08-07T09:01:31Z</time>
      </trkpt>
      <trkpt lat="47.27448" lon="-1.34006">
        <ele>86</ele>
        <time>2022-08-07T09:01:33Z</time>
      </trkpt>
      <trkpt lat="47.27459" lon="-1.34018">
        <ele>85</ele>
        <time>2022-08-07T09:01:35Z</time>
      </trkpt>
      <trkpt lat="47.27469" lon="-1.34031">
        <ele>85</ele>
        <time>2022-08-07T09:01:37Z</time>
      </trkpt>
      <trkpt lat="47.27479" lon="-1.34044">
        <ele>85</ele>
        <time>2022-08-07T09:01:39Z</time>
      </trkpt>
      <trkpt lat="47.27489" lon="-1.34055">
        <ele>85</ele>
        <time>2022-08-07T09:01:41Z</time>
      </trkpt>
      <trkpt lat="47.27499" lon="-1.34067">
        <ele>84</ele>
        <time>2022-08-07T09:01:43Z</time>
      </trkpt>
      <trkpt lat="47.27508" lon="-1.34079">
        <ele>85</ele>
        <time>2022-08-07T09:01:45Z</time>
      </trkpt>
      <trkpt lat="47.27517" lon="-1.3409">
        <ele>85</ele>
        <time>2022-08-07T09:01:47Z</time>
      </trkpt>
      <trkpt lat="47.27525" lon="-1.34102">
        <ele>85</ele>
        <time>2022-08-07T09:01:49Z</time>
      </trkpt>
      <trkpt lat="47.27534" lon="-1.34112">
        <ele>86</ele>
        <time>2022-08-07T09:01:51Z</time>
      </trkpt>
      <trkpt lat="47.27541" lon="-1.34122">
        <ele>86</ele>
        <time>2022-08-07T09:01:53Z</time>
      </trkpt>
      <trkpt lat="47.2755" lon="-1.34132">
        <ele>86</ele>
        <time>2022-08-07T09:01:55Z</time>
      </trkpt>
      <trkpt lat="47.27558" lon="-1.34142">
        <ele>87</ele>
        <time>2022-08-07T09:01:57Z</time>
      </trkpt>
      <trkpt lat="47.27565" lon="-1.34152">
        <ele>87</ele>
        <time>2022-08-07T09:01:59Z</time>
      </trkpt>
      <trkpt lat="47.27574" lon="-1.34162">
        <ele>87</ele>
        <time>2022-08-07T09:02:01Z</time>
      </trkpt>
      <trkpt lat="47.27583" lon="-1.34172">
        <ele>88</ele>
        <time>2022-08-07T09:02:03Z</time>
      </trkpt>
      <trkpt lat="47.27591" lon="-1.34182">
        <ele>88</ele>
        <time>2022-08-07T09:02:05Z</time>
      </trkpt>
      <trkpt lat="47.27599" lon="-1.34192">
        <ele>89</ele>
        <time>2022-08-07T09:02:07Z</time>
      </trkpt>
      <trkpt lat="47.27607" lon="-1.34201">
        <ele>89</ele>
        <time>2022-08-07T09:02:09Z</time>
      </trkpt>
      <trkpt lat="47.27616" lon="-1.34209">
        <ele>89</ele>
        <time>2022-08-07T09:02:11Z</time>
      </trkpt>
      <trkpt lat="47.27625" lon="-1.34218">
        <ele>90</ele>
        <time>2022-08-07T09:02:13Z</time>
      </trkpt>
      <trkpt lat="47.27634" lon="-1.34226">
        <ele>90</ele>
        <time>2022-08-07T09:02:15Z</time>
      </trkpt>
      <trkpt lat="47.27643" lon="-1.34234">
        <ele>91</ele>
        <time>2022-08-07T09:02:17Z</time>
      </trkpt>
      <trkpt lat="47.27651" lon="-1.34242">
        <ele>91</ele>
        <time>2022-08-07T09:02:19Z</time>
      </trkpt>
      <trkpt lat="47.27659" lon="-1.34251">
        <ele>92</ele>
        <time>2022-08-07T09:02:21Z</time>
      </trkpt>
      <trkpt lat="47.27667" lon="-1.3426">
        <ele>92</ele>
        <time>2022-08-07T09:02:23Z</time>
      </trkpt>
      <trkpt lat="47.27676" lon="-1.3427">
        <ele>93</ele>
        <time>2022-08-07T09:02:25Z</time>
      </trkpt>
      <trkpt lat="47.27684" lon="-1.34281">
        <ele>92</ele>
        <time>2022-08-07T09:02:27Z</time>
      </trkpt>
      <trkpt lat="47.27692" lon="-1.34294">
        <ele>91</ele>
        <time>2022-08-07T09:02:29Z</time>
      </trkpt>
      <trkpt lat="47.27699" lon="-1.34308">
        <ele>90</ele>
        <time>2022-08-07T09:02:31Z</time>
      </trkpt>
      <trkpt lat="47.27707" lon="-1.34323">
        <ele>90</ele>
        <time>2022-08-07T09:02:33Z</time>
      </trkpt>
      <trkpt lat="47.27714" lon="-1.3434">
        <ele>89</ele>
        <time>2022-08-07T09:02:35Z</time>
      </trkpt>
      <trkpt lat="47.2772" lon="-1.34359">
        <ele>88</ele>
        <time>2022-08-07T09:02:37Z</time>
      </trkpt>
      <trkpt lat="47.27725" lon="-1.34378">
        <ele>87</ele>
        <time>2022-08-07T09:02:39Z</time>
      </trkpt>
      <trkpt lat="47.27731" lon="-1.34398">
        <ele>86</ele>
        <time>2022-08-07T09:02:41Z</time>
      </trkpt>
      <trkpt lat="47.27736" lon="-1.34419">
        <ele>85</ele>
        <time>2022-08-07T09:02:43Z</time>
      </trkpt>
      <trkpt lat="47.27742" lon="-1.3444">
        <ele>84</ele>
        <time>2022-08-07T09:02:45Z</time>
      </trkpt>
      <trkpt lat="47.27748" lon="-1.34461">
        <ele>83</ele>
        <time>2022-08-07T09:02:47Z</time>
      </trkpt>
      <trkpt lat="47.27755" lon="-1.34482">
        <ele>82</ele>
        <time>2022-08-07T09:02:49Z</time>
      </trkpt>
      <trkpt lat="47.27763" lon="-1.34503">
        <ele>81</ele>
        <time>2022-08-07T09:02:51Z</time>
      </trkpt>
      <trkpt lat="47.27773" lon="-1.34521">
        <ele>81</ele>
        <time>2022-08-07T09:02:53Z</time>
      </trkpt>
      <trkpt lat="47.27784" lon="-1.34538">
        <ele>80</ele>
        <time>2022-08-07T09:02:55Z</time>
      </trkpt>
      <trkpt lat="47.27795" lon="-1.34556">
        <ele>80</ele>
        <time>2022-08-07T09:02:57Z</time>
      </trkpt>
      <trkpt lat="47.27806" lon="-1.34573">
        <ele>79</ele>
        <time>2022-08-07T09:02:59Z</time>
      </trkpt>
      <trkpt lat="47.27816" lon="-1.34591">
        <ele>78</ele>
        <time>2022-08-07T09:03:01Z</time>
      </trkpt>
      <trkpt lat="47.27827" lon="-1.34609">
        <ele>78</ele>
        <time>2022-08-07T09:03:03Z</time>
      </trkpt>
      <trkpt lat="47.27837" lon="-1.34627">
        <ele>78</ele>
        <time>2022-08-07T09:03:05Z</time>
      </trkpt>
      <trkpt lat="47.27846" lon="-1.34646">
        <ele>79</ele>
        <time>2022-08-07T09:03:07Z</time>
      </trkpt>
      <trkpt lat="47.27854" lon="-1.34665">
        <ele>79</ele>
        <time>2022-08-07T09:03:09Z</time>
      </trkpt>
      <trkpt lat="47.27861" lon="-1.34684">
        <ele>79</ele>
        <time>2022-08-07T09:03:11Z</time>
      </trkpt>
      <trkpt lat="47.27866" lon="-1.34705">
        <ele>79</ele>
        <time>2022-08-07T09:03:13Z</time>
      </trkpt>
      <trkpt lat="47.27871" lon="-1.34725">
        <ele>79</ele>
        <time>2022-08-07T09:03:15Z</time>
      </trkpt>
      <trkpt lat="47.27875" lon="-1.34745">
        <ele>79</ele>
        <time>2022-08-07T09:03:17Z</time>
      </trkpt>
      <trkpt lat="47.27878" lon="-1.34765">
        <ele>79</ele>
        <time>2022-08-07T09:03:19Z</time>
      </trkpt>
      <trkpt lat="47.27881" lon="-1.34786">
        <ele>79</ele>
        <time>2022-08-07T09:03:21Z</time>
      </trkpt>
      <trkpt lat="47.27883" lon="-1.34806">
        <ele>79</ele>
        <time>2022-08-07T09:03:23Z</time>
      </trkpt>
      <trkpt lat="47.27885" lon="-1.34826">
        <ele>79</ele>
        <time>2022-08-07T09:03:25Z</time>
      </trkpt>
      <trkpt lat="47.27888" lon="-1.34846">
        <ele>78</ele>
        <time>2022-08-07T09:03:27Z</time>
      </trkpt>
      <trkpt lat="47.27891" lon="-1.34865">
        <ele>78</ele>
        <time>2022-08-07T09:03:29Z</time>
      </trkpt>
      <trkpt lat="47.27894" lon="-1.34885">
        <ele>78</ele>
        <time>2022-08-07T09:03:31Z</time>
      </trkpt>
      <trkpt lat="47.27896" lon="-1.34904">
        <ele>78</ele>
        <time>2022-08-07T09:03:33Z</time>
      </trkpt>
      <trkpt lat="47.27899" lon="-1.34923">
        <ele>78</ele>
        <time>2022-08-07T09:03:35Z</time>
      </trkpt>
      <trkpt lat="47.279" lon="-1.34943">
        <ele>77</ele>
        <time>2022-08-07T09:03:37Z</time>
      </trkpt>
      <trkpt lat="47.27903" lon="-1.34964">
        <ele>77</ele>
        <time>2022-08-07T09:03:39Z</time>
      </trkpt>
      <trkpt lat="47.27906" lon="-1.34984">
        <ele>76</ele>
        <time>2022-08-07T09:03:41Z</time>
      </trkpt>
      <trkpt lat="47.27909" lon="-1.35005">
        <ele>75</ele>
        <time>2022-08-07T09:03:43Z</time>
      </trkpt>
      <trkpt lat="47.27912" lon="-1.35027">
        <ele>75</ele>
        <time>2022-08-07T09:03:45Z</time>
      </trkpt>
      <trkpt lat="47.27915" lon="-1.3505">
        <ele>74</ele>
        <time>2022-08-07T09:03:47Z</time>
      </trkpt>
      <trkpt lat="47.27919" lon="-1.35074">
        <ele>73</ele>
        <time>2022-08-07T09:03:49Z</time>
      </trkpt>
      <trkpt lat="47.27922" lon="-1.35099">
        <ele>72</ele>
        <time>2022-08-07T09:03:51Z</time>
      </trkpt>
      <trkpt lat="47.27924" lon="-1.35113">
        <ele>71</ele>
        <time>2022-08-07T09:03:52Z</time>
      </trkpt>
      <trkpt lat="47.27925" lon="-1.35126">
        <ele>71</ele>
        <time>2022-08-07T09:03:53Z</time>
      </trkpt>
      <trkpt lat="47.27926" lon="-1.35139">
        <ele>70</ele>
        <time>2022-08-07T09:03:54Z</time>
      </trkpt>
      <trkpt lat="47.27927" lon="-1.35153">
        <ele>69</ele>
        <time>2022-08-07T09:03:55Z</time>
      </trkpt>
      <trkpt lat="47.27929" lon="-1.35167">
        <ele>69</ele>
        <time>2022-08-07T09:03:56Z</time>
      </trkpt>
      <trkpt lat="47.27931" lon="-1.35181">
        <ele>68</ele>
        <time>2022-08-07T09:03:57Z</time>
      </trkpt>
      <trkpt lat="47.27933" lon="-1.35195">
        <ele>67</ele>
        <time>2022-08-07T09:03:58Z</time>
      </trkpt>
      <trkpt lat="47.27934" lon="-1.3521">
        <ele>67</ele>
        <time>2022-08-07T09:03:59Z</time>
      </trkpt>
      <trkpt lat="47.27937" lon="-1.35225">
        <ele>66</ele>
        <time>2022-08-07T09:04:00Z</time>
      </trkpt>
      <trkpt lat="47.2794" lon="-1.3524">
        <ele>65</ele>
        <time>2022-08-07T09:04:01Z</time>
      </trkpt>
      <trkpt lat="47.27942" lon="-1.35255">
        <ele>64</ele>
        <time>2022-08-07T09:04:02Z</time>
      </trkpt>
      <trkpt lat="47.27944" lon="-1.35271">
        <ele>63</ele>
        <time>2022-08-07T09:04:03Z</time>
      </trkpt>
      <trkpt lat="47.27947" lon="-1.35287">
        <ele>62</ele>
        <time>2022-08-07T09:04:04Z</time>
      </trkpt>
      <trkpt lat="47.27949" lon="-1.35303">
        <ele>61</ele>
        <time>2022-08-07T09:04:05Z</time>
      </trkpt>
      <trkpt lat="47.27953" lon="-1.35319">
        <ele>60</ele>
        <time>2022-08-07T09:04:06Z</time>
      </trkpt>
      <trkpt lat="47.27956" lon="-1.35335">
        <ele>59</ele>
        <time>2022-08-07T09:04:07Z</time>
      </trkpt>
      <trkpt lat="47.27961" lon="-1.35351">
        <ele>58</ele>
        <time>2022-08-07T09:04:08Z</time>
      </trkpt>
      <trkpt lat="47.27965" lon="-1.35367">
        <ele>57</ele>
        <time>2022-08-07T09:04:09Z</time>
      </trkpt>
      <trkpt lat="47.2797" lon="-1.35382">
        <ele>57</ele>
        <time>2022-08-07T09:04:10Z</time>
      </trkpt>
      <trkpt lat="47.27975" lon="-1.35398">
        <ele>56</ele>
        <time>2022-08-07T09:04:11Z</time>
      </trkpt>
      <trkpt lat="47.2798" lon="-1.35413">
        <ele>55</ele>
        <time>2022-08-07T09:04:12Z</time>
      </trkpt>
      <trkpt lat="47.27985" lon="-1.35428">
        <ele>54</ele>
        <time>2022-08-07T09:04:13Z</time>
      </trkpt>
      <trkpt lat="47.2799" lon="-1.35443">
        <ele>54</ele>
        <time>2022-08-07T09:04:14Z</time>
      </trkpt>
      <trkpt lat="47.27994" lon="-1.35457">
        <ele>53</ele>
        <time>2022-08-07T09:04:15Z</time>
      </trkpt>
      <trkpt lat="47.27999" lon="-1.35472">
        <ele>53</ele>
        <time>2022-08-07T09:04:16Z</time>
      </trkpt>
      <trkpt lat="47.28003" lon="-1.35486">
        <ele>53</ele>
        <time>2022-08-07T09:04:17Z</time>
      </trkpt>
      <trkpt lat="47.28007" lon="-1.35499">
        <ele>52</ele>
        <time>2022-08-07T09:04:18Z</time>
      </trkpt>
      <trkpt lat="47.28011" lon="-1.35511">
        <ele>52</ele>
        <time>2022-08-07T09:04:19Z</time>
      </trkpt>
      <trkpt lat="47.28015" lon="-1.35523">
        <ele>52</ele>
        <time>2022-08-07T09:04:20Z</time>
      </trkpt>
      <trkpt lat="47.28019" lon="-1.35537">
        <ele>52</ele>
        <time>2022-08-07T09:04:21Z</time>
      </trkpt>
      <trkpt lat="47.28022" lon="-1.35549">
        <ele>52</ele>
        <time>2022-08-07T09:04:22Z</time>
      </trkpt>
      <trkpt lat="47.2803" lon="-1.35573">
        <ele>52</ele>
        <time>2022-08-07T09:04:24Z</time>
      </trkpt>
      <trkpt lat="47.28036" lon="-1.35597">
        <ele>52</ele>
        <time>2022-08-07T09:04:26Z</time>
      </trkpt>
      <trkpt lat="47.28041" lon="-1.3562">
        <ele>51</ele>
        <time>2022-08-07T09:04:28Z</time>
      </trkpt>
      <trkpt lat="47.28046" lon="-1.35643">
        <ele>51</ele>
        <time>2022-08-07T09:04:30Z</time>
      </trkpt>
      <trkpt lat="47.28051" lon="-1.35665">
        <ele>51</ele>
        <time>2022-08-07T09:04:32Z</time>
      </trkpt>
      <trkpt lat="47.28055" lon="-1.35688">
        <ele>51</ele>
        <time>2022-08-07T09:04:34Z</time>
      </trkpt>
      <trkpt lat="47.28059" lon="-1.3571">
        <ele>51</ele>
        <time>2022-08-07T09:04:36Z</time>
      </trkpt>
      <trkpt lat="47.28062" lon="-1.35731">
        <ele>51</ele>
        <time>2022-08-07T09:04:38Z</time>
      </trkpt>
      <trkpt lat="47.28065" lon="-1.35753">
        <ele>51</ele>
        <time>2022-08-07T09:04:40Z</time>
      </trkpt>
      <trkpt lat="47.28068" lon="-1.35776">
        <ele>51</ele>
        <time>2022-08-07T09:04:42Z</time>
      </trkpt>
      <trkpt lat="47.28074" lon="-1.35797">
        <ele>51</ele>
        <time>2022-08-07T09:04:44Z</time>
      </trkpt>
      <trkpt lat="47.28081" lon="-1.35817">
        <ele>51</ele>
        <time>2022-08-07T09:04:46Z</time>
      </trkpt>
      <trkpt lat="47.28089" lon="-1.35836">
        <ele>51</ele>
        <time>2022-08-07T09:04:48Z</time>
      </trkpt>
      <trkpt lat="47.28099" lon="-1.35852">
        <ele>51</ele>
        <time>2022-08-07T09:04:50Z</time>
      </trkpt>
      <trkpt lat="47.28109" lon="-1.35868">
        <ele>51</ele>
        <time>2022-08-07T09:04:52Z</time>
      </trkpt>
      <trkpt lat="47.28119" lon="-1.35883">
        <ele>51</ele>
        <time>2022-08-07T09:04:54Z</time>
      </trkpt>
      <trkpt lat="47.28128" lon="-1.35898">
        <ele>51</ele>
        <time>2022-08-07T09:04:56Z</time>
      </trkpt>
      <trkpt lat="47.28138" lon="-1.35913">
        <ele>51</ele>
        <time>2022-08-07T09:04:58Z</time>
      </trkpt>
      <trkpt lat="47.28148" lon="-1.35928">
        <ele>51</ele>
        <time>2022-08-07T09:05:00Z</time>
      </trkpt>
      <trkpt lat="47.28157" lon="-1.35943">
        <ele>51</ele>
        <time>2022-08-07T09:05:02Z</time>
      </trkpt>
      <trkpt lat="47.28166" lon="-1.35958">
        <ele>52</ele>
        <time>2022-08-07T09:05:04Z</time>
      </trkpt>
      <trkpt lat="47.28174" lon="-1.35973">
        <ele>52</ele>
        <time>2022-08-07T09:05:06Z</time>
      </trkpt>
      <trkpt lat="47.28182" lon="-1.35987">
        <ele>51</ele>
        <time>2022-08-07T09:05:08Z</time>
      </trkpt>
      <trkpt lat="47.2819" lon="-1.36002">
        <ele>51</ele>
        <time>2022-08-07T09:05:10Z</time>
      </trkpt>
      <trkpt lat="47.28197" lon="-1.36019">
        <ele>51</ele>
        <time>2022-08-07T09:05:12Z</time>
      </trkpt>
      <trkpt lat="47.28203" lon="-1.36036">
        <ele>52</ele>
        <time>2022-08-07T09:05:14Z</time>
      </trkpt>
      <trkpt lat="47.28209" lon="-1.36052">
        <ele>52</ele>
        <time>2022-08-07T09:05:16Z</time>
      </trkpt>
      <trkpt lat="47.28214" lon="-1.3607">
        <ele>52</ele>
        <time>2022-08-07T09:05:18Z</time>
      </trkpt>
      <trkpt lat="47.28218" lon="-1.36088">
        <ele>52</ele>
        <time>2022-08-07T09:05:20Z</time>
      </trkpt>
      <trkpt lat="47.28223" lon="-1.36107">
        <ele>52</ele>
        <time>2022-08-07T09:05:22Z</time>
      </trkpt>
      <trkpt lat="47.28228" lon="-1.36125">
        <ele>51</ele>
        <time>2022-08-07T09:05:24Z</time>
      </trkpt>
      <trkpt lat="47.28232" lon="-1.36143">
        <ele>51</ele>
        <time>2022-08-07T09:05:26Z</time>
      </trkpt>
      <trkpt lat="47.28237" lon="-1.36161">
        <ele>51</ele>
        <time>2022-08-07T09:05:28Z</time>
      </trkpt>
      <trkpt lat="47.28242" lon="-1.36178">
        <ele>51</ele>
        <time>2022-08-07T09:05:30Z</time>
      </trkpt>
      <trkpt lat="47.28247" lon="-1.36196">
        <ele>51</ele>
        <time>2022-08-07T09:05:32Z</time>
      </trkpt>
      <trkpt lat="47.28251" lon="-1.36215">
        <ele>51</ele>
        <time>2022-08-07T09:05:34Z</time>
      </trkpt>
      <trkpt lat="47.28256" lon="-1.36232">
        <ele>51</ele>
        <time>2022-08-07T09:05:36Z</time>
      </trkpt>
      <trkpt lat="47.2826" lon="-1.36249">
        <ele>51</ele>
        <time>2022-08-07T09:05:38Z</time>
      </trkpt>
      <trkpt lat="47.28266" lon="-1.36267">
        <ele>51</ele>
        <time>2022-08-07T09:05:40Z</time>
      </trkpt>
      <trkpt lat="47.28271" lon="-1.36284">
        <ele>50</ele>
        <time>2022-08-07T09:05:42Z</time>
      </trkpt>
      <trkpt lat="47.28277" lon="-1.36302">
        <ele>51</ele>
        <time>2022-08-07T09:05:44Z</time>
      </trkpt>
      <trkpt lat="47.28283" lon="-1.36318">
        <ele>51</ele>
        <time>2022-08-07T09:05:46Z</time>
      </trkpt>
      <trkpt lat="47.2829" lon="-1.36335">
        <ele>51</ele>
        <time>2022-08-07T09:05:48Z</time>
      </trkpt>
      <trkpt lat="47.28297" lon="-1.36351">
        <ele>51</ele>
        <time>2022-08-07T09:05:50Z</time>
      </trkpt>
      <trkpt lat="47.28305" lon="-1.36367">
        <ele>51</ele>
        <time>2022-08-07T09:05:52Z</time>
      </trkpt>
      <trkpt lat="47.28313" lon="-1.36382">
        <ele>51</ele>
        <time>2022-08-07T09:05:54Z</time>
      </trkpt>
      <trkpt lat="47.28321" lon="-1.36397">
        <ele>51</ele>
        <time>2022-08-07T09:05:56Z</time>
      </trkpt>
      <trkpt lat="47.28329" lon="-1.36412">
        <ele>51</ele>
        <time>2022-08-07T09:05:58Z</time>
      </trkpt>
      <trkpt lat="47.28337" lon="-1.36427">
        <ele>51</ele>
        <time>2022-08-07T09:06:00Z</time>
      </trkpt>
      <trkpt lat="47.28345" lon="-1.36442">
        <ele>51</ele>
        <time>2022-08-07T09:06:02Z</time>
      </trkpt>
      <trkpt lat="47.28353" lon="-1.36457">
        <ele>51</ele>
        <time>2022-08-07T09:06:04Z</time>
      </trkpt>
      <trkpt lat="47.28361" lon="-1.36472">
        <ele>51</ele>
        <time>2022-08-07T09:06:06Z</time>
      </trkpt>
      <trkpt lat="47.28369" lon="-1.36486">
        <ele>51</ele>
        <time>2022-08-07T09:06:08Z</time>
      </trkpt>
      <trkpt lat="47.28377" lon="-1.36501">
        <ele>51</ele>
        <time>2022-08-07T09:06:10Z</time>
      </trkpt>
      <trkpt lat="47.28385" lon="-1.36516">
        <ele>51</ele>
        <time>2022-08-07T09:06:12Z</time>
      </trkpt>
      <trkpt lat="47.28393" lon="-1.36531">
        <ele>51</ele>
        <time>2022-08-07T09:06:14Z</time>
      </trkpt>
      <trkpt lat="47.28401" lon="-1.36546">
        <ele>51</ele>
        <time>2022-08-07T09:06:16Z</time>
      </trkpt>
      <trkpt lat="47.2841" lon="-1.36561">
        <ele>51</ele>
        <time>2022-08-07T09:06:18Z</time>
      </trkpt>
      <trkpt lat="47.28418" lon="-1.36576">
        <ele>51</ele>
        <time>2022-08-07T09:06:20Z</time>
      </trkpt>
      <trkpt lat="47.28427" lon="-1.36592">
        <ele>51</ele>
        <time>2022-08-07T09:06:22Z</time>
      </trkpt>
      <trkpt lat="47.28435" lon="-1.36607">
        <ele>51</ele>
        <time>2022-08-07T09:06:24Z</time>
      </trkpt>
      <trkpt lat="47.28444" lon="-1.36623">
        <ele>51</ele>
        <time>2022-08-07T09:06:26Z</time>
      </trkpt>
      <trkpt lat="47.28452" lon="-1.36638">
        <ele>51</ele>
        <time>2022-08-07T09:06:28Z</time>
      </trkpt>
      <trkpt lat="47.28461" lon="-1.36654">
        <ele>51</ele>
        <time>2022-08-07T09:06:30Z</time>
      </trkpt>
      <trkpt lat="47.28469" lon="-1.3667">
        <ele>51</ele>
        <time>2022-08-07T09:06:32Z</time>
      </trkpt>
      <trkpt lat="47.28476" lon="-1.36687">
        <ele>51</ele>
        <time>2022-08-07T09:06:34Z</time>
      </trkpt>
      <trkpt lat="47.28481" lon="-1.36706">
        <ele>51</ele>
        <time>2022-08-07T09:06:36Z</time>
      </trkpt>
      <trkpt lat="47.28485" lon="-1.36726">
        <ele>51</ele>
        <time>2022-08-07T09:06:38Z</time>
      </trkpt>
      <trkpt lat="47.28488" lon="-1.36745">
        <ele>51</ele>
        <time>2022-08-07T09:06:40Z</time>
      </trkpt>
      <trkpt lat="47.28491" lon="-1.36765">
        <ele>51</ele>
        <time>2022-08-07T09:06:42Z</time>
      </trkpt>
      <trkpt lat="47.28494" lon="-1.36786">
        <ele>51</ele>
        <time>2022-08-07T09:06:44Z</time>
      </trkpt>
      <trkpt lat="47.28498" lon="-1.36806">
        <ele>51</ele>
        <time>2022-08-07T09:06:46Z</time>
      </trkpt>
      <trkpt lat="47.28501" lon="-1.36827">
        <ele>51</ele>
        <time>2022-08-07T09:06:48Z</time>
      </trkpt>
      <trkpt lat="47.28505" lon="-1.36847">
        <ele>51</ele>
        <time>2022-08-07T09:06:50Z</time>
      </trkpt>
      <trkpt lat="47.28509" lon="-1.36866">
        <ele>51</ele>
        <time>2022-08-07T09:06:52Z</time>
      </trkpt>
      <trkpt lat="47.28513" lon="-1.36885">
        <ele>50</ele>
        <time>2022-08-07T09:06:54Z</time>
      </trkpt>
      <trkpt lat="47.28518" lon="-1.36905">
        <ele>51</ele>
        <time>2022-08-07T09:06:56Z</time>
      </trkpt>
      <trkpt lat="47.28523" lon="-1.36924">
        <ele>51</ele>
        <time>2022-08-07T09:06:58Z</time>
      </trkpt>
      <trkpt lat="47.28529" lon="-1.36943">
        <ele>51</ele>
        <time>2022-08-07T09:07:00Z</time>
      </trkpt>
      <trkpt lat="47.28535" lon="-1.36961">
        <ele>50</ele>
        <time>2022-08-07T09:07:02Z</time>
      </trkpt>
      <trkpt lat="47.28542" lon="-1.36979">
        <ele>50</ele>
        <time>2022-08-07T09:07:04Z</time>
      </trkpt>
      <trkpt lat="47.28549" lon="-1.36998">
        <ele>50</ele>
        <time>2022-08-07T09:07:06Z</time>
      </trkpt>
      <trkpt lat="47.28556" lon="-1.37015">
        <ele>51</ele>
        <time>2022-08-07T09:07:08Z</time>
      </trkpt>
      <trkpt lat="47.28564" lon="-1.37032">
        <ele>51</ele>
        <time>2022-08-07T09:07:10Z</time>
      </trkpt>
      <trkpt lat="47.28571" lon="-1.37048">
        <ele>51</ele>
        <time>2022-08-07T09:07:12Z</time>
      </trkpt>
      <trkpt lat="47.2858" lon="-1.37065">
        <ele>51</ele>
        <time>2022-08-07T09:07:14Z</time>
      </trkpt>
      <trkpt lat="47.28587" lon="-1.37081">
        <ele>51</ele>
        <time>2022-08-07T09:07:16Z</time>
      </trkpt>
      <trkpt lat="47.28595" lon="-1.37097">
        <ele>51</ele>
        <time>2022-08-07T09:07:18Z</time>
      </trkpt>
      <trkpt lat="47.28603" lon="-1.37113">
        <ele>51</ele>
        <time>2022-08-07T09:07:20Z</time>
      </trkpt>
      <trkpt lat="47.28611" lon="-1.37128">
        <ele>51</ele>
        <time>2022-08-07T09:07:22Z</time>
      </trkpt>
      <trkpt lat="47.28619" lon="-1.37144">
        <ele>51</ele>
        <time>2022-08-07T09:07:24Z</time>
      </trkpt>
      <trkpt lat="47.28627" lon="-1.3716">
        <ele>51</ele>
        <time>2022-08-07T09:07:26Z</time>
      </trkpt>
      <trkpt lat="47.28635" lon="-1.37177">
        <ele>51</ele>
        <time>2022-08-07T09:07:28Z</time>
      </trkpt>
      <trkpt lat="47.28643" lon="-1.37193">
        <ele>52</ele>
        <time>2022-08-07T09:07:30Z</time>
      </trkpt>
      <trkpt lat="47.28651" lon="-1.37208">
        <ele>52</ele>
        <time>2022-08-07T09:07:32Z</time>
      </trkpt>
      <trkpt lat="47.28659" lon="-1.37225">
        <ele>52</ele>
        <time>2022-08-07T09:07:34Z</time>
      </trkpt>
      <trkpt lat="47.28667" lon="-1.37241">
        <ele>51</ele>
        <time>2022-08-07T09:07:36Z</time>
      </trkpt>
      <trkpt lat="47.28675" lon="-1.37257">
        <ele>51</ele>
        <time>2022-08-07T09:07:38Z</time>
      </trkpt>
      <trkpt lat="47.28683" lon="-1.37273">
        <ele>51</ele>
        <time>2022-08-07T09:07:40Z</time>
      </trkpt>
      <trkpt lat="47.28691" lon="-1.37288">
        <ele>51</ele>
        <time>2022-08-07T09:07:42Z</time>
      </trkpt>
      <trkpt lat="47.28698" lon="-1.37304">
        <ele>51</ele>
        <time>2022-08-07T09:07:44Z</time>
      </trkpt>
      <trkpt lat="47.28706" lon="-1.37319">
        <ele>51</ele>
        <time>2022-08-07T09:07:46Z</time>
      </trkpt>
      <trkpt lat="47.28714" lon="-1.37335">
        <ele>52</ele>
        <time>2022-08-07T09:07:48Z</time>
      </trkpt>
      <trkpt lat="47.28721" lon="-1.37352">
        <ele>51</ele>
        <time>2022-08-07T09:07:50Z</time>
      </trkpt>
      <trkpt lat="47.28729" lon="-1.37367">
        <ele>52</ele>
        <time>2022-08-07T09:07:52Z</time>
      </trkpt>
      <trkpt lat="47.28737" lon="-1.37382">
        <ele>52</ele>
        <time>2022-08-07T09:07:54Z</time>
      </trkpt>
      <trkpt lat="47.28744" lon="-1.37396">
        <ele>52</ele>
        <time>2022-08-07T09:07:56Z</time>
      </trkpt>
      <trkpt lat="47.28751" lon="-1.37411">
        <ele>52</ele>
        <time>2022-08-07T09:07:58Z</time>
      </trkpt>
      <trkpt lat="47.28758" lon="-1.37425">
        <ele>52</ele>
        <time>2022-08-07T09:08:00Z</time>
      </trkpt>
      <trkpt lat="47.28766" lon="-1.3744">
        <ele>52</ele>
        <time>2022-08-07T09:08:02Z</time>
      </trkpt>
      <trkpt lat="47.28773" lon="-1.37455">
        <ele>52</ele>
        <time>2022-08-07T09:08:04Z</time>
      </trkpt>
      <trkpt lat="47.2878" lon="-1.37469">
        <ele>52</ele>
        <time>2022-08-07T09:08:06Z</time>
      </trkpt>
      <trkpt lat="47.28787" lon="-1.37483">
        <ele>53</ele>
        <time>2022-08-07T09:08:08Z</time>
      </trkpt>
      <trkpt lat="47.28793" lon="-1.37496">
        <ele>53</ele>
        <time>2022-08-07T09:08:10Z</time>
      </trkpt>
      <trkpt lat="47.288" lon="-1.37509">
        <ele>53</ele>
        <time>2022-08-07T09:08:12Z</time>
      </trkpt>
      <trkpt lat="47.28806" lon="-1.37521">
        <ele>53</ele>
        <time>2022-08-07T09:08:14Z</time>
      </trkpt>
      <trkpt lat="47.28812" lon="-1.37532">
        <ele>53</ele>
        <time>2022-08-07T09:08:16Z</time>
      </trkpt>
      <trkpt lat="47.28818" lon="-1.37544">
        <ele>54</ele>
        <time>2022-08-07T09:08:18Z</time>
      </trkpt>
      <trkpt lat="47.28824" lon="-1.37556">
        <ele>54</ele>
        <time>2022-08-07T09:08:20Z</time>
      </trkpt>
      <trkpt lat="47.28833" lon="-1.37567">
        <ele>55</ele>
        <time>2022-08-07T09:08:23Z</time>
      </trkpt>
      <trkpt lat="47.28843" lon="-1.37581">
        <ele>57</ele>
        <time>2022-08-07T09:08:26Z</time>
      </trkpt>
      <trkpt lat="47.28848" lon="-1.37592">
        <ele>57</ele>
        <time>2022-08-07T09:08:28Z</time>
      </trkpt>
      <trkpt lat="47.28859" lon="-1.37605">
        <ele>57</ele>
        <time>2022-08-07T09:08:31Z</time>
      </trkpt>
      <trkpt lat="47.28867" lon="-1.37614">
        <ele>58</ele>
        <time>2022-08-07T09:08:33Z</time>
      </trkpt>
      <trkpt lat="47.28874" lon="-1.37624">
        <ele>58</ele>
        <time>2022-08-07T09:08:35Z</time>
      </trkpt>
      <trkpt lat="47.28882" lon="-1.37633">
        <ele>58</ele>
        <time>2022-08-07T09:08:37Z</time>
      </trkpt>
      <trkpt lat="47.2889" lon="-1.37643">
        <ele>59</ele>
        <time>2022-08-07T09:08:39Z</time>
      </trkpt>
      <trkpt lat="47.28898" lon="-1.37652">
        <ele>59</ele>
        <time>2022-08-07T09:08:41Z</time>
      </trkpt>
      <trkpt lat="47.28905" lon="-1.37661">
        <ele>59</ele>
        <time>2022-08-07T09:08:43Z</time>
      </trkpt>
      <trkpt lat="47.28915" lon="-1.37674">
        <ele>59</ele>
        <time>2022-08-07T09:08:46Z</time>
      </trkpt>
      <trkpt lat="47.28925" lon="-1.37688">
        <ele>58</ele>
        <time>2022-08-07T09:08:49Z</time>
      </trkpt>
      <trkpt lat="47.28933" lon="-1.377">
        <ele>57</ele>
        <time>2022-08-07T09:08:51Z</time>
      </trkpt>
      <trkpt lat="47.28943" lon="-1.37711">
        <ele>56</ele>
        <time>2022-08-07T09:08:53Z</time>
      </trkpt>
      <trkpt lat="47.28952" lon="-1.37723">
        <ele>56</ele>
        <time>2022-08-07T09:08:55Z</time>
      </trkpt>
      <trkpt lat="47.2896" lon="-1.37734">
        <ele>56</ele>
        <time>2022-08-07T09:08:57Z</time>
      </trkpt>
      <trkpt lat="47.2897" lon="-1.37745">
        <ele>56</ele>
        <time>2022-08-07T09:08:59Z</time>
      </trkpt>
      <trkpt lat="47.28979" lon="-1.37756">
        <ele>56</ele>
        <time>2022-08-07T09:09:01Z</time>
      </trkpt>
      <trkpt lat="47.28988" lon="-1.37767">
        <ele>55</ele>
        <time>2022-08-07T09:09:03Z</time>
      </trkpt>
      <trkpt lat="47.28997" lon="-1.37778">
        <ele>55</ele>
        <time>2022-08-07T09:09:05Z</time>
      </trkpt>
      <trkpt lat="47.29006" lon="-1.37789">
        <ele>55</ele>
        <time>2022-08-07T09:09:07Z</time>
      </trkpt>
      <trkpt lat="47.29015" lon="-1.37801">
        <ele>55</ele>
        <time>2022-08-07T09:09:09Z</time>
      </trkpt>
      <trkpt lat="47.29024" lon="-1.37812">
        <ele>54</ele>
        <time>2022-08-07T09:09:11Z</time>
      </trkpt>
      <trkpt lat="47.29033" lon="-1.37823">
        <ele>54</ele>
        <time>2022-08-07T09:09:13Z</time>
      </trkpt>
      <trkpt lat="47.29042" lon="-1.37834">
        <ele>54</ele>
        <time>2022-08-07T09:09:15Z</time>
      </trkpt>
      <trkpt lat="47.29051" lon="-1.37845">
        <ele>54</ele>
        <time>2022-08-07T09:09:17Z</time>
      </trkpt>
      <trkpt lat="47.2906" lon="-1.37856">
        <ele>54</ele>
        <time>2022-08-07T09:09:19Z</time>
      </trkpt>
      <trkpt lat="47.29069" lon="-1.37867">
        <ele>54</ele>
        <time>2022-08-07T09:09:21Z</time>
      </trkpt>
      <trkpt lat="47.29077" lon="-1.37877">
        <ele>55</ele>
        <time>2022-08-07T09:09:23Z</time>
      </trkpt>
      <trkpt lat="47.29089" lon="-1.37891">
        <ele>56</ele>
        <time>2022-08-07T09:09:26Z</time>
      </trkpt>
      <trkpt lat="47.29097" lon="-1.37898">
        <ele>56</ele>
        <time>2022-08-07T09:09:28Z</time>
      </trkpt>
      <trkpt lat="47.29105" lon="-1.37907">
        <ele>57</ele>
        <time>2022-08-07T09:09:30Z</time>
      </trkpt>
      <trkpt lat="47.29117" lon="-1.37922">
        <ele>58</ele>
        <time>2022-08-07T09:09:33Z</time>
      </trkpt>
      <trkpt lat="47.29126" lon="-1.37932">
        <ele>58</ele>
        <time>2022-08-07T09:09:35Z</time>
      </trkpt>
      <trkpt lat="47.29134" lon="-1.37942">
        <ele>58</ele>
        <time>2022-08-07T09:09:37Z</time>
      </trkpt>
      <trkpt lat="47.29142" lon="-1.37951">
        <ele>59</ele>
        <time>2022-08-07T09:09:39Z</time>
      </trkpt>
      <trkpt lat="47.29151" lon="-1.3796">
        <ele>59</ele>
        <time>2022-08-07T09:09:41Z</time>
      </trkpt>
      <trkpt lat="47.29159" lon="-1.3797">
        <ele>60</ele>
        <time>2022-08-07T09:09:43Z</time>
      </trkpt>
      <trkpt lat="47.29168" lon="-1.37981">
        <ele>61</ele>
        <time>2022-08-07T09:09:45Z</time>
      </trkpt>
      <trkpt lat="47.2918" lon="-1.37995">
        <ele>62</ele>
        <time>2022-08-07T09:09:48Z</time>
      </trkpt>
      <trkpt lat="47.29192" lon="-1.3801">
        <ele>62</ele>
        <time>2022-08-07T09:09:51Z</time>
      </trkpt>
      <trkpt lat="47.29199" lon="-1.3802">
        <ele>62</ele>
        <time>2022-08-07T09:09:53Z</time>
      </trkpt>
      <trkpt lat="47.29207" lon="-1.3803">
        <ele>63</ele>
        <time>2022-08-07T09:09:55Z</time>
      </trkpt>
      <trkpt lat="47.29215" lon="-1.3804">
        <ele>63</ele>
        <time>2022-08-07T09:09:57Z</time>
      </trkpt>
      <trkpt lat="47.29223" lon="-1.38049">
        <ele>64</ele>
        <time>2022-08-07T09:09:59Z</time>
      </trkpt>
      <trkpt lat="47.29231" lon="-1.38059">
        <ele>64</ele>
        <time>2022-08-07T09:10:01Z</time>
      </trkpt>
      <trkpt lat="47.29244" lon="-1.38073">
        <ele>65</ele>
        <time>2022-08-07T09:10:04Z</time>
      </trkpt>
      <trkpt lat="47.29256" lon="-1.38089">
        <ele>65</ele>
        <time>2022-08-07T09:10:07Z</time>
      </trkpt>
      <trkpt lat="47.29264" lon="-1.38099">
        <ele>65</ele>
        <time>2022-08-07T09:10:09Z</time>
      </trkpt>
      <trkpt lat="47.29272" lon="-1.38109">
        <ele>65</ele>
        <time>2022-08-07T09:10:11Z</time>
      </trkpt>
      <trkpt lat="47.2928" lon="-1.38119">
        <ele>65</ele>
        <time>2022-08-07T09:10:13Z</time>
      </trkpt>
      <trkpt lat="47.29289" lon="-1.3813">
        <ele>65</ele>
        <time>2022-08-07T09:10:15Z</time>
      </trkpt>
      <trkpt lat="47.29298" lon="-1.3814">
        <ele>65</ele>
        <time>2022-08-07T09:10:17Z</time>
      </trkpt>
      <trkpt lat="47.29307" lon="-1.38151">
        <ele>64</ele>
        <time>2022-08-07T09:10:19Z</time>
      </trkpt>
      <trkpt lat="47.29316" lon="-1.38163">
        <ele>64</ele>
        <time>2022-08-07T09:10:21Z</time>
      </trkpt>
      <trkpt lat="47.29325" lon="-1.38174">
        <ele>64</ele>
        <time>2022-08-07T09:10:23Z</time>
      </trkpt>
      <trkpt lat="47.29333" lon="-1.38185">
        <ele>63</ele>
        <time>2022-08-07T09:10:25Z</time>
      </trkpt>
      <trkpt lat="47.29342" lon="-1.38197">
        <ele>63</ele>
        <time>2022-08-07T09:10:27Z</time>
      </trkpt>
      <trkpt lat="47.29352" lon="-1.38209">
        <ele>63</ele>
        <time>2022-08-07T09:10:29Z</time>
      </trkpt>
      <trkpt lat="47.29362" lon="-1.3822">
        <ele>62</ele>
        <time>2022-08-07T09:10:31Z</time>
      </trkpt>
      <trkpt lat="47.29371" lon="-1.38232">
        <ele>62</ele>
        <time>2022-08-07T09:10:33Z</time>
      </trkpt>
      <trkpt lat="47.2938" lon="-1.38243">
        <ele>62</ele>
        <time>2022-08-07T09:10:35Z</time>
      </trkpt>
      <trkpt lat="47.2939" lon="-1.38254">
        <ele>62</ele>
        <time>2022-08-07T09:10:37Z</time>
      </trkpt>
      <trkpt lat="47.29399" lon="-1.38265">
        <ele>62</ele>
        <time>2022-08-07T09:10:39Z</time>
      </trkpt>
      <trkpt lat="47.29409" lon="-1.38278">
        <ele>61</ele>
        <time>2022-08-07T09:10:41Z</time>
      </trkpt>
      <trkpt lat="47.29418" lon="-1.38289">
        <ele>61</ele>
        <time>2022-08-07T09:10:43Z</time>
      </trkpt>
      <trkpt lat="47.29427" lon="-1.38301">
        <ele>61</ele>
        <time>2022-08-07T09:10:45Z</time>
      </trkpt>
      <trkpt lat="47.29437" lon="-1.38311">
        <ele>61</ele>
        <time>2022-08-07T09:10:47Z</time>
      </trkpt>
      <trkpt lat="47.29445" lon="-1.38321">
        <ele>60</ele>
        <time>2022-08-07T09:10:49Z</time>
      </trkpt>
      <trkpt lat="47.29442" lon="-1.38335">
        <ele>60</ele>
        <time>2022-08-07T09:10:51Z</time>
      </trkpt>
      <trkpt lat="47.29438" lon="-1.38349">
        <ele>59</ele>
        <time>2022-08-07T09:10:53Z</time>
      </trkpt>
      <trkpt lat="47.29435" lon="-1.38366">
        <ele>59</ele>
        <time>2022-08-07T09:10:55Z</time>
      </trkpt>
      <trkpt lat="47.29431" lon="-1.38385">
        <ele>58</ele>
        <time>2022-08-07T09:10:57Z</time>
      </trkpt>
      <trkpt lat="47.29427" lon="-1.38405">
        <ele>58</ele>
        <time>2022-08-07T09:10:59Z</time>
      </trkpt>
      <trkpt lat="47.29423" lon="-1.38425">
        <ele>57</ele>
        <time>2022-08-07T09:11:01Z</time>
      </trkpt>
      <trkpt lat="47.29418" lon="-1.38445">
        <ele>57</ele>
        <time>2022-08-07T09:11:03Z</time>
      </trkpt>
      <trkpt lat="47.29413" lon="-1.38465">
        <ele>57</ele>
        <time>2022-08-07T09:11:05Z</time>
      </trkpt>
      <trkpt lat="47.29407" lon="-1.38485">
        <ele>56</ele>
        <time>2022-08-07T09:11:07Z</time>
      </trkpt>
      <trkpt lat="47.29401" lon="-1.38505">
        <ele>56</ele>
        <time>2022-08-07T09:11:09Z</time>
      </trkpt>
      <trkpt lat="47.29396" lon="-1.38526">
        <ele>56</ele>
        <time>2022-08-07T09:11:11Z</time>
      </trkpt>
      <trkpt lat="47.29391" lon="-1.38546">
        <ele>55</ele>
        <time>2022-08-07T09:11:13Z</time>
      </trkpt>
      <trkpt lat="47.29385" lon="-1.38567">
        <ele>55</ele>
        <time>2022-08-07T09:11:15Z</time>
      </trkpt>
      <trkpt lat="47.29379" lon="-1.38587">
        <ele>55</ele>
        <time>2022-08-07T09:11:17Z</time>
      </trkpt>
      <trkpt lat="47.29374" lon="-1.38607">
        <ele>55</ele>
        <time>2022-08-07T09:11:19Z</time>
      </trkpt>
      <trkpt lat="47.29368" lon="-1.38627">
        <ele>55</ele>
        <time>2022-08-07T09:11:21Z</time>
      </trkpt>
      <trkpt lat="47.29363" lon="-1.38646">
        <ele>55</ele>
        <time>2022-08-07T09:11:23Z</time>
      </trkpt>
      <trkpt lat="47.29357" lon="-1.38666">
        <ele>55</ele>
        <time>2022-08-07T09:11:25Z</time>
      </trkpt>
      <trkpt lat="47.29351" lon="-1.38686">
        <ele>54</ele>
        <time>2022-08-07T09:11:27Z</time>
      </trkpt>
      <trkpt lat="47.29346" lon="-1.38705">
        <ele>54</ele>
        <time>2022-08-07T09:11:29Z</time>
      </trkpt>
      <trkpt lat="47.2934" lon="-1.38725">
        <ele>53</ele>
        <time>2022-08-07T09:11:31Z</time>
      </trkpt>
      <trkpt lat="47.29335" lon="-1.38744">
        <ele>53</ele>
        <time>2022-08-07T09:11:33Z</time>
      </trkpt>
      <trkpt lat="47.29329" lon="-1.38764">
        <ele>53</ele>
        <time>2022-08-07T09:11:35Z</time>
      </trkpt>
      <trkpt lat="47.29324" lon="-1.38785">
        <ele>53</ele>
        <time>2022-08-07T09:11:37Z</time>
      </trkpt>
      <trkpt lat="47.29319" lon="-1.38805">
        <ele>53</ele>
        <time>2022-08-07T09:11:39Z</time>
      </trkpt>
      <trkpt lat="47.29313" lon="-1.38824">
        <ele>53</ele>
        <time>2022-08-07T09:11:41Z</time>
      </trkpt>
      <trkpt lat="47.29308" lon="-1.38844">
        <ele>53</ele>
        <time>2022-08-07T09:11:43Z</time>
      </trkpt>
      <trkpt lat="47.29302" lon="-1.38863">
        <ele>53</ele>
        <time>2022-08-07T09:11:45Z</time>
      </trkpt>
      <trkpt lat="47.29297" lon="-1.38883">
        <ele>54</ele>
        <time>2022-08-07T09:11:47Z</time>
      </trkpt>
      <trkpt lat="47.29291" lon="-1.38903">
        <ele>54</ele>
        <time>2022-08-07T09:11:49Z</time>
      </trkpt>
      <trkpt lat="47.29286" lon="-1.38923">
        <ele>54</ele>
        <time>2022-08-07T09:11:51Z</time>
      </trkpt>
      <trkpt lat="47.29281" lon="-1.38944">
        <ele>54</ele>
        <time>2022-08-07T09:11:53Z</time>
      </trkpt>
      <trkpt lat="47.29275" lon="-1.38964">
        <ele>55</ele>
        <time>2022-08-07T09:11:55Z</time>
      </trkpt>
      <trkpt lat="47.2927" lon="-1.38984">
        <ele>55</ele>
        <time>2022-08-07T09:11:57Z</time>
      </trkpt>
      <trkpt lat="47.29264" lon="-1.39005">
        <ele>55</ele>
        <time>2022-08-07T09:11:59Z</time>
      </trkpt>
      <trkpt lat="47.29259" lon="-1.39025">
        <ele>55</ele>
        <time>2022-08-07T09:12:01Z</time>
      </trkpt>
      <trkpt lat="47.29254" lon="-1.39046">
        <ele>55</ele>
        <time>2022-08-07T09:12:03Z</time>
      </trkpt>
      <trkpt lat="47.29248" lon="-1.39066">
        <ele>55</ele>
        <time>2022-08-07T09:12:05Z</time>
      </trkpt>
      <trkpt lat="47.29242" lon="-1.39086">
        <ele>55</ele>
        <time>2022-08-07T09:12:07Z</time>
      </trkpt>
      <trkpt lat="47.29235" lon="-1.39105">
        <ele>55</ele>
        <time>2022-08-07T09:12:09Z</time>
      </trkpt>
      <trkpt lat="47.29226" lon="-1.39123">
        <ele>56</ele>
        <time>2022-08-07T09:12:11Z</time>
      </trkpt>
      <trkpt lat="47.29216" lon="-1.39139">
        <ele>55</ele>
        <time>2022-08-07T09:12:13Z</time>
      </trkpt>
      <trkpt lat="47.29205" lon="-1.39153">
        <ele>55</ele>
        <time>2022-08-07T09:12:15Z</time>
      </trkpt>
      <trkpt lat="47.29194" lon="-1.39166">
        <ele>54</ele>
        <time>2022-08-07T09:12:17Z</time>
      </trkpt>
      <trkpt lat="47.29182" lon="-1.39181">
        <ele>54</ele>
        <time>2022-08-07T09:12:19Z</time>
      </trkpt>
      <trkpt lat="47.2917" lon="-1.39194">
        <ele>54</ele>
        <time>2022-08-07T09:12:21Z</time>
      </trkpt>
      <trkpt lat="47.29158" lon="-1.39208">
        <ele>54</ele>
        <time>2022-08-07T09:12:23Z</time>
      </trkpt>
      <trkpt lat="47.29147" lon="-1.39222">
        <ele>53</ele>
        <time>2022-08-07T09:12:25Z</time>
      </trkpt>
      <trkpt lat="47.29135" lon="-1.39237">
        <ele>53</ele>
        <time>2022-08-07T09:12:27Z</time>
      </trkpt>
      <trkpt lat="47.29124" lon="-1.39251">
        <ele>53</ele>
        <time>2022-08-07T09:12:29Z</time>
      </trkpt>
      <trkpt lat="47.29114" lon="-1.39266">
        <ele>53</ele>
        <time>2022-08-07T09:12:31Z</time>
      </trkpt>
      <trkpt lat="47.29104" lon="-1.39283">
        <ele>53</ele>
        <time>2022-08-07T09:12:33Z</time>
      </trkpt>
      <trkpt lat="47.29097" lon="-1.39302">
        <ele>54</ele>
        <time>2022-08-07T09:12:35Z</time>
      </trkpt>
      <trkpt lat="47.29091" lon="-1.39321">
        <ele>54</ele>
        <time>2022-08-07T09:12:37Z</time>
      </trkpt>
      <trkpt lat="47.29088" lon="-1.39339">
        <ele>55</ele>
        <time>2022-08-07T09:12:39Z</time>
      </trkpt>
      <trkpt lat="47.29086" lon="-1.39358">
        <ele>55</ele>
        <time>2022-08-07T09:12:41Z</time>
      </trkpt>
      <trkpt lat="47.29086" lon="-1.39376">
        <ele>56</ele>
        <time>2022-08-07T09:12:43Z</time>
      </trkpt>
      <trkpt lat="47.29088" lon="-1.39395">
        <ele>56</ele>
        <time>2022-08-07T09:12:45Z</time>
      </trkpt>
      <trkpt lat="47.29091" lon="-1.39414">
        <ele>57</ele>
        <time>2022-08-07T09:12:47Z</time>
      </trkpt>
      <trkpt lat="47.29095" lon="-1.39432">
        <ele>57</ele>
        <time>2022-08-07T09:12:49Z</time>
      </trkpt>
      <trkpt lat="47.291" lon="-1.39449">
        <ele>58</ele>
        <time>2022-08-07T09:12:51Z</time>
      </trkpt>
      <trkpt lat="47.29107" lon="-1.39464">
        <ele>58</ele>
        <time>2022-08-07T09:12:53Z</time>
      </trkpt>
      <trkpt lat="47.29114" lon="-1.39477">
        <ele>58</ele>
        <time>2022-08-07T09:12:55Z</time>
      </trkpt>
      <trkpt lat="47.29121" lon="-1.3949">
        <ele>59</ele>
        <time>2022-08-07T09:12:57Z</time>
      </trkpt>
      <trkpt lat="47.29129" lon="-1.39502">
        <ele>59</ele>
        <time>2022-08-07T09:12:59Z</time>
      </trkpt>
      <trkpt lat="47.29137" lon="-1.39515">
        <ele>59</ele>
        <time>2022-08-07T09:13:01Z</time>
      </trkpt>
      <trkpt lat="47.29145" lon="-1.3953">
        <ele>59</ele>
        <time>2022-08-07T09:13:03Z</time>
      </trkpt>
      <trkpt lat="47.29154" lon="-1.39544">
        <ele>59</ele>
        <time>2022-08-07T09:13:05Z</time>
      </trkpt>
      <trkpt lat="47.29164" lon="-1.39559">
        <ele>58</ele>
        <time>2022-08-07T09:13:07Z</time>
      </trkpt>
      <trkpt lat="47.29175" lon="-1.39575">
        <ele>58</ele>
        <time>2022-08-07T09:13:09Z</time>
      </trkpt>
      <trkpt lat="47.29187" lon="-1.3959">
        <ele>58</ele>
        <time>2022-08-07T09:13:11Z</time>
      </trkpt>
      <trkpt lat="47.292" lon="-1.39605">
        <ele>57</ele>
        <time>2022-08-07T09:13:13Z</time>
      </trkpt>
      <trkpt lat="47.29214" lon="-1.39619">
        <ele>57</ele>
        <time>2022-08-07T09:13:15Z</time>
      </trkpt>
      <trkpt lat="47.2923" lon="-1.3963">
        <ele>57</ele>
        <time>2022-08-07T09:13:17Z</time>
      </trkpt>
      <trkpt lat="47.29246" lon="-1.39637">
        <ele>56</ele>
        <time>2022-08-07T09:13:19Z</time>
      </trkpt>
      <trkpt lat="47.29259" lon="-1.3965">
        <ele>57</ele>
        <time>2022-08-07T09:13:21Z</time>
      </trkpt>
      <trkpt lat="47.29258" lon="-1.39671">
        <ele>58</ele>
        <time>2022-08-07T09:13:23Z</time>
      </trkpt>
      <trkpt lat="47.2925" lon="-1.39691">
        <ele>57</ele>
        <time>2022-08-07T09:13:25Z</time>
      </trkpt>
      <trkpt lat="47.29245" lon="-1.39713">
        <ele>56</ele>
        <time>2022-08-07T09:13:27Z</time>
      </trkpt>
      <trkpt lat="47.2924" lon="-1.39733">
        <ele>55</ele>
        <time>2022-08-07T09:13:29Z</time>
      </trkpt>
      <trkpt lat="47.29233" lon="-1.39752">
        <ele>55</ele>
        <time>2022-08-07T09:13:31Z</time>
      </trkpt>
      <trkpt lat="47.29228" lon="-1.39772">
        <ele>55</ele>
        <time>2022-08-07T09:13:33Z</time>
      </trkpt>
      <trkpt lat="47.29221" lon="-1.3979">
        <ele>55</ele>
        <time>2022-08-07T09:13:35Z</time>
      </trkpt>
      <trkpt lat="47.29215" lon="-1.39809">
        <ele>55</ele>
        <time>2022-08-07T09:13:37Z</time>
      </trkpt>
      <trkpt lat="47.29209" lon="-1.39827">
        <ele>55</ele>
        <time>2022-08-07T09:13:39Z</time>
      </trkpt>
      <trkpt lat="47.29203" lon="-1.39845">
        <ele>54</ele>
        <time>2022-08-07T09:13:41Z</time>
      </trkpt>
      <trkpt lat="47.29197" lon="-1.39864">
        <ele>54</ele>
        <time>2022-08-07T09:13:43Z</time>
      </trkpt>
      <trkpt lat="47.29191" lon="-1.39882">
        <ele>54</ele>
        <time>2022-08-07T09:13:45Z</time>
      </trkpt>
      <trkpt lat="47.29186" lon="-1.399">
        <ele>55</ele>
        <time>2022-08-07T09:13:47Z</time>
      </trkpt>
      <trkpt lat="47.29182" lon="-1.39919">
        <ele>55</ele>
        <time>2022-08-07T09:13:49Z</time>
      </trkpt>
      <trkpt lat="47.29178" lon="-1.39938">
        <ele>55</ele>
        <time>2022-08-07T09:13:51Z</time>
      </trkpt>
      <trkpt lat="47.29174" lon="-1.39959">
        <ele>55</ele>
        <time>2022-08-07T09:13:53Z</time>
      </trkpt>
      <trkpt lat="47.29171" lon="-1.39979">
        <ele>55</ele>
        <time>2022-08-07T09:13:55Z</time>
      </trkpt>
      <trkpt lat="47.29168" lon="-1.39999">
        <ele>55</ele>
        <time>2022-08-07T09:13:57Z</time>
      </trkpt>
      <trkpt lat="47.29165" lon="-1.40018">
        <ele>55</ele>
        <time>2022-08-07T09:13:59Z</time>
      </trkpt>
      <trkpt lat="47.29162" lon="-1.40037">
        <ele>55</ele>
        <time>2022-08-07T09:14:01Z</time>
      </trkpt>
      <trkpt lat="47.29158" lon="-1.40057">
        <ele>54</ele>
        <time>2022-08-07T09:14:03Z</time>
      </trkpt>
      <trkpt lat="47.29152" lon="-1.40077">
        <ele>54</ele>
        <time>2022-08-07T09:14:05Z</time>
      </trkpt>
      <trkpt lat="47.29146" lon="-1.40096">
        <ele>53</ele>
        <time>2022-08-07T09:14:07Z</time>
      </trkpt>
      <trkpt lat="47.29139" lon="-1.40114">
        <ele>53</ele>
        <time>2022-08-07T09:14:09Z</time>
      </trkpt>
      <trkpt lat="47.2913" lon="-1.40131">
        <ele>53</ele>
        <time>2022-08-07T09:14:11Z</time>
      </trkpt>
      <trkpt lat="47.29121" lon="-1.40147">
        <ele>53</ele>
        <time>2022-08-07T09:14:13Z</time>
      </trkpt>
      <trkpt lat="47.29111" lon="-1.40162">
        <ele>54</ele>
        <time>2022-08-07T09:14:15Z</time>
      </trkpt>
      <trkpt lat="47.29102" lon="-1.40177">
        <ele>55</ele>
        <time>2022-08-07T09:14:17Z</time>
      </trkpt>
      <trkpt lat="47.29093" lon="-1.40192">
        <ele>56</ele>
        <time>2022-08-07T09:14:19Z</time>
      </trkpt>
      <trkpt lat="47.29084" lon="-1.40208">
        <ele>56</ele>
        <time>2022-08-07T09:14:21Z</time>
      </trkpt>
      <trkpt lat="47.29075" lon="-1.40222">
        <ele>56</ele>
        <time>2022-08-07T09:14:23Z</time>
      </trkpt>
      <trkpt lat="47.29065" lon="-1.40238">
        <ele>56</ele>
        <time>2022-08-07T09:14:25Z</time>
      </trkpt>
      <trkpt lat="47.29056" lon="-1.40252">
        <ele>56</ele>
        <time>2022-08-07T09:14:27Z</time>
      </trkpt>
      <trkpt lat="47.29047" lon="-1.40268">
        <ele>56</ele>
        <time>2022-08-07T09:14:29Z</time>
      </trkpt>
      <trkpt lat="47.29038" lon="-1.40284">
        <ele>56</ele>
        <time>2022-08-07T09:14:31Z</time>
      </trkpt>
      <trkpt lat="47.29029" lon="-1.40299">
        <ele>56</ele>
        <time>2022-08-07T09:14:33Z</time>
      </trkpt>
      <trkpt lat="47.2902" lon="-1.40314">
        <ele>55</ele>
        <time>2022-08-07T09:14:35Z</time>
      </trkpt>
      <trkpt lat="47.2901" lon="-1.4033">
        <ele>54</ele>
        <time>2022-08-07T09:14:37Z</time>
      </trkpt>
      <trkpt lat="47.29002" lon="-1.40344">
        <ele>54</ele>
        <time>2022-08-07T09:14:39Z</time>
      </trkpt>
      <trkpt lat="47.28993" lon="-1.40359">
        <ele>54</ele>
        <time>2022-08-07T09:14:41Z</time>
      </trkpt>
      <trkpt lat="47.28984" lon="-1.40372">
        <ele>54</ele>
        <time>2022-08-07T09:14:43Z</time>
      </trkpt>
      <trkpt lat="47.28975" lon="-1.40386">
        <ele>54</ele>
        <time>2022-08-07T09:14:45Z</time>
      </trkpt>
      <trkpt lat="47.28967" lon="-1.404">
        <ele>54</ele>
        <time>2022-08-07T09:14:47Z</time>
      </trkpt>
      <trkpt lat="47.28959" lon="-1.40417">
        <ele>54</ele>
        <time>2022-08-07T09:14:49Z</time>
      </trkpt>
      <trkpt lat="47.28952" lon="-1.40435">
        <ele>53</ele>
        <time>2022-08-07T09:14:51Z</time>
      </trkpt>
      <trkpt lat="47.28946" lon="-1.40454">
        <ele>52</ele>
        <time>2022-08-07T09:14:53Z</time>
      </trkpt>
      <trkpt lat="47.28941" lon="-1.40474">
        <ele>52</ele>
        <time>2022-08-07T09:14:55Z</time>
      </trkpt>
      <trkpt lat="47.28936" lon="-1.40494">
        <ele>52</ele>
        <time>2022-08-07T09:14:57Z</time>
      </trkpt>
      <trkpt lat="47.28932" lon="-1.40513">
        <ele>52</ele>
        <time>2022-08-07T09:14:59Z</time>
      </trkpt>
      <trkpt lat="47.28927" lon="-1.40533">
        <ele>52</ele>
        <time>2022-08-07T09:15:01Z</time>
      </trkpt>
      <trkpt lat="47.28923" lon="-1.40553">
        <ele>52</ele>
        <time>2022-08-07T09:15:03Z</time>
      </trkpt>
      <trkpt lat="47.28919" lon="-1.40573">
        <ele>52</ele>
        <time>2022-08-07T09:15:05Z</time>
      </trkpt>
      <trkpt lat="47.28914" lon="-1.40593">
        <ele>51</ele>
        <time>2022-08-07T09:15:07Z</time>
      </trkpt>
      <trkpt lat="47.28909" lon="-1.40614">
        <ele>52</ele>
        <time>2022-08-07T09:15:09Z</time>
      </trkpt>
      <trkpt lat="47.28904" lon="-1.40635">
        <ele>52</ele>
        <time>2022-08-07T09:15:11Z</time>
      </trkpt>
      <trkpt lat="47.28899" lon="-1.40656">
        <ele>52</ele>
        <time>2022-08-07T09:15:13Z</time>
      </trkpt>
      <trkpt lat="47.28894" lon="-1.40676">
        <ele>52</ele>
        <time>2022-08-07T09:15:15Z</time>
      </trkpt>
      <trkpt lat="47.28889" lon="-1.40696">
        <ele>52</ele>
        <time>2022-08-07T09:15:17Z</time>
      </trkpt>
      <trkpt lat="47.28884" lon="-1.40716">
        <ele>52</ele>
        <time>2022-08-07T09:15:19Z</time>
      </trkpt>
      <trkpt lat="47.2888" lon="-1.40736">
        <ele>53</ele>
        <time>2022-08-07T09:15:21Z</time>
      </trkpt>
      <trkpt lat="47.28875" lon="-1.40755">
        <ele>53</ele>
        <time>2022-08-07T09:15:23Z</time>
      </trkpt>
      <trkpt lat="47.28871" lon="-1.40774">
        <ele>53</ele>
        <time>2022-08-07T09:15:25Z</time>
      </trkpt>
      <trkpt lat="47.28867" lon="-1.40792">
        <ele>53</ele>
        <time>2022-08-07T09:15:27Z</time>
      </trkpt>
      <trkpt lat="47.28862" lon="-1.4081">
        <ele>53</ele>
        <time>2022-08-07T09:15:29Z</time>
      </trkpt>
      <trkpt lat="47.28858" lon="-1.40828">
        <ele>53</ele>
        <time>2022-08-07T09:15:31Z</time>
      </trkpt>
      <trkpt lat="47.28854" lon="-1.40845">
        <ele>54</ele>
        <time>2022-08-07T09:15:33Z</time>
      </trkpt>
      <trkpt lat="47.28849" lon="-1.40862">
        <ele>54</ele>
        <time>2022-08-07T09:15:35Z</time>
      </trkpt>
      <trkpt lat="47.28844" lon="-1.40878">
        <ele>54</ele>
        <time>2022-08-07T09:15:37Z</time>
      </trkpt>
      <trkpt lat="47.28839" lon="-1.40896">
        <ele>54</ele>
        <time>2022-08-07T09:15:39Z</time>
      </trkpt>
      <trkpt lat="47.28833" lon="-1.40913">
        <ele>53</ele>
        <time>2022-08-07T09:15:41Z</time>
      </trkpt>
      <trkpt lat="47.28828" lon="-1.4093">
        <ele>53</ele>
        <time>2022-08-07T09:15:43Z</time>
      </trkpt>
      <trkpt lat="47.28822" lon="-1.40947">
        <ele>53</ele>
        <time>2022-08-07T09:15:45Z</time>
      </trkpt>
      <trkpt lat="47.28816" lon="-1.40965">
        <ele>53</ele>
        <time>2022-08-07T09:15:47Z</time>
      </trkpt>
      <trkpt lat="47.2881" lon="-1.40982">
        <ele>54</ele>
        <time>2022-08-07T09:15:49Z</time>
      </trkpt>
      <trkpt lat="47.28804" lon="-1.41">
        <ele>53</ele>
        <time>2022-08-07T09:15:51Z</time>
      </trkpt>
      <trkpt lat="47.28798" lon="-1.41018">
        <ele>53</ele>
        <time>2022-08-07T09:15:53Z</time>
      </trkpt>
      <trkpt lat="47.28792" lon="-1.41036">
        <ele>52</ele>
        <time>2022-08-07T09:15:55Z</time>
      </trkpt>
      <trkpt lat="47.28786" lon="-1.41052">
        <ele>52</ele>
        <time>2022-08-07T09:15:57Z</time>
      </trkpt>
      <trkpt lat="47.28779" lon="-1.41069">
        <ele>52</ele>
        <time>2022-08-07T09:15:59Z</time>
      </trkpt>
      <trkpt lat="47.28772" lon="-1.41087">
        <ele>52</ele>
        <time>2022-08-07T09:16:01Z</time>
      </trkpt>
      <trkpt lat="47.28765" lon="-1.41103">
        <ele>52</ele>
        <time>2022-08-07T09:16:03Z</time>
      </trkpt>
      <trkpt lat="47.28758" lon="-1.41119">
        <ele>52</ele>
        <time>2022-08-07T09:16:05Z</time>
      </trkpt>
      <trkpt lat="47.28749" lon="-1.41134">
        <ele>53</ele>
        <time>2022-08-07T09:16:07Z</time>
      </trkpt>
      <trkpt lat="47.28739" lon="-1.41147">
        <ele>53</ele>
        <time>2022-08-07T09:16:09Z</time>
      </trkpt>
      <trkpt lat="47.2873" lon="-1.4116">
        <ele>53</ele>
        <time>2022-08-07T09:16:11Z</time>
      </trkpt>
      <trkpt lat="47.2872" lon="-1.41174">
        <ele>53</ele>
        <time>2022-08-07T09:16:13Z</time>
      </trkpt>
      <trkpt lat="47.28709" lon="-1.41188">
        <ele>53</ele>
        <time>2022-08-07T09:16:15Z</time>
      </trkpt>
      <trkpt lat="47.28699" lon="-1.41202">
        <ele>54</ele>
        <time>2022-08-07T09:16:17Z</time>
      </trkpt>
      <trkpt lat="47.28688" lon="-1.41216">
        <ele>54</ele>
        <time>2022-08-07T09:16:19Z</time>
      </trkpt>
      <trkpt lat="47.28678" lon="-1.41231">
        <ele>54</ele>
        <time>2022-08-07T09:16:21Z</time>
      </trkpt>
      <trkpt lat="47.28669" lon="-1.41246">
        <ele>54</ele>
        <time>2022-08-07T09:16:23Z</time>
      </trkpt>
      <trkpt lat="47.28659" lon="-1.41261">
        <ele>55</ele>
        <time>2022-08-07T09:16:25Z</time>
      </trkpt>
      <trkpt lat="47.28651" lon="-1.41278">
        <ele>54</ele>
        <time>2022-08-07T09:16:27Z</time>
      </trkpt>
      <trkpt lat="47.28643" lon="-1.41295">
        <ele>54</ele>
        <time>2022-08-07T09:16:29Z</time>
      </trkpt>
      <trkpt lat="47.28635" lon="-1.41313">
        <ele>53</ele>
        <time>2022-08-07T09:16:31Z</time>
      </trkpt>
      <trkpt lat="47.28627" lon="-1.4133">
        <ele>53</ele>
        <time>2022-08-07T09:16:33Z</time>
      </trkpt>
      <trkpt lat="47.28619" lon="-1.41347">
        <ele>53</ele>
        <time>2022-08-07T09:16:35Z</time>
      </trkpt>
      <trkpt lat="47.28611" lon="-1.41364">
        <ele>53</ele>
        <time>2022-08-07T09:16:37Z</time>
      </trkpt>
      <trkpt lat="47.28603" lon="-1.4138">
        <ele>53</ele>
        <time>2022-08-07T09:16:39Z</time>
      </trkpt>
      <trkpt lat="47.28596" lon="-1.41397">
        <ele>53</ele>
        <time>2022-08-07T09:16:41Z</time>
      </trkpt>
      <trkpt lat="47.28588" lon="-1.41413">
        <ele>53</ele>
        <time>2022-08-07T09:16:43Z</time>
      </trkpt>
      <trkpt lat="47.28581" lon="-1.41429">
        <ele>53</ele>
        <time>2022-08-07T09:16:45Z</time>
      </trkpt>
      <trkpt lat="47.28573" lon="-1.41444">
        <ele>53</ele>
        <time>2022-08-07T09:16:47Z</time>
      </trkpt>
      <trkpt lat="47.28565" lon="-1.41459">
        <ele>53</ele>
        <time>2022-08-07T09:16:49Z</time>
      </trkpt>
      <trkpt lat="47.28556" lon="-1.41474">
        <ele>53</ele>
        <time>2022-08-07T09:16:51Z</time>
      </trkpt>
      <trkpt lat="47.28548" lon="-1.4149">
        <ele>53</ele>
        <time>2022-08-07T09:16:53Z</time>
      </trkpt>
      <trkpt lat="47.2854" lon="-1.41505">
        <ele>54</ele>
        <time>2022-08-07T09:16:55Z</time>
      </trkpt>
      <trkpt lat="47.28531" lon="-1.41519">
        <ele>55</ele>
        <time>2022-08-07T09:16:57Z</time>
      </trkpt>
      <trkpt lat="47.28522" lon="-1.41533">
        <ele>55</ele>
        <time>2022-08-07T09:16:59Z</time>
      </trkpt>
      <trkpt lat="47.28512" lon="-1.41547">
        <ele>55</ele>
        <time>2022-08-07T09:17:01Z</time>
      </trkpt>
      <trkpt lat="47.28502" lon="-1.41561">
        <ele>55</ele>
        <time>2022-08-07T09:17:03Z</time>
      </trkpt>
      <trkpt lat="47.28492" lon="-1.41574">
        <ele>56</ele>
        <time>2022-08-07T09:17:05Z</time>
      </trkpt>
      <trkpt lat="47.28481" lon="-1.41587">
        <ele>56</ele>
        <time>2022-08-07T09:17:07Z</time>
      </trkpt>
      <trkpt lat="47.28469" lon="-1.416">
        <ele>56</ele>
        <time>2022-08-07T09:17:09Z</time>
      </trkpt>
      <trkpt lat="47.28458" lon="-1.41612">
        <ele>55</ele>
        <time>2022-08-07T09:17:11Z</time>
      </trkpt>
      <trkpt lat="47.28447" lon="-1.41625">
        <ele>56</ele>
        <time>2022-08-07T09:17:13Z</time>
      </trkpt>
      <trkpt lat="47.28437" lon="-1.41638">
        <ele>56</ele>
        <time>2022-08-07T09:17:15Z</time>
      </trkpt>
      <trkpt lat="47.28428" lon="-1.41652">
        <ele>56</ele>
        <time>2022-08-07T09:17:17Z</time>
      </trkpt>
      <trkpt lat="47.28418" lon="-1.41665">
        <ele>57</ele>
        <time>2022-08-07T09:17:19Z</time>
      </trkpt>
      <trkpt lat="47.28408" lon="-1.41679">
        <ele>57</ele>
        <time>2022-08-07T09:17:21Z</time>
      </trkpt>
      <trkpt lat="47.28397" lon="-1.41693">
        <ele>57</ele>
        <time>2022-08-07T09:17:23Z</time>
      </trkpt>
      <trkpt lat="47.28387" lon="-1.41707">
        <ele>57</ele>
        <time>2022-08-07T09:17:25Z</time>
      </trkpt>
      <trkpt lat="47.28375" lon="-1.41722">
        <ele>56</ele>
        <time>2022-08-07T09:17:27Z</time>
      </trkpt>
      <trkpt lat="47.28364" lon="-1.41736">
        <ele>56</ele>
        <time>2022-08-07T09:17:29Z</time>
      </trkpt>
      <trkpt lat="47.28353" lon="-1.4175">
        <ele>55</ele>
        <time>2022-08-07T09:17:31Z</time>
      </trkpt>
      <trkpt lat="47.28343" lon="-1.41765">
        <ele>56</ele>
        <time>2022-08-07T09:17:33Z</time>
      </trkpt>
      <trkpt lat="47.28332" lon="-1.41779">
        <ele>56</ele>
        <time>2022-08-07T09:17:35Z</time>
      </trkpt>
      <trkpt lat="47.28322" lon="-1.41793">
        <ele>56</ele>
        <time>2022-08-07T09:17:37Z</time>
      </trkpt>
      <trkpt lat="47.28312" lon="-1.41807">
        <ele>57</ele>
        <time>2022-08-07T09:17:39Z</time>
      </trkpt>
      <trkpt lat="47.28302" lon="-1.41821">
        <ele>57</ele>
        <time>2022-08-07T09:17:41Z</time>
      </trkpt>
      <trkpt lat="47.28291" lon="-1.41836">
        <ele>57</ele>
        <time>2022-08-07T09:17:43Z</time>
      </trkpt>
      <trkpt lat="47.2828" lon="-1.41851">
        <ele>57</ele>
        <time>2022-08-07T09:17:45Z</time>
      </trkpt>
      <trkpt lat="47.28269" lon="-1.41866">
        <ele>56</ele>
        <time>2022-08-07T09:17:47Z</time>
      </trkpt>
      <trkpt lat="47.28258" lon="-1.41881">
        <ele>56</ele>
        <time>2022-08-07T09:17:49Z</time>
      </trkpt>
      <trkpt lat="47.28247" lon="-1.41895">
        <ele>56</ele>
        <time>2022-08-07T09:17:51Z</time>
      </trkpt>
      <trkpt lat="47.28237" lon="-1.41909">
        <ele>56</ele>
        <time>2022-08-07T09:17:53Z</time>
      </trkpt>
      <trkpt lat="47.28226" lon="-1.41923">
        <ele>56</ele>
        <time>2022-08-07T09:17:55Z</time>
      </trkpt>
      <trkpt lat="47.28215" lon="-1.41935">
        <ele>56</ele>
        <time>2022-08-07T09:17:57Z</time>
      </trkpt>
      <trkpt lat="47.28203" lon="-1.41944">
        <ele>57</ele>
        <time>2022-08-07T09:17:59Z</time>
      </trkpt>
      <trkpt lat="47.2819" lon="-1.41952">
        <ele>57</ele>
        <time>2022-08-07T09:18:01Z</time>
      </trkpt>
      <trkpt lat="47.28176" lon="-1.4196">
        <ele>57</ele>
        <time>2022-08-07T09:18:03Z</time>
      </trkpt>
      <trkpt lat="47.28162" lon="-1.41968">
        <ele>56</ele>
        <time>2022-08-07T09:18:05Z</time>
      </trkpt>
      <trkpt lat="47.28149" lon="-1.41975">
        <ele>56</ele>
        <time>2022-08-07T09:18:07Z</time>
      </trkpt>
      <trkpt lat="47.28135" lon="-1.41982">
        <ele>56</ele>
        <time>2022-08-07T09:18:09Z</time>
      </trkpt>
      <trkpt lat="47.28121" lon="-1.41989">
        <ele>56</ele>
        <time>2022-08-07T09:18:11Z</time>
      </trkpt>
      <trkpt lat="47.28108" lon="-1.41996">
        <ele>55</ele>
        <time>2022-08-07T09:18:13Z</time>
      </trkpt>
      <trkpt lat="47.28094" lon="-1.42003">
        <ele>55</ele>
        <time>2022-08-07T09:18:15Z</time>
      </trkpt>
      <trkpt lat="47.2808" lon="-1.4201">
        <ele>55</ele>
        <time>2022-08-07T09:18:17Z</time>
      </trkpt>
      <trkpt lat="47.28066" lon="-1.42017">
        <ele>54</ele>
        <time>2022-08-07T09:18:19Z</time>
      </trkpt>
      <trkpt lat="47.28052" lon="-1.42024">
        <ele>54</ele>
        <time>2022-08-07T09:18:21Z</time>
      </trkpt>
      <trkpt lat="47.28038" lon="-1.42032">
        <ele>54</ele>
        <time>2022-08-07T09:18:23Z</time>
      </trkpt>
      <trkpt lat="47.28025" lon="-1.4204">
        <ele>53</ele>
        <time>2022-08-07T09:18:25Z</time>
      </trkpt>
      <trkpt lat="47.28012" lon="-1.42051">
        <ele>53</ele>
        <time>2022-08-07T09:18:27Z</time>
      </trkpt>
      <trkpt lat="47.28" lon="-1.42063">
        <ele>53</ele>
        <time>2022-08-07T09:18:29Z</time>
      </trkpt>
      <trkpt lat="47.27989" lon="-1.42076">
        <ele>53</ele>
        <time>2022-08-07T09:18:31Z</time>
      </trkpt>
      <trkpt lat="47.27978" lon="-1.42091">
        <ele>53</ele>
        <time>2022-08-07T09:18:33Z</time>
      </trkpt>
      <trkpt lat="47.27967" lon="-1.42105">
        <ele>53</ele>
        <time>2022-08-07T09:18:35Z</time>
      </trkpt>
      <trkpt lat="47.27955" lon="-1.4212">
        <ele>53</ele>
        <time>2022-08-07T09:18:37Z</time>
      </trkpt>
      <trkpt lat="47.27943" lon="-1.42136">
        <ele>53</ele>
        <time>2022-08-07T09:18:39Z</time>
      </trkpt>
      <trkpt lat="47.27931" lon="-1.42152">
        <ele>54</ele>
        <time>2022-08-07T09:18:41Z</time>
      </trkpt>
      <trkpt lat="47.27919" lon="-1.42168">
        <ele>54</ele>
        <time>2022-08-07T09:18:43Z</time>
      </trkpt>
      <trkpt lat="47.27905" lon="-1.42185">
        <ele>54</ele>
        <time>2022-08-07T09:18:45Z</time>
      </trkpt>
      <trkpt lat="47.27898" lon="-1.42193">
        <ele>54</ele>
        <time>2022-08-07T09:18:46Z</time>
      </trkpt>
      <trkpt lat="47.27884" lon="-1.4221">
        <ele>54</ele>
        <time>2022-08-07T09:18:48Z</time>
      </trkpt>
      <trkpt lat="47.27871" lon="-1.42225">
        <ele>55</ele>
        <time>2022-08-07T09:18:50Z</time>
      </trkpt>
      <trkpt lat="47.27856" lon="-1.42239">
        <ele>56</ele>
        <time>2022-08-07T09:18:52Z</time>
      </trkpt>
      <trkpt lat="47.2784" lon="-1.4225">
        <ele>56</ele>
        <time>2022-08-07T09:18:54Z</time>
      </trkpt>
      <trkpt lat="47.27824" lon="-1.4226">
        <ele>57</ele>
        <time>2022-08-07T09:18:56Z</time>
      </trkpt>
      <trkpt lat="47.27808" lon="-1.42268">
        <ele>57</ele>
        <time>2022-08-07T09:18:58Z</time>
      </trkpt>
      <trkpt lat="47.27799" lon="-1.42272">
        <ele>57</ele>
        <time>2022-08-07T09:18:59Z</time>
      </trkpt>
      <trkpt lat="47.27782" lon="-1.42279">
        <ele>57</ele>
        <time>2022-08-07T09:19:01Z</time>
      </trkpt>
      <trkpt lat="47.27766" lon="-1.42289">
        <ele>57</ele>
        <time>2022-08-07T09:19:03Z</time>
      </trkpt>
      <trkpt lat="47.2775" lon="-1.42301">
        <ele>56</ele>
        <time>2022-08-07T09:19:05Z</time>
      </trkpt>
      <trkpt lat="47.27736" lon="-1.42314">
        <ele>56</ele>
        <time>2022-08-07T09:19:07Z</time>
      </trkpt>
      <trkpt lat="47.27724" lon="-1.42331">
        <ele>56</ele>
        <time>2022-08-07T09:19:09Z</time>
      </trkpt>
      <trkpt lat="47.27714" lon="-1.42349">
        <ele>56</ele>
        <time>2022-08-07T09:19:11Z</time>
      </trkpt>
      <trkpt lat="47.27705" lon="-1.42368">
        <ele>55</ele>
        <time>2022-08-07T09:19:13Z</time>
      </trkpt>
      <trkpt lat="47.27696" lon="-1.42387">
        <ele>55</ele>
        <time>2022-08-07T09:19:15Z</time>
      </trkpt>
      <trkpt lat="47.27687" lon="-1.42406">
        <ele>55</ele>
        <time>2022-08-07T09:19:17Z</time>
      </trkpt>
      <trkpt lat="47.27678" lon="-1.42426">
        <ele>54</ele>
        <time>2022-08-07T09:19:19Z</time>
      </trkpt>
      <trkpt lat="47.27669" lon="-1.42446">
        <ele>54</ele>
        <time>2022-08-07T09:19:21Z</time>
      </trkpt>
      <trkpt lat="47.27659" lon="-1.42466">
        <ele>54</ele>
        <time>2022-08-07T09:19:23Z</time>
      </trkpt>
      <trkpt lat="47.27649" lon="-1.42487">
        <ele>54</ele>
        <time>2022-08-07T09:19:25Z</time>
      </trkpt>
      <trkpt lat="47.2764" lon="-1.42509">
        <ele>54</ele>
        <time>2022-08-07T09:19:27Z</time>
      </trkpt>
      <trkpt lat="47.2763" lon="-1.42531">
        <ele>55</ele>
        <time>2022-08-07T09:19:29Z</time>
      </trkpt>
      <trkpt lat="47.27621" lon="-1.42553">
        <ele>55</ele>
        <time>2022-08-07T09:19:31Z</time>
      </trkpt>
      <trkpt lat="47.27611" lon="-1.42576">
        <ele>55</ele>
        <time>2022-08-07T09:19:33Z</time>
      </trkpt>
      <trkpt lat="47.27606" lon="-1.42587">
        <ele>55</ele>
        <time>2022-08-07T09:19:34Z</time>
      </trkpt>
      <trkpt lat="47.27596" lon="-1.42609">
        <ele>54</ele>
        <time>2022-08-07T09:19:36Z</time>
      </trkpt>
      <trkpt lat="47.27586" lon="-1.42631">
        <ele>55</ele>
        <time>2022-08-07T09:19:38Z</time>
      </trkpt>
      <trkpt lat="47.27581" lon="-1.42642">
        <ele>55</ele>
        <time>2022-08-07T09:19:39Z</time>
      </trkpt>
      <trkpt lat="47.2757" lon="-1.42663">
        <ele>56</ele>
        <time>2022-08-07T09:19:41Z</time>
      </trkpt>
      <trkpt lat="47.27561" lon="-1.42683">
        <ele>57</ele>
        <time>2022-08-07T09:19:43Z</time>
      </trkpt>
      <trkpt lat="47.27553" lon="-1.42702">
        <ele>58</ele>
        <time>2022-08-07T09:19:45Z</time>
      </trkpt>
      <trkpt lat="47.27543" lon="-1.4272">
        <ele>59</ele>
        <time>2022-08-07T09:19:47Z</time>
      </trkpt>
      <trkpt lat="47.27534" lon="-1.42737">
        <ele>59</ele>
        <time>2022-08-07T09:19:49Z</time>
      </trkpt>
      <trkpt lat="47.27522" lon="-1.42753">
        <ele>59</ele>
        <time>2022-08-07T09:19:51Z</time>
      </trkpt>
      <trkpt lat="47.2751" lon="-1.42769">
        <ele>59</ele>
        <time>2022-08-07T09:19:53Z</time>
      </trkpt>
      <trkpt lat="47.27497" lon="-1.42786">
        <ele>60</ele>
        <time>2022-08-07T09:19:55Z</time>
      </trkpt>
      <trkpt lat="47.2749" lon="-1.42796">
        <ele>60</ele>
        <time>2022-08-07T09:19:56Z</time>
      </trkpt>
      <trkpt lat="47.27483" lon="-1.42805">
        <ele>59</ele>
        <time>2022-08-07T09:19:57Z</time>
      </trkpt>
      <trkpt lat="47.27477" lon="-1.42814">
        <ele>59</ele>
        <time>2022-08-07T09:19:58Z</time>
      </trkpt>
      <trkpt lat="47.2747" lon="-1.42824">
        <ele>59</ele>
        <time>2022-08-07T09:19:59Z</time>
      </trkpt>
      <trkpt lat="47.27458" lon="-1.42841">
        <ele>59</ele>
        <time>2022-08-07T09:20:01Z</time>
      </trkpt>
      <trkpt lat="47.27447" lon="-1.42858">
        <ele>60</ele>
        <time>2022-08-07T09:20:03Z</time>
      </trkpt>
      <trkpt lat="47.27435" lon="-1.42876">
        <ele>60</ele>
        <time>2022-08-07T09:20:05Z</time>
      </trkpt>
      <trkpt lat="47.27425" lon="-1.42894">
        <ele>61</ele>
        <time>2022-08-07T09:20:07Z</time>
      </trkpt>
      <trkpt lat="47.27417" lon="-1.42913">
        <ele>61</ele>
        <time>2022-08-07T09:20:09Z</time>
      </trkpt>
      <trkpt lat="47.27413" lon="-1.42932">
        <ele>61</ele>
        <time>2022-08-07T09:20:11Z</time>
      </trkpt>
      <trkpt lat="47.2741" lon="-1.42951">
        <ele>61</ele>
        <time>2022-08-07T09:20:13Z</time>
      </trkpt>
      <trkpt lat="47.27401" lon="-1.42964">
        <ele>61</ele>
        <time>2022-08-07T09:20:15Z</time>
      </trkpt>
      <trkpt lat="47.27385" lon="-1.42968">
        <ele>60</ele>
        <time>2022-08-07T09:20:17Z</time>
      </trkpt>
      <trkpt lat="47.27371" lon="-1.42975">
        <ele>60</ele>
        <time>2022-08-07T09:20:19Z</time>
      </trkpt>
      <trkpt lat="47.27358" lon="-1.42989">
        <ele>60</ele>
        <time>2022-08-07T09:20:21Z</time>
      </trkpt>
      <trkpt lat="47.27346" lon="-1.43006">
        <ele>60</ele>
        <time>2022-08-07T09:20:23Z</time>
      </trkpt>
      <trkpt lat="47.27336" lon="-1.43022">
        <ele>60</ele>
        <time>2022-08-07T09:20:25Z</time>
      </trkpt>
      <trkpt lat="47.27325" lon="-1.43038">
        <ele>60</ele>
        <time>2022-08-07T09:20:27Z</time>
      </trkpt>
      <trkpt lat="47.27316" lon="-1.43053">
        <ele>60</ele>
        <time>2022-08-07T09:20:29Z</time>
      </trkpt>
      <trkpt lat="47.27305" lon="-1.43068">
        <ele>61</ele>
        <time>2022-08-07T09:20:31Z</time>
      </trkpt>
      <trkpt lat="47.27295" lon="-1.43083">
        <ele>61</ele>
        <time>2022-08-07T09:20:33Z</time>
      </trkpt>
      <trkpt lat="47.27284" lon="-1.43098">
        <ele>61</ele>
        <time>2022-08-07T09:20:35Z</time>
      </trkpt>
      <trkpt lat="47.27274" lon="-1.43114">
        <ele>61</ele>
        <time>2022-08-07T09:20:37Z</time>
      </trkpt>
      <trkpt lat="47.27262" lon="-1.43131">
        <ele>61</ele>
        <time>2022-08-07T09:20:39Z</time>
      </trkpt>
      <trkpt lat="47.27251" lon="-1.43148">
        <ele>61</ele>
        <time>2022-08-07T09:20:41Z</time>
      </trkpt>
      <trkpt lat="47.27241" lon="-1.43165">
        <ele>61</ele>
        <time>2022-08-07T09:20:43Z</time>
      </trkpt>
      <trkpt lat="47.2723" lon="-1.4318">
        <ele>61</ele>
        <time>2022-08-07T09:20:45Z</time>
      </trkpt>
      <trkpt lat="47.27219" lon="-1.43198">
        <ele>61</ele>
        <time>2022-08-07T09:20:47Z</time>
      </trkpt>
      <trkpt lat="47.27206" lon="-1.43213">
        <ele>61</ele>
        <time>2022-08-07T09:20:49Z</time>
      </trkpt>
      <trkpt lat="47.27194" lon="-1.43228">
        <ele>60</ele>
        <time>2022-08-07T09:20:51Z</time>
      </trkpt>
      <trkpt lat="47.27181" lon="-1.43244">
        <ele>61</ele>
        <time>2022-08-07T09:20:53Z</time>
      </trkpt>
      <trkpt lat="47.27167" lon="-1.43258">
        <ele>61</ele>
        <time>2022-08-07T09:20:55Z</time>
      </trkpt>
      <trkpt lat="47.27154" lon="-1.43274">
        <ele>61</ele>
        <time>2022-08-07T09:20:57Z</time>
      </trkpt>
      <trkpt lat="47.2714" lon="-1.43288">
        <ele>61</ele>
        <time>2022-08-07T09:20:59Z</time>
      </trkpt>
      <trkpt lat="47.27126" lon="-1.43304">
        <ele>61</ele>
        <time>2022-08-07T09:21:01Z</time>
      </trkpt>
      <trkpt lat="47.27119" lon="-1.43312">
        <ele>61</ele>
        <time>2022-08-07T09:21:02Z</time>
      </trkpt>
      <trkpt lat="47.27105" lon="-1.43328">
        <ele>61</ele>
        <time>2022-08-07T09:21:04Z</time>
      </trkpt>
      <trkpt lat="47.27091" lon="-1.43344">
        <ele>61</ele>
        <time>2022-08-07T09:21:06Z</time>
      </trkpt>
      <trkpt lat="47.27077" lon="-1.43359">
        <ele>61</ele>
        <time>2022-08-07T09:21:08Z</time>
      </trkpt>
      <trkpt lat="47.27063" lon="-1.43375">
        <ele>61</ele>
        <time>2022-08-07T09:21:10Z</time>
      </trkpt>
      <trkpt lat="47.2705" lon="-1.43391">
        <ele>60</ele>
        <time>2022-08-07T09:21:12Z</time>
      </trkpt>
      <trkpt lat="47.27038" lon="-1.43409">
        <ele>60</ele>
        <time>2022-08-07T09:21:14Z</time>
      </trkpt>
      <trkpt lat="47.27028" lon="-1.4343">
        <ele>61</ele>
        <time>2022-08-07T09:21:16Z</time>
      </trkpt>
      <trkpt lat="47.27018" lon="-1.43453">
        <ele>61</ele>
        <time>2022-08-07T09:21:18Z</time>
      </trkpt>
      <trkpt lat="47.27009" lon="-1.43475">
        <ele>61</ele>
        <time>2022-08-07T09:21:20Z</time>
      </trkpt>
      <trkpt lat="47.26999" lon="-1.43496">
        <ele>60</ele>
        <time>2022-08-07T09:21:22Z</time>
      </trkpt>
      <trkpt lat="47.26993" lon="-1.43506">
        <ele>60</ele>
        <time>2022-08-07T09:21:23Z</time>
      </trkpt>
      <trkpt lat="47.2698" lon="-1.43525">
        <ele>60</ele>
        <time>2022-08-07T09:21:25Z</time>
      </trkpt>
      <trkpt lat="47.26974" lon="-1.43534">
        <ele>60</ele>
        <time>2022-08-07T09:21:26Z</time>
      </trkpt>
      <trkpt lat="47.26961" lon="-1.43553">
        <ele>60</ele>
        <time>2022-08-07T09:21:28Z</time>
      </trkpt>
      <trkpt lat="47.26949" lon="-1.43571">
        <ele>60</ele>
        <time>2022-08-07T09:21:30Z</time>
      </trkpt>
      <trkpt lat="47.26936" lon="-1.43588">
        <ele>60</ele>
        <time>2022-08-07T09:21:32Z</time>
      </trkpt>
      <trkpt lat="47.26924" lon="-1.43605">
        <ele>60</ele>
        <time>2022-08-07T09:21:34Z</time>
      </trkpt>
      <trkpt lat="47.26912" lon="-1.43623">
        <ele>60</ele>
        <time>2022-08-07T09:21:36Z</time>
      </trkpt>
      <trkpt lat="47.269" lon="-1.43642">
        <ele>60</ele>
        <time>2022-08-07T09:21:38Z</time>
      </trkpt>
      <trkpt lat="47.26891" lon="-1.43663">
        <ele>60</ele>
        <time>2022-08-07T09:21:40Z</time>
      </trkpt>
      <trkpt lat="47.26886" lon="-1.43675">
        <ele>60</ele>
        <time>2022-08-07T09:21:41Z</time>
      </trkpt>
      <trkpt lat="47.26881" lon="-1.43687">
        <ele>60</ele>
        <time>2022-08-07T09:21:42Z</time>
      </trkpt>
      <trkpt lat="47.26876" lon="-1.43698">
        <ele>60</ele>
        <time>2022-08-07T09:21:43Z</time>
      </trkpt>
      <trkpt lat="47.26872" lon="-1.43711">
        <ele>60</ele>
        <time>2022-08-07T09:21:44Z</time>
      </trkpt>
      <trkpt lat="47.26867" lon="-1.43724">
        <ele>60</ele>
        <time>2022-08-07T09:21:45Z</time>
      </trkpt>
      <trkpt lat="47.26863" lon="-1.43736">
        <ele>60</ele>
        <time>2022-08-07T09:21:46Z</time>
      </trkpt>
      <trkpt lat="47.26858" lon="-1.43748">
        <ele>60</ele>
        <time>2022-08-07T09:21:47Z</time>
      </trkpt>
      <trkpt lat="47.26854" lon="-1.4376">
        <ele>60</ele>
        <time>2022-08-07T09:21:48Z</time>
      </trkpt>
      <trkpt lat="47.2685" lon="-1.43772">
        <ele>60</ele>
        <time>2022-08-07T09:21:49Z</time>
      </trkpt>
      <trkpt lat="47.26841" lon="-1.43795">
        <ele>59</ele>
        <time>2022-08-07T09:21:51Z</time>
      </trkpt>
      <trkpt lat="47.26837" lon="-1.43807">
        <ele>59</ele>
        <time>2022-08-07T09:21:52Z</time>
      </trkpt>
      <trkpt lat="47.26832" lon="-1.43818">
        <ele>60</ele>
        <time>2022-08-07T09:21:53Z</time>
      </trkpt>
      <trkpt lat="47.26823" lon="-1.4384">
        <ele>60</ele>
        <time>2022-08-07T09:21:55Z</time>
      </trkpt>
      <trkpt lat="47.26814" lon="-1.4386">
        <ele>60</ele>
        <time>2022-08-07T09:21:57Z</time>
      </trkpt>
      <trkpt lat="47.26804" lon="-1.4388">
        <ele>60</ele>
        <time>2022-08-07T09:21:59Z</time>
      </trkpt>
      <trkpt lat="47.26795" lon="-1.43899">
        <ele>60</ele>
        <time>2022-08-07T09:22:01Z</time>
      </trkpt>
      <trkpt lat="47.26785" lon="-1.43918">
        <ele>59</ele>
        <time>2022-08-07T09:22:03Z</time>
      </trkpt>
      <trkpt lat="47.26775" lon="-1.43936">
        <ele>59</ele>
        <time>2022-08-07T09:22:05Z</time>
      </trkpt>
      <trkpt lat="47.26765" lon="-1.43954">
        <ele>59</ele>
        <time>2022-08-07T09:22:07Z</time>
      </trkpt>
      <trkpt lat="47.26755" lon="-1.43973">
        <ele>60</ele>
        <time>2022-08-07T09:22:09Z</time>
      </trkpt>
      <trkpt lat="47.26745" lon="-1.43991">
        <ele>61</ele>
        <time>2022-08-07T09:22:11Z</time>
      </trkpt>
      <trkpt lat="47.26735" lon="-1.44008">
        <ele>61</ele>
        <time>2022-08-07T09:22:13Z</time>
      </trkpt>
      <trkpt lat="47.26727" lon="-1.44024">
        <ele>61</ele>
        <time>2022-08-07T09:22:15Z</time>
      </trkpt>
      <trkpt lat="47.26718" lon="-1.4404">
        <ele>62</ele>
        <time>2022-08-07T09:22:17Z</time>
      </trkpt>
      <trkpt lat="47.26709" lon="-1.44056">
        <ele>62</ele>
        <time>2022-08-07T09:22:19Z</time>
      </trkpt>
      <trkpt lat="47.267" lon="-1.44071">
        <ele>62</ele>
        <time>2022-08-07T09:22:21Z</time>
      </trkpt>
      <trkpt lat="47.26692" lon="-1.44085">
        <ele>62</ele>
        <time>2022-08-07T09:22:23Z</time>
      </trkpt>
      <trkpt lat="47.26685" lon="-1.44101">
        <ele>62</ele>
        <time>2022-08-07T09:22:25Z</time>
      </trkpt>
      <trkpt lat="47.2668" lon="-1.44119">
        <ele>62</ele>
        <time>2022-08-07T09:22:27Z</time>
      </trkpt>
      <trkpt lat="47.26671" lon="-1.44137">
        <ele>61</ele>
        <time>2022-08-07T09:22:29Z</time>
      </trkpt>
      <trkpt lat="47.2666" lon="-1.44153">
        <ele>60</ele>
        <time>2022-08-07T09:22:31Z</time>
      </trkpt>
      <trkpt lat="47.26646" lon="-1.44169">
        <ele>60</ele>
        <time>2022-08-07T09:22:33Z</time>
      </trkpt>
      <trkpt lat="47.26633" lon="-1.44185">
        <ele>60</ele>
        <time>2022-08-07T09:22:35Z</time>
      </trkpt>
      <trkpt lat="47.2662" lon="-1.442">
        <ele>60</ele>
        <time>2022-08-07T09:22:37Z</time>
      </trkpt>
      <trkpt lat="47.26608" lon="-1.44216">
        <ele>59</ele>
        <time>2022-08-07T09:22:39Z</time>
      </trkpt>
      <trkpt lat="47.26595" lon="-1.44232">
        <ele>59</ele>
        <time>2022-08-07T09:22:41Z</time>
      </trkpt>
      <trkpt lat="47.26583" lon="-1.44249">
        <ele>59</ele>
        <time>2022-08-07T09:22:43Z</time>
      </trkpt>
      <trkpt lat="47.2657" lon="-1.44266">
        <ele>58</ele>
        <time>2022-08-07T09:22:45Z</time>
      </trkpt>
      <trkpt lat="47.26557" lon="-1.44283">
        <ele>58</ele>
        <time>2022-08-07T09:22:47Z</time>
      </trkpt>
      <trkpt lat="47.26544" lon="-1.443">
        <ele>58</ele>
        <time>2022-08-07T09:22:49Z</time>
      </trkpt>
      <trkpt lat="47.26532" lon="-1.44317">
        <ele>59</ele>
        <time>2022-08-07T09:22:51Z</time>
      </trkpt>
      <trkpt lat="47.2652" lon="-1.44333">
        <ele>59</ele>
        <time>2022-08-07T09:22:53Z</time>
      </trkpt>
      <trkpt lat="47.26508" lon="-1.4435">
        <ele>59</ele>
        <time>2022-08-07T09:22:55Z</time>
      </trkpt>
      <trkpt lat="47.26495" lon="-1.44365">
        <ele>60</ele>
        <time>2022-08-07T09:22:57Z</time>
      </trkpt>
      <trkpt lat="47.26482" lon="-1.44379">
        <ele>60</ele>
        <time>2022-08-07T09:22:59Z</time>
      </trkpt>
      <trkpt lat="47.26468" lon="-1.44393">
        <ele>61</ele>
        <time>2022-08-07T09:23:01Z</time>
      </trkpt>
      <trkpt lat="47.26454" lon="-1.44406">
        <ele>61</ele>
        <time>2022-08-07T09:23:03Z</time>
      </trkpt>
      <trkpt lat="47.26439" lon="-1.44419">
        <ele>61</ele>
        <time>2022-08-07T09:23:05Z</time>
      </trkpt>
      <trkpt lat="47.26424" lon="-1.44432">
        <ele>61</ele>
        <time>2022-08-07T09:23:07Z</time>
      </trkpt>
      <trkpt lat="47.26409" lon="-1.44445">
        <ele>61</ele>
        <time>2022-08-07T09:23:09Z</time>
      </trkpt>
      <trkpt lat="47.26394" lon="-1.44457">
        <ele>61</ele>
        <time>2022-08-07T09:23:11Z</time>
      </trkpt>
      <trkpt lat="47.26379" lon="-1.4447">
        <ele>61</ele>
        <time>2022-08-07T09:23:13Z</time>
      </trkpt>
      <trkpt lat="47.26365" lon="-1.44483">
        <ele>60</ele>
        <time>2022-08-07T09:23:15Z</time>
      </trkpt>
      <trkpt lat="47.2635" lon="-1.44497">
        <ele>60</ele>
        <time>2022-08-07T09:23:17Z</time>
      </trkpt>
      <trkpt lat="47.26336" lon="-1.4451">
        <ele>61</ele>
        <time>2022-08-07T09:23:19Z</time>
      </trkpt>
      <trkpt lat="47.26322" lon="-1.44524">
        <ele>61</ele>
        <time>2022-08-07T09:23:21Z</time>
      </trkpt>
      <trkpt lat="47.26308" lon="-1.44537">
        <ele>61</ele>
        <time>2022-08-07T09:23:23Z</time>
      </trkpt>
      <trkpt lat="47.26294" lon="-1.44551">
        <ele>61</ele>
        <time>2022-08-07T09:23:25Z</time>
      </trkpt>
      <trkpt lat="47.2628" lon="-1.44565">
        <ele>62</ele>
        <time>2022-08-07T09:23:27Z</time>
      </trkpt>
      <trkpt lat="47.26268" lon="-1.4458">
        <ele>61</ele>
        <time>2022-08-07T09:23:29Z</time>
      </trkpt>
      <trkpt lat="47.26258" lon="-1.446">
        <ele>62</ele>
        <time>2022-08-07T09:23:31Z</time>
      </trkpt>
      <trkpt lat="47.26249" lon="-1.44618">
        <ele>61</ele>
        <time>2022-08-07T09:23:33Z</time>
      </trkpt>
      <trkpt lat="47.26241" lon="-1.44636">
        <ele>61</ele>
        <time>2022-08-07T09:23:35Z</time>
      </trkpt>
      <trkpt lat="47.26235" lon="-1.44657">
        <ele>61</ele>
        <time>2022-08-07T09:23:37Z</time>
      </trkpt>
      <trkpt lat="47.26225" lon="-1.44673">
        <ele>60</ele>
        <time>2022-08-07T09:23:39Z</time>
      </trkpt>
      <trkpt lat="47.26209" lon="-1.44683">
        <ele>60</ele>
        <time>2022-08-07T09:23:41Z</time>
      </trkpt>
      <trkpt lat="47.26194" lon="-1.44697">
        <ele>59</ele>
        <time>2022-08-07T09:23:43Z</time>
      </trkpt>
      <trkpt lat="47.2618" lon="-1.44713">
        <ele>58</ele>
        <time>2022-08-07T09:23:45Z</time>
      </trkpt>
      <trkpt lat="47.26173" lon="-1.44722">
        <ele>59</ele>
        <time>2022-08-07T09:23:46Z</time>
      </trkpt>
      <trkpt lat="47.26166" lon="-1.44732">
        <ele>59</ele>
        <time>2022-08-07T09:23:47Z</time>
      </trkpt>
      <trkpt lat="47.26159" lon="-1.44742">
        <ele>58</ele>
        <time>2022-08-07T09:23:48Z</time>
      </trkpt>
      <trkpt lat="47.26153" lon="-1.44753">
        <ele>58</ele>
        <time>2022-08-07T09:23:49Z</time>
      </trkpt>
      <trkpt lat="47.26146" lon="-1.44764">
        <ele>58</ele>
        <time>2022-08-07T09:23:50Z</time>
      </trkpt>
      <trkpt lat="47.2614" lon="-1.44775">
        <ele>58</ele>
        <time>2022-08-07T09:23:51Z</time>
      </trkpt>
      <trkpt lat="47.26133" lon="-1.44785">
        <ele>58</ele>
        <time>2022-08-07T09:23:52Z</time>
      </trkpt>
      <trkpt lat="47.26127" lon="-1.44796">
        <ele>58</ele>
        <time>2022-08-07T09:23:53Z</time>
      </trkpt>
      <trkpt lat="47.2612" lon="-1.44807">
        <ele>58</ele>
        <time>2022-08-07T09:23:54Z</time>
      </trkpt>
      <trkpt lat="47.26113" lon="-1.44818">
        <ele>58</ele>
        <time>2022-08-07T09:23:55Z</time>
      </trkpt>
      <trkpt lat="47.26107" lon="-1.44828">
        <ele>58</ele>
        <time>2022-08-07T09:23:56Z</time>
      </trkpt>
      <trkpt lat="47.261" lon="-1.44839">
        <ele>58</ele>
        <time>2022-08-07T09:23:57Z</time>
      </trkpt>
      <trkpt lat="47.26093" lon="-1.4485">
        <ele>57</ele>
        <time>2022-08-07T09:23:58Z</time>
      </trkpt>
      <trkpt lat="47.26087" lon="-1.44861">
        <ele>57</ele>
        <time>2022-08-07T09:23:59Z</time>
      </trkpt>
      <trkpt lat="47.2608" lon="-1.44872">
        <ele>57</ele>
        <time>2022-08-07T09:24:00Z</time>
      </trkpt>
      <trkpt lat="47.26073" lon="-1.44883">
        <ele>57</ele>
        <time>2022-08-07T09:24:01Z</time>
      </trkpt>
      <trkpt lat="47.26067" lon="-1.44893">
        <ele>57</ele>
        <time>2022-08-07T09:24:02Z</time>
      </trkpt>
      <trkpt lat="47.26061" lon="-1.44904">
        <ele>57</ele>
        <time>2022-08-07T09:24:03Z</time>
      </trkpt>
      <trkpt lat="47.26054" lon="-1.44915">
        <ele>57</ele>
        <time>2022-08-07T09:24:04Z</time>
      </trkpt>
      <trkpt lat="47.26048" lon="-1.44925">
        <ele>57</ele>
        <time>2022-08-07T09:24:05Z</time>
      </trkpt>
      <trkpt lat="47.26041" lon="-1.44936">
        <ele>57</ele>
        <time>2022-08-07T09:24:06Z</time>
      </trkpt>
      <trkpt lat="47.26036" lon="-1.44948">
        <ele>57</ele>
        <time>2022-08-07T09:24:07Z</time>
      </trkpt>
      <trkpt lat="47.26028" lon="-1.44969">
        <ele>57</ele>
        <time>2022-08-07T09:24:09Z</time>
      </trkpt>
      <trkpt lat="47.26015" lon="-1.44985">
        <ele>57</ele>
        <time>2022-08-07T09:24:11Z</time>
      </trkpt>
      <trkpt lat="47.26008" lon="-1.44993">
        <ele>57</ele>
        <time>2022-08-07T09:24:12Z</time>
      </trkpt>
      <trkpt lat="47.26002" lon="-1.45004">
        <ele>56</ele>
        <time>2022-08-07T09:24:13Z</time>
      </trkpt>
      <trkpt lat="47.25996" lon="-1.45016">
        <ele>56</ele>
        <time>2022-08-07T09:24:14Z</time>
      </trkpt>
      <trkpt lat="47.2599" lon="-1.45028">
        <ele>56</ele>
        <time>2022-08-07T09:24:15Z</time>
      </trkpt>
      <trkpt lat="47.25983" lon="-1.4504">
        <ele>56</ele>
        <time>2022-08-07T09:24:16Z</time>
      </trkpt>
      <trkpt lat="47.25977" lon="-1.45052">
        <ele>56</ele>
        <time>2022-08-07T09:24:17Z</time>
      </trkpt>
      <trkpt lat="47.2597" lon="-1.45065">
        <ele>55</ele>
        <time>2022-08-07T09:24:18Z</time>
      </trkpt>
      <trkpt lat="47.25964" lon="-1.45079">
        <ele>56</ele>
        <time>2022-08-07T09:24:19Z</time>
      </trkpt>
      <trkpt lat="47.25958" lon="-1.45092">
        <ele>55</ele>
        <time>2022-08-07T09:24:20Z</time>
      </trkpt>
      <trkpt lat="47.25952" lon="-1.45106">
        <ele>55</ele>
        <time>2022-08-07T09:24:21Z</time>
      </trkpt>
      <trkpt lat="47.25946" lon="-1.4512">
        <ele>55</ele>
        <time>2022-08-07T09:24:22Z</time>
      </trkpt>
      <trkpt lat="47.2594" lon="-1.45135">
        <ele>55</ele>
        <time>2022-08-07T09:24:23Z</time>
      </trkpt>
      <trkpt lat="47.25934" lon="-1.45149">
        <ele>55</ele>
        <time>2022-08-07T09:24:24Z</time>
      </trkpt>
      <trkpt lat="47.25928" lon="-1.45164">
        <ele>55</ele>
        <time>2022-08-07T09:24:25Z</time>
      </trkpt>
      <trkpt lat="47.25923" lon="-1.45178">
        <ele>55</ele>
        <time>2022-08-07T09:24:26Z</time>
      </trkpt>
      <trkpt lat="47.25918" lon="-1.45193">
        <ele>55</ele>
        <time>2022-08-07T09:24:27Z</time>
      </trkpt>
      <trkpt lat="47.25912" lon="-1.45207">
        <ele>54</ele>
        <time>2022-08-07T09:24:28Z</time>
      </trkpt>
      <trkpt lat="47.25906" lon="-1.45222">
        <ele>54</ele>
        <time>2022-08-07T09:24:29Z</time>
      </trkpt>
      <trkpt lat="47.259" lon="-1.45237">
        <ele>54</ele>
        <time>2022-08-07T09:24:30Z</time>
      </trkpt>
      <trkpt lat="47.25895" lon="-1.45252">
        <ele>54</ele>
        <time>2022-08-07T09:24:31Z</time>
      </trkpt>
      <trkpt lat="47.25889" lon="-1.45267">
        <ele>54</ele>
        <time>2022-08-07T09:24:32Z</time>
      </trkpt>
      <trkpt lat="47.25884" lon="-1.45282">
        <ele>53</ele>
        <time>2022-08-07T09:24:33Z</time>
      </trkpt>
      <trkpt lat="47.25878" lon="-1.45297">
        <ele>53</ele>
        <time>2022-08-07T09:24:34Z</time>
      </trkpt>
      <trkpt lat="47.25873" lon="-1.45312">
        <ele>53</ele>
        <time>2022-08-07T09:24:35Z</time>
      </trkpt>
      <trkpt lat="47.25867" lon="-1.45327">
        <ele>53</ele>
        <time>2022-08-07T09:24:36Z</time>
      </trkpt>
      <trkpt lat="47.25862" lon="-1.45342">
        <ele>52</ele>
        <time>2022-08-07T09:24:37Z</time>
      </trkpt>
      <trkpt lat="47.25856" lon="-1.45356">
        <ele>52</ele>
        <time>2022-08-07T09:24:38Z</time>
      </trkpt>
      <trkpt lat="47.25851" lon="-1.4537">
        <ele>52</ele>
        <time>2022-08-07T09:24:39Z</time>
      </trkpt>
      <trkpt lat="47.25846" lon="-1.45384">
        <ele>52</ele>
        <time>2022-08-07T09:24:40Z</time>
      </trkpt>
      <trkpt lat="47.25841" lon="-1.45398">
        <ele>52</ele>
        <time>2022-08-07T09:24:41Z</time>
      </trkpt>
      <trkpt lat="47.25836" lon="-1.45412">
        <ele>52</ele>
        <time>2022-08-07T09:24:42Z</time>
      </trkpt>
      <trkpt lat="47.25832" lon="-1.45427">
        <ele>53</ele>
        <time>2022-08-07T09:24:43Z</time>
      </trkpt>
      <trkpt lat="47.25827" lon="-1.45441">
        <ele>53</ele>
        <time>2022-08-07T09:24:44Z</time>
      </trkpt>
      <trkpt lat="47.25823" lon="-1.45456">
        <ele>53</ele>
        <time>2022-08-07T09:24:45Z</time>
      </trkpt>
      <trkpt lat="47.2582" lon="-1.4547">
        <ele>53</ele>
        <time>2022-08-07T09:24:46Z</time>
      </trkpt>
      <trkpt lat="47.25817" lon="-1.45485">
        <ele>53</ele>
        <time>2022-08-07T09:24:47Z</time>
      </trkpt>
      <trkpt lat="47.25814" lon="-1.45499">
        <ele>54</ele>
        <time>2022-08-07T09:24:48Z</time>
      </trkpt>
      <trkpt lat="47.25813" lon="-1.45514">
        <ele>54</ele>
        <time>2022-08-07T09:24:49Z</time>
      </trkpt>
      <trkpt lat="47.25811" lon="-1.45529">
        <ele>54</ele>
        <time>2022-08-07T09:24:50Z</time>
      </trkpt>
      <trkpt lat="47.2581" lon="-1.45543">
        <ele>54</ele>
        <time>2022-08-07T09:24:51Z</time>
      </trkpt>
      <trkpt lat="47.25809" lon="-1.45558">
        <ele>54</ele>
        <time>2022-08-07T09:24:52Z</time>
      </trkpt>
      <trkpt lat="47.25809" lon="-1.45572">
        <ele>54</ele>
        <time>2022-08-07T09:24:53Z</time>
      </trkpt>
      <trkpt lat="47.25809" lon="-1.45586">
        <ele>54</ele>
        <time>2022-08-07T09:24:54Z</time>
      </trkpt>
      <trkpt lat="47.2581" lon="-1.45601">
        <ele>54</ele>
        <time>2022-08-07T09:24:55Z</time>
      </trkpt>
      <trkpt lat="47.25811" lon="-1.45615">
        <ele>54</ele>
        <time>2022-08-07T09:24:56Z</time>
      </trkpt>
      <trkpt lat="47.25812" lon="-1.45629">
        <ele>54</ele>
        <time>2022-08-07T09:24:57Z</time>
      </trkpt>
      <trkpt lat="47.25813" lon="-1.45643">
        <ele>55</ele>
        <time>2022-08-07T09:24:58Z</time>
      </trkpt>
      <trkpt lat="47.25815" lon="-1.45656">
        <ele>55</ele>
        <time>2022-08-07T09:24:59Z</time>
      </trkpt>
      <trkpt lat="47.25816" lon="-1.4567">
        <ele>55</ele>
        <time>2022-08-07T09:25:00Z</time>
      </trkpt>
      <trkpt lat="47.25818" lon="-1.45683">
        <ele>55</ele>
        <time>2022-08-07T09:25:01Z</time>
      </trkpt>
      <trkpt lat="47.25819" lon="-1.45697">
        <ele>55</ele>
        <time>2022-08-07T09:25:02Z</time>
      </trkpt>
      <trkpt lat="47.25822" lon="-1.45723">
        <ele>56</ele>
        <time>2022-08-07T09:25:04Z</time>
      </trkpt>
      <trkpt lat="47.25824" lon="-1.45749">
        <ele>56</ele>
        <time>2022-08-07T09:25:06Z</time>
      </trkpt>
      <trkpt lat="47.25824" lon="-1.45762">
        <ele>56</ele>
        <time>2022-08-07T09:25:07Z</time>
      </trkpt>
      <trkpt lat="47.25823" lon="-1.45788">
        <ele>57</ele>
        <time>2022-08-07T09:25:09Z</time>
      </trkpt>
      <trkpt lat="47.25822" lon="-1.45814">
        <ele>57</ele>
        <time>2022-08-07T09:25:11Z</time>
      </trkpt>
      <trkpt lat="47.2582" lon="-1.4584">
        <ele>57</ele>
        <time>2022-08-07T09:25:13Z</time>
      </trkpt>
      <trkpt lat="47.25819" lon="-1.45853">
        <ele>58</ele>
        <time>2022-08-07T09:25:14Z</time>
      </trkpt>
      <trkpt lat="47.25817" lon="-1.45879">
        <ele>58</ele>
        <time>2022-08-07T09:25:16Z</time>
      </trkpt>
      <trkpt lat="47.25815" lon="-1.45905">
        <ele>58</ele>
        <time>2022-08-07T09:25:18Z</time>
      </trkpt>
      <trkpt lat="47.25813" lon="-1.4593">
        <ele>58</ele>
        <time>2022-08-07T09:25:20Z</time>
      </trkpt>
      <trkpt lat="47.25811" lon="-1.45955">
        <ele>59</ele>
        <time>2022-08-07T09:25:22Z</time>
      </trkpt>
      <trkpt lat="47.2581" lon="-1.4598">
        <ele>59</ele>
        <time>2022-08-07T09:25:24Z</time>
      </trkpt>
      <trkpt lat="47.25808" lon="-1.46005">
        <ele>59</ele>
        <time>2022-08-07T09:25:26Z</time>
      </trkpt>
      <trkpt lat="47.25806" lon="-1.46031">
        <ele>59</ele>
        <time>2022-08-07T09:25:28Z</time>
      </trkpt>
      <trkpt lat="47.25804" lon="-1.46057">
        <ele>59</ele>
        <time>2022-08-07T09:25:30Z</time>
      </trkpt>
      <trkpt lat="47.25802" lon="-1.46082">
        <ele>59</ele>
        <time>2022-08-07T09:25:32Z</time>
      </trkpt>
      <trkpt lat="47.258" lon="-1.46107">
        <ele>60</ele>
        <time>2022-08-07T09:25:34Z</time>
      </trkpt>
      <trkpt lat="47.25798" lon="-1.46133">
        <ele>60</ele>
        <time>2022-08-07T09:25:36Z</time>
      </trkpt>
      <trkpt lat="47.25796" lon="-1.46158">
        <ele>60</ele>
        <time>2022-08-07T09:25:38Z</time>
      </trkpt>
      <trkpt lat="47.25795" lon="-1.46172">
        <ele>60</ele>
        <time>2022-08-07T09:25:39Z</time>
      </trkpt>
      <trkpt lat="47.25795" lon="-1.46198">
        <ele>60</ele>
        <time>2022-08-07T09:25:41Z</time>
      </trkpt>
      <trkpt lat="47.25793" lon="-1.46224">
        <ele>60</ele>
        <time>2022-08-07T09:25:43Z</time>
      </trkpt>
      <trkpt lat="47.25791" lon="-1.46238">
        <ele>60</ele>
        <time>2022-08-07T09:25:44Z</time>
      </trkpt>
      <trkpt lat="47.2579" lon="-1.46251">
        <ele>60</ele>
        <time>2022-08-07T09:25:45Z</time>
      </trkpt>
      <trkpt lat="47.25787" lon="-1.46278">
        <ele>60</ele>
        <time>2022-08-07T09:25:47Z</time>
      </trkpt>
      <trkpt lat="47.25784" lon="-1.46305">
        <ele>60</ele>
        <time>2022-08-07T09:25:49Z</time>
      </trkpt>
      <trkpt lat="47.2578" lon="-1.46331">
        <ele>61</ele>
        <time>2022-08-07T09:25:51Z</time>
      </trkpt>
      <trkpt lat="47.25778" lon="-1.46344">
        <ele>61</ele>
        <time>2022-08-07T09:25:52Z</time>
      </trkpt>
      <trkpt lat="47.25772" lon="-1.4637">
        <ele>61</ele>
        <time>2022-08-07T09:25:54Z</time>
      </trkpt>
      <trkpt lat="47.25769" lon="-1.46382">
        <ele>61</ele>
        <time>2022-08-07T09:25:55Z</time>
      </trkpt>
      <trkpt lat="47.25763" lon="-1.46408">
        <ele>61</ele>
        <time>2022-08-07T09:25:57Z</time>
      </trkpt>
      <trkpt lat="47.25757" lon="-1.46433">
        <ele>61</ele>
        <time>2022-08-07T09:25:59Z</time>
      </trkpt>
      <trkpt lat="47.25752" lon="-1.46458">
        <ele>61</ele>
        <time>2022-08-07T09:26:01Z</time>
      </trkpt>
      <trkpt lat="47.25749" lon="-1.46471">
        <ele>61</ele>
        <time>2022-08-07T09:26:02Z</time>
      </trkpt>
      <trkpt lat="47.25743" lon="-1.46495">
        <ele>61</ele>
        <time>2022-08-07T09:26:04Z</time>
      </trkpt>
      <trkpt lat="47.25737" lon="-1.4652">
        <ele>61</ele>
        <time>2022-08-07T09:26:06Z</time>
      </trkpt>
      <trkpt lat="47.25731" lon="-1.46545">
        <ele>61</ele>
        <time>2022-08-07T09:26:08Z</time>
      </trkpt>
      <trkpt lat="47.25726" lon="-1.4657">
        <ele>61</ele>
        <time>2022-08-07T09:26:10Z</time>
      </trkpt>
      <trkpt lat="47.25721" lon="-1.46595">
        <ele>61</ele>
        <time>2022-08-07T09:26:12Z</time>
      </trkpt>
      <trkpt lat="47.25715" lon="-1.4662">
        <ele>61</ele>
        <time>2022-08-07T09:26:14Z</time>
      </trkpt>
      <trkpt lat="47.25712" lon="-1.46632">
        <ele>61</ele>
        <time>2022-08-07T09:26:15Z</time>
      </trkpt>
      <trkpt lat="47.25706" lon="-1.46657">
        <ele>60</ele>
        <time>2022-08-07T09:26:17Z</time>
      </trkpt>
      <trkpt lat="47.257" lon="-1.46681">
        <ele>61</ele>
        <time>2022-08-07T09:26:19Z</time>
      </trkpt>
      <trkpt lat="47.25694" lon="-1.46706">
        <ele>61</ele>
        <time>2022-08-07T09:26:21Z</time>
      </trkpt>
      <trkpt lat="47.25689" lon="-1.46729">
        <ele>61</ele>
        <time>2022-08-07T09:26:23Z</time>
      </trkpt>
      <trkpt lat="47.25683" lon="-1.46753">
        <ele>62</ele>
        <time>2022-08-07T09:26:25Z</time>
      </trkpt>
      <trkpt lat="47.25678" lon="-1.46776">
        <ele>62</ele>
        <time>2022-08-07T09:26:27Z</time>
      </trkpt>
      <trkpt lat="47.25672" lon="-1.468">
        <ele>63</ele>
        <time>2022-08-07T09:26:29Z</time>
      </trkpt>
      <trkpt lat="47.25667" lon="-1.46824">
        <ele>64</ele>
        <time>2022-08-07T09:26:31Z</time>
      </trkpt>
      <trkpt lat="47.25661" lon="-1.46846">
        <ele>64</ele>
        <time>2022-08-07T09:26:33Z</time>
      </trkpt>
      <trkpt lat="47.25656" lon="-1.46871">
        <ele>64</ele>
        <time>2022-08-07T09:26:35Z</time>
      </trkpt>
      <trkpt lat="47.25649" lon="-1.46893">
        <ele>64</ele>
        <time>2022-08-07T09:26:37Z</time>
      </trkpt>
      <trkpt lat="47.25639" lon="-1.46915">
        <ele>64</ele>
        <time>2022-08-07T09:26:39Z</time>
      </trkpt>
      <trkpt lat="47.25631" lon="-1.46937">
        <ele>64</ele>
        <time>2022-08-07T09:26:41Z</time>
      </trkpt>
      <trkpt lat="47.25623" lon="-1.4696">
        <ele>64</ele>
        <time>2022-08-07T09:26:43Z</time>
      </trkpt>
      <trkpt lat="47.25614" lon="-1.46982">
        <ele>64</ele>
        <time>2022-08-07T09:26:45Z</time>
      </trkpt>
      <trkpt lat="47.25606" lon="-1.47005">
        <ele>64</ele>
        <time>2022-08-07T09:26:47Z</time>
      </trkpt>
      <trkpt lat="47.25601" lon="-1.47017">
        <ele>64</ele>
        <time>2022-08-07T09:26:48Z</time>
      </trkpt>
      <trkpt lat="47.25593" lon="-1.4704">
        <ele>64</ele>
        <time>2022-08-07T09:26:50Z</time>
      </trkpt>
      <trkpt lat="47.25589" lon="-1.47051">
        <ele>64</ele>
        <time>2022-08-07T09:26:51Z</time>
      </trkpt>
      <trkpt lat="47.25584" lon="-1.47063">
        <ele>63</ele>
        <time>2022-08-07T09:26:52Z</time>
      </trkpt>
      <trkpt lat="47.2558" lon="-1.47075">
        <ele>63</ele>
        <time>2022-08-07T09:26:53Z</time>
      </trkpt>
      <trkpt lat="47.25575" lon="-1.47086">
        <ele>63</ele>
        <time>2022-08-07T09:26:54Z</time>
      </trkpt>
      <trkpt lat="47.2557" lon="-1.47098">
        <ele>63</ele>
        <time>2022-08-07T09:26:55Z</time>
      </trkpt>
      <trkpt lat="47.25565" lon="-1.47109">
        <ele>63</ele>
        <time>2022-08-07T09:26:56Z</time>
      </trkpt>
      <trkpt lat="47.25559" lon="-1.4712">
        <ele>63</ele>
        <time>2022-08-07T09:26:57Z</time>
      </trkpt>
      <trkpt lat="47.25553" lon="-1.4713">
        <ele>63</ele>
        <time>2022-08-07T09:26:58Z</time>
      </trkpt>
      <trkpt lat="47.25547" lon="-1.47141">
        <ele>63</ele>
        <time>2022-08-07T09:26:59Z</time>
      </trkpt>
      <trkpt lat="47.25541" lon="-1.47151">
        <ele>62</ele>
        <time>2022-08-07T09:27:00Z</time>
      </trkpt>
      <trkpt lat="47.25534" lon="-1.47161">
        <ele>62</ele>
        <time>2022-08-07T09:27:01Z</time>
      </trkpt>
      <trkpt lat="47.25527" lon="-1.47171">
        <ele>62</ele>
        <time>2022-08-07T09:27:02Z</time>
      </trkpt>
      <trkpt lat="47.2552" lon="-1.4718">
        <ele>62</ele>
        <time>2022-08-07T09:27:03Z</time>
      </trkpt>
      <trkpt lat="47.25513" lon="-1.47189">
        <ele>62</ele>
        <time>2022-08-07T09:27:04Z</time>
      </trkpt>
      <trkpt lat="47.25502" lon="-1.47204">
        <ele>62</ele>
        <time>2022-08-07T09:27:06Z</time>
      </trkpt>
      <trkpt lat="47.25496" lon="-1.47214">
        <ele>62</ele>
        <time>2022-08-07T09:27:09Z</time>
      </trkpt>
      <trkpt lat="47.25492" lon="-1.47227">
        <ele>62</ele>
        <time>2022-08-07T09:27:12Z</time>
      </trkpt>
      <trkpt lat="47.25485" lon="-1.47237">
        <ele>62</ele>
        <time>2022-08-07T09:27:14Z</time>
      </trkpt>
      <trkpt lat="47.25475" lon="-1.47249">
        <ele>62</ele>
        <time>2022-08-07T09:27:16Z</time>
      </trkpt>
      <trkpt lat="47.25464" lon="-1.47265">
        <ele>62</ele>
        <time>2022-08-07T09:27:18Z</time>
      </trkpt>
      <trkpt lat="47.25452" lon="-1.47283">
        <ele>62</ele>
        <time>2022-08-07T09:27:20Z</time>
      </trkpt>
      <trkpt lat="47.2544" lon="-1.47302">
        <ele>62</ele>
        <time>2022-08-07T09:27:22Z</time>
      </trkpt>
      <trkpt lat="47.25434" lon="-1.47312">
        <ele>61</ele>
        <time>2022-08-07T09:27:23Z</time>
      </trkpt>
      <trkpt lat="47.25428" lon="-1.47322">
        <ele>61</ele>
        <time>2022-08-07T09:27:24Z</time>
      </trkpt>
      <trkpt lat="47.25422" lon="-1.47333">
        <ele>62</ele>
        <time>2022-08-07T09:27:25Z</time>
      </trkpt>
      <trkpt lat="47.25417" lon="-1.47343">
        <ele>62</ele>
        <time>2022-08-07T09:27:26Z</time>
      </trkpt>
      <trkpt lat="47.25411" lon="-1.47354">
        <ele>62</ele>
        <time>2022-08-07T09:27:27Z</time>
      </trkpt>
      <trkpt lat="47.25406" lon="-1.47365">
        <ele>62</ele>
        <time>2022-08-07T09:27:28Z</time>
      </trkpt>
      <trkpt lat="47.254" lon="-1.47376">
        <ele>62</ele>
        <time>2022-08-07T09:27:29Z</time>
      </trkpt>
      <trkpt lat="47.25391" lon="-1.47398">
        <ele>62</ele>
        <time>2022-08-07T09:27:31Z</time>
      </trkpt>
      <trkpt lat="47.25386" lon="-1.4741">
        <ele>61</ele>
        <time>2022-08-07T09:27:32Z</time>
      </trkpt>
      <trkpt lat="47.25381" lon="-1.47422">
        <ele>61</ele>
        <time>2022-08-07T09:27:33Z</time>
      </trkpt>
      <trkpt lat="47.25377" lon="-1.47434">
        <ele>61</ele>
        <time>2022-08-07T09:27:34Z</time>
      </trkpt>
      <trkpt lat="47.25369" lon="-1.47457">
        <ele>61</ele>
        <time>2022-08-07T09:27:36Z</time>
      </trkpt>
      <trkpt lat="47.25361" lon="-1.47479">
        <ele>60</ele>
        <time>2022-08-07T09:27:38Z</time>
      </trkpt>
      <trkpt lat="47.25354" lon="-1.47501">
        <ele>60</ele>
        <time>2022-08-07T09:27:40Z</time>
      </trkpt>
      <trkpt lat="47.25348" lon="-1.47521">
        <ele>60</ele>
        <time>2022-08-07T09:27:42Z</time>
      </trkpt>
      <trkpt lat="47.25346" lon="-1.47542">
        <ele>61</ele>
        <time>2022-08-07T09:27:44Z</time>
      </trkpt>
      <trkpt lat="47.25348" lon="-1.47563">
        <ele>60</ele>
        <time>2022-08-07T09:27:46Z</time>
      </trkpt>
      <trkpt lat="47.25341" lon="-1.47582">
        <ele>60</ele>
        <time>2022-08-07T09:27:48Z</time>
      </trkpt>
      <trkpt lat="47.25328" lon="-1.47595">
        <ele>60</ele>
        <time>2022-08-07T09:27:50Z</time>
      </trkpt>
      <trkpt lat="47.25317" lon="-1.47615">
        <ele>59</ele>
        <time>2022-08-07T09:27:52Z</time>
      </trkpt>
      <trkpt lat="47.25307" lon="-1.47635">
        <ele>59</ele>
        <time>2022-08-07T09:27:54Z</time>
      </trkpt>
      <trkpt lat="47.25296" lon="-1.47656">
        <ele>60</ele>
        <time>2022-08-07T09:27:56Z</time>
      </trkpt>
      <trkpt lat="47.2529" lon="-1.47666">
        <ele>60</ele>
        <time>2022-08-07T09:27:57Z</time>
      </trkpt>
      <trkpt lat="47.25284" lon="-1.47676">
        <ele>60</ele>
        <time>2022-08-07T09:27:58Z</time>
      </trkpt>
      <trkpt lat="47.25272" lon="-1.47696">
        <ele>61</ele>
        <time>2022-08-07T09:28:00Z</time>
      </trkpt>
      <trkpt lat="47.25261" lon="-1.47714">
        <ele>61</ele>
        <time>2022-08-07T09:28:02Z</time>
      </trkpt>
      <trkpt lat="47.2525" lon="-1.47731">
        <ele>61</ele>
        <time>2022-08-07T09:28:04Z</time>
      </trkpt>
      <trkpt lat="47.25239" lon="-1.47747">
        <ele>61</ele>
        <time>2022-08-07T09:28:06Z</time>
      </trkpt>
      <trkpt lat="47.25229" lon="-1.47763">
        <ele>61</ele>
        <time>2022-08-07T09:28:08Z</time>
      </trkpt>
      <trkpt lat="47.25219" lon="-1.47784">
        <ele>61</ele>
        <time>2022-08-07T09:28:10Z</time>
      </trkpt>
      <trkpt lat="47.25215" lon="-1.4781">
        <ele>60</ele>
        <time>2022-08-07T09:28:12Z</time>
      </trkpt>
      <trkpt lat="47.25214" lon="-1.47823">
        <ele>60</ele>
        <time>2022-08-07T09:28:13Z</time>
      </trkpt>
      <trkpt lat="47.25201" lon="-1.47839">
        <ele>60</ele>
        <time>2022-08-07T09:28:15Z</time>
      </trkpt>
      <trkpt lat="47.25184" lon="-1.47841">
        <ele>60</ele>
        <time>2022-08-07T09:28:17Z</time>
      </trkpt>
      <trkpt lat="47.25176" lon="-1.47849">
        <ele>60</ele>
        <time>2022-08-07T09:28:18Z</time>
      </trkpt>
      <trkpt lat="47.2517" lon="-1.47858">
        <ele>60</ele>
        <time>2022-08-07T09:28:19Z</time>
      </trkpt>
      <trkpt lat="47.25163" lon="-1.47868">
        <ele>59</ele>
        <time>2022-08-07T09:28:20Z</time>
      </trkpt>
      <trkpt lat="47.25157" lon="-1.47879">
        <ele>59</ele>
        <time>2022-08-07T09:28:21Z</time>
      </trkpt>
      <trkpt lat="47.25151" lon="-1.4789">
        <ele>59</ele>
        <time>2022-08-07T09:28:22Z</time>
      </trkpt>
      <trkpt lat="47.25146" lon="-1.47902">
        <ele>59</ele>
        <time>2022-08-07T09:28:23Z</time>
      </trkpt>
      <trkpt lat="47.25141" lon="-1.47914">
        <ele>59</ele>
        <time>2022-08-07T09:28:24Z</time>
      </trkpt>
      <trkpt lat="47.25136" lon="-1.47926">
        <ele>59</ele>
        <time>2022-08-07T09:28:25Z</time>
      </trkpt>
      <trkpt lat="47.25132" lon="-1.47939">
        <ele>58</ele>
        <time>2022-08-07T09:28:26Z</time>
      </trkpt>
      <trkpt lat="47.25127" lon="-1.47953">
        <ele>58</ele>
        <time>2022-08-07T09:28:27Z</time>
      </trkpt>
      <trkpt lat="47.25124" lon="-1.47966">
        <ele>58</ele>
        <time>2022-08-07T09:28:28Z</time>
      </trkpt>
      <trkpt lat="47.25121" lon="-1.47979">
        <ele>58</ele>
        <time>2022-08-07T09:28:29Z</time>
      </trkpt>
      <trkpt lat="47.25118" lon="-1.47992">
        <ele>58</ele>
        <time>2022-08-07T09:28:30Z</time>
      </trkpt>
      <trkpt lat="47.25116" lon="-1.48006">
        <ele>58</ele>
        <time>2022-08-07T09:28:31Z</time>
      </trkpt>
      <trkpt lat="47.25114" lon="-1.4802">
        <ele>58</ele>
        <time>2022-08-07T09:28:32Z</time>
      </trkpt>
      <trkpt lat="47.25112" lon="-1.48034">
        <ele>59</ele>
        <time>2022-08-07T09:28:33Z</time>
      </trkpt>
      <trkpt lat="47.25109" lon="-1.48048">
        <ele>59</ele>
        <time>2022-08-07T09:28:34Z</time>
      </trkpt>
      <trkpt lat="47.25107" lon="-1.48062">
        <ele>59</ele>
        <time>2022-08-07T09:28:35Z</time>
      </trkpt>
      <trkpt lat="47.25104" lon="-1.48075">
        <ele>59</ele>
        <time>2022-08-07T09:28:36Z</time>
      </trkpt>
      <trkpt lat="47.25103" lon="-1.48089">
        <ele>59</ele>
        <time>2022-08-07T09:28:37Z</time>
      </trkpt>
      <trkpt lat="47.25103" lon="-1.48102">
        <ele>59</ele>
        <time>2022-08-07T09:28:38Z</time>
      </trkpt>
      <trkpt lat="47.25103" lon="-1.48116">
        <ele>59</ele>
        <time>2022-08-07T09:28:39Z</time>
      </trkpt>
      <trkpt lat="47.25103" lon="-1.4813">
        <ele>59</ele>
        <time>2022-08-07T09:28:40Z</time>
      </trkpt>
      <trkpt lat="47.25102" lon="-1.48143">
        <ele>59</ele>
        <time>2022-08-07T09:28:41Z</time>
      </trkpt>
      <trkpt lat="47.25102" lon="-1.48157">
        <ele>59</ele>
        <time>2022-08-07T09:28:42Z</time>
      </trkpt>
      <trkpt lat="47.25102" lon="-1.48171">
        <ele>59</ele>
        <time>2022-08-07T09:28:43Z</time>
      </trkpt>
      <trkpt lat="47.25101" lon="-1.48197">
        <ele>58</ele>
        <time>2022-08-07T09:28:45Z</time>
      </trkpt>
      <trkpt lat="47.25101" lon="-1.48223">
        <ele>58</ele>
        <time>2022-08-07T09:28:47Z</time>
      </trkpt>
      <trkpt lat="47.251" lon="-1.48236">
        <ele>58</ele>
        <time>2022-08-07T09:28:48Z</time>
      </trkpt>
      <trkpt lat="47.25099" lon="-1.48262">
        <ele>58</ele>
        <time>2022-08-07T09:28:50Z</time>
      </trkpt>
      <trkpt lat="47.25096" lon="-1.48287">
        <ele>59</ele>
        <time>2022-08-07T09:28:52Z</time>
      </trkpt>
      <trkpt lat="47.25097" lon="-1.48311">
        <ele>59</ele>
        <time>2022-08-07T09:28:54Z</time>
      </trkpt>
      <trkpt lat="47.25096" lon="-1.48335">
        <ele>59</ele>
        <time>2022-08-07T09:28:56Z</time>
      </trkpt>
      <trkpt lat="47.25095" lon="-1.48356">
        <ele>59</ele>
        <time>2022-08-07T09:28:58Z</time>
      </trkpt>
      <trkpt lat="47.2509" lon="-1.48376">
        <ele>59</ele>
        <time>2022-08-07T09:29:00Z</time>
      </trkpt>
      <trkpt lat="47.25083" lon="-1.48394">
        <ele>59</ele>
        <time>2022-08-07T09:29:02Z</time>
      </trkpt>
      <trkpt lat="47.25077" lon="-1.48411">
        <ele>60</ele>
        <time>2022-08-07T09:29:04Z</time>
      </trkpt>
      <trkpt lat="47.2507" lon="-1.48427">
        <ele>59</ele>
        <time>2022-08-07T09:29:06Z</time>
      </trkpt>
      <trkpt lat="47.25063" lon="-1.48442">
        <ele>59</ele>
        <time>2022-08-07T09:29:08Z</time>
      </trkpt>
      <trkpt lat="47.25057" lon="-1.48456">
        <ele>59</ele>
        <time>2022-08-07T09:29:10Z</time>
      </trkpt>
      <trkpt lat="47.25052" lon="-1.48469">
        <ele>60</ele>
        <time>2022-08-07T09:29:12Z</time>
      </trkpt>
      <trkpt lat="47.25046" lon="-1.48482">
        <ele>60</ele>
        <time>2022-08-07T09:29:14Z</time>
      </trkpt>
      <trkpt lat="47.25041" lon="-1.48495">
        <ele>61</ele>
        <time>2022-08-07T09:29:16Z</time>
      </trkpt>
      <trkpt lat="47.25035" lon="-1.48508">
        <ele>61</ele>
        <time>2022-08-07T09:29:18Z</time>
      </trkpt>
      <trkpt lat="47.2503" lon="-1.4852">
        <ele>61</ele>
        <time>2022-08-07T09:29:20Z</time>
      </trkpt>
      <trkpt lat="47.25024" lon="-1.48532">
        <ele>62</ele>
        <time>2022-08-07T09:29:22Z</time>
      </trkpt>
      <trkpt lat="47.25019" lon="-1.48545">
        <ele>62</ele>
        <time>2022-08-07T09:29:24Z</time>
      </trkpt>
      <trkpt lat="47.25014" lon="-1.48558">
        <ele>62</ele>
        <time>2022-08-07T09:29:26Z</time>
      </trkpt>
      <trkpt lat="47.25008" lon="-1.48571">
        <ele>62</ele>
        <time>2022-08-07T09:29:28Z</time>
      </trkpt>
      <trkpt lat="47.25002" lon="-1.48585">
        <ele>62</ele>
        <time>2022-08-07T09:29:30Z</time>
      </trkpt>
      <trkpt lat="47.24996" lon="-1.486">
        <ele>63</ele>
        <time>2022-08-07T09:29:32Z</time>
      </trkpt>
      <trkpt lat="47.24991" lon="-1.48612">
        <ele>63</ele>
        <time>2022-08-07T09:29:34Z</time>
      </trkpt>
      <trkpt lat="47.24986" lon="-1.48623">
        <ele>63</ele>
        <time>2022-08-07T09:29:36Z</time>
      </trkpt>
      <trkpt lat="47.2498" lon="-1.48638">
        <ele>63</ele>
        <time>2022-08-07T09:29:40Z</time>
      </trkpt>
      <trkpt lat="47.24973" lon="-1.48649">
        <ele>64</ele>
        <time>2022-08-07T09:29:46Z</time>
      </trkpt>
      <trkpt lat="47.24966" lon="-1.48665">
        <ele>64</ele>
        <time>2022-08-07T09:29:49Z</time>
      </trkpt>
      <trkpt lat="47.24962" lon="-1.4868">
        <ele>64</ele>
        <time>2022-08-07T09:29:51Z</time>
      </trkpt>
      <trkpt lat="47.24959" lon="-1.48696">
        <ele>64</ele>
        <time>2022-08-07T09:29:53Z</time>
      </trkpt>
      <trkpt lat="47.24945" lon="-1.48697">
        <ele>63</ele>
        <time>2022-08-07T09:29:56Z</time>
      </trkpt>
      <trkpt lat="47.24935" lon="-1.48688">
        <ele>63</ele>
        <time>2022-08-07T09:29:58Z</time>
      </trkpt>
      <trkpt lat="47.24922" lon="-1.48683">
        <ele>64</ele>
        <time>2022-08-07T09:30:00Z</time>
      </trkpt>
      <trkpt lat="47.24907" lon="-1.48677">
        <ele>64</ele>
        <time>2022-08-07T09:30:02Z</time>
      </trkpt>
      <trkpt lat="47.24892" lon="-1.48673">
        <ele>63</ele>
        <time>2022-08-07T09:30:04Z</time>
      </trkpt>
      <trkpt lat="47.24877" lon="-1.48669">
        <ele>63</ele>
        <time>2022-08-07T09:30:06Z</time>
      </trkpt>
      <trkpt lat="47.24863" lon="-1.4867">
        <ele>61</ele>
        <time>2022-08-07T09:30:08Z</time>
      </trkpt>
      <trkpt lat="47.24849" lon="-1.48663">
        <ele>60</ele>
        <time>2022-08-07T09:30:10Z</time>
      </trkpt>
      <trkpt lat="47.24835" lon="-1.4866">
        <ele>59</ele>
        <time>2022-08-07T09:30:12Z</time>
      </trkpt>
      <trkpt lat="47.24818" lon="-1.4866">
        <ele>59</ele>
        <time>2022-08-07T09:30:14Z</time>
      </trkpt>
      <trkpt lat="47.24802" lon="-1.48659">
        <ele>59</ele>
        <time>2022-08-07T09:30:16Z</time>
      </trkpt>
      <trkpt lat="47.24788" lon="-1.48658">
        <ele>58</ele>
        <time>2022-08-07T09:30:18Z</time>
      </trkpt>
      <trkpt lat="47.24772" lon="-1.48656">
        <ele>57</ele>
        <time>2022-08-07T09:30:20Z</time>
      </trkpt>
      <trkpt lat="47.24755" lon="-1.48653">
        <ele>56</ele>
        <time>2022-08-07T09:30:22Z</time>
      </trkpt>
      <trkpt lat="47.24739" lon="-1.48648">
        <ele>56</ele>
        <time>2022-08-07T09:30:24Z</time>
      </trkpt>
      <trkpt lat="47.24724" lon="-1.48637">
        <ele>55</ele>
        <time>2022-08-07T09:30:26Z</time>
      </trkpt>
      <trkpt lat="47.24716" lon="-1.4863">
        <ele>55</ele>
        <time>2022-08-07T09:30:27Z</time>
      </trkpt>
      <trkpt lat="47.24701" lon="-1.48617">
        <ele>54</ele>
        <time>2022-08-07T09:30:29Z</time>
      </trkpt>
      <trkpt lat="47.24687" lon="-1.48603">
        <ele>54</ele>
        <time>2022-08-07T09:30:31Z</time>
      </trkpt>
      <trkpt lat="47.24671" lon="-1.48589">
        <ele>53</ele>
        <time>2022-08-07T09:30:33Z</time>
      </trkpt>
      <trkpt lat="47.24663" lon="-1.48582">
        <ele>53</ele>
        <time>2022-08-07T09:30:34Z</time>
      </trkpt>
      <trkpt lat="47.24648" lon="-1.48568">
        <ele>53</ele>
        <time>2022-08-07T09:30:36Z</time>
      </trkpt>
      <trkpt lat="47.24633" lon="-1.48552">
        <ele>53</ele>
        <time>2022-08-07T09:30:38Z</time>
      </trkpt>
      <trkpt lat="47.24626" lon="-1.48544">
        <ele>53</ele>
        <time>2022-08-07T09:30:39Z</time>
      </trkpt>
      <trkpt lat="47.24618" lon="-1.48535">
        <ele>52</ele>
        <time>2022-08-07T09:30:40Z</time>
      </trkpt>
      <trkpt lat="47.24611" lon="-1.48526">
        <ele>52</ele>
        <time>2022-08-07T09:30:41Z</time>
      </trkpt>
      <trkpt lat="47.24604" lon="-1.48518">
        <ele>53</ele>
        <time>2022-08-07T09:30:42Z</time>
      </trkpt>
      <trkpt lat="47.2459" lon="-1.48501">
        <ele>53</ele>
        <time>2022-08-07T09:30:44Z</time>
      </trkpt>
      <trkpt lat="47.24577" lon="-1.48485">
        <ele>53</ele>
        <time>2022-08-07T09:30:46Z</time>
      </trkpt>
      <trkpt lat="47.24563" lon="-1.48469">
        <ele>53</ele>
        <time>2022-08-07T09:30:48Z</time>
      </trkpt>
      <trkpt lat="47.2455" lon="-1.48454">
        <ele>53</ele>
        <time>2022-08-07T09:30:50Z</time>
      </trkpt>
      <trkpt lat="47.24536" lon="-1.48439">
        <ele>52</ele>
        <time>2022-08-07T09:30:52Z</time>
      </trkpt>
      <trkpt lat="47.24523" lon="-1.48425">
        <ele>52</ele>
        <time>2022-08-07T09:30:54Z</time>
      </trkpt>
      <trkpt lat="47.24508" lon="-1.48413">
        <ele>52</ele>
        <time>2022-08-07T09:30:56Z</time>
      </trkpt>
      <trkpt lat="47.24493" lon="-1.48403">
        <ele>52</ele>
        <time>2022-08-07T09:30:58Z</time>
      </trkpt>
      <trkpt lat="47.24479" lon="-1.48395">
        <ele>53</ele>
        <time>2022-08-07T09:31:00Z</time>
      </trkpt>
      <trkpt lat="47.24464" lon="-1.48388">
        <ele>53</ele>
        <time>2022-08-07T09:31:02Z</time>
      </trkpt>
      <trkpt lat="47.24449" lon="-1.4838">
        <ele>53</ele>
        <time>2022-08-07T09:31:04Z</time>
      </trkpt>
      <trkpt lat="47.24434" lon="-1.48372">
        <ele>53</ele>
        <time>2022-08-07T09:31:06Z</time>
      </trkpt>
      <trkpt lat="47.2442" lon="-1.48364">
        <ele>53</ele>
        <time>2022-08-07T09:31:08Z</time>
      </trkpt>
      <trkpt lat="47.24406" lon="-1.48353">
        <ele>53</ele>
        <time>2022-08-07T09:31:10Z</time>
      </trkpt>
      <trkpt lat="47.24393" lon="-1.48338">
        <ele>53</ele>
        <time>2022-08-07T09:31:12Z</time>
      </trkpt>
      <trkpt lat="47.24382" lon="-1.48322">
        <ele>53</ele>
        <time>2022-08-07T09:31:14Z</time>
      </trkpt>
      <trkpt lat="47.24371" lon="-1.48307">
        <ele>53</ele>
        <time>2022-08-07T09:31:16Z</time>
      </trkpt>
      <trkpt lat="47.24359" lon="-1.48294">
        <ele>53</ele>
        <time>2022-08-07T09:31:18Z</time>
      </trkpt>
      <trkpt lat="47.24346" lon="-1.48285">
        <ele>53</ele>
        <time>2022-08-07T09:31:20Z</time>
      </trkpt>
      <trkpt lat="47.24334" lon="-1.48275">
        <ele>53</ele>
        <time>2022-08-07T09:31:22Z</time>
      </trkpt>
      <trkpt lat="47.24324" lon="-1.48258">
        <ele>53</ele>
        <time>2022-08-07T09:31:24Z</time>
      </trkpt>
      <trkpt lat="47.24314" lon="-1.48242">
        <ele>53</ele>
        <time>2022-08-07T09:31:26Z</time>
      </trkpt>
      <trkpt lat="47.24302" lon="-1.4823">
        <ele>53</ele>
        <time>2022-08-07T09:31:28Z</time>
      </trkpt>
      <trkpt lat="47.24288" lon="-1.48219">
        <ele>52</ele>
        <time>2022-08-07T09:31:30Z</time>
      </trkpt>
      <trkpt lat="47.24274" lon="-1.48209">
        <ele>53</ele>
        <time>2022-08-07T09:31:32Z</time>
      </trkpt>
      <trkpt lat="47.24261" lon="-1.48199">
        <ele>53</ele>
        <time>2022-08-07T09:31:34Z</time>
      </trkpt>
      <trkpt lat="47.24248" lon="-1.48191">
        <ele>52</ele>
        <time>2022-08-07T09:31:36Z</time>
      </trkpt>
      <trkpt lat="47.24235" lon="-1.48182">
        <ele>53</ele>
        <time>2022-08-07T09:31:38Z</time>
      </trkpt>
      <trkpt lat="47.24222" lon="-1.48173">
        <ele>53</ele>
        <time>2022-08-07T09:31:40Z</time>
      </trkpt>
      <trkpt lat="47.24209" lon="-1.48164">
        <ele>53</ele>
        <time>2022-08-07T09:31:42Z</time>
      </trkpt>
      <trkpt lat="47.24196" lon="-1.48156">
        <ele>53</ele>
        <time>2022-08-07T09:31:44Z</time>
      </trkpt>
      <trkpt lat="47.24183" lon="-1.48146">
        <ele>53</ele>
        <time>2022-08-07T09:31:46Z</time>
      </trkpt>
      <trkpt lat="47.24171" lon="-1.48135">
        <ele>53</ele>
        <time>2022-08-07T09:31:48Z</time>
      </trkpt>
      <trkpt lat="47.24159" lon="-1.48124">
        <ele>53</ele>
        <time>2022-08-07T09:31:50Z</time>
      </trkpt>
      <trkpt lat="47.24148" lon="-1.48111">
        <ele>53</ele>
        <time>2022-08-07T09:31:52Z</time>
      </trkpt>
      <trkpt lat="47.24136" lon="-1.48098">
        <ele>52</ele>
        <time>2022-08-07T09:31:54Z</time>
      </trkpt>
      <trkpt lat="47.24125" lon="-1.48083">
        <ele>52</ele>
        <time>2022-08-07T09:31:56Z</time>
      </trkpt>
      <trkpt lat="47.24114" lon="-1.48067">
        <ele>52</ele>
        <time>2022-08-07T09:31:58Z</time>
      </trkpt>
      <trkpt lat="47.24104" lon="-1.48055">
        <ele>52</ele>
        <time>2022-08-07T09:32:00Z</time>
      </trkpt>
      <trkpt lat="47.24095" lon="-1.48041">
        <ele>52</ele>
        <time>2022-08-07T09:32:02Z</time>
      </trkpt>
      <trkpt lat="47.24088" lon="-1.48025">
        <ele>53</ele>
        <time>2022-08-07T09:32:04Z</time>
      </trkpt>
      <trkpt lat="47.24083" lon="-1.4801">
        <ele>53</ele>
        <time>2022-08-07T09:32:06Z</time>
      </trkpt>
      <trkpt lat="47.24078" lon="-1.47995">
        <ele>53</ele>
        <time>2022-08-07T09:32:08Z</time>
      </trkpt>
      <trkpt lat="47.24073" lon="-1.4798">
        <ele>53</ele>
        <time>2022-08-07T09:32:10Z</time>
      </trkpt>
      <trkpt lat="47.24068" lon="-1.47965">
        <ele>53</ele>
        <time>2022-08-07T09:32:12Z</time>
      </trkpt>
      <trkpt lat="47.24064" lon="-1.47949">
        <ele>53</ele>
        <time>2022-08-07T09:32:14Z</time>
      </trkpt>
      <trkpt lat="47.24059" lon="-1.47934">
        <ele>53</ele>
        <time>2022-08-07T09:32:16Z</time>
      </trkpt>
      <trkpt lat="47.24054" lon="-1.47918">
        <ele>53</ele>
        <time>2022-08-07T09:32:18Z</time>
      </trkpt>
      <trkpt lat="47.24049" lon="-1.47902">
        <ele>53</ele>
        <time>2022-08-07T09:32:20Z</time>
      </trkpt>
      <trkpt lat="47.24043" lon="-1.47887">
        <ele>54</ele>
        <time>2022-08-07T09:32:22Z</time>
      </trkpt>
      <trkpt lat="47.24038" lon="-1.4787">
        <ele>54</ele>
        <time>2022-08-07T09:32:24Z</time>
      </trkpt>
      <trkpt lat="47.24032" lon="-1.47855">
        <ele>54</ele>
        <time>2022-08-07T09:32:26Z</time>
      </trkpt>
      <trkpt lat="47.24026" lon="-1.47839">
        <ele>54</ele>
        <time>2022-08-07T09:32:28Z</time>
      </trkpt>
      <trkpt lat="47.24019" lon="-1.47824">
        <ele>54</ele>
        <time>2022-08-07T09:32:30Z</time>
      </trkpt>
      <trkpt lat="47.24013" lon="-1.47809">
        <ele>55</ele>
        <time>2022-08-07T09:32:32Z</time>
      </trkpt>
      <trkpt lat="47.24006" lon="-1.47794">
        <ele>55</ele>
        <time>2022-08-07T09:32:34Z</time>
      </trkpt>
      <trkpt lat="47.24" lon="-1.47779">
        <ele>55</ele>
        <time>2022-08-07T09:32:36Z</time>
      </trkpt>
      <trkpt lat="47.23985" lon="-1.47738">
        <ele>52</ele>
        <time>2022-08-07T09:32:41Z</time>
      </trkpt>
      <trkpt lat="47.23976" lon="-1.4772">
        <ele>54</ele>
        <time>2022-08-07T09:32:44Z</time>
      </trkpt>
      <trkpt lat="47.23969" lon="-1.47705">
        <ele>54</ele>
        <time>2022-08-07T09:32:46Z</time>
      </trkpt>
      <trkpt lat="47.23961" lon="-1.47689">
        <ele>54</ele>
        <time>2022-08-07T09:32:48Z</time>
      </trkpt>
      <trkpt lat="47.23953" lon="-1.47675">
        <ele>54</ele>
        <time>2022-08-07T09:32:50Z</time>
      </trkpt>
      <trkpt lat="47.23942" lon="-1.47662">
        <ele>54</ele>
        <time>2022-08-07T09:32:52Z</time>
      </trkpt>
      <trkpt lat="47.23931" lon="-1.47653">
        <ele>55</ele>
        <time>2022-08-07T09:32:54Z</time>
      </trkpt>
      <trkpt lat="47.23919" lon="-1.47645">
        <ele>55</ele>
        <time>2022-08-07T09:32:56Z</time>
      </trkpt>
      <trkpt lat="47.23906" lon="-1.4764">
        <ele>55</ele>
        <time>2022-08-07T09:32:58Z</time>
      </trkpt>
      <trkpt lat="47.23893" lon="-1.47637">
        <ele>53</ele>
        <time>2022-08-07T09:33:00Z</time>
      </trkpt>
      <trkpt lat="47.2388" lon="-1.47638">
        <ele>53</ele>
        <time>2022-08-07T09:33:02Z</time>
      </trkpt>
      <trkpt lat="47.23867" lon="-1.47643">
        <ele>53</ele>
        <time>2022-08-07T09:33:04Z</time>
      </trkpt>
      <trkpt lat="47.23854" lon="-1.4765">
        <ele>53</ele>
        <time>2022-08-07T09:33:06Z</time>
      </trkpt>
      <trkpt lat="47.23841" lon="-1.47659">
        <ele>53</ele>
        <time>2022-08-07T09:33:08Z</time>
      </trkpt>
      <trkpt lat="47.23831" lon="-1.47671">
        <ele>53</ele>
        <time>2022-08-07T09:33:10Z</time>
      </trkpt>
      <trkpt lat="47.23823" lon="-1.47686">
        <ele>52</ele>
        <time>2022-08-07T09:33:12Z</time>
      </trkpt>
      <trkpt lat="47.23812" lon="-1.47694">
        <ele>52</ele>
        <time>2022-08-07T09:33:14Z</time>
      </trkpt>
      <trkpt lat="47.238" lon="-1.47691">
        <ele>53</ele>
        <time>2022-08-07T09:33:16Z</time>
      </trkpt>
      <trkpt lat="47.23787" lon="-1.47686">
        <ele>53</ele>
        <time>2022-08-07T09:33:18Z</time>
      </trkpt>
      <trkpt lat="47.23774" lon="-1.4769">
        <ele>52</ele>
        <time>2022-08-07T09:33:20Z</time>
      </trkpt>
      <trkpt lat="47.23761" lon="-1.47701">
        <ele>52</ele>
        <time>2022-08-07T09:33:22Z</time>
      </trkpt>
      <trkpt lat="47.23751" lon="-1.47713">
        <ele>52</ele>
        <time>2022-08-07T09:33:24Z</time>
      </trkpt>
      <trkpt lat="47.23741" lon="-1.47725">
        <ele>52</ele>
        <time>2022-08-07T09:33:26Z</time>
      </trkpt>
      <trkpt lat="47.2373" lon="-1.47738">
        <ele>52</ele>
        <time>2022-08-07T09:33:28Z</time>
      </trkpt>
      <trkpt lat="47.23718" lon="-1.47748">
        <ele>52</ele>
        <time>2022-08-07T09:33:30Z</time>
      </trkpt>
      <trkpt lat="47.23705" lon="-1.47755">
        <ele>52</ele>
        <time>2022-08-07T09:33:32Z</time>
      </trkpt>
      <trkpt lat="47.23692" lon="-1.47758">
        <ele>52</ele>
        <time>2022-08-07T09:33:34Z</time>
      </trkpt>
      <trkpt lat="47.23679" lon="-1.47757">
        <ele>52</ele>
        <time>2022-08-07T09:33:36Z</time>
      </trkpt>
      <trkpt lat="47.23665" lon="-1.47752">
        <ele>52</ele>
        <time>2022-08-07T09:33:38Z</time>
      </trkpt>
      <trkpt lat="47.23653" lon="-1.47745">
        <ele>52</ele>
        <time>2022-08-07T09:33:40Z</time>
      </trkpt>
      <trkpt lat="47.23641" lon="-1.47737">
        <ele>52</ele>
        <time>2022-08-07T09:33:42Z</time>
      </trkpt>
      <trkpt lat="47.23628" lon="-1.4773">
        <ele>52</ele>
        <time>2022-08-07T09:33:44Z</time>
      </trkpt>
      <trkpt lat="47.23615" lon="-1.47723">
        <ele>52</ele>
        <time>2022-08-07T09:33:46Z</time>
      </trkpt>
      <trkpt lat="47.23603" lon="-1.47715">
        <ele>52</ele>
        <time>2022-08-07T09:33:48Z</time>
      </trkpt>
      <trkpt lat="47.23591" lon="-1.47707">
        <ele>52</ele>
        <time>2022-08-07T09:33:50Z</time>
      </trkpt>
      <trkpt lat="47.23579" lon="-1.47699">
        <ele>52</ele>
        <time>2022-08-07T09:33:52Z</time>
      </trkpt>
      <trkpt lat="47.23568" lon="-1.47688">
        <ele>53</ele>
        <time>2022-08-07T09:33:54Z</time>
      </trkpt>
      <trkpt lat="47.23558" lon="-1.47674">
        <ele>53</ele>
        <time>2022-08-07T09:33:56Z</time>
      </trkpt>
      <trkpt lat="47.23549" lon="-1.4766">
        <ele>53</ele>
        <time>2022-08-07T09:33:58Z</time>
      </trkpt>
      <trkpt lat="47.2354" lon="-1.47646">
        <ele>53</ele>
        <time>2022-08-07T09:34:00Z</time>
      </trkpt>
      <trkpt lat="47.23532" lon="-1.47631">
        <ele>53</ele>
        <time>2022-08-07T09:34:02Z</time>
      </trkpt>
      <trkpt lat="47.23524" lon="-1.47618">
        <ele>53</ele>
        <time>2022-08-07T09:34:04Z</time>
      </trkpt>
      <trkpt lat="47.23515" lon="-1.47605">
        <ele>53</ele>
        <time>2022-08-07T09:34:06Z</time>
      </trkpt>
      <trkpt lat="47.23507" lon="-1.47592">
        <ele>53</ele>
        <time>2022-08-07T09:34:08Z</time>
      </trkpt>
      <trkpt lat="47.23499" lon="-1.47578">
        <ele>53</ele>
        <time>2022-08-07T09:34:10Z</time>
      </trkpt>
      <trkpt lat="47.2349" lon="-1.47564">
        <ele>53</ele>
        <time>2022-08-07T09:34:12Z</time>
      </trkpt>
      <trkpt lat="47.23482" lon="-1.4755">
        <ele>53</ele>
        <time>2022-08-07T09:34:14Z</time>
      </trkpt>
      <trkpt lat="47.23473" lon="-1.47536">
        <ele>53</ele>
        <time>2022-08-07T09:34:16Z</time>
      </trkpt>
      <trkpt lat="47.23464" lon="-1.47522">
        <ele>53</ele>
        <time>2022-08-07T09:34:18Z</time>
      </trkpt>
      <trkpt lat="47.23455" lon="-1.47508">
        <ele>53</ele>
        <time>2022-08-07T09:34:20Z</time>
      </trkpt>
      <trkpt lat="47.23446" lon="-1.47495">
        <ele>53</ele>
        <time>2022-08-07T09:34:22Z</time>
      </trkpt>
      <trkpt lat="47.23438" lon="-1.47482">
        <ele>54</ele>
        <time>2022-08-07T09:34:24Z</time>
      </trkpt>
      <trkpt lat="47.23431" lon="-1.4747">
        <ele>54</ele>
        <time>2022-08-07T09:34:26Z</time>
      </trkpt>
      <trkpt lat="47.23423" lon="-1.47458">
        <ele>54</ele>
        <time>2022-08-07T09:34:28Z</time>
      </trkpt>
      <trkpt lat="47.23417" lon="-1.47447">
        <ele>54</ele>
        <time>2022-08-07T09:34:30Z</time>
      </trkpt>
      <trkpt lat="47.23408" lon="-1.47444">
        <ele>55</ele>
        <time>2022-08-07T09:34:33Z</time>
      </trkpt>
      <trkpt lat="47.23399" lon="-1.47449">
        <ele>55</ele>
        <time>2022-08-07T09:34:35Z</time>
      </trkpt>
      <trkpt lat="47.23389" lon="-1.47454">
        <ele>55</ele>
        <time>2022-08-07T09:34:37Z</time>
      </trkpt>
      <trkpt lat="47.2338" lon="-1.4746">
        <ele>55</ele>
        <time>2022-08-07T09:34:39Z</time>
      </trkpt>
      <trkpt lat="47.23371" lon="-1.47465">
        <ele>55</ele>
        <time>2022-08-07T09:34:41Z</time>
      </trkpt>
      <trkpt lat="47.23362" lon="-1.47467">
        <ele>55</ele>
        <time>2022-08-07T09:34:43Z</time>
      </trkpt>
      <trkpt lat="47.23352" lon="-1.47469">
        <ele>56</ele>
        <time>2022-08-07T09:34:45Z</time>
      </trkpt>
      <trkpt lat="47.23342" lon="-1.47474">
        <ele>55</ele>
        <time>2022-08-07T09:34:48Z</time>
      </trkpt>
      <trkpt lat="47.23334" lon="-1.47482">
        <ele>56</ele>
        <time>2022-08-07T09:34:52Z</time>
      </trkpt>
      <trkpt lat="47.23325" lon="-1.47486">
        <ele>56</ele>
        <time>2022-08-07T09:35:09Z</time>
      </trkpt>
      <trkpt lat="47.23317" lon="-1.47482">
        <ele>48</ele>
        <time>2022-08-07T09:36:48Z</time>
      </trkpt>
      <trkpt lat="47.23317" lon="-1.47483">
        <ele>57</ele>
        <time>2022-08-07T09:38:49Z</time>
      </trkpt>
      <trkpt lat="47.23309" lon="-1.47491">
        <ele>55</ele>
        <time>2022-08-07T09:40:28Z</time>
      </trkpt>
      <trkpt lat="47.233" lon="-1.47499">
        <ele>56</ele>
        <time>2022-08-07T09:40:32Z</time>
      </trkpt>
      <trkpt lat="47.23294" lon="-1.47508">
        <ele>55</ele>
        <time>2022-08-07T09:40:35Z</time>
      </trkpt>
      <trkpt lat="47.23286" lon="-1.47515">
        <ele>54</ele>
        <time>2022-08-07T09:40:37Z</time>
      </trkpt>
      <trkpt lat="47.23277" lon="-1.4752">
        <ele>54</ele>
        <time>2022-08-07T09:40:39Z</time>
      </trkpt>
      <trkpt lat="47.23267" lon="-1.47526">
        <ele>55</ele>
        <time>2022-08-07T09:40:41Z</time>
      </trkpt>
      <trkpt lat="47.2326" lon="-1.47537">
        <ele>55</ele>
        <time>2022-08-07T09:40:43Z</time>
      </trkpt>
      <trkpt lat="47.23253" lon="-1.47549">
        <ele>55</ele>
        <time>2022-08-07T09:40:45Z</time>
      </trkpt>
      <trkpt lat="47.23248" lon="-1.47559">
        <ele>55</ele>
        <time>2022-08-07T09:40:47Z</time>
      </trkpt>
      <trkpt lat="47.23242" lon="-1.47571">
        <ele>54</ele>
        <time>2022-08-07T09:40:49Z</time>
      </trkpt>
      <trkpt lat="47.23235" lon="-1.47581">
        <ele>54</ele>
        <time>2022-08-07T09:40:51Z</time>
      </trkpt>
      <trkpt lat="47.23227" lon="-1.47598">
        <ele>53</ele>
        <time>2022-08-07T09:40:54Z</time>
      </trkpt>
      <trkpt lat="47.23221" lon="-1.47612">
        <ele>54</ele>
        <time>2022-08-07T09:40:56Z</time>
      </trkpt>
      <trkpt lat="47.23216" lon="-1.47626">
        <ele>53</ele>
        <time>2022-08-07T09:40:58Z</time>
      </trkpt>
      <trkpt lat="47.23211" lon="-1.47642">
        <ele>53</ele>
        <time>2022-08-07T09:41:00Z</time>
      </trkpt>
      <trkpt lat="47.23205" lon="-1.47656">
        <ele>53</ele>
        <time>2022-08-07T09:41:02Z</time>
      </trkpt>
      <trkpt lat="47.23199" lon="-1.47669">
        <ele>53</ele>
        <time>2022-08-07T09:41:04Z</time>
      </trkpt>
      <trkpt lat="47.23192" lon="-1.47683">
        <ele>54</ele>
        <time>2022-08-07T09:41:06Z</time>
      </trkpt>
      <trkpt lat="47.23185" lon="-1.47697">
        <ele>54</ele>
        <time>2022-08-07T09:41:08Z</time>
      </trkpt>
      <trkpt lat="47.2318" lon="-1.47711">
        <ele>54</ele>
        <time>2022-08-07T09:41:10Z</time>
      </trkpt>
      <trkpt lat="47.23173" lon="-1.47727">
        <ele>54</ele>
        <time>2022-08-07T09:41:12Z</time>
      </trkpt>
      <trkpt lat="47.23166" lon="-1.47742">
        <ele>54</ele>
        <time>2022-08-07T09:41:14Z</time>
      </trkpt>
      <trkpt lat="47.23159" lon="-1.47756">
        <ele>53</ele>
        <time>2022-08-07T09:41:16Z</time>
      </trkpt>
      <trkpt lat="47.23153" lon="-1.47771">
        <ele>54</ele>
        <time>2022-08-07T09:41:18Z</time>
      </trkpt>
      <trkpt lat="47.23148" lon="-1.47785">
        <ele>54</ele>
        <time>2022-08-07T09:41:20Z</time>
      </trkpt>
      <trkpt lat="47.23143" lon="-1.47799">
        <ele>54</ele>
        <time>2022-08-07T09:41:22Z</time>
      </trkpt>
      <trkpt lat="47.23138" lon="-1.47814">
        <ele>55</ele>
        <time>2022-08-07T09:41:24Z</time>
      </trkpt>
      <trkpt lat="47.23132" lon="-1.47829">
        <ele>55</ele>
        <time>2022-08-07T09:41:26Z</time>
      </trkpt>
      <trkpt lat="47.23126" lon="-1.47844">
        <ele>55</ele>
        <time>2022-08-07T09:41:28Z</time>
      </trkpt>
      <trkpt lat="47.23118" lon="-1.4786">
        <ele>54</ele>
        <time>2022-08-07T09:41:30Z</time>
      </trkpt>
      <trkpt lat="47.23108" lon="-1.47872">
        <ele>53</ele>
        <time>2022-08-07T09:41:32Z</time>
      </trkpt>
      <trkpt lat="47.231" lon="-1.47886">
        <ele>53</ele>
        <time>2022-08-07T09:41:34Z</time>
      </trkpt>
      <trkpt lat="47.23091" lon="-1.47898">
        <ele>53</ele>
        <time>2022-08-07T09:41:36Z</time>
      </trkpt>
      <trkpt lat="47.23082" lon="-1.4791">
        <ele>54</ele>
        <time>2022-08-07T09:41:38Z</time>
      </trkpt>
      <trkpt lat="47.23073" lon="-1.47922">
        <ele>54</ele>
        <time>2022-08-07T09:41:40Z</time>
      </trkpt>
      <trkpt lat="47.23065" lon="-1.47934">
        <ele>54</ele>
        <time>2022-08-07T09:41:42Z</time>
      </trkpt>
      <trkpt lat="47.23056" lon="-1.47947">
        <ele>54</ele>
        <time>2022-08-07T09:41:44Z</time>
      </trkpt>
      <trkpt lat="47.23046" lon="-1.47959">
        <ele>55</ele>
        <time>2022-08-07T09:41:46Z</time>
      </trkpt>
      <trkpt lat="47.23037" lon="-1.47971">
        <ele>55</ele>
        <time>2022-08-07T09:41:48Z</time>
      </trkpt>
      <trkpt lat="47.23028" lon="-1.47984">
        <ele>55</ele>
        <time>2022-08-07T09:41:50Z</time>
      </trkpt>
      <trkpt lat="47.23019" lon="-1.47997">
        <ele>55</ele>
        <time>2022-08-07T09:41:52Z</time>
      </trkpt>
      <trkpt lat="47.2301" lon="-1.4801">
        <ele>55</ele>
        <time>2022-08-07T09:41:54Z</time>
      </trkpt>
      <trkpt lat="47.23002" lon="-1.48024">
        <ele>55</ele>
        <time>2022-08-07T09:41:56Z</time>
      </trkpt>
      <trkpt lat="47.22994" lon="-1.48038">
        <ele>55</ele>
        <time>2022-08-07T09:41:58Z</time>
      </trkpt>
      <trkpt lat="47.22985" lon="-1.48051">
        <ele>54</ele>
        <time>2022-08-07T09:42:00Z</time>
      </trkpt>
      <trkpt lat="47.22976" lon="-1.48065">
        <ele>54</ele>
        <time>2022-08-07T09:42:02Z</time>
      </trkpt>
      <trkpt lat="47.22968" lon="-1.48078">
        <ele>54</ele>
        <time>2022-08-07T09:42:04Z</time>
      </trkpt>
      <trkpt lat="47.22961" lon="-1.48091">
        <ele>54</ele>
        <time>2022-08-07T09:42:06Z</time>
      </trkpt>
      <trkpt lat="47.22953" lon="-1.48104">
        <ele>54</ele>
        <time>2022-08-07T09:42:08Z</time>
      </trkpt>
      <trkpt lat="47.22944" lon="-1.48111">
        <ele>54</ele>
        <time>2022-08-07T09:42:10Z</time>
      </trkpt>
      <trkpt lat="47.22932" lon="-1.48112">
        <ele>54</ele>
        <time>2022-08-07T09:42:12Z</time>
      </trkpt>
      <trkpt lat="47.2292" lon="-1.48115">
        <ele>53</ele>
        <time>2022-08-07T09:42:14Z</time>
      </trkpt>
      <trkpt lat="47.22909" lon="-1.48121">
        <ele>52</ele>
        <time>2022-08-07T09:42:16Z</time>
      </trkpt>
      <trkpt lat="47.229" lon="-1.4813">
        <ele>52</ele>
        <time>2022-08-07T09:42:18Z</time>
      </trkpt>
      <trkpt lat="47.22891" lon="-1.48141">
        <ele>52</ele>
        <time>2022-08-07T09:42:20Z</time>
      </trkpt>
      <trkpt lat="47.22879" lon="-1.4816">
        <ele>52</ele>
        <time>2022-08-07T09:42:23Z</time>
      </trkpt>
      <trkpt lat="47.22867" lon="-1.4818">
        <ele>53</ele>
        <time>2022-08-07T09:42:26Z</time>
      </trkpt>
      <trkpt lat="47.22854" lon="-1.482">
        <ele>54</ele>
        <time>2022-08-07T09:42:29Z</time>
      </trkpt>
      <trkpt lat="47.22846" lon="-1.48214">
        <ele>54</ele>
        <time>2022-08-07T09:42:31Z</time>
      </trkpt>
      <trkpt lat="47.22834" lon="-1.48233">
        <ele>54</ele>
        <time>2022-08-07T09:42:34Z</time>
      </trkpt>
      <trkpt lat="47.22821" lon="-1.48251">
        <ele>54</ele>
        <time>2022-08-07T09:42:37Z</time>
      </trkpt>
      <trkpt lat="47.22813" lon="-1.48264">
        <ele>54</ele>
        <time>2022-08-07T09:42:39Z</time>
      </trkpt>
      <trkpt lat="47.22804" lon="-1.48277">
        <ele>54</ele>
        <time>2022-08-07T09:42:41Z</time>
      </trkpt>
      <trkpt lat="47.22796" lon="-1.48291">
        <ele>54</ele>
        <time>2022-08-07T09:42:43Z</time>
      </trkpt>
      <trkpt lat="47.22788" lon="-1.48305">
        <ele>54</ele>
        <time>2022-08-07T09:42:45Z</time>
      </trkpt>
      <trkpt lat="47.2278" lon="-1.48318">
        <ele>54</ele>
        <time>2022-08-07T09:42:47Z</time>
      </trkpt>
      <trkpt lat="47.22772" lon="-1.48332">
        <ele>55</ele>
        <time>2022-08-07T09:42:49Z</time>
      </trkpt>
      <trkpt lat="47.22763" lon="-1.48344">
        <ele>55</ele>
        <time>2022-08-07T09:42:51Z</time>
      </trkpt>
      <trkpt lat="47.22753" lon="-1.48356">
        <ele>55</ele>
        <time>2022-08-07T09:42:53Z</time>
      </trkpt>
      <trkpt lat="47.22744" lon="-1.48368">
        <ele>55</ele>
        <time>2022-08-07T09:42:55Z</time>
      </trkpt>
      <trkpt lat="47.22736" lon="-1.4838">
        <ele>55</ele>
        <time>2022-08-07T09:42:57Z</time>
      </trkpt>
      <trkpt lat="47.22726" lon="-1.48392">
        <ele>55</ele>
        <time>2022-08-07T09:42:59Z</time>
      </trkpt>
      <trkpt lat="47.22717" lon="-1.48404">
        <ele>55</ele>
        <time>2022-08-07T09:43:01Z</time>
      </trkpt>
      <trkpt lat="47.22709" lon="-1.48418">
        <ele>54</ele>
        <time>2022-08-07T09:43:03Z</time>
      </trkpt>
      <trkpt lat="47.22703" lon="-1.48434">
        <ele>53</ele>
        <time>2022-08-07T09:43:05Z</time>
      </trkpt>
      <trkpt lat="47.22697" lon="-1.48451">
        <ele>53</ele>
        <time>2022-08-07T09:43:07Z</time>
      </trkpt>
      <trkpt lat="47.22692" lon="-1.48467">
        <ele>52</ele>
        <time>2022-08-07T09:43:09Z</time>
      </trkpt>
      <trkpt lat="47.22686" lon="-1.48482">
        <ele>52</ele>
        <time>2022-08-07T09:43:11Z</time>
      </trkpt>
      <trkpt lat="47.22678" lon="-1.48496">
        <ele>52</ele>
        <time>2022-08-07T09:43:13Z</time>
      </trkpt>
      <trkpt lat="47.22671" lon="-1.48512">
        <ele>53</ele>
        <time>2022-08-07T09:43:15Z</time>
      </trkpt>
      <trkpt lat="47.22665" lon="-1.48529">
        <ele>53</ele>
        <time>2022-08-07T09:43:17Z</time>
      </trkpt>
      <trkpt lat="47.22661" lon="-1.48546">
        <ele>53</ele>
        <time>2022-08-07T09:43:19Z</time>
      </trkpt>
      <trkpt lat="47.22655" lon="-1.48563">
        <ele>53</ele>
        <time>2022-08-07T09:43:21Z</time>
      </trkpt>
      <trkpt lat="47.22649" lon="-1.48579">
        <ele>52</ele>
        <time>2022-08-07T09:43:23Z</time>
      </trkpt>
      <trkpt lat="47.22643" lon="-1.48595">
        <ele>52</ele>
        <time>2022-08-07T09:43:25Z</time>
      </trkpt>
      <trkpt lat="47.22637" lon="-1.4861">
        <ele>53</ele>
        <time>2022-08-07T09:43:27Z</time>
      </trkpt>
      <trkpt lat="47.22631" lon="-1.48626">
        <ele>53</ele>
        <time>2022-08-07T09:43:29Z</time>
      </trkpt>
      <trkpt lat="47.22626" lon="-1.48642">
        <ele>53</ele>
        <time>2022-08-07T09:43:31Z</time>
      </trkpt>
      <trkpt lat="47.22621" lon="-1.48659">
        <ele>53</ele>
        <time>2022-08-07T09:43:33Z</time>
      </trkpt>
      <trkpt lat="47.22615" lon="-1.48677">
        <ele>53</ele>
        <time>2022-08-07T09:43:35Z</time>
      </trkpt>
      <trkpt lat="47.22609" lon="-1.48696">
        <ele>52</ele>
        <time>2022-08-07T09:43:37Z</time>
      </trkpt>
      <trkpt lat="47.22603" lon="-1.48714">
        <ele>51</ele>
        <time>2022-08-07T09:43:39Z</time>
      </trkpt>
      <trkpt lat="47.22598" lon="-1.48733">
        <ele>52</ele>
        <time>2022-08-07T09:43:41Z</time>
      </trkpt>
      <trkpt lat="47.22593" lon="-1.48751">
        <ele>51</ele>
        <time>2022-08-07T09:43:43Z</time>
      </trkpt>
      <trkpt lat="47.22588" lon="-1.48769">
        <ele>52</ele>
        <time>2022-08-07T09:43:45Z</time>
      </trkpt>
      <trkpt lat="47.22583" lon="-1.48787">
        <ele>52</ele>
        <time>2022-08-07T09:43:47Z</time>
      </trkpt>
      <trkpt lat="47.22577" lon="-1.48805">
        <ele>52</ele>
        <time>2022-08-07T09:43:49Z</time>
      </trkpt>
      <trkpt lat="47.22571" lon="-1.4882">
        <ele>52</ele>
        <time>2022-08-07T09:43:51Z</time>
      </trkpt>
      <trkpt lat="47.22566" lon="-1.48836">
        <ele>52</ele>
        <time>2022-08-07T09:43:53Z</time>
      </trkpt>
      <trkpt lat="47.2256" lon="-1.48852">
        <ele>53</ele>
        <time>2022-08-07T09:43:55Z</time>
      </trkpt>
      <trkpt lat="47.22556" lon="-1.48869">
        <ele>53</ele>
        <time>2022-08-07T09:43:57Z</time>
      </trkpt>
      <trkpt lat="47.22552" lon="-1.48885">
        <ele>54</ele>
        <time>2022-08-07T09:43:59Z</time>
      </trkpt>
      <trkpt lat="47.22549" lon="-1.48902">
        <ele>54</ele>
        <time>2022-08-07T09:44:01Z</time>
      </trkpt>
      <trkpt lat="47.22544" lon="-1.48922">
        <ele>54</ele>
        <time>2022-08-07T09:44:03Z</time>
      </trkpt>
      <trkpt lat="47.22537" lon="-1.48942">
        <ele>55</ele>
        <time>2022-08-07T09:44:05Z</time>
      </trkpt>
      <trkpt lat="47.2253" lon="-1.48959">
        <ele>55</ele>
        <time>2022-08-07T09:44:07Z</time>
      </trkpt>
      <trkpt lat="47.22524" lon="-1.48976">
        <ele>56</ele>
        <time>2022-08-07T09:44:09Z</time>
      </trkpt>
      <trkpt lat="47.22517" lon="-1.48994">
        <ele>56</ele>
        <time>2022-08-07T09:44:11Z</time>
      </trkpt>
      <trkpt lat="47.22511" lon="-1.49011">
        <ele>56</ele>
        <time>2022-08-07T09:44:13Z</time>
      </trkpt>
      <trkpt lat="47.22506" lon="-1.49028">
        <ele>57</ele>
        <time>2022-08-07T09:44:15Z</time>
      </trkpt>
      <trkpt lat="47.22501" lon="-1.49045">
        <ele>57</ele>
        <time>2022-08-07T09:44:17Z</time>
      </trkpt>
      <trkpt lat="47.22496" lon="-1.49063">
        <ele>57</ele>
        <time>2022-08-07T09:44:19Z</time>
      </trkpt>
      <trkpt lat="47.2249" lon="-1.4908">
        <ele>58</ele>
        <time>2022-08-07T09:44:21Z</time>
      </trkpt>
      <trkpt lat="47.22484" lon="-1.49099">
        <ele>58</ele>
        <time>2022-08-07T09:44:23Z</time>
      </trkpt>
      <trkpt lat="47.22478" lon="-1.49117">
        <ele>58</ele>
        <time>2022-08-07T09:44:25Z</time>
      </trkpt>
      <trkpt lat="47.22472" lon="-1.49136">
        <ele>57</ele>
        <time>2022-08-07T09:44:27Z</time>
      </trkpt>
      <trkpt lat="47.22467" lon="-1.49153">
        <ele>58</ele>
        <time>2022-08-07T09:44:29Z</time>
      </trkpt>
      <trkpt lat="47.22461" lon="-1.49171">
        <ele>58</ele>
        <time>2022-08-07T09:44:31Z</time>
      </trkpt>
      <trkpt lat="47.22454" lon="-1.49187">
        <ele>58</ele>
        <time>2022-08-07T09:44:33Z</time>
      </trkpt>
      <trkpt lat="47.22447" lon="-1.49205">
        <ele>58</ele>
        <time>2022-08-07T09:44:35Z</time>
      </trkpt>
      <trkpt lat="47.22439" lon="-1.49222">
        <ele>58</ele>
        <time>2022-08-07T09:44:37Z</time>
      </trkpt>
      <trkpt lat="47.22433" lon="-1.4924">
        <ele>58</ele>
        <time>2022-08-07T09:44:39Z</time>
      </trkpt>
      <trkpt lat="47.22427" lon="-1.49257">
        <ele>59</ele>
        <time>2022-08-07T09:44:41Z</time>
      </trkpt>
      <trkpt lat="47.2242" lon="-1.49273">
        <ele>58</ele>
        <time>2022-08-07T09:44:43Z</time>
      </trkpt>
      <trkpt lat="47.22414" lon="-1.49289">
        <ele>58</ele>
        <time>2022-08-07T09:44:45Z</time>
      </trkpt>
      <trkpt lat="47.22408" lon="-1.49307">
        <ele>58</ele>
        <time>2022-08-07T09:44:47Z</time>
      </trkpt>
      <trkpt lat="47.22402" lon="-1.49324">
        <ele>58</ele>
        <time>2022-08-07T09:44:49Z</time>
      </trkpt>
      <trkpt lat="47.22396" lon="-1.49341">
        <ele>57</ele>
        <time>2022-08-07T09:44:51Z</time>
      </trkpt>
      <trkpt lat="47.22389" lon="-1.49357">
        <ele>57</ele>
        <time>2022-08-07T09:44:53Z</time>
      </trkpt>
      <trkpt lat="47.22383" lon="-1.49372">
        <ele>57</ele>
        <time>2022-08-07T09:44:55Z</time>
      </trkpt>
      <trkpt lat="47.22376" lon="-1.49388">
        <ele>57</ele>
        <time>2022-08-07T09:44:57Z</time>
      </trkpt>
      <trkpt lat="47.2237" lon="-1.49404">
        <ele>57</ele>
        <time>2022-08-07T09:44:59Z</time>
      </trkpt>
      <trkpt lat="47.22363" lon="-1.4942">
        <ele>58</ele>
        <time>2022-08-07T09:45:01Z</time>
      </trkpt>
      <trkpt lat="47.22356" lon="-1.49435">
        <ele>58</ele>
        <time>2022-08-07T09:45:03Z</time>
      </trkpt>
      <trkpt lat="47.2235" lon="-1.49451">
        <ele>58</ele>
        <time>2022-08-07T09:45:05Z</time>
      </trkpt>
      <trkpt lat="47.22344" lon="-1.49466">
        <ele>58</ele>
        <time>2022-08-07T09:45:07Z</time>
      </trkpt>
      <trkpt lat="47.22339" lon="-1.49483">
        <ele>58</ele>
        <time>2022-08-07T09:45:09Z</time>
      </trkpt>
      <trkpt lat="47.22334" lon="-1.49501">
        <ele>58</ele>
        <time>2022-08-07T09:45:11Z</time>
      </trkpt>
      <trkpt lat="47.22328" lon="-1.49518">
        <ele>58</ele>
        <time>2022-08-07T09:45:13Z</time>
      </trkpt>
      <trkpt lat="47.22323" lon="-1.49534">
        <ele>58</ele>
        <time>2022-08-07T09:45:15Z</time>
      </trkpt>
      <trkpt lat="47.22317" lon="-1.49552">
        <ele>58</ele>
        <time>2022-08-07T09:45:17Z</time>
      </trkpt>
      <trkpt lat="47.22312" lon="-1.49568">
        <ele>58</ele>
        <time>2022-08-07T09:45:19Z</time>
      </trkpt>
      <trkpt lat="47.22306" lon="-1.49585">
        <ele>57</ele>
        <time>2022-08-07T09:45:21Z</time>
      </trkpt>
      <trkpt lat="47.223" lon="-1.49602">
        <ele>56</ele>
        <time>2022-08-07T09:45:23Z</time>
      </trkpt>
      <trkpt lat="47.22295" lon="-1.49618">
        <ele>57</ele>
        <time>2022-08-07T09:45:25Z</time>
      </trkpt>
      <trkpt lat="47.2229" lon="-1.49637">
        <ele>56</ele>
        <time>2022-08-07T09:45:27Z</time>
      </trkpt>
      <trkpt lat="47.22286" lon="-1.49654">
        <ele>56</ele>
        <time>2022-08-07T09:45:29Z</time>
      </trkpt>
      <trkpt lat="47.2228" lon="-1.49673">
        <ele>56</ele>
        <time>2022-08-07T09:45:31Z</time>
      </trkpt>
      <trkpt lat="47.22274" lon="-1.49689">
        <ele>55</ele>
        <time>2022-08-07T09:45:33Z</time>
      </trkpt>
      <trkpt lat="47.22268" lon="-1.49706">
        <ele>55</ele>
        <time>2022-08-07T09:45:35Z</time>
      </trkpt>
      <trkpt lat="47.22262" lon="-1.49724">
        <ele>55</ele>
        <time>2022-08-07T09:45:37Z</time>
      </trkpt>
      <trkpt lat="47.22257" lon="-1.49741">
        <ele>56</ele>
        <time>2022-08-07T09:45:39Z</time>
      </trkpt>
      <trkpt lat="47.22252" lon="-1.49759">
        <ele>56</ele>
        <time>2022-08-07T09:45:41Z</time>
      </trkpt>
      <trkpt lat="47.2225" lon="-1.49777">
        <ele>56</ele>
        <time>2022-08-07T09:45:43Z</time>
      </trkpt>
      <trkpt lat="47.22248" lon="-1.49795">
        <ele>57</ele>
        <time>2022-08-07T09:45:45Z</time>
      </trkpt>
      <trkpt lat="47.22245" lon="-1.49813">
        <ele>57</ele>
        <time>2022-08-07T09:45:47Z</time>
      </trkpt>
      <trkpt lat="47.22241" lon="-1.49831">
        <ele>56</ele>
        <time>2022-08-07T09:45:49Z</time>
      </trkpt>
      <trkpt lat="47.22237" lon="-1.49849">
        <ele>56</ele>
        <time>2022-08-07T09:45:51Z</time>
      </trkpt>
      <trkpt lat="47.22232" lon="-1.49867">
        <ele>56</ele>
        <time>2022-08-07T09:45:53Z</time>
      </trkpt>
      <trkpt lat="47.22228" lon="-1.49885">
        <ele>57</ele>
        <time>2022-08-07T09:45:55Z</time>
      </trkpt>
      <trkpt lat="47.22224" lon="-1.49904">
        <ele>58</ele>
        <time>2022-08-07T09:45:57Z</time>
      </trkpt>
      <trkpt lat="47.22219" lon="-1.49922">
        <ele>58</ele>
        <time>2022-08-07T09:45:59Z</time>
      </trkpt>
      <trkpt lat="47.22215" lon="-1.4994">
        <ele>59</ele>
        <time>2022-08-07T09:46:01Z</time>
      </trkpt>
      <trkpt lat="47.22212" lon="-1.49957">
        <ele>59</ele>
        <time>2022-08-07T09:46:03Z</time>
      </trkpt>
      <trkpt lat="47.22207" lon="-1.49975">
        <ele>60</ele>
        <time>2022-08-07T09:46:05Z</time>
      </trkpt>
      <trkpt lat="47.22202" lon="-1.49993">
        <ele>60</ele>
        <time>2022-08-07T09:46:07Z</time>
      </trkpt>
      <trkpt lat="47.22197" lon="-1.50009">
        <ele>59</ele>
        <time>2022-08-07T09:46:09Z</time>
      </trkpt>
      <trkpt lat="47.22192" lon="-1.50027">
        <ele>59</ele>
        <time>2022-08-07T09:46:11Z</time>
      </trkpt>
      <trkpt lat="47.22188" lon="-1.50044">
        <ele>59</ele>
        <time>2022-08-07T09:46:13Z</time>
      </trkpt>
      <trkpt lat="47.22184" lon="-1.50062">
        <ele>58</ele>
        <time>2022-08-07T09:46:15Z</time>
      </trkpt>
      <trkpt lat="47.2218" lon="-1.5008">
        <ele>58</ele>
        <time>2022-08-07T09:46:17Z</time>
      </trkpt>
      <trkpt lat="47.22176" lon="-1.50098">
        <ele>58</ele>
        <time>2022-08-07T09:46:19Z</time>
      </trkpt>
      <trkpt lat="47.22171" lon="-1.50117">
        <ele>58</ele>
        <time>2022-08-07T09:46:21Z</time>
      </trkpt>
      <trkpt lat="47.22164" lon="-1.50134">
        <ele>57</ele>
        <time>2022-08-07T09:46:23Z</time>
      </trkpt>
      <trkpt lat="47.22158" lon="-1.50152">
        <ele>56</ele>
        <time>2022-08-07T09:46:25Z</time>
      </trkpt>
      <trkpt lat="47.22153" lon="-1.50169">
        <ele>55</ele>
        <time>2022-08-07T09:46:27Z</time>
      </trkpt>
      <trkpt lat="47.22148" lon="-1.50186">
        <ele>55</ele>
        <time>2022-08-07T09:46:29Z</time>
      </trkpt>
      <trkpt lat="47.22145" lon="-1.50204">
        <ele>55</ele>
        <time>2022-08-07T09:46:31Z</time>
      </trkpt>
      <trkpt lat="47.22141" lon="-1.50222">
        <ele>54</ele>
        <time>2022-08-07T09:46:33Z</time>
      </trkpt>
      <trkpt lat="47.22136" lon="-1.50239">
        <ele>54</ele>
        <time>2022-08-07T09:46:35Z</time>
      </trkpt>
      <trkpt lat="47.22131" lon="-1.50254">
        <ele>54</ele>
        <time>2022-08-07T09:46:37Z</time>
      </trkpt>
      <trkpt lat="47.22125" lon="-1.50271">
        <ele>54</ele>
        <time>2022-08-07T09:46:39Z</time>
      </trkpt>
      <trkpt lat="47.22118" lon="-1.50289">
        <ele>54</ele>
        <time>2022-08-07T09:46:41Z</time>
      </trkpt>
      <trkpt lat="47.22111" lon="-1.50304">
        <ele>54</ele>
        <time>2022-08-07T09:46:43Z</time>
      </trkpt>
      <trkpt lat="47.22103" lon="-1.50319">
        <ele>54</ele>
        <time>2022-08-07T09:46:45Z</time>
      </trkpt>
      <trkpt lat="47.22096" lon="-1.50333">
        <ele>54</ele>
        <time>2022-08-07T09:46:47Z</time>
      </trkpt>
      <trkpt lat="47.22091" lon="-1.50349">
        <ele>54</ele>
        <time>2022-08-07T09:46:49Z</time>
      </trkpt>
      <trkpt lat="47.22087" lon="-1.50366">
        <ele>53</ele>
        <time>2022-08-07T09:46:51Z</time>
      </trkpt>
      <trkpt lat="47.22082" lon="-1.50384">
        <ele>53</ele>
        <time>2022-08-07T09:46:53Z</time>
      </trkpt>
      <trkpt lat="47.22077" lon="-1.50399">
        <ele>53</ele>
        <time>2022-08-07T09:46:55Z</time>
      </trkpt>
      <trkpt lat="47.22073" lon="-1.50416">
        <ele>52</ele>
        <time>2022-08-07T09:46:57Z</time>
      </trkpt>
      <trkpt lat="47.2207" lon="-1.50434">
        <ele>52</ele>
        <time>2022-08-07T09:46:59Z</time>
      </trkpt>
      <trkpt lat="47.22067" lon="-1.50452">
        <ele>52</ele>
        <time>2022-08-07T09:47:01Z</time>
      </trkpt>
      <trkpt lat="47.22064" lon="-1.5047">
        <ele>52</ele>
        <time>2022-08-07T09:47:03Z</time>
      </trkpt>
      <trkpt lat="47.22062" lon="-1.50488">
        <ele>52</ele>
        <time>2022-08-07T09:47:05Z</time>
      </trkpt>
      <trkpt lat="47.22061" lon="-1.50505">
        <ele>53</ele>
        <time>2022-08-07T09:47:07Z</time>
      </trkpt>
      <trkpt lat="47.22059" lon="-1.50523">
        <ele>53</ele>
        <time>2022-08-07T09:47:09Z</time>
      </trkpt>
      <trkpt lat="47.22058" lon="-1.5054">
        <ele>52</ele>
        <time>2022-08-07T09:47:11Z</time>
      </trkpt>
      <trkpt lat="47.22057" lon="-1.50557">
        <ele>53</ele>
        <time>2022-08-07T09:47:13Z</time>
      </trkpt>
      <trkpt lat="47.22056" lon="-1.50573">
        <ele>53</ele>
        <time>2022-08-07T09:47:15Z</time>
      </trkpt>
      <trkpt lat="47.22056" lon="-1.5059">
        <ele>53</ele>
        <time>2022-08-07T09:47:17Z</time>
      </trkpt>
      <trkpt lat="47.22055" lon="-1.50609">
        <ele>53</ele>
        <time>2022-08-07T09:47:19Z</time>
      </trkpt>
      <trkpt lat="47.22053" lon="-1.50627">
        <ele>53</ele>
        <time>2022-08-07T09:47:21Z</time>
      </trkpt>
      <trkpt lat="47.22053" lon="-1.50646">
        <ele>53</ele>
        <time>2022-08-07T09:47:23Z</time>
      </trkpt>
      <trkpt lat="47.22051" lon="-1.50663">
        <ele>53</ele>
        <time>2022-08-07T09:47:25Z</time>
      </trkpt>
      <trkpt lat="47.22049" lon="-1.50679">
        <ele>53</ele>
        <time>2022-08-07T09:47:27Z</time>
      </trkpt>
      <trkpt lat="47.22048" lon="-1.50695">
        <ele>53</ele>
        <time>2022-08-07T09:47:29Z</time>
      </trkpt>
      <trkpt lat="47.22046" lon="-1.50713">
        <ele>54</ele>
        <time>2022-08-07T09:47:31Z</time>
      </trkpt>
      <trkpt lat="47.22044" lon="-1.50731">
        <ele>55</ele>
        <time>2022-08-07T09:47:33Z</time>
      </trkpt>
      <trkpt lat="47.22042" lon="-1.50748">
        <ele>55</ele>
        <time>2022-08-07T09:47:35Z</time>
      </trkpt>
      <trkpt lat="47.22039" lon="-1.50765">
        <ele>56</ele>
        <time>2022-08-07T09:47:37Z</time>
      </trkpt>
      <trkpt lat="47.22035" lon="-1.50783">
        <ele>56</ele>
        <time>2022-08-07T09:47:39Z</time>
      </trkpt>
      <trkpt lat="47.2203" lon="-1.508">
        <ele>57</ele>
        <time>2022-08-07T09:47:41Z</time>
      </trkpt>
      <trkpt lat="47.22025" lon="-1.50816">
        <ele>58</ele>
        <time>2022-08-07T09:47:43Z</time>
      </trkpt>
      <trkpt lat="47.22019" lon="-1.5083">
        <ele>58</ele>
        <time>2022-08-07T09:47:45Z</time>
      </trkpt>
      <trkpt lat="47.22013" lon="-1.50846">
        <ele>58</ele>
        <time>2022-08-07T09:47:47Z</time>
      </trkpt>
      <trkpt lat="47.22005" lon="-1.50863">
        <ele>58</ele>
        <time>2022-08-07T09:47:49Z</time>
      </trkpt>
      <trkpt lat="47.21997" lon="-1.5088">
        <ele>58</ele>
        <time>2022-08-07T09:47:51Z</time>
      </trkpt>
      <trkpt lat="47.21993" lon="-1.50897">
        <ele>57</ele>
        <time>2022-08-07T09:47:53Z</time>
      </trkpt>
      <trkpt lat="47.21989" lon="-1.50914">
        <ele>56</ele>
        <time>2022-08-07T09:47:55Z</time>
      </trkpt>
      <trkpt lat="47.21984" lon="-1.5093">
        <ele>56</ele>
        <time>2022-08-07T09:47:57Z</time>
      </trkpt>
      <trkpt lat="47.2198" lon="-1.50947">
        <ele>55</ele>
        <time>2022-08-07T09:47:59Z</time>
      </trkpt>
      <trkpt lat="47.21975" lon="-1.50963">
        <ele>55</ele>
        <time>2022-08-07T09:48:01Z</time>
      </trkpt>
      <trkpt lat="47.2197" lon="-1.50979">
        <ele>55</ele>
        <time>2022-08-07T09:48:03Z</time>
      </trkpt>
      <trkpt lat="47.21965" lon="-1.50996">
        <ele>54</ele>
        <time>2022-08-07T09:48:05Z</time>
      </trkpt>
      <trkpt lat="47.2196" lon="-1.51013">
        <ele>54</ele>
        <time>2022-08-07T09:48:07Z</time>
      </trkpt>
      <trkpt lat="47.21955" lon="-1.51029">
        <ele>53</ele>
        <time>2022-08-07T09:48:09Z</time>
      </trkpt>
      <trkpt lat="47.21951" lon="-1.51045">
        <ele>53</ele>
        <time>2022-08-07T09:48:11Z</time>
      </trkpt>
      <trkpt lat="47.21946" lon="-1.51057">
        <ele>53</ele>
        <time>2022-08-07T09:48:13Z</time>
      </trkpt>
      <trkpt lat="47.21936" lon="-1.51072">
        <ele>52</ele>
        <time>2022-08-07T09:48:16Z</time>
      </trkpt>
      <trkpt lat="47.2193" lon="-1.51085">
        <ele>52</ele>
        <time>2022-08-07T09:48:18Z</time>
      </trkpt>
      <trkpt lat="47.21924" lon="-1.51102">
        <ele>51</ele>
        <time>2022-08-07T09:48:20Z</time>
      </trkpt>
      <trkpt lat="47.21919" lon="-1.51118">
        <ele>51</ele>
        <time>2022-08-07T09:48:22Z</time>
      </trkpt>
      <trkpt lat="47.21914" lon="-1.51135">
        <ele>51</ele>
        <time>2022-08-07T09:48:24Z</time>
      </trkpt>
      <trkpt lat="47.21909" lon="-1.51153">
        <ele>51</ele>
        <time>2022-08-07T09:48:26Z</time>
      </trkpt>
      <trkpt lat="47.21904" lon="-1.5117">
        <ele>51</ele>
        <time>2022-08-07T09:48:28Z</time>
      </trkpt>
      <trkpt lat="47.21898" lon="-1.51187">
        <ele>51</ele>
        <time>2022-08-07T09:48:30Z</time>
      </trkpt>
      <trkpt lat="47.21892" lon="-1.51205">
        <ele>51</ele>
        <time>2022-08-07T09:48:32Z</time>
      </trkpt>
      <trkpt lat="47.21886" lon="-1.51223">
        <ele>51</ele>
        <time>2022-08-07T09:48:34Z</time>
      </trkpt>
      <trkpt lat="47.21881" lon="-1.51241">
        <ele>51</ele>
        <time>2022-08-07T09:48:36Z</time>
      </trkpt>
      <trkpt lat="47.21874" lon="-1.51259">
        <ele>51</ele>
        <time>2022-08-07T09:48:38Z</time>
      </trkpt>
      <trkpt lat="47.21869" lon="-1.51277">
        <ele>51</ele>
        <time>2022-08-07T09:48:40Z</time>
      </trkpt>
      <trkpt lat="47.21863" lon="-1.51295">
        <ele>51</ele>
        <time>2022-08-07T09:48:42Z</time>
      </trkpt>
      <trkpt lat="47.21857" lon="-1.51312">
        <ele>51</ele>
        <time>2022-08-07T09:48:44Z</time>
      </trkpt>
      <trkpt lat="47.21852" lon="-1.51331">
        <ele>51</ele>
        <time>2022-08-07T09:48:46Z</time>
      </trkpt>
      <trkpt lat="47.21846" lon="-1.51348">
        <ele>52</ele>
        <time>2022-08-07T09:48:48Z</time>
      </trkpt>
      <trkpt lat="47.21842" lon="-1.51367">
        <ele>52</ele>
        <time>2022-08-07T09:48:50Z</time>
      </trkpt>
      <trkpt lat="47.21837" lon="-1.51385">
        <ele>53</ele>
        <time>2022-08-07T09:48:52Z</time>
      </trkpt>
      <trkpt lat="47.21833" lon="-1.51403">
        <ele>53</ele>
        <time>2022-08-07T09:48:54Z</time>
      </trkpt>
      <trkpt lat="47.21829" lon="-1.5142">
        <ele>53</ele>
        <time>2022-08-07T09:48:56Z</time>
      </trkpt>
      <trkpt lat="47.21825" lon="-1.51438">
        <ele>53</ele>
        <time>2022-08-07T09:48:58Z</time>
      </trkpt>
      <trkpt lat="47.21822" lon="-1.51456">
        <ele>52</ele>
        <time>2022-08-07T09:49:00Z</time>
      </trkpt>
      <trkpt lat="47.21818" lon="-1.51474">
        <ele>52</ele>
        <time>2022-08-07T09:49:02Z</time>
      </trkpt>
      <trkpt lat="47.21814" lon="-1.51492">
        <ele>51</ele>
        <time>2022-08-07T09:49:04Z</time>
      </trkpt>
      <trkpt lat="47.21808" lon="-1.51508">
        <ele>51</ele>
        <time>2022-08-07T09:49:06Z</time>
      </trkpt>
      <trkpt lat="47.218" lon="-1.51523">
        <ele>51</ele>
        <time>2022-08-07T09:49:08Z</time>
      </trkpt>
      <trkpt lat="47.21794" lon="-1.5154">
        <ele>51</ele>
        <time>2022-08-07T09:49:10Z</time>
      </trkpt>
      <trkpt lat="47.21787" lon="-1.51557">
        <ele>51</ele>
        <time>2022-08-07T09:49:12Z</time>
      </trkpt>
      <trkpt lat="47.2178" lon="-1.51572">
        <ele>52</ele>
        <time>2022-08-07T09:49:14Z</time>
      </trkpt>
      <trkpt lat="47.21772" lon="-1.51587">
        <ele>52</ele>
        <time>2022-08-07T09:49:16Z</time>
      </trkpt>
      <trkpt lat="47.21762" lon="-1.516">
        <ele>52</ele>
        <time>2022-08-07T09:49:18Z</time>
      </trkpt>
      <trkpt lat="47.21753" lon="-1.51614">
        <ele>53</ele>
        <time>2022-08-07T09:49:20Z</time>
      </trkpt>
      <trkpt lat="47.21745" lon="-1.5163">
        <ele>53</ele>
        <time>2022-08-07T09:49:22Z</time>
      </trkpt>
      <trkpt lat="47.21737" lon="-1.51646">
        <ele>53</ele>
        <time>2022-08-07T09:49:24Z</time>
      </trkpt>
      <trkpt lat="47.2173" lon="-1.51663">
        <ele>52</ele>
        <time>2022-08-07T09:49:26Z</time>
      </trkpt>
      <trkpt lat="47.21722" lon="-1.51679">
        <ele>53</ele>
        <time>2022-08-07T09:49:28Z</time>
      </trkpt>
      <trkpt lat="47.21715" lon="-1.51696">
        <ele>53</ele>
        <time>2022-08-07T09:49:30Z</time>
      </trkpt>
      <trkpt lat="47.21708" lon="-1.51712">
        <ele>53</ele>
        <time>2022-08-07T09:49:32Z</time>
      </trkpt>
      <trkpt lat="47.21702" lon="-1.51729">
        <ele>53</ele>
        <time>2022-08-07T09:49:34Z</time>
      </trkpt>
      <trkpt lat="47.21694" lon="-1.51747">
        <ele>53</ele>
        <time>2022-08-07T09:49:36Z</time>
      </trkpt>
      <trkpt lat="47.21685" lon="-1.51765">
        <ele>52</ele>
        <time>2022-08-07T09:49:38Z</time>
      </trkpt>
      <trkpt lat="47.21677" lon="-1.51782">
        <ele>52</ele>
        <time>2022-08-07T09:49:40Z</time>
      </trkpt>
      <trkpt lat="47.2167" lon="-1.518">
        <ele>52</ele>
        <time>2022-08-07T09:49:42Z</time>
      </trkpt>
      <trkpt lat="47.21662" lon="-1.51817">
        <ele>52</ele>
        <time>2022-08-07T09:49:44Z</time>
      </trkpt>
      <trkpt lat="47.21655" lon="-1.51836">
        <ele>52</ele>
        <time>2022-08-07T09:49:46Z</time>
      </trkpt>
      <trkpt lat="47.21648" lon="-1.51854">
        <ele>52</ele>
        <time>2022-08-07T09:49:48Z</time>
      </trkpt>
      <trkpt lat="47.21645" lon="-1.51872">
        <ele>52</ele>
        <time>2022-08-07T09:49:50Z</time>
      </trkpt>
      <trkpt lat="47.21642" lon="-1.51891">
        <ele>53</ele>
        <time>2022-08-07T09:49:52Z</time>
      </trkpt>
      <trkpt lat="47.21634" lon="-1.51907">
        <ele>53</ele>
        <time>2022-08-07T09:49:54Z</time>
      </trkpt>
      <trkpt lat="47.21627" lon="-1.51925">
        <ele>54</ele>
        <time>2022-08-07T09:49:56Z</time>
      </trkpt>
      <trkpt lat="47.21622" lon="-1.51945">
        <ele>54</ele>
        <time>2022-08-07T09:49:58Z</time>
      </trkpt>
      <trkpt lat="47.21619" lon="-1.51965">
        <ele>53</ele>
        <time>2022-08-07T09:50:00Z</time>
      </trkpt>
      <trkpt lat="47.21612" lon="-1.51981">
        <ele>54</ele>
        <time>2022-08-07T09:50:02Z</time>
      </trkpt>
      <trkpt lat="47.21604" lon="-1.51997">
        <ele>54</ele>
        <time>2022-08-07T09:50:04Z</time>
      </trkpt>
      <trkpt lat="47.21599" lon="-1.52014">
        <ele>53</ele>
        <time>2022-08-07T09:50:06Z</time>
      </trkpt>
      <trkpt lat="47.21594" lon="-1.52032">
        <ele>53</ele>
        <time>2022-08-07T09:50:08Z</time>
      </trkpt>
      <trkpt lat="47.21588" lon="-1.5205">
        <ele>53</ele>
        <time>2022-08-07T09:50:10Z</time>
      </trkpt>
      <trkpt lat="47.21583" lon="-1.52067">
        <ele>53</ele>
        <time>2022-08-07T09:50:12Z</time>
      </trkpt>
      <trkpt lat="47.21576" lon="-1.52083">
        <ele>53</ele>
        <time>2022-08-07T09:50:14Z</time>
      </trkpt>
      <trkpt lat="47.21569" lon="-1.521">
        <ele>53</ele>
        <time>2022-08-07T09:50:16Z</time>
      </trkpt>
      <trkpt lat="47.21562" lon="-1.52118">
        <ele>53</ele>
        <time>2022-08-07T09:50:18Z</time>
      </trkpt>
      <trkpt lat="47.21556" lon="-1.52137">
        <ele>53</ele>
        <time>2022-08-07T09:50:20Z</time>
      </trkpt>
      <trkpt lat="47.21551" lon="-1.52157">
        <ele>54</ele>
        <time>2022-08-07T09:50:22Z</time>
      </trkpt>
      <trkpt lat="47.21545" lon="-1.52177">
        <ele>54</ele>
        <time>2022-08-07T09:50:24Z</time>
      </trkpt>
      <trkpt lat="47.21538" lon="-1.52198">
        <ele>53</ele>
        <time>2022-08-07T09:50:26Z</time>
      </trkpt>
      <trkpt lat="47.21532" lon="-1.52217">
        <ele>54</ele>
        <time>2022-08-07T09:50:28Z</time>
      </trkpt>
      <trkpt lat="47.21526" lon="-1.52237">
        <ele>53</ele>
        <time>2022-08-07T09:50:30Z</time>
      </trkpt>
      <trkpt lat="47.21519" lon="-1.52256">
        <ele>54</ele>
        <time>2022-08-07T09:50:32Z</time>
      </trkpt>
      <trkpt lat="47.21513" lon="-1.52276">
        <ele>54</ele>
        <time>2022-08-07T09:50:34Z</time>
      </trkpt>
      <trkpt lat="47.21507" lon="-1.52296">
        <ele>53</ele>
        <time>2022-08-07T09:50:36Z</time>
      </trkpt>
      <trkpt lat="47.21501" lon="-1.52316">
        <ele>54</ele>
        <time>2022-08-07T09:50:38Z</time>
      </trkpt>
      <trkpt lat="47.21495" lon="-1.52334">
        <ele>53</ele>
        <time>2022-08-07T09:50:40Z</time>
      </trkpt>
      <trkpt lat="47.21489" lon="-1.52354">
        <ele>53</ele>
        <time>2022-08-07T09:50:42Z</time>
      </trkpt>
      <trkpt lat="47.21483" lon="-1.52374">
        <ele>53</ele>
        <time>2022-08-07T09:50:44Z</time>
      </trkpt>
      <trkpt lat="47.21477" lon="-1.52393">
        <ele>53</ele>
        <time>2022-08-07T09:50:46Z</time>
      </trkpt>
      <trkpt lat="47.2147" lon="-1.52411">
        <ele>53</ele>
        <time>2022-08-07T09:50:48Z</time>
      </trkpt>
      <trkpt lat="47.21464" lon="-1.52431">
        <ele>53</ele>
        <time>2022-08-07T09:50:50Z</time>
      </trkpt>
      <trkpt lat="47.21458" lon="-1.5245">
        <ele>53</ele>
        <time>2022-08-07T09:50:52Z</time>
      </trkpt>
      <trkpt lat="47.21452" lon="-1.52468">
        <ele>53</ele>
        <time>2022-08-07T09:50:54Z</time>
      </trkpt>
      <trkpt lat="47.21445" lon="-1.52488">
        <ele>54</ele>
        <time>2022-08-07T09:50:56Z</time>
      </trkpt>
      <trkpt lat="47.21439" lon="-1.52508">
        <ele>54</ele>
        <time>2022-08-07T09:50:58Z</time>
      </trkpt>
      <trkpt lat="47.21433" lon="-1.52528">
        <ele>54</ele>
        <time>2022-08-07T09:51:00Z</time>
      </trkpt>
      <trkpt lat="47.21426" lon="-1.52547">
        <ele>54</ele>
        <time>2022-08-07T09:51:02Z</time>
      </trkpt>
      <trkpt lat="47.2142" lon="-1.52566">
        <ele>54</ele>
        <time>2022-08-07T09:51:04Z</time>
      </trkpt>
      <trkpt lat="47.21414" lon="-1.52584">
        <ele>54</ele>
        <time>2022-08-07T09:51:06Z</time>
      </trkpt>
      <trkpt lat="47.21408" lon="-1.52603">
        <ele>53</ele>
        <time>2022-08-07T09:51:08Z</time>
      </trkpt>
      <trkpt lat="47.21401" lon="-1.52622">
        <ele>54</ele>
        <time>2022-08-07T09:51:10Z</time>
      </trkpt>
      <trkpt lat="47.21396" lon="-1.5264">
        <ele>53</ele>
        <time>2022-08-07T09:51:12Z</time>
      </trkpt>
      <trkpt lat="47.21391" lon="-1.52659">
        <ele>53</ele>
        <time>2022-08-07T09:51:14Z</time>
      </trkpt>
      <trkpt lat="47.21386" lon="-1.52678">
        <ele>53</ele>
        <time>2022-08-07T09:51:16Z</time>
      </trkpt>
      <trkpt lat="47.21382" lon="-1.527">
        <ele>53</ele>
        <time>2022-08-07T09:51:18Z</time>
      </trkpt>
      <trkpt lat="47.21376" lon="-1.52721">
        <ele>54</ele>
        <time>2022-08-07T09:51:20Z</time>
      </trkpt>
      <trkpt lat="47.21372" lon="-1.52744">
        <ele>54</ele>
        <time>2022-08-07T09:51:22Z</time>
      </trkpt>
      <trkpt lat="47.21368" lon="-1.52766">
        <ele>54</ele>
        <time>2022-08-07T09:51:24Z</time>
      </trkpt>
      <trkpt lat="47.21365" lon="-1.52785">
        <ele>55</ele>
        <time>2022-08-07T09:51:26Z</time>
      </trkpt>
      <trkpt lat="47.21362" lon="-1.52804">
        <ele>55</ele>
        <time>2022-08-07T09:51:28Z</time>
      </trkpt>
      <trkpt lat="47.21358" lon="-1.52823">
        <ele>54</ele>
        <time>2022-08-07T09:51:30Z</time>
      </trkpt>
      <trkpt lat="47.21353" lon="-1.52842">
        <ele>54</ele>
        <time>2022-08-07T09:51:32Z</time>
      </trkpt>
      <trkpt lat="47.21349" lon="-1.52863">
        <ele>54</ele>
        <time>2022-08-07T09:51:34Z</time>
      </trkpt>
      <trkpt lat="47.21345" lon="-1.52884">
        <ele>54</ele>
        <time>2022-08-07T09:51:36Z</time>
      </trkpt>
      <trkpt lat="47.21341" lon="-1.52904">
        <ele>53</ele>
        <time>2022-08-07T09:51:38Z</time>
      </trkpt>
      <trkpt lat="47.21338" lon="-1.52923">
        <ele>52</ele>
        <time>2022-08-07T09:51:40Z</time>
      </trkpt>
      <trkpt lat="47.21335" lon="-1.52942">
        <ele>52</ele>
        <time>2022-08-07T09:51:42Z</time>
      </trkpt>
      <trkpt lat="47.21333" lon="-1.5296">
        <ele>52</ele>
        <time>2022-08-07T09:51:44Z</time>
      </trkpt>
      <trkpt lat="47.21333" lon="-1.52981">
        <ele>54</ele>
        <time>2022-08-07T09:51:46Z</time>
      </trkpt>
      <trkpt lat="47.21332" lon="-1.53001">
        <ele>54</ele>
        <time>2022-08-07T09:51:48Z</time>
      </trkpt>
      <trkpt lat="47.2133" lon="-1.53021">
        <ele>54</ele>
        <time>2022-08-07T09:51:50Z</time>
      </trkpt>
      <trkpt lat="47.21328" lon="-1.53041">
        <ele>54</ele>
        <time>2022-08-07T09:51:52Z</time>
      </trkpt>
      <trkpt lat="47.21326" lon="-1.53062">
        <ele>53</ele>
        <time>2022-08-07T09:51:54Z</time>
      </trkpt>
      <trkpt lat="47.21326" lon="-1.53081">
        <ele>53</ele>
        <time>2022-08-07T09:51:56Z</time>
      </trkpt>
      <trkpt lat="47.21324" lon="-1.531">
        <ele>53</ele>
        <time>2022-08-07T09:51:58Z</time>
      </trkpt>
      <trkpt lat="47.21321" lon="-1.53119">
        <ele>52</ele>
        <time>2022-08-07T09:52:00Z</time>
      </trkpt>
      <trkpt lat="47.21318" lon="-1.53139">
        <ele>52</ele>
        <time>2022-08-07T09:52:02Z</time>
      </trkpt>
      <trkpt lat="47.21315" lon="-1.53159">
        <ele>52</ele>
        <time>2022-08-07T09:52:04Z</time>
      </trkpt>
      <trkpt lat="47.21313" lon="-1.53179">
        <ele>52</ele>
        <time>2022-08-07T09:52:06Z</time>
      </trkpt>
      <trkpt lat="47.2131" lon="-1.532">
        <ele>51</ele>
        <time>2022-08-07T09:52:08Z</time>
      </trkpt>
      <trkpt lat="47.21308" lon="-1.53221">
        <ele>51</ele>
        <time>2022-08-07T09:52:10Z</time>
      </trkpt>
      <trkpt lat="47.21307" lon="-1.53242">
        <ele>51</ele>
        <time>2022-08-07T09:52:12Z</time>
      </trkpt>
      <trkpt lat="47.21307" lon="-1.53262">
        <ele>51</ele>
        <time>2022-08-07T09:52:14Z</time>
      </trkpt>
      <trkpt lat="47.21307" lon="-1.53283">
        <ele>52</ele>
        <time>2022-08-07T09:52:16Z</time>
      </trkpt>
      <trkpt lat="47.21307" lon="-1.53304">
        <ele>52</ele>
        <time>2022-08-07T09:52:18Z</time>
      </trkpt>
      <trkpt lat="47.21305" lon="-1.53324">
        <ele>52</ele>
        <time>2022-08-07T09:52:20Z</time>
      </trkpt>
      <trkpt lat="47.21302" lon="-1.53344">
        <ele>52</ele>
        <time>2022-08-07T09:52:22Z</time>
      </trkpt>
      <trkpt lat="47.21298" lon="-1.53363">
        <ele>52</ele>
        <time>2022-08-07T09:52:24Z</time>
      </trkpt>
      <trkpt lat="47.21294" lon="-1.53383">
        <ele>52</ele>
        <time>2022-08-07T09:52:26Z</time>
      </trkpt>
      <trkpt lat="47.21292" lon="-1.53403">
        <ele>52</ele>
        <time>2022-08-07T09:52:28Z</time>
      </trkpt>
      <trkpt lat="47.2129" lon="-1.53422">
        <ele>52</ele>
        <time>2022-08-07T09:52:30Z</time>
      </trkpt>
      <trkpt lat="47.21289" lon="-1.53443">
        <ele>52</ele>
        <time>2022-08-07T09:52:32Z</time>
      </trkpt>
      <trkpt lat="47.2129" lon="-1.53462">
        <ele>52</ele>
        <time>2022-08-07T09:52:34Z</time>
      </trkpt>
      <trkpt lat="47.21296" lon="-1.53479">
        <ele>52</ele>
        <time>2022-08-07T09:52:36Z</time>
      </trkpt>
      <trkpt lat="47.213" lon="-1.53496">
        <ele>53</ele>
        <time>2022-08-07T09:52:38Z</time>
      </trkpt>
      <trkpt lat="47.213" lon="-1.53515">
        <ele>53</ele>
        <time>2022-08-07T09:52:40Z</time>
      </trkpt>
      <trkpt lat="47.21301" lon="-1.53534">
        <ele>53</ele>
        <time>2022-08-07T09:52:42Z</time>
      </trkpt>
      <trkpt lat="47.21301" lon="-1.53553">
        <ele>53</ele>
        <time>2022-08-07T09:52:44Z</time>
      </trkpt>
      <trkpt lat="47.21302" lon="-1.53572">
        <ele>53</ele>
        <time>2022-08-07T09:52:46Z</time>
      </trkpt>
      <trkpt lat="47.21303" lon="-1.5359">
        <ele>53</ele>
        <time>2022-08-07T09:52:48Z</time>
      </trkpt>
      <trkpt lat="47.21303" lon="-1.53608">
        <ele>52</ele>
        <time>2022-08-07T09:52:50Z</time>
      </trkpt>
      <trkpt lat="47.21303" lon="-1.53624">
        <ele>52</ele>
        <time>2022-08-07T09:52:52Z</time>
      </trkpt>
      <trkpt lat="47.21296" lon="-1.53634">
        <ele>53</ele>
        <time>2022-08-07T09:52:54Z</time>
      </trkpt>
      <trkpt lat="47.21292" lon="-1.53648">
        <ele>54</ele>
        <time>2022-08-07T09:53:02Z</time>
      </trkpt>
      <trkpt lat="47.21286" lon="-1.53659">
        <ele>55</ele>
        <time>2022-08-07T09:53:05Z</time>
      </trkpt>
      <trkpt lat="47.21277" lon="-1.53661">
        <ele>57</ele>
        <time>2022-08-07T09:53:07Z</time>
      </trkpt>
      <trkpt lat="47.21264" lon="-1.53661">
        <ele>59</ele>
        <time>2022-08-07T09:53:09Z</time>
      </trkpt>
      <trkpt lat="47.21254" lon="-1.53657">
        <ele>61</ele>
        <time>2022-08-07T09:53:11Z</time>
      </trkpt>
      <trkpt lat="47.21245" lon="-1.53652">
        <ele>63</ele>
        <time>2022-08-07T09:53:13Z</time>
      </trkpt>
      <trkpt lat="47.21233" lon="-1.53643">
        <ele>63</ele>
        <time>2022-08-07T09:53:16Z</time>
      </trkpt>
      <trkpt lat="47.21223" lon="-1.53636">
        <ele>62</ele>
        <time>2022-08-07T09:53:18Z</time>
      </trkpt>
      <trkpt lat="47.21214" lon="-1.5363">
        <ele>62</ele>
        <time>2022-08-07T09:53:20Z</time>
      </trkpt>
      <trkpt lat="47.21204" lon="-1.53624">
        <ele>61</ele>
        <time>2022-08-07T09:53:22Z</time>
      </trkpt>
      <trkpt lat="47.21195" lon="-1.53618">
        <ele>60</ele>
        <time>2022-08-07T09:53:24Z</time>
      </trkpt>
      <trkpt lat="47.21185" lon="-1.53613">
        <ele>60</ele>
        <time>2022-08-07T09:53:26Z</time>
      </trkpt>
      <trkpt lat="47.21175" lon="-1.53609">
        <ele>59</ele>
        <time>2022-08-07T09:53:28Z</time>
      </trkpt>
      <trkpt lat="47.21166" lon="-1.53604">
        <ele>59</ele>
        <time>2022-08-07T09:53:30Z</time>
      </trkpt>
      <trkpt lat="47.21156" lon="-1.536">
        <ele>58</ele>
        <time>2022-08-07T09:53:32Z</time>
      </trkpt>
      <trkpt lat="47.21147" lon="-1.53595">
        <ele>58</ele>
        <time>2022-08-07T09:53:34Z</time>
      </trkpt>
      <trkpt lat="47.21137" lon="-1.5359">
        <ele>58</ele>
        <time>2022-08-07T09:53:36Z</time>
      </trkpt>
      <trkpt lat="47.21127" lon="-1.53585">
        <ele>57</ele>
        <time>2022-08-07T09:53:38Z</time>
      </trkpt>
      <trkpt lat="47.21118" lon="-1.53581">
        <ele>57</ele>
        <time>2022-08-07T09:53:40Z</time>
      </trkpt>
      <trkpt lat="47.21108" lon="-1.53576">
        <ele>56</ele>
        <time>2022-08-07T09:53:42Z</time>
      </trkpt>
      <trkpt lat="47.21098" lon="-1.53571">
        <ele>56</ele>
        <time>2022-08-07T09:53:44Z</time>
      </trkpt>
      <trkpt lat="47.21088" lon="-1.53565">
        <ele>55</ele>
        <time>2022-08-07T09:53:46Z</time>
      </trkpt>
      <trkpt lat="47.21077" lon="-1.53561">
        <ele>55</ele>
        <time>2022-08-07T09:53:48Z</time>
      </trkpt>
      <trkpt lat="47.21065" lon="-1.53563">
        <ele>55</ele>
        <time>2022-08-07T09:53:50Z</time>
      </trkpt>
      <trkpt lat="47.21055" lon="-1.53577">
        <ele>54</ele>
        <time>2022-08-07T09:53:52Z</time>
      </trkpt>
      <trkpt lat="47.21053" lon="-1.53596">
        <ele>54</ele>
        <time>2022-08-07T09:53:54Z</time>
      </trkpt>
      <trkpt lat="47.21053" lon="-1.53615">
        <ele>54</ele>
        <time>2022-08-07T09:53:56Z</time>
      </trkpt>
      <trkpt lat="47.21052" lon="-1.53635">
        <ele>53</ele>
        <time>2022-08-07T09:53:58Z</time>
      </trkpt>
      <trkpt lat="47.21051" lon="-1.53654">
        <ele>53</ele>
        <time>2022-08-07T09:54:00Z</time>
      </trkpt>
      <trkpt lat="47.21049" lon="-1.53673">
        <ele>53</ele>
        <time>2022-08-07T09:54:02Z</time>
      </trkpt>
      <trkpt lat="47.21046" lon="-1.53691">
        <ele>53</ele>
        <time>2022-08-07T09:54:04Z</time>
      </trkpt>
      <trkpt lat="47.21041" lon="-1.53708">
        <ele>53</ele>
        <time>2022-08-07T09:54:06Z</time>
      </trkpt>
      <trkpt lat="47.21038" lon="-1.53726">
        <ele>54</ele>
        <time>2022-08-07T09:54:08Z</time>
      </trkpt>
      <trkpt lat="47.21035" lon="-1.53745">
        <ele>53</ele>
        <time>2022-08-07T09:54:10Z</time>
      </trkpt>
      <trkpt lat="47.21031" lon="-1.53765">
        <ele>53</ele>
        <time>2022-08-07T09:54:12Z</time>
      </trkpt>
      <trkpt lat="47.21026" lon="-1.53781">
        <ele>53</ele>
        <time>2022-08-07T09:54:14Z</time>
      </trkpt>
      <trkpt lat="47.21022" lon="-1.53796">
        <ele>53</ele>
        <time>2022-08-07T09:54:16Z</time>
      </trkpt>
      <trkpt lat="47.21023" lon="-1.53816">
        <ele>53</ele>
        <time>2022-08-07T09:54:18Z</time>
      </trkpt>
      <trkpt lat="47.21021" lon="-1.53833">
        <ele>52</ele>
        <time>2022-08-07T09:54:20Z</time>
      </trkpt>
      <trkpt lat="47.21015" lon="-1.53848">
        <ele>53</ele>
        <time>2022-08-07T09:54:22Z</time>
      </trkpt>
      <trkpt lat="47.21009" lon="-1.53864">
        <ele>52</ele>
        <time>2022-08-07T09:54:24Z</time>
      </trkpt>
      <trkpt lat="47.21002" lon="-1.5388">
        <ele>52</ele>
        <time>2022-08-07T09:54:26Z</time>
      </trkpt>
      <trkpt lat="47.20996" lon="-1.53897">
        <ele>52</ele>
        <time>2022-08-07T09:54:28Z</time>
      </trkpt>
      <trkpt lat="47.20994" lon="-1.53916">
        <ele>52</ele>
        <time>2022-08-07T09:54:30Z</time>
      </trkpt>
      <trkpt lat="47.2099" lon="-1.53935">
        <ele>52</ele>
        <time>2022-08-07T09:54:32Z</time>
      </trkpt>
      <trkpt lat="47.20985" lon="-1.53953">
        <ele>52</ele>
        <time>2022-08-07T09:54:34Z</time>
      </trkpt>
      <trkpt lat="47.2098" lon="-1.53971">
        <ele>53</ele>
        <time>2022-08-07T09:54:36Z</time>
      </trkpt>
      <trkpt lat="47.20975" lon="-1.53991">
        <ele>52</ele>
        <time>2022-08-07T09:54:38Z</time>
      </trkpt>
      <trkpt lat="47.20971" lon="-1.54011">
        <ele>52</ele>
        <time>2022-08-07T09:54:40Z</time>
      </trkpt>
      <trkpt lat="47.20965" lon="-1.5403">
        <ele>53</ele>
        <time>2022-08-07T09:54:42Z</time>
      </trkpt>
      <trkpt lat="47.2096" lon="-1.54051">
        <ele>53</ele>
        <time>2022-08-07T09:54:44Z</time>
      </trkpt>
      <trkpt lat="47.20954" lon="-1.54071">
        <ele>53</ele>
        <time>2022-08-07T09:54:46Z</time>
      </trkpt>
      <trkpt lat="47.20947" lon="-1.54091">
        <ele>53</ele>
        <time>2022-08-07T09:54:48Z</time>
      </trkpt>
      <trkpt lat="47.20941" lon="-1.54113">
        <ele>53</ele>
        <time>2022-08-07T09:54:50Z</time>
      </trkpt>
      <trkpt lat="47.20934" lon="-1.54134">
        <ele>53</ele>
        <time>2022-08-07T09:54:52Z</time>
      </trkpt>
      <trkpt lat="47.20928" lon="-1.54153">
        <ele>53</ele>
        <time>2022-08-07T09:54:54Z</time>
      </trkpt>
      <trkpt lat="47.20921" lon="-1.54173">
        <ele>54</ele>
        <time>2022-08-07T09:54:56Z</time>
      </trkpt>
      <trkpt lat="47.20916" lon="-1.54191">
        <ele>55</ele>
        <time>2022-08-07T09:54:58Z</time>
      </trkpt>
      <trkpt lat="47.2091" lon="-1.54209">
        <ele>56</ele>
        <time>2022-08-07T09:55:00Z</time>
      </trkpt>
      <trkpt lat="47.20905" lon="-1.54228">
        <ele>56</ele>
        <time>2022-08-07T09:55:02Z</time>
      </trkpt>
      <trkpt lat="47.20899" lon="-1.54247">
        <ele>56</ele>
        <time>2022-08-07T09:55:04Z</time>
      </trkpt>
      <trkpt lat="47.20893" lon="-1.54266">
        <ele>56</ele>
        <time>2022-08-07T09:55:06Z</time>
      </trkpt>
      <trkpt lat="47.20885" lon="-1.54282">
        <ele>56</ele>
        <time>2022-08-07T09:55:08Z</time>
      </trkpt>
      <trkpt lat="47.20879" lon="-1.543">
        <ele>56</ele>
        <time>2022-08-07T09:55:10Z</time>
      </trkpt>
      <trkpt lat="47.20873" lon="-1.54319">
        <ele>56</ele>
        <time>2022-08-07T09:55:12Z</time>
      </trkpt>
      <trkpt lat="47.20867" lon="-1.54337">
        <ele>57</ele>
        <time>2022-08-07T09:55:14Z</time>
      </trkpt>
      <trkpt lat="47.20861" lon="-1.54354">
        <ele>57</ele>
        <time>2022-08-07T09:55:16Z</time>
      </trkpt>
      <trkpt lat="47.20856" lon="-1.54372">
        <ele>57</ele>
        <time>2022-08-07T09:55:18Z</time>
      </trkpt>
      <trkpt lat="47.20849" lon="-1.5439">
        <ele>56</ele>
        <time>2022-08-07T09:55:20Z</time>
      </trkpt>
      <trkpt lat="47.20843" lon="-1.54409">
        <ele>56</ele>
        <time>2022-08-07T09:55:22Z</time>
      </trkpt>
      <trkpt lat="47.20837" lon="-1.54429">
        <ele>57</ele>
        <time>2022-08-07T09:55:24Z</time>
      </trkpt>
      <trkpt lat="47.20831" lon="-1.54447">
        <ele>57</ele>
        <time>2022-08-07T09:55:26Z</time>
      </trkpt>
      <trkpt lat="47.20826" lon="-1.54465">
        <ele>57</ele>
        <time>2022-08-07T09:55:28Z</time>
      </trkpt>
      <trkpt lat="47.20821" lon="-1.54483">
        <ele>57</ele>
        <time>2022-08-07T09:55:30Z</time>
      </trkpt>
      <trkpt lat="47.20815" lon="-1.545">
        <ele>57</ele>
        <time>2022-08-07T09:55:32Z</time>
      </trkpt>
      <trkpt lat="47.20809" lon="-1.54517">
        <ele>56</ele>
        <time>2022-08-07T09:55:34Z</time>
      </trkpt>
      <trkpt lat="47.20804" lon="-1.54535">
        <ele>56</ele>
        <time>2022-08-07T09:55:36Z</time>
      </trkpt>
      <trkpt lat="47.20798" lon="-1.54553">
        <ele>56</ele>
        <time>2022-08-07T09:55:38Z</time>
      </trkpt>
      <trkpt lat="47.20792" lon="-1.5457">
        <ele>56</ele>
        <time>2022-08-07T09:55:40Z</time>
      </trkpt>
      <trkpt lat="47.20787" lon="-1.54588">
        <ele>56</ele>
        <time>2022-08-07T09:55:42Z</time>
      </trkpt>
      <trkpt lat="47.20781" lon="-1.54606">
        <ele>55</ele>
        <time>2022-08-07T09:55:44Z</time>
      </trkpt>
      <trkpt lat="47.20776" lon="-1.54624">
        <ele>55</ele>
        <time>2022-08-07T09:55:46Z</time>
      </trkpt>
      <trkpt lat="47.2077" lon="-1.54642">
        <ele>55</ele>
        <time>2022-08-07T09:55:48Z</time>
      </trkpt>
      <trkpt lat="47.20765" lon="-1.5466">
        <ele>55</ele>
        <time>2022-08-07T09:55:50Z</time>
      </trkpt>
      <trkpt lat="47.20759" lon="-1.54678">
        <ele>55</ele>
        <time>2022-08-07T09:55:52Z</time>
      </trkpt>
      <trkpt lat="47.20754" lon="-1.54696">
        <ele>55</ele>
        <time>2022-08-07T09:55:54Z</time>
      </trkpt>
      <trkpt lat="47.20748" lon="-1.54714">
        <ele>55</ele>
        <time>2022-08-07T09:55:56Z</time>
      </trkpt>
      <trkpt lat="47.20742" lon="-1.54732">
        <ele>55</ele>
        <time>2022-08-07T09:55:58Z</time>
      </trkpt>
      <trkpt lat="47.20737" lon="-1.5475">
        <ele>54</ele>
        <time>2022-08-07T09:56:00Z</time>
      </trkpt>
      <trkpt lat="47.20731" lon="-1.54767">
        <ele>55</ele>
        <time>2022-08-07T09:56:02Z</time>
      </trkpt>
      <trkpt lat="47.20725" lon="-1.54784">
        <ele>55</ele>
        <time>2022-08-07T09:56:04Z</time>
      </trkpt>
      <trkpt lat="47.20721" lon="-1.548">
        <ele>55</ele>
        <time>2022-08-07T09:56:06Z</time>
      </trkpt>
      <trkpt lat="47.20718" lon="-1.54816">
        <ele>55</ele>
        <time>2022-08-07T09:56:08Z</time>
      </trkpt>
      <trkpt lat="47.20715" lon="-1.54832">
        <ele>55</ele>
        <time>2022-08-07T09:56:10Z</time>
      </trkpt>
      <trkpt lat="47.20714" lon="-1.54848">
        <ele>55</ele>
        <time>2022-08-07T09:56:13Z</time>
      </trkpt>
      <trkpt lat="47.20711" lon="-1.54864">
        <ele>56</ele>
        <time>2022-08-07T09:56:17Z</time>
      </trkpt>
      <trkpt lat="47.20707" lon="-1.54877">
        <ele>55</ele>
        <time>2022-08-07T09:56:19Z</time>
      </trkpt>
      <trkpt lat="47.20703" lon="-1.5489">
        <ele>55</ele>
        <time>2022-08-07T09:56:21Z</time>
      </trkpt>
      <trkpt lat="47.20698" lon="-1.54906">
        <ele>55</ele>
        <time>2022-08-07T09:56:23Z</time>
      </trkpt>
      <trkpt lat="47.20693" lon="-1.54922">
        <ele>54</ele>
        <time>2022-08-07T09:56:25Z</time>
      </trkpt>
      <trkpt lat="47.2069" lon="-1.54941">
        <ele>53</ele>
        <time>2022-08-07T09:56:27Z</time>
      </trkpt>
      <trkpt lat="47.20689" lon="-1.54961">
        <ele>53</ele>
        <time>2022-08-07T09:56:29Z</time>
      </trkpt>
      <trkpt lat="47.20689" lon="-1.54981">
        <ele>53</ele>
        <time>2022-08-07T09:56:31Z</time>
      </trkpt>
      <trkpt lat="47.20689" lon="-1.55001">
        <ele>53</ele>
        <time>2022-08-07T09:56:33Z</time>
      </trkpt>
      <trkpt lat="47.20689" lon="-1.55021">
        <ele>53</ele>
        <time>2022-08-07T09:56:35Z</time>
      </trkpt>
      <trkpt lat="47.20688" lon="-1.55041">
        <ele>53</ele>
        <time>2022-08-07T09:56:37Z</time>
      </trkpt>
      <trkpt lat="47.20688" lon="-1.55061">
        <ele>53</ele>
        <time>2022-08-07T09:56:39Z</time>
      </trkpt>
      <trkpt lat="47.20687" lon="-1.55082">
        <ele>53</ele>
        <time>2022-08-07T09:56:41Z</time>
      </trkpt>
      <trkpt lat="47.20687" lon="-1.55101">
        <ele>52</ele>
        <time>2022-08-07T09:56:43Z</time>
      </trkpt>
      <trkpt lat="47.20686" lon="-1.5512">
        <ele>52</ele>
        <time>2022-08-07T09:56:45Z</time>
      </trkpt>
      <trkpt lat="47.20685" lon="-1.5514">
        <ele>52</ele>
        <time>2022-08-07T09:56:47Z</time>
      </trkpt>
      <trkpt lat="47.20684" lon="-1.55159">
        <ele>52</ele>
        <time>2022-08-07T09:56:49Z</time>
      </trkpt>
      <trkpt lat="47.20683" lon="-1.55179">
        <ele>52</ele>
        <time>2022-08-07T09:56:51Z</time>
      </trkpt>
      <trkpt lat="47.20682" lon="-1.55199">
        <ele>52</ele>
        <time>2022-08-07T09:56:53Z</time>
      </trkpt>
      <trkpt lat="47.20681" lon="-1.55219">
        <ele>52</ele>
        <time>2022-08-07T09:56:55Z</time>
      </trkpt>
      <trkpt lat="47.2068" lon="-1.5524">
        <ele>52</ele>
        <time>2022-08-07T09:56:57Z</time>
      </trkpt>
      <trkpt lat="47.20678" lon="-1.55259">
        <ele>52</ele>
        <time>2022-08-07T09:56:59Z</time>
      </trkpt>
      <trkpt lat="47.20675" lon="-1.55278">
        <ele>51</ele>
        <time>2022-08-07T09:57:01Z</time>
      </trkpt>
      <trkpt lat="47.20673" lon="-1.55298">
        <ele>52</ele>
        <time>2022-08-07T09:57:03Z</time>
      </trkpt>
      <trkpt lat="47.20671" lon="-1.55318">
        <ele>52</ele>
        <time>2022-08-07T09:57:05Z</time>
      </trkpt>
      <trkpt lat="47.2067" lon="-1.55338">
        <ele>52</ele>
        <time>2022-08-07T09:57:07Z</time>
      </trkpt>
      <trkpt lat="47.20668" lon="-1.55356">
        <ele>51</ele>
        <time>2022-08-07T09:57:09Z</time>
      </trkpt>
      <trkpt lat="47.20666" lon="-1.55376">
        <ele>51</ele>
        <time>2022-08-07T09:57:11Z</time>
      </trkpt>
      <trkpt lat="47.20664" lon="-1.55395">
        <ele>51</ele>
        <time>2022-08-07T09:57:13Z</time>
      </trkpt>
      <trkpt lat="47.20662" lon="-1.55414">
        <ele>52</ele>
        <time>2022-08-07T09:57:15Z</time>
      </trkpt>
      <trkpt lat="47.2066" lon="-1.55431">
        <ele>52</ele>
        <time>2022-08-07T09:57:17Z</time>
      </trkpt>
      <trkpt lat="47.20657" lon="-1.55449">
        <ele>52</ele>
        <time>2022-08-07T09:57:19Z</time>
      </trkpt>
      <trkpt lat="47.20655" lon="-1.55468">
        <ele>52</ele>
        <time>2022-08-07T09:57:21Z</time>
      </trkpt>
      <trkpt lat="47.20649" lon="-1.55484">
        <ele>52</ele>
        <time>2022-08-07T09:57:23Z</time>
      </trkpt>
      <trkpt lat="47.20638" lon="-1.5549">
        <ele>53</ele>
        <time>2022-08-07T09:57:25Z</time>
      </trkpt>
      <trkpt lat="47.20624" lon="-1.5549">
        <ele>54</ele>
        <time>2022-08-07T09:57:27Z</time>
      </trkpt>
      <trkpt lat="47.20612" lon="-1.55488">
        <ele>54</ele>
        <time>2022-08-07T09:57:29Z</time>
      </trkpt>
      <trkpt lat="47.20598" lon="-1.55486">
        <ele>55</ele>
        <time>2022-08-07T09:57:31Z</time>
      </trkpt>
      <trkpt lat="47.20585" lon="-1.55484">
        <ele>56</ele>
        <time>2022-08-07T09:57:33Z</time>
      </trkpt>
      <trkpt lat="47.20572" lon="-1.55481">
        <ele>57</ele>
        <time>2022-08-07T09:57:35Z</time>
      </trkpt>
      <trkpt lat="47.20563" lon="-1.55486">
        <ele>56</ele>
        <time>2022-08-07T09:57:37Z</time>
      </trkpt>
      <trkpt lat="47.20553" lon="-1.55495">
        <ele>57</ele>
        <time>2022-08-07T09:57:39Z</time>
      </trkpt>
      <trkpt lat="47.20545" lon="-1.55503">
        <ele>57</ele>
        <time>2022-08-07T09:57:41Z</time>
      </trkpt>
      <trkpt lat="47.20533" lon="-1.55508">
        <ele>58</ele>
        <time>2022-08-07T09:57:43Z</time>
      </trkpt>
      <trkpt lat="47.2052" lon="-1.55501">
        <ele>58</ele>
        <time>2022-08-07T09:57:45Z</time>
      </trkpt>
      <trkpt lat="47.20509" lon="-1.55488">
        <ele>58</ele>
        <time>2022-08-07T09:57:47Z</time>
      </trkpt>
      <trkpt lat="47.20502" lon="-1.55472">
        <ele>58</ele>
        <time>2022-08-07T09:57:49Z</time>
      </trkpt>
      <trkpt lat="47.20502" lon="-1.55455">
        <ele>59</ele>
        <time>2022-08-07T09:57:51Z</time>
      </trkpt>
      <trkpt lat="47.20505" lon="-1.55438">
        <ele>59</ele>
        <time>2022-08-07T09:57:53Z</time>
      </trkpt>
      <trkpt lat="47.20503" lon="-1.55421">
        <ele>58</ele>
        <time>2022-08-07T09:57:55Z</time>
      </trkpt>
      <trkpt lat="47.20496" lon="-1.55408">
        <ele>58</ele>
        <time>2022-08-07T09:57:57Z</time>
      </trkpt>
      <trkpt lat="47.2049" lon="-1.55397">
        <ele>58</ele>
        <time>2022-08-07T09:57:59Z</time>
      </trkpt>
      <trkpt lat="47.20484" lon="-1.55383">
        <ele>59</ele>
        <time>2022-08-07T09:58:02Z</time>
      </trkpt>
      <trkpt lat="47.20478" lon="-1.55371">
        <ele>60</ele>
        <time>2022-08-07T09:58:06Z</time>
      </trkpt>
      <trkpt lat="47.2047" lon="-1.55362">
        <ele>59</ele>
        <time>2022-08-07T09:58:11Z</time>
      </trkpt>
      <trkpt lat="47.20463" lon="-1.55353">
        <ele>62</ele>
        <time>2022-08-07T09:58:26Z</time>
      </trkpt>
      <trkpt lat="47.20457" lon="-1.55335">
        <ele>62</ele>
        <time>2022-08-07T09:58:29Z</time>
      </trkpt>
      <trkpt lat="47.20451" lon="-1.5532">
        <ele>64</ele>
        <time>2022-08-07T09:58:31Z</time>
      </trkpt>
      <trkpt lat="47.20445" lon="-1.55306">
        <ele>64</ele>
        <time>2022-08-07T09:58:33Z</time>
      </trkpt>
      <trkpt lat="47.20439" lon="-1.55291">
        <ele>66</ele>
        <time>2022-08-07T09:58:35Z</time>
      </trkpt>
      <trkpt lat="47.20429" lon="-1.55271">
        <ele>66</ele>
        <time>2022-08-07T09:58:37Z</time>
      </trkpt>
      <trkpt lat="47.2042" lon="-1.55254">
        <ele>66</ele>
        <time>2022-08-07T09:58:39Z</time>
      </trkpt>
      <trkpt lat="47.20413" lon="-1.55239">
        <ele>66</ele>
        <time>2022-08-07T09:58:41Z</time>
      </trkpt>
      <trkpt lat="47.20406" lon="-1.55224">
        <ele>65</ele>
        <time>2022-08-07T09:58:43Z</time>
      </trkpt>
      <trkpt lat="47.20399" lon="-1.5521">
        <ele>64</ele>
        <time>2022-08-07T09:58:45Z</time>
      </trkpt>
      <trkpt lat="47.20393" lon="-1.55197">
        <ele>65</ele>
        <time>2022-08-07T09:58:47Z</time>
      </trkpt>
      <trkpt lat="47.20385" lon="-1.55186">
        <ele>64</ele>
        <time>2022-08-07T09:58:49Z</time>
      </trkpt>
      <trkpt lat="47.20374" lon="-1.5519">
        <ele>64</ele>
        <time>2022-08-07T09:58:51Z</time>
      </trkpt>
      <trkpt lat="47.20362" lon="-1.55202">
        <ele>61</ele>
        <time>2022-08-07T09:58:53Z</time>
      </trkpt>
      <trkpt lat="47.2035" lon="-1.55216">
        <ele>61</ele>
        <time>2022-08-07T09:58:55Z</time>
      </trkpt>
      <trkpt lat="47.2034" lon="-1.55231">
        <ele>59</ele>
        <time>2022-08-07T09:58:57Z</time>
      </trkpt>
      <trkpt lat="47.20329" lon="-1.55244">
        <ele>59</ele>
        <time>2022-08-07T09:58:59Z</time>
      </trkpt>
      <trkpt lat="47.20319" lon="-1.55259">
        <ele>59</ele>
        <time>2022-08-07T09:59:01Z</time>
      </trkpt>
      <trkpt lat="47.2031" lon="-1.5527">
        <ele>60</ele>
        <time>2022-08-07T09:59:03Z</time>
      </trkpt>
      <trkpt lat="47.20301" lon="-1.5528">
        <ele>61</ele>
        <time>2022-08-07T09:59:05Z</time>
      </trkpt>
      <trkpt lat="47.20294" lon="-1.55291">
        <ele>62</ele>
        <time>2022-08-07T09:59:07Z</time>
      </trkpt>
      <trkpt lat="47.20282" lon="-1.55309">
        <ele>62</ele>
        <time>2022-08-07T09:59:10Z</time>
      </trkpt>
      <trkpt lat="47.20273" lon="-1.55322">
        <ele>62</ele>
        <time>2022-08-07T09:59:12Z</time>
      </trkpt>
      <trkpt lat="47.20263" lon="-1.55334">
        <ele>62</ele>
        <time>2022-08-07T09:59:14Z</time>
      </trkpt>
      <trkpt lat="47.20254" lon="-1.55348">
        <ele>61</ele>
        <time>2022-08-07T09:59:16Z</time>
      </trkpt>
      <trkpt lat="47.20244" lon="-1.55361">
        <ele>61</ele>
        <time>2022-08-07T09:59:18Z</time>
      </trkpt>
      <trkpt lat="47.20234" lon="-1.55375">
        <ele>59</ele>
        <time>2022-08-07T09:59:20Z</time>
      </trkpt>
      <trkpt lat="47.20224" lon="-1.55388">
        <ele>59</ele>
        <time>2022-08-07T09:59:22Z</time>
      </trkpt>
      <trkpt lat="47.20211" lon="-1.55406">
        <ele>59</ele>
        <time>2022-08-07T09:59:25Z</time>
      </trkpt>
      <trkpt lat="47.20204" lon="-1.55418">
        <ele>58</ele>
        <time>2022-08-07T09:59:27Z</time>
      </trkpt>
      <trkpt lat="47.20196" lon="-1.55432">
        <ele>58</ele>
        <time>2022-08-07T09:59:29Z</time>
      </trkpt>
      <trkpt lat="47.20187" lon="-1.55446">
        <ele>58</ele>
        <time>2022-08-07T09:59:31Z</time>
      </trkpt>
      <trkpt lat="47.20182" lon="-1.55463">
        <ele>57</ele>
        <time>2022-08-07T09:59:33Z</time>
      </trkpt>
      <trkpt lat="47.20179" lon="-1.55479">
        <ele>57</ele>
        <time>2022-08-07T09:59:35Z</time>
      </trkpt>
      <trkpt lat="47.20177" lon="-1.55496">
        <ele>56</ele>
        <time>2022-08-07T09:59:37Z</time>
      </trkpt>
      <trkpt lat="47.20178" lon="-1.55513">
        <ele>55</ele>
        <time>2022-08-07T09:59:39Z</time>
      </trkpt>
      <trkpt lat="47.20184" lon="-1.55527">
        <ele>55</ele>
        <time>2022-08-07T09:59:41Z</time>
      </trkpt>
      <trkpt lat="47.20193" lon="-1.55536">
        <ele>54</ele>
        <time>2022-08-07T09:59:43Z</time>
      </trkpt>
      <trkpt lat="47.20203" lon="-1.55542">
        <ele>54</ele>
        <time>2022-08-07T09:59:45Z</time>
      </trkpt>
      <trkpt lat="47.20214" lon="-1.55546">
        <ele>54</ele>
        <time>2022-08-07T09:59:47Z</time>
      </trkpt>
      <trkpt lat="47.20224" lon="-1.5555">
        <ele>54</ele>
        <time>2022-08-07T09:59:49Z</time>
      </trkpt>
      <trkpt lat="47.20234" lon="-1.55554">
        <ele>54</ele>
        <time>2022-08-07T09:59:51Z</time>
      </trkpt>
      <trkpt lat="47.20244" lon="-1.55559">
        <ele>54</ele>
        <time>2022-08-07T09:59:53Z</time>
      </trkpt>
      <trkpt lat="47.20255" lon="-1.55564">
        <ele>54</ele>
        <time>2022-08-07T09:59:55Z</time>
      </trkpt>
      <trkpt lat="47.20266" lon="-1.55566">
        <ele>54</ele>
        <time>2022-08-07T09:59:57Z</time>
      </trkpt>
      <trkpt lat="47.20277" lon="-1.55568">
        <ele>54</ele>
        <time>2022-08-07T09:59:59Z</time>
      </trkpt>
      <trkpt lat="47.20288" lon="-1.55574">
        <ele>55</ele>
        <time>2022-08-07T10:00:01Z</time>
      </trkpt>
      <trkpt lat="47.20295" lon="-1.55585">
        <ele>54</ele>
        <time>2022-08-07T10:00:03Z</time>
      </trkpt>
      <trkpt lat="47.20297" lon="-1.55601">
        <ele>54</ele>
        <time>2022-08-07T10:00:05Z</time>
      </trkpt>
      <trkpt lat="47.20295" lon="-1.55617">
        <ele>54</ele>
        <time>2022-08-07T10:00:07Z</time>
      </trkpt>
      <trkpt lat="47.20293" lon="-1.55634">
        <ele>54</ele>
        <time>2022-08-07T10:00:09Z</time>
      </trkpt>
      <trkpt lat="47.20292" lon="-1.55652">
        <ele>54</ele>
        <time>2022-08-07T10:00:11Z</time>
      </trkpt>
      <trkpt lat="47.2029" lon="-1.5567">
        <ele>54</ele>
        <time>2022-08-07T10:00:13Z</time>
      </trkpt>
      <trkpt lat="47.20288" lon="-1.55688">
        <ele>54</ele>
        <time>2022-08-07T10:00:15Z</time>
      </trkpt>
      <trkpt lat="47.20286" lon="-1.55707">
        <ele>55</ele>
        <time>2022-08-07T10:00:17Z</time>
      </trkpt>
      <trkpt lat="47.20284" lon="-1.55725">
        <ele>55</ele>
        <time>2022-08-07T10:00:19Z</time>
      </trkpt>
      <trkpt lat="47.20281" lon="-1.55744">
        <ele>55</ele>
        <time>2022-08-07T10:00:21Z</time>
      </trkpt>
      <trkpt lat="47.2028" lon="-1.55763">
        <ele>55</ele>
        <time>2022-08-07T10:00:23Z</time>
      </trkpt>
      <trkpt lat="47.20278" lon="-1.55782">
        <ele>54</ele>
        <time>2022-08-07T10:00:25Z</time>
      </trkpt>
      <trkpt lat="47.20276" lon="-1.55801">
        <ele>55</ele>
        <time>2022-08-07T10:00:27Z</time>
      </trkpt>
      <trkpt lat="47.20274" lon="-1.5582">
        <ele>55</ele>
        <time>2022-08-07T10:00:29Z</time>
      </trkpt>
      <trkpt lat="47.20272" lon="-1.55839">
        <ele>55</ele>
        <time>2022-08-07T10:00:31Z</time>
      </trkpt>
      <trkpt lat="47.2027" lon="-1.55859">
        <ele>55</ele>
        <time>2022-08-07T10:00:33Z</time>
      </trkpt>
      <trkpt lat="47.20267" lon="-1.55877">
        <ele>55</ele>
        <time>2022-08-07T10:00:35Z</time>
      </trkpt>
      <trkpt lat="47.20265" lon="-1.55896">
        <ele>55</ele>
        <time>2022-08-07T10:00:37Z</time>
      </trkpt>
      <trkpt lat="47.20263" lon="-1.55915">
        <ele>55</ele>
        <time>2022-08-07T10:00:39Z</time>
      </trkpt>
      <trkpt lat="47.20261" lon="-1.55933">
        <ele>54</ele>
        <time>2022-08-07T10:00:41Z</time>
      </trkpt>
      <trkpt lat="47.20259" lon="-1.55952">
        <ele>54</ele>
        <time>2022-08-07T10:00:43Z</time>
      </trkpt>
      <trkpt lat="47.20257" lon="-1.5597">
        <ele>54</ele>
        <time>2022-08-07T10:00:45Z</time>
      </trkpt>
      <trkpt lat="47.20255" lon="-1.55988">
        <ele>54</ele>
        <time>2022-08-07T10:00:47Z</time>
      </trkpt>
      <trkpt lat="47.20254" lon="-1.56006">
        <ele>54</ele>
        <time>2022-08-07T10:00:49Z</time>
      </trkpt>
      <trkpt lat="47.20252" lon="-1.56025">
        <ele>54</ele>
        <time>2022-08-07T10:00:51Z</time>
      </trkpt>
      <trkpt lat="47.20249" lon="-1.56044">
        <ele>54</ele>
        <time>2022-08-07T10:00:53Z</time>
      </trkpt>
      <trkpt lat="47.20247" lon="-1.56063">
        <ele>54</ele>
        <time>2022-08-07T10:00:55Z</time>
      </trkpt>
      <trkpt lat="47.20245" lon="-1.56082">
        <ele>54</ele>
        <time>2022-08-07T10:00:57Z</time>
      </trkpt>
      <trkpt lat="47.20243" lon="-1.561">
        <ele>54</ele>
        <time>2022-08-07T10:00:59Z</time>
      </trkpt>
      <trkpt lat="47.20241" lon="-1.56118">
        <ele>54</ele>
        <time>2022-08-07T10:01:01Z</time>
      </trkpt>
      <trkpt lat="47.20237" lon="-1.56135">
        <ele>54</ele>
        <time>2022-08-07T10:01:03Z</time>
      </trkpt>
      <trkpt lat="47.2023" lon="-1.5615">
        <ele>54</ele>
        <time>2022-08-07T10:01:05Z</time>
      </trkpt>
      <trkpt lat="47.2022" lon="-1.5616">
        <ele>54</ele>
        <time>2022-08-07T10:01:07Z</time>
      </trkpt>
      <trkpt lat="47.2021" lon="-1.56169">
        <ele>54</ele>
        <time>2022-08-07T10:01:09Z</time>
      </trkpt>
      <trkpt lat="47.20199" lon="-1.56175">
        <ele>54</ele>
        <time>2022-08-07T10:01:11Z</time>
      </trkpt>
      <trkpt lat="47.20188" lon="-1.56182">
        <ele>54</ele>
        <time>2022-08-07T10:01:13Z</time>
      </trkpt>
      <trkpt lat="47.20179" lon="-1.56193">
        <ele>54</ele>
        <time>2022-08-07T10:01:15Z</time>
      </trkpt>
      <trkpt lat="47.20168" lon="-1.56197">
        <ele>54</ele>
        <time>2022-08-07T10:01:17Z</time>
      </trkpt>
      <trkpt lat="47.20157" lon="-1.5619">
        <ele>54</ele>
        <time>2022-08-07T10:01:19Z</time>
      </trkpt>
      <trkpt lat="47.20147" lon="-1.56183">
        <ele>53</ele>
        <time>2022-08-07T10:01:21Z</time>
      </trkpt>
      <trkpt lat="47.20135" lon="-1.56182">
        <ele>54</ele>
        <time>2022-08-07T10:01:23Z</time>
      </trkpt>
      <trkpt lat="47.20123" lon="-1.56182">
        <ele>53</ele>
        <time>2022-08-07T10:01:25Z</time>
      </trkpt>
      <trkpt lat="47.20111" lon="-1.56182">
        <ele>54</ele>
        <time>2022-08-07T10:01:27Z</time>
      </trkpt>
      <trkpt lat="47.20098" lon="-1.56182">
        <ele>54</ele>
        <time>2022-08-07T10:01:29Z</time>
      </trkpt>
      <trkpt lat="47.20086" lon="-1.56182">
        <ele>54</ele>
        <time>2022-08-07T10:01:31Z</time>
      </trkpt>
      <trkpt lat="47.20074" lon="-1.56183">
        <ele>54</ele>
        <time>2022-08-07T10:01:33Z</time>
      </trkpt>
      <trkpt lat="47.20061" lon="-1.56182">
        <ele>54</ele>
        <time>2022-08-07T10:01:35Z</time>
      </trkpt>
      <trkpt lat="47.20048" lon="-1.56183">
        <ele>54</ele>
        <time>2022-08-07T10:01:37Z</time>
      </trkpt>
      <trkpt lat="47.20036" lon="-1.56184">
        <ele>54</ele>
        <time>2022-08-07T10:01:39Z</time>
      </trkpt>
      <trkpt lat="47.20024" lon="-1.56184">
        <ele>54</ele>
        <time>2022-08-07T10:01:41Z</time>
      </trkpt>
      <trkpt lat="47.20012" lon="-1.56187">
        <ele>53</ele>
        <time>2022-08-07T10:01:43Z</time>
      </trkpt>
      <trkpt lat="47.20002" lon="-1.56192">
        <ele>53</ele>
        <time>2022-08-07T10:01:45Z</time>
      </trkpt>
      <trkpt lat="47.19992" lon="-1.56195">
        <ele>53</ele>
        <time>2022-08-07T10:01:47Z</time>
      </trkpt>
      <trkpt lat="47.19981" lon="-1.56194">
        <ele>54</ele>
        <time>2022-08-07T10:01:49Z</time>
      </trkpt>
      <trkpt lat="47.19975" lon="-1.56181">
        <ele>55</ele>
        <time>2022-08-07T10:01:51Z</time>
      </trkpt>
      <trkpt lat="47.19968" lon="-1.5617">
        <ele>56</ele>
        <time>2022-08-07T10:01:53Z</time>
      </trkpt>
      <trkpt lat="47.19959" lon="-1.56168">
        <ele>57</ele>
        <time>2022-08-07T10:01:55Z</time>
      </trkpt>
      <trkpt lat="47.19948" lon="-1.56172">
        <ele>58</ele>
        <time>2022-08-07T10:01:57Z</time>
      </trkpt>
      <trkpt lat="47.19938" lon="-1.56174">
        <ele>59</ele>
        <time>2022-08-07T10:01:59Z</time>
      </trkpt>
      <trkpt lat="47.19926" lon="-1.56177">
        <ele>60</ele>
        <time>2022-08-07T10:02:01Z</time>
      </trkpt>
      <trkpt lat="47.19915" lon="-1.56179">
        <ele>60</ele>
        <time>2022-08-07T10:02:03Z</time>
      </trkpt>
      <trkpt lat="47.19905" lon="-1.5618">
        <ele>60</ele>
        <time>2022-08-07T10:02:05Z</time>
      </trkpt>
      <trkpt lat="47.19895" lon="-1.56181">
        <ele>60</ele>
        <time>2022-08-07T10:02:07Z</time>
      </trkpt>
      <trkpt lat="47.19884" lon="-1.56184">
        <ele>60</ele>
        <time>2022-08-07T10:02:09Z</time>
      </trkpt>
      <trkpt lat="47.19873" lon="-1.56185">
        <ele>60</ele>
        <time>2022-08-07T10:02:11Z</time>
      </trkpt>
      <trkpt lat="47.19863" lon="-1.56187">
        <ele>60</ele>
        <time>2022-08-07T10:02:13Z</time>
      </trkpt>
      <trkpt lat="47.19853" lon="-1.56189">
        <ele>61</ele>
        <time>2022-08-07T10:02:15Z</time>
      </trkpt>
      <trkpt lat="47.19842" lon="-1.56191">
        <ele>61</ele>
        <time>2022-08-07T10:02:17Z</time>
      </trkpt>
      <trkpt lat="47.19832" lon="-1.56193">
        <ele>61</ele>
        <time>2022-08-07T10:02:19Z</time>
      </trkpt>
      <trkpt lat="47.19821" lon="-1.56195">
        <ele>61</ele>
        <time>2022-08-07T10:02:21Z</time>
      </trkpt>
      <trkpt lat="47.1981" lon="-1.56197">
        <ele>61</ele>
        <time>2022-08-07T10:02:23Z</time>
      </trkpt>
      <trkpt lat="47.19799" lon="-1.56199">
        <ele>61</ele>
        <time>2022-08-07T10:02:25Z</time>
      </trkpt>
      <trkpt lat="47.19788" lon="-1.562">
        <ele>61</ele>
        <time>2022-08-07T10:02:27Z</time>
      </trkpt>
      <trkpt lat="47.19777" lon="-1.56202">
        <ele>60</ele>
        <time>2022-08-07T10:02:29Z</time>
      </trkpt>
      <trkpt lat="47.19765" lon="-1.56205">
        <ele>60</ele>
        <time>2022-08-07T10:02:31Z</time>
      </trkpt>
      <trkpt lat="47.19753" lon="-1.56207">
        <ele>59</ele>
        <time>2022-08-07T10:02:33Z</time>
      </trkpt>
      <trkpt lat="47.1974" lon="-1.56209">
        <ele>59</ele>
        <time>2022-08-07T10:02:35Z</time>
      </trkpt>
      <trkpt lat="47.19726" lon="-1.56212">
        <ele>58</ele>
        <time>2022-08-07T10:02:37Z</time>
      </trkpt>
      <trkpt lat="47.19712" lon="-1.56214">
        <ele>57</ele>
        <time>2022-08-07T10:02:39Z</time>
      </trkpt>
      <trkpt lat="47.19696" lon="-1.56217">
        <ele>56</ele>
        <time>2022-08-07T10:02:41Z</time>
      </trkpt>
      <trkpt lat="47.1968" lon="-1.56221">
        <ele>55</ele>
        <time>2022-08-07T10:02:43Z</time>
      </trkpt>
      <trkpt lat="47.19663" lon="-1.56226">
        <ele>54</ele>
        <time>2022-08-07T10:02:45Z</time>
      </trkpt>
      <trkpt lat="47.19646" lon="-1.56232">
        <ele>53</ele>
        <time>2022-08-07T10:02:47Z</time>
      </trkpt>
      <trkpt lat="47.19634" lon="-1.56249">
        <ele>53</ele>
        <time>2022-08-07T10:02:49Z</time>
      </trkpt>
      <trkpt lat="47.19631" lon="-1.56272">
        <ele>52</ele>
        <time>2022-08-07T10:02:51Z</time>
      </trkpt>
      <trkpt lat="47.19631" lon="-1.56293">
        <ele>51</ele>
        <time>2022-08-07T10:02:53Z</time>
      </trkpt>
      <trkpt lat="47.1963" lon="-1.56314">
        <ele>51</ele>
        <time>2022-08-07T10:02:55Z</time>
      </trkpt>
      <trkpt lat="47.19629" lon="-1.56335">
        <ele>51</ele>
        <time>2022-08-07T10:02:57Z</time>
      </trkpt>
      <trkpt lat="47.19628" lon="-1.56356">
        <ele>51</ele>
        <time>2022-08-07T10:02:59Z</time>
      </trkpt>
      <trkpt lat="47.19629" lon="-1.56377">
        <ele>51</ele>
        <time>2022-08-07T10:03:01Z</time>
      </trkpt>
      <trkpt lat="47.1963" lon="-1.56398">
        <ele>51</ele>
        <time>2022-08-07T10:03:03Z</time>
      </trkpt>
      <trkpt lat="47.1963" lon="-1.56419">
        <ele>51</ele>
        <time>2022-08-07T10:03:05Z</time>
      </trkpt>
      <trkpt lat="47.1963" lon="-1.5644">
        <ele>51</ele>
        <time>2022-08-07T10:03:07Z</time>
      </trkpt>
      <trkpt lat="47.19631" lon="-1.5646">
        <ele>50</ele>
        <time>2022-08-07T10:03:09Z</time>
      </trkpt>
      <trkpt lat="47.19632" lon="-1.5648">
        <ele>50</ele>
        <time>2022-08-07T10:03:11Z</time>
      </trkpt>
      <trkpt lat="47.19632" lon="-1.56499">
        <ele>50</ele>
        <time>2022-08-07T10:03:13Z</time>
      </trkpt>
      <trkpt lat="47.19632" lon="-1.56519">
        <ele>50</ele>
        <time>2022-08-07T10:03:15Z</time>
      </trkpt>
      <trkpt lat="47.19631" lon="-1.56539">
        <ele>51</ele>
        <time>2022-08-07T10:03:17Z</time>
      </trkpt>
      <trkpt lat="47.1963" lon="-1.56559">
        <ele>50</ele>
        <time>2022-08-07T10:03:19Z</time>
      </trkpt>
      <trkpt lat="47.1963" lon="-1.56579">
        <ele>51</ele>
        <time>2022-08-07T10:03:21Z</time>
      </trkpt>
      <trkpt lat="47.19629" lon="-1.56599">
        <ele>51</ele>
        <time>2022-08-07T10:03:23Z</time>
      </trkpt>
      <trkpt lat="47.19628" lon="-1.56619">
        <ele>51</ele>
        <time>2022-08-07T10:03:25Z</time>
      </trkpt>
      <trkpt lat="47.19627" lon="-1.56639">
        <ele>52</ele>
        <time>2022-08-07T10:03:27Z</time>
      </trkpt>
      <trkpt lat="47.19626" lon="-1.56659">
        <ele>52</ele>
        <time>2022-08-07T10:03:29Z</time>
      </trkpt>
      <trkpt lat="47.19625" lon="-1.56679">
        <ele>52</ele>
        <time>2022-08-07T10:03:31Z</time>
      </trkpt>
      <trkpt lat="47.19624" lon="-1.56698">
        <ele>52</ele>
        <time>2022-08-07T10:03:33Z</time>
      </trkpt>
      <trkpt lat="47.19623" lon="-1.56717">
        <ele>52</ele>
        <time>2022-08-07T10:03:35Z</time>
      </trkpt>
      <trkpt lat="47.19623" lon="-1.56736">
        <ele>52</ele>
        <time>2022-08-07T10:03:37Z</time>
      </trkpt>
      <trkpt lat="47.19621" lon="-1.56756">
        <ele>51</ele>
        <time>2022-08-07T10:03:39Z</time>
      </trkpt>
      <trkpt lat="47.19619" lon="-1.56776">
        <ele>51</ele>
        <time>2022-08-07T10:03:41Z</time>
      </trkpt>
      <trkpt lat="47.19618" lon="-1.56795">
        <ele>51</ele>
        <time>2022-08-07T10:03:43Z</time>
      </trkpt>
      <trkpt lat="47.19617" lon="-1.56815">
        <ele>52</ele>
        <time>2022-08-07T10:03:45Z</time>
      </trkpt>
      <trkpt lat="47.19615" lon="-1.56835">
        <ele>52</ele>
        <time>2022-08-07T10:03:47Z</time>
      </trkpt>
      <trkpt lat="47.19614" lon="-1.56854">
        <ele>52</ele>
        <time>2022-08-07T10:03:49Z</time>
      </trkpt>
      <trkpt lat="47.19613" lon="-1.56874">
        <ele>52</ele>
        <time>2022-08-07T10:03:51Z</time>
      </trkpt>
      <trkpt lat="47.19612" lon="-1.56894">
        <ele>52</ele>
        <time>2022-08-07T10:03:53Z</time>
      </trkpt>
      <trkpt lat="47.19611" lon="-1.56914">
        <ele>52</ele>
        <time>2022-08-07T10:03:55Z</time>
      </trkpt>
      <trkpt lat="47.1961" lon="-1.56934">
        <ele>52</ele>
        <time>2022-08-07T10:03:57Z</time>
      </trkpt>
      <trkpt lat="47.19608" lon="-1.56954">
        <ele>52</ele>
        <time>2022-08-07T10:03:59Z</time>
      </trkpt>
      <trkpt lat="47.19607" lon="-1.56973">
        <ele>51</ele>
        <time>2022-08-07T10:04:01Z</time>
      </trkpt>
      <trkpt lat="47.19605" lon="-1.56993">
        <ele>51</ele>
        <time>2022-08-07T10:04:03Z</time>
      </trkpt>
      <trkpt lat="47.19604" lon="-1.57013">
        <ele>51</ele>
        <time>2022-08-07T10:04:05Z</time>
      </trkpt>
      <trkpt lat="47.19603" lon="-1.57032">
        <ele>51</ele>
        <time>2022-08-07T10:04:07Z</time>
      </trkpt>
      <trkpt lat="47.19602" lon="-1.57052">
        <ele>50</ele>
        <time>2022-08-07T10:04:09Z</time>
      </trkpt>
      <trkpt lat="47.19601" lon="-1.57071">
        <ele>50</ele>
        <time>2022-08-07T10:04:11Z</time>
      </trkpt>
      <trkpt lat="47.19599" lon="-1.5709">
        <ele>50</ele>
        <time>2022-08-07T10:04:13Z</time>
      </trkpt>
      <trkpt lat="47.19598" lon="-1.57109">
        <ele>50</ele>
        <time>2022-08-07T10:04:15Z</time>
      </trkpt>
      <trkpt lat="47.19597" lon="-1.57127">
        <ele>50</ele>
        <time>2022-08-07T10:04:17Z</time>
      </trkpt>
      <trkpt lat="47.19596" lon="-1.57145">
        <ele>51</ele>
        <time>2022-08-07T10:04:19Z</time>
      </trkpt>
      <trkpt lat="47.19595" lon="-1.57164">
        <ele>50</ele>
        <time>2022-08-07T10:04:21Z</time>
      </trkpt>
      <trkpt lat="47.19595" lon="-1.57182">
        <ele>50</ele>
        <time>2022-08-07T10:04:23Z</time>
      </trkpt>
      <trkpt lat="47.19594" lon="-1.57201">
        <ele>51</ele>
        <time>2022-08-07T10:04:25Z</time>
      </trkpt>
      <trkpt lat="47.19593" lon="-1.5722">
        <ele>51</ele>
        <time>2022-08-07T10:04:27Z</time>
      </trkpt>
      <trkpt lat="47.19591" lon="-1.57237">
        <ele>51</ele>
        <time>2022-08-07T10:04:29Z</time>
      </trkpt>
      <trkpt lat="47.19589" lon="-1.57255">
        <ele>51</ele>
        <time>2022-08-07T10:04:31Z</time>
      </trkpt>
      <trkpt lat="47.19587" lon="-1.57272">
        <ele>51</ele>
        <time>2022-08-07T10:04:33Z</time>
      </trkpt>
      <trkpt lat="47.19587" lon="-1.5729">
        <ele>51</ele>
        <time>2022-08-07T10:04:35Z</time>
      </trkpt>
      <trkpt lat="47.19586" lon="-1.57307">
        <ele>51</ele>
        <time>2022-08-07T10:04:37Z</time>
      </trkpt>
      <trkpt lat="47.19584" lon="-1.57325">
        <ele>51</ele>
        <time>2022-08-07T10:04:39Z</time>
      </trkpt>
      <trkpt lat="47.19581" lon="-1.57342">
        <ele>51</ele>
        <time>2022-08-07T10:04:41Z</time>
      </trkpt>
      <trkpt lat="47.19577" lon="-1.57359">
        <ele>51</ele>
        <time>2022-08-07T10:04:43Z</time>
      </trkpt>
      <trkpt lat="47.19574" lon="-1.57377">
        <ele>50</ele>
        <time>2022-08-07T10:04:45Z</time>
      </trkpt>
      <trkpt lat="47.1957" lon="-1.57395">
        <ele>50</ele>
        <time>2022-08-07T10:04:47Z</time>
      </trkpt>
      <trkpt lat="47.19566" lon="-1.57412">
        <ele>51</ele>
        <time>2022-08-07T10:04:49Z</time>
      </trkpt>
      <trkpt lat="47.19563" lon="-1.57431">
        <ele>51</ele>
        <time>2022-08-07T10:04:51Z</time>
      </trkpt>
      <trkpt lat="47.1956" lon="-1.57449">
        <ele>51</ele>
        <time>2022-08-07T10:04:53Z</time>
      </trkpt>
      <trkpt lat="47.19556" lon="-1.57467">
        <ele>51</ele>
        <time>2022-08-07T10:04:55Z</time>
      </trkpt>
      <trkpt lat="47.19553" lon="-1.57485">
        <ele>51</ele>
        <time>2022-08-07T10:04:57Z</time>
      </trkpt>
      <trkpt lat="47.19549" lon="-1.57504">
        <ele>51</ele>
        <time>2022-08-07T10:04:59Z</time>
      </trkpt>
      <trkpt lat="47.19545" lon="-1.57522">
        <ele>51</ele>
        <time>2022-08-07T10:05:01Z</time>
      </trkpt>
      <trkpt lat="47.19542" lon="-1.5754">
        <ele>51</ele>
        <time>2022-08-07T10:05:03Z</time>
      </trkpt>
      <trkpt lat="47.19537" lon="-1.57559">
        <ele>51</ele>
        <time>2022-08-07T10:05:05Z</time>
      </trkpt>
      <trkpt lat="47.19534" lon="-1.57577">
        <ele>51</ele>
        <time>2022-08-07T10:05:07Z</time>
      </trkpt>
      <trkpt lat="47.19531" lon="-1.57595">
        <ele>51</ele>
        <time>2022-08-07T10:05:09Z</time>
      </trkpt>
      <trkpt lat="47.19527" lon="-1.57613">
        <ele>51</ele>
        <time>2022-08-07T10:05:11Z</time>
      </trkpt>
      <trkpt lat="47.19523" lon="-1.5763">
        <ele>52</ele>
        <time>2022-08-07T10:05:13Z</time>
      </trkpt>
      <trkpt lat="47.19519" lon="-1.57647">
        <ele>51</ele>
        <time>2022-08-07T10:05:15Z</time>
      </trkpt>
      <trkpt lat="47.19515" lon="-1.57665">
        <ele>51</ele>
        <time>2022-08-07T10:05:17Z</time>
      </trkpt>
      <trkpt lat="47.19511" lon="-1.57684">
        <ele>51</ele>
        <time>2022-08-07T10:05:19Z</time>
      </trkpt>
      <trkpt lat="47.19507" lon="-1.57702">
        <ele>51</ele>
        <time>2022-08-07T10:05:21Z</time>
      </trkpt>
      <trkpt lat="47.19503" lon="-1.5772">
        <ele>52</ele>
        <time>2022-08-07T10:05:23Z</time>
      </trkpt>
      <trkpt lat="47.195" lon="-1.57738">
        <ele>52</ele>
        <time>2022-08-07T10:05:25Z</time>
      </trkpt>
      <trkpt lat="47.19496" lon="-1.57757">
        <ele>51</ele>
        <time>2022-08-07T10:05:27Z</time>
      </trkpt>
      <trkpt lat="47.19492" lon="-1.57776">
        <ele>51</ele>
        <time>2022-08-07T10:05:29Z</time>
      </trkpt>
      <trkpt lat="47.19488" lon="-1.57794">
        <ele>51</ele>
        <time>2022-08-07T10:05:31Z</time>
      </trkpt>
      <trkpt lat="47.19485" lon="-1.57812">
        <ele>51</ele>
        <time>2022-08-07T10:05:33Z</time>
      </trkpt>
      <trkpt lat="47.19481" lon="-1.5783">
        <ele>50</ele>
        <time>2022-08-07T10:05:35Z</time>
      </trkpt>
      <trkpt lat="47.19479" lon="-1.57849">
        <ele>50</ele>
        <time>2022-08-07T10:05:37Z</time>
      </trkpt>
      <trkpt lat="47.19478" lon="-1.57868">
        <ele>50</ele>
        <time>2022-08-07T10:05:39Z</time>
      </trkpt>
      <trkpt lat="47.19475" lon="-1.57887">
        <ele>50</ele>
        <time>2022-08-07T10:05:41Z</time>
      </trkpt>
      <trkpt lat="47.19472" lon="-1.57905">
        <ele>50</ele>
        <time>2022-08-07T10:05:43Z</time>
      </trkpt>
      <trkpt lat="47.19469" lon="-1.57923">
        <ele>51</ele>
        <time>2022-08-07T10:05:45Z</time>
      </trkpt>
      <trkpt lat="47.19467" lon="-1.57941">
        <ele>51</ele>
        <time>2022-08-07T10:05:47Z</time>
      </trkpt>
      <trkpt lat="47.19465" lon="-1.57959">
        <ele>51</ele>
        <time>2022-08-07T10:05:49Z</time>
      </trkpt>
      <trkpt lat="47.19463" lon="-1.57975">
        <ele>51</ele>
        <time>2022-08-07T10:05:51Z</time>
      </trkpt>
      <trkpt lat="47.19463" lon="-1.57991">
        <ele>51</ele>
        <time>2022-08-07T10:05:53Z</time>
      </trkpt>
      <trkpt lat="47.19462" lon="-1.58008">
        <ele>51</ele>
        <time>2022-08-07T10:05:55Z</time>
      </trkpt>
      <trkpt lat="47.19461" lon="-1.58025">
        <ele>52</ele>
        <time>2022-08-07T10:05:57Z</time>
      </trkpt>
      <trkpt lat="47.19459" lon="-1.58042">
        <ele>52</ele>
        <time>2022-08-07T10:05:59Z</time>
      </trkpt>
      <trkpt lat="47.19457" lon="-1.58058">
        <ele>52</ele>
        <time>2022-08-07T10:06:01Z</time>
      </trkpt>
      <trkpt lat="47.19456" lon="-1.58074">
        <ele>52</ele>
        <time>2022-08-07T10:06:03Z</time>
      </trkpt>
      <trkpt lat="47.19453" lon="-1.58088">
        <ele>52</ele>
        <time>2022-08-07T10:06:05Z</time>
      </trkpt>
      <trkpt lat="47.19446" lon="-1.58101">
        <ele>52</ele>
        <time>2022-08-07T10:06:07Z</time>
      </trkpt>
      <trkpt lat="47.19437" lon="-1.58112">
        <ele>53</ele>
        <time>2022-08-07T10:06:09Z</time>
      </trkpt>
      <trkpt lat="47.19429" lon="-1.58124">
        <ele>53</ele>
        <time>2022-08-07T10:06:11Z</time>
      </trkpt>
      <trkpt lat="47.1942" lon="-1.58134">
        <ele>53</ele>
        <time>2022-08-07T10:06:13Z</time>
      </trkpt>
      <trkpt lat="47.19411" lon="-1.58145">
        <ele>53</ele>
        <time>2022-08-07T10:06:15Z</time>
      </trkpt>
      <trkpt lat="47.19404" lon="-1.58156">
        <ele>53</ele>
        <time>2022-08-07T10:06:17Z</time>
      </trkpt>
      <trkpt lat="47.19399" lon="-1.58168">
        <ele>53</ele>
        <time>2022-08-07T10:06:19Z</time>
      </trkpt>
      <trkpt lat="47.19393" lon="-1.5818">
        <ele>53</ele>
        <time>2022-08-07T10:06:21Z</time>
      </trkpt>
      <trkpt lat="47.19388" lon="-1.58191">
        <ele>53</ele>
        <time>2022-08-07T10:06:31Z</time>
      </trkpt>
      <trkpt lat="47.19382" lon="-1.58204">
        <ele>54</ele>
        <time>2022-08-07T10:06:35Z</time>
      </trkpt>
      <trkpt lat="47.19375" lon="-1.58221">
        <ele>55</ele>
        <time>2022-08-07T10:06:38Z</time>
      </trkpt>
      <trkpt lat="47.1937" lon="-1.58234">
        <ele>55</ele>
        <time>2022-08-07T10:06:40Z</time>
      </trkpt>
      <trkpt lat="47.19365" lon="-1.58247">
        <ele>55</ele>
        <time>2022-08-07T10:06:42Z</time>
      </trkpt>
      <trkpt lat="47.1936" lon="-1.5826">
        <ele>55</ele>
        <time>2022-08-07T10:06:44Z</time>
      </trkpt>
      <trkpt lat="47.19352" lon="-1.58273">
        <ele>54</ele>
        <time>2022-08-07T10:06:46Z</time>
      </trkpt>
      <trkpt lat="47.19343" lon="-1.58285">
        <ele>55</ele>
        <time>2022-08-07T10:06:48Z</time>
      </trkpt>
      <trkpt lat="47.19334" lon="-1.58297">
        <ele>55</ele>
        <time>2022-08-07T10:06:50Z</time>
      </trkpt>
      <trkpt lat="47.19323" lon="-1.58308">
        <ele>55</ele>
        <time>2022-08-07T10:06:52Z</time>
      </trkpt>
      <trkpt lat="47.19311" lon="-1.58319">
        <ele>55</ele>
        <time>2022-08-07T10:06:54Z</time>
      </trkpt>
      <trkpt lat="47.193" lon="-1.58328">
        <ele>55</ele>
        <time>2022-08-07T10:06:56Z</time>
      </trkpt>
      <trkpt lat="47.19289" lon="-1.58338">
        <ele>56</ele>
        <time>2022-08-07T10:06:58Z</time>
      </trkpt>
      <trkpt lat="47.19278" lon="-1.5835">
        <ele>56</ele>
        <time>2022-08-07T10:07:00Z</time>
      </trkpt>
      <trkpt lat="47.19267" lon="-1.58361">
        <ele>55</ele>
        <time>2022-08-07T10:07:02Z</time>
      </trkpt>
      <trkpt lat="47.19256" lon="-1.58371">
        <ele>56</ele>
        <time>2022-08-07T10:07:04Z</time>
      </trkpt>
      <trkpt lat="47.19244" lon="-1.58382">
        <ele>56</ele>
        <time>2022-08-07T10:07:06Z</time>
      </trkpt>
      <trkpt lat="47.19233" lon="-1.58392">
        <ele>56</ele>
        <time>2022-08-07T10:07:08Z</time>
      </trkpt>
      <trkpt lat="47.19222" lon="-1.58403">
        <ele>55</ele>
        <time>2022-08-07T10:07:10Z</time>
      </trkpt>
      <trkpt lat="47.19211" lon="-1.58412">
        <ele>55</ele>
        <time>2022-08-07T10:07:12Z</time>
      </trkpt>
      <trkpt lat="47.192" lon="-1.58423">
        <ele>56</ele>
        <time>2022-08-07T10:07:14Z</time>
      </trkpt>
      <trkpt lat="47.19189" lon="-1.58432">
        <ele>56</ele>
        <time>2022-08-07T10:07:16Z</time>
      </trkpt>
      <trkpt lat="47.19178" lon="-1.58442">
        <ele>56</ele>
        <time>2022-08-07T10:07:18Z</time>
      </trkpt>
      <trkpt lat="47.19168" lon="-1.58452">
        <ele>56</ele>
        <time>2022-08-07T10:07:20Z</time>
      </trkpt>
      <trkpt lat="47.19159" lon="-1.58463">
        <ele>56</ele>
        <time>2022-08-07T10:07:22Z</time>
      </trkpt>
      <trkpt lat="47.1915" lon="-1.58472">
        <ele>56</ele>
        <time>2022-08-07T10:07:24Z</time>
      </trkpt>
      <trkpt lat="47.19141" lon="-1.58482">
        <ele>56</ele>
        <time>2022-08-07T10:07:26Z</time>
      </trkpt>
      <trkpt lat="47.19131" lon="-1.58492">
        <ele>56</ele>
        <time>2022-08-07T10:07:28Z</time>
      </trkpt>
      <trkpt lat="47.1912" lon="-1.58501">
        <ele>55</ele>
        <time>2022-08-07T10:07:30Z</time>
      </trkpt>
      <trkpt lat="47.19109" lon="-1.58511">
        <ele>55</ele>
        <time>2022-08-07T10:07:32Z</time>
      </trkpt>
      <trkpt lat="47.19099" lon="-1.58521">
        <ele>55</ele>
        <time>2022-08-07T10:07:34Z</time>
      </trkpt>
      <trkpt lat="47.19089" lon="-1.58531">
        <ele>55</ele>
        <time>2022-08-07T10:07:36Z</time>
      </trkpt>
      <trkpt lat="47.19078" lon="-1.58541">
        <ele>55</ele>
        <time>2022-08-07T10:07:38Z</time>
      </trkpt>
      <trkpt lat="47.19067" lon="-1.58552">
        <ele>55</ele>
        <time>2022-08-07T10:07:40Z</time>
      </trkpt>
      <trkpt lat="47.19057" lon="-1.58564">
        <ele>55</ele>
        <time>2022-08-07T10:07:42Z</time>
      </trkpt>
      <trkpt lat="47.19046" lon="-1.58574">
        <ele>55</ele>
        <time>2022-08-07T10:07:44Z</time>
      </trkpt>
      <trkpt lat="47.19036" lon="-1.58585">
        <ele>56</ele>
        <time>2022-08-07T10:07:46Z</time>
      </trkpt>
      <trkpt lat="47.19025" lon="-1.58598">
        <ele>56</ele>
        <time>2022-08-07T10:07:48Z</time>
      </trkpt>
      <trkpt lat="47.19015" lon="-1.58609">
        <ele>56</ele>
        <time>2022-08-07T10:07:50Z</time>
      </trkpt>
      <trkpt lat="47.19003" lon="-1.5862">
        <ele>56</ele>
        <time>2022-08-07T10:07:52Z</time>
      </trkpt>
      <trkpt lat="47.18992" lon="-1.58632">
        <ele>56</ele>
        <time>2022-08-07T10:07:54Z</time>
      </trkpt>
      <trkpt lat="47.18981" lon="-1.58642">
        <ele>56</ele>
        <time>2022-08-07T10:07:56Z</time>
      </trkpt>
      <trkpt lat="47.1897" lon="-1.58653">
        <ele>56</ele>
        <time>2022-08-07T10:07:58Z</time>
      </trkpt>
      <trkpt lat="47.18959" lon="-1.58663">
        <ele>56</ele>
        <time>2022-08-07T10:08:00Z</time>
      </trkpt>
      <trkpt lat="47.18947" lon="-1.58674">
        <ele>56</ele>
        <time>2022-08-07T10:08:02Z</time>
      </trkpt>
      <trkpt lat="47.18936" lon="-1.58684">
        <ele>56</ele>
        <time>2022-08-07T10:08:04Z</time>
      </trkpt>
      <trkpt lat="47.18925" lon="-1.58695">
        <ele>56</ele>
        <time>2022-08-07T10:08:06Z</time>
      </trkpt>
      <trkpt lat="47.18914" lon="-1.58705">
        <ele>56</ele>
        <time>2022-08-07T10:08:08Z</time>
      </trkpt>
      <trkpt lat="47.18903" lon="-1.58714">
        <ele>56</ele>
        <time>2022-08-07T10:08:10Z</time>
      </trkpt>
      <trkpt lat="47.18891" lon="-1.58721">
        <ele>56</ele>
        <time>2022-08-07T10:08:12Z</time>
      </trkpt>
      <trkpt lat="47.18879" lon="-1.58728">
        <ele>56</ele>
        <time>2022-08-07T10:08:14Z</time>
      </trkpt>
      <trkpt lat="47.18868" lon="-1.58733">
        <ele>56</ele>
        <time>2022-08-07T10:08:16Z</time>
      </trkpt>
      <trkpt lat="47.18858" lon="-1.58739">
        <ele>56</ele>
        <time>2022-08-07T10:08:18Z</time>
      </trkpt>
      <trkpt lat="47.18847" lon="-1.58743">
        <ele>55</ele>
        <time>2022-08-07T10:08:20Z</time>
      </trkpt>
      <trkpt lat="47.18837" lon="-1.5875">
        <ele>55</ele>
        <time>2022-08-07T10:08:22Z</time>
      </trkpt>
      <trkpt lat="47.18831" lon="-1.58764">
        <ele>54</ele>
        <time>2022-08-07T10:08:24Z</time>
      </trkpt>
      <trkpt lat="47.18828" lon="-1.5878">
        <ele>54</ele>
        <time>2022-08-07T10:08:26Z</time>
      </trkpt>
      <trkpt lat="47.18821" lon="-1.58794">
        <ele>55</ele>
        <time>2022-08-07T10:08:28Z</time>
      </trkpt>
      <trkpt lat="47.18812" lon="-1.58805">
        <ele>55</ele>
        <time>2022-08-07T10:08:30Z</time>
      </trkpt>
      <trkpt lat="47.18802" lon="-1.58813">
        <ele>55</ele>
        <time>2022-08-07T10:08:32Z</time>
      </trkpt>
      <trkpt lat="47.18792" lon="-1.5882">
        <ele>55</ele>
        <time>2022-08-07T10:08:34Z</time>
      </trkpt>
      <trkpt lat="47.18787" lon="-1.58835">
        <ele>55</ele>
        <time>2022-08-07T10:08:36Z</time>
      </trkpt>
      <trkpt lat="47.18782" lon="-1.58849">
        <ele>55</ele>
        <time>2022-08-07T10:08:38Z</time>
      </trkpt>
      <trkpt lat="47.18779" lon="-1.58867">
        <ele>55</ele>
        <time>2022-08-07T10:08:40Z</time>
      </trkpt>
      <trkpt lat="47.18776" lon="-1.58885">
        <ele>54</ele>
        <time>2022-08-07T10:08:42Z</time>
      </trkpt>
      <trkpt lat="47.18774" lon="-1.58903">
        <ele>55</ele>
        <time>2022-08-07T10:08:44Z</time>
      </trkpt>
      <trkpt lat="47.18772" lon="-1.58921">
        <ele>54</ele>
        <time>2022-08-07T10:08:46Z</time>
      </trkpt>
      <trkpt lat="47.1877" lon="-1.58939">
        <ele>54</ele>
        <time>2022-08-07T10:08:48Z</time>
      </trkpt>
      <trkpt lat="47.18768" lon="-1.58958">
        <ele>54</ele>
        <time>2022-08-07T10:08:50Z</time>
      </trkpt>
      <trkpt lat="47.18766" lon="-1.58976">
        <ele>54</ele>
        <time>2022-08-07T10:08:52Z</time>
      </trkpt>
      <trkpt lat="47.18764" lon="-1.58994">
        <ele>54</ele>
        <time>2022-08-07T10:08:54Z</time>
      </trkpt>
      <trkpt lat="47.18762" lon="-1.59013">
        <ele>54</ele>
        <time>2022-08-07T10:08:56Z</time>
      </trkpt>
      <trkpt lat="47.18759" lon="-1.59031">
        <ele>53</ele>
        <time>2022-08-07T10:08:58Z</time>
      </trkpt>
      <trkpt lat="47.18757" lon="-1.5905">
        <ele>53</ele>
        <time>2022-08-07T10:09:00Z</time>
      </trkpt>
      <trkpt lat="47.18755" lon="-1.59069">
        <ele>53</ele>
        <time>2022-08-07T10:09:02Z</time>
      </trkpt>
      <trkpt lat="47.18753" lon="-1.59087">
        <ele>53</ele>
        <time>2022-08-07T10:09:04Z</time>
      </trkpt>
      <trkpt lat="47.18751" lon="-1.59106">
        <ele>53</ele>
        <time>2022-08-07T10:09:06Z</time>
      </trkpt>
      <trkpt lat="47.18749" lon="-1.59125">
        <ele>53</ele>
        <time>2022-08-07T10:09:08Z</time>
      </trkpt>
      <trkpt lat="47.18747" lon="-1.59143">
        <ele>52</ele>
        <time>2022-08-07T10:09:10Z</time>
      </trkpt>
      <trkpt lat="47.18745" lon="-1.59162">
        <ele>52</ele>
        <time>2022-08-07T10:09:12Z</time>
      </trkpt>
      <trkpt lat="47.18743" lon="-1.59181">
        <ele>52</ele>
        <time>2022-08-07T10:09:14Z</time>
      </trkpt>
      <trkpt lat="47.18741" lon="-1.592">
        <ele>52</ele>
        <time>2022-08-07T10:09:16Z</time>
      </trkpt>
      <trkpt lat="47.18739" lon="-1.59218">
        <ele>52</ele>
        <time>2022-08-07T10:09:18Z</time>
      </trkpt>
      <trkpt lat="47.18737" lon="-1.59237">
        <ele>52</ele>
        <time>2022-08-07T10:09:20Z</time>
      </trkpt>
      <trkpt lat="47.18735" lon="-1.59257">
        <ele>52</ele>
        <time>2022-08-07T10:09:22Z</time>
      </trkpt>
      <trkpt lat="47.18733" lon="-1.59277">
        <ele>52</ele>
        <time>2022-08-07T10:09:24Z</time>
      </trkpt>
      <trkpt lat="47.18731" lon="-1.59296">
        <ele>52</ele>
        <time>2022-08-07T10:09:26Z</time>
      </trkpt>
      <trkpt lat="47.18729" lon="-1.59315">
        <ele>52</ele>
        <time>2022-08-07T10:09:28Z</time>
      </trkpt>
      <trkpt lat="47.18726" lon="-1.59335">
        <ele>52</ele>
        <time>2022-08-07T10:09:30Z</time>
      </trkpt>
      <trkpt lat="47.18724" lon="-1.59355">
        <ele>52</ele>
        <time>2022-08-07T10:09:32Z</time>
      </trkpt>
      <trkpt lat="47.18722" lon="-1.59375">
        <ele>52</ele>
        <time>2022-08-07T10:09:34Z</time>
      </trkpt>
      <trkpt lat="47.1872" lon="-1.59395">
        <ele>52</ele>
        <time>2022-08-07T10:09:36Z</time>
      </trkpt>
      <trkpt lat="47.18717" lon="-1.59414">
        <ele>52</ele>
        <time>2022-08-07T10:09:38Z</time>
      </trkpt>
      <trkpt lat="47.18715" lon="-1.59433">
        <ele>52</ele>
        <time>2022-08-07T10:09:40Z</time>
      </trkpt>
      <trkpt lat="47.18713" lon="-1.59453">
        <ele>52</ele>
        <time>2022-08-07T10:09:42Z</time>
      </trkpt>
      <trkpt lat="47.18711" lon="-1.59472">
        <ele>52</ele>
        <time>2022-08-07T10:09:44Z</time>
      </trkpt>
      <trkpt lat="47.18709" lon="-1.59492">
        <ele>52</ele>
        <time>2022-08-07T10:09:46Z</time>
      </trkpt>
      <trkpt lat="47.18706" lon="-1.59511">
        <ele>52</ele>
        <time>2022-08-07T10:09:48Z</time>
      </trkpt>
      <trkpt lat="47.18705" lon="-1.59531">
        <ele>52</ele>
        <time>2022-08-07T10:09:50Z</time>
      </trkpt>
      <trkpt lat="47.18703" lon="-1.5955">
        <ele>52</ele>
        <time>2022-08-07T10:09:52Z</time>
      </trkpt>
      <trkpt lat="47.18701" lon="-1.5957">
        <ele>53</ele>
        <time>2022-08-07T10:09:54Z</time>
      </trkpt>
      <trkpt lat="47.18698" lon="-1.59589">
        <ele>53</ele>
        <time>2022-08-07T10:09:56Z</time>
      </trkpt>
      <trkpt lat="47.18696" lon="-1.59608">
        <ele>53</ele>
        <time>2022-08-07T10:09:58Z</time>
      </trkpt>
      <trkpt lat="47.18694" lon="-1.59627">
        <ele>53</ele>
        <time>2022-08-07T10:10:00Z</time>
      </trkpt>
      <trkpt lat="47.18691" lon="-1.59647">
        <ele>53</ele>
        <time>2022-08-07T10:10:02Z</time>
      </trkpt>
      <trkpt lat="47.18688" lon="-1.59666">
        <ele>53</ele>
        <time>2022-08-07T10:10:04Z</time>
      </trkpt>
      <trkpt lat="47.18686" lon="-1.59686">
        <ele>53</ele>
        <time>2022-08-07T10:10:06Z</time>
      </trkpt>
      <trkpt lat="47.18683" lon="-1.59705">
        <ele>53</ele>
        <time>2022-08-07T10:10:08Z</time>
      </trkpt>
      <trkpt lat="47.18682" lon="-1.59724">
        <ele>53</ele>
        <time>2022-08-07T10:10:10Z</time>
      </trkpt>
      <trkpt lat="47.18682" lon="-1.59742">
        <ele>53</ele>
        <time>2022-08-07T10:10:12Z</time>
      </trkpt>
      <trkpt lat="47.18682" lon="-1.59756">
        <ele>53</ele>
        <time>2022-08-07T10:10:14Z</time>
      </trkpt>
      <trkpt lat="47.18686" lon="-1.59775">
        <ele>52</ele>
        <time>2022-08-07T10:10:17Z</time>
      </trkpt>
      <trkpt lat="47.18689" lon="-1.59787">
        <ele>53</ele>
        <time>2022-08-07T10:10:19Z</time>
      </trkpt>
      <trkpt lat="47.1869" lon="-1.59802">
        <ele>53</ele>
        <time>2022-08-07T10:10:21Z</time>
      </trkpt>
      <trkpt lat="47.18689" lon="-1.59816">
        <ele>53</ele>
        <time>2022-08-07T10:10:23Z</time>
      </trkpt>
      <trkpt lat="47.18683" lon="-1.5983">
        <ele>53</ele>
        <time>2022-08-07T10:10:25Z</time>
      </trkpt>
      <trkpt lat="47.18671" lon="-1.59839">
        <ele>54</ele>
        <time>2022-08-07T10:10:27Z</time>
      </trkpt>
      <trkpt lat="47.18659" lon="-1.59848">
        <ele>53</ele>
        <time>2022-08-07T10:10:29Z</time>
      </trkpt>
      <trkpt lat="47.18644" lon="-1.59846">
        <ele>53</ele>
        <time>2022-08-07T10:10:31Z</time>
      </trkpt>
      <trkpt lat="47.18632" lon="-1.59837">
        <ele>52</ele>
        <time>2022-08-07T10:10:33Z</time>
      </trkpt>
      <trkpt lat="47.1862" lon="-1.59834">
        <ele>52</ele>
        <time>2022-08-07T10:10:35Z</time>
      </trkpt>
      <trkpt lat="47.18615" lon="-1.59846">
        <ele>52</ele>
        <time>2022-08-07T10:10:37Z</time>
      </trkpt>
      <trkpt lat="47.18621" lon="-1.59862">
        <ele>52</ele>
        <time>2022-08-07T10:10:39Z</time>
      </trkpt>
      <trkpt lat="47.1862" lon="-1.59879">
        <ele>52</ele>
        <time>2022-08-07T10:10:41Z</time>
      </trkpt>
      <trkpt lat="47.18617" lon="-1.59896">
        <ele>52</ele>
        <time>2022-08-07T10:10:43Z</time>
      </trkpt>
      <trkpt lat="47.18612" lon="-1.59913">
        <ele>53</ele>
        <time>2022-08-07T10:10:45Z</time>
      </trkpt>
      <trkpt lat="47.18608" lon="-1.5993">
        <ele>53</ele>
        <time>2022-08-07T10:10:47Z</time>
      </trkpt>
      <trkpt lat="47.18604" lon="-1.59946">
        <ele>53</ele>
        <time>2022-08-07T10:10:49Z</time>
      </trkpt>
      <trkpt lat="47.18599" lon="-1.59962">
        <ele>53</ele>
        <time>2022-08-07T10:10:51Z</time>
      </trkpt>
      <trkpt lat="47.18593" lon="-1.59979">
        <ele>53</ele>
        <time>2022-08-07T10:10:53Z</time>
      </trkpt>
      <trkpt lat="47.18588" lon="-1.59996">
        <ele>53</ele>
        <time>2022-08-07T10:10:55Z</time>
      </trkpt>
      <trkpt lat="47.18582" lon="-1.60013">
        <ele>53</ele>
        <time>2022-08-07T10:10:57Z</time>
      </trkpt>
      <trkpt lat="47.18577" lon="-1.60029">
        <ele>54</ele>
        <time>2022-08-07T10:10:59Z</time>
      </trkpt>
      <trkpt lat="47.18571" lon="-1.60045">
        <ele>53</ele>
        <time>2022-08-07T10:11:01Z</time>
      </trkpt>
      <trkpt lat="47.18565" lon="-1.60061">
        <ele>53</ele>
        <time>2022-08-07T10:11:03Z</time>
      </trkpt>
      <trkpt lat="47.18559" lon="-1.60077">
        <ele>53</ele>
        <time>2022-08-07T10:11:05Z</time>
      </trkpt>
      <trkpt lat="47.18553" lon="-1.60092">
        <ele>53</ele>
        <time>2022-08-07T10:11:07Z</time>
      </trkpt>
      <trkpt lat="47.18547" lon="-1.60109">
        <ele>53</ele>
        <time>2022-08-07T10:11:09Z</time>
      </trkpt>
      <trkpt lat="47.1854" lon="-1.60124">
        <ele>53</ele>
        <time>2022-08-07T10:11:11Z</time>
      </trkpt>
      <trkpt lat="47.18533" lon="-1.60139">
        <ele>54</ele>
        <time>2022-08-07T10:11:13Z</time>
      </trkpt>
      <trkpt lat="47.18526" lon="-1.60155">
        <ele>54</ele>
        <time>2022-08-07T10:11:15Z</time>
      </trkpt>
      <trkpt lat="47.18519" lon="-1.6017">
        <ele>54</ele>
        <time>2022-08-07T10:11:17Z</time>
      </trkpt>
      <trkpt lat="47.18512" lon="-1.60185">
        <ele>54</ele>
        <time>2022-08-07T10:11:19Z</time>
      </trkpt>
      <trkpt lat="47.18504" lon="-1.602">
        <ele>54</ele>
        <time>2022-08-07T10:11:21Z</time>
      </trkpt>
      <trkpt lat="47.18496" lon="-1.60215">
        <ele>54</ele>
        <time>2022-08-07T10:11:23Z</time>
      </trkpt>
      <trkpt lat="47.18488" lon="-1.60231">
        <ele>54</ele>
        <time>2022-08-07T10:11:25Z</time>
      </trkpt>
      <trkpt lat="47.1848" lon="-1.60246">
        <ele>54</ele>
        <time>2022-08-07T10:11:27Z</time>
      </trkpt>
      <trkpt lat="47.18472" lon="-1.60262">
        <ele>53</ele>
        <time>2022-08-07T10:11:29Z</time>
      </trkpt>
      <trkpt lat="47.18464" lon="-1.60277">
        <ele>53</ele>
        <time>2022-08-07T10:11:31Z</time>
      </trkpt>
      <trkpt lat="47.18455" lon="-1.60292">
        <ele>53</ele>
        <time>2022-08-07T10:11:33Z</time>
      </trkpt>
      <trkpt lat="47.18446" lon="-1.60306">
        <ele>53</ele>
        <time>2022-08-07T10:11:35Z</time>
      </trkpt>
      <trkpt lat="47.18438" lon="-1.60321">
        <ele>53</ele>
        <time>2022-08-07T10:11:37Z</time>
      </trkpt>
      <trkpt lat="47.18429" lon="-1.60334">
        <ele>53</ele>
        <time>2022-08-07T10:11:39Z</time>
      </trkpt>
      <trkpt lat="47.18419" lon="-1.60349">
        <ele>53</ele>
        <time>2022-08-07T10:11:41Z</time>
      </trkpt>
      <trkpt lat="47.1841" lon="-1.60362">
        <ele>53</ele>
        <time>2022-08-07T10:11:43Z</time>
      </trkpt>
      <trkpt lat="47.184" lon="-1.60375">
        <ele>53</ele>
        <time>2022-08-07T10:11:45Z</time>
      </trkpt>
      <trkpt lat="47.18391" lon="-1.60388">
        <ele>53</ele>
        <time>2022-08-07T10:11:47Z</time>
      </trkpt>
      <trkpt lat="47.18381" lon="-1.60401">
        <ele>53</ele>
        <time>2022-08-07T10:11:49Z</time>
      </trkpt>
      <trkpt lat="47.18371" lon="-1.60415">
        <ele>53</ele>
        <time>2022-08-07T10:11:51Z</time>
      </trkpt>
      <trkpt lat="47.18361" lon="-1.60427">
        <ele>53</ele>
        <time>2022-08-07T10:11:53Z</time>
      </trkpt>
      <trkpt lat="47.1835" lon="-1.6044">
        <ele>53</ele>
        <time>2022-08-07T10:11:55Z</time>
      </trkpt>
      <trkpt lat="47.1834" lon="-1.60453">
        <ele>53</ele>
        <time>2022-08-07T10:11:57Z</time>
      </trkpt>
      <trkpt lat="47.1833" lon="-1.60465">
        <ele>53</ele>
        <time>2022-08-07T10:11:59Z</time>
      </trkpt>
      <trkpt lat="47.1832" lon="-1.60477">
        <ele>53</ele>
        <time>2022-08-07T10:12:01Z</time>
      </trkpt>
      <trkpt lat="47.18309" lon="-1.60488">
        <ele>53</ele>
        <time>2022-08-07T10:12:03Z</time>
      </trkpt>
      <trkpt lat="47.18299" lon="-1.605">
        <ele>53</ele>
        <time>2022-08-07T10:12:05Z</time>
      </trkpt>
      <trkpt lat="47.18289" lon="-1.60511">
        <ele>53</ele>
        <time>2022-08-07T10:12:07Z</time>
      </trkpt>
      <trkpt lat="47.18278" lon="-1.60522">
        <ele>53</ele>
        <time>2022-08-07T10:12:09Z</time>
      </trkpt>
      <trkpt lat="47.18267" lon="-1.60533">
        <ele>52</ele>
        <time>2022-08-07T10:12:11Z</time>
      </trkpt>
      <trkpt lat="47.18256" lon="-1.60543">
        <ele>53</ele>
        <time>2022-08-07T10:12:13Z</time>
      </trkpt>
      <trkpt lat="47.18245" lon="-1.60552">
        <ele>53</ele>
        <time>2022-08-07T10:12:15Z</time>
      </trkpt>
      <trkpt lat="47.18234" lon="-1.6056">
        <ele>53</ele>
        <time>2022-08-07T10:12:17Z</time>
      </trkpt>
      <trkpt lat="47.18223" lon="-1.60567">
        <ele>54</ele>
        <time>2022-08-07T10:12:19Z</time>
      </trkpt>
      <trkpt lat="47.18213" lon="-1.60572">
        <ele>54</ele>
        <time>2022-08-07T10:12:21Z</time>
      </trkpt>
      <trkpt lat="47.18203" lon="-1.60576">
        <ele>54</ele>
        <time>2022-08-07T10:12:23Z</time>
      </trkpt>
      <trkpt lat="47.18194" lon="-1.6058">
        <ele>54</ele>
        <time>2022-08-07T10:12:25Z</time>
      </trkpt>
      <trkpt lat="47.18188" lon="-1.60594">
        <ele>55</ele>
        <time>2022-08-07T10:12:29Z</time>
      </trkpt>
      <trkpt lat="47.18177" lon="-1.60605">
        <ele>54</ele>
        <time>2022-08-07T10:12:32Z</time>
      </trkpt>
      <trkpt lat="47.18165" lon="-1.60607">
        <ele>54</ele>
        <time>2022-08-07T10:12:34Z</time>
      </trkpt>
      <trkpt lat="47.18154" lon="-1.60608">
        <ele>54</ele>
        <time>2022-08-07T10:12:36Z</time>
      </trkpt>
      <trkpt lat="47.18142" lon="-1.60608">
        <ele>54</ele>
        <time>2022-08-07T10:12:38Z</time>
      </trkpt>
      <trkpt lat="47.1813" lon="-1.60606">
        <ele>55</ele>
        <time>2022-08-07T10:12:40Z</time>
      </trkpt>
      <trkpt lat="47.18118" lon="-1.60603">
        <ele>55</ele>
        <time>2022-08-07T10:12:42Z</time>
      </trkpt>
      <trkpt lat="47.18105" lon="-1.606">
        <ele>56</ele>
        <time>2022-08-07T10:12:44Z</time>
      </trkpt>
      <trkpt lat="47.18094" lon="-1.60594">
        <ele>55</ele>
        <time>2022-08-07T10:12:46Z</time>
      </trkpt>
      <trkpt lat="47.18082" lon="-1.60588">
        <ele>55</ele>
        <time>2022-08-07T10:12:48Z</time>
      </trkpt>
      <trkpt lat="47.18071" lon="-1.60581">
        <ele>55</ele>
        <time>2022-08-07T10:12:50Z</time>
      </trkpt>
      <trkpt lat="47.1806" lon="-1.60574">
        <ele>54</ele>
        <time>2022-08-07T10:12:52Z</time>
      </trkpt>
      <trkpt lat="47.18048" lon="-1.60567">
        <ele>54</ele>
        <time>2022-08-07T10:12:54Z</time>
      </trkpt>
      <trkpt lat="47.18037" lon="-1.60562">
        <ele>54</ele>
        <time>2022-08-07T10:12:56Z</time>
      </trkpt>
      <trkpt lat="47.18025" lon="-1.60557">
        <ele>54</ele>
        <time>2022-08-07T10:12:58Z</time>
      </trkpt>
      <trkpt lat="47.18014" lon="-1.60557">
        <ele>54</ele>
        <time>2022-08-07T10:13:00Z</time>
      </trkpt>
      <trkpt lat="47.18002" lon="-1.60559">
        <ele>54</ele>
        <time>2022-08-07T10:13:02Z</time>
      </trkpt>
      <trkpt lat="47.17991" lon="-1.60562">
        <ele>54</ele>
        <time>2022-08-07T10:13:04Z</time>
      </trkpt>
      <trkpt lat="47.17979" lon="-1.60566">
        <ele>53</ele>
        <time>2022-08-07T10:13:06Z</time>
      </trkpt>
      <trkpt lat="47.17968" lon="-1.60572">
        <ele>53</ele>
        <time>2022-08-07T10:13:08Z</time>
      </trkpt>
      <trkpt lat="47.17955" lon="-1.60576">
        <ele>53</ele>
        <time>2022-08-07T10:13:10Z</time>
      </trkpt>
      <trkpt lat="47.17944" lon="-1.60583">
        <ele>55</ele>
        <time>2022-08-07T10:13:12Z</time>
      </trkpt>
      <trkpt lat="47.17934" lon="-1.60588">
        <ele>56</ele>
        <time>2022-08-07T10:13:14Z</time>
      </trkpt>
      <trkpt lat="47.17924" lon="-1.60591">
        <ele>57</ele>
        <time>2022-08-07T10:13:17Z</time>
      </trkpt>
      <trkpt lat="47.17912" lon="-1.60592">
        <ele>59</ele>
        <time>2022-08-07T10:13:24Z</time>
      </trkpt>
      <trkpt lat="47.17906" lon="-1.60604">
        <ele>58</ele>
        <time>2022-08-07T10:13:26Z</time>
      </trkpt>
      <trkpt lat="47.17902" lon="-1.60619">
        <ele>57</ele>
        <time>2022-08-07T10:13:28Z</time>
      </trkpt>
      <trkpt lat="47.17896" lon="-1.60636">
        <ele>56</ele>
        <time>2022-08-07T10:13:30Z</time>
      </trkpt>
      <trkpt lat="47.1789" lon="-1.60653">
        <ele>55</ele>
        <time>2022-08-07T10:13:32Z</time>
      </trkpt>
      <trkpt lat="47.17884" lon="-1.6067">
        <ele>54</ele>
        <time>2022-08-07T10:13:34Z</time>
      </trkpt>
      <trkpt lat="47.17879" lon="-1.60687">
        <ele>54</ele>
        <time>2022-08-07T10:13:36Z</time>
      </trkpt>
      <trkpt lat="47.17874" lon="-1.60705">
        <ele>53</ele>
        <time>2022-08-07T10:13:38Z</time>
      </trkpt>
      <trkpt lat="47.17869" lon="-1.60723">
        <ele>53</ele>
        <time>2022-08-07T10:13:40Z</time>
      </trkpt>
      <trkpt lat="47.17865" lon="-1.60739">
        <ele>52</ele>
        <time>2022-08-07T10:13:42Z</time>
      </trkpt>
      <trkpt lat="47.17861" lon="-1.60756">
        <ele>52</ele>
        <time>2022-08-07T10:13:44Z</time>
      </trkpt>
      <trkpt lat="47.17857" lon="-1.60773">
        <ele>52</ele>
        <time>2022-08-07T10:13:46Z</time>
      </trkpt>
      <trkpt lat="47.17853" lon="-1.60789">
        <ele>52</ele>
        <time>2022-08-07T10:13:48Z</time>
      </trkpt>
      <trkpt lat="47.17849" lon="-1.60805">
        <ele>53</ele>
        <time>2022-08-07T10:13:50Z</time>
      </trkpt>
      <trkpt lat="47.17846" lon="-1.60822">
        <ele>53</ele>
        <time>2022-08-07T10:13:52Z</time>
      </trkpt>
      <trkpt lat="47.17841" lon="-1.60838">
        <ele>53</ele>
        <time>2022-08-07T10:13:54Z</time>
      </trkpt>
      <trkpt lat="47.17835" lon="-1.60853">
        <ele>53</ele>
        <time>2022-08-07T10:13:56Z</time>
      </trkpt>
      <trkpt lat="47.17828" lon="-1.60867">
        <ele>53</ele>
        <time>2022-08-07T10:13:58Z</time>
      </trkpt>
      <trkpt lat="47.1782" lon="-1.6088">
        <ele>53</ele>
        <time>2022-08-07T10:14:00Z</time>
      </trkpt>
      <trkpt lat="47.17811" lon="-1.60891">
        <ele>53</ele>
        <time>2022-08-07T10:14:02Z</time>
      </trkpt>
      <trkpt lat="47.17801" lon="-1.60901">
        <ele>53</ele>
        <time>2022-08-07T10:14:04Z</time>
      </trkpt>
      <trkpt lat="47.17791" lon="-1.60909">
        <ele>54</ele>
        <time>2022-08-07T10:14:06Z</time>
      </trkpt>
      <trkpt lat="47.17779" lon="-1.60917">
        <ele>54</ele>
        <time>2022-08-07T10:14:08Z</time>
      </trkpt>
      <trkpt lat="47.17768" lon="-1.60925">
        <ele>54</ele>
        <time>2022-08-07T10:14:10Z</time>
      </trkpt>
      <trkpt lat="47.17758" lon="-1.60934">
        <ele>54</ele>
        <time>2022-08-07T10:14:12Z</time>
      </trkpt>
      <trkpt lat="47.17748" lon="-1.60942">
        <ele>54</ele>
        <time>2022-08-07T10:14:14Z</time>
      </trkpt>
      <trkpt lat="47.17737" lon="-1.60949">
        <ele>54</ele>
        <time>2022-08-07T10:14:16Z</time>
      </trkpt>
      <trkpt lat="47.17727" lon="-1.60957">
        <ele>54</ele>
        <time>2022-08-07T10:14:18Z</time>
      </trkpt>
      <trkpt lat="47.17715" lon="-1.60964">
        <ele>54</ele>
        <time>2022-08-07T10:14:20Z</time>
      </trkpt>
      <trkpt lat="47.17704" lon="-1.60971">
        <ele>54</ele>
        <time>2022-08-07T10:14:22Z</time>
      </trkpt>
      <trkpt lat="47.17693" lon="-1.60976">
        <ele>54</ele>
        <time>2022-08-07T10:14:24Z</time>
      </trkpt>
      <trkpt lat="47.1768" lon="-1.60976">
        <ele>55</ele>
        <time>2022-08-07T10:14:26Z</time>
      </trkpt>
      <trkpt lat="47.17666" lon="-1.60975">
        <ele>55</ele>
        <time>2022-08-07T10:14:28Z</time>
      </trkpt>
      <trkpt lat="47.17653" lon="-1.6098">
        <ele>54</ele>
        <time>2022-08-07T10:14:30Z</time>
      </trkpt>
      <trkpt lat="47.17642" lon="-1.60989">
        <ele>54</ele>
        <time>2022-08-07T10:14:32Z</time>
      </trkpt>
      <trkpt lat="47.17631" lon="-1.60999">
        <ele>53</ele>
        <time>2022-08-07T10:14:34Z</time>
      </trkpt>
      <trkpt lat="47.1762" lon="-1.61008">
        <ele>53</ele>
        <time>2022-08-07T10:14:36Z</time>
      </trkpt>
      <trkpt lat="47.1761" lon="-1.61017">
        <ele>53</ele>
        <time>2022-08-07T10:14:38Z</time>
      </trkpt>
      <trkpt lat="47.176" lon="-1.61026">
        <ele>53</ele>
        <time>2022-08-07T10:14:40Z</time>
      </trkpt>
      <trkpt lat="47.1759" lon="-1.61036">
        <ele>53</ele>
        <time>2022-08-07T10:14:42Z</time>
      </trkpt>
      <trkpt lat="47.17579" lon="-1.61045">
        <ele>53</ele>
        <time>2022-08-07T10:14:44Z</time>
      </trkpt>
      <trkpt lat="47.17569" lon="-1.61053">
        <ele>53</ele>
        <time>2022-08-07T10:14:46Z</time>
      </trkpt>
      <trkpt lat="47.17559" lon="-1.61062">
        <ele>53</ele>
        <time>2022-08-07T10:14:48Z</time>
      </trkpt>
      <trkpt lat="47.17549" lon="-1.6107">
        <ele>52</ele>
        <time>2022-08-07T10:14:50Z</time>
      </trkpt>
      <trkpt lat="47.17539" lon="-1.61079">
        <ele>52</ele>
        <time>2022-08-07T10:14:52Z</time>
      </trkpt>
      <trkpt lat="47.17528" lon="-1.61088">
        <ele>52</ele>
        <time>2022-08-07T10:14:54Z</time>
      </trkpt>
      <trkpt lat="47.17519" lon="-1.61096">
        <ele>52</ele>
        <time>2022-08-07T10:14:56Z</time>
      </trkpt>
      <trkpt lat="47.17503" lon="-1.61105">
        <ele>52</ele>
        <time>2022-08-07T10:14:59Z</time>
      </trkpt>
      <trkpt lat="47.17491" lon="-1.61108">
        <ele>52</ele>
        <time>2022-08-07T10:15:01Z</time>
      </trkpt>
      <trkpt lat="47.17479" lon="-1.61107">
        <ele>52</ele>
        <time>2022-08-07T10:15:03Z</time>
      </trkpt>
      <trkpt lat="47.17469" lon="-1.61101">
        <ele>52</ele>
        <time>2022-08-07T10:15:05Z</time>
      </trkpt>
      <trkpt lat="47.17459" lon="-1.61092">
        <ele>54</ele>
        <time>2022-08-07T10:15:07Z</time>
      </trkpt>
      <trkpt lat="47.17451" lon="-1.61083">
        <ele>54</ele>
        <time>2022-08-07T10:15:09Z</time>
      </trkpt>
      <trkpt lat="47.17444" lon="-1.61071">
        <ele>55</ele>
        <time>2022-08-07T10:15:11Z</time>
      </trkpt>
      <trkpt lat="47.17438" lon="-1.61059">
        <ele>55</ele>
        <time>2022-08-07T10:15:13Z</time>
      </trkpt>
      <trkpt lat="47.17434" lon="-1.61045">
        <ele>55</ele>
        <time>2022-08-07T10:15:15Z</time>
      </trkpt>
      <trkpt lat="47.17427" lon="-1.61024">
        <ele>56</ele>
        <time>2022-08-07T10:15:19Z</time>
      </trkpt>
      <trkpt lat="47.1742" lon="-1.61032">
        <ele>56</ele>
        <time>2022-08-07T10:15:23Z</time>
      </trkpt>
      <trkpt lat="47.17424" lon="-1.61051">
        <ele>55</ele>
        <time>2022-08-07T10:15:26Z</time>
      </trkpt>
      <trkpt lat="47.17429" lon="-1.61064">
        <ele>55</ele>
        <time>2022-08-07T10:15:28Z</time>
      </trkpt>
      <trkpt lat="47.17434" lon="-1.61077">
        <ele>55</ele>
        <time>2022-08-07T10:15:30Z</time>
      </trkpt>
      <trkpt lat="47.17439" lon="-1.6109">
        <ele>56</ele>
        <time>2022-08-07T10:15:32Z</time>
      </trkpt>
      <trkpt lat="47.17445" lon="-1.61103">
        <ele>56</ele>
        <time>2022-08-07T10:15:34Z</time>
      </trkpt>
      <trkpt lat="47.17449" lon="-1.61116">
        <ele>57</ele>
        <time>2022-08-07T10:15:36Z</time>
      </trkpt>
      <trkpt lat="47.17454" lon="-1.61129">
        <ele>57</ele>
        <time>2022-08-07T10:15:38Z</time>
      </trkpt>
      <trkpt lat="47.17459" lon="-1.61141">
        <ele>58</ele>
        <time>2022-08-07T10:15:40Z</time>
      </trkpt>
      <trkpt lat="47.17464" lon="-1.61154">
        <ele>58</ele>
        <time>2022-08-07T10:15:42Z</time>
      </trkpt>
      <trkpt lat="47.1747" lon="-1.61168">
        <ele>58</ele>
        <time>2022-08-07T10:15:44Z</time>
      </trkpt>
      <trkpt lat="47.17475" lon="-1.61182">
        <ele>58</ele>
        <time>2022-08-07T10:15:46Z</time>
      </trkpt>
      <trkpt lat="47.17481" lon="-1.61196">
        <ele>58</ele>
        <time>2022-08-07T10:15:48Z</time>
      </trkpt>
      <trkpt lat="47.17486" lon="-1.61209">
        <ele>57</ele>
        <time>2022-08-07T10:15:50Z</time>
      </trkpt>
      <trkpt lat="47.17491" lon="-1.61222">
        <ele>57</ele>
        <time>2022-08-07T10:15:52Z</time>
      </trkpt>
      <trkpt lat="47.17497" lon="-1.61234">
        <ele>58</ele>
        <time>2022-08-07T10:15:54Z</time>
      </trkpt>
      <trkpt lat="47.17503" lon="-1.61247">
        <ele>58</ele>
        <time>2022-08-07T10:15:56Z</time>
      </trkpt>
      <trkpt lat="47.17509" lon="-1.61258">
        <ele>58</ele>
        <time>2022-08-07T10:15:58Z</time>
      </trkpt>
      <trkpt lat="47.17517" lon="-1.6127">
        <ele>58</ele>
        <time>2022-08-07T10:16:00Z</time>
      </trkpt>
      <trkpt lat="47.17524" lon="-1.6128">
        <ele>58</ele>
        <time>2022-08-07T10:16:02Z</time>
      </trkpt>
      <trkpt lat="47.17533" lon="-1.61289">
        <ele>58</ele>
        <time>2022-08-07T10:16:04Z</time>
      </trkpt>
      <trkpt lat="47.17542" lon="-1.61295">
        <ele>58</ele>
        <time>2022-08-07T10:16:06Z</time>
      </trkpt>
      <trkpt lat="47.17552" lon="-1.61301">
        <ele>58</ele>
        <time>2022-08-07T10:16:08Z</time>
      </trkpt>
      <trkpt lat="47.17558" lon="-1.61313">
        <ele>57</ele>
        <time>2022-08-07T10:16:10Z</time>
      </trkpt>
      <trkpt lat="47.17561" lon="-1.61328">
        <ele>58</ele>
        <time>2022-08-07T10:16:12Z</time>
      </trkpt>
      <trkpt lat="47.17556" lon="-1.61344">
        <ele>58</ele>
        <time>2022-08-07T10:16:14Z</time>
      </trkpt>
      <trkpt lat="47.17547" lon="-1.61356">
        <ele>58</ele>
        <time>2022-08-07T10:16:16Z</time>
      </trkpt>
      <trkpt lat="47.17537" lon="-1.61364">
        <ele>58</ele>
        <time>2022-08-07T10:16:18Z</time>
      </trkpt>
      <trkpt lat="47.1753" lon="-1.61376">
        <ele>58</ele>
        <time>2022-08-07T10:16:20Z</time>
      </trkpt>
      <trkpt lat="47.17525" lon="-1.61391">
        <ele>59</ele>
        <time>2022-08-07T10:16:22Z</time>
      </trkpt>
      <trkpt lat="47.17521" lon="-1.61406">
        <ele>59</ele>
        <time>2022-08-07T10:16:24Z</time>
      </trkpt>
      <trkpt lat="47.17518" lon="-1.6142">
        <ele>59</ele>
        <time>2022-08-07T10:16:26Z</time>
      </trkpt>
      <trkpt lat="47.17516" lon="-1.61433">
        <ele>59</ele>
        <time>2022-08-07T10:16:28Z</time>
      </trkpt>
      <trkpt lat="47.17513" lon="-1.61446">
        <ele>60</ele>
        <time>2022-08-07T10:16:30Z</time>
      </trkpt>
      <trkpt lat="47.17504" lon="-1.61461">
        <ele>61</ele>
        <time>2022-08-07T10:16:33Z</time>
      </trkpt>
      <trkpt lat="47.17494" lon="-1.61467">
        <ele>61</ele>
        <time>2022-08-07T10:16:35Z</time>
      </trkpt>
      <trkpt lat="47.17485" lon="-1.61471">
        <ele>61</ele>
        <time>2022-08-07T10:16:37Z</time>
      </trkpt>
      <trkpt lat="47.17476" lon="-1.61476">
        <ele>62</ele>
        <time>2022-08-07T10:16:39Z</time>
      </trkpt>
      <trkpt lat="47.17466" lon="-1.61481">
        <ele>63</ele>
        <time>2022-08-07T10:16:41Z</time>
      </trkpt>
      <trkpt lat="47.17456" lon="-1.61485">
        <ele>63</ele>
        <time>2022-08-07T10:16:43Z</time>
      </trkpt>
      <trkpt lat="47.17446" lon="-1.61489">
        <ele>64</ele>
        <time>2022-08-07T10:16:45Z</time>
      </trkpt>
      <trkpt lat="47.17436" lon="-1.61495">
        <ele>65</ele>
        <time>2022-08-07T10:16:47Z</time>
      </trkpt>
      <trkpt lat="47.17427" lon="-1.61501">
        <ele>66</ele>
        <time>2022-08-07T10:16:49Z</time>
      </trkpt>
      <trkpt lat="47.17418" lon="-1.61507">
        <ele>66</ele>
        <time>2022-08-07T10:16:51Z</time>
      </trkpt>
      <trkpt lat="47.1741" lon="-1.61513">
        <ele>67</ele>
        <time>2022-08-07T10:16:53Z</time>
      </trkpt>
      <trkpt lat="47.17401" lon="-1.6152">
        <ele>67</ele>
        <time>2022-08-07T10:16:55Z</time>
      </trkpt>
      <trkpt lat="47.17393" lon="-1.61526">
        <ele>68</ele>
        <time>2022-08-07T10:16:57Z</time>
      </trkpt>
      <trkpt lat="47.17382" lon="-1.61537">
        <ele>68</ele>
        <time>2022-08-07T10:17:00Z</time>
      </trkpt>
      <trkpt lat="47.17374" lon="-1.61545">
        <ele>70</ele>
        <time>2022-08-07T10:17:02Z</time>
      </trkpt>
      <trkpt lat="47.17366" lon="-1.61554">
        <ele>72</ele>
        <time>2022-08-07T10:17:04Z</time>
      </trkpt>
      <trkpt lat="47.17358" lon="-1.61563">
        <ele>73</ele>
        <time>2022-08-07T10:17:06Z</time>
      </trkpt>
      <trkpt lat="47.17349" lon="-1.61573">
        <ele>73</ele>
        <time>2022-08-07T10:17:08Z</time>
      </trkpt>
      <trkpt lat="47.17342" lon="-1.61582">
        <ele>74</ele>
        <time>2022-08-07T10:17:10Z</time>
      </trkpt>
      <trkpt lat="47.17334" lon="-1.61591">
        <ele>73</ele>
        <time>2022-08-07T10:17:12Z</time>
      </trkpt>
      <trkpt lat="47.17325" lon="-1.61602">
        <ele>73</ele>
        <time>2022-08-07T10:17:14Z</time>
      </trkpt>
      <trkpt lat="47.17317" lon="-1.61613">
        <ele>73</ele>
        <time>2022-08-07T10:17:16Z</time>
      </trkpt>
      <trkpt lat="47.17309" lon="-1.61624">
        <ele>72</ele>
        <time>2022-08-07T10:17:18Z</time>
      </trkpt>
      <trkpt lat="47.17302" lon="-1.61634">
        <ele>71</ele>
        <time>2022-08-07T10:17:20Z</time>
      </trkpt>
      <trkpt lat="47.17295" lon="-1.61645">
        <ele>71</ele>
        <time>2022-08-07T10:17:22Z</time>
      </trkpt>
      <trkpt lat="47.17289" lon="-1.61658">
        <ele>71</ele>
        <time>2022-08-07T10:17:24Z</time>
      </trkpt>
      <trkpt lat="47.17282" lon="-1.6167">
        <ele>71</ele>
        <time>2022-08-07T10:17:26Z</time>
      </trkpt>
      <trkpt lat="47.17277" lon="-1.61682">
        <ele>71</ele>
        <time>2022-08-07T10:17:28Z</time>
      </trkpt>
      <trkpt lat="47.1727" lon="-1.61695">
        <ele>71</ele>
        <time>2022-08-07T10:17:30Z</time>
      </trkpt>
      <trkpt lat="47.17264" lon="-1.61709">
        <ele>70</ele>
        <time>2022-08-07T10:17:32Z</time>
      </trkpt>
      <trkpt lat="47.17257" lon="-1.61723">
        <ele>70</ele>
        <time>2022-08-07T10:17:34Z</time>
      </trkpt>
      <trkpt lat="47.17251" lon="-1.61737">
        <ele>70</ele>
        <time>2022-08-07T10:17:36Z</time>
      </trkpt>
      <trkpt lat="47.17246" lon="-1.61751">
        <ele>70</ele>
        <time>2022-08-07T10:17:38Z</time>
      </trkpt>
      <trkpt lat="47.17243" lon="-1.61767">
        <ele>69</ele>
        <time>2022-08-07T10:17:40Z</time>
      </trkpt>
      <trkpt lat="47.17236" lon="-1.61782">
        <ele>68</ele>
        <time>2022-08-07T10:17:42Z</time>
      </trkpt>
      <trkpt lat="47.17226" lon="-1.61792">
        <ele>67</ele>
        <time>2022-08-07T10:17:44Z</time>
      </trkpt>
      <trkpt lat="47.17215" lon="-1.61801">
        <ele>67</ele>
        <time>2022-08-07T10:17:46Z</time>
      </trkpt>
      <trkpt lat="47.17205" lon="-1.6181">
        <ele>67</ele>
        <time>2022-08-07T10:17:48Z</time>
      </trkpt>
      <trkpt lat="47.17196" lon="-1.61819">
        <ele>67</ele>
        <time>2022-08-07T10:17:50Z</time>
      </trkpt>
      <trkpt lat="47.17186" lon="-1.61828">
        <ele>67</ele>
        <time>2022-08-07T10:17:52Z</time>
      </trkpt>
      <trkpt lat="47.17176" lon="-1.61838">
        <ele>67</ele>
        <time>2022-08-07T10:17:54Z</time>
      </trkpt>
      <trkpt lat="47.17166" lon="-1.61848">
        <ele>67</ele>
        <time>2022-08-07T10:17:56Z</time>
      </trkpt>
      <trkpt lat="47.17156" lon="-1.61858">
        <ele>67</ele>
        <time>2022-08-07T10:17:58Z</time>
      </trkpt>
      <trkpt lat="47.17146" lon="-1.61867">
        <ele>67</ele>
        <time>2022-08-07T10:18:00Z</time>
      </trkpt>
      <trkpt lat="47.17136" lon="-1.61875">
        <ele>67</ele>
        <time>2022-08-07T10:18:02Z</time>
      </trkpt>
      <trkpt lat="47.17127" lon="-1.61884">
        <ele>67</ele>
        <time>2022-08-07T10:18:04Z</time>
      </trkpt>
      <trkpt lat="47.17117" lon="-1.61893">
        <ele>67</ele>
        <time>2022-08-07T10:18:06Z</time>
      </trkpt>
      <trkpt lat="47.17108" lon="-1.61902">
        <ele>66</ele>
        <time>2022-08-07T10:18:08Z</time>
      </trkpt>
      <trkpt lat="47.17098" lon="-1.61912">
        <ele>66</ele>
        <time>2022-08-07T10:18:10Z</time>
      </trkpt>
      <trkpt lat="47.17088" lon="-1.61921">
        <ele>66</ele>
        <time>2022-08-07T10:18:12Z</time>
      </trkpt>
      <trkpt lat="47.1708" lon="-1.6193">
        <ele>67</ele>
        <time>2022-08-07T10:18:14Z</time>
      </trkpt>
      <trkpt lat="47.17071" lon="-1.61939">
        <ele>67</ele>
        <time>2022-08-07T10:18:16Z</time>
      </trkpt>
      <trkpt lat="47.17062" lon="-1.61949">
        <ele>67</ele>
        <time>2022-08-07T10:18:18Z</time>
      </trkpt>
      <trkpt lat="47.17053" lon="-1.6196">
        <ele>67</ele>
        <time>2022-08-07T10:18:20Z</time>
      </trkpt>
      <trkpt lat="47.17044" lon="-1.61973">
        <ele>67</ele>
        <time>2022-08-07T10:18:22Z</time>
      </trkpt>
      <trkpt lat="47.17036" lon="-1.61985">
        <ele>67</ele>
        <time>2022-08-07T10:18:24Z</time>
      </trkpt>
      <trkpt lat="47.17028" lon="-1.61997">
        <ele>68</ele>
        <time>2022-08-07T10:18:26Z</time>
      </trkpt>
      <trkpt lat="47.1702" lon="-1.62009">
        <ele>68</ele>
        <time>2022-08-07T10:18:28Z</time>
      </trkpt>
      <trkpt lat="47.17011" lon="-1.62022">
        <ele>68</ele>
        <time>2022-08-07T10:18:30Z</time>
      </trkpt>
      <trkpt lat="47.17003" lon="-1.62034">
        <ele>68</ele>
        <time>2022-08-07T10:18:32Z</time>
      </trkpt>
      <trkpt lat="47.16995" lon="-1.62048">
        <ele>68</ele>
        <time>2022-08-07T10:18:34Z</time>
      </trkpt>
      <trkpt lat="47.16988" lon="-1.62062">
        <ele>68</ele>
        <time>2022-08-07T10:18:36Z</time>
      </trkpt>
      <trkpt lat="47.16981" lon="-1.62076">
        <ele>68</ele>
        <time>2022-08-07T10:18:38Z</time>
      </trkpt>
      <trkpt lat="47.16973" lon="-1.62089">
        <ele>68</ele>
        <time>2022-08-07T10:18:40Z</time>
      </trkpt>
      <trkpt lat="47.16965" lon="-1.62102">
        <ele>68</ele>
        <time>2022-08-07T10:18:42Z</time>
      </trkpt>
      <trkpt lat="47.16958" lon="-1.62116">
        <ele>68</ele>
        <time>2022-08-07T10:18:44Z</time>
      </trkpt>
      <trkpt lat="47.1695" lon="-1.62131">
        <ele>68</ele>
        <time>2022-08-07T10:18:46Z</time>
      </trkpt>
      <trkpt lat="47.16943" lon="-1.62145">
        <ele>68</ele>
        <time>2022-08-07T10:18:48Z</time>
      </trkpt>
      <trkpt lat="47.16936" lon="-1.6216">
        <ele>68</ele>
        <time>2022-08-07T10:18:50Z</time>
      </trkpt>
      <trkpt lat="47.16928" lon="-1.62175">
        <ele>68</ele>
        <time>2022-08-07T10:18:52Z</time>
      </trkpt>
      <trkpt lat="47.16921" lon="-1.6219">
        <ele>68</ele>
        <time>2022-08-07T10:18:54Z</time>
      </trkpt>
      <trkpt lat="47.16913" lon="-1.62204">
        <ele>68</ele>
        <time>2022-08-07T10:18:56Z</time>
      </trkpt>
      <trkpt lat="47.16904" lon="-1.62218">
        <ele>68</ele>
        <time>2022-08-07T10:18:58Z</time>
      </trkpt>
      <trkpt lat="47.16894" lon="-1.62231">
        <ele>68</ele>
        <time>2022-08-07T10:19:00Z</time>
      </trkpt>
      <trkpt lat="47.16884" lon="-1.62242">
        <ele>69</ele>
        <time>2022-08-07T10:19:02Z</time>
      </trkpt>
      <trkpt lat="47.16875" lon="-1.62254">
        <ele>69</ele>
        <time>2022-08-07T10:19:04Z</time>
      </trkpt>
      <trkpt lat="47.16865" lon="-1.62266">
        <ele>69</ele>
        <time>2022-08-07T10:19:06Z</time>
      </trkpt>
      <trkpt lat="47.16855" lon="-1.62279">
        <ele>69</ele>
        <time>2022-08-07T10:19:08Z</time>
      </trkpt>
      <trkpt lat="47.16846" lon="-1.62291">
        <ele>69</ele>
        <time>2022-08-07T10:19:10Z</time>
      </trkpt>
      <trkpt lat="47.16836" lon="-1.62302">
        <ele>70</ele>
        <time>2022-08-07T10:19:12Z</time>
      </trkpt>
      <trkpt lat="47.16825" lon="-1.62313">
        <ele>70</ele>
        <time>2022-08-07T10:19:14Z</time>
      </trkpt>
      <trkpt lat="47.16813" lon="-1.62322">
        <ele>70</ele>
        <time>2022-08-07T10:19:16Z</time>
      </trkpt>
      <trkpt lat="47.16801" lon="-1.6233">
        <ele>70</ele>
        <time>2022-08-07T10:19:18Z</time>
      </trkpt>
      <trkpt lat="47.16789" lon="-1.62337">
        <ele>70</ele>
        <time>2022-08-07T10:19:20Z</time>
      </trkpt>
      <trkpt lat="47.16777" lon="-1.62343">
        <ele>69</ele>
        <time>2022-08-07T10:19:22Z</time>
      </trkpt>
      <trkpt lat="47.16764" lon="-1.62351">
        <ele>68</ele>
        <time>2022-08-07T10:19:24Z</time>
      </trkpt>
      <trkpt lat="47.16753" lon="-1.62359">
        <ele>68</ele>
        <time>2022-08-07T10:19:26Z</time>
      </trkpt>
      <trkpt lat="47.16742" lon="-1.62371">
        <ele>68</ele>
        <time>2022-08-07T10:19:28Z</time>
      </trkpt>
      <trkpt lat="47.16734" lon="-1.62387">
        <ele>68</ele>
        <time>2022-08-07T10:19:30Z</time>
      </trkpt>
      <trkpt lat="47.16729" lon="-1.62405">
        <ele>67</ele>
        <time>2022-08-07T10:19:32Z</time>
      </trkpt>
      <trkpt lat="47.16727" lon="-1.62423">
        <ele>67</ele>
        <time>2022-08-07T10:19:34Z</time>
      </trkpt>
      <trkpt lat="47.16724" lon="-1.62441">
        <ele>67</ele>
        <time>2022-08-07T10:19:36Z</time>
      </trkpt>
      <trkpt lat="47.1672" lon="-1.62458">
        <ele>67</ele>
        <time>2022-08-07T10:19:38Z</time>
      </trkpt>
      <trkpt lat="47.16716" lon="-1.62474">
        <ele>67</ele>
        <time>2022-08-07T10:19:40Z</time>
      </trkpt>
      <trkpt lat="47.16714" lon="-1.62491">
        <ele>67</ele>
        <time>2022-08-07T10:19:42Z</time>
      </trkpt>
      <trkpt lat="47.16724" lon="-1.625">
        <ele>68</ele>
        <time>2022-08-07T10:19:44Z</time>
      </trkpt>
      <trkpt lat="47.16736" lon="-1.62504">
        <ele>68</ele>
        <time>2022-08-07T10:19:46Z</time>
      </trkpt>
      <trkpt lat="47.16747" lon="-1.62509">
        <ele>68</ele>
        <time>2022-08-07T10:19:48Z</time>
      </trkpt>
      <trkpt lat="47.16759" lon="-1.62515">
        <ele>68</ele>
        <time>2022-08-07T10:19:50Z</time>
      </trkpt>
      <trkpt lat="47.1677" lon="-1.62522">
        <ele>68</ele>
        <time>2022-08-07T10:19:52Z</time>
      </trkpt>
      <trkpt lat="47.1678" lon="-1.62529">
        <ele>68</ele>
        <time>2022-08-07T10:19:54Z</time>
      </trkpt>
      <trkpt lat="47.16791" lon="-1.62536">
        <ele>69</ele>
        <time>2022-08-07T10:19:56Z</time>
      </trkpt>
      <trkpt lat="47.16801" lon="-1.62542">
        <ele>69</ele>
        <time>2022-08-07T10:19:58Z</time>
      </trkpt>
      <trkpt lat="47.16811" lon="-1.6255">
        <ele>69</ele>
        <time>2022-08-07T10:20:00Z</time>
      </trkpt>
      <trkpt lat="47.1682" lon="-1.6256">
        <ele>69</ele>
        <time>2022-08-07T10:20:02Z</time>
      </trkpt>
      <trkpt lat="47.16828" lon="-1.62571">
        <ele>69</ele>
        <time>2022-08-07T10:20:04Z</time>
      </trkpt>
      <trkpt lat="47.16828" lon="-1.62587">
        <ele>68</ele>
        <time>2022-08-07T10:20:06Z</time>
      </trkpt>
      <trkpt lat="47.16821" lon="-1.626">
        <ele>68</ele>
        <time>2022-08-07T10:20:08Z</time>
      </trkpt>
      <trkpt lat="47.16814" lon="-1.62612">
        <ele>69</ele>
        <time>2022-08-07T10:20:10Z</time>
      </trkpt>
      <trkpt lat="47.16806" lon="-1.62624">
        <ele>69</ele>
        <time>2022-08-07T10:20:12Z</time>
      </trkpt>
      <trkpt lat="47.168" lon="-1.62636">
        <ele>69</ele>
        <time>2022-08-07T10:20:14Z</time>
      </trkpt>
      <trkpt lat="47.16794" lon="-1.62647">
        <ele>69</ele>
        <time>2022-08-07T10:20:16Z</time>
      </trkpt>
      <trkpt lat="47.16787" lon="-1.6266">
        <ele>70</ele>
        <time>2022-08-07T10:20:19Z</time>
      </trkpt>
      <trkpt lat="47.16778" lon="-1.6266">
        <ele>76</ele>
        <time>2022-08-07T10:21:21Z</time>
      </trkpt>
    </trkseg>
  </trk>
</gpx>